<?xml version='1.0' encoding='UTF-8'?><gpx version="1.1" creator="JPX - https://github.com/jenetics/jpx" xmlns="http://www.topografix.com/GPX/1/1"><trk><trkseg><trkpt lat="42.0894692" lon="11.7929382"><ele>2.0</ele><time>2026-04-19T07:52:22.049Z</time></trkpt><trkpt lat="42.0895587" lon="11.792791"><ele>2.0</ele><time>2026-04-19T07:52:40.046Z</time></trkpt><trkpt lat="42.089582" lon="11.7928702"><ele>2.0</ele><time>2026-04-19T07:53:25.011Z</time></trkpt><trkpt lat="42.0895638" lon="11.7930051"><ele>2.0</ele><time>2026-04-19T07:53:43.046Z</time></trkpt><trkpt lat="42.0895148" lon="11.7931297"><ele>2.0</ele><time>2026-04-19T07:53:45.051Z</time></trkpt><trkpt lat="42.0894808" lon="11.7932028"><ele>2.0</ele><time>2026-04-19T07:53:46.043Z</time></trkpt><trkpt lat="42.0894446" lon="11.7932775"><ele>1.9999999999999998</ele><time>2026-04-19T07:53:47.05Z</time></trkpt><trkpt lat="42.0894083" lon="11.7933505"><ele>2.0</ele><time>2026-04-19T07:53:48.038Z</time></trkpt><trkpt lat="42.0893675" lon="11.7934315"><ele>2.0</ele><time>2026-04-19T07:53:49.042Z</time></trkpt><trkpt lat="42.0893243" lon="11.7935212"><ele>1.9999999999999998</ele><time>2026-04-19T07:53:50.037Z</time></trkpt><trkpt lat="42.0892801" lon="11.7936104"><ele>2.0</ele><time>2026-04-19T07:53:51.042Z</time></trkpt><trkpt lat="42.0892369" lon="11.7937005"><ele>2.0</ele><time>2026-04-19T07:53:52.05Z</time></trkpt><trkpt lat="42.0891929" lon="11.7937913"><ele>2.1666666666666665</ele><time>2026-04-19T07:53:53.042Z</time></trkpt><trkpt lat="42.0891474" lon="11.7938825"><ele>2.333333333333333</ele><time>2026-04-19T07:53:54.047Z</time></trkpt><trkpt lat="42.089101" lon="11.7939714"><ele>2.5</ele><time>2026-04-19T07:53:55.048Z</time></trkpt><trkpt lat="42.0890572" lon="11.7940615"><ele>2.6666666666666665</ele><time>2026-04-19T07:53:56.042Z</time></trkpt><trkpt lat="42.0890133" lon="11.7941523"><ele>2.8333333333333335</ele><time>2026-04-19T07:53:57.037Z</time></trkpt><trkpt lat="42.0889713" lon="11.7942463"><ele>3.0</ele><time>2026-04-19T07:53:58.032Z</time></trkpt><trkpt lat="42.08893" lon="11.7943398"><ele>2.714285714285714</ele><time>2026-04-19T07:53:59.048Z</time></trkpt><trkpt lat="42.0888925" lon="11.7944217"><ele>2.4285714285714284</ele><time>2026-04-19T07:54:00.049Z</time></trkpt><trkpt lat="42.0888568" lon="11.7945018"><ele>2.142857142857143</ele><time>2026-04-19T07:54:01.053Z</time></trkpt><trkpt lat="42.0888214" lon="11.7945844"><ele>1.857142857142857</ele><time>2026-04-19T07:54:02.04Z</time></trkpt><trkpt lat="42.0887876" lon="11.7946624"><ele>1.5714285714285712</ele><time>2026-04-19T07:54:03.042Z</time></trkpt><trkpt lat="42.0887521" lon="11.7947402"><ele>1.2857142857142856</ele><time>2026-04-19T07:54:04.052Z</time></trkpt><trkpt lat="42.0887157" lon="11.7948221"><ele>1.0</ele><time>2026-04-19T07:54:05.06Z</time></trkpt><trkpt lat="42.0886782" lon="11.7949074"><ele>1.0</ele><time>2026-04-19T07:54:06.041Z</time></trkpt><trkpt lat="42.0886415" lon="11.7949903"><ele>0.9999999999999999</ele><time>2026-04-19T07:54:07.075Z</time></trkpt><trkpt lat="42.0886042" lon="11.7950694"><ele>1.0</ele><time>2026-04-19T07:54:08.057Z</time></trkpt><trkpt lat="42.0885696" lon="11.7951491"><ele>1.0</ele><time>2026-04-19T07:54:09.047Z</time></trkpt><trkpt lat="42.0885408" lon="11.795231"><ele>0.9999999999999999</ele><time>2026-04-19T07:54:10.053Z</time></trkpt><trkpt lat="42.0885186" lon="11.7953209"><ele>1.0</ele><time>2026-04-19T07:54:11.046Z</time></trkpt><trkpt lat="42.0885009" lon="11.7954134"><ele>1.0</ele><time>2026-04-19T07:54:12.041Z</time></trkpt><trkpt lat="42.0884829" lon="11.7955075"><ele>1.3333333333333333</ele><time>2026-04-19T07:54:13.046Z</time></trkpt><trkpt lat="42.0884647" lon="11.7956045"><ele>1.6666666666666665</ele><time>2026-04-19T07:54:14.052Z</time></trkpt><trkpt lat="42.0884422" lon="11.7957039"><ele>2.0</ele><time>2026-04-19T07:54:15.067Z</time></trkpt><trkpt lat="42.0884219" lon="11.7957986"><ele>2.3333333333333335</ele><time>2026-04-19T07:54:16.055Z</time></trkpt><trkpt lat="42.0883962" lon="11.7958936"><ele>2.6666666666666665</ele><time>2026-04-19T07:54:17.063Z</time></trkpt><trkpt lat="42.0883668" lon="11.7959911"><ele>3.0</ele><time>2026-04-19T07:54:18.051Z</time></trkpt><trkpt lat="42.0883344" lon="11.7960926"><ele>2.8333333333333335</ele><time>2026-04-19T07:54:19.06Z</time></trkpt><trkpt lat="42.0883025" lon="11.7961896"><ele>2.6666666666666665</ele><time>2026-04-19T07:54:20.046Z</time></trkpt><trkpt lat="42.088268" lon="11.7962901"><ele>2.5</ele><time>2026-04-19T07:54:21.054Z</time></trkpt><trkpt lat="42.0882378" lon="11.7963879"><ele>2.333333333333333</ele><time>2026-04-19T07:54:22.046Z</time></trkpt><trkpt lat="42.0882086" lon="11.7964778"><ele>2.1666666666666665</ele><time>2026-04-19T07:54:23.062Z</time></trkpt><trkpt lat="42.0881833" lon="11.796556"><ele>2.0</ele><time>2026-04-19T07:54:24.041Z</time></trkpt><trkpt lat="42.0881498" lon="11.7966842"><ele>1.9999999999999998</ele><time>2026-04-19T07:54:26.046Z</time></trkpt><trkpt lat="42.0881447" lon="11.7967915"><ele>2.0</ele><time>2026-04-19T07:54:28.057Z</time></trkpt><trkpt lat="42.0881581" lon="11.7968819"><ele>2.0</ele><time>2026-04-19T07:54:32.038Z</time></trkpt><trkpt lat="42.0882128" lon="11.7969294"><ele>2.0</ele><time>2026-04-19T07:54:46.039Z</time></trkpt><trkpt lat="42.0882783" lon="11.7968875"><ele>1.9999999999999998</ele><time>2026-04-19T07:54:48.043Z</time></trkpt><trkpt lat="42.0883472" lon="11.796758"><ele>2.0</ele><time>2026-04-19T07:54:50.037Z</time></trkpt><trkpt lat="42.0883861" lon="11.7966785"><ele>2.6</ele><time>2026-04-19T07:54:51.043Z</time></trkpt><trkpt lat="42.0884241" lon="11.796604"><ele>3.2</ele><time>2026-04-19T07:54:52.047Z</time></trkpt><trkpt lat="42.0884837" lon="11.7964836"><ele>3.8</ele><time>2026-04-19T07:54:54.047Z</time></trkpt><trkpt lat="42.0885418" lon="11.7963624"><ele>4.4</ele><time>2026-04-19T07:54:56.037Z</time></trkpt><trkpt lat="42.0885947" lon="11.7962357"><ele>5.0</ele><time>2026-04-19T07:54:58.042Z</time></trkpt><trkpt lat="42.0886295" lon="11.7961469"><ele>5.0</ele><time>2026-04-19T07:55:00.028Z</time></trkpt><trkpt lat="42.0886658" lon="11.7960635"><ele>5.0</ele><time>2026-04-19T07:55:02.043Z</time></trkpt><trkpt lat="42.0887141" lon="11.7959549"><ele>5.0</ele><time>2026-04-19T07:55:04.037Z</time></trkpt><trkpt lat="42.0887733" lon="11.7958319"><ele>5.0</ele><time>2026-04-19T07:55:06.035Z</time></trkpt><trkpt lat="42.0888148" lon="11.7957522"><ele>5.0</ele><time>2026-04-19T07:55:08.031Z</time></trkpt><trkpt lat="42.088856" lon="11.7956635"><ele>5.0</ele><time>2026-04-19T07:55:11.04Z</time></trkpt><trkpt lat="42.0889014" lon="11.7955759"><ele>4.666666666666667</ele><time>2026-04-19T07:55:15.032Z</time></trkpt><trkpt lat="42.0889625" lon="11.795451"><ele>4.333333333333334</ele><time>2026-04-19T07:55:17.039Z</time></trkpt><trkpt lat="42.0889973" lon="11.7953793"><ele>4.0</ele><time>2026-04-19T07:55:18.039Z</time></trkpt><trkpt lat="42.0890319" lon="11.7953058"><ele>3.666666666666667</ele><time>2026-04-19T07:55:19.03Z</time></trkpt><trkpt lat="42.0890688" lon="11.7952248"><ele>3.3333333333333335</ele><time>2026-04-19T07:55:20.045Z</time></trkpt><trkpt lat="42.0891071" lon="11.7951388"><ele>3.0</ele><time>2026-04-19T07:55:21.041Z</time></trkpt><trkpt lat="42.0891473" lon="11.7950505"><ele>3.666666666666667</ele><time>2026-04-19T07:55:22.033Z</time></trkpt><trkpt lat="42.0891877" lon="11.7949625"><ele>4.333333333333334</ele><time>2026-04-19T07:55:23.038Z</time></trkpt><trkpt lat="42.089228" lon="11.7948724"><ele>5.0</ele><time>2026-04-19T07:55:24.039Z</time></trkpt><trkpt lat="42.0892677" lon="11.7947819"><ele>5.666666666666667</ele><time>2026-04-19T07:55:25.049Z</time></trkpt><trkpt lat="42.0893093" lon="11.7946917"><ele>6.333333333333334</ele><time>2026-04-19T07:55:26.053Z</time></trkpt><trkpt lat="42.0893524" lon="11.7946015"><ele>7.0</ele><time>2026-04-19T07:55:27.031Z</time></trkpt><trkpt lat="42.0893959" lon="11.7945099"><ele>7.000000000000001</ele><time>2026-04-19T07:55:28.048Z</time></trkpt><trkpt lat="42.0894411" lon="11.7944155"><ele>7.0</ele><time>2026-04-19T07:55:29.054Z</time></trkpt><trkpt lat="42.089487" lon="11.7943194"><ele>7.0</ele><time>2026-04-19T07:55:30.055Z</time></trkpt><trkpt lat="42.0895326" lon="11.7942245"><ele>7.0</ele><time>2026-04-19T07:55:31.039Z</time></trkpt><trkpt lat="42.0895771" lon="11.7941292"><ele>7.000000000000001</ele><time>2026-04-19T07:55:32.047Z</time></trkpt><trkpt lat="42.0896205" lon="11.7940337"><ele>7.0</ele><time>2026-04-19T07:55:33.043Z</time></trkpt><trkpt lat="42.0896618" lon="11.7939473"><ele>7.166666666666667</ele><time>2026-04-19T07:55:34.038Z</time></trkpt><trkpt lat="42.0897007" lon="11.7938732"><ele>7.333333333333334</ele><time>2026-04-19T07:55:35.047Z</time></trkpt><trkpt lat="42.0897686" lon="11.7937325"><ele>7.5</ele><time>2026-04-19T07:55:37.038Z</time></trkpt><trkpt lat="42.0898055" lon="11.7936557"><ele>7.666666666666666</ele><time>2026-04-19T07:55:38.033Z</time></trkpt><trkpt lat="42.0898435" lon="11.7935766"><ele>7.833333333333333</ele><time>2026-04-19T07:55:39.051Z</time></trkpt><trkpt lat="42.0898786" lon="11.7935045"><ele>8.0</ele><time>2026-04-19T07:55:40.048Z</time></trkpt><trkpt lat="42.0899397" lon="11.7933787"><ele>8.0</ele><time>2026-04-19T07:55:42.043Z</time></trkpt><trkpt lat="42.0900008" lon="11.7932315"><ele>8.0</ele><time>2026-04-19T07:55:44.034Z</time></trkpt><trkpt lat="42.0900628" lon="11.793096"><ele>8.0</ele><time>2026-04-19T07:55:46.038Z</time></trkpt><trkpt lat="42.0901224" lon="11.7929721"><ele>8.0</ele><time>2026-04-19T07:55:48.056Z</time></trkpt><trkpt lat="42.0901892" lon="11.7928296"><ele>7.999999999999999</ele><time>2026-04-19T07:55:50.037Z</time></trkpt><trkpt lat="42.0902454" lon="11.7927071"><ele>8.0</ele><time>2026-04-19T07:55:52.052Z</time></trkpt><trkpt lat="42.0902981" lon="11.7926086"><ele>8.0</ele><time>2026-04-19T07:55:54.031Z</time></trkpt><trkpt lat="42.0903577" lon="11.7925175"><ele>8.0</ele><time>2026-04-19T07:55:56.039Z</time></trkpt><trkpt lat="42.0904059" lon="11.792462"><ele>7.999999999999999</ele><time>2026-04-19T07:55:58.043Z</time></trkpt><trkpt lat="42.090488" lon="11.7924167"><ele>8.0</ele><time>2026-04-19T07:56:01.041Z</time></trkpt><trkpt lat="42.0905565" lon="11.7924025"><ele>7.6000000000000005</ele><time>2026-04-19T07:56:03.053Z</time></trkpt><trkpt lat="42.0906197" lon="11.7924026"><ele>7.200000000000001</ele><time>2026-04-19T07:56:05.049Z</time></trkpt><trkpt lat="42.0906876" lon="11.7924315"><ele>6.8</ele><time>2026-04-19T07:56:07.049Z</time></trkpt><trkpt lat="42.0907771" lon="11.7925047"><ele>6.4</ele><time>2026-04-19T07:56:09.057Z</time></trkpt><trkpt lat="42.0908732" lon="11.7926056"><ele>6.0</ele><time>2026-04-19T07:56:11.04Z</time></trkpt><trkpt lat="42.0909465" lon="11.7926976"><ele>7.199999999999999</ele><time>2026-04-19T07:56:13.043Z</time></trkpt><trkpt lat="42.0910253" lon="11.792787"><ele>8.399999999999999</ele><time>2026-04-19T07:56:15.043Z</time></trkpt><trkpt lat="42.0910871" lon="11.792826"><ele>9.6</ele><time>2026-04-19T07:56:17.047Z</time></trkpt><trkpt lat="42.0911698" lon="11.7928082"><ele>10.799999999999999</ele><time>2026-04-19T07:56:20.036Z</time></trkpt><trkpt lat="42.0912744" lon="11.7927144"><ele>12.0</ele><time>2026-04-19T07:56:22.042Z</time></trkpt><trkpt lat="42.0913325" lon="11.7926616"><ele>12.0</ele><time>2026-04-19T07:56:23.039Z</time></trkpt><trkpt lat="42.0913935" lon="11.7926052"><ele>12.0</ele><time>2026-04-19T07:56:24.034Z</time></trkpt><trkpt lat="42.0914564" lon="11.7925491"><ele>12.0</ele><time>2026-04-19T07:56:25.039Z</time></trkpt><trkpt lat="42.0915136" lon="11.7924994"><ele>12.0</ele><time>2026-04-19T07:56:26.035Z</time></trkpt><trkpt lat="42.0916223" lon="11.7924079"><ele>12.0</ele><time>2026-04-19T07:56:28.041Z</time></trkpt><trkpt lat="42.0916812" lon="11.7923607"><ele>12.0</ele><time>2026-04-19T07:56:29.038Z</time></trkpt><trkpt lat="42.0917401" lon="11.7923078"><ele>12.5</ele><time>2026-04-19T07:56:30.04Z</time></trkpt><trkpt lat="42.0917987" lon="11.7922586"><ele>13.0</ele><time>2026-04-19T07:56:31.039Z</time></trkpt><trkpt lat="42.0918609" lon="11.7922072"><ele>13.5</ele><time>2026-04-19T07:56:32.039Z</time></trkpt><trkpt lat="42.0919206" lon="11.7921524"><ele>14.0</ele><time>2026-04-19T07:56:33.049Z</time></trkpt><trkpt lat="42.091989" lon="11.7920872"><ele>14.5</ele><time>2026-04-19T07:56:34.042Z</time></trkpt><trkpt lat="42.0920533" lon="11.792027"><ele>15.0</ele><time>2026-04-19T07:56:35.049Z</time></trkpt><trkpt lat="42.0921179" lon="11.7919674"><ele>15.0</ele><time>2026-04-19T07:56:36.041Z</time></trkpt><trkpt lat="42.0921864" lon="11.7919069"><ele>15.0</ele><time>2026-04-19T07:56:37.042Z</time></trkpt><trkpt lat="42.0922597" lon="11.791842"><ele>15.0</ele><time>2026-04-19T07:56:38.041Z</time></trkpt><trkpt lat="42.0923318" lon="11.7917795"><ele>15.0</ele><time>2026-04-19T07:56:39.038Z</time></trkpt><trkpt lat="42.0924024" lon="11.7917193"><ele>15.0</ele><time>2026-04-19T07:56:40.044Z</time></trkpt><trkpt lat="42.0924711" lon="11.791663"><ele>15.0</ele><time>2026-04-19T07:56:41.035Z</time></trkpt><trkpt lat="42.0925385" lon="11.7916064"><ele>15.333333333333334</ele><time>2026-04-19T07:56:42.035Z</time></trkpt><trkpt lat="42.0926035" lon="11.7915501"><ele>15.666666666666668</ele><time>2026-04-19T07:56:43.037Z</time></trkpt><trkpt lat="42.0926689" lon="11.7914935"><ele>16.0</ele><time>2026-04-19T07:56:44.035Z</time></trkpt><trkpt lat="42.0927365" lon="11.7914356"><ele>16.333333333333336</ele><time>2026-04-19T07:56:45.029Z</time></trkpt><trkpt lat="42.0928098" lon="11.7913765"><ele>16.666666666666668</ele><time>2026-04-19T07:56:46.029Z</time></trkpt><trkpt lat="42.0928851" lon="11.7913128"><ele>17.0</ele><time>2026-04-19T07:56:47.042Z</time></trkpt><trkpt lat="42.0929605" lon="11.7912458"><ele>17.0</ele><time>2026-04-19T07:56:48.057Z</time></trkpt><trkpt lat="42.0930384" lon="11.7911817"><ele>17.0</ele><time>2026-04-19T07:56:49.033Z</time></trkpt><trkpt lat="42.0931142" lon="11.7911187"><ele>17.0</ele><time>2026-04-19T07:56:50.034Z</time></trkpt><trkpt lat="42.0931872" lon="11.7910626"><ele>17.0</ele><time>2026-04-19T07:56:51.03Z</time></trkpt><trkpt lat="42.0932563" lon="11.7910089"><ele>17.0</ele><time>2026-04-19T07:56:52.039Z</time></trkpt><trkpt lat="42.0933183" lon="11.7909617"><ele>17.0</ele><time>2026-04-19T07:56:53.034Z</time></trkpt><trkpt lat="42.0933845" lon="11.7909227"><ele>17.333333333333336</ele><time>2026-04-19T07:56:54.035Z</time></trkpt><trkpt lat="42.0934552" lon="11.7908871"><ele>17.666666666666668</ele><time>2026-04-19T07:56:55.039Z</time></trkpt><trkpt lat="42.093533" lon="11.7908508"><ele>18.0</ele><time>2026-04-19T07:56:56.034Z</time></trkpt><trkpt lat="42.0936076" lon="11.7908165"><ele>18.333333333333332</ele><time>2026-04-19T07:56:57.038Z</time></trkpt><trkpt lat="42.0936878" lon="11.7907763"><ele>18.666666666666664</ele><time>2026-04-19T07:56:58.044Z</time></trkpt><trkpt lat="42.0937696" lon="11.7907174"><ele>19.0</ele><time>2026-04-19T07:56:59.044Z</time></trkpt><trkpt lat="42.0938528" lon="11.7906692"><ele>19.0</ele><time>2026-04-19T07:57:00.042Z</time></trkpt><trkpt lat="42.0939321" lon="11.790617"><ele>19.0</ele><time>2026-04-19T07:57:01.04Z</time></trkpt><trkpt lat="42.0940083" lon="11.7905627"><ele>19.0</ele><time>2026-04-19T07:57:02.047Z</time></trkpt><trkpt lat="42.0940866" lon="11.7905096"><ele>19.0</ele><time>2026-04-19T07:57:03.046Z</time></trkpt><trkpt lat="42.0941565" lon="11.7904597"><ele>19.0</ele><time>2026-04-19T07:57:04.039Z</time></trkpt><trkpt lat="42.0942129" lon="11.790415"><ele>19.0</ele><time>2026-04-19T07:57:05.036Z</time></trkpt><trkpt lat="42.0942999" lon="11.790341"><ele>18.333333333333332</ele><time>2026-04-19T07:57:07.046Z</time></trkpt><trkpt lat="42.0943745" lon="11.7902929"><ele>17.666666666666664</ele><time>2026-04-19T07:57:10.044Z</time></trkpt><trkpt lat="42.0944409" lon="11.7902347"><ele>17.0</ele><time>2026-04-19T07:57:14.089Z</time></trkpt><trkpt lat="42.094501" lon="11.7901827"><ele>16.333333333333332</ele><time>2026-04-19T07:57:16.042Z</time></trkpt><trkpt lat="42.0945695" lon="11.7901229"><ele>15.666666666666666</ele><time>2026-04-19T07:57:18.059Z</time></trkpt><trkpt lat="42.0946553" lon="11.790062"><ele>15.0</ele><time>2026-04-19T07:57:20.045Z</time></trkpt><trkpt lat="42.0947512" lon="11.7899973"><ele>14.166666666666666</ele><time>2026-04-19T07:57:22.044Z</time></trkpt><trkpt lat="42.0948205" lon="11.7899484"><ele>13.333333333333334</ele><time>2026-04-19T07:57:24.05Z</time></trkpt><trkpt lat="42.0948931" lon="11.7899099"><ele>12.5</ele><time>2026-04-19T07:57:26.08Z</time></trkpt><trkpt lat="42.0949688" lon="11.7898959"><ele>11.666666666666668</ele><time>2026-04-19T07:57:28.04Z</time></trkpt><trkpt lat="42.0950362" lon="11.7898812"><ele>10.833333333333334</ele><time>2026-04-19T07:57:30.039Z</time></trkpt><trkpt lat="42.095126" lon="11.7898646"><ele>10.0</ele><time>2026-04-19T07:57:33.046Z</time></trkpt><trkpt lat="42.0952158" lon="11.789849"><ele>10.0</ele><time>2026-04-19T07:57:35.049Z</time></trkpt><trkpt lat="42.0953198" lon="11.7898239"><ele>10.0</ele><time>2026-04-19T07:57:37.033Z</time></trkpt><trkpt lat="42.0953861" lon="11.789805"><ele>10.0</ele><time>2026-04-19T07:57:38.038Z</time></trkpt><trkpt lat="42.0954569" lon="11.789794"><ele>10.0</ele><time>2026-04-19T07:57:39.045Z</time></trkpt><trkpt lat="42.0955595" lon="11.789772"><ele>10.0</ele><time>2026-04-19T07:57:41.051Z</time></trkpt><trkpt lat="42.0956468" lon="11.7897601"><ele>10.0</ele><time>2026-04-19T07:57:43.049Z</time></trkpt><trkpt lat="42.0957557" lon="11.789742"><ele>10.0</ele><time>2026-04-19T07:57:45.045Z</time></trkpt><trkpt lat="42.0958324" lon="11.7897292"><ele>10.0</ele><time>2026-04-19T07:57:46.052Z</time></trkpt><trkpt lat="42.0959396" lon="11.7896964"><ele>10.0</ele><time>2026-04-19T07:57:47.044Z</time></trkpt><trkpt lat="42.0960682" lon="11.7896694"><ele>10.0</ele><time>2026-04-19T07:57:48.037Z</time></trkpt><trkpt lat="42.0961839" lon="11.7896523"><ele>10.0</ele><time>2026-04-19T07:57:49.039Z</time></trkpt><trkpt lat="42.0962884" lon="11.7896283"><ele>10.0</ele><time>2026-04-19T07:57:50.042Z</time></trkpt><trkpt lat="42.0963713" lon="11.7896098"><ele>10.0</ele><time>2026-04-19T07:57:51.048Z</time></trkpt><trkpt lat="42.0964349" lon="11.7896039"><ele>10.0</ele><time>2026-04-19T07:57:52.03Z</time></trkpt><trkpt lat="42.0965332" lon="11.789584"><ele>10.0</ele><time>2026-04-19T07:57:54.051Z</time></trkpt><trkpt lat="42.0965959" lon="11.7895626"><ele>10.0</ele><time>2026-04-19T07:57:57.085Z</time></trkpt><trkpt lat="42.0966781" lon="11.7895265"><ele>10.0</ele><time>2026-04-19T07:58:01.044Z</time></trkpt><trkpt lat="42.0967535" lon="11.7895035"><ele>9.5</ele><time>2026-04-19T07:58:04.048Z</time></trkpt><trkpt lat="42.0968163" lon="11.7894698"><ele>9.0</ele><time>2026-04-19T07:58:09.056Z</time></trkpt><trkpt lat="42.0969151" lon="11.7894902"><ele>8.5</ele><time>2026-04-19T07:58:12.038Z</time></trkpt><trkpt lat="42.0970063" lon="11.7894558"><ele>8.0</ele><time>2026-04-19T07:58:14.04Z</time></trkpt><trkpt lat="42.0970593" lon="11.7893977"><ele>7.500000000000001</ele><time>2026-04-19T07:58:15.044Z</time></trkpt><trkpt lat="42.0971294" lon="11.7893397"><ele>7.0</ele><time>2026-04-19T07:58:16.052Z</time></trkpt><trkpt lat="42.0972078" lon="11.7892932"><ele>7.0</ele><time>2026-04-19T07:58:17.042Z</time></trkpt><trkpt lat="42.0972949" lon="11.7892521"><ele>6.999999999999999</ele><time>2026-04-19T07:58:18.042Z</time></trkpt><trkpt lat="42.0973854" lon="11.7892091"><ele>6.999999999999999</ele><time>2026-04-19T07:58:19.04Z</time></trkpt><trkpt lat="42.0974773" lon="11.7891648"><ele>7.0</ele><time>2026-04-19T07:58:20.044Z</time></trkpt><trkpt lat="42.0975738" lon="11.789119"><ele>7.0</ele><time>2026-04-19T07:58:21.047Z</time></trkpt><trkpt lat="42.0976684" lon="11.7890742"><ele>7.0</ele><time>2026-04-19T07:58:22.043Z</time></trkpt><trkpt lat="42.0977633" lon="11.7890329"><ele>6.999999999999999</ele><time>2026-04-19T07:58:23.047Z</time></trkpt><trkpt lat="42.0978624" lon="11.7889898"><ele>6.999999999999999</ele><time>2026-04-19T07:58:24.044Z</time></trkpt><trkpt lat="42.0979632" lon="11.7889435"><ele>7.0</ele><time>2026-04-19T07:58:25.043Z</time></trkpt><trkpt lat="42.0980638" lon="11.7888913"><ele>7.0</ele><time>2026-04-19T07:58:26.042Z</time></trkpt><trkpt lat="42.0981683" lon="11.7888372"><ele>7.0</ele><time>2026-04-19T07:58:27.05Z</time></trkpt><trkpt lat="42.0982731" lon="11.7887872"><ele>7.0</ele><time>2026-04-19T07:58:28.041Z</time></trkpt><trkpt lat="42.0983795" lon="11.7887373"><ele>7.0</ele><time>2026-04-19T07:58:29.037Z</time></trkpt><trkpt lat="42.0984871" lon="11.7886881"><ele>7.0</ele><time>2026-04-19T07:58:30.038Z</time></trkpt><trkpt lat="42.0985953" lon="11.7886417"><ele>7.0</ele><time>2026-04-19T07:58:31.036Z</time></trkpt><trkpt lat="42.0987016" lon="11.7885891"><ele>7.0</ele><time>2026-04-19T07:58:32.04Z</time></trkpt><trkpt lat="42.0988034" lon="11.7885197"><ele>7.0</ele><time>2026-04-19T07:58:33.042Z</time></trkpt><trkpt lat="42.0988985" lon="11.7884293"><ele>7.0</ele><time>2026-04-19T07:58:34.039Z</time></trkpt><trkpt lat="42.0989862" lon="11.7883264"><ele>6.5</ele><time>2026-04-19T07:58:35.039Z</time></trkpt><trkpt lat="42.099078" lon="11.7882199"><ele>6.0</ele><time>2026-04-19T07:58:36.037Z</time></trkpt><trkpt lat="42.0991732" lon="11.7881177"><ele>5.5</ele><time>2026-04-19T07:58:37.04Z</time></trkpt><trkpt lat="42.0992678" lon="11.7880176"><ele>5.0</ele><time>2026-04-19T07:58:38.037Z</time></trkpt><trkpt lat="42.099364" lon="11.7879168"><ele>6.25</ele><time>2026-04-19T07:58:39.046Z</time></trkpt><trkpt lat="42.0994591" lon="11.7878164"><ele>7.5</ele><time>2026-04-19T07:58:40.046Z</time></trkpt><trkpt lat="42.0995536" lon="11.7877136"><ele>8.75</ele><time>2026-04-19T07:58:41.041Z</time></trkpt><trkpt lat="42.0996478" lon="11.7876117"><ele>10.0</ele><time>2026-04-19T07:58:42.038Z</time></trkpt><trkpt lat="42.099744" lon="11.7875105"><ele>10.0</ele><time>2026-04-19T07:58:43.044Z</time></trkpt><trkpt lat="42.0998406" lon="11.7874087"><ele>10.0</ele><time>2026-04-19T07:58:44.047Z</time></trkpt><trkpt lat="42.0999359" lon="11.7873078"><ele>10.0</ele><time>2026-04-19T07:58:45.038Z</time></trkpt><trkpt lat="42.1000301" lon="11.7872083"><ele>10.0</ele><time>2026-04-19T07:58:46.037Z</time></trkpt><trkpt lat="42.100127" lon="11.7871088"><ele>10.0</ele><time>2026-04-19T07:58:47.05Z</time></trkpt><trkpt lat="42.1002183" lon="11.7870158"><ele>10.0</ele><time>2026-04-19T07:58:48.047Z</time></trkpt><trkpt lat="42.1003119" lon="11.7869234"><ele>10.0</ele><time>2026-04-19T07:58:49.037Z</time></trkpt><trkpt lat="42.1004063" lon="11.7868377"><ele>10.0</ele><time>2026-04-19T07:58:50.039Z</time></trkpt><trkpt lat="42.1005046" lon="11.7867595"><ele>10.0</ele><time>2026-04-19T07:58:51.038Z</time></trkpt><trkpt lat="42.1006125" lon="11.7866926"><ele>10.0</ele><time>2026-04-19T07:58:52.045Z</time></trkpt><trkpt lat="42.1007244" lon="11.7866388"><ele>10.0</ele><time>2026-04-19T07:58:53.044Z</time></trkpt><trkpt lat="42.1008428" lon="11.7865922"><ele>10.0</ele><time>2026-04-19T07:58:54.043Z</time></trkpt><trkpt lat="42.1009638" lon="11.7865566"><ele>9.25</ele><time>2026-04-19T07:58:55.047Z</time></trkpt><trkpt lat="42.1010846" lon="11.7865314"><ele>8.5</ele><time>2026-04-19T07:58:56.033Z</time></trkpt><trkpt lat="42.1012052" lon="11.7865106"><ele>7.75</ele><time>2026-04-19T07:58:57.041Z</time></trkpt><trkpt lat="42.1013251" lon="11.7864978"><ele>7.0</ele><time>2026-04-19T07:58:58.039Z</time></trkpt><trkpt lat="42.1014475" lon="11.7864892"><ele>7.0</ele><time>2026-04-19T07:58:59.036Z</time></trkpt><trkpt lat="42.101575" lon="11.7864876"><ele>7.0</ele><time>2026-04-19T07:59:00.034Z</time></trkpt><trkpt lat="42.1017076" lon="11.7864881"><ele>7.0</ele><time>2026-04-19T07:59:01.039Z</time></trkpt><trkpt lat="42.1018438" lon="11.7864934"><ele>7.0</ele><time>2026-04-19T07:59:02.037Z</time></trkpt><trkpt lat="42.1019776" lon="11.7864976"><ele>6.75</ele><time>2026-04-19T07:59:03.049Z</time></trkpt><trkpt lat="42.1021138" lon="11.7865004"><ele>6.5</ele><time>2026-04-19T07:59:04.044Z</time></trkpt><trkpt lat="42.1022547" lon="11.7865038"><ele>6.25</ele><time>2026-04-19T07:59:05.042Z</time></trkpt><trkpt lat="42.102396" lon="11.7865085"><ele>6.0</ele><time>2026-04-19T07:59:06.044Z</time></trkpt><trkpt lat="42.102537" lon="11.7865131"><ele>6.0</ele><time>2026-04-19T07:59:07.054Z</time></trkpt><trkpt lat="42.1026768" lon="11.7865189"><ele>6.0</ele><time>2026-04-19T07:59:08.042Z</time></trkpt><trkpt lat="42.1028168" lon="11.7865247"><ele>6.0</ele><time>2026-04-19T07:59:09.039Z</time></trkpt><trkpt lat="42.1029568" lon="11.7865289"><ele>6.0</ele><time>2026-04-19T07:59:10.05Z</time></trkpt><trkpt lat="42.1030976" lon="11.7865295"><ele>6.0</ele><time>2026-04-19T07:59:11.045Z</time></trkpt><trkpt lat="42.1032368" lon="11.7865267"><ele>6.0</ele><time>2026-04-19T07:59:12.045Z</time></trkpt><trkpt lat="42.103374" lon="11.7865144"><ele>6.0</ele><time>2026-04-19T07:59:13.046Z</time></trkpt><trkpt lat="42.103507" lon="11.7864823"><ele>6.0</ele><time>2026-04-19T07:59:14.037Z</time></trkpt><trkpt lat="42.1036347" lon="11.7864262"><ele>6.25</ele><time>2026-04-19T07:59:15.045Z</time></trkpt><trkpt lat="42.1037569" lon="11.786348"><ele>6.5</ele><time>2026-04-19T07:59:16.044Z</time></trkpt><trkpt lat="42.1038746" lon="11.7862526"><ele>6.75</ele><time>2026-04-19T07:59:17.048Z</time></trkpt><trkpt lat="42.1039865" lon="11.7861443"><ele>7.0</ele><time>2026-04-19T07:59:18.042Z</time></trkpt><trkpt lat="42.104091" lon="11.7860242"><ele>6.75</ele><time>2026-04-19T07:59:19.045Z</time></trkpt><trkpt lat="42.1041964" lon="11.7859021"><ele>6.5</ele><time>2026-04-19T07:59:20.038Z</time></trkpt><trkpt lat="42.1042814" lon="11.7857535"><ele>6.25</ele><time>2026-04-19T07:59:21.041Z</time></trkpt><trkpt lat="42.1043529" lon="11.7855998"><ele>6.0</ele><time>2026-04-19T07:59:22.034Z</time></trkpt><trkpt lat="42.1044138" lon="11.7854534"><ele>6.0</ele><time>2026-04-19T07:59:23.05Z</time></trkpt><trkpt lat="42.1044737" lon="11.7853143"><ele>6.0</ele><time>2026-04-19T07:59:24.042Z</time></trkpt><trkpt lat="42.1045365" lon="11.7851722"><ele>6.0</ele><time>2026-04-19T07:59:25.039Z</time></trkpt><trkpt lat="42.1046052" lon="11.7850286"><ele>6.0</ele><time>2026-04-19T07:59:26.047Z</time></trkpt><trkpt lat="42.1046817" lon="11.7848896"><ele>6.25</ele><time>2026-04-19T07:59:27.044Z</time></trkpt><trkpt lat="42.1047639" lon="11.7847565"><ele>6.5</ele><time>2026-04-19T07:59:28.053Z</time></trkpt><trkpt lat="42.104847" lon="11.7846283"><ele>6.75</ele><time>2026-04-19T07:59:29.05Z</time></trkpt><trkpt lat="42.1049318" lon="11.7844979"><ele>7.0</ele><time>2026-04-19T07:59:30.032Z</time></trkpt><trkpt lat="42.1050188" lon="11.7843671"><ele>6.5</ele><time>2026-04-19T07:59:31.042Z</time></trkpt><trkpt lat="42.1051051" lon="11.7842367"><ele>6.0</ele><time>2026-04-19T07:59:32.041Z</time></trkpt><trkpt lat="42.1051909" lon="11.7841084"><ele>5.5</ele><time>2026-04-19T07:59:33.047Z</time></trkpt><trkpt lat="42.1052775" lon="11.7839818"><ele>5.0</ele><time>2026-04-19T07:59:34.038Z</time></trkpt><trkpt lat="42.1053663" lon="11.7838569"><ele>5.0</ele><time>2026-04-19T07:59:35.037Z</time></trkpt><trkpt lat="42.1054576" lon="11.7837338"><ele>5.0</ele><time>2026-04-19T07:59:36.042Z</time></trkpt><trkpt lat="42.1055528" lon="11.7836118"><ele>5.0</ele><time>2026-04-19T07:59:37.04Z</time></trkpt><trkpt lat="42.1056469" lon="11.7834916"><ele>5.0</ele><time>2026-04-19T07:59:38.047Z</time></trkpt><trkpt lat="42.1057402" lon="11.7833734"><ele>5.0</ele><time>2026-04-19T07:59:39.061Z</time></trkpt><trkpt lat="42.1058332" lon="11.783254"><ele>5.0</ele><time>2026-04-19T07:59:40.045Z</time></trkpt><trkpt lat="42.1059275" lon="11.7831354"><ele>5.0</ele><time>2026-04-19T07:59:41.034Z</time></trkpt><trkpt lat="42.1060222" lon="11.7830186"><ele>5.0</ele><time>2026-04-19T07:59:42.039Z</time></trkpt><trkpt lat="42.1061137" lon="11.782903"><ele>5.0</ele><time>2026-04-19T07:59:43.047Z</time></trkpt><trkpt lat="42.1062045" lon="11.7827882"><ele>5.0</ele><time>2026-04-19T07:59:44.052Z</time></trkpt><trkpt lat="42.1062943" lon="11.7826754"><ele>5.0</ele><time>2026-04-19T07:59:45.042Z</time></trkpt><trkpt lat="42.1063837" lon="11.7825637"><ele>5.0</ele><time>2026-04-19T07:59:46.04Z</time></trkpt><trkpt lat="42.1064749" lon="11.7824529"><ele>5.0</ele><time>2026-04-19T07:59:47.04Z</time></trkpt><trkpt lat="42.1065698" lon="11.7823405"><ele>5.0</ele><time>2026-04-19T07:59:48.045Z</time></trkpt><trkpt lat="42.1066657" lon="11.7822248"><ele>5.0</ele><time>2026-04-19T07:59:49.039Z</time></trkpt><trkpt lat="42.1067616" lon="11.7821094"><ele>5.0</ele><time>2026-04-19T07:59:50.039Z</time></trkpt><trkpt lat="42.1068551" lon="11.7819939"><ele>5.0</ele><time>2026-04-19T07:59:51.044Z</time></trkpt><trkpt lat="42.1069474" lon="11.7818759"><ele>5.0</ele><time>2026-04-19T07:59:52.045Z</time></trkpt><trkpt lat="42.1070378" lon="11.781752"><ele>5.0</ele><time>2026-04-19T07:59:53.037Z</time></trkpt><trkpt lat="42.107125" lon="11.7816203"><ele>5.0</ele><time>2026-04-19T07:59:54.037Z</time></trkpt><trkpt lat="42.1072117" lon="11.7814888"><ele>5.0</ele><time>2026-04-19T07:59:55.042Z</time></trkpt><trkpt lat="42.1072877" lon="11.7813491"><ele>5.0</ele><time>2026-04-19T07:59:56.044Z</time></trkpt><trkpt lat="42.1073552" lon="11.7812101"><ele>5.0</ele><time>2026-04-19T07:59:57.048Z</time></trkpt><trkpt lat="42.1074193" lon="11.7810629"><ele>5.0</ele><time>2026-04-19T07:59:58.038Z</time></trkpt><trkpt lat="42.1074815" lon="11.7809136"><ele>5.0</ele><time>2026-04-19T07:59:59.045Z</time></trkpt><trkpt lat="42.107545" lon="11.7807637"><ele>5.0</ele><time>2026-04-19T08:00:00.035Z</time></trkpt><trkpt lat="42.1076076" lon="11.7806084"><ele>5.0</ele><time>2026-04-19T08:00:01.034Z</time></trkpt><trkpt lat="42.1076701" lon="11.7804491"><ele>5.0</ele><time>2026-04-19T08:00:02.054Z</time></trkpt><trkpt lat="42.1077311" lon="11.7802894"><ele>5.0</ele><time>2026-04-19T08:00:03.036Z</time></trkpt><trkpt lat="42.1077944" lon="11.7801308"><ele>5.0</ele><time>2026-04-19T08:00:04.044Z</time></trkpt><trkpt lat="42.1078623" lon="11.7799786"><ele>5.0</ele><time>2026-04-19T08:00:05.04Z</time></trkpt><trkpt lat="42.1079353" lon="11.7798316"><ele>5.0</ele><time>2026-04-19T08:00:06.049Z</time></trkpt><trkpt lat="42.108009" lon="11.7796895"><ele>5.0</ele><time>2026-04-19T08:00:07.04Z</time></trkpt><trkpt lat="42.1080829" lon="11.7795491"><ele>5.0</ele><time>2026-04-19T08:00:08.042Z</time></trkpt><trkpt lat="42.1081551" lon="11.7794114"><ele>5.0</ele><time>2026-04-19T08:00:09.037Z</time></trkpt><trkpt lat="42.1082267" lon="11.7792736"><ele>5.0</ele><time>2026-04-19T08:00:10.05Z</time></trkpt><trkpt lat="42.1083021" lon="11.7791324"><ele>4.5</ele><time>2026-04-19T08:00:11.046Z</time></trkpt><trkpt lat="42.1083824" lon="11.7789887"><ele>4.0</ele><time>2026-04-19T08:00:12.038Z</time></trkpt><trkpt lat="42.1084627" lon="11.7788577"><ele>3.5</ele><time>2026-04-19T08:00:13.044Z</time></trkpt><trkpt lat="42.1085462" lon="11.7787375"><ele>3.0</ele><time>2026-04-19T08:00:14.041Z</time></trkpt><trkpt lat="42.1086371" lon="11.7786226"><ele>3.25</ele><time>2026-04-19T08:00:15.038Z</time></trkpt><trkpt lat="42.10873" lon="11.7785167"><ele>3.5</ele><time>2026-04-19T08:00:16.039Z</time></trkpt><trkpt lat="42.1088227" lon="11.7784218"><ele>3.75</ele><time>2026-04-19T08:00:17.044Z</time></trkpt><trkpt lat="42.1089138" lon="11.7783332"><ele>4.0</ele><time>2026-04-19T08:00:18.038Z</time></trkpt><trkpt lat="42.1090035" lon="11.778246"><ele>4.2</ele><time>2026-04-19T08:00:19.035Z</time></trkpt><trkpt lat="42.1090945" lon="11.7781608"><ele>4.4</ele><time>2026-04-19T08:00:20.04Z</time></trkpt><trkpt lat="42.1091862" lon="11.7780763"><ele>4.6</ele><time>2026-04-19T08:00:21.034Z</time></trkpt><trkpt lat="42.1092816" lon="11.7779948"><ele>4.8</ele><time>2026-04-19T08:00:22.034Z</time></trkpt><trkpt lat="42.1093778" lon="11.7779267"><ele>5.0</ele><time>2026-04-19T08:00:23.042Z</time></trkpt><trkpt lat="42.1094733" lon="11.7778604"><ele>5.0</ele><time>2026-04-19T08:00:24.034Z</time></trkpt><trkpt lat="42.1095785" lon="11.7778067"><ele>5.0</ele><time>2026-04-19T08:00:25.05Z</time></trkpt><trkpt lat="42.1096858" lon="11.7777561"><ele>5.0</ele><time>2026-04-19T08:00:26.038Z</time></trkpt><trkpt lat="42.1097946" lon="11.7777033"><ele>5.0</ele><time>2026-04-19T08:00:27.049Z</time></trkpt><trkpt lat="42.1099061" lon="11.7776466"><ele>4.0</ele><time>2026-04-19T08:00:28.043Z</time></trkpt><trkpt lat="42.1100231" lon="11.7775834"><ele>3.0</ele><time>2026-04-19T08:00:29.044Z</time></trkpt><trkpt lat="42.1101441" lon="11.7775142"><ele>2.0</ele><time>2026-04-19T08:00:30.035Z</time></trkpt><trkpt lat="42.1102742" lon="11.7774368"><ele>1.0</ele><time>2026-04-19T08:00:31.043Z</time></trkpt><trkpt lat="42.110417" lon="11.7773526"><ele>1.0</ele><time>2026-04-19T08:00:32.042Z</time></trkpt><trkpt lat="42.1105674" lon="11.7772658"><ele>1.0</ele><time>2026-04-19T08:00:33.054Z</time></trkpt><trkpt lat="42.1107222" lon="11.7771761"><ele>1.0</ele><time>2026-04-19T08:00:34.055Z</time></trkpt><trkpt lat="42.1108721" lon="11.777092"><ele>2.0</ele><time>2026-04-19T08:00:35.04Z</time></trkpt><trkpt lat="42.1110148" lon="11.7770128"><ele>3.0</ele><time>2026-04-19T08:00:36.042Z</time></trkpt><trkpt lat="42.1111544" lon="11.7769346"><ele>4.0</ele><time>2026-04-19T08:00:37.044Z</time></trkpt><trkpt lat="42.1112924" lon="11.7768547"><ele>3.6666666666666665</ele><time>2026-04-19T08:00:38.038Z</time></trkpt><trkpt lat="42.1114313" lon="11.7767733"><ele>3.333333333333333</ele><time>2026-04-19T08:00:39.042Z</time></trkpt><trkpt lat="42.1115798" lon="11.7766852"><ele>3.0</ele><time>2026-04-19T08:00:40.056Z</time></trkpt><trkpt lat="42.1117278" lon="11.7765671"><ele>4.666666666666666</ele><time>2026-04-19T08:00:41.051Z</time></trkpt><trkpt lat="42.1118689" lon="11.7764304"><ele>6.333333333333333</ele><time>2026-04-19T08:00:42.036Z</time></trkpt><trkpt lat="42.1120133" lon="11.7762761"><ele>8.0</ele><time>2026-04-19T08:00:43.035Z</time></trkpt><trkpt lat="42.1121588" lon="11.7761146"><ele>7.333333333333333</ele><time>2026-04-19T08:00:44.038Z</time></trkpt><trkpt lat="42.1123083" lon="11.775949"><ele>6.666666666666666</ele><time>2026-04-19T08:00:45.041Z</time></trkpt><trkpt lat="42.112459" lon="11.7757815"><ele>6.0</ele><time>2026-04-19T08:00:46.036Z</time></trkpt><trkpt lat="42.112613" lon="11.7756097"><ele>6.0</ele><time>2026-04-19T08:00:47.046Z</time></trkpt><trkpt lat="42.1127704" lon="11.7754304"><ele>6.0</ele><time>2026-04-19T08:00:48.04Z</time></trkpt><trkpt lat="42.1129258" lon="11.775252"><ele>6.0</ele><time>2026-04-19T08:00:49.045Z</time></trkpt><trkpt lat="42.1130759" lon="11.7750797"><ele>5.666666666666667</ele><time>2026-04-19T08:00:50.046Z</time></trkpt><trkpt lat="42.1132238" lon="11.7749087"><ele>5.333333333333334</ele><time>2026-04-19T08:00:51.033Z</time></trkpt><trkpt lat="42.1133714" lon="11.7747379"><ele>5.0</ele><time>2026-04-19T08:00:52.039Z</time></trkpt><trkpt lat="42.1135214" lon="11.7745661"><ele>5.0</ele><time>2026-04-19T08:00:53.038Z</time></trkpt><trkpt lat="42.1136763" lon="11.774387"><ele>5.0</ele><time>2026-04-19T08:00:54.043Z</time></trkpt><trkpt lat="42.1138343" lon="11.7742035"><ele>5.0</ele><time>2026-04-19T08:00:55.046Z</time></trkpt><trkpt lat="42.1139877" lon="11.7740257"><ele>6.666666666666667</ele><time>2026-04-19T08:00:56.044Z</time></trkpt><trkpt lat="42.1141335" lon="11.773858"><ele>8.333333333333334</ele><time>2026-04-19T08:00:57.036Z</time></trkpt><trkpt lat="42.1142776" lon="11.7736933"><ele>10.0</ele><time>2026-04-19T08:00:58.037Z</time></trkpt><trkpt lat="42.1144226" lon="11.7735242"><ele>10.333333333333334</ele><time>2026-04-19T08:00:59.04Z</time></trkpt><trkpt lat="42.1145664" lon="11.773354"><ele>10.666666666666666</ele><time>2026-04-19T08:01:00.045Z</time></trkpt><trkpt lat="42.1147104" lon="11.7731828"><ele>11.0</ele><time>2026-04-19T08:01:01.043Z</time></trkpt><trkpt lat="42.1148578" lon="11.7730099"><ele>11.0</ele><time>2026-04-19T08:01:02.038Z</time></trkpt><trkpt lat="42.1150078" lon="11.7728356"><ele>11.0</ele><time>2026-04-19T08:01:03.03Z</time></trkpt><trkpt lat="42.115158" lon="11.7726591"><ele>11.0</ele><time>2026-04-19T08:01:04.045Z</time></trkpt><trkpt lat="42.115309" lon="11.7724827"><ele>11.666666666666666</ele><time>2026-04-19T08:01:05.039Z</time></trkpt><trkpt lat="42.11546" lon="11.7723098"><ele>12.333333333333332</ele><time>2026-04-19T08:01:06.047Z</time></trkpt><trkpt lat="42.1156125" lon="11.7721399"><ele>13.0</ele><time>2026-04-19T08:01:07.036Z</time></trkpt><trkpt lat="42.1157625" lon="11.7719732"><ele>13.333333333333332</ele><time>2026-04-19T08:01:08.046Z</time></trkpt><trkpt lat="42.1159118" lon="11.7718099"><ele>13.666666666666668</ele><time>2026-04-19T08:01:09.045Z</time></trkpt><trkpt lat="42.1160574" lon="11.7716553"><ele>14.0</ele><time>2026-04-19T08:01:10.041Z</time></trkpt><trkpt lat="42.1162001" lon="11.7715125"><ele>14.0</ele><time>2026-04-19T08:01:11.038Z</time></trkpt><trkpt lat="42.1163474" lon="11.7713784"><ele>14.0</ele><time>2026-04-19T08:01:12.045Z</time></trkpt><trkpt lat="42.1165059" lon="11.771262"><ele>14.0</ele><time>2026-04-19T08:01:13.038Z</time></trkpt><trkpt lat="42.1166765" lon="11.7711764"><ele>13.333333333333334</ele><time>2026-04-19T08:01:14.044Z</time></trkpt><trkpt lat="42.1168543" lon="11.771132"><ele>12.666666666666668</ele><time>2026-04-19T08:01:15.046Z</time></trkpt><trkpt lat="42.1170366" lon="11.7711285"><ele>12.0</ele><time>2026-04-19T08:01:16.045Z</time></trkpt><trkpt lat="42.1172231" lon="11.7711549"><ele>11.333333333333334</ele><time>2026-04-19T08:01:17.047Z</time></trkpt><trkpt lat="42.1174099" lon="11.7711996"><ele>10.666666666666668</ele><time>2026-04-19T08:01:18.053Z</time></trkpt><trkpt lat="42.1175927" lon="11.7712538"><ele>10.0</ele><time>2026-04-19T08:01:19.049Z</time></trkpt><trkpt lat="42.1177727" lon="11.7713098"><ele>10.0</ele><time>2026-04-19T08:01:20.047Z</time></trkpt><trkpt lat="42.1179461" lon="11.771364"><ele>10.0</ele><time>2026-04-19T08:01:21.04Z</time></trkpt><trkpt lat="42.1181215" lon="11.7714162"><ele>10.0</ele><time>2026-04-19T08:01:22.041Z</time></trkpt><trkpt lat="42.1183014" lon="11.7714688"><ele>11.666666666666668</ele><time>2026-04-19T08:01:23.055Z</time></trkpt><trkpt lat="42.1184844" lon="11.7715171"><ele>13.333333333333334</ele><time>2026-04-19T08:01:24.047Z</time></trkpt><trkpt lat="42.118672" lon="11.7715538"><ele>15.0</ele><time>2026-04-19T08:01:25.042Z</time></trkpt><trkpt lat="42.1188628" lon="11.7715723"><ele>15.0</ele><time>2026-04-19T08:01:26.046Z</time></trkpt><trkpt lat="42.1190587" lon="11.7715673"><ele>15.0</ele><time>2026-04-19T08:01:27.044Z</time></trkpt><trkpt lat="42.1192617" lon="11.7715384"><ele>15.0</ele><time>2026-04-19T08:01:28.042Z</time></trkpt><trkpt lat="42.1194686" lon="11.7714838"><ele>13.333333333333334</ele><time>2026-04-19T08:01:29.041Z</time></trkpt><trkpt lat="42.1196781" lon="11.7714025"><ele>11.666666666666668</ele><time>2026-04-19T08:01:30.041Z</time></trkpt><trkpt lat="42.1198831" lon="11.7712993"><ele>10.0</ele><time>2026-04-19T08:01:31.042Z</time></trkpt><trkpt lat="42.120083" lon="11.7711893"><ele>9.666666666666668</ele><time>2026-04-19T08:01:32.042Z</time></trkpt><trkpt lat="42.1202764" lon="11.7710823"><ele>9.333333333333334</ele><time>2026-04-19T08:01:33.041Z</time></trkpt><trkpt lat="42.1204643" lon="11.7709804"><ele>9.0</ele><time>2026-04-19T08:01:34.044Z</time></trkpt><trkpt lat="42.1206493" lon="11.7708838"><ele>9.333333333333334</ele><time>2026-04-19T08:01:35.038Z</time></trkpt><trkpt lat="42.1208348" lon="11.770791"><ele>9.666666666666668</ele><time>2026-04-19T08:01:36.039Z</time></trkpt><trkpt lat="42.1210226" lon="11.7706994"><ele>10.0</ele><time>2026-04-19T08:01:37.035Z</time></trkpt><trkpt lat="42.1212144" lon="11.770615"><ele>10.0</ele><time>2026-04-19T08:01:38.038Z</time></trkpt><trkpt lat="42.1214103" lon="11.7705452"><ele>10.0</ele><time>2026-04-19T08:01:39.044Z</time></trkpt><trkpt lat="42.1216093" lon="11.7704886"><ele>10.0</ele><time>2026-04-19T08:01:40.035Z</time></trkpt><trkpt lat="42.1218084" lon="11.7704444"><ele>10.333333333333334</ele><time>2026-04-19T08:01:41.048Z</time></trkpt><trkpt lat="42.1219995" lon="11.7704162"><ele>10.666666666666666</ele><time>2026-04-19T08:01:42.037Z</time></trkpt><trkpt lat="42.1221834" lon="11.7704095"><ele>11.0</ele><time>2026-04-19T08:01:43.04Z</time></trkpt><trkpt lat="42.1223645" lon="11.7704241"><ele>11.333333333333332</ele><time>2026-04-19T08:01:44.044Z</time></trkpt><trkpt lat="42.1225464" lon="11.7704558"><ele>11.666666666666666</ele><time>2026-04-19T08:01:45.04Z</time></trkpt><trkpt lat="42.1227264" lon="11.7704979"><ele>12.0</ele><time>2026-04-19T08:01:46.046Z</time></trkpt><trkpt lat="42.122905" lon="11.7705464"><ele>12.0</ele><time>2026-04-19T08:01:47.043Z</time></trkpt><trkpt lat="42.1230852" lon="11.7705997"><ele>12.0</ele><time>2026-04-19T08:01:48.036Z</time></trkpt><trkpt lat="42.1232658" lon="11.7706576"><ele>12.0</ele><time>2026-04-19T08:01:49.043Z</time></trkpt><trkpt lat="42.1234457" lon="11.7707197"><ele>12.0</ele><time>2026-04-19T08:01:50.046Z</time></trkpt><trkpt lat="42.123626" lon="11.7707885"><ele>12.0</ele><time>2026-04-19T08:01:51.044Z</time></trkpt><trkpt lat="42.1238088" lon="11.7708637"><ele>12.0</ele><time>2026-04-19T08:01:52.042Z</time></trkpt><trkpt lat="42.123992" lon="11.7709393"><ele>13.666666666666668</ele><time>2026-04-19T08:01:53.037Z</time></trkpt><trkpt lat="42.1241724" lon="11.7710115"><ele>15.333333333333334</ele><time>2026-04-19T08:01:54.038Z</time></trkpt><trkpt lat="42.1243483" lon="11.7710786"><ele>17.0</ele><time>2026-04-19T08:01:55.044Z</time></trkpt><trkpt lat="42.1245214" lon="11.7711417"><ele>17.0</ele><time>2026-04-19T08:01:56.049Z</time></trkpt><trkpt lat="42.1246946" lon="11.7712042"><ele>17.0</ele><time>2026-04-19T08:01:57.045Z</time></trkpt><trkpt lat="42.1248691" lon="11.7712682"><ele>17.0</ele><time>2026-04-19T08:01:58.06Z</time></trkpt><trkpt lat="42.1250458" lon="11.7713334"><ele>18.0</ele><time>2026-04-19T08:01:59.044Z</time></trkpt><trkpt lat="42.1252243" lon="11.7714015"><ele>19.0</ele><time>2026-04-19T08:02:00.048Z</time></trkpt><trkpt lat="42.1254013" lon="11.7714803"><ele>20.0</ele><time>2026-04-19T08:02:01.039Z</time></trkpt><trkpt lat="42.1255728" lon="11.7715762"><ele>21.0</ele><time>2026-04-19T08:02:02.039Z</time></trkpt><trkpt lat="42.1257347" lon="11.7716882"><ele>22.0</ele><time>2026-04-19T08:02:03.041Z</time></trkpt><trkpt lat="42.12589" lon="11.7718114"><ele>23.0</ele><time>2026-04-19T08:02:04.041Z</time></trkpt><trkpt lat="42.1260381" lon="11.7719448"><ele>23.333333333333336</ele><time>2026-04-19T08:02:05.039Z</time></trkpt><trkpt lat="42.1261804" lon="11.772088"><ele>23.666666666666668</ele><time>2026-04-19T08:02:06.042Z</time></trkpt><trkpt lat="42.1263231" lon="11.7722345"><ele>24.0</ele><time>2026-04-19T08:02:07.041Z</time></trkpt><trkpt lat="42.1264684" lon="11.7723791"><ele>23.666666666666668</ele><time>2026-04-19T08:02:08.087Z</time></trkpt><trkpt lat="42.1266191" lon="11.7725198"><ele>23.333333333333336</ele><time>2026-04-19T08:02:09.047Z</time></trkpt><trkpt lat="42.1267791" lon="11.7726526"><ele>23.0</ele><time>2026-04-19T08:02:10.038Z</time></trkpt><trkpt lat="42.1269481" lon="11.77277"><ele>23.0</ele><time>2026-04-19T08:02:11.043Z</time></trkpt><trkpt lat="42.1271237" lon="11.772872"><ele>23.0</ele><time>2026-04-19T08:02:12.047Z</time></trkpt><trkpt lat="42.1273047" lon="11.7729582"><ele>23.0</ele><time>2026-04-19T08:02:13.051Z</time></trkpt><trkpt lat="42.1274897" lon="11.7730209"><ele>24.333333333333336</ele><time>2026-04-19T08:02:14.036Z</time></trkpt><trkpt lat="42.1276777" lon="11.7730586"><ele>25.666666666666668</ele><time>2026-04-19T08:02:15.048Z</time></trkpt><trkpt lat="42.1278667" lon="11.773076"><ele>27.0</ele><time>2026-04-19T08:02:16.037Z</time></trkpt><trkpt lat="42.1280546" lon="11.7730845"><ele>27.333333333333336</ele><time>2026-04-19T08:02:17.044Z</time></trkpt><trkpt lat="42.1282421" lon="11.7730876"><ele>27.666666666666668</ele><time>2026-04-19T08:02:18.045Z</time></trkpt><trkpt lat="42.1284317" lon="11.7730897"><ele>28.0</ele><time>2026-04-19T08:02:19.042Z</time></trkpt><trkpt lat="42.1286225" lon="11.7730946"><ele>28.0</ele><time>2026-04-19T08:02:20.04Z</time></trkpt><trkpt lat="42.1288123" lon="11.7731001"><ele>28.0</ele><time>2026-04-19T08:02:21.041Z</time></trkpt><trkpt lat="42.1290006" lon="11.7731054"><ele>28.0</ele><time>2026-04-19T08:02:22.038Z</time></trkpt><trkpt lat="42.1291876" lon="11.7731127"><ele>29.0</ele><time>2026-04-19T08:02:23.035Z</time></trkpt><trkpt lat="42.1293716" lon="11.7731206"><ele>30.0</ele><time>2026-04-19T08:02:24.037Z</time></trkpt><trkpt lat="42.1295437" lon="11.7731279"><ele>31.0</ele><time>2026-04-19T08:02:25.036Z</time></trkpt><trkpt lat="42.1297113" lon="11.7731363"><ele>31.0</ele><time>2026-04-19T08:02:26.032Z</time></trkpt><trkpt lat="42.129876" lon="11.7731391"><ele>31.0</ele><time>2026-04-19T08:02:27.048Z</time></trkpt><trkpt lat="42.1300324" lon="11.7731364"><ele>31.0</ele><time>2026-04-19T08:02:28.044Z</time></trkpt><trkpt lat="42.1301729" lon="11.7731287"><ele>31.6</ele><time>2026-04-19T08:02:29.044Z</time></trkpt><trkpt lat="42.1303004" lon="11.7731188"><ele>32.2</ele><time>2026-04-19T08:02:30.046Z</time></trkpt><trkpt lat="42.1304182" lon="11.7731073"><ele>32.8</ele><time>2026-04-19T08:02:31.034Z</time></trkpt><trkpt lat="42.1305244" lon="11.7730986"><ele>33.4</ele><time>2026-04-19T08:02:32.045Z</time></trkpt><trkpt lat="42.1306176" lon="11.7731088"><ele>34.0</ele><time>2026-04-19T08:02:33.054Z</time></trkpt><trkpt lat="42.1307004" lon="11.7731431"><ele>34.0</ele><time>2026-04-19T08:02:34.058Z</time></trkpt><trkpt lat="42.1307747" lon="11.7732062"><ele>34.0</ele><time>2026-04-19T08:02:35.039Z</time></trkpt><trkpt lat="42.1308398" lon="11.7733032"><ele>34.0</ele><time>2026-04-19T08:02:36.038Z</time></trkpt><trkpt lat="42.1308858" lon="11.7734297"><ele>34.0</ele><time>2026-04-19T08:02:37.045Z</time></trkpt><trkpt lat="42.1309173" lon="11.7735788"><ele>34.0</ele><time>2026-04-19T08:02:38.04Z</time></trkpt><trkpt lat="42.1309563" lon="11.7737458"><ele>33.333333333333336</ele><time>2026-04-19T08:02:39.048Z</time></trkpt><trkpt lat="42.1310145" lon="11.7739265"><ele>32.666666666666664</ele><time>2026-04-19T08:02:40.049Z</time></trkpt><trkpt lat="42.1310789" lon="11.7741067"><ele>32.0</ele><time>2026-04-19T08:02:41.042Z</time></trkpt><trkpt lat="42.1311769" lon="11.7742808"><ele>31.0</ele><time>2026-04-19T08:02:42.048Z</time></trkpt><trkpt lat="42.131282" lon="11.7744492"><ele>30.0</ele><time>2026-04-19T08:02:43.057Z</time></trkpt><trkpt lat="42.1313901" lon="11.7746167"><ele>29.0</ele><time>2026-04-19T08:02:44.04Z</time></trkpt><trkpt lat="42.1314994" lon="11.7747871"><ele>30.666666666666664</ele><time>2026-04-19T08:02:45.036Z</time></trkpt><trkpt lat="42.13161" lon="11.7749552"><ele>32.333333333333336</ele><time>2026-04-19T08:02:46.066Z</time></trkpt><trkpt lat="42.131715" lon="11.7751235"><ele>34.0</ele><time>2026-04-19T08:02:47.045Z</time></trkpt><trkpt lat="42.1318093" lon="11.775277"><ele>34.25</ele><time>2026-04-19T08:02:48.048Z</time></trkpt><trkpt lat="42.1318995" lon="11.7754163"><ele>34.5</ele><time>2026-04-19T08:02:49.055Z</time></trkpt><trkpt lat="42.1319911" lon="11.7755485"><ele>34.75</ele><time>2026-04-19T08:02:50.049Z</time></trkpt><trkpt lat="42.1320924" lon="11.7756649"><ele>35.0</ele><time>2026-04-19T08:02:51.056Z</time></trkpt><trkpt lat="42.1322065" lon="11.7757549"><ele>35.0</ele><time>2026-04-19T08:02:52.058Z</time></trkpt><trkpt lat="42.1323311" lon="11.7758134"><ele>35.0</ele><time>2026-04-19T08:02:53.056Z</time></trkpt><trkpt lat="42.1324526" lon="11.7758352"><ele>35.0</ele><time>2026-04-19T08:02:54.054Z</time></trkpt><trkpt lat="42.1325728" lon="11.775827"><ele>35.0</ele><time>2026-04-19T08:02:55.049Z</time></trkpt><trkpt lat="42.1326965" lon="11.775796"><ele>36.5</ele><time>2026-04-19T08:02:56.045Z</time></trkpt><trkpt lat="42.1328277" lon="11.7757621"><ele>38.0</ele><time>2026-04-19T08:02:57.063Z</time></trkpt><trkpt lat="42.132968" lon="11.7757421"><ele>39.5</ele><time>2026-04-19T08:02:58.072Z</time></trkpt><trkpt lat="42.1331131" lon="11.7757332"><ele>41.0</ele><time>2026-04-19T08:02:59.051Z</time></trkpt><trkpt lat="42.1332553" lon="11.7757351"><ele>42.75</ele><time>2026-04-19T08:03:00.046Z</time></trkpt><trkpt lat="42.1333894" lon="11.7757435"><ele>44.5</ele><time>2026-04-19T08:03:01.044Z</time></trkpt><trkpt lat="42.1335181" lon="11.7757598"><ele>46.25</ele><time>2026-04-19T08:03:02.047Z</time></trkpt><trkpt lat="42.1336443" lon="11.7757877"><ele>48.0</ele><time>2026-04-19T08:03:03.043Z</time></trkpt><trkpt lat="42.133771" lon="11.7758243"><ele>48.0</ele><time>2026-04-19T08:03:04.04Z</time></trkpt><trkpt lat="42.1339035" lon="11.7758718"><ele>48.0</ele><time>2026-04-19T08:03:05.053Z</time></trkpt><trkpt lat="42.1340388" lon="11.7759351"><ele>48.0</ele><time>2026-04-19T08:03:06.036Z</time></trkpt><trkpt lat="42.1341726" lon="11.7760147"><ele>48.0</ele><time>2026-04-19T08:03:07.042Z</time></trkpt><trkpt lat="42.1343044" lon="11.776107"><ele>49.33333333333333</ele><time>2026-04-19T08:03:08.056Z</time></trkpt><trkpt lat="42.1344351" lon="11.7762155"><ele>50.666666666666664</ele><time>2026-04-19T08:03:09.051Z</time></trkpt><trkpt lat="42.134566" lon="11.7763395"><ele>52.0</ele><time>2026-04-19T08:03:10.038Z</time></trkpt><trkpt lat="42.1346945" lon="11.7764769"><ele>52.0</ele><time>2026-04-19T08:03:11.053Z</time></trkpt><trkpt lat="42.1348191" lon="11.7766249"><ele>52.0</ele><time>2026-04-19T08:03:12.046Z</time></trkpt><trkpt lat="42.1349429" lon="11.7767824"><ele>52.0</ele><time>2026-04-19T08:03:13.038Z</time></trkpt><trkpt lat="42.1350685" lon="11.7769507"><ele>53.33333333333333</ele><time>2026-04-19T08:03:14.078Z</time></trkpt><trkpt lat="42.1351898" lon="11.7771159"><ele>54.66666666666667</ele><time>2026-04-19T08:03:15.046Z</time></trkpt><trkpt lat="42.1353107" lon="11.7772849"><ele>56.0</ele><time>2026-04-19T08:03:16.042Z</time></trkpt><trkpt lat="42.1354277" lon="11.7774584"><ele>56.0</ele><time>2026-04-19T08:03:17.043Z</time></trkpt><trkpt lat="42.1355437" lon="11.7776373"><ele>56.0</ele><time>2026-04-19T08:03:18.045Z</time></trkpt><trkpt lat="42.1356627" lon="11.7778224"><ele>56.0</ele><time>2026-04-19T08:03:19.042Z</time></trkpt><trkpt lat="42.1357861" lon="11.7780094"><ele>55.333333333333336</ele><time>2026-04-19T08:03:20.049Z</time></trkpt><trkpt lat="42.1359139" lon="11.7782012"><ele>54.66666666666667</ele><time>2026-04-19T08:03:21.04Z</time></trkpt><trkpt lat="42.1360432" lon="11.778395"><ele>54.0</ele><time>2026-04-19T08:03:22.06Z</time></trkpt><trkpt lat="42.1361727" lon="11.7785912"><ele>54.66666666666667</ele><time>2026-04-19T08:03:23.05Z</time></trkpt><trkpt lat="42.1363024" lon="11.7787906"><ele>55.333333333333336</ele><time>2026-04-19T08:03:24.041Z</time></trkpt><trkpt lat="42.1364324" lon="11.7789907"><ele>56.0</ele><time>2026-04-19T08:03:25.048Z</time></trkpt><trkpt lat="42.1365623" lon="11.7791915"><ele>55.66666666666667</ele><time>2026-04-19T08:03:26.038Z</time></trkpt><trkpt lat="42.1366935" lon="11.779393"><ele>55.33333333333333</ele><time>2026-04-19T08:03:27.043Z</time></trkpt><trkpt lat="42.1368225" lon="11.7795911"><ele>55.0</ele><time>2026-04-19T08:03:28.043Z</time></trkpt><trkpt lat="42.1369493" lon="11.7797857"><ele>55.0</ele><time>2026-04-19T08:03:29.045Z</time></trkpt><trkpt lat="42.137075" lon="11.7799787"><ele>55.0</ele><time>2026-04-19T08:03:30.045Z</time></trkpt><trkpt lat="42.1371999" lon="11.7801715"><ele>55.0</ele><time>2026-04-19T08:03:31.051Z</time></trkpt><trkpt lat="42.137327" lon="11.7803648"><ele>55.33333333333333</ele><time>2026-04-19T08:03:32.042Z</time></trkpt><trkpt lat="42.1374545" lon="11.7805603"><ele>55.66666666666667</ele><time>2026-04-19T08:03:33.054Z</time></trkpt><trkpt lat="42.1375824" lon="11.7807568"><ele>56.0</ele><time>2026-04-19T08:03:34.043Z</time></trkpt><trkpt lat="42.1377106" lon="11.7809535"><ele>56.333333333333336</ele><time>2026-04-19T08:03:35.045Z</time></trkpt><trkpt lat="42.1378368" lon="11.7811481"><ele>56.66666666666667</ele><time>2026-04-19T08:03:36.048Z</time></trkpt><trkpt lat="42.1379613" lon="11.7813404"><ele>57.0</ele><time>2026-04-19T08:03:37.047Z</time></trkpt><trkpt lat="42.138084" lon="11.7815096"><ele>57.0</ele><time>2026-04-19T08:03:38.046Z</time></trkpt><trkpt lat="42.1382087" lon="11.7817012"><ele>57.0</ele><time>2026-04-19T08:03:39.042Z</time></trkpt><trkpt lat="42.1383384" lon="11.781897"><ele>57.0</ele><time>2026-04-19T08:03:40.035Z</time></trkpt><trkpt lat="42.1384644" lon="11.7820928"><ele>58.33333333333333</ele><time>2026-04-19T08:03:41.046Z</time></trkpt><trkpt lat="42.1385857" lon="11.7822852"><ele>59.666666666666664</ele><time>2026-04-19T08:03:42.037Z</time></trkpt><trkpt lat="42.1387103" lon="11.7824788"><ele>61.0</ele><time>2026-04-19T08:03:43.047Z</time></trkpt><trkpt lat="42.1388343" lon="11.7826711"><ele>61.33333333333333</ele><time>2026-04-19T08:03:44.042Z</time></trkpt><trkpt lat="42.1389573" lon="11.7828595"><ele>61.66666666666667</ele><time>2026-04-19T08:03:45.038Z</time></trkpt><trkpt lat="42.1390793" lon="11.7830433"><ele>62.0</ele><time>2026-04-19T08:03:46.045Z</time></trkpt><trkpt lat="42.1392034" lon="11.7832291"><ele>62.0</ele><time>2026-04-19T08:03:47.046Z</time></trkpt><trkpt lat="42.1393226" lon="11.7834186"><ele>62.0</ele><time>2026-04-19T08:03:48.036Z</time></trkpt><trkpt lat="42.1394416" lon="11.7836016"><ele>62.0</ele><time>2026-04-19T08:03:49.056Z</time></trkpt><trkpt lat="42.1395649" lon="11.7837885"><ele>62.333333333333336</ele><time>2026-04-19T08:03:50.043Z</time></trkpt><trkpt lat="42.1396886" lon="11.783977"><ele>62.66666666666667</ele><time>2026-04-19T08:03:51.038Z</time></trkpt><trkpt lat="42.1398122" lon="11.7841648"><ele>63.0</ele><time>2026-04-19T08:03:52.046Z</time></trkpt><trkpt lat="42.1399327" lon="11.7843488"><ele>63.0</ele><time>2026-04-19T08:03:53.043Z</time></trkpt><trkpt lat="42.1400506" lon="11.7845265"><ele>63.0</ele><time>2026-04-19T08:03:54.038Z</time></trkpt><trkpt lat="42.1401664" lon="11.7847008"><ele>63.0</ele><time>2026-04-19T08:03:55.045Z</time></trkpt><trkpt lat="42.1402848" lon="11.7848791"><ele>63.0</ele><time>2026-04-19T08:03:56.037Z</time></trkpt><trkpt lat="42.1404052" lon="11.7850593"><ele>63.0</ele><time>2026-04-19T08:03:57.044Z</time></trkpt><trkpt lat="42.1405256" lon="11.7852398"><ele>63.0</ele><time>2026-04-19T08:03:58.045Z</time></trkpt><trkpt lat="42.1406485" lon="11.7854227"><ele>62.66666666666667</ele><time>2026-04-19T08:03:59.043Z</time></trkpt><trkpt lat="42.1407795" lon="11.7856066"><ele>62.333333333333336</ele><time>2026-04-19T08:04:00.047Z</time></trkpt><trkpt lat="42.1409068" lon="11.7857984"><ele>62.0</ele><time>2026-04-19T08:04:01.044Z</time></trkpt><trkpt lat="42.1410229" lon="11.7859858"><ele>62.333333333333336</ele><time>2026-04-19T08:04:02.039Z</time></trkpt><trkpt lat="42.141136" lon="11.7861679"><ele>62.66666666666667</ele><time>2026-04-19T08:04:03.048Z</time></trkpt><trkpt lat="42.1412467" lon="11.7863306"><ele>63.0</ele><time>2026-04-19T08:04:04.036Z</time></trkpt><trkpt lat="42.1413566" lon="11.7865231"><ele>63.0</ele><time>2026-04-19T08:04:05.054Z</time></trkpt><trkpt lat="42.1414668" lon="11.7867095"><ele>63.0</ele><time>2026-04-19T08:04:06.035Z</time></trkpt><trkpt lat="42.141581" lon="11.7868894"><ele>63.0</ele><time>2026-04-19T08:04:07.039Z</time></trkpt><trkpt lat="42.1416898" lon="11.7870485"><ele>62.66666666666667</ele><time>2026-04-19T08:04:08.041Z</time></trkpt><trkpt lat="42.1417957" lon="11.7872184"><ele>62.333333333333336</ele><time>2026-04-19T08:04:09.05Z</time></trkpt><trkpt lat="42.1419083" lon="11.7873686"><ele>62.0</ele><time>2026-04-19T08:04:10.051Z</time></trkpt><trkpt lat="42.1420314" lon="11.7875094"><ele>62.0</ele><time>2026-04-19T08:04:11.043Z</time></trkpt><trkpt lat="42.1421652" lon="11.7876333"><ele>62.0</ele><time>2026-04-19T08:04:12.038Z</time></trkpt><trkpt lat="42.142313" lon="11.7877417"><ele>62.0</ele><time>2026-04-19T08:04:13.047Z</time></trkpt><trkpt lat="42.1424686" lon="11.7878344"><ele>60.0</ele><time>2026-04-19T08:04:14.041Z</time></trkpt><trkpt lat="42.1426222" lon="11.7879245"><ele>58.0</ele><time>2026-04-19T08:04:15.038Z</time></trkpt><trkpt lat="42.1427804" lon="11.7880221"><ele>56.0</ele><time>2026-04-19T08:04:16.037Z</time></trkpt><trkpt lat="42.1429429" lon="11.7881219"><ele>56.0</ele><time>2026-04-19T08:04:17.043Z</time></trkpt><trkpt lat="42.1431101" lon="11.7882228"><ele>56.0</ele><time>2026-04-19T08:04:18.065Z</time></trkpt><trkpt lat="42.1432821" lon="11.7883241"><ele>56.0</ele><time>2026-04-19T08:04:19.05Z</time></trkpt><trkpt lat="42.1434561" lon="11.7884208"><ele>54.0</ele><time>2026-04-19T08:04:20.043Z</time></trkpt><trkpt lat="42.1436297" lon="11.7885154"><ele>52.0</ele><time>2026-04-19T08:04:21.039Z</time></trkpt><trkpt lat="42.1438051" lon="11.7886089"><ele>50.0</ele><time>2026-04-19T08:04:22.039Z</time></trkpt><trkpt lat="42.1439859" lon="11.7886921"><ele>48.333333333333336</ele><time>2026-04-19T08:04:23.039Z</time></trkpt><trkpt lat="42.1441718" lon="11.7887581"><ele>46.66666666666667</ele><time>2026-04-19T08:04:24.039Z</time></trkpt><trkpt lat="42.1443645" lon="11.7888024"><ele>45.0</ele><time>2026-04-19T08:04:25.045Z</time></trkpt><trkpt lat="42.1445622" lon="11.7888282"><ele>45.0</ele><time>2026-04-19T08:04:26.038Z</time></trkpt><trkpt lat="42.144764" lon="11.7888479"><ele>45.0</ele><time>2026-04-19T08:04:27.041Z</time></trkpt><trkpt lat="42.1449676" lon="11.7888661"><ele>45.0</ele><time>2026-04-19T08:04:28.037Z</time></trkpt><trkpt lat="42.1451716" lon="11.7888838"><ele>43.333333333333336</ele><time>2026-04-19T08:04:29.041Z</time></trkpt><trkpt lat="42.1453759" lon="11.7889023"><ele>41.66666666666667</ele><time>2026-04-19T08:04:30.048Z</time></trkpt><trkpt lat="42.1455794" lon="11.7889229"><ele>40.0</ele><time>2026-04-19T08:04:31.042Z</time></trkpt><trkpt lat="42.1457843" lon="11.78894"><ele>38.333333333333336</ele><time>2026-04-19T08:04:32.047Z</time></trkpt><trkpt lat="42.1459907" lon="11.7889523"><ele>36.666666666666664</ele><time>2026-04-19T08:04:33.048Z</time></trkpt><trkpt lat="42.1461931" lon="11.7889616"><ele>35.0</ele><time>2026-04-19T08:04:34.041Z</time></trkpt><trkpt lat="42.146402" lon="11.788948"><ele>34.0</ele><time>2026-04-19T08:04:35.043Z</time></trkpt><trkpt lat="42.1466082" lon="11.7889231"><ele>33.0</ele><time>2026-04-19T08:04:36.043Z</time></trkpt><trkpt lat="42.1468125" lon="11.7888884"><ele>32.0</ele><time>2026-04-19T08:04:37.044Z</time></trkpt><trkpt lat="42.1470126" lon="11.7888505"><ele>32.0</ele><time>2026-04-19T08:04:38.047Z</time></trkpt><trkpt lat="42.1472116" lon="11.7888117"><ele>32.0</ele><time>2026-04-19T08:04:39.048Z</time></trkpt><trkpt lat="42.1474093" lon="11.7887658"><ele>32.0</ele><time>2026-04-19T08:04:40.04Z</time></trkpt><trkpt lat="42.1476066" lon="11.7887098"><ele>32.0</ele><time>2026-04-19T08:04:41.049Z</time></trkpt><trkpt lat="42.1478002" lon="11.7886461"><ele>32.0</ele><time>2026-04-19T08:04:42.045Z</time></trkpt><trkpt lat="42.1479902" lon="11.7885734"><ele>32.0</ele><time>2026-04-19T08:04:43.04Z</time></trkpt><trkpt lat="42.1481787" lon="11.7884944"><ele>30.666666666666664</ele><time>2026-04-19T08:04:44.045Z</time></trkpt><trkpt lat="42.148364" lon="11.7884106"><ele>29.333333333333336</ele><time>2026-04-19T08:04:45.043Z</time></trkpt><trkpt lat="42.148548" lon="11.7883205"><ele>28.0</ele><time>2026-04-19T08:04:46.043Z</time></trkpt><trkpt lat="42.1487328" lon="11.7882272"><ele>28.0</ele><time>2026-04-19T08:04:47.05Z</time></trkpt><trkpt lat="42.1489125" lon="11.7881415"><ele>28.0</ele><time>2026-04-19T08:04:48.049Z</time></trkpt><trkpt lat="42.1490899" lon="11.7880646"><ele>28.0</ele><time>2026-04-19T08:04:49.038Z</time></trkpt><trkpt lat="42.1492672" lon="11.788001"><ele>27.0</ele><time>2026-04-19T08:04:50.036Z</time></trkpt><trkpt lat="42.1494457" lon="11.7879536"><ele>26.0</ele><time>2026-04-19T08:04:51.06Z</time></trkpt><trkpt lat="42.149628" lon="11.7879318"><ele>25.0</ele><time>2026-04-19T08:04:52.05Z</time></trkpt><trkpt lat="42.1498112" lon="11.7879408"><ele>24.0</ele><time>2026-04-19T08:04:53.045Z</time></trkpt><trkpt lat="42.1499948" lon="11.7879795"><ele>23.0</ele><time>2026-04-19T08:04:54.048Z</time></trkpt><trkpt lat="42.1501776" lon="11.7880434"><ele>22.0</ele><time>2026-04-19T08:04:55.042Z</time></trkpt><trkpt lat="42.1503563" lon="11.7881263"><ele>22.0</ele><time>2026-04-19T08:04:56.041Z</time></trkpt><trkpt lat="42.1505308" lon="11.7882213"><ele>22.0</ele><time>2026-04-19T08:04:57.05Z</time></trkpt><trkpt lat="42.1507023" lon="11.7883236"><ele>22.0</ele><time>2026-04-19T08:04:58.047Z</time></trkpt><trkpt lat="42.1508726" lon="11.788433"><ele>24.0</ele><time>2026-04-19T08:04:59.039Z</time></trkpt><trkpt lat="42.1510444" lon="11.7885399"><ele>26.0</ele><time>2026-04-19T08:05:00.059Z</time></trkpt><trkpt lat="42.1512155" lon="11.7886396"><ele>28.0</ele><time>2026-04-19T08:05:01.048Z</time></trkpt><trkpt lat="42.1513876" lon="11.7887327"><ele>28.333333333333336</ele><time>2026-04-19T08:05:02.039Z</time></trkpt><trkpt lat="42.1515615" lon="11.7888222"><ele>28.666666666666664</ele><time>2026-04-19T08:05:03.062Z</time></trkpt><trkpt lat="42.1517364" lon="11.788911"><ele>29.0</ele><time>2026-04-19T08:05:04.047Z</time></trkpt><trkpt lat="42.1519111" lon="11.7889958"><ele>29.0</ele><time>2026-04-19T08:05:05.041Z</time></trkpt><trkpt lat="42.1520885" lon="11.7890758"><ele>29.0</ele><time>2026-04-19T08:05:06.046Z</time></trkpt><trkpt lat="42.1522703" lon="11.7891489"><ele>29.0</ele><time>2026-04-19T08:05:07.053Z</time></trkpt><trkpt lat="42.1524572" lon="11.7892131"><ele>30.0</ele><time>2026-04-19T08:05:08.043Z</time></trkpt><trkpt lat="42.1526479" lon="11.7892679"><ele>31.0</ele><time>2026-04-19T08:05:09.046Z</time></trkpt><trkpt lat="42.1528355" lon="11.7893152"><ele>32.0</ele><time>2026-04-19T08:05:10.048Z</time></trkpt><trkpt lat="42.153016" lon="11.789355"><ele>34.33333333333333</ele><time>2026-04-19T08:05:11.035Z</time></trkpt><trkpt lat="42.1531913" lon="11.7893828"><ele>36.666666666666664</ele><time>2026-04-19T08:05:12.036Z</time></trkpt><trkpt lat="42.1533629" lon="11.7893984"><ele>39.0</ele><time>2026-04-19T08:05:13.043Z</time></trkpt><trkpt lat="42.1535312" lon="11.7894072"><ele>40.0</ele><time>2026-04-19T08:05:14.046Z</time></trkpt><trkpt lat="42.1536957" lon="11.7894135"><ele>41.0</ele><time>2026-04-19T08:05:15.064Z</time></trkpt><trkpt lat="42.1538564" lon="11.7894199"><ele>42.0</ele><time>2026-04-19T08:05:16.045Z</time></trkpt><trkpt lat="42.154015" lon="11.789427"><ele>42.5</ele><time>2026-04-19T08:05:17.044Z</time></trkpt><trkpt lat="42.1541617" lon="11.7894371"><ele>43.0</ele><time>2026-04-19T08:05:18.043Z</time></trkpt><trkpt lat="42.1542919" lon="11.7894484"><ele>43.5</ele><time>2026-04-19T08:05:19.048Z</time></trkpt><trkpt lat="42.1544153" lon="11.7894579"><ele>44.0</ele><time>2026-04-19T08:05:20.048Z</time></trkpt><trkpt lat="42.1545286" lon="11.7894686"><ele>44.0</ele><time>2026-04-19T08:05:21.046Z</time></trkpt><trkpt lat="42.1546337" lon="11.7894897"><ele>44.0</ele><time>2026-04-19T08:05:22.052Z</time></trkpt><trkpt lat="42.1547335" lon="11.7895276"><ele>44.0</ele><time>2026-04-19T08:05:23.044Z</time></trkpt><trkpt lat="42.1548298" lon="11.7895801"><ele>44.0</ele><time>2026-04-19T08:05:24.043Z</time></trkpt><trkpt lat="42.1549098" lon="11.7896304"><ele>44.0</ele><time>2026-04-19T08:05:25.059Z</time></trkpt><trkpt lat="42.1549685" lon="11.7896669"><ele>44.0</ele><time>2026-04-19T08:05:26.048Z</time></trkpt><trkpt lat="42.1550413" lon="11.7897112"><ele>44.0</ele><time>2026-04-19T08:05:28.065Z</time></trkpt><trkpt lat="42.1549772" lon="11.7896522"><ele>44.0</ele><time>2026-04-19T08:05:41.049Z</time></trkpt><trkpt lat="42.1549191" lon="11.7895946"><ele>44.0</ele><time>2026-04-19T08:05:42.057Z</time></trkpt><trkpt lat="42.1548473" lon="11.7895039"><ele>44.0</ele><time>2026-04-19T08:05:44.048Z</time></trkpt><trkpt lat="42.154885" lon="11.7894345"><ele>44.0</ele><time>2026-04-19T08:05:46.059Z</time></trkpt><trkpt lat="42.155006" lon="11.7894219"><ele>44.0</ele><time>2026-04-19T08:05:48.031Z</time></trkpt><trkpt lat="42.1550889" lon="11.7894345"><ele>44.0</ele><time>2026-04-19T08:05:49.043Z</time></trkpt><trkpt lat="42.1551852" lon="11.78945"><ele>44.0</ele><time>2026-04-19T08:05:50.048Z</time></trkpt><trkpt lat="42.1552917" lon="11.7894553"><ele>44.0</ele><time>2026-04-19T08:05:51.053Z</time></trkpt><trkpt lat="42.1554065" lon="11.7894554"><ele>44.0</ele><time>2026-04-19T08:05:52.059Z</time></trkpt><trkpt lat="42.1555339" lon="11.7894539"><ele>44.0</ele><time>2026-04-19T08:05:53.044Z</time></trkpt><trkpt lat="42.1556658" lon="11.7894532"><ele>44.0</ele><time>2026-04-19T08:05:54.049Z</time></trkpt><trkpt lat="42.1558044" lon="11.7894535"><ele>44.0</ele><time>2026-04-19T08:05:55.048Z</time></trkpt><trkpt lat="42.1559348" lon="11.789459"><ele>44.0</ele><time>2026-04-19T08:05:56.047Z</time></trkpt><trkpt lat="42.1560584" lon="11.7894768"><ele>43.75</ele><time>2026-04-19T08:05:57.045Z</time></trkpt><trkpt lat="42.1561865" lon="11.7895295"><ele>43.5</ele><time>2026-04-19T08:05:58.038Z</time></trkpt><trkpt lat="42.1563157" lon="11.7896088"><ele>43.25</ele><time>2026-04-19T08:05:59.047Z</time></trkpt><trkpt lat="42.1564364" lon="11.7897071"><ele>43.0</ele><time>2026-04-19T08:06:00.043Z</time></trkpt><trkpt lat="42.1565468" lon="11.7898221"><ele>42.25</ele><time>2026-04-19T08:06:01.043Z</time></trkpt><trkpt lat="42.1566579" lon="11.7899385"><ele>41.5</ele><time>2026-04-19T08:06:02.052Z</time></trkpt><trkpt lat="42.1567555" lon="11.7900435"><ele>40.75</ele><time>2026-04-19T08:06:03.053Z</time></trkpt><trkpt lat="42.1568719" lon="11.7901926"><ele>40.0</ele><time>2026-04-19T08:06:04.052Z</time></trkpt><trkpt lat="42.1569891" lon="11.7903176"><ele>40.0</ele><time>2026-04-19T08:06:05.048Z</time></trkpt><trkpt lat="42.157105" lon="11.7904335"><ele>40.0</ele><time>2026-04-19T08:06:06.06Z</time></trkpt><trkpt lat="42.1572202" lon="11.7905197"><ele>40.0</ele><time>2026-04-19T08:06:07.065Z</time></trkpt><trkpt lat="42.1573568" lon="11.790573"><ele>40.0</ele><time>2026-04-19T08:06:08.045Z</time></trkpt><trkpt lat="42.1574908" lon="11.7905963"><ele>39.5</ele><time>2026-04-19T08:06:09.039Z</time></trkpt><trkpt lat="42.1576278" lon="11.7905958"><ele>39.0</ele><time>2026-04-19T08:06:10.064Z</time></trkpt><trkpt lat="42.1577707" lon="11.790561"><ele>38.5</ele><time>2026-04-19T08:06:11.073Z</time></trkpt><trkpt lat="42.1579058" lon="11.7905058"><ele>38.0</ele><time>2026-04-19T08:06:12.058Z</time></trkpt><trkpt lat="42.1580363" lon="11.7904361"><ele>38.0</ele><time>2026-04-19T08:06:13.046Z</time></trkpt><trkpt lat="42.1581687" lon="11.7903578"><ele>38.0</ele><time>2026-04-19T08:06:14.05Z</time></trkpt><trkpt lat="42.1583141" lon="11.7902743"><ele>38.0</ele><time>2026-04-19T08:06:15.048Z</time></trkpt><trkpt lat="42.1584712" lon="11.7901879"><ele>35.33333333333333</ele><time>2026-04-19T08:06:16.037Z</time></trkpt><trkpt lat="42.1586362" lon="11.7900994"><ele>32.666666666666664</ele><time>2026-04-19T08:06:17.05Z</time></trkpt><trkpt lat="42.1588071" lon="11.7900093"><ele>30.0</ele><time>2026-04-19T08:06:18.045Z</time></trkpt><trkpt lat="42.158971" lon="11.7899228"><ele>28.333333333333336</ele><time>2026-04-19T08:06:19.041Z</time></trkpt><trkpt lat="42.1591322" lon="11.7898362"><ele>26.666666666666668</ele><time>2026-04-19T08:06:20.056Z</time></trkpt><trkpt lat="42.1592933" lon="11.7897502"><ele>25.0</ele><time>2026-04-19T08:06:21.059Z</time></trkpt><trkpt lat="42.1594488" lon="11.7896641"><ele>25.0</ele><time>2026-04-19T08:06:22.047Z</time></trkpt><trkpt lat="42.1595972" lon="11.7895801"><ele>25.0</ele><time>2026-04-19T08:06:23.055Z</time></trkpt><trkpt lat="42.1597465" lon="11.7894988"><ele>25.0</ele><time>2026-04-19T08:06:24.051Z</time></trkpt><trkpt lat="42.1598964" lon="11.7894201"><ele>24.666666666666668</ele><time>2026-04-19T08:06:25.049Z</time></trkpt><trkpt lat="42.1600457" lon="11.7893439"><ele>24.333333333333336</ele><time>2026-04-19T08:06:26.064Z</time></trkpt><trkpt lat="42.1601951" lon="11.7892677"><ele>24.0</ele><time>2026-04-19T08:06:27.057Z</time></trkpt><trkpt lat="42.1603438" lon="11.7891946"><ele>24.666666666666664</ele><time>2026-04-19T08:06:28.04Z</time></trkpt><trkpt lat="42.1604923" lon="11.7891265"><ele>25.333333333333332</ele><time>2026-04-19T08:06:29.047Z</time></trkpt><trkpt lat="42.1606431" lon="11.7890616"><ele>26.0</ele><time>2026-04-19T08:06:30.055Z</time></trkpt><trkpt lat="42.1607917" lon="11.7889954"><ele>28.0</ele><time>2026-04-19T08:06:31.041Z</time></trkpt><trkpt lat="42.1609384" lon="11.7889289"><ele>30.0</ele><time>2026-04-19T08:06:32.048Z</time></trkpt><trkpt lat="42.1610843" lon="11.7888638"><ele>32.0</ele><time>2026-04-19T08:06:33.089Z</time></trkpt><trkpt lat="42.1612282" lon="11.7888013"><ele>32.0</ele><time>2026-04-19T08:06:34.044Z</time></trkpt><trkpt lat="42.1613695" lon="11.7887385"><ele>32.0</ele><time>2026-04-19T08:06:35.05Z</time></trkpt><trkpt lat="42.1615128" lon="11.7886749"><ele>32.0</ele><time>2026-04-19T08:06:36.041Z</time></trkpt><trkpt lat="42.1616574" lon="11.7886073"><ele>33.0</ele><time>2026-04-19T08:06:37.05Z</time></trkpt><trkpt lat="42.1617978" lon="11.7885321"><ele>34.0</ele><time>2026-04-19T08:06:38.044Z</time></trkpt><trkpt lat="42.1619339" lon="11.7884547"><ele>35.0</ele><time>2026-04-19T08:06:39.048Z</time></trkpt><trkpt lat="42.1620695" lon="11.7883692"><ele>36.0</ele><time>2026-04-19T08:06:40.047Z</time></trkpt><trkpt lat="42.1622011" lon="11.7882775"><ele>36.0</ele><time>2026-04-19T08:06:41.047Z</time></trkpt><trkpt lat="42.1623264" lon="11.7881914"><ele>36.0</ele><time>2026-04-19T08:06:42.058Z</time></trkpt><trkpt lat="42.1624517" lon="11.7881071"><ele>36.0</ele><time>2026-04-19T08:06:43.048Z</time></trkpt><trkpt lat="42.1625714" lon="11.7880313"><ele>36.0</ele><time>2026-04-19T08:06:44.049Z</time></trkpt><trkpt lat="42.1626989" lon="11.7879686"><ele>36.0</ele><time>2026-04-19T08:06:45.041Z</time></trkpt><trkpt lat="42.1628343" lon="11.7879313"><ele>36.0</ele><time>2026-04-19T08:06:46.052Z</time></trkpt><trkpt lat="42.1629664" lon="11.7879277"><ele>36.0</ele><time>2026-04-19T08:06:47.042Z</time></trkpt><trkpt lat="42.1630867" lon="11.7879554"><ele>36.0</ele><time>2026-04-19T08:06:48.049Z</time></trkpt><trkpt lat="42.1632056" lon="11.7880114"><ele>35.8</ele><time>2026-04-19T08:06:49.047Z</time></trkpt><trkpt lat="42.1633089" lon="11.7880936"><ele>35.6</ele><time>2026-04-19T08:06:50.045Z</time></trkpt><trkpt lat="42.1633901" lon="11.7881697"><ele>35.4</ele><time>2026-04-19T08:06:51.048Z</time></trkpt><trkpt lat="42.1634497" lon="11.7882762"><ele>35.2</ele><time>2026-04-19T08:06:52.054Z</time></trkpt><trkpt lat="42.1634776" lon="11.7883765"><ele>35.0</ele><time>2026-04-19T08:06:53.056Z</time></trkpt><trkpt lat="42.1634961" lon="11.7884913"><ele>35.4</ele><time>2026-04-19T08:06:54.056Z</time></trkpt><trkpt lat="42.1634728" lon="11.7886163"><ele>35.8</ele><time>2026-04-19T08:06:55.058Z</time></trkpt><trkpt lat="42.16343" lon="11.788732"><ele>36.2</ele><time>2026-04-19T08:06:56.04Z</time></trkpt><trkpt lat="42.1633961" lon="11.7888585"><ele>36.6</ele><time>2026-04-19T08:06:57.05Z</time></trkpt><trkpt lat="42.1633747" lon="11.788994"><ele>37.0</ele><time>2026-04-19T08:06:58.05Z</time></trkpt><trkpt lat="42.1633733" lon="11.7891341"><ele>37.0</ele><time>2026-04-19T08:06:59.049Z</time></trkpt><trkpt lat="42.1633802" lon="11.78927"><ele>37.0</ele><time>2026-04-19T08:07:00.042Z</time></trkpt><trkpt lat="42.1634055" lon="11.7894141"><ele>37.0</ele><time>2026-04-19T08:07:01.043Z</time></trkpt><trkpt lat="42.163455" lon="11.7895545"><ele>37.0</ele><time>2026-04-19T08:07:02.057Z</time></trkpt><trkpt lat="42.1635354" lon="11.7896733"><ele>37.0</ele><time>2026-04-19T08:07:03.049Z</time></trkpt><trkpt lat="42.1636417" lon="11.7897571"><ele>37.25</ele><time>2026-04-19T08:07:04.044Z</time></trkpt><trkpt lat="42.1637551" lon="11.7898298"><ele>37.5</ele><time>2026-04-19T08:07:05.055Z</time></trkpt><trkpt lat="42.1638785" lon="11.7898644"><ele>37.75</ele><time>2026-04-19T08:07:06.048Z</time></trkpt><trkpt lat="42.1639994" lon="11.789884"><ele>38.0</ele><time>2026-04-19T08:07:07.047Z</time></trkpt><trkpt lat="42.1641036" lon="11.7899018"><ele>38.0</ele><time>2026-04-19T08:07:08.057Z</time></trkpt><trkpt lat="42.1641994" lon="11.7899448"><ele>38.0</ele><time>2026-04-19T08:07:09.045Z</time></trkpt><trkpt lat="42.164276" lon="11.7900215"><ele>38.0</ele><time>2026-04-19T08:07:10.045Z</time></trkpt><trkpt lat="42.1643474" lon="11.7901278"><ele>38.0</ele><time>2026-04-19T08:07:11.056Z</time></trkpt><trkpt lat="42.1644205" lon="11.7902515"><ele>38.0</ele><time>2026-04-19T08:07:12.047Z</time></trkpt><trkpt lat="42.1645034" lon="11.7903856"><ele>38.5</ele><time>2026-04-19T08:07:13.048Z</time></trkpt><trkpt lat="42.1646025" lon="11.7905183"><ele>39.0</ele><time>2026-04-19T08:07:14.07Z</time></trkpt><trkpt lat="42.1647186" lon="11.7906504"><ele>39.5</ele><time>2026-04-19T08:07:15.049Z</time></trkpt><trkpt lat="42.1648381" lon="11.7907729"><ele>40.0</ele><time>2026-04-19T08:07:16.048Z</time></trkpt><trkpt lat="42.1649663" lon="11.7908968"><ele>42.0</ele><time>2026-04-19T08:07:17.064Z</time></trkpt><trkpt lat="42.165088" lon="11.7910351"><ele>44.0</ele><time>2026-04-19T08:07:18.051Z</time></trkpt><trkpt lat="42.1651958" lon="11.7911939"><ele>46.0</ele><time>2026-04-19T08:07:19.043Z</time></trkpt><trkpt lat="42.1652879" lon="11.7913704"><ele>46.0</ele><time>2026-04-19T08:07:20.063Z</time></trkpt><trkpt lat="42.1653666" lon="11.7915631"><ele>46.0</ele><time>2026-04-19T08:07:21.051Z</time></trkpt><trkpt lat="42.1654309" lon="11.7917684"><ele>46.0</ele><time>2026-04-19T08:07:22.042Z</time></trkpt><trkpt lat="42.1654776" lon="11.7919843"><ele>45.66666666666667</ele><time>2026-04-19T08:07:23.071Z</time></trkpt><trkpt lat="42.1655071" lon="11.7922044"><ele>45.333333333333336</ele><time>2026-04-19T08:07:24.047Z</time></trkpt><trkpt lat="42.1655316" lon="11.7924274"><ele>45.0</ele><time>2026-04-19T08:07:25.075Z</time></trkpt><trkpt lat="42.1655562" lon="11.7926474"><ele>45.333333333333336</ele><time>2026-04-19T08:07:26.05Z</time></trkpt><trkpt lat="42.1655811" lon="11.7928613"><ele>45.66666666666667</ele><time>2026-04-19T08:07:27.052Z</time></trkpt><trkpt lat="42.1656059" lon="11.7930708"><ele>46.0</ele><time>2026-04-19T08:07:28.048Z</time></trkpt><trkpt lat="42.1656308" lon="11.7932767"><ele>46.0</ele><time>2026-04-19T08:07:29.046Z</time></trkpt><trkpt lat="42.1656558" lon="11.7934851"><ele>46.0</ele><time>2026-04-19T08:07:30.05Z</time></trkpt><trkpt lat="42.16568" lon="11.7936969"><ele>46.0</ele><time>2026-04-19T08:07:31.051Z</time></trkpt><trkpt lat="42.1657049" lon="11.793913"><ele>47.0</ele><time>2026-04-19T08:07:32.048Z</time></trkpt><trkpt lat="42.1657317" lon="11.7941309"><ele>48.0</ele><time>2026-04-19T08:07:33.042Z</time></trkpt><trkpt lat="42.1657606" lon="11.7943607"><ele>49.0</ele><time>2026-04-19T08:07:34.044Z</time></trkpt><trkpt lat="42.1657894" lon="11.7946044"><ele>49.0</ele><time>2026-04-19T08:07:35.043Z</time></trkpt><trkpt lat="42.1658166" lon="11.7948524"><ele>49.0</ele><time>2026-04-19T08:07:36.039Z</time></trkpt><trkpt lat="42.1658456" lon="11.7951107"><ele>49.0</ele><time>2026-04-19T08:07:37.044Z</time></trkpt><trkpt lat="42.165876" lon="11.7953735"><ele>49.33333333333333</ele><time>2026-04-19T08:07:38.042Z</time></trkpt><trkpt lat="42.1659048" lon="11.7956281"><ele>49.66666666666667</ele><time>2026-04-19T08:07:39.044Z</time></trkpt><trkpt lat="42.1659315" lon="11.7958673"><ele>50.0</ele><time>2026-04-19T08:07:40.041Z</time></trkpt><trkpt lat="42.1659555" lon="11.7960901"><ele>51.333333333333336</ele><time>2026-04-19T08:07:41.044Z</time></trkpt><trkpt lat="42.1659776" lon="11.7963034"><ele>52.66666666666667</ele><time>2026-04-19T08:07:42.039Z</time></trkpt><trkpt lat="42.1660014" lon="11.7965105"><ele>54.0</ele><time>2026-04-19T08:07:43.046Z</time></trkpt><trkpt lat="42.1660248" lon="11.7967068"><ele>55.33333333333333</ele><time>2026-04-19T08:07:44.046Z</time></trkpt><trkpt lat="42.1660417" lon="11.7969097"><ele>56.666666666666664</ele><time>2026-04-19T08:07:45.045Z</time></trkpt><trkpt lat="42.166066" lon="11.7971301"><ele>58.0</ele><time>2026-04-19T08:07:46.049Z</time></trkpt><trkpt lat="42.1660866" lon="11.7973561"><ele>58.0</ele><time>2026-04-19T08:07:47.048Z</time></trkpt><trkpt lat="42.166108" lon="11.7975834"><ele>58.0</ele><time>2026-04-19T08:07:48.052Z</time></trkpt><trkpt lat="42.166132" lon="11.7978134"><ele>58.0</ele><time>2026-04-19T08:07:49.04Z</time></trkpt><trkpt lat="42.1661563" lon="11.7980387"><ele>58.0</ele><time>2026-04-19T08:07:50.043Z</time></trkpt><trkpt lat="42.1661808" lon="11.7982668"><ele>58.0</ele><time>2026-04-19T08:07:51.035Z</time></trkpt><trkpt lat="42.1662061" lon="11.7985005"><ele>58.0</ele><time>2026-04-19T08:07:52.046Z</time></trkpt><trkpt lat="42.166233" lon="11.7987301"><ele>58.666666666666664</ele><time>2026-04-19T08:07:53.042Z</time></trkpt><trkpt lat="42.1662576" lon="11.798964"><ele>59.33333333333333</ele><time>2026-04-19T08:07:54.041Z</time></trkpt><trkpt lat="42.1662872" lon="11.7991888"><ele>60.0</ele><time>2026-04-19T08:07:55.047Z</time></trkpt><trkpt lat="42.1663093" lon="11.799415"><ele>60.25</ele><time>2026-04-19T08:07:56.037Z</time></trkpt><trkpt lat="42.1663264" lon="11.7996298"><ele>60.5</ele><time>2026-04-19T08:07:57.043Z</time></trkpt><trkpt lat="42.166349" lon="11.79981"><ele>60.75</ele><time>2026-04-19T08:07:58.042Z</time></trkpt><trkpt lat="42.1663654" lon="11.7999849"><ele>61.0</ele><time>2026-04-19T08:07:59.05Z</time></trkpt><trkpt lat="42.1663786" lon="11.8001545"><ele>61.0</ele><time>2026-04-19T08:08:00.036Z</time></trkpt><trkpt lat="42.1663942" lon="11.8003272"><ele>61.0</ele><time>2026-04-19T08:08:01.039Z</time></trkpt><trkpt lat="42.1664143" lon="11.8004991"><ele>61.0</ele><time>2026-04-19T08:08:02.053Z</time></trkpt><trkpt lat="42.1664341" lon="11.8006775"><ele>61.0</ele><time>2026-04-19T08:08:03.044Z</time></trkpt><trkpt lat="42.166454" lon="11.8008659"><ele>61.0</ele><time>2026-04-19T08:08:04.049Z</time></trkpt><trkpt lat="42.1664741" lon="11.8010453"><ele>61.0</ele><time>2026-04-19T08:08:05.051Z</time></trkpt><trkpt lat="42.1664984" lon="11.8012234"><ele>61.0</ele><time>2026-04-19T08:08:06.048Z</time></trkpt><trkpt lat="42.1665159" lon="11.8013956"><ele>61.0</ele><time>2026-04-19T08:08:07.045Z</time></trkpt><trkpt lat="42.1665382" lon="11.8015682"><ele>60.8</ele><time>2026-04-19T08:08:08.045Z</time></trkpt><trkpt lat="42.1665562" lon="11.801734"><ele>60.599999999999994</ele><time>2026-04-19T08:08:09.049Z</time></trkpt><trkpt lat="42.1665666" lon="11.8018741"><ele>60.4</ele><time>2026-04-19T08:08:10.039Z</time></trkpt><trkpt lat="42.16659" lon="11.8020061"><ele>60.2</ele><time>2026-04-19T08:08:11.042Z</time></trkpt><trkpt lat="42.1666033" lon="11.8021035"><ele>60.0</ele><time>2026-04-19T08:08:12.033Z</time></trkpt><trkpt lat="42.166661" lon="11.8022439"><ele>61.0</ele><time>2026-04-19T08:08:14.047Z</time></trkpt><trkpt lat="42.1667907" lon="11.8022503"><ele>62.0</ele><time>2026-04-19T08:08:16.038Z</time></trkpt><trkpt lat="42.1668836" lon="11.8022102"><ele>63.0</ele><time>2026-04-19T08:08:17.042Z</time></trkpt><trkpt lat="42.1669973" lon="11.8021664"><ele>64.0</ele><time>2026-04-19T08:08:18.051Z</time></trkpt><trkpt lat="42.167121" lon="11.8021175"><ele>64.0</ele><time>2026-04-19T08:08:19.044Z</time></trkpt><trkpt lat="42.1672602" lon="11.8020578"><ele>64.0</ele><time>2026-04-19T08:08:20.039Z</time></trkpt><trkpt lat="42.167408" lon="11.8019939"><ele>64.0</ele><time>2026-04-19T08:08:21.042Z</time></trkpt><trkpt lat="42.1675634" lon="11.8019293"><ele>62.666666666666664</ele><time>2026-04-19T08:08:22.046Z</time></trkpt><trkpt lat="42.1677199" lon="11.8018626"><ele>61.33333333333333</ele><time>2026-04-19T08:08:23.048Z</time></trkpt><trkpt lat="42.1678773" lon="11.801793"><ele>60.0</ele><time>2026-04-19T08:08:24.045Z</time></trkpt><trkpt lat="42.1680377" lon="11.8017255"><ele>59.0</ele><time>2026-04-19T08:08:25.046Z</time></trkpt><trkpt lat="42.1681994" lon="11.8016544"><ele>58.0</ele><time>2026-04-19T08:08:26.042Z</time></trkpt><trkpt lat="42.168361" lon="11.8015812"><ele>57.0</ele><time>2026-04-19T08:08:27.054Z</time></trkpt><trkpt lat="42.1685216" lon="11.8015115"><ele>57.0</ele><time>2026-04-19T08:08:28.054Z</time></trkpt><trkpt lat="42.1686826" lon="11.8014415"><ele>57.0</ele><time>2026-04-19T08:08:29.053Z</time></trkpt><trkpt lat="42.1688442" lon="11.8013711"><ele>57.0</ele><time>2026-04-19T08:08:30.043Z</time></trkpt><trkpt lat="42.1690075" lon="11.8012989"><ele>58.0</ele><time>2026-04-19T08:08:31.045Z</time></trkpt><trkpt lat="42.169173" lon="11.8012256"><ele>59.0</ele><time>2026-04-19T08:08:32.037Z</time></trkpt><trkpt lat="42.1693423" lon="11.801149"><ele>60.0</ele><time>2026-04-19T08:08:33.035Z</time></trkpt><trkpt lat="42.1695123" lon="11.8010728"><ele>60.0</ele><time>2026-04-19T08:08:34.045Z</time></trkpt><trkpt lat="42.1696807" lon="11.8009959"><ele>60.0</ele><time>2026-04-19T08:08:35.045Z</time></trkpt><trkpt lat="42.1698509" lon="11.8009183"><ele>60.0</ele><time>2026-04-19T08:08:36.043Z</time></trkpt><trkpt lat="42.1700233" lon="11.8008419"><ele>60.0</ele><time>2026-04-19T08:08:37.035Z</time></trkpt><trkpt lat="42.170196" lon="11.8007635"><ele>60.0</ele><time>2026-04-19T08:08:38.045Z</time></trkpt><trkpt lat="42.1703681" lon="11.8006668"><ele>60.0</ele><time>2026-04-19T08:08:39.033Z</time></trkpt><trkpt lat="42.1705361" lon="11.8005558"><ele>60.0</ele><time>2026-04-19T08:08:40.037Z</time></trkpt><trkpt lat="42.1706998" lon="11.8004348"><ele>60.0</ele><time>2026-04-19T08:08:41.039Z</time></trkpt><trkpt lat="42.1708682" lon="11.8003049"><ele>60.0</ele><time>2026-04-19T08:08:42.05Z</time></trkpt><trkpt lat="42.1710435" lon="11.8001746"><ele>59.33333333333333</ele><time>2026-04-19T08:08:43.04Z</time></trkpt><trkpt lat="42.1712233" lon="11.800049"><ele>58.666666666666664</ele><time>2026-04-19T08:08:44.033Z</time></trkpt><trkpt lat="42.171405" lon="11.7999267"><ele>58.0</ele><time>2026-04-19T08:08:45.037Z</time></trkpt><trkpt lat="42.1715891" lon="11.799804"><ele>57.666666666666664</ele><time>2026-04-19T08:08:46.039Z</time></trkpt><trkpt lat="42.1717757" lon="11.7996817"><ele>57.33333333333333</ele><time>2026-04-19T08:08:47.036Z</time></trkpt><trkpt lat="42.1719649" lon="11.7995583"><ele>57.0</ele><time>2026-04-19T08:08:48.031Z</time></trkpt><trkpt lat="42.1721526" lon="11.7994306"><ele>56.66666666666667</ele><time>2026-04-19T08:08:49.033Z</time></trkpt><trkpt lat="42.1723375" lon="11.7993009"><ele>56.333333333333336</ele><time>2026-04-19T08:08:50.038Z</time></trkpt><trkpt lat="42.1725209" lon="11.7991717"><ele>56.0</ele><time>2026-04-19T08:08:51.031Z</time></trkpt><trkpt lat="42.1727043" lon="11.7990427"><ele>56.0</ele><time>2026-04-19T08:08:52.036Z</time></trkpt><trkpt lat="42.1728882" lon="11.7989171"><ele>56.0</ele><time>2026-04-19T08:08:53.035Z</time></trkpt><trkpt lat="42.1730765" lon="11.7987859"><ele>56.0</ele><time>2026-04-19T08:08:54.057Z</time></trkpt><trkpt lat="42.1732666" lon="11.7986555"><ele>56.0</ele><time>2026-04-19T08:08:55.046Z</time></trkpt><trkpt lat="42.1734524" lon="11.7985283"><ele>56.0</ele><time>2026-04-19T08:08:56.035Z</time></trkpt><trkpt lat="42.1736366" lon="11.7983948"><ele>56.0</ele><time>2026-04-19T08:08:57.035Z</time></trkpt><trkpt lat="42.1738171" lon="11.7982614"><ele>56.0</ele><time>2026-04-19T08:08:58.067Z</time></trkpt><trkpt lat="42.1739967" lon="11.7981284"><ele>56.0</ele><time>2026-04-19T08:08:59.039Z</time></trkpt><trkpt lat="42.1741787" lon="11.7979991"><ele>56.0</ele><time>2026-04-19T08:09:00.033Z</time></trkpt><trkpt lat="42.1743616" lon="11.7978688"><ele>56.0</ele><time>2026-04-19T08:09:01.043Z</time></trkpt><trkpt lat="42.1745466" lon="11.7977383"><ele>56.0</ele><time>2026-04-19T08:09:02.034Z</time></trkpt><trkpt lat="42.1747341" lon="11.7976122"><ele>56.0</ele><time>2026-04-19T08:09:03.035Z</time></trkpt><trkpt lat="42.1749201" lon="11.7974829"><ele>56.0</ele><time>2026-04-19T08:09:04.038Z</time></trkpt><trkpt lat="42.1751078" lon="11.7973517"><ele>56.0</ele><time>2026-04-19T08:09:05.045Z</time></trkpt><trkpt lat="42.1752932" lon="11.7972182"><ele>56.0</ele><time>2026-04-19T08:09:06.05Z</time></trkpt><trkpt lat="42.1754806" lon="11.797086"><ele>56.0</ele><time>2026-04-19T08:09:07.049Z</time></trkpt><trkpt lat="42.1756685" lon="11.7969527"><ele>56.0</ele><time>2026-04-19T08:09:08.041Z</time></trkpt><trkpt lat="42.1758529" lon="11.7968227"><ele>56.0</ele><time>2026-04-19T08:09:09.037Z</time></trkpt><trkpt lat="42.1760255" lon="11.7967023"><ele>56.333333333333336</ele><time>2026-04-19T08:09:10.045Z</time></trkpt><trkpt lat="42.1761921" lon="11.7965882"><ele>56.66666666666667</ele><time>2026-04-19T08:09:11.038Z</time></trkpt><trkpt lat="42.1763571" lon="11.7964712"><ele>57.0</ele><time>2026-04-19T08:09:12.049Z</time></trkpt><trkpt lat="42.1765075" lon="11.7963632"><ele>57.33333333333333</ele><time>2026-04-19T08:09:13.048Z</time></trkpt><trkpt lat="42.1766469" lon="11.7962622"><ele>57.666666666666664</ele><time>2026-04-19T08:09:14.052Z</time></trkpt><trkpt lat="42.1767826" lon="11.7961654"><ele>58.0</ele><time>2026-04-19T08:09:15.048Z</time></trkpt><trkpt lat="42.1769182" lon="11.7960672"><ele>58.0</ele><time>2026-04-19T08:09:16.055Z</time></trkpt><trkpt lat="42.177054" lon="11.7959665"><ele>58.0</ele><time>2026-04-19T08:09:17.041Z</time></trkpt><trkpt lat="42.1771865" lon="11.7958629"><ele>58.0</ele><time>2026-04-19T08:09:18.035Z</time></trkpt><trkpt lat="42.1773129" lon="11.7957677"><ele>57.75</ele><time>2026-04-19T08:09:19.037Z</time></trkpt><trkpt lat="42.1774288" lon="11.795678"><ele>57.5</ele><time>2026-04-19T08:09:20.047Z</time></trkpt><trkpt lat="42.1775333" lon="11.7955945"><ele>57.25</ele><time>2026-04-19T08:09:21.046Z</time></trkpt><trkpt lat="42.177631" lon="11.7955265"><ele>57.0</ele><time>2026-04-19T08:09:22.044Z</time></trkpt><trkpt lat="42.1777333" lon="11.7954746"><ele>57.0</ele><time>2026-04-19T08:09:23.044Z</time></trkpt><trkpt lat="42.1778469" lon="11.7954455"><ele>57.0</ele><time>2026-04-19T08:09:24.046Z</time></trkpt><trkpt lat="42.1779695" lon="11.7954419"><ele>57.0</ele><time>2026-04-19T08:09:25.04Z</time></trkpt><trkpt lat="42.1780988" lon="11.7954594"><ele>57.0</ele><time>2026-04-19T08:09:26.044Z</time></trkpt><trkpt lat="42.1782311" lon="11.7954826"><ele>56.5</ele><time>2026-04-19T08:09:27.043Z</time></trkpt><trkpt lat="42.1783615" lon="11.7955098"><ele>56.0</ele><time>2026-04-19T08:09:28.048Z</time></trkpt><trkpt lat="42.1784819" lon="11.7955357"><ele>55.5</ele><time>2026-04-19T08:09:29.036Z</time></trkpt><trkpt lat="42.1785956" lon="11.7955575"><ele>55.0</ele><time>2026-04-19T08:09:30.038Z</time></trkpt><trkpt lat="42.1786992" lon="11.7955717"><ele>54.99999999999999</ele><time>2026-04-19T08:09:31.052Z</time></trkpt><trkpt lat="42.1787919" lon="11.795587"><ele>55.0</ele><time>2026-04-19T08:09:32.039Z</time></trkpt><trkpt lat="42.1788776" lon="11.7956011"><ele>55.0</ele><time>2026-04-19T08:09:33.046Z</time></trkpt><trkpt lat="42.1789553" lon="11.7956127"><ele>55.0</ele><time>2026-04-19T08:09:34.043Z</time></trkpt><trkpt lat="42.1790199" lon="11.795621"><ele>54.99999999999999</ele><time>2026-04-19T08:09:35.042Z</time></trkpt><trkpt lat="42.1791112" lon="11.7956368"><ele>55.0</ele><time>2026-04-19T08:09:37.041Z</time></trkpt><trkpt lat="42.179182" lon="11.7956497"><ele>54.2</ele><time>2026-04-19T08:09:39.048Z</time></trkpt><trkpt lat="42.1792859" lon="11.7956731"><ele>53.4</ele><time>2026-04-19T08:09:41.044Z</time></trkpt><trkpt lat="42.179358" lon="11.7956892"><ele>52.599999999999994</ele><time>2026-04-19T08:09:42.043Z</time></trkpt><trkpt lat="42.1794429" lon="11.7957094"><ele>51.8</ele><time>2026-04-19T08:09:43.05Z</time></trkpt><trkpt lat="42.179539" lon="11.7957307"><ele>51.0</ele><time>2026-04-19T08:09:44.052Z</time></trkpt><trkpt lat="42.1796455" lon="11.7957542"><ele>51.0</ele><time>2026-04-19T08:09:45.048Z</time></trkpt><trkpt lat="42.1797626" lon="11.7957799"><ele>51.0</ele><time>2026-04-19T08:09:46.058Z</time></trkpt><trkpt lat="42.1798939" lon="11.7958053"><ele>51.0</ele><time>2026-04-19T08:09:47.049Z</time></trkpt><trkpt lat="42.1800341" lon="11.7958323"><ele>51.0</ele><time>2026-04-19T08:09:48.049Z</time></trkpt><trkpt lat="42.1801779" lon="11.795856"><ele>48.333333333333336</ele><time>2026-04-19T08:09:49.049Z</time></trkpt><trkpt lat="42.1803266" lon="11.7958817"><ele>45.66666666666667</ele><time>2026-04-19T08:09:50.047Z</time></trkpt><trkpt lat="42.1804825" lon="11.7959103"><ele>43.0</ele><time>2026-04-19T08:09:51.044Z</time></trkpt><trkpt lat="42.180646" lon="11.7959398"><ele>39.66666666666667</ele><time>2026-04-19T08:09:52.049Z</time></trkpt><trkpt lat="42.1808146" lon="11.7959704"><ele>36.333333333333336</ele><time>2026-04-19T08:09:53.05Z</time></trkpt><trkpt lat="42.1809864" lon="11.7959984"><ele>33.0</ele><time>2026-04-19T08:09:54.042Z</time></trkpt><trkpt lat="42.1811639" lon="11.7960217"><ele>32.333333333333336</ele><time>2026-04-19T08:09:55.049Z</time></trkpt><trkpt lat="42.1813465" lon="11.7960427"><ele>31.666666666666668</ele><time>2026-04-19T08:09:56.051Z</time></trkpt><trkpt lat="42.1815311" lon="11.7960619"><ele>31.0</ele><time>2026-04-19T08:09:57.054Z</time></trkpt><trkpt lat="42.1817201" lon="11.7960752"><ele>27.333333333333336</ele><time>2026-04-19T08:09:58.051Z</time></trkpt><trkpt lat="42.181909" lon="11.7960896"><ele>23.666666666666668</ele><time>2026-04-19T08:09:59.056Z</time></trkpt><trkpt lat="42.1820986" lon="11.7961049"><ele>20.0</ele><time>2026-04-19T08:10:00.046Z</time></trkpt><trkpt lat="42.1822895" lon="11.7961186"><ele>18.666666666666668</ele><time>2026-04-19T08:10:01.049Z</time></trkpt><trkpt lat="42.1824802" lon="11.7961316"><ele>17.333333333333332</ele><time>2026-04-19T08:10:02.047Z</time></trkpt><trkpt lat="42.1826731" lon="11.796145"><ele>16.0</ele><time>2026-04-19T08:10:03.053Z</time></trkpt><trkpt lat="42.1828604" lon="11.7961548"><ele>16.0</ele><time>2026-04-19T08:10:04.047Z</time></trkpt><trkpt lat="42.1830447" lon="11.7961521"><ele>16.0</ele><time>2026-04-19T08:10:05.045Z</time></trkpt><trkpt lat="42.1832142" lon="11.7961278"><ele>16.0</ele><time>2026-04-19T08:10:06.039Z</time></trkpt><trkpt lat="42.1833703" lon="11.7960925"><ele>15.25</ele><time>2026-04-19T08:10:07.049Z</time></trkpt><trkpt lat="42.1835117" lon="11.7960545"><ele>14.5</ele><time>2026-04-19T08:10:08.047Z</time></trkpt><trkpt lat="42.1836423" lon="11.7960232"><ele>13.75</ele><time>2026-04-19T08:10:09.038Z</time></trkpt><trkpt lat="42.1837683" lon="11.7960099"><ele>13.0</ele><time>2026-04-19T08:10:10.06Z</time></trkpt><trkpt lat="42.1838965" lon="11.7960218"><ele>12.75</ele><time>2026-04-19T08:10:11.048Z</time></trkpt><trkpt lat="42.1840181" lon="11.7960625"><ele>12.5</ele><time>2026-04-19T08:10:12.039Z</time></trkpt><trkpt lat="42.1841365" lon="11.7961365"><ele>12.25</ele><time>2026-04-19T08:10:13.044Z</time></trkpt><trkpt lat="42.1842483" lon="11.7962248"><ele>12.0</ele><time>2026-04-19T08:10:14.062Z</time></trkpt><trkpt lat="42.1843591" lon="11.7963146"><ele>12.0</ele><time>2026-04-19T08:10:15.048Z</time></trkpt><trkpt lat="42.1844696" lon="11.7964024"><ele>12.0</ele><time>2026-04-19T08:10:16.039Z</time></trkpt><trkpt lat="42.1845718" lon="11.7964827"><ele>12.0</ele><time>2026-04-19T08:10:17.042Z</time></trkpt><trkpt lat="42.18466" lon="11.7965501"><ele>12.0</ele><time>2026-04-19T08:10:18.041Z</time></trkpt><trkpt lat="42.1847338" lon="11.7966015"><ele>12.0</ele><time>2026-04-19T08:10:19.043Z</time></trkpt><trkpt lat="42.1848418" lon="11.7966239"><ele>11.8</ele><time>2026-04-19T08:10:21.045Z</time></trkpt><trkpt lat="42.1849047" lon="11.7965223"><ele>11.6</ele><time>2026-04-19T08:10:23.035Z</time></trkpt><trkpt lat="42.184916" lon="11.7964305"><ele>11.4</ele><time>2026-04-19T08:10:24.039Z</time></trkpt><trkpt lat="42.1849288" lon="11.7963114"><ele>11.200000000000001</ele><time>2026-04-19T08:10:25.044Z</time></trkpt><trkpt lat="42.1849521" lon="11.7961659"><ele>11.0</ele><time>2026-04-19T08:10:26.048Z</time></trkpt><trkpt lat="42.1849884" lon="11.7960287"><ele>11.25</ele><time>2026-04-19T08:10:27.038Z</time></trkpt><trkpt lat="42.1850494" lon="11.7958799"><ele>11.5</ele><time>2026-04-19T08:10:28.041Z</time></trkpt><trkpt lat="42.1851266" lon="11.7957238"><ele>11.75</ele><time>2026-04-19T08:10:29.044Z</time></trkpt><trkpt lat="42.185222" lon="11.7955763"><ele>12.0</ele><time>2026-04-19T08:10:30.038Z</time></trkpt><trkpt lat="42.1853367" lon="11.7954363"><ele>12.0</ele><time>2026-04-19T08:10:31.051Z</time></trkpt><trkpt lat="42.1854628" lon="11.7952998"><ele>12.0</ele><time>2026-04-19T08:10:32.045Z</time></trkpt><trkpt lat="42.1855963" lon="11.795162"><ele>12.0</ele><time>2026-04-19T08:10:33.04Z</time></trkpt><trkpt lat="42.1857329" lon="11.7950212"><ele>13.0</ele><time>2026-04-19T08:10:34.049Z</time></trkpt><trkpt lat="42.1858716" lon="11.7948888"><ele>14.0</ele><time>2026-04-19T08:10:35.05Z</time></trkpt><trkpt lat="42.1859976" lon="11.7947628"><ele>15.0</ele><time>2026-04-19T08:10:36.049Z</time></trkpt><trkpt lat="42.1861133" lon="11.7946352"><ele>15.0</ele><time>2026-04-19T08:10:37.048Z</time></trkpt><trkpt lat="42.1862192" lon="11.7944882"><ele>15.0</ele><time>2026-04-19T08:10:38.049Z</time></trkpt><trkpt lat="42.1863227" lon="11.7943399"><ele>15.0</ele><time>2026-04-19T08:10:39.041Z</time></trkpt><trkpt lat="42.1864137" lon="11.7941666"><ele>13.666666666666666</ele><time>2026-04-19T08:10:40.044Z</time></trkpt><trkpt lat="42.1865163" lon="11.7939899"><ele>12.333333333333332</ele><time>2026-04-19T08:10:41.044Z</time></trkpt><trkpt lat="42.1866184" lon="11.7938096"><ele>11.0</ele><time>2026-04-19T08:10:42.059Z</time></trkpt><trkpt lat="42.1867234" lon="11.7936285"><ele>13.666666666666666</ele><time>2026-04-19T08:10:43.063Z</time></trkpt><trkpt lat="42.1868251" lon="11.7934403"><ele>16.333333333333332</ele><time>2026-04-19T08:10:44.065Z</time></trkpt><trkpt lat="42.1869236" lon="11.7932392"><ele>19.0</ele><time>2026-04-19T08:10:45.046Z</time></trkpt><trkpt lat="42.1870197" lon="11.7930397"><ele>19.0</ele><time>2026-04-19T08:10:46.041Z</time></trkpt><trkpt lat="42.187109" lon="11.7928433"><ele>19.0</ele><time>2026-04-19T08:10:47.043Z</time></trkpt><trkpt lat="42.1871938" lon="11.7926588"><ele>19.0</ele><time>2026-04-19T08:10:48.051Z</time></trkpt><trkpt lat="42.1872708" lon="11.7924826"><ele>16.666666666666664</ele><time>2026-04-19T08:10:49.051Z</time></trkpt><trkpt lat="42.1873536" lon="11.7923008"><ele>14.333333333333332</ele><time>2026-04-19T08:10:50.058Z</time></trkpt><trkpt lat="42.1874403" lon="11.7921143"><ele>12.0</ele><time>2026-04-19T08:10:51.044Z</time></trkpt><trkpt lat="42.1875279" lon="11.7919266"><ele>13.0</ele><time>2026-04-19T08:10:52.049Z</time></trkpt><trkpt lat="42.1876103" lon="11.7917521"><ele>14.0</ele><time>2026-04-19T08:10:53.045Z</time></trkpt><trkpt lat="42.1876881" lon="11.7915929"><ele>15.0</ele><time>2026-04-19T08:10:54.048Z</time></trkpt><trkpt lat="42.1877611" lon="11.7914419"><ele>16.0</ele><time>2026-04-19T08:10:55.039Z</time></trkpt><trkpt lat="42.1878303" lon="11.791296"><ele>16.0</ele><time>2026-04-19T08:10:56.045Z</time></trkpt><trkpt lat="42.187894" lon="11.7911522"><ele>16.0</ele><time>2026-04-19T08:10:57.058Z</time></trkpt><trkpt lat="42.187948" lon="11.7910241"><ele>16.0</ele><time>2026-04-19T08:10:58.052Z</time></trkpt><trkpt lat="42.1879912" lon="11.7909099"><ele>16.0</ele><time>2026-04-19T08:10:59.043Z</time></trkpt><trkpt lat="42.1880274" lon="11.7908148"><ele>16.0</ele><time>2026-04-19T08:11:00.044Z</time></trkpt><trkpt lat="42.1881021" lon="11.7907236"><ele>14.8</ele><time>2026-04-19T08:11:02.05Z</time></trkpt><trkpt lat="42.1881934" lon="11.7907799"><ele>13.600000000000001</ele><time>2026-04-19T08:11:04.047Z</time></trkpt><trkpt lat="42.1882242" lon="11.7908796"><ele>12.4</ele><time>2026-04-19T08:11:05.042Z</time></trkpt><trkpt lat="42.1882477" lon="11.7909989"><ele>11.2</ele><time>2026-04-19T08:11:06.043Z</time></trkpt><trkpt lat="42.1882761" lon="11.791133"><ele>10.0</ele><time>2026-04-19T08:11:07.043Z</time></trkpt><trkpt lat="42.1883315" lon="11.7912662"><ele>9.5</ele><time>2026-04-19T08:11:08.037Z</time></trkpt><trkpt lat="42.1883954" lon="11.7914223"><ele>9.0</ele><time>2026-04-19T08:11:09.045Z</time></trkpt><trkpt lat="42.1884663" lon="11.7915917"><ele>8.5</ele><time>2026-04-19T08:11:10.043Z</time></trkpt><trkpt lat="42.1885426" lon="11.7917763"><ele>8.0</ele><time>2026-04-19T08:11:11.035Z</time></trkpt><trkpt lat="42.1886217" lon="11.7919684"><ele>8.0</ele><time>2026-04-19T08:11:12.042Z</time></trkpt><trkpt lat="42.1887072" lon="11.7921731"><ele>8.0</ele><time>2026-04-19T08:11:13.043Z</time></trkpt><trkpt lat="42.1887954" lon="11.7923881"><ele>8.0</ele><time>2026-04-19T08:11:14.041Z</time></trkpt><trkpt lat="42.1888876" lon="11.792604"><ele>8.0</ele><time>2026-04-19T08:11:15.041Z</time></trkpt><trkpt lat="42.1889781" lon="11.7928231"><ele>8.0</ele><time>2026-04-19T08:11:16.035Z</time></trkpt><trkpt lat="42.1890725" lon="11.7930498"><ele>8.0</ele><time>2026-04-19T08:11:17.049Z</time></trkpt><trkpt lat="42.1891687" lon="11.7932805"><ele>8.333333333333332</ele><time>2026-04-19T08:11:18.049Z</time></trkpt><trkpt lat="42.1892648" lon="11.7935129"><ele>8.666666666666666</ele><time>2026-04-19T08:11:19.043Z</time></trkpt><trkpt lat="42.1893615" lon="11.7937441"><ele>9.0</ele><time>2026-04-19T08:11:20.035Z</time></trkpt><trkpt lat="42.1894584" lon="11.7939709"><ele>9.0</ele><time>2026-04-19T08:11:21.041Z</time></trkpt><trkpt lat="42.1895544" lon="11.7941933"><ele>9.0</ele><time>2026-04-19T08:11:22.038Z</time></trkpt><trkpt lat="42.1896484" lon="11.7944098"><ele>9.0</ele><time>2026-04-19T08:11:23.042Z</time></trkpt><trkpt lat="42.1897408" lon="11.794624"><ele>9.0</ele><time>2026-04-19T08:11:24.04Z</time></trkpt><trkpt lat="42.189829" lon="11.7948335"><ele>9.0</ele><time>2026-04-19T08:11:25.038Z</time></trkpt><trkpt lat="42.189909" lon="11.7950314"><ele>9.0</ele><time>2026-04-19T08:11:26.039Z</time></trkpt><trkpt lat="42.189976" lon="11.7952204"><ele>9.25</ele><time>2026-04-19T08:11:27.044Z</time></trkpt><trkpt lat="42.1900206" lon="11.7954108"><ele>9.5</ele><time>2026-04-19T08:11:28.041Z</time></trkpt><trkpt lat="42.1900322" lon="11.7956094"><ele>9.75</ele><time>2026-04-19T08:11:29.035Z</time></trkpt><trkpt lat="42.1900079" lon="11.7957988"><ele>10.0</ele><time>2026-04-19T08:11:30.038Z</time></trkpt><trkpt lat="42.1899463" lon="11.7959774"><ele>10.333333333333334</ele><time>2026-04-19T08:11:31.045Z</time></trkpt><trkpt lat="42.1898565" lon="11.7961376"><ele>10.666666666666666</ele><time>2026-04-19T08:11:32.037Z</time></trkpt><trkpt lat="42.1897474" lon="11.7962874"><ele>11.0</ele><time>2026-04-19T08:11:33.034Z</time></trkpt><trkpt lat="42.1896259" lon="11.7964426"><ele>11.0</ele><time>2026-04-19T08:11:34.044Z</time></trkpt><trkpt lat="42.1894973" lon="11.7966056"><ele>11.0</ele><time>2026-04-19T08:11:35.04Z</time></trkpt><trkpt lat="42.1893637" lon="11.7967778"><ele>11.0</ele><time>2026-04-19T08:11:36.043Z</time></trkpt><trkpt lat="42.1892294" lon="11.7969552"><ele>11.666666666666666</ele><time>2026-04-19T08:11:37.034Z</time></trkpt><trkpt lat="42.189096" lon="11.7971306"><ele>12.333333333333332</ele><time>2026-04-19T08:11:38.053Z</time></trkpt><trkpt lat="42.1889648" lon="11.7973059"><ele>13.0</ele><time>2026-04-19T08:11:39.042Z</time></trkpt><trkpt lat="42.188833" lon="11.7974901"><ele>14.333333333333332</ele><time>2026-04-19T08:11:40.041Z</time></trkpt><trkpt lat="42.1887165" lon="11.7976882"><ele>15.666666666666668</ele><time>2026-04-19T08:11:41.041Z</time></trkpt><trkpt lat="42.1886107" lon="11.7978964"><ele>17.0</ele><time>2026-04-19T08:11:42.041Z</time></trkpt><trkpt lat="42.1885106" lon="11.7981157"><ele>17.0</ele><time>2026-04-19T08:11:43.04Z</time></trkpt><trkpt lat="42.18841" lon="11.7983412"><ele>17.0</ele><time>2026-04-19T08:11:44.04Z</time></trkpt><trkpt lat="42.1883122" lon="11.798557"><ele>17.0</ele><time>2026-04-19T08:11:45.041Z</time></trkpt><trkpt lat="42.188219" lon="11.798769"><ele>16.0</ele><time>2026-04-19T08:11:46.046Z</time></trkpt><trkpt lat="42.1881242" lon="11.7989837"><ele>15.0</ele><time>2026-04-19T08:11:47.038Z</time></trkpt><trkpt lat="42.1880251" lon="11.7992032"><ele>14.0</ele><time>2026-04-19T08:11:48.044Z</time></trkpt><trkpt lat="42.1879242" lon="11.7994254"><ele>14.0</ele><time>2026-04-19T08:11:49.043Z</time></trkpt><trkpt lat="42.1878219" lon="11.7996506"><ele>14.0</ele><time>2026-04-19T08:11:50.042Z</time></trkpt><trkpt lat="42.1877239" lon="11.7998759"><ele>14.0</ele><time>2026-04-19T08:11:51.039Z</time></trkpt><trkpt lat="42.187627" lon="11.8001014"><ele>14.333333333333334</ele><time>2026-04-19T08:11:52.038Z</time></trkpt><trkpt lat="42.1875274" lon="11.8003265"><ele>14.666666666666668</ele><time>2026-04-19T08:11:53.045Z</time></trkpt><trkpt lat="42.1874261" lon="11.8005481"><ele>15.0</ele><time>2026-04-19T08:11:54.039Z</time></trkpt><trkpt lat="42.1873219" lon="11.8007649"><ele>14.333333333333332</ele><time>2026-04-19T08:11:55.038Z</time></trkpt><trkpt lat="42.1872206" lon="11.8009784"><ele>13.666666666666666</ele><time>2026-04-19T08:11:56.065Z</time></trkpt><trkpt lat="42.1871259" lon="11.8011847"><ele>13.0</ele><time>2026-04-19T08:11:57.04Z</time></trkpt><trkpt lat="42.1870391" lon="11.8013816"><ele>13.0</ele><time>2026-04-19T08:11:58.038Z</time></trkpt><trkpt lat="42.1869636" lon="11.8015764"><ele>13.0</ele><time>2026-04-19T08:11:59.04Z</time></trkpt><trkpt lat="42.1869006" lon="11.8017722"><ele>13.0</ele><time>2026-04-19T08:12:00.04Z</time></trkpt><trkpt lat="42.1868491" lon="11.801979"><ele>13.666666666666666</ele><time>2026-04-19T08:12:01.055Z</time></trkpt><trkpt lat="42.1868117" lon="11.8021925"><ele>14.333333333333332</ele><time>2026-04-19T08:12:02.044Z</time></trkpt><trkpt lat="42.1867931" lon="11.8024004"><ele>15.0</ele><time>2026-04-19T08:12:03.039Z</time></trkpt><trkpt lat="42.186801" lon="11.8026014"><ele>15.0</ele><time>2026-04-19T08:12:04.036Z</time></trkpt><trkpt lat="42.1868362" lon="11.8028028"><ele>15.0</ele><time>2026-04-19T08:12:05.042Z</time></trkpt><trkpt lat="42.1868889" lon="11.8030056"><ele>15.0</ele><time>2026-04-19T08:12:06.043Z</time></trkpt><trkpt lat="42.186945" lon="11.8032059"><ele>15.0</ele><time>2026-04-19T08:12:07.033Z</time></trkpt><trkpt lat="42.1869931" lon="11.8034178"><ele>15.0</ele><time>2026-04-19T08:12:08.039Z</time></trkpt><trkpt lat="42.1870359" lon="11.8036423"><ele>15.0</ele><time>2026-04-19T08:12:09.045Z</time></trkpt><trkpt lat="42.1870649" lon="11.8038781"><ele>15.0</ele><time>2026-04-19T08:12:10.063Z</time></trkpt><trkpt lat="42.1870777" lon="11.8041204"><ele>15.0</ele><time>2026-04-19T08:12:11.041Z</time></trkpt><trkpt lat="42.1870912" lon="11.8043686"><ele>15.0</ele><time>2026-04-19T08:12:12.043Z</time></trkpt><trkpt lat="42.1871014" lon="11.8046222"><ele>15.333333333333332</ele><time>2026-04-19T08:12:13.041Z</time></trkpt><trkpt lat="42.187114" lon="11.8048719"><ele>15.666666666666666</ele><time>2026-04-19T08:12:14.036Z</time></trkpt><trkpt lat="42.1871278" lon="11.8051234"><ele>16.0</ele><time>2026-04-19T08:12:15.049Z</time></trkpt><trkpt lat="42.1871417" lon="11.8053779"><ele>16.0</ele><time>2026-04-19T08:12:16.038Z</time></trkpt><trkpt lat="42.1871544" lon="11.8056304"><ele>16.0</ele><time>2026-04-19T08:12:17.037Z</time></trkpt><trkpt lat="42.1871673" lon="11.8058827"><ele>16.0</ele><time>2026-04-19T08:12:18.034Z</time></trkpt><trkpt lat="42.1871797" lon="11.8061336"><ele>16.0</ele><time>2026-04-19T08:12:19.043Z</time></trkpt><trkpt lat="42.1871907" lon="11.8063851"><ele>16.0</ele><time>2026-04-19T08:12:20.041Z</time></trkpt><trkpt lat="42.1872039" lon="11.806635"><ele>16.0</ele><time>2026-04-19T08:12:21.03Z</time></trkpt><trkpt lat="42.1872178" lon="11.8068829"><ele>15.666666666666666</ele><time>2026-04-19T08:12:22.038Z</time></trkpt><trkpt lat="42.1872317" lon="11.8071318"><ele>15.333333333333332</ele><time>2026-04-19T08:12:23.039Z</time></trkpt><trkpt lat="42.1872439" lon="11.807379"><ele>15.0</ele><time>2026-04-19T08:12:24.04Z</time></trkpt><trkpt lat="42.1872551" lon="11.8076296"><ele>15.666666666666668</ele><time>2026-04-19T08:12:25.049Z</time></trkpt><trkpt lat="42.1872669" lon="11.8078806"><ele>16.333333333333336</ele><time>2026-04-19T08:12:26.035Z</time></trkpt><trkpt lat="42.1872774" lon="11.8081186"><ele>17.0</ele><time>2026-04-19T08:12:27.042Z</time></trkpt><trkpt lat="42.1872877" lon="11.8083552"><ele>17.0</ele><time>2026-04-19T08:12:28.042Z</time></trkpt><trkpt lat="42.1872999" lon="11.8085969"><ele>17.0</ele><time>2026-04-19T08:12:29.036Z</time></trkpt><trkpt lat="42.1873148" lon="11.8088415"><ele>17.0</ele><time>2026-04-19T08:12:30.038Z</time></trkpt><trkpt lat="42.1873361" lon="11.8090866"><ele>18.666666666666668</ele><time>2026-04-19T08:12:31.049Z</time></trkpt><trkpt lat="42.1873663" lon="11.8093349"><ele>20.333333333333332</ele><time>2026-04-19T08:12:32.032Z</time></trkpt><trkpt lat="42.1874026" lon="11.8095859"><ele>22.0</ele><time>2026-04-19T08:12:33.039Z</time></trkpt><trkpt lat="42.1874408" lon="11.8098384"><ele>22.0</ele><time>2026-04-19T08:12:34.034Z</time></trkpt><trkpt lat="42.1874773" lon="11.810089"><ele>22.0</ele><time>2026-04-19T08:12:35.034Z</time></trkpt><trkpt lat="42.1875127" lon="11.8103392"><ele>22.0</ele><time>2026-04-19T08:12:36.043Z</time></trkpt><trkpt lat="42.1875491" lon="11.8105882"><ele>21.333333333333332</ele><time>2026-04-19T08:12:37.038Z</time></trkpt><trkpt lat="42.1875852" lon="11.8108329"><ele>20.666666666666668</ele><time>2026-04-19T08:12:38.036Z</time></trkpt><trkpt lat="42.1876194" lon="11.8110744"><ele>20.0</ele><time>2026-04-19T08:12:39.046Z</time></trkpt><trkpt lat="42.1876533" lon="11.8113131"><ele>19.666666666666668</ele><time>2026-04-19T08:12:40.039Z</time></trkpt><trkpt lat="42.1876882" lon="11.8115501"><ele>19.333333333333332</ele><time>2026-04-19T08:12:41.036Z</time></trkpt><trkpt lat="42.1877228" lon="11.8117864"><ele>19.0</ele><time>2026-04-19T08:12:42.04Z</time></trkpt><trkpt lat="42.1877582" lon="11.812023"><ele>18.666666666666664</ele><time>2026-04-19T08:12:43.043Z</time></trkpt><trkpt lat="42.1877947" lon="11.8122616"><ele>18.333333333333332</ele><time>2026-04-19T08:12:44.061Z</time></trkpt><trkpt lat="42.1878313" lon="11.8125019"><ele>18.0</ele><time>2026-04-19T08:12:45.041Z</time></trkpt><trkpt lat="42.1878669" lon="11.8127443"><ele>18.666666666666668</ele><time>2026-04-19T08:12:46.038Z</time></trkpt><trkpt lat="42.1879026" lon="11.812988"><ele>19.333333333333336</ele><time>2026-04-19T08:12:47.036Z</time></trkpt><trkpt lat="42.1879385" lon="11.8132312"><ele>20.0</ele><time>2026-04-19T08:12:48.039Z</time></trkpt><trkpt lat="42.1879733" lon="11.8134734"><ele>20.0</ele><time>2026-04-19T08:12:49.038Z</time></trkpt><trkpt lat="42.1880076" lon="11.813715"><ele>20.0</ele><time>2026-04-19T08:12:50.05Z</time></trkpt><trkpt lat="42.188043" lon="11.8139573"><ele>20.0</ele><time>2026-04-19T08:12:51.04Z</time></trkpt><trkpt lat="42.188079" lon="11.8142016"><ele>20.333333333333336</ele><time>2026-04-19T08:12:52.049Z</time></trkpt><trkpt lat="42.1881161" lon="11.8144461"><ele>20.666666666666668</ele><time>2026-04-19T08:12:53.051Z</time></trkpt><trkpt lat="42.1881527" lon="11.8146896"><ele>21.0</ele><time>2026-04-19T08:12:54.054Z</time></trkpt><trkpt lat="42.1881865" lon="11.814926"><ele>22.333333333333336</ele><time>2026-04-19T08:12:55.044Z</time></trkpt><trkpt lat="42.1882168" lon="11.8151457"><ele>23.666666666666668</ele><time>2026-04-19T08:12:56.05Z</time></trkpt><trkpt lat="42.1882428" lon="11.8153614"><ele>25.0</ele><time>2026-04-19T08:12:57.041Z</time></trkpt><trkpt lat="42.1882618" lon="11.8155825"><ele>25.0</ele><time>2026-04-19T08:12:58.052Z</time></trkpt><trkpt lat="42.188273" lon="11.81581"><ele>25.0</ele><time>2026-04-19T08:12:59.036Z</time></trkpt><trkpt lat="42.1882794" lon="11.8160357"><ele>25.0</ele><time>2026-04-19T08:13:00.058Z</time></trkpt><trkpt lat="42.1882812" lon="11.816247"><ele>25.25</ele><time>2026-04-19T08:13:01.051Z</time></trkpt><trkpt lat="42.1882795" lon="11.8164402"><ele>25.5</ele><time>2026-04-19T08:13:02.049Z</time></trkpt><trkpt lat="42.1882773" lon="11.8166224"><ele>25.75</ele><time>2026-04-19T08:13:03.073Z</time></trkpt><trkpt lat="42.188277" lon="11.8167941"><ele>26.0</ele><time>2026-04-19T08:13:04.044Z</time></trkpt><trkpt lat="42.188279" lon="11.8169594"><ele>26.25</ele><time>2026-04-19T08:13:05.042Z</time></trkpt><trkpt lat="42.1882801" lon="11.8171243"><ele>26.5</ele><time>2026-04-19T08:13:06.041Z</time></trkpt><trkpt lat="42.1882846" lon="11.8172793"><ele>26.75</ele><time>2026-04-19T08:13:07.039Z</time></trkpt><trkpt lat="42.188283" lon="11.8174397"><ele>27.0</ele><time>2026-04-19T08:13:08.046Z</time></trkpt><trkpt lat="42.1882831" lon="11.8176029"><ele>27.200000000000003</ele><time>2026-04-19T08:13:09.05Z</time></trkpt><trkpt lat="42.1882796" lon="11.8177581"><ele>27.400000000000002</ele><time>2026-04-19T08:13:10.049Z</time></trkpt><trkpt lat="42.1882774" lon="11.8179039"><ele>27.599999999999998</ele><time>2026-04-19T08:13:11.04Z</time></trkpt><trkpt lat="42.188275" lon="11.8180337"><ele>27.799999999999997</ele><time>2026-04-19T08:13:12.037Z</time></trkpt><trkpt lat="42.1882734" lon="11.8181501"><ele>28.0</ele><time>2026-04-19T08:13:13.041Z</time></trkpt><trkpt lat="42.188271" lon="11.8182541"><ele>28.0</ele><time>2026-04-19T08:13:14.039Z</time></trkpt><trkpt lat="42.1882714" lon="11.8183399"><ele>27.999999999999996</ele><time>2026-04-19T08:13:15.044Z</time></trkpt><trkpt lat="42.1882727" lon="11.8184617"><ele>27.999999999999996</ele><time>2026-04-19T08:13:17.047Z</time></trkpt><trkpt lat="42.1882696" lon="11.8186479"><ele>28.0</ele><time>2026-04-19T08:13:57.046Z</time></trkpt><trkpt lat="42.1882741" lon="11.818781"><ele>28.0</ele><time>2026-04-19T08:13:59.051Z</time></trkpt><trkpt lat="42.1882731" lon="11.8188666"><ele>27.799999999999997</ele><time>2026-04-19T08:14:00.046Z</time></trkpt><trkpt lat="42.1882677" lon="11.8189703"><ele>27.599999999999998</ele><time>2026-04-19T08:14:01.046Z</time></trkpt><trkpt lat="42.1882486" lon="11.8190861"><ele>27.400000000000002</ele><time>2026-04-19T08:14:02.042Z</time></trkpt><trkpt lat="42.1882138" lon="11.8191966"><ele>27.200000000000003</ele><time>2026-04-19T08:14:03.047Z</time></trkpt><trkpt lat="42.1881557" lon="11.81931"><ele>27.0</ele><time>2026-04-19T08:14:04.047Z</time></trkpt><trkpt lat="42.1880733" lon="11.8194164"><ele>26.5</ele><time>2026-04-19T08:14:05.041Z</time></trkpt><trkpt lat="42.1879748" lon="11.8195023"><ele>26.0</ele><time>2026-04-19T08:14:06.044Z</time></trkpt><trkpt lat="42.1878595" lon="11.8195769"><ele>25.5</ele><time>2026-04-19T08:14:07.064Z</time></trkpt><trkpt lat="42.1877327" lon="11.8196508"><ele>25.0</ele><time>2026-04-19T08:14:08.055Z</time></trkpt><trkpt lat="42.1875988" lon="11.8197333"><ele>25.0</ele><time>2026-04-19T08:14:09.04Z</time></trkpt><trkpt lat="42.1874626" lon="11.8198207"><ele>25.0</ele><time>2026-04-19T08:14:10.045Z</time></trkpt><trkpt lat="42.1873248" lon="11.8199068"><ele>25.0</ele><time>2026-04-19T08:14:11.046Z</time></trkpt><trkpt lat="42.1871811" lon="11.8199952"><ele>25.0</ele><time>2026-04-19T08:14:12.044Z</time></trkpt><trkpt lat="42.1870344" lon="11.8200858"><ele>25.0</ele><time>2026-04-19T08:14:13.054Z</time></trkpt><trkpt lat="42.1868869" lon="11.8201782"><ele>25.0</ele><time>2026-04-19T08:14:14.062Z</time></trkpt><trkpt lat="42.1867372" lon="11.8202714"><ele>25.0</ele><time>2026-04-19T08:14:15.042Z</time></trkpt><trkpt lat="42.1865886" lon="11.8203668"><ele>25.0</ele><time>2026-04-19T08:14:16.042Z</time></trkpt><trkpt lat="42.1864398" lon="11.8204641"><ele>25.0</ele><time>2026-04-19T08:14:17.049Z</time></trkpt><trkpt lat="42.1862895" lon="11.8205603"><ele>24.333333333333336</ele><time>2026-04-19T08:14:18.037Z</time></trkpt><trkpt lat="42.1861371" lon="11.8206552"><ele>23.666666666666668</ele><time>2026-04-19T08:14:19.038Z</time></trkpt><trkpt lat="42.1859853" lon="11.8207511"><ele>23.0</ele><time>2026-04-19T08:14:20.043Z</time></trkpt><trkpt lat="42.1858338" lon="11.8208452"><ele>23.0</ele><time>2026-04-19T08:14:21.046Z</time></trkpt><trkpt lat="42.1856832" lon="11.8209341"><ele>23.0</ele><time>2026-04-19T08:14:22.04Z</time></trkpt><trkpt lat="42.1855371" lon="11.8210239"><ele>23.0</ele><time>2026-04-19T08:14:23.037Z</time></trkpt><trkpt lat="42.1853983" lon="11.8211116"><ele>23.5</ele><time>2026-04-19T08:14:24.04Z</time></trkpt><trkpt lat="42.1852702" lon="11.8211922"><ele>24.0</ele><time>2026-04-19T08:14:25.05Z</time></trkpt><trkpt lat="42.1851535" lon="11.8212707"><ele>24.5</ele><time>2026-04-19T08:14:26.037Z</time></trkpt><trkpt lat="42.1850464" lon="11.8213622"><ele>25.0</ele><time>2026-04-19T08:14:27.043Z</time></trkpt><trkpt lat="42.1849551" lon="11.8214666"><ele>25.0</ele><time>2026-04-19T08:14:28.045Z</time></trkpt><trkpt lat="42.1848797" lon="11.8215866"><ele>25.0</ele><time>2026-04-19T08:14:29.041Z</time></trkpt><trkpt lat="42.1848211" lon="11.8217268"><ele>25.0</ele><time>2026-04-19T08:14:30.038Z</time></trkpt><trkpt lat="42.1847822" lon="11.8218832"><ele>25.0</ele><time>2026-04-19T08:14:31.048Z</time></trkpt><trkpt lat="42.1847633" lon="11.8220566"><ele>26.25</ele><time>2026-04-19T08:14:32.048Z</time></trkpt><trkpt lat="42.184755" lon="11.8222393"><ele>27.5</ele><time>2026-04-19T08:14:33.034Z</time></trkpt><trkpt lat="42.1847518" lon="11.8224368"><ele>28.75</ele><time>2026-04-19T08:14:34.043Z</time></trkpt><trkpt lat="42.1847524" lon="11.8226465"><ele>30.0</ele><time>2026-04-19T08:14:35.043Z</time></trkpt><trkpt lat="42.1847542" lon="11.8228582"><ele>32.666666666666664</ele><time>2026-04-19T08:14:36.042Z</time></trkpt><trkpt lat="42.1847553" lon="11.8230766"><ele>35.33333333333333</ele><time>2026-04-19T08:14:37.037Z</time></trkpt><trkpt lat="42.1847584" lon="11.8232992"><ele>38.0</ele><time>2026-04-19T08:14:38.039Z</time></trkpt><trkpt lat="42.1847619" lon="11.8235164"><ele>39.5</ele><time>2026-04-19T08:14:39.041Z</time></trkpt><trkpt lat="42.1847626" lon="11.8237195"><ele>41.0</ele><time>2026-04-19T08:14:40.048Z</time></trkpt><trkpt lat="42.1847595" lon="11.82391"><ele>42.5</ele><time>2026-04-19T08:14:41.048Z</time></trkpt><trkpt lat="42.1847561" lon="11.8241015"><ele>44.0</ele><time>2026-04-19T08:14:42.045Z</time></trkpt><trkpt lat="42.1847546" lon="11.8243005"><ele>44.666666666666664</ele><time>2026-04-19T08:14:43.052Z</time></trkpt><trkpt lat="42.1847595" lon="11.8245098"><ele>45.333333333333336</ele><time>2026-04-19T08:14:44.038Z</time></trkpt><trkpt lat="42.1847641" lon="11.8247154"><ele>46.0</ele><time>2026-04-19T08:14:45.038Z</time></trkpt><trkpt lat="42.1847688" lon="11.8249331"><ele>45.66666666666667</ele><time>2026-04-19T08:14:46.039Z</time></trkpt><trkpt lat="42.1847661" lon="11.8251488"><ele>45.333333333333336</ele><time>2026-04-19T08:14:47.042Z</time></trkpt><trkpt lat="42.184767" lon="11.8253638"><ele>45.0</ele><time>2026-04-19T08:14:48.036Z</time></trkpt><trkpt lat="42.1847718" lon="11.8255727"><ele>45.0</ele><time>2026-04-19T08:14:49.038Z</time></trkpt><trkpt lat="42.1847766" lon="11.8257798"><ele>45.0</ele><time>2026-04-19T08:14:50.033Z</time></trkpt><trkpt lat="42.1847763" lon="11.825983"><ele>45.0</ele><time>2026-04-19T08:14:51.037Z</time></trkpt><trkpt lat="42.1847743" lon="11.8261921"><ele>43.0</ele><time>2026-04-19T08:14:52.034Z</time></trkpt><trkpt lat="42.1847758" lon="11.8264058"><ele>41.0</ele><time>2026-04-19T08:14:53.039Z</time></trkpt><trkpt lat="42.1847787" lon="11.8266202"><ele>39.0</ele><time>2026-04-19T08:14:54.033Z</time></trkpt><trkpt lat="42.1847799" lon="11.8268354"><ele>38.0</ele><time>2026-04-19T08:14:55.044Z</time></trkpt><trkpt lat="42.1847817" lon="11.8270511"><ele>37.0</ele><time>2026-04-19T08:14:56.03Z</time></trkpt><trkpt lat="42.1847836" lon="11.8272645"><ele>36.0</ele><time>2026-04-19T08:14:57.04Z</time></trkpt><trkpt lat="42.1847856" lon="11.8274768"><ele>35.666666666666664</ele><time>2026-04-19T08:14:58.035Z</time></trkpt><trkpt lat="42.1847878" lon="11.8276866"><ele>35.33333333333333</ele><time>2026-04-19T08:14:59.039Z</time></trkpt><trkpt lat="42.1847892" lon="11.8278932"><ele>35.0</ele><time>2026-04-19T08:15:00.038Z</time></trkpt><trkpt lat="42.1847904" lon="11.8281013"><ele>35.0</ele><time>2026-04-19T08:15:01.04Z</time></trkpt><trkpt lat="42.1847909" lon="11.8283124"><ele>35.0</ele><time>2026-04-19T08:15:02.04Z</time></trkpt><trkpt lat="42.1847892" lon="11.8285238"><ele>35.0</ele><time>2026-04-19T08:15:03.038Z</time></trkpt><trkpt lat="42.1847884" lon="11.8287342"><ele>35.33333333333333</ele><time>2026-04-19T08:15:04.048Z</time></trkpt><trkpt lat="42.1847886" lon="11.8289442"><ele>35.666666666666664</ele><time>2026-04-19T08:15:05.042Z</time></trkpt><trkpt lat="42.1847902" lon="11.8291523"><ele>36.0</ele><time>2026-04-19T08:15:06.037Z</time></trkpt><trkpt lat="42.1847908" lon="11.829346"><ele>36.5</ele><time>2026-04-19T08:15:07.042Z</time></trkpt><trkpt lat="42.1847907" lon="11.8295356"><ele>37.0</ele><time>2026-04-19T08:15:08.038Z</time></trkpt><trkpt lat="42.184792" lon="11.8297281"><ele>37.5</ele><time>2026-04-19T08:15:09.034Z</time></trkpt><trkpt lat="42.1847933" lon="11.8299218"><ele>38.0</ele><time>2026-04-19T08:15:10.042Z</time></trkpt><trkpt lat="42.1847942" lon="11.8301078"><ele>36.75</ele><time>2026-04-19T08:15:11.043Z</time></trkpt><trkpt lat="42.1848022" lon="11.8302801"><ele>35.5</ele><time>2026-04-19T08:15:12.043Z</time></trkpt><trkpt lat="42.1848216" lon="11.8304435"><ele>34.25</ele><time>2026-04-19T08:15:13.036Z</time></trkpt><trkpt lat="42.1848559" lon="11.8306017"><ele>33.0</ele><time>2026-04-19T08:15:14.035Z</time></trkpt><trkpt lat="42.184904" lon="11.8307565"><ele>33.0</ele><time>2026-04-19T08:15:15.05Z</time></trkpt><trkpt lat="42.1849562" lon="11.8309137"><ele>33.0</ele><time>2026-04-19T08:15:16.04Z</time></trkpt><trkpt lat="42.1850336" lon="11.8310671"><ele>33.0</ele><time>2026-04-19T08:15:17.049Z</time></trkpt><trkpt lat="42.1851137" lon="11.831212"><ele>33.0</ele><time>2026-04-19T08:15:18.033Z</time></trkpt><trkpt lat="42.1851953" lon="11.8313539"><ele>35.0</ele><time>2026-04-19T08:15:19.047Z</time></trkpt><trkpt lat="42.1852797" lon="11.8314948"><ele>37.0</ele><time>2026-04-19T08:15:20.038Z</time></trkpt><trkpt lat="42.185364" lon="11.8316294"><ele>39.0</ele><time>2026-04-19T08:15:21.035Z</time></trkpt><trkpt lat="42.1854455" lon="11.8317732"><ele>41.0</ele><time>2026-04-19T08:15:22.039Z</time></trkpt><trkpt lat="42.1855308" lon="11.8319224"><ele>39.5</ele><time>2026-04-19T08:15:23.05Z</time></trkpt><trkpt lat="42.1856099" lon="11.8320683"><ele>38.0</ele><time>2026-04-19T08:15:24.039Z</time></trkpt><trkpt lat="42.1856839" lon="11.8322085"><ele>36.5</ele><time>2026-04-19T08:15:25.036Z</time></trkpt><trkpt lat="42.1857597" lon="11.8323428"><ele>35.0</ele><time>2026-04-19T08:15:26.041Z</time></trkpt><trkpt lat="42.1858372" lon="11.8324722"><ele>35.0</ele><time>2026-04-19T08:15:27.049Z</time></trkpt><trkpt lat="42.1859149" lon="11.8326051"><ele>35.0</ele><time>2026-04-19T08:15:28.041Z</time></trkpt><trkpt lat="42.1859966" lon="11.8327377"><ele>35.0</ele><time>2026-04-19T08:15:29.047Z</time></trkpt><trkpt lat="42.1860652" lon="11.8328731"><ele>35.0</ele><time>2026-04-19T08:15:30.032Z</time></trkpt><trkpt lat="42.1861434" lon="11.8330115"><ele>35.75</ele><time>2026-04-19T08:15:31.038Z</time></trkpt><trkpt lat="42.1862221" lon="11.8331482"><ele>36.5</ele><time>2026-04-19T08:15:32.029Z</time></trkpt><trkpt lat="42.186303" lon="11.8332908"><ele>37.25</ele><time>2026-04-19T08:15:33.054Z</time></trkpt><trkpt lat="42.1863859" lon="11.8334363"><ele>38.0</ele><time>2026-04-19T08:15:34.04Z</time></trkpt><trkpt lat="42.1864687" lon="11.8335877"><ele>37.25</ele><time>2026-04-19T08:15:35.044Z</time></trkpt><trkpt lat="42.1865512" lon="11.833743"><ele>36.5</ele><time>2026-04-19T08:15:36.042Z</time></trkpt><trkpt lat="42.1866341" lon="11.8338973"><ele>35.75</ele><time>2026-04-19T08:15:37.045Z</time></trkpt><trkpt lat="42.1867189" lon="11.8340576"><ele>35.0</ele><time>2026-04-19T08:15:38.043Z</time></trkpt><trkpt lat="42.1868048" lon="11.8342209"><ele>36.0</ele><time>2026-04-19T08:15:39.039Z</time></trkpt><trkpt lat="42.1868921" lon="11.8343871"><ele>37.0</ele><time>2026-04-19T08:15:40.044Z</time></trkpt><trkpt lat="42.1869696" lon="11.8345465"><ele>38.0</ele><time>2026-04-19T08:15:41.036Z</time></trkpt><trkpt lat="42.1870408" lon="11.8347006"><ele>39.0</ele><time>2026-04-19T08:15:42.039Z</time></trkpt><trkpt lat="42.1871177" lon="11.8348451"><ele>39.0</ele><time>2026-04-19T08:15:43.052Z</time></trkpt><trkpt lat="42.1871974" lon="11.834986"><ele>39.0</ele><time>2026-04-19T08:15:44.033Z</time></trkpt><trkpt lat="42.1872813" lon="11.8351306"><ele>39.0</ele><time>2026-04-19T08:15:45.042Z</time></trkpt><trkpt lat="42.1873672" lon="11.8352756"><ele>39.0</ele><time>2026-04-19T08:15:46.037Z</time></trkpt><trkpt lat="42.1874558" lon="11.8354252"><ele>38.5</ele><time>2026-04-19T08:15:47.033Z</time></trkpt><trkpt lat="42.1875439" lon="11.835576"><ele>38.0</ele><time>2026-04-19T08:15:48.043Z</time></trkpt><trkpt lat="42.1876296" lon="11.8357281"><ele>37.5</ele><time>2026-04-19T08:15:49.04Z</time></trkpt><trkpt lat="42.187712" lon="11.8358794"><ele>37.0</ele><time>2026-04-19T08:15:50.037Z</time></trkpt><trkpt lat="42.1877925" lon="11.8360273"><ele>37.0</ele><time>2026-04-19T08:15:51.045Z</time></trkpt><trkpt lat="42.1878706" lon="11.8361689"><ele>37.0</ele><time>2026-04-19T08:15:52.05Z</time></trkpt><trkpt lat="42.1879452" lon="11.836307"><ele>37.0</ele><time>2026-04-19T08:15:53.044Z</time></trkpt><trkpt lat="42.1880134" lon="11.8364474"><ele>37.0</ele><time>2026-04-19T08:15:54.041Z</time></trkpt><trkpt lat="42.1880671" lon="11.8365887"><ele>37.0</ele><time>2026-04-19T08:15:55.051Z</time></trkpt><trkpt lat="42.1881005" lon="11.8367282"><ele>37.0</ele><time>2026-04-19T08:15:56.047Z</time></trkpt><trkpt lat="42.1881152" lon="11.8368596"><ele>37.0</ele><time>2026-04-19T08:15:57.053Z</time></trkpt><trkpt lat="42.1881113" lon="11.8369887"><ele>37.0</ele><time>2026-04-19T08:15:58.044Z</time></trkpt><trkpt lat="42.188089" lon="11.8371173"><ele>37.0</ele><time>2026-04-19T08:15:59.047Z</time></trkpt><trkpt lat="42.1880487" lon="11.8372446"><ele>37.25</ele><time>2026-04-19T08:16:00.05Z</time></trkpt><trkpt lat="42.1879851" lon="11.837369"><ele>37.5</ele><time>2026-04-19T08:16:01.048Z</time></trkpt><trkpt lat="42.1878969" lon="11.8374854"><ele>37.75</ele><time>2026-04-19T08:16:02.043Z</time></trkpt><trkpt lat="42.1877903" lon="11.8375967"><ele>38.0</ele><time>2026-04-19T08:16:03.055Z</time></trkpt><trkpt lat="42.1876739" lon="11.837703"><ele>38.0</ele><time>2026-04-19T08:16:04.051Z</time></trkpt><trkpt lat="42.1875577" lon="11.8378081"><ele>38.0</ele><time>2026-04-19T08:16:05.048Z</time></trkpt><trkpt lat="42.1874357" lon="11.8379232"><ele>38.0</ele><time>2026-04-19T08:16:06.043Z</time></trkpt><trkpt lat="42.1873133" lon="11.8380371"><ele>38.0</ele><time>2026-04-19T08:16:07.049Z</time></trkpt><trkpt lat="42.1871941" lon="11.8381511"><ele>38.0</ele><time>2026-04-19T08:16:08.054Z</time></trkpt><trkpt lat="42.1870774" lon="11.8382618"><ele>38.0</ele><time>2026-04-19T08:16:09.05Z</time></trkpt><trkpt lat="42.1869689" lon="11.8383621"><ele>38.0</ele><time>2026-04-19T08:16:10.045Z</time></trkpt><trkpt lat="42.1868576" lon="11.8384624"><ele>38.0</ele><time>2026-04-19T08:16:11.042Z</time></trkpt><trkpt lat="42.1867474" lon="11.8385629"><ele>38.5</ele><time>2026-04-19T08:16:12.044Z</time></trkpt><trkpt lat="42.1866427" lon="11.8386579"><ele>39.0</ele><time>2026-04-19T08:16:13.05Z</time></trkpt><trkpt lat="42.1865356" lon="11.8387608"><ele>39.5</ele><time>2026-04-19T08:16:14.051Z</time></trkpt><trkpt lat="42.1864255" lon="11.8388786"><ele>40.0</ele><time>2026-04-19T08:16:15.064Z</time></trkpt><trkpt lat="42.1863193" lon="11.8390134"><ele>40.0</ele><time>2026-04-19T08:16:16.046Z</time></trkpt><trkpt lat="42.186229" lon="11.8391503"><ele>40.0</ele><time>2026-04-19T08:16:17.044Z</time></trkpt><trkpt lat="42.1861565" lon="11.8392895"><ele>40.0</ele><time>2026-04-19T08:16:18.04Z</time></trkpt><trkpt lat="42.1861035" lon="11.8394368"><ele>40.0</ele><time>2026-04-19T08:16:19.044Z</time></trkpt><trkpt lat="42.1860619" lon="11.8396007"><ele>40.0</ele><time>2026-04-19T08:16:20.039Z</time></trkpt><trkpt lat="42.1860285" lon="11.8397809"><ele>40.0</ele><time>2026-04-19T08:16:21.042Z</time></trkpt><trkpt lat="42.1859998" lon="11.839973"><ele>40.0</ele><time>2026-04-19T08:16:22.037Z</time></trkpt><trkpt lat="42.1859716" lon="11.8401702"><ele>40.0</ele><time>2026-04-19T08:16:23.047Z</time></trkpt><trkpt lat="42.1859399" lon="11.8403654"><ele>40.0</ele><time>2026-04-19T08:16:24.04Z</time></trkpt><trkpt lat="42.1859071" lon="11.8405543"><ele>40.0</ele><time>2026-04-19T08:16:25.047Z</time></trkpt><trkpt lat="42.1858766" lon="11.8407493"><ele>40.0</ele><time>2026-04-19T08:16:26.041Z</time></trkpt><trkpt lat="42.1858518" lon="11.8409478"><ele>40.0</ele><time>2026-04-19T08:16:27.04Z</time></trkpt><trkpt lat="42.1858241" lon="11.8411476"><ele>40.75</ele><time>2026-04-19T08:16:28.034Z</time></trkpt><trkpt lat="42.1857979" lon="11.8413442"><ele>41.5</ele><time>2026-04-19T08:16:29.041Z</time></trkpt><trkpt lat="42.1857706" lon="11.841537"><ele>42.25</ele><time>2026-04-19T08:16:30.044Z</time></trkpt><trkpt lat="42.1857431" lon="11.841731"><ele>43.0</ele><time>2026-04-19T08:16:31.038Z</time></trkpt><trkpt lat="42.1857165" lon="11.8419135"><ele>43.5</ele><time>2026-04-19T08:16:32.032Z</time></trkpt><trkpt lat="42.1856908" lon="11.8420749"><ele>44.0</ele><time>2026-04-19T08:16:33.038Z</time></trkpt><trkpt lat="42.1856625" lon="11.8422274"><ele>44.5</ele><time>2026-04-19T08:16:34.042Z</time></trkpt><trkpt lat="42.1856354" lon="11.8423717"><ele>45.0</ele><time>2026-04-19T08:16:35.046Z</time></trkpt><trkpt lat="42.185613" lon="11.8425182"><ele>45.0</ele><time>2026-04-19T08:16:36.036Z</time></trkpt><trkpt lat="42.1856038" lon="11.8426753"><ele>45.0</ele><time>2026-04-19T08:16:37.044Z</time></trkpt><trkpt lat="42.1856124" lon="11.8428353"><ele>45.0</ele><time>2026-04-19T08:16:38.044Z</time></trkpt><trkpt lat="42.1856399" lon="11.8429962"><ele>45.0</ele><time>2026-04-19T08:16:39.042Z</time></trkpt><trkpt lat="42.1856865" lon="11.8431584"><ele>45.25</ele><time>2026-04-19T08:16:40.042Z</time></trkpt><trkpt lat="42.1857532" lon="11.8433116"><ele>45.5</ele><time>2026-04-19T08:16:41.035Z</time></trkpt><trkpt lat="42.1858336" lon="11.8434558"><ele>45.75</ele><time>2026-04-19T08:16:42.034Z</time></trkpt><trkpt lat="42.1859229" lon="11.8435864"><ele>46.0</ele><time>2026-04-19T08:16:43.036Z</time></trkpt><trkpt lat="42.1860212" lon="11.8437026"><ele>46.0</ele><time>2026-04-19T08:16:44.038Z</time></trkpt><trkpt lat="42.1861289" lon="11.843809"><ele>46.0</ele><time>2026-04-19T08:16:45.03Z</time></trkpt><trkpt lat="42.1862453" lon="11.8439106"><ele>46.0</ele><time>2026-04-19T08:16:46.031Z</time></trkpt><trkpt lat="42.1863641" lon="11.8440165"><ele>46.0</ele><time>2026-04-19T08:16:47.03Z</time></trkpt><trkpt lat="42.1864854" lon="11.8441347"><ele>48.0</ele><time>2026-04-19T08:16:48.038Z</time></trkpt><trkpt lat="42.1865948" lon="11.8442611"><ele>50.0</ele><time>2026-04-19T08:16:49.039Z</time></trkpt><trkpt lat="42.1867011" lon="11.8443956"><ele>52.0</ele><time>2026-04-19T08:16:50.038Z</time></trkpt><trkpt lat="42.1868087" lon="11.8445215"><ele>54.0</ele><time>2026-04-19T08:16:51.034Z</time></trkpt><trkpt lat="42.1869136" lon="11.8446415"><ele>54.25</ele><time>2026-04-19T08:16:52.029Z</time></trkpt><trkpt lat="42.1870262" lon="11.844741"><ele>54.5</ele><time>2026-04-19T08:16:53.04Z</time></trkpt><trkpt lat="42.187143" lon="11.8448324"><ele>54.75</ele><time>2026-04-19T08:16:54.039Z</time></trkpt><trkpt lat="42.1872611" lon="11.8449363"><ele>55.0</ele><time>2026-04-19T08:16:55.048Z</time></trkpt><trkpt lat="42.1873696" lon="11.8450386"><ele>55.25</ele><time>2026-04-19T08:16:56.041Z</time></trkpt><trkpt lat="42.1874696" lon="11.8451442"><ele>55.5</ele><time>2026-04-19T08:16:57.035Z</time></trkpt><trkpt lat="42.1875572" lon="11.8452597"><ele>55.75</ele><time>2026-04-19T08:16:58.047Z</time></trkpt><trkpt lat="42.1876594" lon="11.8453656"><ele>56.0</ele><time>2026-04-19T08:16:59.043Z</time></trkpt><trkpt lat="42.1877583" lon="11.8454658"><ele>56.0</ele><time>2026-04-19T08:17:00.042Z</time></trkpt><trkpt lat="42.1878521" lon="11.8455547"><ele>55.99999999999999</ele><time>2026-04-19T08:17:01.038Z</time></trkpt><trkpt lat="42.1879339" lon="11.845633"><ele>55.99999999999999</ele><time>2026-04-19T08:17:02.039Z</time></trkpt><trkpt lat="42.1880098" lon="11.8457097"><ele>56.0</ele><time>2026-04-19T08:17:03.038Z</time></trkpt><trkpt lat="42.1880847" lon="11.8457918"><ele>56.0</ele><time>2026-04-19T08:17:04.054Z</time></trkpt><trkpt lat="42.1881451" lon="11.8458922"><ele>57.66666666666667</ele><time>2026-04-19T08:17:05.048Z</time></trkpt><trkpt lat="42.1881901" lon="11.8459983"><ele>59.333333333333336</ele><time>2026-04-19T08:17:06.041Z</time></trkpt><trkpt lat="42.1882187" lon="11.8461019"><ele>61.0</ele><time>2026-04-19T08:17:07.042Z</time></trkpt><trkpt lat="42.1882537" lon="11.8461989"><ele>62.66666666666667</ele><time>2026-04-19T08:17:08.039Z</time></trkpt><trkpt lat="42.1882824" lon="11.8462886"><ele>64.33333333333333</ele><time>2026-04-19T08:17:09.042Z</time></trkpt><trkpt lat="42.1883205" lon="11.8463755"><ele>66.0</ele><time>2026-04-19T08:17:10.043Z</time></trkpt><trkpt lat="42.1883712" lon="11.8464991"><ele>66.0</ele><time>2026-04-19T08:17:11.044Z</time></trkpt><trkpt lat="42.1884132" lon="11.8466208"><ele>66.0</ele><time>2026-04-19T08:17:12.049Z</time></trkpt><trkpt lat="42.1884431" lon="11.8467322"><ele>66.0</ele><time>2026-04-19T08:17:13.047Z</time></trkpt><trkpt lat="42.1884613" lon="11.8468399"><ele>66.0</ele><time>2026-04-19T08:17:14.058Z</time></trkpt><trkpt lat="42.1884729" lon="11.8469364"><ele>66.0</ele><time>2026-04-19T08:17:15.045Z</time></trkpt><trkpt lat="42.1884764" lon="11.8470243"><ele>66.0</ele><time>2026-04-19T08:17:16.038Z</time></trkpt><trkpt lat="42.1885221" lon="11.8471018"><ele>66.5</ele><time>2026-04-19T08:17:17.071Z</time></trkpt><trkpt lat="42.1885994" lon="11.8471655"><ele>67.0</ele><time>2026-04-19T08:17:18.038Z</time></trkpt><trkpt lat="42.1886926" lon="11.847216"><ele>67.5</ele><time>2026-04-19T08:17:19.038Z</time></trkpt><trkpt lat="42.1887695" lon="11.8472549"><ele>68.0</ele><time>2026-04-19T08:17:20.036Z</time></trkpt><trkpt lat="42.1888309" lon="11.847329"><ele>68.5</ele><time>2026-04-19T08:17:21.05Z</time></trkpt><trkpt lat="42.1888866" lon="11.8474235"><ele>69.0</ele><time>2026-04-19T08:17:22.044Z</time></trkpt><trkpt lat="42.1889347" lon="11.8475256"><ele>69.0</ele><time>2026-04-19T08:17:23.038Z</time></trkpt><trkpt lat="42.1889854" lon="11.8476254"><ele>69.0</ele><time>2026-04-19T08:17:24.054Z</time></trkpt><trkpt lat="42.189053" lon="11.8477222"><ele>69.0</ele><time>2026-04-19T08:17:25.037Z</time></trkpt><trkpt lat="42.189099" lon="11.8478283"><ele>69.0</ele><time>2026-04-19T08:17:26.037Z</time></trkpt><trkpt lat="42.1891467" lon="11.8479438"><ele>69.0</ele><time>2026-04-19T08:17:27.049Z</time></trkpt><trkpt lat="42.1892035" lon="11.8480563"><ele>69.60000000000001</ele><time>2026-04-19T08:17:28.046Z</time></trkpt><trkpt lat="42.1892693" lon="11.8481523"><ele>70.2</ele><time>2026-04-19T08:17:29.044Z</time></trkpt><trkpt lat="42.1893352" lon="11.8482445"><ele>70.80000000000001</ele><time>2026-04-19T08:17:30.041Z</time></trkpt><trkpt lat="42.1894025" lon="11.8483389"><ele>71.4</ele><time>2026-04-19T08:17:31.045Z</time></trkpt><trkpt lat="42.1894651" lon="11.8484501"><ele>72.0</ele><time>2026-04-19T08:17:32.043Z</time></trkpt><trkpt lat="42.1895212" lon="11.8485718"><ele>72.6</ele><time>2026-04-19T08:17:33.054Z</time></trkpt><trkpt lat="42.1895596" lon="11.8487009"><ele>73.2</ele><time>2026-04-19T08:17:34.036Z</time></trkpt><trkpt lat="42.1895756" lon="11.8488254"><ele>73.8</ele><time>2026-04-19T08:17:35.038Z</time></trkpt><trkpt lat="42.189569" lon="11.8489521"><ele>74.4</ele><time>2026-04-19T08:17:36.035Z</time></trkpt><trkpt lat="42.1895547" lon="11.8490794"><ele>75.0</ele><time>2026-04-19T08:17:37.04Z</time></trkpt><trkpt lat="42.1895251" lon="11.8492149"><ele>76.2</ele><time>2026-04-19T08:17:38.034Z</time></trkpt><trkpt lat="42.1894882" lon="11.8493393"><ele>77.4</ele><time>2026-04-19T08:17:39.038Z</time></trkpt><trkpt lat="42.189448" lon="11.8494632"><ele>78.6</ele><time>2026-04-19T08:17:40.036Z</time></trkpt><trkpt lat="42.1894013" lon="11.8495904"><ele>79.8</ele><time>2026-04-19T08:17:41.042Z</time></trkpt><trkpt lat="42.1893527" lon="11.8496857"><ele>81.0</ele><time>2026-04-19T08:17:42.039Z</time></trkpt><trkpt lat="42.1893005" lon="11.8497632"><ele>81.0</ele><time>2026-04-19T08:17:43.038Z</time></trkpt><trkpt lat="42.1892742" lon="11.8498655"><ele>81.0</ele><time>2026-04-19T08:17:44.03Z</time></trkpt><trkpt lat="42.1892706" lon="11.8499868"><ele>81.0</ele><time>2026-04-19T08:17:45.041Z</time></trkpt><trkpt lat="42.1892815" lon="11.8500978"><ele>81.0</ele><time>2026-04-19T08:17:46.032Z</time></trkpt><trkpt lat="42.1893131" lon="11.8502065"><ele>81.0</ele><time>2026-04-19T08:17:47.045Z</time></trkpt><trkpt lat="42.1893651" lon="11.8503012"><ele>81.0</ele><time>2026-04-19T08:17:48.042Z</time></trkpt><trkpt lat="42.1894394" lon="11.8503867"><ele>81.6</ele><time>2026-04-19T08:17:49.048Z</time></trkpt><trkpt lat="42.1895249" lon="11.8504772"><ele>82.19999999999999</ele><time>2026-04-19T08:17:50.031Z</time></trkpt><trkpt lat="42.1896089" lon="11.8505763"><ele>82.80000000000001</ele><time>2026-04-19T08:17:51.038Z</time></trkpt><trkpt lat="42.1896709" lon="11.8506907"><ele>83.4</ele><time>2026-04-19T08:17:52.043Z</time></trkpt><trkpt lat="42.1897143" lon="11.8508258"><ele>84.0</ele><time>2026-04-19T08:17:53.047Z</time></trkpt><trkpt lat="42.1897416" lon="11.8509724"><ele>85.5</ele><time>2026-04-19T08:17:54.044Z</time></trkpt><trkpt lat="42.1897583" lon="11.8511324"><ele>87.0</ele><time>2026-04-19T08:17:55.034Z</time></trkpt><trkpt lat="42.1897677" lon="11.8513008"><ele>88.5</ele><time>2026-04-19T08:17:56.04Z</time></trkpt><trkpt lat="42.1897726" lon="11.8514723"><ele>90.0</ele><time>2026-04-19T08:17:57.049Z</time></trkpt><trkpt lat="42.1897804" lon="11.8516468"><ele>91.25</ele><time>2026-04-19T08:17:58.039Z</time></trkpt><trkpt lat="42.189789" lon="11.8518264"><ele>92.5</ele><time>2026-04-19T08:17:59.036Z</time></trkpt><trkpt lat="42.1898043" lon="11.8519795"><ele>93.75</ele><time>2026-04-19T08:18:00.04Z</time></trkpt><trkpt lat="42.1898147" lon="11.8521238"><ele>95.0</ele><time>2026-04-19T08:18:01.048Z</time></trkpt><trkpt lat="42.1898274" lon="11.85227"><ele>96.5</ele><time>2026-04-19T08:18:02.037Z</time></trkpt><trkpt lat="42.1898508" lon="11.8524334"><ele>98.0</ele><time>2026-04-19T08:18:03.038Z</time></trkpt><trkpt lat="42.1898901" lon="11.8525975"><ele>99.5</ele><time>2026-04-19T08:18:04.035Z</time></trkpt><trkpt lat="42.18995" lon="11.8527742"><ele>101.0</ele><time>2026-04-19T08:18:05.046Z</time></trkpt><trkpt lat="42.1900183" lon="11.8529545"><ele>101.0</ele><time>2026-04-19T08:18:06.035Z</time></trkpt><trkpt lat="42.1900894" lon="11.8531265"><ele>101.0</ele><time>2026-04-19T08:18:07.039Z</time></trkpt><trkpt lat="42.1901619" lon="11.8533052"><ele>101.0</ele><time>2026-04-19T08:18:08.04Z</time></trkpt><trkpt lat="42.1902365" lon="11.8534706"><ele>101.0</ele><time>2026-04-19T08:18:09.046Z</time></trkpt><trkpt lat="42.1903219" lon="11.8536288"><ele>101.25</ele><time>2026-04-19T08:18:10.051Z</time></trkpt><trkpt lat="42.1904167" lon="11.8537696"><ele>101.5</ele><time>2026-04-19T08:18:11.042Z</time></trkpt><trkpt lat="42.190519" lon="11.853906"><ele>101.75</ele><time>2026-04-19T08:18:12.064Z</time></trkpt><trkpt lat="42.190631" lon="11.8540339"><ele>102.0</ele><time>2026-04-19T08:18:13.045Z</time></trkpt><trkpt lat="42.1907425" lon="11.8541597"><ele>103.75</ele><time>2026-04-19T08:18:14.038Z</time></trkpt><trkpt lat="42.1908414" lon="11.8542767"><ele>105.5</ele><time>2026-04-19T08:18:15.042Z</time></trkpt><trkpt lat="42.1909343" lon="11.854391"><ele>107.25</ele><time>2026-04-19T08:18:16.048Z</time></trkpt><trkpt lat="42.1910165" lon="11.8545013"><ele>109.0</ele><time>2026-04-19T08:18:17.049Z</time></trkpt><trkpt lat="42.1910936" lon="11.854619"><ele>109.25</ele><time>2026-04-19T08:18:18.05Z</time></trkpt><trkpt lat="42.1911626" lon="11.8547543"><ele>109.5</ele><time>2026-04-19T08:18:19.046Z</time></trkpt><trkpt lat="42.1912197" lon="11.8549056"><ele>109.75</ele><time>2026-04-19T08:18:20.057Z</time></trkpt><trkpt lat="42.1912716" lon="11.8550697"><ele>110.0</ele><time>2026-04-19T08:18:21.052Z</time></trkpt><trkpt lat="42.1912893" lon="11.8552544"><ele>110.25</ele><time>2026-04-19T08:18:22.048Z</time></trkpt><trkpt lat="42.1912922" lon="11.855449"><ele>110.5</ele><time>2026-04-19T08:18:23.045Z</time></trkpt><trkpt lat="42.1912916" lon="11.8556496"><ele>110.75</ele><time>2026-04-19T08:18:24.052Z</time></trkpt><trkpt lat="42.1912951" lon="11.8558442"><ele>111.0</ele><time>2026-04-19T08:18:25.056Z</time></trkpt><trkpt lat="42.1913149" lon="11.8560283"><ele>112.5</ele><time>2026-04-19T08:18:26.048Z</time></trkpt><trkpt lat="42.1913513" lon="11.8561961"><ele>114.0</ele><time>2026-04-19T08:18:27.031Z</time></trkpt><trkpt lat="42.1914068" lon="11.8563586"><ele>115.5</ele><time>2026-04-19T08:18:28.048Z</time></trkpt><trkpt lat="42.1914759" lon="11.8565089"><ele>117.0</ele><time>2026-04-19T08:18:29.045Z</time></trkpt><trkpt lat="42.1915482" lon="11.856659"><ele>118.75</ele><time>2026-04-19T08:18:30.041Z</time></trkpt><trkpt lat="42.1916177" lon="11.8568055"><ele>120.5</ele><time>2026-04-19T08:18:31.056Z</time></trkpt><trkpt lat="42.1916861" lon="11.8569495"><ele>122.25</ele><time>2026-04-19T08:18:32.051Z</time></trkpt><trkpt lat="42.1917648" lon="11.8570928"><ele>124.0</ele><time>2026-04-19T08:18:33.046Z</time></trkpt><trkpt lat="42.1918421" lon="11.8572342"><ele>124.0</ele><time>2026-04-19T08:18:34.054Z</time></trkpt><trkpt lat="42.1919156" lon="11.8573725"><ele>124.0</ele><time>2026-04-19T08:18:35.056Z</time></trkpt><trkpt lat="42.1919892" lon="11.8574992"><ele>124.0</ele><time>2026-04-19T08:18:36.038Z</time></trkpt><trkpt lat="42.1920692" lon="11.85761"><ele>124.0</ele><time>2026-04-19T08:18:37.049Z</time></trkpt><trkpt lat="42.1921499" lon="11.8577182"><ele>124.75</ele><time>2026-04-19T08:18:38.047Z</time></trkpt><trkpt lat="42.1922517" lon="11.8578249"><ele>125.5</ele><time>2026-04-19T08:18:39.047Z</time></trkpt><trkpt lat="42.192355" lon="11.8579357"><ele>126.25</ele><time>2026-04-19T08:18:40.054Z</time></trkpt><trkpt lat="42.1924646" lon="11.8580426"><ele>127.0</ele><time>2026-04-19T08:18:41.057Z</time></trkpt><trkpt lat="42.1925644" lon="11.8581512"><ele>127.0</ele><time>2026-04-19T08:18:42.052Z</time></trkpt><trkpt lat="42.1926603" lon="11.8582554"><ele>126.99999999999999</ele><time>2026-04-19T08:18:43.076Z</time></trkpt><trkpt lat="42.1927501" lon="11.8583559"><ele>126.99999999999999</ele><time>2026-04-19T08:18:44.059Z</time></trkpt><trkpt lat="42.192838" lon="11.8584477"><ele>127.0</ele><time>2026-04-19T08:18:45.049Z</time></trkpt><trkpt lat="42.1929036" lon="11.858525"><ele>127.0</ele><time>2026-04-19T08:18:46.05Z</time></trkpt><trkpt lat="42.1929505" lon="11.8585915"><ele>128.6</ele><time>2026-04-19T08:18:47.065Z</time></trkpt><trkpt lat="42.1929912" lon="11.858662"><ele>130.2</ele><time>2026-04-19T08:18:48.056Z</time></trkpt><trkpt lat="42.1930372" lon="11.858789"><ele>131.8</ele><time>2026-04-19T08:18:50.05Z</time></trkpt><trkpt lat="42.1930013" lon="11.8589204"><ele>133.4</ele><time>2026-04-19T08:18:52.046Z</time></trkpt><trkpt lat="42.1929291" lon="11.8590546"><ele>135.0</ele><time>2026-04-19T08:18:54.045Z</time></trkpt><trkpt lat="42.1929027" lon="11.8591365"><ele>135.0</ele><time>2026-04-19T08:18:55.042Z</time></trkpt><trkpt lat="42.1928889" lon="11.8592318"><ele>135.0</ele><time>2026-04-19T08:18:56.042Z</time></trkpt><trkpt lat="42.1928903" lon="11.8593329"><ele>135.0</ele><time>2026-04-19T08:18:57.038Z</time></trkpt><trkpt lat="42.1929107" lon="11.8594361"><ele>135.0</ele><time>2026-04-19T08:18:58.05Z</time></trkpt><trkpt lat="42.1929336" lon="11.8595448"><ele>135.0</ele><time>2026-04-19T08:18:59.054Z</time></trkpt><trkpt lat="42.1929906" lon="11.8596527"><ele>135.0</ele><time>2026-04-19T08:19:00.04Z</time></trkpt><trkpt lat="42.1930589" lon="11.8597535"><ele>135.6</ele><time>2026-04-19T08:19:01.038Z</time></trkpt><trkpt lat="42.1931293" lon="11.8598535"><ele>136.2</ele><time>2026-04-19T08:19:02.039Z</time></trkpt><trkpt lat="42.1931978" lon="11.8599737"><ele>136.8</ele><time>2026-04-19T08:19:03.043Z</time></trkpt><trkpt lat="42.1932568" lon="11.8601062"><ele>137.4</ele><time>2026-04-19T08:19:04.053Z</time></trkpt><trkpt lat="42.1933115" lon="11.8602481"><ele>138.0</ele><time>2026-04-19T08:19:05.04Z</time></trkpt><trkpt lat="42.1933801" lon="11.8603879"><ele>139.25</ele><time>2026-04-19T08:19:06.046Z</time></trkpt><trkpt lat="42.1934573" lon="11.8605324"><ele>140.5</ele><time>2026-04-19T08:19:07.042Z</time></trkpt><trkpt lat="42.193538" lon="11.8606768"><ele>141.75</ele><time>2026-04-19T08:19:08.034Z</time></trkpt><trkpt lat="42.1936186" lon="11.8608161"><ele>143.0</ele><time>2026-04-19T08:19:09.041Z</time></trkpt><trkpt lat="42.193703" lon="11.8609608"><ele>143.75</ele><time>2026-04-19T08:19:10.042Z</time></trkpt><trkpt lat="42.1937784" lon="11.8611029"><ele>144.5</ele><time>2026-04-19T08:19:11.035Z</time></trkpt><trkpt lat="42.1938523" lon="11.8612513"><ele>145.25</ele><time>2026-04-19T08:19:12.038Z</time></trkpt><trkpt lat="42.1939252" lon="11.8613995"><ele>146.0</ele><time>2026-04-19T08:19:13.045Z</time></trkpt><trkpt lat="42.1939963" lon="11.8615468"><ele>144.75</ele><time>2026-04-19T08:19:14.038Z</time></trkpt><trkpt lat="42.1940691" lon="11.8616924"><ele>143.5</ele><time>2026-04-19T08:19:15.043Z</time></trkpt><trkpt lat="42.1941547" lon="11.8618345"><ele>142.25</ele><time>2026-04-19T08:19:16.043Z</time></trkpt><trkpt lat="42.1942473" lon="11.8619766"><ele>141.0</ele><time>2026-04-19T08:19:17.047Z</time></trkpt><trkpt lat="42.1943441" lon="11.8621101"><ele>141.0</ele><time>2026-04-19T08:19:18.043Z</time></trkpt><trkpt lat="42.1944459" lon="11.862226"><ele>141.0</ele><time>2026-04-19T08:19:19.044Z</time></trkpt><trkpt lat="42.1945482" lon="11.8623337"><ele>141.0</ele><time>2026-04-19T08:19:20.054Z</time></trkpt><trkpt lat="42.1946505" lon="11.8624423"><ele>141.0</ele><time>2026-04-19T08:19:21.038Z</time></trkpt><trkpt lat="42.1947514" lon="11.8625495"><ele>140.75</ele><time>2026-04-19T08:19:22.033Z</time></trkpt><trkpt lat="42.1948458" lon="11.8626673"><ele>140.5</ele><time>2026-04-19T08:19:23.049Z</time></trkpt><trkpt lat="42.1949336" lon="11.8627969"><ele>140.25</ele><time>2026-04-19T08:19:24.043Z</time></trkpt><trkpt lat="42.1950145" lon="11.8629181"><ele>140.0</ele><time>2026-04-19T08:19:25.03Z</time></trkpt><trkpt lat="42.1950821" lon="11.8630393"><ele>140.0</ele><time>2026-04-19T08:19:26.045Z</time></trkpt><trkpt lat="42.1951496" lon="11.8631705"><ele>140.0</ele><time>2026-04-19T08:19:27.045Z</time></trkpt><trkpt lat="42.1952193" lon="11.8633134"><ele>140.0</ele><time>2026-04-19T08:19:28.048Z</time></trkpt><trkpt lat="42.1952993" lon="11.8634687"><ele>140.0</ele><time>2026-04-19T08:19:29.033Z</time></trkpt><trkpt lat="42.1953849" lon="11.86363"><ele>141.33333333333331</ele><time>2026-04-19T08:19:30.04Z</time></trkpt><trkpt lat="42.1954718" lon="11.8637936"><ele>142.66666666666666</ele><time>2026-04-19T08:19:31.045Z</time></trkpt><trkpt lat="42.1955613" lon="11.863958"><ele>144.0</ele><time>2026-04-19T08:19:32.036Z</time></trkpt><trkpt lat="42.1956588" lon="11.8641213"><ele>142.0</ele><time>2026-04-19T08:19:33.04Z</time></trkpt><trkpt lat="42.1957509" lon="11.8642824"><ele>140.0</ele><time>2026-04-19T08:19:34.04Z</time></trkpt><trkpt lat="42.1958349" lon="11.8644364"><ele>138.0</ele><time>2026-04-19T08:19:35.046Z</time></trkpt><trkpt lat="42.1959046" lon="11.8645845"><ele>136.0</ele><time>2026-04-19T08:19:36.043Z</time></trkpt><trkpt lat="42.195974" lon="11.864729"><ele>136.0</ele><time>2026-04-19T08:19:37.042Z</time></trkpt><trkpt lat="42.1960388" lon="11.8648617"><ele>136.0</ele><time>2026-04-19T08:19:38.037Z</time></trkpt><trkpt lat="42.1961127" lon="11.8649947"><ele>136.0</ele><time>2026-04-19T08:19:39.046Z</time></trkpt><trkpt lat="42.1961978" lon="11.8651308"><ele>136.0</ele><time>2026-04-19T08:19:40.046Z</time></trkpt><trkpt lat="42.1962897" lon="11.8652891"><ele>138.25</ele><time>2026-04-19T08:19:41.037Z</time></trkpt><trkpt lat="42.1963767" lon="11.8654534"><ele>140.5</ele><time>2026-04-19T08:19:42.046Z</time></trkpt><trkpt lat="42.1964634" lon="11.865612"><ele>142.75</ele><time>2026-04-19T08:19:43.054Z</time></trkpt><trkpt lat="42.1965415" lon="11.8657812"><ele>145.0</ele><time>2026-04-19T08:19:44.037Z</time></trkpt><trkpt lat="42.1966217" lon="11.8659445"><ele>140.75</ele><time>2026-04-19T08:19:45.039Z</time></trkpt><trkpt lat="42.1967035" lon="11.8660995"><ele>136.5</ele><time>2026-04-19T08:19:46.039Z</time></trkpt><trkpt lat="42.1967938" lon="11.8662619"><ele>132.25</ele><time>2026-04-19T08:19:47.054Z</time></trkpt><trkpt lat="42.1968881" lon="11.8664265"><ele>128.0</ele><time>2026-04-19T08:19:48.041Z</time></trkpt><trkpt lat="42.1969816" lon="11.8665947"><ele>128.0</ele><time>2026-04-19T08:19:49.031Z</time></trkpt><trkpt lat="42.1970791" lon="11.8667629"><ele>128.0</ele><time>2026-04-19T08:19:50.034Z</time></trkpt><trkpt lat="42.1971763" lon="11.86693"><ele>128.0</ele><time>2026-04-19T08:19:51.048Z</time></trkpt><trkpt lat="42.1972673" lon="11.8670964"><ele>128.5</ele><time>2026-04-19T08:19:52.045Z</time></trkpt><trkpt lat="42.1973543" lon="11.8672591"><ele>129.0</ele><time>2026-04-19T08:19:53.034Z</time></trkpt><trkpt lat="42.1974362" lon="11.8674176"><ele>129.5</ele><time>2026-04-19T08:19:54.047Z</time></trkpt><trkpt lat="42.1975152" lon="11.8675709"><ele>130.0</ele><time>2026-04-19T08:19:55.044Z</time></trkpt><trkpt lat="42.1975947" lon="11.8677207"><ele>130.0</ele><time>2026-04-19T08:19:56.034Z</time></trkpt><trkpt lat="42.1976724" lon="11.8678758"><ele>130.0</ele><time>2026-04-19T08:19:57.043Z</time></trkpt><trkpt lat="42.1977526" lon="11.868034"><ele>130.0</ele><time>2026-04-19T08:19:58.039Z</time></trkpt><trkpt lat="42.197829" lon="11.8681813"><ele>130.0</ele><time>2026-04-19T08:19:59.035Z</time></trkpt><trkpt lat="42.1979044" lon="11.8683251"><ele>132.5</ele><time>2026-04-19T08:20:00.049Z</time></trkpt><trkpt lat="42.1979809" lon="11.8684665"><ele>135.0</ele><time>2026-04-19T08:20:01.055Z</time></trkpt><trkpt lat="42.1980483" lon="11.8686215"><ele>137.5</ele><time>2026-04-19T08:20:02.036Z</time></trkpt><trkpt lat="42.1981005" lon="11.8687649"><ele>140.0</ele><time>2026-04-19T08:20:03.043Z</time></trkpt><trkpt lat="42.1981452" lon="11.8689088"><ele>136.8</ele><time>2026-04-19T08:20:04.045Z</time></trkpt><trkpt lat="42.1981737" lon="11.8690511"><ele>133.6</ele><time>2026-04-19T08:20:05.041Z</time></trkpt><trkpt lat="42.1981936" lon="11.8691911"><ele>130.4</ele><time>2026-04-19T08:20:06.041Z</time></trkpt><trkpt lat="42.1981977" lon="11.869327"><ele>127.2</ele><time>2026-04-19T08:20:07.05Z</time></trkpt><trkpt lat="42.1982004" lon="11.8694685"><ele>124.0</ele><time>2026-04-19T08:20:08.045Z</time></trkpt><trkpt lat="42.198202" lon="11.8695886"><ele>124.0</ele><time>2026-04-19T08:20:09.039Z</time></trkpt><trkpt lat="42.1982337" lon="11.8696922"><ele>124.0</ele><time>2026-04-19T08:20:10.051Z</time></trkpt><trkpt lat="42.1982915" lon="11.8697998"><ele>124.0</ele><time>2026-04-19T08:20:11.048Z</time></trkpt><trkpt lat="42.198358" lon="11.8699008"><ele>124.0</ele><time>2026-04-19T08:20:12.055Z</time></trkpt><trkpt lat="42.1984309" lon="11.8700006"><ele>124.0</ele><time>2026-04-19T08:20:13.048Z</time></trkpt><trkpt lat="42.1985004" lon="11.870097"><ele>126.83333333333334</ele><time>2026-04-19T08:20:14.039Z</time></trkpt><trkpt lat="42.1985612" lon="11.8701884"><ele>129.66666666666669</ele><time>2026-04-19T08:20:15.048Z</time></trkpt><trkpt lat="42.1986143" lon="11.8702665"><ele>132.5</ele><time>2026-04-19T08:20:16.058Z</time></trkpt><trkpt lat="42.198653" lon="11.870339"><ele>135.33333333333334</ele><time>2026-04-19T08:20:17.041Z</time></trkpt><trkpt lat="42.1986976" lon="11.8704081"><ele>138.16666666666666</ele><time>2026-04-19T08:20:18.049Z</time></trkpt><trkpt lat="42.1987484" lon="11.8704727"><ele>141.0</ele><time>2026-04-19T08:20:19.05Z</time></trkpt><trkpt lat="42.1988071" lon="11.8705388"><ele>141.0</ele><time>2026-04-19T08:20:20.058Z</time></trkpt><trkpt lat="42.1988523" lon="11.8706009"><ele>141.0</ele><time>2026-04-19T08:20:21.045Z</time></trkpt><trkpt lat="42.1989142" lon="11.8706305"><ele>141.0</ele><time>2026-04-19T08:20:22.032Z</time></trkpt><trkpt lat="42.1989896" lon="11.8706186"><ele>141.0</ele><time>2026-04-19T08:20:23.051Z</time></trkpt><trkpt lat="42.1990631" lon="11.8705783"><ele>141.0</ele><time>2026-04-19T08:20:24.048Z</time></trkpt><trkpt lat="42.1991356" lon="11.8705227"><ele>141.0</ele><time>2026-04-19T08:20:25.043Z</time></trkpt><trkpt lat="42.1992034" lon="11.8704402"><ele>140.0</ele><time>2026-04-19T08:20:26.072Z</time></trkpt><trkpt lat="42.1992629" lon="11.870341"><ele>139.0</ele><time>2026-04-19T08:20:27.053Z</time></trkpt><trkpt lat="42.1993162" lon="11.870223"><ele>138.0</ele><time>2026-04-19T08:20:28.049Z</time></trkpt><trkpt lat="42.1993645" lon="11.8700868"><ele>137.0</ele><time>2026-04-19T08:20:29.047Z</time></trkpt><trkpt lat="42.1994084" lon="11.8699498"><ele>136.0</ele><time>2026-04-19T08:20:30.047Z</time></trkpt><trkpt lat="42.1994476" lon="11.8698089"><ele>133.5</ele><time>2026-04-19T08:20:31.041Z</time></trkpt><trkpt lat="42.1994925" lon="11.8696657"><ele>131.0</ele><time>2026-04-19T08:20:32.061Z</time></trkpt><trkpt lat="42.1995348" lon="11.8695162"><ele>128.5</ele><time>2026-04-19T08:20:33.061Z</time></trkpt><trkpt lat="42.1995807" lon="11.8693538"><ele>126.0</ele><time>2026-04-19T08:20:34.036Z</time></trkpt><trkpt lat="42.1996345" lon="11.8691956"><ele>124.5</ele><time>2026-04-19T08:20:35.051Z</time></trkpt><trkpt lat="42.1997019" lon="11.8690382"><ele>123.0</ele><time>2026-04-19T08:20:36.056Z</time></trkpt><trkpt lat="42.1997785" lon="11.8688799"><ele>121.5</ele><time>2026-04-19T08:20:37.048Z</time></trkpt><trkpt lat="42.1998605" lon="11.8687325"><ele>120.0</ele><time>2026-04-19T08:20:38.054Z</time></trkpt><trkpt lat="42.1999486" lon="11.8685918"><ele>121.75</ele><time>2026-04-19T08:20:39.052Z</time></trkpt><trkpt lat="42.2000371" lon="11.868459"><ele>123.5</ele><time>2026-04-19T08:20:40.047Z</time></trkpt><trkpt lat="42.2001269" lon="11.8683345"><ele>125.25</ele><time>2026-04-19T08:20:41.047Z</time></trkpt><trkpt lat="42.2002213" lon="11.8682087"><ele>127.0</ele><time>2026-04-19T08:20:42.056Z</time></trkpt><trkpt lat="42.2003155" lon="11.8680886"><ele>127.0</ele><time>2026-04-19T08:20:43.043Z</time></trkpt><trkpt lat="42.2004022" lon="11.8679859"><ele>126.99999999999999</ele><time>2026-04-19T08:20:44.042Z</time></trkpt><trkpt lat="42.2004837" lon="11.867892"><ele>126.99999999999999</ele><time>2026-04-19T08:20:45.044Z</time></trkpt><trkpt lat="42.2005639" lon="11.8678247"><ele>127.0</ele><time>2026-04-19T08:20:46.05Z</time></trkpt><trkpt lat="42.2006378" lon="11.8677787"><ele>127.0</ele><time>2026-04-19T08:20:47.055Z</time></trkpt><trkpt lat="42.2007382" lon="11.8677958"><ele>127.00000000000001</ele><time>2026-04-19T08:20:49.052Z</time></trkpt><trkpt lat="42.2007905" lon="11.8679032"><ele>127.0</ele><time>2026-04-19T08:20:51.046Z</time></trkpt><trkpt lat="42.2007747" lon="11.8680537"><ele>127.0</ele><time>2026-04-19T08:20:53.046Z</time></trkpt><trkpt lat="42.2007444" lon="11.868134"><ele>127.0</ele><time>2026-04-19T08:20:54.039Z</time></trkpt><trkpt lat="42.2007024" lon="11.8682235"><ele>127.00000000000001</ele><time>2026-04-19T08:20:55.044Z</time></trkpt><trkpt lat="42.2006725" lon="11.8683255"><ele>127.0</ele><time>2026-04-19T08:20:56.05Z</time></trkpt><trkpt lat="42.2006411" lon="11.8684399"><ele>128.0</ele><time>2026-04-19T08:20:57.045Z</time></trkpt><trkpt lat="42.2006128" lon="11.8685636"><ele>129.0</ele><time>2026-04-19T08:20:58.045Z</time></trkpt><trkpt lat="42.200591" lon="11.8687004"><ele>130.0</ele><time>2026-04-19T08:20:59.05Z</time></trkpt><trkpt lat="42.2005638" lon="11.8688512"><ele>131.0</ele><time>2026-04-19T08:21:00.047Z</time></trkpt><trkpt lat="42.2005422" lon="11.8690158"><ele>132.0</ele><time>2026-04-19T08:21:01.048Z</time></trkpt><trkpt lat="42.2004995" lon="11.8691849"><ele>133.75</ele><time>2026-04-19T08:21:02.04Z</time></trkpt><trkpt lat="42.2004409" lon="11.8693617"><ele>135.5</ele><time>2026-04-19T08:21:03.04Z</time></trkpt><trkpt lat="42.2003742" lon="11.8695342"><ele>137.25</ele><time>2026-04-19T08:21:04.04Z</time></trkpt><trkpt lat="42.2002957" lon="11.8696977"><ele>139.0</ele><time>2026-04-19T08:21:05.052Z</time></trkpt><trkpt lat="42.2002037" lon="11.8698579"><ele>139.0</ele><time>2026-04-19T08:21:06.045Z</time></trkpt><trkpt lat="42.2001079" lon="11.8700215"><ele>139.0</ele><time>2026-04-19T08:21:07.038Z</time></trkpt><trkpt lat="42.2000207" lon="11.8701923"><ele>139.0</ele><time>2026-04-19T08:21:08.044Z</time></trkpt><trkpt lat="42.1999504" lon="11.8703798"><ele>141.0</ele><time>2026-04-19T08:21:09.046Z</time></trkpt><trkpt lat="42.1998966" lon="11.870578"><ele>143.0</ele><time>2026-04-19T08:21:10.043Z</time></trkpt><trkpt lat="42.1998579" lon="11.8707693"><ele>145.0</ele><time>2026-04-19T08:21:11.038Z</time></trkpt><trkpt lat="42.1998288" lon="11.8709541"><ele>147.0</ele><time>2026-04-19T08:21:12.046Z</time></trkpt><trkpt lat="42.1998014" lon="11.8711338"><ele>147.0</ele><time>2026-04-19T08:21:13.044Z</time></trkpt><trkpt lat="42.1997891" lon="11.8712987"><ele>147.0</ele><time>2026-04-19T08:21:14.045Z</time></trkpt><trkpt lat="42.1997985" lon="11.8714563"><ele>147.0</ele><time>2026-04-19T08:21:15.047Z</time></trkpt><trkpt lat="42.1998237" lon="11.8716105"><ele>147.0</ele><time>2026-04-19T08:21:16.038Z</time></trkpt><trkpt lat="42.1998631" lon="11.8717476"><ele>148.25</ele><time>2026-04-19T08:21:17.046Z</time></trkpt><trkpt lat="42.1998843" lon="11.8719055"><ele>149.5</ele><time>2026-04-19T08:21:18.048Z</time></trkpt><trkpt lat="42.1999024" lon="11.872063"><ele>150.75</ele><time>2026-04-19T08:21:19.051Z</time></trkpt><trkpt lat="42.1998842" lon="11.8722318"><ele>152.0</ele><time>2026-04-19T08:21:20.042Z</time></trkpt><trkpt lat="42.1998509" lon="11.8724063"><ele>153.25</ele><time>2026-04-19T08:21:21.049Z</time></trkpt><trkpt lat="42.1998131" lon="11.872581"><ele>154.5</ele><time>2026-04-19T08:21:22.053Z</time></trkpt><trkpt lat="42.199771" lon="11.8727504"><ele>155.75</ele><time>2026-04-19T08:21:23.043Z</time></trkpt><trkpt lat="42.1997342" lon="11.872926"><ele>157.0</ele><time>2026-04-19T08:21:24.044Z</time></trkpt><trkpt lat="42.1996896" lon="11.8731017"><ele>158.25</ele><time>2026-04-19T08:21:25.051Z</time></trkpt><trkpt lat="42.1996797" lon="11.8732795"><ele>159.5</ele><time>2026-04-19T08:21:26.054Z</time></trkpt><trkpt lat="42.1996823" lon="11.8734509"><ele>160.75</ele><time>2026-04-19T08:21:27.05Z</time></trkpt><trkpt lat="42.1996967" lon="11.873625"><ele>162.0</ele><time>2026-04-19T08:21:28.06Z</time></trkpt><trkpt lat="42.1997286" lon="11.8737928"><ele>162.5</ele><time>2026-04-19T08:21:29.062Z</time></trkpt><trkpt lat="42.1997714" lon="11.8739656"><ele>163.0</ele><time>2026-04-19T08:21:30.054Z</time></trkpt><trkpt lat="42.1998135" lon="11.8741382"><ele>163.5</ele><time>2026-04-19T08:21:31.052Z</time></trkpt><trkpt lat="42.1998543" lon="11.8743093"><ele>164.0</ele><time>2026-04-19T08:21:32.061Z</time></trkpt><trkpt lat="42.1998883" lon="11.8744787"><ele>163.0</ele><time>2026-04-19T08:21:33.057Z</time></trkpt><trkpt lat="42.1999199" lon="11.8746445"><ele>162.0</ele><time>2026-04-19T08:21:34.047Z</time></trkpt><trkpt lat="42.1999496" lon="11.8748137"><ele>161.0</ele><time>2026-04-19T08:21:35.049Z</time></trkpt><trkpt lat="42.1999802" lon="11.8749913"><ele>160.0</ele><time>2026-04-19T08:21:36.052Z</time></trkpt><trkpt lat="42.2000078" lon="11.8751744"><ele>159.8</ele><time>2026-04-19T08:21:37.048Z</time></trkpt><trkpt lat="42.2000387" lon="11.8753508"><ele>159.6</ele><time>2026-04-19T08:21:38.055Z</time></trkpt><trkpt lat="42.2000631" lon="11.8755068"><ele>159.4</ele><time>2026-04-19T08:21:39.047Z</time></trkpt><trkpt lat="42.2000803" lon="11.8756441"><ele>159.2</ele><time>2026-04-19T08:21:40.065Z</time></trkpt><trkpt lat="42.2000846" lon="11.8757649"><ele>159.0</ele><time>2026-04-19T08:21:41.048Z</time></trkpt><trkpt lat="42.2000657" lon="11.8758733"><ele>159.16666666666666</ele><time>2026-04-19T08:21:42.055Z</time></trkpt><trkpt lat="42.2000269" lon="11.8759675"><ele>159.33333333333334</ele><time>2026-04-19T08:21:43.063Z</time></trkpt><trkpt lat="42.199972" lon="11.8760577"><ele>159.5</ele><time>2026-04-19T08:21:44.057Z</time></trkpt><trkpt lat="42.1999192" lon="11.8761392"><ele>159.66666666666669</ele><time>2026-04-19T08:21:45.046Z</time></trkpt><trkpt lat="42.1998633" lon="11.8762285"><ele>159.83333333333334</ele><time>2026-04-19T08:21:46.045Z</time></trkpt><trkpt lat="42.1998065" lon="11.87633"><ele>160.0</ele><time>2026-04-19T08:21:47.049Z</time></trkpt><trkpt lat="42.1997405" lon="11.8764251"><ele>160.0</ele><time>2026-04-19T08:21:48.045Z</time></trkpt><trkpt lat="42.1996706" lon="11.876511"><ele>160.0</ele><time>2026-04-19T08:21:49.044Z</time></trkpt><trkpt lat="42.1996068" lon="11.8765996"><ele>160.0</ele><time>2026-04-19T08:21:50.057Z</time></trkpt><trkpt lat="42.1995449" lon="11.876694"><ele>160.0</ele><time>2026-04-19T08:21:51.052Z</time></trkpt><trkpt lat="42.1994799" lon="11.8767946"><ele>160.0</ele><time>2026-04-19T08:21:52.042Z</time></trkpt><trkpt lat="42.1994112" lon="11.8768952"><ele>159.0</ele><time>2026-04-19T08:21:53.049Z</time></trkpt><trkpt lat="42.1993499" lon="11.876987"><ele>158.0</ele><time>2026-04-19T08:21:54.045Z</time></trkpt><trkpt lat="42.1992938" lon="11.8770705"><ele>157.0</ele><time>2026-04-19T08:21:55.042Z</time></trkpt><trkpt lat="42.1992393" lon="11.8771514"><ele>156.0</ele><time>2026-04-19T08:21:56.05Z</time></trkpt><trkpt lat="42.1991823" lon="11.8772304"><ele>155.0</ele><time>2026-04-19T08:21:57.045Z</time></trkpt><trkpt lat="42.1991216" lon="11.8773189"><ele>154.0</ele><time>2026-04-19T08:21:58.051Z</time></trkpt><trkpt lat="42.199052" lon="11.8774233"><ele>154.4</ele><time>2026-04-19T08:21:59.049Z</time></trkpt><trkpt lat="42.1989757" lon="11.8775372"><ele>154.8</ele><time>2026-04-19T08:22:00.051Z</time></trkpt><trkpt lat="42.1988989" lon="11.8776502"><ele>155.2</ele><time>2026-04-19T08:22:01.044Z</time></trkpt><trkpt lat="42.1988233" lon="11.8777585"><ele>155.6</ele><time>2026-04-19T08:22:02.06Z</time></trkpt><trkpt lat="42.1987473" lon="11.8778657"><ele>156.0</ele><time>2026-04-19T08:22:03.054Z</time></trkpt><trkpt lat="42.1986717" lon="11.8779726"><ele>156.0</ele><time>2026-04-19T08:22:04.058Z</time></trkpt><trkpt lat="42.1985954" lon="11.8780799"><ele>156.0</ele><time>2026-04-19T08:22:05.055Z</time></trkpt><trkpt lat="42.1985223" lon="11.8781874"><ele>156.0</ele><time>2026-04-19T08:22:06.046Z</time></trkpt><trkpt lat="42.1984503" lon="11.8783"><ele>156.0</ele><time>2026-04-19T08:22:07.062Z</time></trkpt><trkpt lat="42.1983749" lon="11.878419"><ele>156.0</ele><time>2026-04-19T08:22:08.055Z</time></trkpt><trkpt lat="42.1982996" lon="11.8785406"><ele>155.6</ele><time>2026-04-19T08:22:09.042Z</time></trkpt><trkpt lat="42.1982256" lon="11.878651"><ele>155.2</ele><time>2026-04-19T08:22:10.056Z</time></trkpt><trkpt lat="42.1981491" lon="11.87875"><ele>154.8</ele><time>2026-04-19T08:22:11.055Z</time></trkpt><trkpt lat="42.1980785" lon="11.8788303"><ele>154.4</ele><time>2026-04-19T08:22:12.052Z</time></trkpt><trkpt lat="42.1980127" lon="11.8788959"><ele>154.0</ele><time>2026-04-19T08:22:13.049Z</time></trkpt><trkpt lat="42.1979494" lon="11.8789523"><ele>154.0</ele><time>2026-04-19T08:22:14.046Z</time></trkpt><trkpt lat="42.1978907" lon="11.8790009"><ele>154.0</ele><time>2026-04-19T08:22:15.057Z</time></trkpt><trkpt lat="42.1978225" lon="11.8790343"><ele>154.0</ele><time>2026-04-19T08:22:16.063Z</time></trkpt><trkpt lat="42.1977393" lon="11.8790475"><ele>154.0</ele><time>2026-04-19T08:22:17.046Z</time></trkpt><trkpt lat="42.1976523" lon="11.8790647"><ele>154.0</ele><time>2026-04-19T08:22:18.05Z</time></trkpt><trkpt lat="42.1975607" lon="11.8790746"><ele>154.0</ele><time>2026-04-19T08:22:19.042Z</time></trkpt><trkpt lat="42.1974601" lon="11.8790665"><ele>154.0</ele><time>2026-04-19T08:22:20.044Z</time></trkpt><trkpt lat="42.1973558" lon="11.8790557"><ele>154.0</ele><time>2026-04-19T08:22:21.059Z</time></trkpt><trkpt lat="42.1972529" lon="11.8790518"><ele>154.0</ele><time>2026-04-19T08:22:22.044Z</time></trkpt><trkpt lat="42.1971617" lon="11.8790533"><ele>154.0</ele><time>2026-04-19T08:22:23.051Z</time></trkpt><trkpt lat="42.1970838" lon="11.8790658"><ele>154.0</ele><time>2026-04-19T08:22:24.054Z</time></trkpt><trkpt lat="42.1970109" lon="11.8790997"><ele>153.6</ele><time>2026-04-19T08:22:25.043Z</time></trkpt><trkpt lat="42.1969533" lon="11.8791565"><ele>153.2</ele><time>2026-04-19T08:22:26.047Z</time></trkpt><trkpt lat="42.1969191" lon="11.8792375"><ele>152.79999999999998</ele><time>2026-04-19T08:22:27.043Z</time></trkpt><trkpt lat="42.1969069" lon="11.8793586"><ele>152.4</ele><time>2026-04-19T08:22:28.048Z</time></trkpt><trkpt lat="42.1969129" lon="11.879523"><ele>152.0</ele><time>2026-04-19T08:22:29.042Z</time></trkpt><trkpt lat="42.196916" lon="11.8797064"><ele>152.25</ele><time>2026-04-19T08:22:30.044Z</time></trkpt><trkpt lat="42.1969106" lon="11.8799014"><ele>152.5</ele><time>2026-04-19T08:22:31.051Z</time></trkpt><trkpt lat="42.1969114" lon="11.8800909"><ele>152.75</ele><time>2026-04-19T08:22:32.051Z</time></trkpt><trkpt lat="42.1969188" lon="11.8802705"><ele>153.0</ele><time>2026-04-19T08:22:33.048Z</time></trkpt><trkpt lat="42.1969279" lon="11.8804409"><ele>153.0</ele><time>2026-04-19T08:22:34.047Z</time></trkpt><trkpt lat="42.1969383" lon="11.8806031"><ele>153.0</ele><time>2026-04-19T08:22:35.041Z</time></trkpt><trkpt lat="42.1969473" lon="11.8807522"><ele>153.0</ele><time>2026-04-19T08:22:36.059Z</time></trkpt><trkpt lat="42.1969544" lon="11.8808871"><ele>153.0</ele><time>2026-04-19T08:22:37.052Z</time></trkpt><trkpt lat="42.1969553" lon="11.8810144"><ele>153.0</ele><time>2026-04-19T08:22:38.05Z</time></trkpt><trkpt lat="42.1969549" lon="11.881141"><ele>154.0</ele><time>2026-04-19T08:22:39.049Z</time></trkpt><trkpt lat="42.1969575" lon="11.8812658"><ele>155.0</ele><time>2026-04-19T08:22:40.052Z</time></trkpt><trkpt lat="42.1969612" lon="11.8813921"><ele>156.0</ele><time>2026-04-19T08:22:41.054Z</time></trkpt><trkpt lat="42.1969635" lon="11.881518"><ele>157.0</ele><time>2026-04-19T08:22:42.058Z</time></trkpt><trkpt lat="42.1969656" lon="11.8816427"><ele>158.0</ele><time>2026-04-19T08:22:43.055Z</time></trkpt><trkpt lat="42.1969697" lon="11.881772"><ele>158.8</ele><time>2026-04-19T08:22:44.046Z</time></trkpt><trkpt lat="42.1969668" lon="11.8819072"><ele>159.60000000000002</ele><time>2026-04-19T08:22:45.052Z</time></trkpt><trkpt lat="42.1969586" lon="11.8820184"><ele>160.39999999999998</ele><time>2026-04-19T08:22:46.054Z</time></trkpt><trkpt lat="42.1969572" lon="11.8821269"><ele>161.2</ele><time>2026-04-19T08:22:47.046Z</time></trkpt><trkpt lat="42.1969642" lon="11.8822682"><ele>162.0</ele><time>2026-04-19T08:22:49.049Z</time></trkpt><trkpt lat="42.1975607" lon="11.8790746"><ele>160.4</ele><time>2026-04-19T08:22:19.042Z</time></trkpt><trkpt lat="42.1974601" lon="11.8790665"><ele>158.79999999999998</ele><time>2026-04-19T08:22:20.044Z</time></trkpt><trkpt lat="42.1973558" lon="11.8790557"><ele>157.2</ele><time>2026-04-19T08:22:21.059Z</time></trkpt><trkpt lat="42.1972529" lon="11.8790518"><ele>155.6</ele><time>2026-04-19T08:22:22.044Z</time></trkpt><trkpt lat="42.1971617" lon="11.8790533"><ele>154.0</ele><time>2026-04-19T08:22:23.051Z</time></trkpt><trkpt lat="42.1970838" lon="11.8790658"><ele>153.66666666666669</ele><time>2026-04-19T08:22:24.054Z</time></trkpt><trkpt lat="42.1970109" lon="11.8790997"><ele>153.33333333333334</ele><time>2026-04-19T08:22:25.043Z</time></trkpt><trkpt lat="42.1969533" lon="11.8791565"><ele>153.0</ele><time>2026-04-19T08:22:26.047Z</time></trkpt><trkpt lat="42.1969191" lon="11.8792375"><ele>152.66666666666666</ele><time>2026-04-19T08:22:27.043Z</time></trkpt><trkpt lat="42.1969069" lon="11.8793586"><ele>152.33333333333331</ele><time>2026-04-19T08:22:28.048Z</time></trkpt><trkpt lat="42.1969129" lon="11.879523"><ele>152.0</ele><time>2026-04-19T08:22:29.042Z</time></trkpt><trkpt lat="42.196916" lon="11.8797064"><ele>152.25</ele><time>2026-04-19T08:22:30.044Z</time></trkpt><trkpt lat="42.1969106" lon="11.8799014"><ele>152.5</ele><time>2026-04-19T08:22:31.051Z</time></trkpt><trkpt lat="42.1969114" lon="11.8800909"><ele>152.75</ele><time>2026-04-19T08:22:32.051Z</time></trkpt><trkpt lat="42.1969188" lon="11.8802705"><ele>153.0</ele><time>2026-04-19T08:22:33.048Z</time></trkpt><trkpt lat="42.1969279" lon="11.8804409"><ele>153.0</ele><time>2026-04-19T08:22:34.047Z</time></trkpt><trkpt lat="42.1969383" lon="11.8806031"><ele>153.0</ele><time>2026-04-19T08:22:35.041Z</time></trkpt><trkpt lat="42.1969473" lon="11.8807522"><ele>153.0</ele><time>2026-04-19T08:22:36.059Z</time></trkpt><trkpt lat="42.1969544" lon="11.8808871"><ele>153.0</ele><time>2026-04-19T08:22:37.052Z</time></trkpt><trkpt lat="42.1969553" lon="11.8810144"><ele>153.0</ele><time>2026-04-19T08:22:38.05Z</time></trkpt><trkpt lat="42.1969549" lon="11.881141"><ele>154.0</ele><time>2026-04-19T08:22:39.049Z</time></trkpt><trkpt lat="42.1969575" lon="11.8812658"><ele>155.0</ele><time>2026-04-19T08:22:40.052Z</time></trkpt><trkpt lat="42.1969612" lon="11.8813921"><ele>156.0</ele><time>2026-04-19T08:22:41.054Z</time></trkpt><trkpt lat="42.1969635" lon="11.881518"><ele>157.0</ele><time>2026-04-19T08:22:42.058Z</time></trkpt><trkpt lat="42.1969656" lon="11.8816427"><ele>158.0</ele><time>2026-04-19T08:22:43.055Z</time></trkpt><trkpt lat="42.1969697" lon="11.881772"><ele>158.8</ele><time>2026-04-19T08:22:44.046Z</time></trkpt><trkpt lat="42.1969668" lon="11.8819072"><ele>159.60000000000002</ele><time>2026-04-19T08:22:45.052Z</time></trkpt><trkpt lat="42.1969586" lon="11.8820184"><ele>160.39999999999998</ele><time>2026-04-19T08:22:46.054Z</time></trkpt><trkpt lat="42.1969572" lon="11.8821269"><ele>161.2</ele><time>2026-04-19T08:22:47.046Z</time></trkpt><trkpt lat="42.1969642" lon="11.8822682"><ele>162.0</ele><time>2026-04-19T08:22:49.049Z</time></trkpt><trkpt lat="42.1970049" lon="11.882388"><ele>162.0</ele><time>2026-04-19T08:22:51.074Z</time></trkpt><trkpt lat="42.1970764" lon="11.8824787"><ele>162.0</ele><time>2026-04-19T08:22:54.043Z</time></trkpt><trkpt lat="42.1971653" lon="11.8825946"><ele>162.0</ele><time>2026-04-19T08:22:56.041Z</time></trkpt><trkpt lat="42.1972087" lon="11.882671"><ele>162.0</ele><time>2026-04-19T08:22:57.059Z</time></trkpt><trkpt lat="42.1972404" lon="11.8827492"><ele>162.0</ele><time>2026-04-19T08:22:58.044Z</time></trkpt><trkpt lat="42.1972685" lon="11.8828405"><ele>162.0</ele><time>2026-04-19T08:22:59.048Z</time></trkpt><trkpt lat="42.1972958" lon="11.8829395"><ele>162.16666666666666</ele><time>2026-04-19T08:23:00.046Z</time></trkpt><trkpt lat="42.1973258" lon="11.8830386"><ele>162.33333333333334</ele><time>2026-04-19T08:23:01.061Z</time></trkpt><trkpt lat="42.1973509" lon="11.8831364"><ele>162.5</ele><time>2026-04-19T08:23:02.038Z</time></trkpt><trkpt lat="42.1973755" lon="11.8832367"><ele>162.66666666666669</ele><time>2026-04-19T08:23:03.043Z</time></trkpt><trkpt lat="42.1973996" lon="11.8833359"><ele>162.83333333333334</ele><time>2026-04-19T08:23:04.044Z</time></trkpt><trkpt lat="42.1974262" lon="11.8834315"><ele>163.0</ele><time>2026-04-19T08:23:05.043Z</time></trkpt><trkpt lat="42.1974595" lon="11.8835291"><ele>164.0</ele><time>2026-04-19T08:23:06.049Z</time></trkpt><trkpt lat="42.1975028" lon="11.8836295"><ele>165.0</ele><time>2026-04-19T08:23:07.045Z</time></trkpt><trkpt lat="42.1975516" lon="11.8837317"><ele>166.0</ele><time>2026-04-19T08:23:08.055Z</time></trkpt><trkpt lat="42.1976184" lon="11.8838415"><ele>167.0</ele><time>2026-04-19T08:23:09.047Z</time></trkpt><trkpt lat="42.197683" lon="11.8839455"><ele>168.0</ele><time>2026-04-19T08:23:10.049Z</time></trkpt><trkpt lat="42.1977496" lon="11.8840354"><ele>168.0</ele><time>2026-04-19T08:23:11.052Z</time></trkpt><trkpt lat="42.1978209" lon="11.8841218"><ele>168.0</ele><time>2026-04-19T08:23:12.045Z</time></trkpt><trkpt lat="42.1978861" lon="11.8841975"><ele>168.0</ele><time>2026-04-19T08:23:13.037Z</time></trkpt><trkpt lat="42.197962" lon="11.8842536"><ele>168.0</ele><time>2026-04-19T08:23:14.04Z</time></trkpt><trkpt lat="42.1980449" lon="11.8842778"><ele>168.0</ele><time>2026-04-19T08:23:15.062Z</time></trkpt><trkpt lat="42.1981315" lon="11.8842937"><ele>168.0</ele><time>2026-04-19T08:23:16.046Z</time></trkpt><trkpt lat="42.1982227" lon="11.8843173"><ele>168.0</ele><time>2026-04-19T08:23:17.04Z</time></trkpt><trkpt lat="42.1983122" lon="11.8843412"><ele>168.0</ele><time>2026-04-19T08:23:18.052Z</time></trkpt><trkpt lat="42.1983893" lon="11.8843731"><ele>168.0</ele><time>2026-04-19T08:23:19.044Z</time></trkpt><trkpt lat="42.1984539" lon="11.8844129"><ele>168.0</ele><time>2026-04-19T08:23:20.038Z</time></trkpt><trkpt lat="42.1985128" lon="11.884462"><ele>168.0</ele><time>2026-04-19T08:23:21.049Z</time></trkpt><trkpt lat="42.1985677" lon="11.884516"><ele>168.0</ele><time>2026-04-19T08:23:22.042Z</time></trkpt><trkpt lat="42.1986612" lon="11.8846395"><ele>168.0</ele><time>2026-04-19T08:23:24.053Z</time></trkpt><trkpt lat="42.1986993" lon="11.8847133"><ele>168.0</ele><time>2026-04-19T08:23:25.047Z</time></trkpt><trkpt lat="42.1987448" lon="11.8847942"><ele>168.0</ele><time>2026-04-19T08:23:26.058Z</time></trkpt><trkpt lat="42.1988189" lon="11.8849252"><ele>168.0</ele><time>2026-04-19T08:23:28.051Z</time></trkpt><trkpt lat="42.1988837" lon="11.8850387"><ele>168.0</ele><time>2026-04-19T08:23:30.044Z</time></trkpt><trkpt lat="42.198954" lon="11.8851578"><ele>166.66666666666666</ele><time>2026-04-19T08:23:32.042Z</time></trkpt><trkpt lat="42.1990265" lon="11.8852867"><ele>165.33333333333334</ele><time>2026-04-19T08:23:34.038Z</time></trkpt><trkpt lat="42.1990678" lon="11.8853562"><ele>164.0</ele><time>2026-04-19T08:23:35.051Z</time></trkpt><trkpt lat="42.1991125" lon="11.8854281"><ele>162.66666666666669</ele><time>2026-04-19T08:23:36.048Z</time></trkpt><trkpt lat="42.1991598" lon="11.8855146"><ele>161.33333333333334</ele><time>2026-04-19T08:23:37.039Z</time></trkpt><trkpt lat="42.199201" lon="11.8855886"><ele>160.0</ele><time>2026-04-19T08:23:38.042Z</time></trkpt><trkpt lat="42.1992382" lon="11.8856585"><ele>160.0</ele><time>2026-04-19T08:23:39.046Z</time></trkpt><trkpt lat="42.1992775" lon="11.8857292"><ele>160.0</ele><time>2026-04-19T08:23:40.041Z</time></trkpt><trkpt lat="42.1993211" lon="11.8858031"><ele>160.0</ele><time>2026-04-19T08:23:41.037Z</time></trkpt><trkpt lat="42.199381" lon="11.8858898"><ele>160.0</ele><time>2026-04-19T08:23:42.046Z</time></trkpt><trkpt lat="42.1994444" lon="11.8859957"><ele>160.0</ele><time>2026-04-19T08:23:43.049Z</time></trkpt><trkpt lat="42.1995145" lon="11.8861011"><ele>160.0</ele><time>2026-04-19T08:23:44.041Z</time></trkpt><trkpt lat="42.1995889" lon="11.8862051"><ele>159.8</ele><time>2026-04-19T08:23:45.039Z</time></trkpt><trkpt lat="42.1996801" lon="11.8862982"><ele>159.6</ele><time>2026-04-19T08:23:46.047Z</time></trkpt><trkpt lat="42.1997662" lon="11.8863823"><ele>159.4</ele><time>2026-04-19T08:23:47.046Z</time></trkpt><trkpt lat="42.1998654" lon="11.8864352"><ele>159.2</ele><time>2026-04-19T08:23:48.041Z</time></trkpt><trkpt lat="42.1999618" lon="11.8864751"><ele>159.0</ele><time>2026-04-19T08:23:49.051Z</time></trkpt><trkpt lat="42.2000477" lon="11.8865134"><ele>159.0</ele><time>2026-04-19T08:23:50.044Z</time></trkpt><trkpt lat="42.2001277" lon="11.8865326"><ele>159.0</ele><time>2026-04-19T08:23:51.04Z</time></trkpt><trkpt lat="42.200204" lon="11.8865563"><ele>159.0</ele><time>2026-04-19T08:23:52.043Z</time></trkpt><trkpt lat="42.2002703" lon="11.8865861"><ele>159.0</ele><time>2026-04-19T08:23:53.05Z</time></trkpt><trkpt lat="42.2003295" lon="11.8866291"><ele>159.0</ele><time>2026-04-19T08:23:54.043Z</time></trkpt><trkpt lat="42.2003817" lon="11.8867023"><ele>159.0</ele><time>2026-04-19T08:23:55.046Z</time></trkpt><trkpt lat="42.2004368" lon="11.8868158"><ele>158.16666666666666</ele><time>2026-04-19T08:23:56.039Z</time></trkpt><trkpt lat="42.2004857" lon="11.8869222"><ele>157.33333333333334</ele><time>2026-04-19T08:23:57.046Z</time></trkpt><trkpt lat="42.2005329" lon="11.8870356"><ele>156.5</ele><time>2026-04-19T08:23:58.044Z</time></trkpt><trkpt lat="42.2005855" lon="11.8871433"><ele>155.66666666666669</ele><time>2026-04-19T08:23:59.039Z</time></trkpt><trkpt lat="42.2006307" lon="11.8872374"><ele>154.83333333333334</ele><time>2026-04-19T08:24:00.042Z</time></trkpt><trkpt lat="42.2006759" lon="11.8873286"><ele>154.0</ele><time>2026-04-19T08:24:01.052Z</time></trkpt><trkpt lat="42.2007186" lon="11.8874215"><ele>154.0</ele><time>2026-04-19T08:24:02.041Z</time></trkpt><trkpt lat="42.2007565" lon="11.8875082"><ele>154.0</ele><time>2026-04-19T08:24:03.047Z</time></trkpt><trkpt lat="42.2008135" lon="11.8875901"><ele>154.0</ele><time>2026-04-19T08:24:04.035Z</time></trkpt><trkpt lat="42.2008809" lon="11.8876698"><ele>154.0</ele><time>2026-04-19T08:24:05.039Z</time></trkpt><trkpt lat="42.2009485" lon="11.8877386"><ele>154.0</ele><time>2026-04-19T08:24:06.048Z</time></trkpt><trkpt lat="42.2010085" lon="11.8878102"><ele>154.0</ele><time>2026-04-19T08:24:07.046Z</time></trkpt><trkpt lat="42.201052" lon="11.887882"><ele>154.33333333333334</ele><time>2026-04-19T08:24:08.047Z</time></trkpt><trkpt lat="42.2010913" lon="11.8879488"><ele>154.66666666666669</ele><time>2026-04-19T08:24:09.054Z</time></trkpt><trkpt lat="42.2011112" lon="11.88803"><ele>155.0</ele><time>2026-04-19T08:24:10.045Z</time></trkpt><trkpt lat="42.2011118" lon="11.8881327"><ele>155.33333333333334</ele><time>2026-04-19T08:24:11.059Z</time></trkpt><trkpt lat="42.2011045" lon="11.8882456"><ele>155.66666666666666</ele><time>2026-04-19T08:24:12.046Z</time></trkpt><trkpt lat="42.2010951" lon="11.8883563"><ele>156.0</ele><time>2026-04-19T08:24:13.043Z</time></trkpt><trkpt lat="42.2010922" lon="11.8884699"><ele>156.5</ele><time>2026-04-19T08:24:14.046Z</time></trkpt><trkpt lat="42.201104" lon="11.8885848"><ele>157.0</ele><time>2026-04-19T08:24:15.042Z</time></trkpt><trkpt lat="42.2011168" lon="11.8887011"><ele>157.5</ele><time>2026-04-19T08:24:16.039Z</time></trkpt><trkpt lat="42.201143" lon="11.888809"><ele>158.0</ele><time>2026-04-19T08:24:17.06Z</time></trkpt><trkpt lat="42.2011774" lon="11.8889121"><ele>158.5</ele><time>2026-04-19T08:24:18.042Z</time></trkpt><trkpt lat="42.2012097" lon="11.889018"><ele>159.0</ele><time>2026-04-19T08:24:19.039Z</time></trkpt><trkpt lat="42.2012161" lon="11.8891335"><ele>159.0</ele><time>2026-04-19T08:24:20.046Z</time></trkpt><trkpt lat="42.2012288" lon="11.8892332"><ele>159.0</ele><time>2026-04-19T08:24:21.045Z</time></trkpt><trkpt lat="42.201243" lon="11.8893402"><ele>159.0</ele><time>2026-04-19T08:24:22.041Z</time></trkpt><trkpt lat="42.2012521" lon="11.8894633"><ele>159.0</ele><time>2026-04-19T08:24:23.043Z</time></trkpt><trkpt lat="42.2012726" lon="11.8895818"><ele>159.0</ele><time>2026-04-19T08:24:24.043Z</time></trkpt><trkpt lat="42.2012925" lon="11.8896957"><ele>159.0</ele><time>2026-04-19T08:24:25.04Z</time></trkpt><trkpt lat="42.2013165" lon="11.8898081"><ele>160.33333333333334</ele><time>2026-04-19T08:24:26.047Z</time></trkpt><trkpt lat="42.20134" lon="11.8899098"><ele>161.66666666666666</ele><time>2026-04-19T08:24:27.046Z</time></trkpt><trkpt lat="42.2013756" lon="11.8899888"><ele>163.0</ele><time>2026-04-19T08:24:28.052Z</time></trkpt><trkpt lat="42.2014136" lon="11.8900678"><ele>164.33333333333331</ele><time>2026-04-19T08:24:29.035Z</time></trkpt><trkpt lat="42.2014689" lon="11.8901316"><ele>165.66666666666666</ele><time>2026-04-19T08:24:30.041Z</time></trkpt><trkpt lat="42.2015404" lon="11.8901848"><ele>167.0</ele><time>2026-04-19T08:24:31.045Z</time></trkpt><trkpt lat="42.2016131" lon="11.8902317"><ele>167.14285714285714</ele><time>2026-04-19T08:24:32.036Z</time></trkpt><trkpt lat="42.2016889" lon="11.8902715"><ele>167.28571428571428</ele><time>2026-04-19T08:24:33.05Z</time></trkpt><trkpt lat="42.2017615" lon="11.8903039"><ele>167.42857142857144</ele><time>2026-04-19T08:24:34.041Z</time></trkpt><trkpt lat="42.2018255" lon="11.8903326"><ele>167.57142857142856</ele><time>2026-04-19T08:24:35.039Z</time></trkpt><trkpt lat="42.2018894" lon="11.8903635"><ele>167.71428571428572</ele><time>2026-04-19T08:24:36.043Z</time></trkpt><trkpt lat="42.2019503" lon="11.8903932"><ele>167.85714285714286</ele><time>2026-04-19T08:24:37.045Z</time></trkpt><trkpt lat="42.2020104" lon="11.890428"><ele>168.0</ele><time>2026-04-19T08:24:38.045Z</time></trkpt><trkpt lat="42.2020812" lon="11.8904734"><ele>168.0</ele><time>2026-04-19T08:24:39.038Z</time></trkpt><trkpt lat="42.2021617" lon="11.8905479"><ele>168.0</ele><time>2026-04-19T08:24:40.051Z</time></trkpt><trkpt lat="42.2022296" lon="11.8906341"><ele>168.0</ele><time>2026-04-19T08:24:41.051Z</time></trkpt><trkpt lat="42.2022996" lon="11.890724"><ele>168.0</ele><time>2026-04-19T08:24:42.041Z</time></trkpt><trkpt lat="42.202362" lon="11.8907965"><ele>168.0</ele><time>2026-04-19T08:24:43.052Z</time></trkpt><trkpt lat="42.2024374" lon="11.8908844"><ele>169.0</ele><time>2026-04-19T08:24:44.053Z</time></trkpt><trkpt lat="42.2025144" lon="11.8909804"><ele>170.0</ele><time>2026-04-19T08:24:45.039Z</time></trkpt><trkpt lat="42.2025772" lon="11.8910953"><ele>171.0</ele><time>2026-04-19T08:24:46.048Z</time></trkpt><trkpt lat="42.2026317" lon="11.8912214"><ele>172.0</ele><time>2026-04-19T08:24:47.046Z</time></trkpt><trkpt lat="42.2026733" lon="11.8913465"><ele>173.0</ele><time>2026-04-19T08:24:48.039Z</time></trkpt><trkpt lat="42.2027121" lon="11.8914602"><ele>173.0</ele><time>2026-04-19T08:24:49.043Z</time></trkpt><trkpt lat="42.2027513" lon="11.8915744"><ele>173.0</ele><time>2026-04-19T08:24:50.033Z</time></trkpt><trkpt lat="42.2027802" lon="11.8917031"><ele>173.0</ele><time>2026-04-19T08:24:51.045Z</time></trkpt><trkpt lat="42.2028001" lon="11.8918414"><ele>173.0</ele><time>2026-04-19T08:24:52.046Z</time></trkpt><trkpt lat="42.2028018" lon="11.8919844"><ele>173.0</ele><time>2026-04-19T08:24:53.048Z</time></trkpt><trkpt lat="42.2027951" lon="11.8921286"><ele>173.60000000000002</ele><time>2026-04-19T08:24:54.04Z</time></trkpt><trkpt lat="42.2027811" lon="11.8922686"><ele>174.20000000000002</ele><time>2026-04-19T08:24:55.048Z</time></trkpt><trkpt lat="42.2027645" lon="11.8924038"><ele>174.8</ele><time>2026-04-19T08:24:56.046Z</time></trkpt><trkpt lat="42.2027526" lon="11.8925411"><ele>175.4</ele><time>2026-04-19T08:24:57.053Z</time></trkpt><trkpt lat="42.2027289" lon="11.8926744"><ele>176.0</ele><time>2026-04-19T08:24:58.045Z</time></trkpt><trkpt lat="42.2027042" lon="11.8928304"><ele>176.0</ele><time>2026-04-19T08:24:59.051Z</time></trkpt><trkpt lat="42.2026877" lon="11.8929887"><ele>176.0</ele><time>2026-04-19T08:25:00.045Z</time></trkpt><trkpt lat="42.2026987" lon="11.893137"><ele>176.0</ele><time>2026-04-19T08:25:01.047Z</time></trkpt><trkpt lat="42.2027059" lon="11.8932771"><ele>176.0</ele><time>2026-04-19T08:25:02.037Z</time></trkpt><trkpt lat="42.2027157" lon="11.89345"><ele>176.5</ele><time>2026-04-19T08:25:03.055Z</time></trkpt><trkpt lat="42.2027243" lon="11.8936161"><ele>177.0</ele><time>2026-04-19T08:25:04.043Z</time></trkpt><trkpt lat="42.2027324" lon="11.8937827"><ele>177.5</ele><time>2026-04-19T08:25:05.048Z</time></trkpt><trkpt lat="42.2027407" lon="11.8939534"><ele>178.0</ele><time>2026-04-19T08:25:06.05Z</time></trkpt><trkpt lat="42.2027537" lon="11.8941159"><ele>178.0</ele><time>2026-04-19T08:25:07.054Z</time></trkpt><trkpt lat="42.2027638" lon="11.8942687"><ele>178.0</ele><time>2026-04-19T08:25:08.041Z</time></trkpt><trkpt lat="42.2027687" lon="11.8944201"><ele>178.0</ele><time>2026-04-19T08:25:09.048Z</time></trkpt><trkpt lat="42.2027694" lon="11.8945626"><ele>178.0</ele><time>2026-04-19T08:25:10.049Z</time></trkpt><trkpt lat="42.2027677" lon="11.8947005"><ele>178.0</ele><time>2026-04-19T08:25:11.052Z</time></trkpt><trkpt lat="42.2027634" lon="11.8948174"><ele>178.0</ele><time>2026-04-19T08:25:12.055Z</time></trkpt><trkpt lat="42.2027625" lon="11.8949119"><ele>178.0</ele><time>2026-04-19T08:25:13.041Z</time></trkpt><trkpt lat="42.2027366" lon="11.8950475"><ele>178.0</ele><time>2026-04-19T08:25:15.061Z</time></trkpt><trkpt lat="42.2026631" lon="11.8951313"><ele>178.0</ele><time>2026-04-19T08:25:17.035Z</time></trkpt><trkpt lat="42.2026007" lon="11.8951597"><ele>178.0</ele><time>2026-04-19T08:25:18.036Z</time></trkpt><trkpt lat="42.2025313" lon="11.8951861"><ele>178.0</ele><time>2026-04-19T08:25:19.047Z</time></trkpt><trkpt lat="42.2024505" lon="11.8952017"><ele>178.0</ele><time>2026-04-19T08:25:20.039Z</time></trkpt><trkpt lat="42.2023663" lon="11.895217"><ele>178.0</ele><time>2026-04-19T08:25:21.044Z</time></trkpt><trkpt lat="42.2022899" lon="11.8952353"><ele>178.0</ele><time>2026-04-19T08:25:22.036Z</time></trkpt><trkpt lat="42.202209" lon="11.8952683"><ele>178.0</ele><time>2026-04-19T08:25:23.041Z</time></trkpt><trkpt lat="42.2021284" lon="11.8953012"><ele>178.0</ele><time>2026-04-19T08:25:24.051Z</time></trkpt><trkpt lat="42.2020495" lon="11.8953326"><ele>178.0</ele><time>2026-04-19T08:25:25.049Z</time></trkpt><trkpt lat="42.2019648" lon="11.8953627"><ele>179.66666666666669</ele><time>2026-04-19T08:25:26.047Z</time></trkpt><trkpt lat="42.201873" lon="11.8953892"><ele>181.33333333333334</ele><time>2026-04-19T08:25:27.049Z</time></trkpt><trkpt lat="42.201781" lon="11.895411"><ele>183.0</ele><time>2026-04-19T08:25:28.04Z</time></trkpt><trkpt lat="42.201697" lon="11.8954267"><ele>184.66666666666666</ele><time>2026-04-19T08:25:29.054Z</time></trkpt><trkpt lat="42.2016147" lon="11.8954384"><ele>186.33333333333331</ele><time>2026-04-19T08:25:30.05Z</time></trkpt><trkpt lat="42.2015354" lon="11.8954445"><ele>188.0</ele><time>2026-04-19T08:25:31.042Z</time></trkpt><trkpt lat="42.2014546" lon="11.8954204"><ele>189.83333333333331</ele><time>2026-04-19T08:25:32.036Z</time></trkpt><trkpt lat="42.2013847" lon="11.8953971"><ele>191.66666666666666</ele><time>2026-04-19T08:25:33.044Z</time></trkpt><trkpt lat="42.2013124" lon="11.8953555"><ele>193.5</ele><time>2026-04-19T08:25:34.045Z</time></trkpt><trkpt lat="42.2012419" lon="11.8953096"><ele>195.33333333333331</ele><time>2026-04-19T08:25:35.04Z</time></trkpt><trkpt lat="42.2011697" lon="11.895246"><ele>197.16666666666666</ele><time>2026-04-19T08:25:36.045Z</time></trkpt><trkpt lat="42.2010904" lon="11.8951812"><ele>199.0</ele><time>2026-04-19T08:25:37.04Z</time></trkpt><trkpt lat="42.2010182" lon="11.8951243"><ele>199.66666666666666</ele><time>2026-04-19T08:25:38.047Z</time></trkpt><trkpt lat="42.2009408" lon="11.8950649"><ele>200.33333333333331</ele><time>2026-04-19T08:25:39.042Z</time></trkpt><trkpt lat="42.20087" lon="11.8950146"><ele>201.0</ele><time>2026-04-19T08:25:40.043Z</time></trkpt><trkpt lat="42.2007975" lon="11.8949923"><ele>201.66666666666669</ele><time>2026-04-19T08:25:41.034Z</time></trkpt><trkpt lat="42.2007254" lon="11.8950025"><ele>202.33333333333334</ele><time>2026-04-19T08:25:42.041Z</time></trkpt><trkpt lat="42.2006616" lon="11.8950312"><ele>203.0</ele><time>2026-04-19T08:25:43.042Z</time></trkpt><trkpt lat="42.2006058" lon="11.8950883"><ele>204.8</ele><time>2026-04-19T08:25:44.044Z</time></trkpt><trkpt lat="42.2005516" lon="11.8951766"><ele>206.60000000000002</ele><time>2026-04-19T08:25:45.056Z</time></trkpt><trkpt lat="42.2004883" lon="11.8952775"><ele>208.39999999999998</ele><time>2026-04-19T08:25:46.053Z</time></trkpt><trkpt lat="42.2004199" lon="11.8953819"><ele>210.2</ele><time>2026-04-19T08:25:47.041Z</time></trkpt><trkpt lat="42.2003479" lon="11.8954913"><ele>212.0</ele><time>2026-04-19T08:25:48.041Z</time></trkpt><trkpt lat="42.2002682" lon="11.8956094"><ele>212.0</ele><time>2026-04-19T08:25:49.045Z</time></trkpt><trkpt lat="42.2001869" lon="11.8957373"><ele>212.0</ele><time>2026-04-19T08:25:50.058Z</time></trkpt><trkpt lat="42.2001079" lon="11.8958842"><ele>212.0</ele><time>2026-04-19T08:25:51.042Z</time></trkpt><trkpt lat="42.2000275" lon="11.8960306"><ele>212.0</ele><time>2026-04-19T08:25:52.044Z</time></trkpt><trkpt lat="42.199946" lon="11.8961826"><ele>211.33333333333334</ele><time>2026-04-19T08:25:53.061Z</time></trkpt><trkpt lat="42.1998562" lon="11.8963461"><ele>210.66666666666669</ele><time>2026-04-19T08:25:54.055Z</time></trkpt><trkpt lat="42.1997607" lon="11.8965146"><ele>210.0</ele><time>2026-04-19T08:25:55.044Z</time></trkpt><trkpt lat="42.1996725" lon="11.8966828"><ele>215.66666666666669</ele><time>2026-04-19T08:25:56.048Z</time></trkpt><trkpt lat="42.1995881" lon="11.8968616"><ele>221.33333333333334</ele><time>2026-04-19T08:25:57.054Z</time></trkpt><trkpt lat="42.1995079" lon="11.8970548"><ele>227.0</ele><time>2026-04-19T08:25:58.039Z</time></trkpt><trkpt lat="42.1994369" lon="11.8972272"><ele>227.0</ele><time>2026-04-19T08:25:59.061Z</time></trkpt><trkpt lat="42.1993552" lon="11.8974082"><ele>227.0</ele><time>2026-04-19T08:26:00.055Z</time></trkpt><trkpt lat="42.1992783" lon="11.8976112"><ele>227.0</ele><time>2026-04-19T08:26:01.039Z</time></trkpt><trkpt lat="42.1991907" lon="11.8977939"><ele>227.5</ele><time>2026-04-19T08:26:02.053Z</time></trkpt><trkpt lat="42.1991216" lon="11.8979663"><ele>228.0</ele><time>2026-04-19T08:26:03.058Z</time></trkpt><trkpt lat="42.1990462" lon="11.8981255"><ele>228.5</ele><time>2026-04-19T08:26:04.045Z</time></trkpt><trkpt lat="42.1989733" lon="11.8982762"><ele>229.0</ele><time>2026-04-19T08:26:05.054Z</time></trkpt><trkpt lat="42.1989024" lon="11.8984129"><ele>236.75</ele><time>2026-04-19T08:26:06.047Z</time></trkpt><trkpt lat="42.1988337" lon="11.8985469"><ele>244.5</ele><time>2026-04-19T08:26:07.034Z</time></trkpt><trkpt lat="42.1987854" lon="11.8986893"><ele>252.25</ele><time>2026-04-19T08:26:08.038Z</time></trkpt><trkpt lat="42.1987528" lon="11.8988421"><ele>260.0</ele><time>2026-04-19T08:26:09.038Z</time></trkpt><trkpt lat="42.1987289" lon="11.8989928"><ele>260.0</ele><time>2026-04-19T08:26:10.05Z</time></trkpt><trkpt lat="42.1987382" lon="11.8991495"><ele>260.0</ele><time>2026-04-19T08:26:11.049Z</time></trkpt><trkpt lat="42.1987508" lon="11.8993119"><ele>260.0</ele><time>2026-04-19T08:26:12.038Z</time></trkpt><trkpt lat="42.1987598" lon="11.8994491"><ele>260.0</ele><time>2026-04-19T08:26:13.05Z</time></trkpt><trkpt lat="42.1987285" lon="11.8996037"><ele>260.0</ele><time>2026-04-19T08:26:14.043Z</time></trkpt><trkpt lat="42.1986868" lon="11.8997503"><ele>260.0</ele><time>2026-04-19T08:26:15.052Z</time></trkpt><trkpt lat="42.1986575" lon="11.8998793"><ele>260.0</ele><time>2026-04-19T08:26:16.049Z</time></trkpt><trkpt lat="42.1986531" lon="11.900003"><ele>260.0</ele><time>2026-04-19T08:26:17.038Z</time></trkpt><trkpt lat="42.1985724" lon="11.9000683"><ele>260.0</ele><time>2026-04-19T08:26:19.039Z</time></trkpt><trkpt lat="42.198491" lon="11.90004"><ele>260.0</ele><time>2026-04-19T08:26:21.045Z</time></trkpt><trkpt lat="42.1984274" lon="11.8998855"><ele>260.0</ele><time>2026-04-19T08:26:23.045Z</time></trkpt><trkpt lat="42.1984096" lon="11.8997645"><ele>260.0</ele><time>2026-04-19T08:26:24.041Z</time></trkpt><trkpt lat="42.1983888" lon="11.8996333"><ele>260.0</ele><time>2026-04-19T08:26:25.035Z</time></trkpt><trkpt lat="42.198362" lon="11.8994923"><ele>260.0</ele><time>2026-04-19T08:26:26.038Z</time></trkpt><trkpt lat="42.198334" lon="11.8993437"><ele>260.0</ele><time>2026-04-19T08:26:27.043Z</time></trkpt><trkpt lat="42.1983047" lon="11.8991965"><ele>260.0</ele><time>2026-04-19T08:26:28.041Z</time></trkpt><trkpt lat="42.1982627" lon="11.8990498"><ele>260.0</ele><time>2026-04-19T08:26:29.037Z</time></trkpt><trkpt lat="42.1982189" lon="11.8988967"><ele>260.0</ele><time>2026-04-19T08:26:30.037Z</time></trkpt><trkpt lat="42.1981671" lon="11.8987719"><ele>264.2</ele><time>2026-04-19T08:26:31.047Z</time></trkpt><trkpt lat="42.1981265" lon="11.898643"><ele>268.4</ele><time>2026-04-19T08:26:32.038Z</time></trkpt><trkpt lat="42.1980675" lon="11.8985157"><ele>272.6</ele><time>2026-04-19T08:26:33.041Z</time></trkpt><trkpt lat="42.1980135" lon="11.8983832"><ele>276.8</ele><time>2026-04-19T08:26:34.045Z</time></trkpt><trkpt lat="42.1979677" lon="11.8982401"><ele>281.0</ele><time>2026-04-19T08:26:35.049Z</time></trkpt><trkpt lat="42.1979068" lon="11.8980983"><ele>281.0</ele><time>2026-04-19T08:26:36.037Z</time></trkpt><trkpt lat="42.1978579" lon="11.897941"><ele>281.0</ele><time>2026-04-19T08:26:37.04Z</time></trkpt><trkpt lat="42.1978102" lon="11.8977862"><ele>281.0</ele><time>2026-04-19T08:26:38.046Z</time></trkpt><trkpt lat="42.1977489" lon="11.897627"><ele>281.0</ele><time>2026-04-19T08:26:39.043Z</time></trkpt><trkpt lat="42.197688" lon="11.8974637"><ele>280.0</ele><time>2026-04-19T08:26:40.047Z</time></trkpt><trkpt lat="42.1976314" lon="11.8973069"><ele>279.0</ele><time>2026-04-19T08:26:41.056Z</time></trkpt><trkpt lat="42.1975768" lon="11.8971483"><ele>278.0</ele><time>2026-04-19T08:26:42.039Z</time></trkpt><trkpt lat="42.1975279" lon="11.8969926"><ele>277.0</ele><time>2026-04-19T08:26:43.047Z</time></trkpt><trkpt lat="42.197484" lon="11.8968511"><ele>276.6</ele><time>2026-04-19T08:26:44.039Z</time></trkpt><trkpt lat="42.1974473" lon="11.8967136"><ele>276.2</ele><time>2026-04-19T08:26:45.041Z</time></trkpt><trkpt lat="42.1974006" lon="11.896583"><ele>275.8</ele><time>2026-04-19T08:26:46.044Z</time></trkpt><trkpt lat="42.1973591" lon="11.8964583"><ele>275.4</ele><time>2026-04-19T08:26:47.049Z</time></trkpt><trkpt lat="42.197305" lon="11.8963491"><ele>275.0</ele><time>2026-04-19T08:26:48.049Z</time></trkpt><trkpt lat="42.1972461" lon="11.89627"><ele>278.6</ele><time>2026-04-19T08:26:49.037Z</time></trkpt><trkpt lat="42.1971832" lon="11.8962003"><ele>282.2</ele><time>2026-04-19T08:26:50.043Z</time></trkpt><trkpt lat="42.1971008" lon="11.896137"><ele>285.8</ele><time>2026-04-19T08:26:51.051Z</time></trkpt><trkpt lat="42.1970213" lon="11.8960792"><ele>289.4</ele><time>2026-04-19T08:26:52.036Z</time></trkpt><trkpt lat="42.1969397" lon="11.8960223"><ele>293.0</ele><time>2026-04-19T08:26:53.037Z</time></trkpt><trkpt lat="42.1968515" lon="11.8959725"><ele>293.0</ele><time>2026-04-19T08:26:54.045Z</time></trkpt><trkpt lat="42.1967659" lon="11.895963"><ele>293.0</ele><time>2026-04-19T08:26:55.051Z</time></trkpt><trkpt lat="42.1966811" lon="11.8959654"><ele>293.0</ele><time>2026-04-19T08:26:56.037Z</time></trkpt><trkpt lat="42.1965902" lon="11.8959897"><ele>293.0</ele><time>2026-04-19T08:26:57.046Z</time></trkpt><trkpt lat="42.1964948" lon="11.8960427"><ele>293.0</ele><time>2026-04-19T08:26:58.044Z</time></trkpt><trkpt lat="42.1964053" lon="11.8960992"><ele>293.8</ele><time>2026-04-19T08:26:59.041Z</time></trkpt><trkpt lat="42.196315" lon="11.8961702"><ele>294.6</ele><time>2026-04-19T08:27:00.046Z</time></trkpt><trkpt lat="42.196232" lon="11.8962531"><ele>295.4</ele><time>2026-04-19T08:27:01.045Z</time></trkpt><trkpt lat="42.1961503" lon="11.8963538"><ele>296.2</ele><time>2026-04-19T08:27:02.046Z</time></trkpt><trkpt lat="42.1960692" lon="11.8964513"><ele>297.0</ele><time>2026-04-19T08:27:03.051Z</time></trkpt><trkpt lat="42.1959825" lon="11.8965425"><ele>297.0</ele><time>2026-04-19T08:27:04.04Z</time></trkpt><trkpt lat="42.1958904" lon="11.8966167"><ele>297.0</ele><time>2026-04-19T08:27:05.038Z</time></trkpt><trkpt lat="42.1957965" lon="11.8966705"><ele>297.0</ele><time>2026-04-19T08:27:06.032Z</time></trkpt><trkpt lat="42.1957007" lon="11.8967248"><ele>297.0</ele><time>2026-04-19T08:27:07.038Z</time></trkpt><trkpt lat="42.1955901" lon="11.8967691"><ele>297.0</ele><time>2026-04-19T08:27:08.048Z</time></trkpt><trkpt lat="42.195492" lon="11.8968074"><ele>302.4</ele><time>2026-04-19T08:27:09.045Z</time></trkpt><trkpt lat="42.1953853" lon="11.8968447"><ele>307.79999999999995</ele><time>2026-04-19T08:27:10.041Z</time></trkpt><trkpt lat="42.1952678" lon="11.8968584"><ele>313.2</ele><time>2026-04-19T08:27:11.044Z</time></trkpt><trkpt lat="42.1951691" lon="11.8968519"><ele>318.59999999999997</ele><time>2026-04-19T08:27:12.046Z</time></trkpt><trkpt lat="42.1950793" lon="11.8968492"><ele>324.0</ele><time>2026-04-19T08:27:13.034Z</time></trkpt><trkpt lat="42.194987" lon="11.8968592"><ele>324.0</ele><time>2026-04-19T08:27:14.037Z</time></trkpt><trkpt lat="42.1949009" lon="11.8968707"><ele>324.0</ele><time>2026-04-19T08:27:15.053Z</time></trkpt><trkpt lat="42.1948258" lon="11.8968858"><ele>324.0</ele><time>2026-04-19T08:27:16.04Z</time></trkpt><trkpt lat="42.1947614" lon="11.8968998"><ele>324.0</ele><time>2026-04-19T08:27:17.041Z</time></trkpt><trkpt lat="42.1946256" lon="11.8969298"><ele>324.0</ele><time>2026-04-19T08:27:19.051Z</time></trkpt><trkpt lat="42.1945571" lon="11.8969409"><ele>324.0</ele><time>2026-04-19T08:27:20.05Z</time></trkpt><trkpt lat="42.1944925" lon="11.8969578"><ele>324.5</ele><time>2026-04-19T08:27:21.044Z</time></trkpt><trkpt lat="42.1944273" lon="11.8969848"><ele>325.0</ele><time>2026-04-19T08:27:22.04Z</time></trkpt><trkpt lat="42.1943512" lon="11.8970086"><ele>325.5</ele><time>2026-04-19T08:27:23.048Z</time></trkpt><trkpt lat="42.194286" lon="11.8970368"><ele>326.0</ele><time>2026-04-19T08:27:24.036Z</time></trkpt><trkpt lat="42.1941863" lon="11.8970985"><ele>326.5</ele><time>2026-04-19T08:27:26.035Z</time></trkpt><trkpt lat="42.1940891" lon="11.8971499"><ele>327.0</ele><time>2026-04-19T08:27:28.045Z</time></trkpt><trkpt lat="42.1939834" lon="11.8971867"><ele>327.0</ele><time>2026-04-19T08:27:30.037Z</time></trkpt><trkpt lat="42.1938809" lon="11.8972276"><ele>327.0</ele><time>2026-04-19T08:27:32.043Z</time></trkpt><trkpt lat="42.1937647" lon="11.8972913"><ele>327.0</ele><time>2026-04-19T08:27:34.036Z</time></trkpt><trkpt lat="42.1937015" lon="11.8973331"><ele>327.0</ele><time>2026-04-19T08:27:35.049Z</time></trkpt><trkpt lat="42.193641" lon="11.8973758"><ele>327.0</ele><time>2026-04-19T08:27:36.045Z</time></trkpt><trkpt lat="42.1935807" lon="11.8974178"><ele>327.0</ele><time>2026-04-19T08:27:37.05Z</time></trkpt><trkpt lat="42.1935187" lon="11.8974711"><ele>327.0</ele><time>2026-04-19T08:27:38.05Z</time></trkpt><trkpt lat="42.1934575" lon="11.897517"><ele>327.0</ele><time>2026-04-19T08:27:39.046Z</time></trkpt><trkpt lat="42.1933926" lon="11.8975508"><ele>327.0</ele><time>2026-04-19T08:27:40.038Z</time></trkpt><trkpt lat="42.1933206" lon="11.8975888"><ele>327.0</ele><time>2026-04-19T08:27:41.047Z</time></trkpt><trkpt lat="42.1932553" lon="11.8976018"><ele>327.0</ele><time>2026-04-19T08:27:42.037Z</time></trkpt><trkpt lat="42.1931888" lon="11.8975988"><ele>327.0</ele><time>2026-04-19T08:27:43.032Z</time></trkpt><trkpt lat="42.1931251" lon="11.897597"><ele>327.0</ele><time>2026-04-19T08:27:44.041Z</time></trkpt><trkpt lat="42.1930596" lon="11.8975766"><ele>327.7142857142857</ele><time>2026-04-19T08:27:45.043Z</time></trkpt><trkpt lat="42.1929965" lon="11.8975488"><ele>328.42857142857144</ele><time>2026-04-19T08:27:46.044Z</time></trkpt><trkpt lat="42.192928" lon="11.8975208"><ele>329.1428571428571</ele><time>2026-04-19T08:27:47.036Z</time></trkpt><trkpt lat="42.1928635" lon="11.8974945"><ele>329.8571428571429</ele><time>2026-04-19T08:27:48.039Z</time></trkpt><trkpt lat="42.1928006" lon="11.8974637"><ele>330.5714285714286</ele><time>2026-04-19T08:27:49.04Z</time></trkpt><trkpt lat="42.1927317" lon="11.897442"><ele>331.2857142857143</ele><time>2026-04-19T08:27:50.041Z</time></trkpt><trkpt lat="42.1926586" lon="11.8974211"><ele>332.0</ele><time>2026-04-19T08:27:51.058Z</time></trkpt><trkpt lat="42.1925922" lon="11.8974048"><ele>332.0</ele><time>2026-04-19T08:27:52.05Z</time></trkpt><trkpt lat="42.1925231" lon="11.8973808"><ele>332.0</ele><time>2026-04-19T08:27:53.057Z</time></trkpt><trkpt lat="42.1924524" lon="11.8973667"><ele>332.0</ele><time>2026-04-19T08:27:54.033Z</time></trkpt><trkpt lat="42.1923876" lon="11.8973678"><ele>332.0</ele><time>2026-04-19T08:27:55.041Z</time></trkpt><trkpt lat="42.192321" lon="11.8974094"><ele>332.0</ele><time>2026-04-19T08:27:56.039Z</time></trkpt><trkpt lat="42.1922604" lon="11.89747"><ele>332.0</ele><time>2026-04-19T08:27:57.045Z</time></trkpt><trkpt lat="42.1922025" lon="11.897551"><ele>332.0</ele><time>2026-04-19T08:27:58.049Z</time></trkpt><trkpt lat="42.1921631" lon="11.8976389"><ele>332.33333333333337</ele><time>2026-04-19T08:27:59.035Z</time></trkpt><trkpt lat="42.1921258" lon="11.8977288"><ele>332.6666666666667</ele><time>2026-04-19T08:28:00.039Z</time></trkpt><trkpt lat="42.1920936" lon="11.8978231"><ele>333.0</ele><time>2026-04-19T08:28:01.039Z</time></trkpt><trkpt lat="42.1920592" lon="11.8979227"><ele>333.3333333333333</ele><time>2026-04-19T08:28:02.037Z</time></trkpt><trkpt lat="42.1920233" lon="11.8980201"><ele>333.66666666666663</ele><time>2026-04-19T08:28:03.044Z</time></trkpt><trkpt lat="42.1919839" lon="11.8981153"><ele>334.0</ele><time>2026-04-19T08:28:04.051Z</time></trkpt><trkpt lat="42.1919412" lon="11.898209"><ele>334.0</ele><time>2026-04-19T08:28:05.03Z</time></trkpt><trkpt lat="42.1918948" lon="11.8982967"><ele>334.0</ele><time>2026-04-19T08:28:06.042Z</time></trkpt><trkpt lat="42.191852" lon="11.8983839"><ele>334.0</ele><time>2026-04-19T08:28:07.046Z</time></trkpt><trkpt lat="42.1918051" lon="11.8984768"><ele>334.0</ele><time>2026-04-19T08:28:08.034Z</time></trkpt><trkpt lat="42.1917615" lon="11.8985622"><ele>334.0</ele><time>2026-04-19T08:28:09.048Z</time></trkpt><trkpt lat="42.1917197" lon="11.8986569"><ele>334.0</ele><time>2026-04-19T08:28:10.039Z</time></trkpt><trkpt lat="42.1916774" lon="11.8987534"><ele>334.16666666666663</ele><time>2026-04-19T08:28:11.032Z</time></trkpt><trkpt lat="42.191628" lon="11.8988533"><ele>334.3333333333333</ele><time>2026-04-19T08:28:12.038Z</time></trkpt><trkpt lat="42.1915818" lon="11.8989451"><ele>334.5</ele><time>2026-04-19T08:28:13.048Z</time></trkpt><trkpt lat="42.1915335" lon="11.8990338"><ele>334.6666666666667</ele><time>2026-04-19T08:28:14.041Z</time></trkpt><trkpt lat="42.1914863" lon="11.8991217"><ele>334.83333333333337</ele><time>2026-04-19T08:28:15.037Z</time></trkpt><trkpt lat="42.1914441" lon="11.8992124"><ele>335.0</ele><time>2026-04-19T08:28:16.038Z</time></trkpt><trkpt lat="42.1914065" lon="11.8993017"><ele>335.0</ele><time>2026-04-19T08:28:17.037Z</time></trkpt><trkpt lat="42.1913492" lon="11.8993999"><ele>335.0</ele><time>2026-04-19T08:28:18.048Z</time></trkpt><trkpt lat="42.1912998" lon="11.8994879"><ele>335.0</ele><time>2026-04-19T08:28:19.045Z</time></trkpt><trkpt lat="42.1912562" lon="11.8995828"><ele>335.0</ele><time>2026-04-19T08:28:20.037Z</time></trkpt><trkpt lat="42.1912148" lon="11.8996816"><ele>335.0</ele><time>2026-04-19T08:28:21.039Z</time></trkpt><trkpt lat="42.1911807" lon="11.8997828"><ele>335.0</ele><time>2026-04-19T08:28:22.037Z</time></trkpt><trkpt lat="42.1911536" lon="11.8998957"><ele>335.0</ele><time>2026-04-19T08:28:23.035Z</time></trkpt><trkpt lat="42.1911336" lon="11.9000146"><ele>335.0</ele><time>2026-04-19T08:28:24.035Z</time></trkpt><trkpt lat="42.1911209" lon="11.9001405"><ele>335.0</ele><time>2026-04-19T08:28:25.041Z</time></trkpt><trkpt lat="42.1911109" lon="11.9002676"><ele>335.0</ele><time>2026-04-19T08:28:26.035Z</time></trkpt><trkpt lat="42.1911006" lon="11.9003841"><ele>335.0</ele><time>2026-04-19T08:28:27.046Z</time></trkpt><trkpt lat="42.1910902" lon="11.9004894"><ele>335.0</ele><time>2026-04-19T08:28:28.031Z</time></trkpt><trkpt lat="42.1910805" lon="11.900594"><ele>334.85714285714283</ele><time>2026-04-19T08:28:29.042Z</time></trkpt><trkpt lat="42.1910744" lon="11.9006958"><ele>334.7142857142857</ele><time>2026-04-19T08:28:30.037Z</time></trkpt><trkpt lat="42.1910696" lon="11.9007945"><ele>334.57142857142856</ele><time>2026-04-19T08:28:31.044Z</time></trkpt><trkpt lat="42.1910639" lon="11.9008942"><ele>334.42857142857144</ele><time>2026-04-19T08:28:32.037Z</time></trkpt><trkpt lat="42.1910581" lon="11.9009953"><ele>334.2857142857143</ele><time>2026-04-19T08:28:33.044Z</time></trkpt><trkpt lat="42.191052" lon="11.9010896"><ele>334.1428571428571</ele><time>2026-04-19T08:28:34.047Z</time></trkpt><trkpt lat="42.1910451" lon="11.901178"><ele>334.0</ele><time>2026-04-19T08:28:35.037Z</time></trkpt><trkpt lat="42.191031" lon="11.9013403"><ele>334.7142857142857</ele><time>2026-04-19T08:28:37.041Z</time></trkpt><trkpt lat="42.1910155" lon="11.9014255"><ele>335.42857142857144</ele><time>2026-04-19T08:28:38.035Z</time></trkpt><trkpt lat="42.1909896" lon="11.901509"><ele>336.1428571428571</ele><time>2026-04-19T08:28:39.048Z</time></trkpt><trkpt lat="42.1909471" lon="11.9015871"><ele>336.8571428571429</ele><time>2026-04-19T08:28:40.038Z</time></trkpt><trkpt lat="42.1908992" lon="11.9016581"><ele>337.5714285714286</ele><time>2026-04-19T08:28:41.038Z</time></trkpt><trkpt lat="42.1908526" lon="11.9017342"><ele>338.2857142857143</ele><time>2026-04-19T08:28:42.04Z</time></trkpt><trkpt lat="42.1908151" lon="11.9018232"><ele>339.0</ele><time>2026-04-19T08:28:43.044Z</time></trkpt><trkpt lat="42.1907888" lon="11.9019241"><ele>339.7142857142857</ele><time>2026-04-19T08:28:44.037Z</time></trkpt><trkpt lat="42.1907613" lon="11.9020236"><ele>340.42857142857144</ele><time>2026-04-19T08:28:45.037Z</time></trkpt><trkpt lat="42.1907428" lon="11.9021156"><ele>341.14285714285717</ele><time>2026-04-19T08:28:46.041Z</time></trkpt><trkpt lat="42.1907277" lon="11.9022144"><ele>341.8571428571429</ele><time>2026-04-19T08:28:47.055Z</time></trkpt><trkpt lat="42.1907187" lon="11.9023136"><ele>342.57142857142856</ele><time>2026-04-19T08:28:48.038Z</time></trkpt><trkpt lat="42.1907105" lon="11.9024024"><ele>343.28571428571433</ele><time>2026-04-19T08:28:49.041Z</time></trkpt><trkpt lat="42.1907005" lon="11.9024921"><ele>344.0</ele><time>2026-04-19T08:28:50.04Z</time></trkpt><trkpt lat="42.1906849" lon="11.9025809"><ele>346.14285714285717</ele><time>2026-04-19T08:28:51.04Z</time></trkpt><trkpt lat="42.1906669" lon="11.9026642"><ele>348.2857142857143</ele><time>2026-04-19T08:28:52.048Z</time></trkpt><trkpt lat="42.1906479" lon="11.9027494"><ele>350.42857142857144</ele><time>2026-04-19T08:28:53.046Z</time></trkpt><trkpt lat="42.190629" lon="11.9028382"><ele>352.57142857142856</ele><time>2026-04-19T08:28:54.041Z</time></trkpt><trkpt lat="42.1906113" lon="11.9029314"><ele>354.7142857142857</ele><time>2026-04-19T08:28:55.045Z</time></trkpt><trkpt lat="42.1905965" lon="11.903034"><ele>356.8571428571429</ele><time>2026-04-19T08:28:56.051Z</time></trkpt><trkpt lat="42.1905811" lon="11.9031404"><ele>359.0</ele><time>2026-04-19T08:28:57.046Z</time></trkpt><trkpt lat="42.1905588" lon="11.9032597"><ele>359.0</ele><time>2026-04-19T08:28:58.042Z</time></trkpt><trkpt lat="42.1905379" lon="11.9033734"><ele>359.0</ele><time>2026-04-19T08:28:59.038Z</time></trkpt><trkpt lat="42.1905182" lon="11.9034852"><ele>359.0</ele><time>2026-04-19T08:29:00.036Z</time></trkpt><trkpt lat="42.1904994" lon="11.9035973"><ele>359.0</ele><time>2026-04-19T08:29:01.044Z</time></trkpt><trkpt lat="42.190482" lon="11.9037079"><ele>359.0</ele><time>2026-04-19T08:29:02.038Z</time></trkpt><trkpt lat="42.1904638" lon="11.9038207"><ele>359.0</ele><time>2026-04-19T08:29:03.039Z</time></trkpt><trkpt lat="42.1904474" lon="11.9039457"><ele>360.33333333333337</ele><time>2026-04-19T08:29:04.037Z</time></trkpt><trkpt lat="42.1904334" lon="11.9040574"><ele>361.6666666666667</ele><time>2026-04-19T08:29:05.036Z</time></trkpt><trkpt lat="42.1904157" lon="11.9041733"><ele>363.0</ele><time>2026-04-19T08:29:06.034Z</time></trkpt><trkpt lat="42.1904066" lon="11.9042945"><ele>364.3333333333333</ele><time>2026-04-19T08:29:07.045Z</time></trkpt><trkpt lat="42.1903907" lon="11.9044154"><ele>365.66666666666663</ele><time>2026-04-19T08:29:08.042Z</time></trkpt><trkpt lat="42.1903695" lon="11.9045317"><ele>367.0</ele><time>2026-04-19T08:29:09.037Z</time></trkpt><trkpt lat="42.1903414" lon="11.9046504"><ele>367.0</ele><time>2026-04-19T08:29:10.042Z</time></trkpt><trkpt lat="42.1903024" lon="11.9047642"><ele>367.0</ele><time>2026-04-19T08:29:11.037Z</time></trkpt><trkpt lat="42.1902541" lon="11.9048628"><ele>367.0</ele><time>2026-04-19T08:29:12.035Z</time></trkpt><trkpt lat="42.1901939" lon="11.9049477"><ele>367.0</ele><time>2026-04-19T08:29:13.046Z</time></trkpt><trkpt lat="42.1901287" lon="11.9050298"><ele>367.0</ele><time>2026-04-19T08:29:14.045Z</time></trkpt><trkpt lat="42.1900647" lon="11.9051173"><ele>367.0</ele><time>2026-04-19T08:29:15.038Z</time></trkpt><trkpt lat="42.1900081" lon="11.9052176"><ele>366.6</ele><time>2026-04-19T08:29:16.047Z</time></trkpt><trkpt lat="42.1899536" lon="11.9053171"><ele>366.20000000000005</ele><time>2026-04-19T08:29:17.052Z</time></trkpt><trkpt lat="42.1899237" lon="11.9054292"><ele>365.8</ele><time>2026-04-19T08:29:18.042Z</time></trkpt><trkpt lat="42.1899121" lon="11.9055488"><ele>365.4</ele><time>2026-04-19T08:29:19.048Z</time></trkpt><trkpt lat="42.1898991" lon="11.9056667"><ele>365.0</ele><time>2026-04-19T08:29:20.039Z</time></trkpt><trkpt lat="42.189883" lon="11.9057995"><ele>364.83333333333337</ele><time>2026-04-19T08:29:21.034Z</time></trkpt><trkpt lat="42.1898662" lon="11.905925"><ele>364.6666666666667</ele><time>2026-04-19T08:29:22.033Z</time></trkpt><trkpt lat="42.1898554" lon="11.9060481"><ele>364.5</ele><time>2026-04-19T08:29:23.044Z</time></trkpt><trkpt lat="42.1898454" lon="11.9061602"><ele>364.3333333333333</ele><time>2026-04-19T08:29:24.042Z</time></trkpt><trkpt lat="42.1898389" lon="11.9062638"><ele>364.16666666666663</ele><time>2026-04-19T08:29:25.036Z</time></trkpt><trkpt lat="42.1898217" lon="11.906384"><ele>364.0</ele><time>2026-04-19T08:29:26.037Z</time></trkpt><trkpt lat="42.1897921" lon="11.9065082"><ele>361.5</ele><time>2026-04-19T08:29:27.044Z</time></trkpt><trkpt lat="42.1897498" lon="11.9066218"><ele>359.0</ele><time>2026-04-19T08:29:28.044Z</time></trkpt><trkpt lat="42.1905811" lon="11.9031404"><ele>359.0</ele><time>2026-04-19T08:28:57.046Z</time></trkpt><trkpt lat="42.1905588" lon="11.9032597"><ele>359.0</ele><time>2026-04-19T08:28:58.042Z</time></trkpt><trkpt lat="42.1905379" lon="11.9033734"><ele>359.0</ele><time>2026-04-19T08:28:59.038Z</time></trkpt><trkpt lat="42.1905182" lon="11.9034852"><ele>359.0</ele><time>2026-04-19T08:29:00.036Z</time></trkpt><trkpt lat="42.1904994" lon="11.9035973"><ele>359.0</ele><time>2026-04-19T08:29:01.044Z</time></trkpt><trkpt lat="42.190482" lon="11.9037079"><ele>359.0</ele><time>2026-04-19T08:29:02.038Z</time></trkpt><trkpt lat="42.1904638" lon="11.9038207"><ele>360.33333333333337</ele><time>2026-04-19T08:29:03.039Z</time></trkpt><trkpt lat="42.1904474" lon="11.9039457"><ele>361.6666666666667</ele><time>2026-04-19T08:29:04.037Z</time></trkpt><trkpt lat="42.1904334" lon="11.9040574"><ele>363.0</ele><time>2026-04-19T08:29:05.036Z</time></trkpt><trkpt lat="42.1904157" lon="11.9041733"><ele>364.3333333333333</ele><time>2026-04-19T08:29:06.034Z</time></trkpt><trkpt lat="42.1904066" lon="11.9042945"><ele>365.66666666666663</ele><time>2026-04-19T08:29:07.045Z</time></trkpt><trkpt lat="42.1903907" lon="11.9044154"><ele>367.0</ele><time>2026-04-19T08:29:08.042Z</time></trkpt><trkpt lat="42.1903695" lon="11.9045317"><ele>367.0</ele><time>2026-04-19T08:29:09.037Z</time></trkpt><trkpt lat="42.1903414" lon="11.9046504"><ele>367.0</ele><time>2026-04-19T08:29:10.042Z</time></trkpt><trkpt lat="42.1903024" lon="11.9047642"><ele>367.0</ele><time>2026-04-19T08:29:11.037Z</time></trkpt><trkpt lat="42.1902541" lon="11.9048628"><ele>367.0</ele><time>2026-04-19T08:29:12.035Z</time></trkpt><trkpt lat="42.1901939" lon="11.9049477"><ele>367.0</ele><time>2026-04-19T08:29:13.046Z</time></trkpt><trkpt lat="42.1901287" lon="11.9050298"><ele>367.0</ele><time>2026-04-19T08:29:14.045Z</time></trkpt><trkpt lat="42.1900647" lon="11.9051173"><ele>366.6</ele><time>2026-04-19T08:29:15.038Z</time></trkpt><trkpt lat="42.1900081" lon="11.9052176"><ele>366.20000000000005</ele><time>2026-04-19T08:29:16.047Z</time></trkpt><trkpt lat="42.1899536" lon="11.9053171"><ele>365.8</ele><time>2026-04-19T08:29:17.052Z</time></trkpt><trkpt lat="42.1899237" lon="11.9054292"><ele>365.4</ele><time>2026-04-19T08:29:18.042Z</time></trkpt><trkpt lat="42.1899121" lon="11.9055488"><ele>365.0</ele><time>2026-04-19T08:29:19.048Z</time></trkpt><trkpt lat="42.1898991" lon="11.9056667"><ele>365.0</ele><time>2026-04-19T08:29:20.039Z</time></trkpt><trkpt lat="42.189883" lon="11.9057995"><ele>365.0</ele><time>2026-04-19T08:29:21.034Z</time></trkpt><trkpt lat="42.1898662" lon="11.905925"><ele>365.0</ele><time>2026-04-19T08:29:22.033Z</time></trkpt><trkpt lat="42.1898554" lon="11.9060481"><ele>365.0</ele><time>2026-04-19T08:29:23.044Z</time></trkpt><trkpt lat="42.1898454" lon="11.9061602"><ele>365.0</ele><time>2026-04-19T08:29:24.042Z</time></trkpt><trkpt lat="42.1898389" lon="11.9062638"><ele>365.0</ele><time>2026-04-19T08:29:25.036Z</time></trkpt><trkpt lat="42.1898217" lon="11.906384"><ele>373.6</ele><time>2026-04-19T08:29:26.037Z</time></trkpt><trkpt lat="42.1897921" lon="11.9065082"><ele>382.2</ele><time>2026-04-19T08:29:27.044Z</time></trkpt><trkpt lat="42.1897498" lon="11.9066218"><ele>390.79999999999995</ele><time>2026-04-19T08:29:28.044Z</time></trkpt><trkpt lat="42.1897094" lon="11.9067352"><ele>399.4</ele><time>2026-04-19T08:29:29.045Z</time></trkpt><trkpt lat="42.1896762" lon="11.9068585"><ele>408.0</ele><time>2026-04-19T08:29:30.044Z</time></trkpt><trkpt lat="42.1896598" lon="11.906984"><ele>408.0</ele><time>2026-04-19T08:29:31.053Z</time></trkpt><trkpt lat="42.1896549" lon="11.9071036"><ele>408.0</ele><time>2026-04-19T08:29:32.045Z</time></trkpt><trkpt lat="42.1896474" lon="11.9072223"><ele>408.0</ele><time>2026-04-19T08:29:33.039Z</time></trkpt><trkpt lat="42.1896289" lon="11.9073334"><ele>408.0</ele><time>2026-04-19T08:29:34.032Z</time></trkpt><trkpt lat="42.1896109" lon="11.9074434"><ele>408.0</ele><time>2026-04-19T08:29:35.045Z</time></trkpt><trkpt lat="42.1895748" lon="11.9075438"><ele>408.0</ele><time>2026-04-19T08:29:36.041Z</time></trkpt><trkpt lat="42.1895371" lon="11.90764"><ele>406.1666666666667</ele><time>2026-04-19T08:29:37.037Z</time></trkpt><trkpt lat="42.1895005" lon="11.9077496"><ele>404.33333333333337</ele><time>2026-04-19T08:29:38.048Z</time></trkpt><trkpt lat="42.1894709" lon="11.907857"><ele>402.5</ele><time>2026-04-19T08:29:39.035Z</time></trkpt><trkpt lat="42.1894353" lon="11.9079725"><ele>400.6666666666667</ele><time>2026-04-19T08:29:40.044Z</time></trkpt><trkpt lat="42.189399" lon="11.9080731"><ele>398.83333333333337</ele><time>2026-04-19T08:29:41.044Z</time></trkpt><trkpt lat="42.1893644" lon="11.9081744"><ele>397.0</ele><time>2026-04-19T08:29:42.034Z</time></trkpt><trkpt lat="42.189331" lon="11.9082864"><ele>397.0</ele><time>2026-04-19T08:29:43.048Z</time></trkpt><trkpt lat="42.1892875" lon="11.9083957"><ele>397.0</ele><time>2026-04-19T08:29:44.036Z</time></trkpt><trkpt lat="42.1892378" lon="11.9085046"><ele>397.0</ele><time>2026-04-19T08:29:45.035Z</time></trkpt><trkpt lat="42.1891826" lon="11.9085939"><ele>397.0</ele><time>2026-04-19T08:29:46.044Z</time></trkpt><trkpt lat="42.1891236" lon="11.9086791"><ele>397.0</ele><time>2026-04-19T08:29:47.045Z</time></trkpt><trkpt lat="42.1890596" lon="11.9087698"><ele>400.0</ele><time>2026-04-19T08:29:48.042Z</time></trkpt><trkpt lat="42.1890028" lon="11.9088583"><ele>403.0</ele><time>2026-04-19T08:29:49.036Z</time></trkpt><trkpt lat="42.1889537" lon="11.9089558"><ele>406.0</ele><time>2026-04-19T08:29:50.042Z</time></trkpt><trkpt lat="42.1889029" lon="11.9090564"><ele>409.0</ele><time>2026-04-19T08:29:51.042Z</time></trkpt><trkpt lat="42.1888615" lon="11.9091726"><ele>412.0</ele><time>2026-04-19T08:29:52.036Z</time></trkpt><trkpt lat="42.1888314" lon="11.9092937"><ele>412.0</ele><time>2026-04-19T08:29:53.042Z</time></trkpt><trkpt lat="42.1888193" lon="11.9094144"><ele>412.0</ele><time>2026-04-19T08:29:54.047Z</time></trkpt><trkpt lat="42.1888044" lon="11.9095433"><ele>412.0</ele><time>2026-04-19T08:29:55.038Z</time></trkpt><trkpt lat="42.1887917" lon="11.9096656"><ele>412.0</ele><time>2026-04-19T08:29:56.037Z</time></trkpt><trkpt lat="42.1887682" lon="11.9097903"><ele>412.0</ele><time>2026-04-19T08:29:57.039Z</time></trkpt><trkpt lat="42.1887501" lon="11.909914"><ele>412.00000000000006</ele><time>2026-04-19T08:29:58.037Z</time></trkpt><trkpt lat="42.1887434" lon="11.9100276"><ele>412.0</ele><time>2026-04-19T08:29:59.044Z</time></trkpt><trkpt lat="42.1887383" lon="11.9101412"><ele>412.0</ele><time>2026-04-19T08:30:00.034Z</time></trkpt><trkpt lat="42.1887556" lon="11.9102468"><ele>412.0</ele><time>2026-04-19T08:30:01.04Z</time></trkpt><trkpt lat="42.1887778" lon="11.9103522"><ele>412.00000000000006</ele><time>2026-04-19T08:30:02.039Z</time></trkpt><trkpt lat="42.1887953" lon="11.9104628"><ele>412.0</ele><time>2026-04-19T08:30:03.038Z</time></trkpt><trkpt lat="42.1887996" lon="11.9105892"><ele>412.0</ele><time>2026-04-19T08:30:04.032Z</time></trkpt><trkpt lat="42.1887799" lon="11.9107166"><ele>412.0</ele><time>2026-04-19T08:30:05.03Z</time></trkpt><trkpt lat="42.1887506" lon="11.9108297"><ele>412.0</ele><time>2026-04-19T08:30:06.031Z</time></trkpt><trkpt lat="42.1887068" lon="11.9109631"><ele>412.0</ele><time>2026-04-19T08:30:07.036Z</time></trkpt><trkpt lat="42.1886588" lon="11.9110862"><ele>412.0</ele><time>2026-04-19T08:30:08.039Z</time></trkpt><trkpt lat="42.1886349" lon="11.9112171"><ele>411.6</ele><time>2026-04-19T08:30:09.039Z</time></trkpt><trkpt lat="42.1886099" lon="11.9113499"><ele>411.20000000000005</ele><time>2026-04-19T08:30:10.032Z</time></trkpt><trkpt lat="42.1885964" lon="11.9114805"><ele>410.8</ele><time>2026-04-19T08:30:11.044Z</time></trkpt><trkpt lat="42.1886098" lon="11.9116185"><ele>410.4</ele><time>2026-04-19T08:30:12.038Z</time></trkpt><trkpt lat="42.1886273" lon="11.911743"><ele>410.0</ele><time>2026-04-19T08:30:13.044Z</time></trkpt><trkpt lat="42.1886516" lon="11.911858"><ele>409.8</ele><time>2026-04-19T08:30:14.04Z</time></trkpt><trkpt lat="42.1886635" lon="11.9119789"><ele>409.6</ele><time>2026-04-19T08:30:15.043Z</time></trkpt><trkpt lat="42.1886675" lon="11.9121087"><ele>409.4</ele><time>2026-04-19T08:30:16.042Z</time></trkpt><trkpt lat="42.1886574" lon="11.9122509"><ele>409.2</ele><time>2026-04-19T08:30:17.04Z</time></trkpt><trkpt lat="42.1886285" lon="11.9123789"><ele>409.0</ele><time>2026-04-19T08:30:18.054Z</time></trkpt><trkpt lat="42.1885689" lon="11.9124817"><ele>406.79999999999995</ele><time>2026-04-19T08:30:19.04Z</time></trkpt><trkpt lat="42.1885026" lon="11.9125745"><ele>404.59999999999997</ele><time>2026-04-19T08:30:20.049Z</time></trkpt><trkpt lat="42.1884246" lon="11.9126569"><ele>402.4</ele><time>2026-04-19T08:30:21.038Z</time></trkpt><trkpt lat="42.1883445" lon="11.912728"><ele>400.2</ele><time>2026-04-19T08:30:22.036Z</time></trkpt><trkpt lat="42.1882626" lon="11.9127928"><ele>398.0</ele><time>2026-04-19T08:30:23.041Z</time></trkpt><trkpt lat="42.1881858" lon="11.912868"><ele>403.4</ele><time>2026-04-19T08:30:24.047Z</time></trkpt><trkpt lat="42.1881054" lon="11.9129401"><ele>408.79999999999995</ele><time>2026-04-19T08:30:25.037Z</time></trkpt><trkpt lat="42.1880161" lon="11.9129965"><ele>414.2</ele><time>2026-04-19T08:30:26.039Z</time></trkpt><trkpt lat="42.1879264" lon="11.9130477"><ele>419.6</ele><time>2026-04-19T08:30:27.039Z</time></trkpt><trkpt lat="42.1878356" lon="11.9131027"><ele>425.0</ele><time>2026-04-19T08:30:28.033Z</time></trkpt><trkpt lat="42.1877513" lon="11.9131673"><ele>425.0</ele><time>2026-04-19T08:30:29.037Z</time></trkpt><trkpt lat="42.18767" lon="11.9132305"><ele>425.0</ele><time>2026-04-19T08:30:30.037Z</time></trkpt><trkpt lat="42.1876051" lon="11.913313"><ele>425.0</ele><time>2026-04-19T08:30:31.037Z</time></trkpt><trkpt lat="42.1875554" lon="11.9134217"><ele>425.0</ele><time>2026-04-19T08:30:32.034Z</time></trkpt><trkpt lat="42.1875187" lon="11.9135382"><ele>425.0</ele><time>2026-04-19T08:30:33.043Z</time></trkpt><trkpt lat="42.1875012" lon="11.9136653"><ele>425.0</ele><time>2026-04-19T08:30:34.045Z</time></trkpt><trkpt lat="42.187496" lon="11.9138088"><ele>425.0</ele><time>2026-04-19T08:30:35.033Z</time></trkpt><trkpt lat="42.1874946" lon="11.9139461"><ele>425.0</ele><time>2026-04-19T08:30:36.033Z</time></trkpt><trkpt lat="42.1874998" lon="11.914091"><ele>425.0</ele><time>2026-04-19T08:30:37.035Z</time></trkpt><trkpt lat="42.1875384" lon="11.9142409"><ele>425.0</ele><time>2026-04-19T08:30:38.041Z</time></trkpt><trkpt lat="42.1875798" lon="11.9143799"><ele>425.0</ele><time>2026-04-19T08:30:39.049Z</time></trkpt><trkpt lat="42.1876298" lon="11.9145119"><ele>425.0</ele><time>2026-04-19T08:30:40.034Z</time></trkpt><trkpt lat="42.1876899" lon="11.9146481"><ele>425.0</ele><time>2026-04-19T08:30:41.035Z</time></trkpt><trkpt lat="42.1877368" lon="11.9147978"><ele>425.0</ele><time>2026-04-19T08:30:42.035Z</time></trkpt><trkpt lat="42.1877676" lon="11.9149228"><ele>425.0</ele><time>2026-04-19T08:30:43.044Z</time></trkpt><trkpt lat="42.1877928" lon="11.9150571"><ele>424.16666666666663</ele><time>2026-04-19T08:30:44.037Z</time></trkpt><trkpt lat="42.1878186" lon="11.9151897"><ele>423.3333333333333</ele><time>2026-04-19T08:30:45.039Z</time></trkpt><trkpt lat="42.1878398" lon="11.9153094"><ele>422.5</ele><time>2026-04-19T08:30:46.036Z</time></trkpt><trkpt lat="42.1878435" lon="11.9154137"><ele>421.66666666666663</ele><time>2026-04-19T08:30:47.038Z</time></trkpt><trkpt lat="42.1878453" lon="11.9155089"><ele>420.8333333333333</ele><time>2026-04-19T08:30:48.042Z</time></trkpt><trkpt lat="42.1878172" lon="11.9155853"><ele>420.0</ele><time>2026-04-19T08:30:49.04Z</time></trkpt><trkpt lat="42.1877769" lon="11.9156618"><ele>420.0</ele><time>2026-04-19T08:30:50.047Z</time></trkpt><trkpt lat="42.1877032" lon="11.9157252"><ele>420.0</ele><time>2026-04-19T08:30:51.058Z</time></trkpt><trkpt lat="42.1876059" lon="11.9157808"><ele>420.0</ele><time>2026-04-19T08:30:52.039Z</time></trkpt><trkpt lat="42.1874912" lon="11.9158238"><ele>420.0</ele><time>2026-04-19T08:30:53.036Z</time></trkpt><trkpt lat="42.1873643" lon="11.9158719"><ele>420.0</ele><time>2026-04-19T08:30:54.031Z</time></trkpt><trkpt lat="42.187239" lon="11.9159206"><ele>418.75</ele><time>2026-04-19T08:30:55.049Z</time></trkpt><trkpt lat="42.1871243" lon="11.9159793"><ele>417.5</ele><time>2026-04-19T08:30:56.036Z</time></trkpt><trkpt lat="42.1870123" lon="11.9160529"><ele>416.25</ele><time>2026-04-19T08:30:57.048Z</time></trkpt><trkpt lat="42.1869041" lon="11.9161253"><ele>415.0</ele><time>2026-04-19T08:30:58.037Z</time></trkpt><trkpt lat="42.1868008" lon="11.916197"><ele>415.0</ele><time>2026-04-19T08:30:59.042Z</time></trkpt><trkpt lat="42.1867002" lon="11.9162692"><ele>415.0</ele><time>2026-04-19T08:31:00.041Z</time></trkpt><trkpt lat="42.1866071" lon="11.9163338"><ele>415.0</ele><time>2026-04-19T08:31:01.034Z</time></trkpt><trkpt lat="42.1865149" lon="11.9163908"><ele>415.0</ele><time>2026-04-19T08:31:02.037Z</time></trkpt><trkpt lat="42.1864136" lon="11.9164482"><ele>415.0</ele><time>2026-04-19T08:31:03.055Z</time></trkpt><trkpt lat="42.1863203" lon="11.9165203"><ele>414.6</ele><time>2026-04-19T08:31:04.043Z</time></trkpt><trkpt lat="42.1862293" lon="11.9165891"><ele>414.2</ele><time>2026-04-19T08:31:05.04Z</time></trkpt><trkpt lat="42.1861529" lon="11.9166728"><ele>413.79999999999995</ele><time>2026-04-19T08:31:06.037Z</time></trkpt><trkpt lat="42.1860756" lon="11.9167747"><ele>413.4</ele><time>2026-04-19T08:31:07.042Z</time></trkpt><trkpt lat="42.1859972" lon="11.9168916"><ele>413.0</ele><time>2026-04-19T08:31:08.038Z</time></trkpt><trkpt lat="42.1859029" lon="11.9170314"><ele>413.0</ele><time>2026-04-19T08:31:09.05Z</time></trkpt><trkpt lat="42.1858124" lon="11.9171728"><ele>413.0</ele><time>2026-04-19T08:31:10.047Z</time></trkpt><trkpt lat="42.1857182" lon="11.9173101"><ele>413.0</ele><time>2026-04-19T08:31:11.04Z</time></trkpt><trkpt lat="42.1856328" lon="11.9174415"><ele>413.0</ele><time>2026-04-19T08:31:12.044Z</time></trkpt><trkpt lat="42.185552" lon="11.917573"><ele>414.25</ele><time>2026-04-19T08:31:13.057Z</time></trkpt><trkpt lat="42.1854717" lon="11.9177054"><ele>415.5</ele><time>2026-04-19T08:31:14.048Z</time></trkpt><trkpt lat="42.1853992" lon="11.9178354"><ele>416.75</ele><time>2026-04-19T08:31:15.045Z</time></trkpt><trkpt lat="42.1853312" lon="11.9179589"><ele>418.0</ele><time>2026-04-19T08:31:16.048Z</time></trkpt><trkpt lat="42.1852685" lon="11.9180691"><ele>418.00000000000006</ele><time>2026-04-19T08:31:17.049Z</time></trkpt><trkpt lat="42.1852114" lon="11.9181633"><ele>418.0</ele><time>2026-04-19T08:31:18.039Z</time></trkpt><trkpt lat="42.1851519" lon="11.9182277"><ele>418.0</ele><time>2026-04-19T08:31:19.048Z</time></trkpt><trkpt lat="42.1850871" lon="11.9182803"><ele>418.0</ele><time>2026-04-19T08:31:20.043Z</time></trkpt><trkpt lat="42.1850237" lon="11.9183016"><ele>418.00000000000006</ele><time>2026-04-19T08:31:21.063Z</time></trkpt><trkpt lat="42.1849447" lon="11.9182851"><ele>418.0</ele><time>2026-04-19T08:31:22.042Z</time></trkpt><trkpt lat="42.1848625" lon="11.9182498"><ele>419.4</ele><time>2026-04-19T08:31:23.044Z</time></trkpt><trkpt lat="42.1847756" lon="11.9182177"><ele>420.79999999999995</ele><time>2026-04-19T08:31:24.039Z</time></trkpt><trkpt lat="42.1846739" lon="11.9181855"><ele>422.2</ele><time>2026-04-19T08:31:25.042Z</time></trkpt><trkpt lat="42.1845605" lon="11.9181513"><ele>423.6</ele><time>2026-04-19T08:31:26.041Z</time></trkpt><trkpt lat="42.1844401" lon="11.9181241"><ele>425.0</ele><time>2026-04-19T08:31:27.037Z</time></trkpt><trkpt lat="42.184314" lon="11.9181082"><ele>425.0</ele><time>2026-04-19T08:31:28.038Z</time></trkpt><trkpt lat="42.1841845" lon="11.9180897"><ele>425.0</ele><time>2026-04-19T08:31:29.036Z</time></trkpt><trkpt lat="42.1840549" lon="11.9180614"><ele>425.0</ele><time>2026-04-19T08:31:30.041Z</time></trkpt><trkpt lat="42.1839302" lon="11.9180471"><ele>425.0</ele><time>2026-04-19T08:31:31.04Z</time></trkpt><trkpt lat="42.1838086" lon="11.9180322"><ele>427.5</ele><time>2026-04-19T08:31:32.046Z</time></trkpt><trkpt lat="42.183686" lon="11.9180415"><ele>430.0</ele><time>2026-04-19T08:31:33.043Z</time></trkpt><trkpt lat="42.1835667" lon="11.9180763"><ele>432.5</ele><time>2026-04-19T08:31:34.041Z</time></trkpt><trkpt lat="42.1834574" lon="11.9181152"><ele>435.0</ele><time>2026-04-19T08:31:35.054Z</time></trkpt><trkpt lat="42.1833516" lon="11.9181569"><ele>435.0</ele><time>2026-04-19T08:31:36.044Z</time></trkpt><trkpt lat="42.1832524" lon="11.9182162"><ele>435.0</ele><time>2026-04-19T08:31:37.035Z</time></trkpt><trkpt lat="42.1831577" lon="11.9182716"><ele>435.0</ele><time>2026-04-19T08:31:38.048Z</time></trkpt><trkpt lat="42.1830642" lon="11.9183205"><ele>435.0</ele><time>2026-04-19T08:31:39.047Z</time></trkpt><trkpt lat="42.1829564" lon="11.9183608"><ele>435.0</ele><time>2026-04-19T08:31:40.037Z</time></trkpt><trkpt lat="42.1828498" lon="11.9184035"><ele>437.4</ele><time>2026-04-19T08:31:41.055Z</time></trkpt><trkpt lat="42.1827575" lon="11.9183715"><ele>439.8</ele><time>2026-04-19T08:31:42.044Z</time></trkpt><trkpt lat="42.1826689" lon="11.9183004"><ele>442.20000000000005</ele><time>2026-04-19T08:31:43.035Z</time></trkpt><trkpt lat="42.1825988" lon="11.9182086"><ele>444.6</ele><time>2026-04-19T08:31:44.051Z</time></trkpt><trkpt lat="42.1825269" lon="11.9181166"><ele>447.0</ele><time>2026-04-19T08:31:45.047Z</time></trkpt><trkpt lat="42.1824587" lon="11.9180509"><ele>447.0</ele><time>2026-04-19T08:31:46.038Z</time></trkpt><trkpt lat="42.1823798" lon="11.9180315"><ele>447.00000000000006</ele><time>2026-04-19T08:31:47.043Z</time></trkpt><trkpt lat="42.1822982" lon="11.9180133"><ele>447.00000000000006</ele><time>2026-04-19T08:31:48.038Z</time></trkpt><trkpt lat="42.1822145" lon="11.9180599"><ele>447.0</ele><time>2026-04-19T08:31:49.034Z</time></trkpt><trkpt lat="42.1821198" lon="11.9181252"><ele>447.0</ele><time>2026-04-19T08:31:50.044Z</time></trkpt><trkpt lat="42.182018" lon="11.9181993"><ele>448.0</ele><time>2026-04-19T08:31:51.04Z</time></trkpt><trkpt lat="42.1819076" lon="11.9182683"><ele>449.0</ele><time>2026-04-19T08:31:52.042Z</time></trkpt><trkpt lat="42.1818013" lon="11.918339"><ele>450.0</ele><time>2026-04-19T08:31:53.045Z</time></trkpt><trkpt lat="42.1816938" lon="11.9184118"><ele>451.0</ele><time>2026-04-19T08:31:54.036Z</time></trkpt><trkpt lat="42.1815933" lon="11.9184695"><ele>449.20000000000005</ele><time>2026-04-19T08:31:55.041Z</time></trkpt><trkpt lat="42.1814963" lon="11.9185058"><ele>447.40000000000003</ele><time>2026-04-19T08:31:56.036Z</time></trkpt><trkpt lat="42.1813956" lon="11.9185426"><ele>445.6</ele><time>2026-04-19T08:31:57.046Z</time></trkpt><trkpt lat="42.1812786" lon="11.9185369"><ele>443.8</ele><time>2026-04-19T08:31:58.039Z</time></trkpt><trkpt lat="42.1811577" lon="11.9185209"><ele>442.0</ele><time>2026-04-19T08:31:59.037Z</time></trkpt><trkpt lat="42.1810363" lon="11.9185023"><ele>442.0</ele><time>2026-04-19T08:32:00.034Z</time></trkpt><trkpt lat="42.1809149" lon="11.9184839"><ele>442.0</ele><time>2026-04-19T08:32:01.045Z</time></trkpt><trkpt lat="42.1807923" lon="11.9184604"><ele>442.0</ele><time>2026-04-19T08:32:02.04Z</time></trkpt><trkpt lat="42.1806739" lon="11.9184302"><ele>442.0</ele><time>2026-04-19T08:32:03.047Z</time></trkpt><trkpt lat="42.1805622" lon="11.9183976"><ele>441.75</ele><time>2026-04-19T08:32:04.048Z</time></trkpt><trkpt lat="42.1804467" lon="11.9183701"><ele>441.5</ele><time>2026-04-19T08:32:05.046Z</time></trkpt><trkpt lat="42.1803276" lon="11.91833"><ele>441.25</ele><time>2026-04-19T08:32:06.05Z</time></trkpt><trkpt lat="42.1802081" lon="11.9182865"><ele>441.0</ele><time>2026-04-19T08:32:07.036Z</time></trkpt><trkpt lat="42.1800784" lon="11.9182346"><ele>441.0</ele><time>2026-04-19T08:32:08.041Z</time></trkpt><trkpt lat="42.1799516" lon="11.9181844"><ele>441.0</ele><time>2026-04-19T08:32:09.046Z</time></trkpt><trkpt lat="42.1798226" lon="11.9181383"><ele>441.0</ele><time>2026-04-19T08:32:10.043Z</time></trkpt><trkpt lat="42.1796912" lon="11.9180956"><ele>441.0</ele><time>2026-04-19T08:32:11.044Z</time></trkpt><trkpt lat="42.1795699" lon="11.9180606"><ele>440.8</ele><time>2026-04-19T08:32:12.051Z</time></trkpt><trkpt lat="42.1794614" lon="11.9180285"><ele>440.6</ele><time>2026-04-19T08:32:13.04Z</time></trkpt><trkpt lat="42.1793726" lon="11.9180192"><ele>440.4</ele><time>2026-04-19T08:32:14.032Z</time></trkpt><trkpt lat="42.1792883" lon="11.9180376"><ele>440.2</ele><time>2026-04-19T08:32:15.039Z</time></trkpt><trkpt lat="42.1792083" lon="11.9180832"><ele>440.0</ele><time>2026-04-19T08:32:16.043Z</time></trkpt><trkpt lat="42.1791352" lon="11.9181533"><ele>440.0</ele><time>2026-04-19T08:32:17.042Z</time></trkpt><trkpt lat="42.1790589" lon="11.9182407"><ele>440.0</ele><time>2026-04-19T08:32:18.037Z</time></trkpt><trkpt lat="42.1789726" lon="11.9183449"><ele>440.0</ele><time>2026-04-19T08:32:19.039Z</time></trkpt><trkpt lat="42.1788783" lon="11.9184503"><ele>440.0</ele><time>2026-04-19T08:32:20.051Z</time></trkpt><trkpt lat="42.1787824" lon="11.9185614"><ele>441.25</ele><time>2026-04-19T08:32:21.052Z</time></trkpt><trkpt lat="42.1786794" lon="11.9186911"><ele>442.5</ele><time>2026-04-19T08:32:22.052Z</time></trkpt><trkpt lat="42.1785739" lon="11.9188207"><ele>443.75</ele><time>2026-04-19T08:32:23.042Z</time></trkpt><trkpt lat="42.1784513" lon="11.9189343"><ele>445.0</ele><time>2026-04-19T08:32:24.038Z</time></trkpt><trkpt lat="42.1783107" lon="11.919031"><ele>444.33333333333337</ele><time>2026-04-19T08:32:25.042Z</time></trkpt><trkpt lat="42.1781593" lon="11.9191184"><ele>443.66666666666663</ele><time>2026-04-19T08:32:26.04Z</time></trkpt><trkpt lat="42.1780088" lon="11.9192103"><ele>443.0</ele><time>2026-04-19T08:32:27.041Z</time></trkpt><trkpt lat="42.1778535" lon="11.9193103"><ele>443.0</ele><time>2026-04-19T08:32:28.045Z</time></trkpt><trkpt lat="42.177695" lon="11.9194089"><ele>443.0</ele><time>2026-04-19T08:32:29.053Z</time></trkpt><trkpt lat="42.1775433" lon="11.9195024"><ele>443.0</ele><time>2026-04-19T08:32:30.045Z</time></trkpt><trkpt lat="42.1774013" lon="11.919587"><ele>443.66666666666663</ele><time>2026-04-19T08:32:31.043Z</time></trkpt><trkpt lat="42.1772635" lon="11.919672"><ele>444.33333333333337</ele><time>2026-04-19T08:32:32.047Z</time></trkpt><trkpt lat="42.1771275" lon="11.9197729"><ele>445.0</ele><time>2026-04-19T08:32:33.05Z</time></trkpt><trkpt lat="42.1769947" lon="11.9198911"><ele>445.0</ele><time>2026-04-19T08:32:34.043Z</time></trkpt><trkpt lat="42.1768711" lon="11.9200123"><ele>445.0</ele><time>2026-04-19T08:32:35.053Z</time></trkpt><trkpt lat="42.1767497" lon="11.9201295"><ele>445.0</ele><time>2026-04-19T08:32:36.044Z</time></trkpt><trkpt lat="42.1766262" lon="11.9202317"><ele>445.0</ele><time>2026-04-19T08:32:37.038Z</time></trkpt><trkpt lat="42.1765132" lon="11.9203132"><ele>444.0</ele><time>2026-04-19T08:32:38.047Z</time></trkpt><trkpt lat="42.176398" lon="11.9203884"><ele>443.0</ele><time>2026-04-19T08:32:39.038Z</time></trkpt><trkpt lat="42.1762745" lon="11.9204514"><ele>442.0</ele><time>2026-04-19T08:32:40.067Z</time></trkpt><trkpt lat="42.1761426" lon="11.9205095"><ele>441.0</ele><time>2026-04-19T08:32:41.057Z</time></trkpt><trkpt lat="42.1760101" lon="11.9205834"><ele>441.0</ele><time>2026-04-19T08:32:42.047Z</time></trkpt><trkpt lat="42.175885" lon="11.920685"><ele>441.0</ele><time>2026-04-19T08:32:43.047Z</time></trkpt><trkpt lat="42.1757701" lon="11.9208129"><ele>441.0</ele><time>2026-04-19T08:32:44.046Z</time></trkpt><trkpt lat="42.1756664" lon="11.920956"><ele>441.0</ele><time>2026-04-19T08:32:45.035Z</time></trkpt><trkpt lat="42.1755639" lon="11.9210986"><ele>440.25</ele><time>2026-04-19T08:32:46.05Z</time></trkpt><trkpt lat="42.1754606" lon="11.9212435"><ele>439.5</ele><time>2026-04-19T08:32:47.037Z</time></trkpt><trkpt lat="42.1753492" lon="11.9213824"><ele>438.75</ele><time>2026-04-19T08:32:48.037Z</time></trkpt><trkpt lat="42.1752381" lon="11.9215074"><ele>438.0</ele><time>2026-04-19T08:32:49.055Z</time></trkpt><trkpt lat="42.1750995" lon="11.9216242"><ele>436.33333333333337</ele><time>2026-04-19T08:32:50.049Z</time></trkpt><trkpt lat="42.1749692" lon="11.921751"><ele>434.6666666666667</ele><time>2026-04-19T08:32:51.037Z</time></trkpt><trkpt lat="42.1748446" lon="11.9218694"><ele>433.0</ele><time>2026-04-19T08:32:52.047Z</time></trkpt><trkpt lat="42.1747072" lon="11.9219696"><ele>433.0</ele><time>2026-04-19T08:32:53.063Z</time></trkpt><trkpt lat="42.1745622" lon="11.9220583"><ele>433.0</ele><time>2026-04-19T08:32:54.036Z</time></trkpt><trkpt lat="42.1744268" lon="11.9221296"><ele>433.0</ele><time>2026-04-19T08:32:55.044Z</time></trkpt><trkpt lat="42.1742914" lon="11.922196"><ele>433.0</ele><time>2026-04-19T08:32:56.058Z</time></trkpt><trkpt lat="42.1741504" lon="11.922267"><ele>433.0</ele><time>2026-04-19T08:32:57.042Z</time></trkpt><trkpt lat="42.1740143" lon="11.9223499"><ele>433.0</ele><time>2026-04-19T08:32:58.036Z</time></trkpt><trkpt lat="42.1738821" lon="11.9224444"><ele>433.0</ele><time>2026-04-19T08:32:59.047Z</time></trkpt><trkpt lat="42.1737508" lon="11.9225405"><ele>433.0</ele><time>2026-04-19T08:33:00.035Z</time></trkpt><trkpt lat="42.1736238" lon="11.9226453"><ele>433.0</ele><time>2026-04-19T08:33:01.044Z</time></trkpt><trkpt lat="42.1734912" lon="11.9227413"><ele>433.0</ele><time>2026-04-19T08:33:02.053Z</time></trkpt><trkpt lat="42.1733544" lon="11.9228373"><ele>433.0</ele><time>2026-04-19T08:33:03.037Z</time></trkpt><trkpt lat="42.1732238" lon="11.9229308"><ele>432.0</ele><time>2026-04-19T08:33:04.041Z</time></trkpt><trkpt lat="42.173104" lon="11.9230214"><ele>430.99999999999994</ele><time>2026-04-19T08:33:05.048Z</time></trkpt><trkpt lat="42.1730008" lon="11.9231012"><ele>429.99999999999994</ele><time>2026-04-19T08:33:06.048Z</time></trkpt><trkpt lat="42.1729152" lon="11.9231701"><ele>429.0</ele><time>2026-04-19T08:33:07.037Z</time></trkpt><trkpt lat="42.1728419" lon="11.9232455"><ele>428.0</ele><time>2026-04-19T08:33:08.035Z</time></trkpt><trkpt lat="42.1727808" lon="11.9233186"><ele>428.3333333333333</ele><time>2026-04-19T08:33:09.044Z</time></trkpt><trkpt lat="42.1727452" lon="11.9234015"><ele>428.66666666666663</ele><time>2026-04-19T08:33:10.039Z</time></trkpt><trkpt lat="42.1727246" lon="11.9235266"><ele>429.0</ele><time>2026-04-19T08:33:12.034Z</time></trkpt><trkpt lat="42.1727229" lon="11.9236527"><ele>429.33333333333337</ele><time>2026-04-19T08:33:29.051Z</time></trkpt><trkpt lat="42.1726896" lon="11.9237656"><ele>429.6666666666667</ele><time>2026-04-19T08:33:32.041Z</time></trkpt><trkpt lat="42.1726811" lon="11.9238638"><ele>430.0</ele><time>2026-04-19T08:33:34.047Z</time></trkpt><trkpt lat="42.172693" lon="11.9240081"><ele>430.0</ele><time>2026-04-19T08:33:36.039Z</time></trkpt><trkpt lat="42.1727097" lon="11.9241326"><ele>430.0</ele><time>2026-04-19T08:33:38.041Z</time></trkpt><trkpt lat="42.1727584" lon="11.9242469"><ele>430.0</ele><time>2026-04-19T08:33:41.053Z</time></trkpt><trkpt lat="42.1728527" lon="11.9243521"><ele>430.0</ele><time>2026-04-19T08:33:43.047Z</time></trkpt><trkpt lat="42.1728996" lon="11.9244351"><ele>430.0</ele><time>2026-04-19T08:33:44.043Z</time></trkpt><trkpt lat="42.1729303" lon="11.924513"><ele>430.0</ele><time>2026-04-19T08:33:45.05Z</time></trkpt><trkpt lat="42.1729998" lon="11.9246429"><ele>430.0</ele><time>2026-04-19T08:33:47.055Z</time></trkpt><trkpt lat="42.1730392" lon="11.9247144"><ele>430.0</ele><time>2026-04-19T08:33:48.042Z</time></trkpt><trkpt lat="42.1731034" lon="11.9248345"><ele>430.0</ele><time>2026-04-19T08:33:50.04Z</time></trkpt><trkpt lat="42.173175" lon="11.9249361"><ele>430.0</ele><time>2026-04-19T08:33:52.041Z</time></trkpt><trkpt lat="42.1732738" lon="11.9250167"><ele>431.6666666666667</ele><time>2026-04-19T08:33:54.035Z</time></trkpt><trkpt lat="42.1733236" lon="11.9250826"><ele>433.33333333333337</ele><time>2026-04-19T08:33:55.048Z</time></trkpt><trkpt lat="42.1733802" lon="11.9252251"><ele>435.0</ele><time>2026-04-19T08:33:57.054Z</time></trkpt><trkpt lat="42.1733842" lon="11.92532"><ele>436.66666666666663</ele><time>2026-04-19T08:33:58.037Z</time></trkpt><trkpt lat="42.1733891" lon="11.9254324"><ele>438.3333333333333</ele><time>2026-04-19T08:33:59.051Z</time></trkpt><trkpt lat="42.173406" lon="11.9255574"><ele>440.0</ele><time>2026-04-19T08:34:00.039Z</time></trkpt><trkpt lat="42.1734102" lon="11.9256995"><ele>440.0</ele><time>2026-04-19T08:34:01.052Z</time></trkpt><trkpt lat="42.1734201" lon="11.9258598"><ele>440.0</ele><time>2026-04-19T08:34:02.043Z</time></trkpt><trkpt lat="42.1734188" lon="11.9259948"><ele>440.0</ele><time>2026-04-19T08:34:03.049Z</time></trkpt><trkpt lat="42.1734088" lon="11.9261241"><ele>440.0</ele><time>2026-04-19T08:34:04.049Z</time></trkpt><trkpt lat="42.1734019" lon="11.9262364"><ele>440.0</ele><time>2026-04-19T08:34:05.049Z</time></trkpt><trkpt lat="42.1733762" lon="11.9263237"><ele>439.6</ele><time>2026-04-19T08:34:06.048Z</time></trkpt><trkpt lat="42.1733557" lon="11.9264274"><ele>439.2</ele><time>2026-04-19T08:34:07.048Z</time></trkpt><trkpt lat="42.1733512" lon="11.9265554"><ele>438.79999999999995</ele><time>2026-04-19T08:34:08.059Z</time></trkpt><trkpt lat="42.1733703" lon="11.9266869"><ele>438.4</ele><time>2026-04-19T08:34:09.047Z</time></trkpt><trkpt lat="42.1734028" lon="11.9268207"><ele>438.0</ele><time>2026-04-19T08:34:10.045Z</time></trkpt><trkpt lat="42.1734309" lon="11.9269491"><ele>437.1666666666667</ele><time>2026-04-19T08:34:11.046Z</time></trkpt><trkpt lat="42.1734358" lon="11.9270781"><ele>436.33333333333337</ele><time>2026-04-19T08:34:12.04Z</time></trkpt><trkpt lat="42.1734401" lon="11.9271873"><ele>435.5</ele><time>2026-04-19T08:34:13.047Z</time></trkpt><trkpt lat="42.1734491" lon="11.9273001"><ele>434.6666666666667</ele><time>2026-04-19T08:34:14.035Z</time></trkpt><trkpt lat="42.1734684" lon="11.9273935"><ele>433.83333333333337</ele><time>2026-04-19T08:34:15.038Z</time></trkpt><trkpt lat="42.1735113" lon="11.9274624"><ele>433.0</ele><time>2026-04-19T08:34:16.039Z</time></trkpt><trkpt lat="42.1735718" lon="11.92752"><ele>433.0</ele><time>2026-04-19T08:34:17.045Z</time></trkpt><trkpt lat="42.1737012" lon="11.9275223"><ele>432.99999999999994</ele><time>2026-04-19T08:34:19.055Z</time></trkpt><trkpt lat="42.1737675" lon="11.9275222"><ele>432.99999999999994</ele><time>2026-04-19T08:34:20.045Z</time></trkpt><trkpt lat="42.1738626" lon="11.9275582"><ele>433.0</ele><time>2026-04-19T08:34:21.045Z</time></trkpt><trkpt lat="42.1739407" lon="11.9276511"><ele>433.0</ele><time>2026-04-19T08:34:22.044Z</time></trkpt><trkpt lat="42.1740159" lon="11.9277398"><ele>430.79999999999995</ele><time>2026-04-19T08:34:23.043Z</time></trkpt><trkpt lat="42.1740753" lon="11.927887"><ele>428.59999999999997</ele><time>2026-04-19T08:34:24.042Z</time></trkpt><trkpt lat="42.1741245" lon="11.9279975"><ele>426.4</ele><time>2026-04-19T08:34:25.042Z</time></trkpt><trkpt lat="42.1741809" lon="11.928111"><ele>424.20000000000005</ele><time>2026-04-19T08:34:27.045Z</time></trkpt><trkpt lat="42.1742274" lon="11.9281971"><ele>422.0</ele><time>2026-04-19T08:34:29.041Z</time></trkpt><trkpt lat="42.1743402" lon="11.9283068"><ele>421.99999999999994</ele><time>2026-04-19T08:34:31.04Z</time></trkpt><trkpt lat="42.1744094" lon="11.9283758"><ele>422.0</ele><time>2026-04-19T08:34:32.035Z</time></trkpt><trkpt lat="42.1744625" lon="11.9284395"><ele>422.0</ele><time>2026-04-19T08:34:33.045Z</time></trkpt><trkpt lat="42.1745209" lon="11.9285362"><ele>422.0</ele><time>2026-04-19T08:34:34.042Z</time></trkpt><trkpt lat="42.1745877" lon="11.9286445"><ele>421.99999999999994</ele><time>2026-04-19T08:34:35.037Z</time></trkpt><trkpt lat="42.1746456" lon="11.9287388"><ele>422.0</ele><time>2026-04-19T08:34:36.058Z</time></trkpt><trkpt lat="42.1746907" lon="11.9288363"><ele>421.3333333333333</ele><time>2026-04-19T08:34:37.051Z</time></trkpt><trkpt lat="42.174731" lon="11.9289229"><ele>420.66666666666663</ele><time>2026-04-19T08:34:38.046Z</time></trkpt><trkpt lat="42.1747744" lon="11.9290026"><ele>420.0</ele><time>2026-04-19T08:34:39.038Z</time></trkpt><trkpt lat="42.1748123" lon="11.9290959"><ele>419.33333333333337</ele><time>2026-04-19T08:34:40.05Z</time></trkpt><trkpt lat="42.1748241" lon="11.9292509"><ele>418.6666666666667</ele><time>2026-04-19T08:34:42.05Z</time></trkpt><trkpt lat="42.1748327" lon="11.9293405"><ele>418.0</ele><time>2026-04-19T08:34:43.034Z</time></trkpt><trkpt lat="42.1748209" lon="11.9294666"><ele>416.0</ele><time>2026-04-19T08:34:45.052Z</time></trkpt><trkpt lat="42.1748119" lon="11.9295743"><ele>414.0</ele><time>2026-04-19T08:34:47.05Z</time></trkpt><trkpt lat="42.1748872" lon="11.9296022"><ele>412.0</ele><time>2026-04-19T08:34:49.036Z</time></trkpt><trkpt lat="42.175006" lon="11.9295874"><ele>410.0</ele><time>2026-04-19T08:34:51.043Z</time></trkpt><trkpt lat="42.175112" lon="11.9295914"><ele>408.0</ele><time>2026-04-19T08:34:53.053Z</time></trkpt><trkpt lat="42.1751763" lon="11.9296275"><ele>407.4</ele><time>2026-04-19T08:34:54.049Z</time></trkpt><trkpt lat="42.175279" lon="11.9296848"><ele>406.79999999999995</ele><time>2026-04-19T08:34:56.058Z</time></trkpt><trkpt lat="42.175391" lon="11.9297127"><ele>406.2</ele><time>2026-04-19T08:34:58.048Z</time></trkpt><trkpt lat="42.1754824" lon="11.9296128"><ele>405.6</ele><time>2026-04-19T08:35:00.041Z</time></trkpt><trkpt lat="42.1755276" lon="11.9295272"><ele>405.0</ele><time>2026-04-19T08:35:01.046Z</time></trkpt><trkpt lat="42.1755572" lon="11.9294491"><ele>405.0</ele><time>2026-04-19T08:35:02.042Z</time></trkpt><trkpt lat="42.1756094" lon="11.9293051"><ele>405.0</ele><time>2026-04-19T08:35:04.069Z</time></trkpt><trkpt lat="42.1756277" lon="11.9292061"><ele>405.0</ele><time>2026-04-19T08:35:05.048Z</time></trkpt><trkpt lat="42.1756344" lon="11.9291056"><ele>405.0</ele><time>2026-04-19T08:35:06.04Z</time></trkpt><trkpt lat="42.1756778" lon="11.9289869"><ele>405.0</ele><time>2026-04-19T08:35:08.039Z</time></trkpt><trkpt lat="42.175749" lon="11.9289153"><ele>402.99999999999994</ele><time>2026-04-19T08:35:11.045Z</time></trkpt><trkpt lat="42.1758191" lon="11.928859"><ele>401.0</ele><time>2026-04-19T08:35:13.056Z</time></trkpt><trkpt lat="42.1758817" lon="11.9288384"><ele>399.0</ele><time>2026-04-19T08:35:15.042Z</time></trkpt><trkpt lat="42.1759577" lon="11.9288111"><ele>397.0</ele><time>2026-04-19T08:35:17.051Z</time></trkpt><trkpt lat="42.1760248" lon="11.9287399"><ele>395.0</ele><time>2026-04-19T08:35:19.047Z</time></trkpt><trkpt lat="42.1760734" lon="11.9286763"><ele>392.99999999999994</ele><time>2026-04-19T08:35:21.043Z</time></trkpt><trkpt lat="42.1761424" lon="11.9286528"><ele>391.0</ele><time>2026-04-19T08:35:24.035Z</time></trkpt><trkpt lat="42.1762249" lon="11.9286717"><ele>391.00000000000006</ele><time>2026-04-19T08:35:27.039Z</time></trkpt><trkpt lat="42.1762827" lon="11.9287135"><ele>391.0</ele><time>2026-04-19T08:35:29.056Z</time></trkpt><trkpt lat="42.1763409" lon="11.9287646"><ele>391.0</ele><time>2026-04-19T08:35:31.043Z</time></trkpt><trkpt lat="42.1763964" lon="11.9288115"><ele>391.0</ele><time>2026-04-19T08:35:32.048Z</time></trkpt><trkpt lat="42.1765031" lon="11.9287836"><ele>391.00000000000006</ele><time>2026-04-19T08:35:34.048Z</time></trkpt><trkpt lat="42.1765646" lon="11.9287121"><ele>391.0</ele><time>2026-04-19T08:35:35.052Z</time></trkpt><trkpt lat="42.1766375" lon="11.9286674"><ele>391.2857142857143</ele><time>2026-04-19T08:35:36.043Z</time></trkpt><trkpt lat="42.1767033" lon="11.928631"><ele>391.57142857142856</ele><time>2026-04-19T08:35:37.042Z</time></trkpt><trkpt lat="42.1767737" lon="11.9285912"><ele>391.8571428571429</ele><time>2026-04-19T08:35:38.05Z</time></trkpt><trkpt lat="42.1768469" lon="11.9285559"><ele>392.1428571428571</ele><time>2026-04-19T08:35:39.037Z</time></trkpt><trkpt lat="42.1769145" lon="11.9285178"><ele>392.42857142857144</ele><time>2026-04-19T08:35:40.04Z</time></trkpt><trkpt lat="42.1769826" lon="11.9284775"><ele>392.7142857142857</ele><time>2026-04-19T08:35:41.049Z</time></trkpt><trkpt lat="42.1770504" lon="11.9284459"><ele>393.0</ele><time>2026-04-19T08:35:42.067Z</time></trkpt><trkpt lat="42.1771183" lon="11.9284143"><ele>392.6666666666667</ele><time>2026-04-19T08:35:43.065Z</time></trkpt><trkpt lat="42.1771856" lon="11.9283616"><ele>392.33333333333337</ele><time>2026-04-19T08:35:44.049Z</time></trkpt><trkpt lat="42.1772422" lon="11.9282678"><ele>392.0</ele><time>2026-04-19T08:35:45.046Z</time></trkpt><trkpt lat="42.1773008" lon="11.9281645"><ele>391.6666666666667</ele><time>2026-04-19T08:35:46.059Z</time></trkpt><trkpt lat="42.1773539" lon="11.9280676"><ele>391.33333333333337</ele><time>2026-04-19T08:35:47.046Z</time></trkpt><trkpt lat="42.1774079" lon="11.9280058"><ele>391.0</ele><time>2026-04-19T08:35:48.052Z</time></trkpt><trkpt lat="42.1774657" lon="11.9279196"><ele>391.83333333333337</ele><time>2026-04-19T08:35:50.046Z</time></trkpt><trkpt lat="42.1775238" lon="11.9278479"><ele>392.6666666666667</ele><time>2026-04-19T08:35:52.051Z</time></trkpt><trkpt lat="42.1775862" lon="11.9277818"><ele>393.5</ele><time>2026-04-19T08:35:55.059Z</time></trkpt><trkpt lat="42.1776715" lon="11.9277402"><ele>394.33333333333337</ele><time>2026-04-19T08:36:49.052Z</time></trkpt><trkpt lat="42.1777382" lon="11.9276635"><ele>395.1666666666667</ele><time>2026-04-19T08:37:24.052Z</time></trkpt><trkpt lat="42.1778158" lon="11.927592"><ele>396.0</ele><time>2026-04-19T08:37:52.06Z</time></trkpt><trkpt lat="42.1779103" lon="11.9275055"><ele>396.0</ele><time>2026-04-19T08:37:54.05Z</time></trkpt><trkpt lat="42.1779793" lon="11.9274623"><ele>396.0</ele><time>2026-04-19T08:37:56.05Z</time></trkpt><trkpt lat="42.178055" lon="11.9274746"><ele>396.0</ele><time>2026-04-19T08:37:58.044Z</time></trkpt><trkpt lat="42.1781463" lon="11.927543"><ele>396.0</ele><time>2026-04-19T08:38:00.043Z</time></trkpt><trkpt lat="42.1781964" lon="11.9276049"><ele>396.0</ele><time>2026-04-19T08:38:01.042Z</time></trkpt><trkpt lat="42.178238" lon="11.9276863"><ele>396.0</ele><time>2026-04-19T08:38:02.043Z</time></trkpt><trkpt lat="42.1782753" lon="11.9277715"><ele>398.6</ele><time>2026-04-19T08:38:03.047Z</time></trkpt><trkpt lat="42.1783134" lon="11.9278723"><ele>401.20000000000005</ele><time>2026-04-19T08:38:04.047Z</time></trkpt><trkpt lat="42.1783529" lon="11.9279462"><ele>403.79999999999995</ele><time>2026-04-19T08:38:05.034Z</time></trkpt><trkpt lat="42.1784332" lon="11.928039"><ele>406.4</ele><time>2026-04-19T08:38:07.049Z</time></trkpt><trkpt lat="42.1785066" lon="11.9281544"><ele>409.0</ele><time>2026-04-19T08:38:09.052Z</time></trkpt><trkpt lat="42.1785488" lon="11.9282918"><ele>409.00000000000006</ele><time>2026-04-19T08:38:11.061Z</time></trkpt><trkpt lat="42.1786191" lon="11.9282765"><ele>409.0</ele><time>2026-04-19T08:38:14.043Z</time></trkpt><trkpt lat="42.1786862" lon="11.9282381"><ele>409.0</ele><time>2026-04-19T08:38:16.041Z</time></trkpt><trkpt lat="42.1787797" lon="11.9282528"><ele>409.0</ele><time>2026-04-19T08:38:18.046Z</time></trkpt><trkpt lat="42.1788939" lon="11.9283129"><ele>409.00000000000006</ele><time>2026-04-19T08:38:20.046Z</time></trkpt><trkpt lat="42.1789665" lon="11.9283588"><ele>409.0</ele><time>2026-04-19T08:38:21.05Z</time></trkpt><trkpt lat="42.1790463" lon="11.9284164"><ele>410.00000000000006</ele><time>2026-04-19T08:38:22.064Z</time></trkpt><trkpt lat="42.1791162" lon="11.9284627"><ele>411.0</ele><time>2026-04-19T08:38:23.037Z</time></trkpt><trkpt lat="42.1792305" lon="11.928503"><ele>412.0</ele><time>2026-04-19T08:38:25.049Z</time></trkpt><trkpt lat="42.1792935" lon="11.9285283"><ele>413.0</ele><time>2026-04-19T08:38:27.042Z</time></trkpt><trkpt lat="42.1793428" lon="11.9285928"><ele>414.00000000000006</ele><time>2026-04-19T08:38:30.055Z</time></trkpt><trkpt lat="42.1793689" lon="11.9286778"><ele>415.0</ele><time>2026-04-19T08:38:32.038Z</time></trkpt><trkpt lat="42.1794118" lon="11.9288146"><ele>415.00000000000006</ele><time>2026-04-19T08:38:34.035Z</time></trkpt><trkpt lat="42.1794296" lon="11.9289028"><ele>415.0</ele><time>2026-04-19T08:38:35.035Z</time></trkpt><trkpt lat="42.179451" lon="11.9290174"><ele>415.0</ele><time>2026-04-19T08:38:36.047Z</time></trkpt><trkpt lat="42.1794736" lon="11.9291264"><ele>415.0</ele><time>2026-04-19T08:38:37.037Z</time></trkpt><trkpt lat="42.1795033" lon="11.9292275"><ele>415.00000000000006</ele><time>2026-04-19T08:38:38.042Z</time></trkpt><trkpt lat="42.1795274" lon="11.9293251"><ele>415.0</ele><time>2026-04-19T08:38:39.044Z</time></trkpt><trkpt lat="42.1795389" lon="11.9294198"><ele>415.2</ele><time>2026-04-19T08:38:40.034Z</time></trkpt><trkpt lat="42.1795239" lon="11.9295686"><ele>415.4</ele><time>2026-04-19T08:38:42.035Z</time></trkpt><trkpt lat="42.1794585" lon="11.9297244"><ele>415.6</ele><time>2026-04-19T08:38:44.042Z</time></trkpt><trkpt lat="42.1794293" lon="11.9298117"><ele>415.8</ele><time>2026-04-19T08:38:45.042Z</time></trkpt><trkpt lat="42.1794052" lon="11.9299019"><ele>416.0</ele><time>2026-04-19T08:38:46.039Z</time></trkpt><trkpt lat="42.1793849" lon="11.9299943"><ele>416.3333333333333</ele><time>2026-04-19T08:38:47.036Z</time></trkpt><trkpt lat="42.179366" lon="11.9300822"><ele>416.66666666666663</ele><time>2026-04-19T08:38:48.037Z</time></trkpt><trkpt lat="42.1793426" lon="11.9301727"><ele>417.0</ele><time>2026-04-19T08:38:49.033Z</time></trkpt><trkpt lat="42.1793195" lon="11.930262"><ele>417.33333333333337</ele><time>2026-04-19T08:38:50.037Z</time></trkpt><trkpt lat="42.1792923" lon="11.9303456"><ele>417.6666666666667</ele><time>2026-04-19T08:38:51.045Z</time></trkpt><trkpt lat="42.1792646" lon="11.9304234"><ele>418.0</ele><time>2026-04-19T08:38:52.041Z</time></trkpt><trkpt lat="42.1792052" lon="11.9305733"><ele>418.00000000000006</ele><time>2026-04-19T08:38:54.043Z</time></trkpt><trkpt lat="42.1791618" lon="11.9306661"><ele>418.0</ele><time>2026-04-19T08:38:55.039Z</time></trkpt><trkpt lat="42.179094" lon="11.9307455"><ele>418.0</ele><time>2026-04-19T08:38:56.034Z</time></trkpt><trkpt lat="42.1790186" lon="11.9308224"><ele>418.0</ele><time>2026-04-19T08:38:57.046Z</time></trkpt><trkpt lat="42.1789442" lon="11.9308976"><ele>418.00000000000006</ele><time>2026-04-19T08:38:58.035Z</time></trkpt><trkpt lat="42.1788744" lon="11.9309729"><ele>418.0</ele><time>2026-04-19T08:38:59.037Z</time></trkpt><trkpt lat="42.1788201" lon="11.9310435"><ele>417.79999999999995</ele><time>2026-04-19T08:39:00.056Z</time></trkpt><trkpt lat="42.1787777" lon="11.9311734"><ele>417.6</ele><time>2026-04-19T08:39:02.035Z</time></trkpt><trkpt lat="42.1787693" lon="11.9312872"><ele>417.4</ele><time>2026-04-19T08:39:17.044Z</time></trkpt><trkpt lat="42.1787483" lon="11.9313753"><ele>417.20000000000005</ele><time>2026-04-19T08:39:20.051Z</time></trkpt><trkpt lat="42.1787121" lon="11.9314899"><ele>417.0</ele><time>2026-04-19T08:39:23.059Z</time></trkpt><trkpt lat="42.1786685" lon="11.9316166"><ele>416.20000000000005</ele><time>2026-04-19T08:39:26.045Z</time></trkpt><trkpt lat="42.178603" lon="11.9317462"><ele>415.4</ele><time>2026-04-19T08:39:28.049Z</time></trkpt><trkpt lat="42.1784982" lon="11.9318422"><ele>414.6</ele><time>2026-04-19T08:39:30.055Z</time></trkpt><trkpt lat="42.1784389" lon="11.9318997"><ele>413.79999999999995</ele><time>2026-04-19T08:39:31.041Z</time></trkpt><trkpt lat="42.1783769" lon="11.9319606"><ele>413.0</ele><time>2026-04-19T08:39:32.051Z</time></trkpt><trkpt lat="42.1783149" lon="11.9320237"><ele>412.99999999999994</ele><time>2026-04-19T08:39:33.052Z</time></trkpt><trkpt lat="42.1782493" lon="11.9320949"><ele>413.0</ele><time>2026-04-19T08:39:34.037Z</time></trkpt><trkpt lat="42.1781779" lon="11.9321772"><ele>413.0</ele><time>2026-04-19T08:39:35.047Z</time></trkpt><trkpt lat="42.1781116" lon="11.932251"><ele>413.0</ele><time>2026-04-19T08:39:36.042Z</time></trkpt><trkpt lat="42.1780491" lon="11.9323198"><ele>412.99999999999994</ele><time>2026-04-19T08:39:37.036Z</time></trkpt><trkpt lat="42.1779796" lon="11.9323713"><ele>413.0</ele><time>2026-04-19T08:39:38.042Z</time></trkpt><trkpt lat="42.177918" lon="11.9324278"><ele>412.99999999999994</ele><time>2026-04-19T08:39:39.047Z</time></trkpt><trkpt lat="42.1778618" lon="11.9325032"><ele>413.0</ele><time>2026-04-19T08:39:40.046Z</time></trkpt><trkpt lat="42.1778082" lon="11.9325892"><ele>413.0</ele><time>2026-04-19T08:39:41.046Z</time></trkpt><trkpt lat="42.1777542" lon="11.9326801"><ele>413.0</ele><time>2026-04-19T08:39:42.047Z</time></trkpt><trkpt lat="42.1777063" lon="11.932772"><ele>412.99999999999994</ele><time>2026-04-19T08:39:43.044Z</time></trkpt><trkpt lat="42.1776561" lon="11.9328539"><ele>413.0</ele><time>2026-04-19T08:39:44.047Z</time></trkpt><trkpt lat="42.1775963" lon="11.932919"><ele>413.0</ele><time>2026-04-19T08:39:45.039Z</time></trkpt><trkpt lat="42.1775451" lon="11.9330076"><ele>413.0</ele><time>2026-04-19T08:39:46.04Z</time></trkpt><trkpt lat="42.1774916" lon="11.9330917"><ele>413.0</ele><time>2026-04-19T08:39:47.055Z</time></trkpt><trkpt lat="42.1774367" lon="11.9331798"><ele>413.0</ele><time>2026-04-19T08:39:48.054Z</time></trkpt><trkpt lat="42.1773715" lon="11.9332719"><ele>413.0</ele><time>2026-04-19T08:39:49.045Z</time></trkpt><trkpt lat="42.1773161" lon="11.933403"><ele>414.0</ele><time>2026-04-19T08:39:50.049Z</time></trkpt><trkpt lat="42.1772959" lon="11.9335413"><ele>415.0</ele><time>2026-04-19T08:39:51.054Z</time></trkpt><trkpt lat="42.1772785" lon="11.9336775"><ele>416.0</ele><time>2026-04-19T08:39:52.043Z</time></trkpt><trkpt lat="42.1772916" lon="11.9337984"><ele>417.0</ele><time>2026-04-19T08:39:53.043Z</time></trkpt><trkpt lat="42.1773057" lon="11.9339046"><ele>418.0</ele><time>2026-04-19T08:39:54.047Z</time></trkpt><trkpt lat="42.1773359" lon="11.933993"><ele>416.57142857142856</ele><time>2026-04-19T08:39:55.048Z</time></trkpt><trkpt lat="42.1773696" lon="11.934081"><ele>415.1428571428571</ele><time>2026-04-19T08:39:56.05Z</time></trkpt><trkpt lat="42.1774036" lon="11.9341651"><ele>413.7142857142857</ele><time>2026-04-19T08:39:57.049Z</time></trkpt><trkpt lat="42.1774301" lon="11.934256"><ele>412.2857142857143</ele><time>2026-04-19T08:39:58.046Z</time></trkpt><trkpt lat="42.1774484" lon="11.934359"><ele>410.8571428571429</ele><time>2026-04-19T08:39:59.051Z</time></trkpt><trkpt lat="42.177467" lon="11.9344548"><ele>409.42857142857144</ele><time>2026-04-19T08:40:00.053Z</time></trkpt><trkpt lat="42.1774998" lon="11.9345418"><ele>408.0</ele><time>2026-04-19T08:40:01.042Z</time></trkpt><trkpt lat="42.1775548" lon="11.9346341"><ele>407.2</ele><time>2026-04-19T08:40:02.054Z</time></trkpt><trkpt lat="42.1776298" lon="11.9347298"><ele>406.4</ele><time>2026-04-19T08:40:03.048Z</time></trkpt><trkpt lat="42.177702" lon="11.9348111"><ele>405.59999999999997</ele><time>2026-04-19T08:40:04.039Z</time></trkpt><trkpt lat="42.1777888" lon="11.9348643"><ele>404.79999999999995</ele><time>2026-04-19T08:40:05.049Z</time></trkpt><trkpt lat="42.177868" lon="11.9348946"><ele>404.0</ele><time>2026-04-19T08:40:06.041Z</time></trkpt><trkpt lat="42.1779379" lon="11.9349509"><ele>403.99999999999994</ele><time>2026-04-19T08:40:07.038Z</time></trkpt><trkpt lat="42.1779849" lon="11.9350473"><ele>404.0</ele><time>2026-04-19T08:40:08.044Z</time></trkpt><trkpt lat="42.1780155" lon="11.9351601"><ele>404.0</ele><time>2026-04-19T08:40:09.06Z</time></trkpt><trkpt lat="42.1780396" lon="11.9352914"><ele>404.0</ele><time>2026-04-19T08:40:10.043Z</time></trkpt><trkpt lat="42.1780821" lon="11.9353918"><ele>403.99999999999994</ele><time>2026-04-19T08:40:11.058Z</time></trkpt><trkpt lat="42.1781263" lon="11.9354943"><ele>404.0</ele><time>2026-04-19T08:40:12.053Z</time></trkpt><trkpt lat="42.1781644" lon="11.9356052"><ele>404.66666666666663</ele><time>2026-04-19T08:40:13.054Z</time></trkpt><trkpt lat="42.1781974" lon="11.9357151"><ele>405.3333333333333</ele><time>2026-04-19T08:40:14.048Z</time></trkpt><trkpt lat="42.1782278" lon="11.9358067"><ele>406.0</ele><time>2026-04-19T08:40:15.052Z</time></trkpt><trkpt lat="42.178246" lon="11.9358924"><ele>406.66666666666663</ele><time>2026-04-19T08:40:16.038Z</time></trkpt><trkpt lat="42.1782436" lon="11.9359891"><ele>407.3333333333333</ele><time>2026-04-19T08:40:17.047Z</time></trkpt><trkpt lat="42.1782309" lon="11.9360872"><ele>408.0</ele><time>2026-04-19T08:40:18.051Z</time></trkpt><trkpt lat="42.1782045" lon="11.9362285"><ele>408.0</ele><time>2026-04-19T08:40:20.039Z</time></trkpt><trkpt lat="42.1781956" lon="11.936396"><ele>408.0</ele><time>2026-04-19T08:40:22.035Z</time></trkpt><trkpt lat="42.1781752" lon="11.9365025"><ele>408.0</ele><time>2026-04-19T08:40:23.049Z</time></trkpt><trkpt lat="42.1781437" lon="11.9366024"><ele>408.0</ele><time>2026-04-19T08:40:24.053Z</time></trkpt><trkpt lat="42.1781239" lon="11.9366879"><ele>408.0</ele><time>2026-04-19T08:40:25.041Z</time></trkpt><trkpt lat="42.1781386" lon="11.9368513"><ele>408.0</ele><time>2026-04-19T08:40:27.052Z</time></trkpt><trkpt lat="42.1781868" lon="11.9369965"><ele>408.0</ele><time>2026-04-19T08:40:29.062Z</time></trkpt><trkpt lat="42.1781607" lon="11.9371283"><ele>408.0</ele><time>2026-04-19T08:40:31.05Z</time></trkpt><trkpt lat="42.1780817" lon="11.9372411"><ele>408.0</ele><time>2026-04-19T08:40:33.048Z</time></trkpt><trkpt lat="42.1780031" lon="11.9373575"><ele>408.0</ele><time>2026-04-19T08:40:35.057Z</time></trkpt><trkpt lat="42.1778946" lon="11.9374113"><ele>408.0</ele><time>2026-04-19T08:41:05.058Z</time></trkpt><trkpt lat="42.1778285" lon="11.9375263"><ele>408.0</ele><time>2026-04-19T08:41:07.042Z</time></trkpt><trkpt lat="42.1777911" lon="11.9376243"><ele>408.0</ele><time>2026-04-19T08:41:08.036Z</time></trkpt><trkpt lat="42.1777644" lon="11.9377066"><ele>408.0</ele><time>2026-04-19T08:41:09.061Z</time></trkpt><trkpt lat="42.1777363" lon="11.9378047"><ele>408.3333333333333</ele><time>2026-04-19T08:41:10.062Z</time></trkpt><trkpt lat="42.1777192" lon="11.9379124"><ele>408.66666666666663</ele><time>2026-04-19T08:41:11.046Z</time></trkpt><trkpt lat="42.1777089" lon="11.9380198"><ele>409.0</ele><time>2026-04-19T08:41:12.041Z</time></trkpt><trkpt lat="42.177702" lon="11.9381247"><ele>409.3333333333333</ele><time>2026-04-19T08:41:13.051Z</time></trkpt><trkpt lat="42.1776991" lon="11.9382385"><ele>409.66666666666663</ele><time>2026-04-19T08:41:14.051Z</time></trkpt><trkpt lat="42.1776976" lon="11.9383421"><ele>410.0</ele><time>2026-04-19T08:41:15.044Z</time></trkpt><trkpt lat="42.1776934" lon="11.9384388"><ele>409.99999999999994</ele><time>2026-04-19T08:41:16.046Z</time></trkpt><trkpt lat="42.1776936" lon="11.9385409"><ele>410.0</ele><time>2026-04-19T08:41:17.039Z</time></trkpt><trkpt lat="42.1777085" lon="11.9386571"><ele>410.0</ele><time>2026-04-19T08:41:18.036Z</time></trkpt><trkpt lat="42.177728" lon="11.9387821"><ele>410.0</ele><time>2026-04-19T08:41:19.051Z</time></trkpt><trkpt lat="42.1777352" lon="11.9389127"><ele>409.99999999999994</ele><time>2026-04-19T08:41:20.044Z</time></trkpt><trkpt lat="42.1777333" lon="11.9390338"><ele>410.0</ele><time>2026-04-19T08:41:21.037Z</time></trkpt><trkpt lat="42.1777205" lon="11.9391538"><ele>411.4</ele><time>2026-04-19T08:41:22.051Z</time></trkpt><trkpt lat="42.1777071" lon="11.9392691"><ele>412.8</ele><time>2026-04-19T08:41:23.058Z</time></trkpt><trkpt lat="42.1776855" lon="11.9393726"><ele>414.20000000000005</ele><time>2026-04-19T08:41:24.045Z</time></trkpt><trkpt lat="42.1776516" lon="11.9394559"><ele>415.6</ele><time>2026-04-19T08:41:25.049Z</time></trkpt><trkpt lat="42.1775809" lon="11.9395765"><ele>417.0</ele><time>2026-04-19T08:41:27.057Z</time></trkpt><trkpt lat="42.1774892" lon="11.9396674"><ele>417.0</ele><time>2026-04-19T08:41:29.048Z</time></trkpt><trkpt lat="42.1774443" lon="11.9397297"><ele>417.0</ele><time>2026-04-19T08:41:30.059Z</time></trkpt><trkpt lat="42.1773975" lon="11.9398084"><ele>417.0</ele><time>2026-04-19T08:41:31.058Z</time></trkpt><trkpt lat="42.1773556" lon="11.9398857"><ele>417.0</ele><time>2026-04-19T08:41:32.045Z</time></trkpt><trkpt lat="42.1773244" lon="11.9399861"><ele>417.0</ele><time>2026-04-19T08:41:33.059Z</time></trkpt><trkpt lat="42.1772945" lon="11.9400907"><ele>417.0</ele><time>2026-04-19T08:41:34.054Z</time></trkpt><trkpt lat="42.1772569" lon="11.9401857"><ele>415.1666666666667</ele><time>2026-04-19T08:41:35.044Z</time></trkpt><trkpt lat="42.1772175" lon="11.9402797"><ele>413.33333333333337</ele><time>2026-04-19T08:41:36.051Z</time></trkpt><trkpt lat="42.1771684" lon="11.9403678"><ele>411.5</ele><time>2026-04-19T08:41:37.046Z</time></trkpt><trkpt lat="42.1771198" lon="11.9404611"><ele>409.6666666666667</ele><time>2026-04-19T08:41:38.047Z</time></trkpt><trkpt lat="42.1770647" lon="11.9405635"><ele>407.83333333333337</ele><time>2026-04-19T08:41:39.051Z</time></trkpt><trkpt lat="42.1770168" lon="11.9406625"><ele>406.0</ele><time>2026-04-19T08:41:40.053Z</time></trkpt><trkpt lat="42.1769753" lon="11.9407683"><ele>406.0</ele><time>2026-04-19T08:41:41.049Z</time></trkpt><trkpt lat="42.1769436" lon="11.9408817"><ele>406.0</ele><time>2026-04-19T08:41:42.045Z</time></trkpt><trkpt lat="42.1769309" lon="11.9410122"><ele>406.0</ele><time>2026-04-19T08:41:43.046Z</time></trkpt><trkpt lat="42.1769277" lon="11.9411514"><ele>406.0</ele><time>2026-04-19T08:41:44.044Z</time></trkpt><trkpt lat="42.176928" lon="11.9412898"><ele>406.0</ele><time>2026-04-19T08:41:45.047Z</time></trkpt><trkpt lat="42.1769174" lon="11.9414272"><ele>405.83333333333337</ele><time>2026-04-19T08:41:46.051Z</time></trkpt><trkpt lat="42.1769046" lon="11.9415488"><ele>405.6666666666667</ele><time>2026-04-19T08:41:47.04Z</time></trkpt><trkpt lat="42.176893" lon="11.9416592"><ele>405.5</ele><time>2026-04-19T08:41:48.055Z</time></trkpt><trkpt lat="42.1768824" lon="11.9417553"><ele>405.33333333333337</ele><time>2026-04-19T08:41:49.048Z</time></trkpt><trkpt lat="42.1768619" lon="11.9418496"><ele>405.1666666666667</ele><time>2026-04-19T08:41:50.034Z</time></trkpt><trkpt lat="42.176778" lon="11.941952"><ele>405.0</ele><time>2026-04-19T08:41:52.04Z</time></trkpt><trkpt lat="42.176643" lon="11.9420061"><ele>404.4</ele><time>2026-04-19T08:41:54.044Z</time></trkpt><trkpt lat="42.1765524" lon="11.9420355"><ele>403.8</ele><time>2026-04-19T08:41:55.041Z</time></trkpt><trkpt lat="42.1764559" lon="11.9420713"><ele>403.20000000000005</ele><time>2026-04-19T08:41:56.042Z</time></trkpt><trkpt lat="42.1763465" lon="11.9421151"><ele>402.6</ele><time>2026-04-19T08:41:57.038Z</time></trkpt><trkpt lat="42.1762281" lon="11.9422013"><ele>402.0</ele><time>2026-04-19T08:41:58.04Z</time></trkpt><trkpt lat="42.1761123" lon="11.9423095"><ele>402.0</ele><time>2026-04-19T08:41:59.044Z</time></trkpt><trkpt lat="42.1760108" lon="11.9424279"><ele>402.0</ele><time>2026-04-19T08:42:00.04Z</time></trkpt><trkpt lat="42.1759313" lon="11.9425507"><ele>402.0</ele><time>2026-04-19T08:42:01.034Z</time></trkpt><trkpt lat="42.1758572" lon="11.9426712"><ele>402.0</ele><time>2026-04-19T08:42:02.034Z</time></trkpt><trkpt lat="42.1758208" lon="11.9428188"><ele>402.0</ele><time>2026-04-19T08:42:03.037Z</time></trkpt><trkpt lat="42.1758029" lon="11.9429812"><ele>402.0</ele><time>2026-04-19T08:42:04.034Z</time></trkpt><trkpt lat="42.1758012" lon="11.9431494"><ele>402.0</ele><time>2026-04-19T08:42:05.037Z</time></trkpt><trkpt lat="42.1758114" lon="11.9433246"><ele>402.0</ele><time>2026-04-19T08:42:06.041Z</time></trkpt><trkpt lat="42.1758375" lon="11.9434976"><ele>401.0</ele><time>2026-04-19T08:42:07.039Z</time></trkpt><trkpt lat="42.1758817" lon="11.943665"><ele>400.0</ele><time>2026-04-19T08:42:08.041Z</time></trkpt><trkpt lat="42.1759347" lon="11.9438161"><ele>399.0</ele><time>2026-04-19T08:42:09.038Z</time></trkpt><trkpt lat="42.1759871" lon="11.9439538"><ele>398.0</ele><time>2026-04-19T08:42:10.04Z</time></trkpt><trkpt lat="42.1760386" lon="11.9440893"><ele>397.16666666666663</ele><time>2026-04-19T08:42:11.043Z</time></trkpt><trkpt lat="42.1760876" lon="11.9442177"><ele>396.3333333333333</ele><time>2026-04-19T08:42:12.036Z</time></trkpt><trkpt lat="42.1761314" lon="11.9443315"><ele>395.5</ele><time>2026-04-19T08:42:13.055Z</time></trkpt><trkpt lat="42.1761593" lon="11.9444379"><ele>394.66666666666663</ele><time>2026-04-19T08:42:14.044Z</time></trkpt><trkpt lat="42.1761732" lon="11.9445455"><ele>393.8333333333333</ele><time>2026-04-19T08:42:15.039Z</time></trkpt><trkpt lat="42.1761877" lon="11.9446479"><ele>393.0</ele><time>2026-04-19T08:42:16.036Z</time></trkpt><trkpt lat="42.1761895" lon="11.9447441"><ele>393.0</ele><time>2026-04-19T08:42:17.046Z</time></trkpt><trkpt lat="42.1761665" lon="11.944841"><ele>393.0</ele><time>2026-04-19T08:42:18.038Z</time></trkpt><trkpt lat="42.1761199" lon="11.9449281"><ele>393.0</ele><time>2026-04-19T08:42:19.04Z</time></trkpt><trkpt lat="42.1760608" lon="11.9450091"><ele>393.0</ele><time>2026-04-19T08:42:20.057Z</time></trkpt><trkpt lat="42.1759939" lon="11.9450893"><ele>393.0</ele><time>2026-04-19T08:42:21.043Z</time></trkpt><trkpt lat="42.1759197" lon="11.9451822"><ele>393.0</ele><time>2026-04-19T08:42:22.038Z</time></trkpt><trkpt lat="42.1758417" lon="11.945287"><ele>391.79999999999995</ele><time>2026-04-19T08:42:23.052Z</time></trkpt><trkpt lat="42.175765" lon="11.9453863"><ele>390.6</ele><time>2026-04-19T08:42:24.051Z</time></trkpt><trkpt lat="42.1756856" lon="11.9454689"><ele>389.4</ele><time>2026-04-19T08:42:25.051Z</time></trkpt><trkpt lat="42.1756031" lon="11.9455401"><ele>388.20000000000005</ele><time>2026-04-19T08:42:26.042Z</time></trkpt><trkpt lat="42.1755207" lon="11.9456"><ele>387.0</ele><time>2026-04-19T08:42:27.04Z</time></trkpt><trkpt lat="42.175444" lon="11.9456648"><ele>384.6</ele><time>2026-04-19T08:42:28.042Z</time></trkpt><trkpt lat="42.1753692" lon="11.9457308"><ele>382.20000000000005</ele><time>2026-04-19T08:42:29.045Z</time></trkpt><trkpt lat="42.175311" lon="11.9458274"><ele>379.8</ele><time>2026-04-19T08:42:30.035Z</time></trkpt><trkpt lat="42.1752633" lon="11.9459396"><ele>377.4</ele><time>2026-04-19T08:42:31.048Z</time></trkpt><trkpt lat="42.1752128" lon="11.9460524"><ele>375.0</ele><time>2026-04-19T08:42:32.039Z</time></trkpt><trkpt lat="42.1751676" lon="11.9461543"><ele>375.0</ele><time>2026-04-19T08:42:33.042Z</time></trkpt><trkpt lat="42.1751242" lon="11.9462269"><ele>375.0</ele><time>2026-04-19T08:42:34.048Z</time></trkpt><trkpt lat="42.1750333" lon="11.9463252"><ele>375.0</ele><time>2026-04-19T08:42:36.042Z</time></trkpt><trkpt lat="42.1749608" lon="11.9463399"><ele>375.0</ele><time>2026-04-19T08:42:38.048Z</time></trkpt><trkpt lat="42.1748979" lon="11.9462527"><ele>375.0</ele><time>2026-04-19T08:42:41.042Z</time></trkpt><trkpt lat="42.1748697" lon="11.9461293"><ele>375.0</ele><time>2026-04-19T08:42:43.056Z</time></trkpt><trkpt lat="42.1748157" lon="11.9459934"><ele>372.3333333333333</ele><time>2026-04-19T08:42:45.042Z</time></trkpt><trkpt lat="42.1747735" lon="11.9459303"><ele>369.6666666666667</ele><time>2026-04-19T08:42:46.064Z</time></trkpt><trkpt lat="42.1746803" lon="11.9458208"><ele>367.0</ele><time>2026-04-19T08:42:48.039Z</time></trkpt><trkpt lat="42.1746262" lon="11.9457744"><ele>364.33333333333337</ele><time>2026-04-19T08:42:49.053Z</time></trkpt><trkpt lat="42.1745655" lon="11.9457318"><ele>361.6666666666667</ele><time>2026-04-19T08:42:50.045Z</time></trkpt><trkpt lat="42.174507" lon="11.9456935"><ele>359.0</ele><time>2026-04-19T08:42:51.035Z</time></trkpt><trkpt lat="42.1744467" lon="11.9456525"><ele>358.33333333333337</ele><time>2026-04-19T08:42:52.041Z</time></trkpt><trkpt lat="42.1743854" lon="11.9456133"><ele>357.6666666666667</ele><time>2026-04-19T08:42:53.04Z</time></trkpt><trkpt lat="42.1743127" lon="11.9455757"><ele>357.0</ele><time>2026-04-19T08:42:54.04Z</time></trkpt><trkpt lat="42.1742388" lon="11.9455431"><ele>356.3333333333333</ele><time>2026-04-19T08:42:55.038Z</time></trkpt><trkpt lat="42.1741586" lon="11.9455113"><ele>355.66666666666663</ele><time>2026-04-19T08:42:56.043Z</time></trkpt><trkpt lat="42.1740781" lon="11.94548"><ele>355.0</ele><time>2026-04-19T08:42:57.036Z</time></trkpt><trkpt lat="42.1739891" lon="11.9454472"><ele>351.0</ele><time>2026-04-19T08:42:58.039Z</time></trkpt><trkpt lat="42.173902" lon="11.9454125"><ele>347.0</ele><time>2026-04-19T08:42:59.034Z</time></trkpt><trkpt lat="42.1738118" lon="11.9453775"><ele>343.0</ele><time>2026-04-19T08:43:00.04Z</time></trkpt><trkpt lat="42.1737235" lon="11.945345"><ele>339.0</ele><time>2026-04-19T08:43:01.05Z</time></trkpt><trkpt lat="42.1736407" lon="11.9453149"><ele>335.0</ele><time>2026-04-19T08:43:02.036Z</time></trkpt><trkpt lat="42.1735548" lon="11.9452848"><ele>335.0</ele><time>2026-04-19T08:43:03.057Z</time></trkpt><trkpt lat="42.1734718" lon="11.9452549"><ele>335.0</ele><time>2026-04-19T08:43:04.046Z</time></trkpt><trkpt lat="42.1733972" lon="11.9452364"><ele>335.0</ele><time>2026-04-19T08:43:05.045Z</time></trkpt><trkpt lat="42.1733293" lon="11.9452204"><ele>335.0</ele><time>2026-04-19T08:43:06.039Z</time></trkpt><trkpt lat="42.1732661" lon="11.9452057"><ele>335.0</ele><time>2026-04-19T08:43:07.045Z</time></trkpt><trkpt lat="42.1731599" lon="11.9451511"><ele>335.0</ele><time>2026-04-19T08:43:09.045Z</time></trkpt><trkpt lat="42.1730586" lon="11.9450828"><ele>333.33333333333337</ele><time>2026-04-19T08:43:11.047Z</time></trkpt><trkpt lat="42.1729815" lon="11.9449613"><ele>331.6666666666667</ele><time>2026-04-19T08:43:13.042Z</time></trkpt><trkpt lat="42.1729528" lon="11.944872"><ele>330.0</ele><time>2026-04-19T08:43:14.043Z</time></trkpt><trkpt lat="42.1729155" lon="11.9447753"><ele>328.3333333333333</ele><time>2026-04-19T08:43:15.044Z</time></trkpt><trkpt lat="42.1728769" lon="11.9446794"><ele>326.66666666666663</ele><time>2026-04-19T08:43:16.04Z</time></trkpt><trkpt lat="42.1728417" lon="11.9445861"><ele>325.0</ele><time>2026-04-19T08:43:17.046Z</time></trkpt><trkpt lat="42.1728067" lon="11.9445005"><ele>325.0</ele><time>2026-04-19T08:43:18.041Z</time></trkpt><trkpt lat="42.1727395" lon="11.9443854"><ele>325.0</ele><time>2026-04-19T08:43:20.055Z</time></trkpt><trkpt lat="42.1726617" lon="11.9443811"><ele>325.0</ele><time>2026-04-19T08:43:22.055Z</time></trkpt><trkpt lat="42.172595" lon="11.9445097"><ele>325.0</ele><time>2026-04-19T08:43:24.036Z</time></trkpt><trkpt lat="42.1725698" lon="11.9445892"><ele>325.0</ele><time>2026-04-19T08:43:25.046Z</time></trkpt><trkpt lat="42.1725783" lon="11.9446912"><ele>325.0</ele><time>2026-04-19T08:43:26.054Z</time></trkpt><trkpt lat="42.1725948" lon="11.9447935"><ele>325.0</ele><time>2026-04-19T08:43:27.041Z</time></trkpt><trkpt lat="42.1726147" lon="11.9448935"><ele>325.0</ele><time>2026-04-19T08:43:28.035Z</time></trkpt><trkpt lat="42.172636" lon="11.944994"><ele>325.0</ele><time>2026-04-19T08:43:29.04Z</time></trkpt><trkpt lat="42.1726596" lon="11.9451001"><ele>325.0</ele><time>2026-04-19T08:43:30.035Z</time></trkpt><trkpt lat="42.1726793" lon="11.9451903"><ele>325.0</ele><time>2026-04-19T08:43:31.042Z</time></trkpt><trkpt lat="42.1726927" lon="11.9453162"><ele>325.0</ele><time>2026-04-19T08:43:33.053Z</time></trkpt><trkpt lat="42.172638" lon="11.945364"><ele>325.0</ele><time>2026-04-19T08:43:37.046Z</time></trkpt><trkpt lat="42.1725957" lon="11.9452927"><ele>325.0</ele><time>2026-04-19T08:43:53.056Z</time></trkpt><trkpt lat="42.172533" lon="11.9451365"><ele>325.0</ele><time>2026-04-19T08:43:55.037Z</time></trkpt><trkpt lat="42.1724887" lon="11.9450416"><ele>325.0</ele><time>2026-04-19T08:43:56.05Z</time></trkpt><trkpt lat="42.1724439" lon="11.9449382"><ele>325.0</ele><time>2026-04-19T08:43:57.045Z</time></trkpt><trkpt lat="42.1723934" lon="11.944829"><ele>322.5</ele><time>2026-04-19T08:43:58.036Z</time></trkpt><trkpt lat="42.1723307" lon="11.944713"><ele>320.0</ele><time>2026-04-19T08:43:59.044Z</time></trkpt><trkpt lat="42.172255" lon="11.9445954"><ele>317.5</ele><time>2026-04-19T08:44:00.044Z</time></trkpt><trkpt lat="42.172175" lon="11.9444817"><ele>315.0</ele><time>2026-04-19T08:44:01.05Z</time></trkpt><trkpt lat="42.1720892" lon="11.9443657"><ele>315.0</ele><time>2026-04-19T08:44:02.037Z</time></trkpt><trkpt lat="42.172003" lon="11.9442396"><ele>315.0</ele><time>2026-04-19T08:44:03.045Z</time></trkpt><trkpt lat="42.1719274" lon="11.9440979"><ele>315.0</ele><time>2026-04-19T08:44:04.042Z</time></trkpt><trkpt lat="42.1718643" lon="11.9439533"><ele>315.0</ele><time>2026-04-19T08:44:05.046Z</time></trkpt><trkpt lat="42.1717965" lon="11.9438181"><ele>314.25</ele><time>2026-04-19T08:44:06.042Z</time></trkpt><trkpt lat="42.1717086" lon="11.9437013"><ele>313.5</ele><time>2026-04-19T08:44:07.034Z</time></trkpt><trkpt lat="42.1716072" lon="11.9435964"><ele>312.75</ele><time>2026-04-19T08:44:08.044Z</time></trkpt><trkpt lat="42.1714973" lon="11.9435019"><ele>312.0</ele><time>2026-04-19T08:44:09.04Z</time></trkpt><trkpt lat="42.171385" lon="11.9434061"><ele>313.0</ele><time>2026-04-19T08:44:10.034Z</time></trkpt><trkpt lat="42.1712694" lon="11.9433225"><ele>314.0</ele><time>2026-04-19T08:44:11.04Z</time></trkpt><trkpt lat="42.1711598" lon="11.9432226"><ele>315.0</ele><time>2026-04-19T08:44:12.037Z</time></trkpt><trkpt lat="42.1710468" lon="11.94312"><ele>316.0</ele><time>2026-04-19T08:44:13.036Z</time></trkpt><trkpt lat="42.1709356" lon="11.9429851"><ele>316.0</ele><time>2026-04-19T08:44:14.036Z</time></trkpt><trkpt lat="42.1708348" lon="11.9428631"><ele>316.0</ele><time>2026-04-19T08:44:15.038Z</time></trkpt><trkpt lat="42.1707129" lon="11.942759"><ele>316.0</ele><time>2026-04-19T08:44:16.035Z</time></trkpt><trkpt lat="42.1705786" lon="11.9426942"><ele>316.0</ele><time>2026-04-19T08:44:17.032Z</time></trkpt><trkpt lat="42.170446" lon="11.9426369"><ele>315.0</ele><time>2026-04-19T08:44:18.035Z</time></trkpt><trkpt lat="42.1703301" lon="11.9425682"><ele>314.0</ele><time>2026-04-19T08:44:19.036Z</time></trkpt><trkpt lat="42.1702364" lon="11.94249"><ele>313.0</ele><time>2026-04-19T08:44:20.039Z</time></trkpt><trkpt lat="42.170159" lon="11.9424204"><ele>312.0</ele><time>2026-04-19T08:44:21.043Z</time></trkpt><trkpt lat="42.1700941" lon="11.9423639"><ele>311.0</ele><time>2026-04-19T08:44:22.045Z</time></trkpt><trkpt lat="42.1699936" lon="11.9423172"><ele>311.0</ele><time>2026-04-19T08:44:24.033Z</time></trkpt><trkpt lat="42.169882" lon="11.9423407"><ele>311.0</ele><time>2026-04-19T08:44:26.055Z</time></trkpt><trkpt lat="42.1697775" lon="11.9423085"><ele>311.0</ele><time>2026-04-19T08:44:28.038Z</time></trkpt><trkpt lat="42.1697467" lon="11.9422169"><ele>311.0</ele><time>2026-04-19T08:44:29.042Z</time></trkpt><trkpt lat="42.1697159" lon="11.9421168"><ele>311.0</ele><time>2026-04-19T08:44:30.045Z</time></trkpt><trkpt lat="42.1696784" lon="11.9420039"><ele>312.6</ele><time>2026-04-19T08:44:31.034Z</time></trkpt><trkpt lat="42.169636" lon="11.9418821"><ele>314.20000000000005</ele><time>2026-04-19T08:44:32.052Z</time></trkpt><trkpt lat="42.1695689" lon="11.9417613"><ele>315.79999999999995</ele><time>2026-04-19T08:44:33.045Z</time></trkpt><trkpt lat="42.1694882" lon="11.9416479"><ele>317.4</ele><time>2026-04-19T08:44:34.038Z</time></trkpt><trkpt lat="42.1693996" lon="11.9415507"><ele>319.0</ele><time>2026-04-19T08:44:35.041Z</time></trkpt><trkpt lat="42.1692978" lon="11.941458"><ele>319.0</ele><time>2026-04-19T08:44:36.037Z</time></trkpt><trkpt lat="42.16919" lon="11.941365"><ele>319.0</ele><time>2026-04-19T08:44:37.037Z</time></trkpt><trkpt lat="42.1690787" lon="11.9412793"><ele>319.0</ele><time>2026-04-19T08:44:38.043Z</time></trkpt><trkpt lat="42.1689658" lon="11.9412112"><ele>319.0</ele><time>2026-04-19T08:44:39.044Z</time></trkpt><trkpt lat="42.1688503" lon="11.9411577"><ele>323.25</ele><time>2026-04-19T08:44:40.038Z</time></trkpt><trkpt lat="42.1687279" lon="11.9411253"><ele>327.5</ele><time>2026-04-19T08:44:41.045Z</time></trkpt><trkpt lat="42.1685977" lon="11.9411242"><ele>331.75</ele><time>2026-04-19T08:44:42.039Z</time></trkpt><trkpt lat="42.1684658" lon="11.941144"><ele>336.0</ele><time>2026-04-19T08:44:43.041Z</time></trkpt><trkpt lat="42.1683357" lon="11.9411738"><ele>336.0</ele><time>2026-04-19T08:44:44.037Z</time></trkpt><trkpt lat="42.1682066" lon="11.9412016"><ele>336.0</ele><time>2026-04-19T08:44:45.041Z</time></trkpt><trkpt lat="42.1680766" lon="11.9412147"><ele>336.0</ele><time>2026-04-19T08:44:46.04Z</time></trkpt><trkpt lat="42.1679546" lon="11.9412075"><ele>336.0</ele><time>2026-04-19T08:44:47.038Z</time></trkpt><trkpt lat="42.1678349" lon="11.9411956"><ele>338.25</ele><time>2026-04-19T08:44:48.045Z</time></trkpt><trkpt lat="42.1677158" lon="11.9411773"><ele>340.5</ele><time>2026-04-19T08:44:49.042Z</time></trkpt><trkpt lat="42.1675943" lon="11.9411517"><ele>342.75</ele><time>2026-04-19T08:44:50.042Z</time></trkpt><trkpt lat="42.1674704" lon="11.9411173"><ele>345.0</ele><time>2026-04-19T08:44:51.039Z</time></trkpt><trkpt lat="42.1673442" lon="11.9410801"><ele>345.5</ele><time>2026-04-19T08:44:52.035Z</time></trkpt><trkpt lat="42.1672163" lon="11.9410564"><ele>346.0</ele><time>2026-04-19T08:44:53.051Z</time></trkpt><trkpt lat="42.1670875" lon="11.9410488"><ele>346.5</ele><time>2026-04-19T08:44:54.04Z</time></trkpt><trkpt lat="42.1669615" lon="11.9410568"><ele>347.0</ele><time>2026-04-19T08:44:55.04Z</time></trkpt><trkpt lat="42.1668568" lon="11.941076"><ele>347.0</ele><time>2026-04-19T08:44:56.044Z</time></trkpt><trkpt lat="42.1667783" lon="11.9410969"><ele>347.0</ele><time>2026-04-19T08:44:57.046Z</time></trkpt><trkpt lat="42.1667166" lon="11.9411167"><ele>347.0</ele><time>2026-04-19T08:44:58.036Z</time></trkpt><trkpt lat="42.1666325" lon="11.9411503"><ele>347.0</ele><time>2026-04-19T08:45:00.046Z</time></trkpt><trkpt lat="42.166556" lon="11.9411848"><ele>347.0</ele><time>2026-04-19T08:45:03.043Z</time></trkpt><trkpt lat="42.1664735" lon="11.9412415"><ele>347.0</ele><time>2026-04-19T08:45:05.04Z</time></trkpt><trkpt lat="42.1664136" lon="11.9412682"><ele>346.33333333333337</ele><time>2026-04-19T08:45:06.048Z</time></trkpt><trkpt lat="42.1663543" lon="11.9413043"><ele>345.6666666666667</ele><time>2026-04-19T08:45:07.055Z</time></trkpt><trkpt lat="42.166285" lon="11.9413414"><ele>345.0</ele><time>2026-04-19T08:45:08.052Z</time></trkpt><trkpt lat="42.1661945" lon="11.9413778"><ele>344.3333333333333</ele><time>2026-04-19T08:45:09.038Z</time></trkpt><trkpt lat="42.1661111" lon="11.9414096"><ele>343.66666666666663</ele><time>2026-04-19T08:45:10.038Z</time></trkpt><trkpt lat="42.1660229" lon="11.9414305"><ele>343.0</ele><time>2026-04-19T08:45:11.038Z</time></trkpt><trkpt lat="42.1659363" lon="11.941456"><ele>343.0</ele><time>2026-04-19T08:45:12.042Z</time></trkpt><trkpt lat="42.1658461" lon="11.9414743"><ele>343.0</ele><time>2026-04-19T08:45:13.042Z</time></trkpt><trkpt lat="42.1657474" lon="11.9414853"><ele>343.0</ele><time>2026-04-19T08:45:14.047Z</time></trkpt><trkpt lat="42.1656511" lon="11.9415056"><ele>343.0</ele><time>2026-04-19T08:45:15.042Z</time></trkpt><trkpt lat="42.1655521" lon="11.9415421"><ele>343.0</ele><time>2026-04-19T08:45:16.045Z</time></trkpt><trkpt lat="42.1654486" lon="11.9415909"><ele>342.79999999999995</ele><time>2026-04-19T08:45:17.054Z</time></trkpt><trkpt lat="42.1653467" lon="11.9416481"><ele>342.6</ele><time>2026-04-19T08:45:18.043Z</time></trkpt><trkpt lat="42.1652463" lon="11.9416988"><ele>342.4</ele><time>2026-04-19T08:45:19.048Z</time></trkpt><trkpt lat="42.1651477" lon="11.9417492"><ele>342.20000000000005</ele><time>2026-04-19T08:45:20.037Z</time></trkpt><trkpt lat="42.1650496" lon="11.9418017"><ele>342.0</ele><time>2026-04-19T08:45:21.051Z</time></trkpt><trkpt lat="42.164951" lon="11.9418537"><ele>344.20000000000005</ele><time>2026-04-19T08:45:22.041Z</time></trkpt><trkpt lat="42.164849" lon="11.9418944"><ele>346.4</ele><time>2026-04-19T08:45:23.048Z</time></trkpt><trkpt lat="42.1647444" lon="11.9419151"><ele>348.6</ele><time>2026-04-19T08:45:24.043Z</time></trkpt><trkpt lat="42.1646415" lon="11.9419342"><ele>350.79999999999995</ele><time>2026-04-19T08:45:25.045Z</time></trkpt><trkpt lat="42.1645261" lon="11.9419157"><ele>353.0</ele><time>2026-04-19T08:45:26.052Z</time></trkpt><trkpt lat="42.1644134" lon="11.9418827"><ele>353.0</ele><time>2026-04-19T08:45:27.061Z</time></trkpt><trkpt lat="42.1643094" lon="11.9418417"><ele>353.0</ele><time>2026-04-19T08:45:28.041Z</time></trkpt><trkpt lat="42.1642073" lon="11.9417933"><ele>353.0</ele><time>2026-04-19T08:45:29.042Z</time></trkpt><trkpt lat="42.1641107" lon="11.9417408"><ele>353.0</ele><time>2026-04-19T08:45:30.043Z</time></trkpt><trkpt lat="42.1640249" lon="11.9416902"><ele>353.0</ele><time>2026-04-19T08:45:31.042Z</time></trkpt><trkpt lat="42.1639414" lon="11.9416483"><ele>353.59999999999997</ele><time>2026-04-19T08:45:32.039Z</time></trkpt><trkpt lat="42.1638544" lon="11.941605"><ele>354.2</ele><time>2026-04-19T08:45:33.051Z</time></trkpt><trkpt lat="42.163758" lon="11.9415901"><ele>354.8</ele><time>2026-04-19T08:45:34.039Z</time></trkpt><trkpt lat="42.163655" lon="11.941588"><ele>355.4</ele><time>2026-04-19T08:45:35.051Z</time></trkpt><trkpt lat="42.1635467" lon="11.941593"><ele>356.0</ele><time>2026-04-19T08:45:36.038Z</time></trkpt><trkpt lat="42.1634411" lon="11.9416047"><ele>356.0</ele><time>2026-04-19T08:45:37.046Z</time></trkpt><trkpt lat="42.1633404" lon="11.9416566"><ele>356.0</ele><time>2026-04-19T08:45:38.055Z</time></trkpt><trkpt lat="42.1632436" lon="11.9417271"><ele>356.0</ele><time>2026-04-19T08:45:39.042Z</time></trkpt><trkpt lat="42.1631515" lon="11.9418156"><ele>356.0</ele><time>2026-04-19T08:45:40.04Z</time></trkpt><trkpt lat="42.1630617" lon="11.9419093"><ele>356.0</ele><time>2026-04-19T08:45:41.045Z</time></trkpt><trkpt lat="42.1629722" lon="11.9420002"><ele>357.6</ele><time>2026-04-19T08:45:42.037Z</time></trkpt><trkpt lat="42.1628768" lon="11.9420764"><ele>359.20000000000005</ele><time>2026-04-19T08:45:43.047Z</time></trkpt><trkpt lat="42.1627727" lon="11.9421352"><ele>360.79999999999995</ele><time>2026-04-19T08:45:44.054Z</time></trkpt><trkpt lat="42.1626686" lon="11.9421739"><ele>362.4</ele><time>2026-04-19T08:45:45.041Z</time></trkpt><trkpt lat="42.1625802" lon="11.9421973"><ele>364.0</ele><time>2026-04-19T08:45:46.037Z</time></trkpt><trkpt lat="42.1625073" lon="11.9422163"><ele>364.0</ele><time>2026-04-19T08:45:47.04Z</time></trkpt><trkpt lat="42.162429" lon="11.9421457"><ele>364.0</ele><time>2026-04-19T08:45:49.042Z</time></trkpt><trkpt lat="42.1623845" lon="11.9419852"><ele>364.0</ele><time>2026-04-19T08:45:51.052Z</time></trkpt><trkpt lat="42.1623666" lon="11.9418717"><ele>364.0</ele><time>2026-04-19T08:45:52.039Z</time></trkpt><trkpt lat="42.1623366" lon="11.9417532"><ele>364.0</ele><time>2026-04-19T08:45:53.041Z</time></trkpt><trkpt lat="42.1622969" lon="11.9416313"><ele>370.25</ele><time>2026-04-19T08:45:54.04Z</time></trkpt><trkpt lat="42.162253" lon="11.941498"><ele>376.5</ele><time>2026-04-19T08:45:55.036Z</time></trkpt><trkpt lat="42.1621918" lon="11.9413588"><ele>382.75</ele><time>2026-04-19T08:45:56.047Z</time></trkpt><trkpt lat="42.1621332" lon="11.9412264"><ele>389.0</ele><time>2026-04-19T08:45:57.061Z</time></trkpt><trkpt lat="42.1620741" lon="11.9410953"><ele>389.0</ele><time>2026-04-19T08:45:58.037Z</time></trkpt><trkpt lat="42.162011" lon="11.9409579"><ele>389.0</ele><time>2026-04-19T08:45:59.036Z</time></trkpt><trkpt lat="42.1619471" lon="11.940815"><ele>389.0</ele><time>2026-04-19T08:46:00.039Z</time></trkpt><trkpt lat="42.1618837" lon="11.9406674"><ele>389.0</ele><time>2026-04-19T08:46:01.038Z</time></trkpt><trkpt lat="42.1618235" lon="11.9405219"><ele>390.0</ele><time>2026-04-19T08:46:02.037Z</time></trkpt><trkpt lat="42.1617664" lon="11.940375"><ele>391.0</ele><time>2026-04-19T08:46:03.043Z</time></trkpt><trkpt lat="42.1617017" lon="11.9402341"><ele>392.0</ele><time>2026-04-19T08:46:04.04Z</time></trkpt><trkpt lat="42.1616235" lon="11.9401074"><ele>393.0</ele><time>2026-04-19T08:46:05.038Z</time></trkpt><trkpt lat="42.1615244" lon="11.9400088"><ele>390.25</ele><time>2026-04-19T08:46:06.041Z</time></trkpt><trkpt lat="42.1614097" lon="11.9399507"><ele>387.5</ele><time>2026-04-19T08:46:07.037Z</time></trkpt><trkpt lat="42.1612975" lon="11.9398948"><ele>384.75</ele><time>2026-04-19T08:46:08.043Z</time></trkpt><trkpt lat="42.1611767" lon="11.9399101"><ele>382.0</ele><time>2026-04-19T08:46:09.046Z</time></trkpt><trkpt lat="42.1610476" lon="11.9399345"><ele>382.0</ele><time>2026-04-19T08:46:10.04Z</time></trkpt><trkpt lat="42.1609161" lon="11.9399598"><ele>382.0</ele><time>2026-04-19T08:46:11.039Z</time></trkpt><trkpt lat="42.1607874" lon="11.9399871"><ele>382.0</ele><time>2026-04-19T08:46:12.047Z</time></trkpt><trkpt lat="42.1606642" lon="11.9400284"><ele>382.0</ele><time>2026-04-19T08:46:13.047Z</time></trkpt><trkpt lat="42.1605518" lon="11.9400949"><ele>384.75</ele><time>2026-04-19T08:46:14.037Z</time></trkpt><trkpt lat="42.1604603" lon="11.9401956"><ele>387.5</ele><time>2026-04-19T08:46:15.047Z</time></trkpt><trkpt lat="42.1603881" lon="11.9403228"><ele>390.25</ele><time>2026-04-19T08:46:16.044Z</time></trkpt><trkpt lat="42.1603332" lon="11.940471"><ele>393.0</ele><time>2026-04-19T08:46:17.051Z</time></trkpt><trkpt lat="42.1602874" lon="11.9406275"><ele>393.0</ele><time>2026-04-19T08:46:18.038Z</time></trkpt><trkpt lat="42.1602425" lon="11.9407868"><ele>393.0</ele><time>2026-04-19T08:46:19.046Z</time></trkpt><trkpt lat="42.1602027" lon="11.940951"><ele>393.0</ele><time>2026-04-19T08:46:20.045Z</time></trkpt><trkpt lat="42.1601654" lon="11.9411179"><ele>393.0</ele><time>2026-04-19T08:46:21.046Z</time></trkpt><trkpt lat="42.1601227" lon="11.9412824"><ele>393.75</ele><time>2026-04-19T08:46:22.044Z</time></trkpt><trkpt lat="42.1600634" lon="11.9414394"><ele>394.5</ele><time>2026-04-19T08:46:23.041Z</time></trkpt><trkpt lat="42.1599898" lon="11.9415812"><ele>395.25</ele><time>2026-04-19T08:46:24.049Z</time></trkpt><trkpt lat="42.1599106" lon="11.9417174"><ele>396.0</ele><time>2026-04-19T08:46:25.043Z</time></trkpt><trkpt lat="42.1598224" lon="11.9418472"><ele>396.5</ele><time>2026-04-19T08:46:26.045Z</time></trkpt><trkpt lat="42.1597232" lon="11.9419639"><ele>397.0</ele><time>2026-04-19T08:46:27.04Z</time></trkpt><trkpt lat="42.1596176" lon="11.9420705"><ele>397.5</ele><time>2026-04-19T08:46:28.044Z</time></trkpt><trkpt lat="42.1595112" lon="11.9421663"><ele>398.0</ele><time>2026-04-19T08:46:29.056Z</time></trkpt><trkpt lat="42.1593998" lon="11.9422449"><ele>398.0</ele><time>2026-04-19T08:46:30.041Z</time></trkpt><trkpt lat="42.1592822" lon="11.9422895"><ele>398.0</ele><time>2026-04-19T08:46:31.053Z</time></trkpt><trkpt lat="42.1591719" lon="11.9422846"><ele>398.0</ele><time>2026-04-19T08:46:32.045Z</time></trkpt><trkpt lat="42.1590692" lon="11.9422329"><ele>398.0</ele><time>2026-04-19T08:46:33.04Z</time></trkpt><trkpt lat="42.1589737" lon="11.942145"><ele>398.75</ele><time>2026-04-19T08:46:34.042Z</time></trkpt><trkpt lat="42.1588826" lon="11.9420404"><ele>399.5</ele><time>2026-04-19T08:46:35.045Z</time></trkpt><trkpt lat="42.1587898" lon="11.9419348"><ele>400.25</ele><time>2026-04-19T08:46:36.056Z</time></trkpt><trkpt lat="42.1586949" lon="11.9418277"><ele>401.0</ele><time>2026-04-19T08:46:37.044Z</time></trkpt><trkpt lat="42.1585903" lon="11.9417355"><ele>405.25</ele><time>2026-04-19T08:46:38.04Z</time></trkpt><trkpt lat="42.1584707" lon="11.9416915"><ele>409.5</ele><time>2026-04-19T08:46:39.044Z</time></trkpt><trkpt lat="42.1583424" lon="11.9416803"><ele>413.75</ele><time>2026-04-19T08:46:40.031Z</time></trkpt><trkpt lat="42.158217" lon="11.9416972"><ele>418.0</ele><time>2026-04-19T08:46:41.044Z</time></trkpt><trkpt lat="42.158088" lon="11.9417423"><ele>420.6666666666667</ele><time>2026-04-19T08:46:42.04Z</time></trkpt><trkpt lat="42.1579542" lon="11.9418019"><ele>423.33333333333337</ele><time>2026-04-19T08:46:43.052Z</time></trkpt><trkpt lat="42.1578152" lon="11.9418649"><ele>426.0</ele><time>2026-04-19T08:46:44.038Z</time></trkpt><trkpt lat="42.1576606" lon="11.9419385"><ele>426.0</ele><time>2026-04-19T08:46:45.044Z</time></trkpt><trkpt lat="42.1575128" lon="11.9420339"><ele>426.0</ele><time>2026-04-19T08:46:46.039Z</time></trkpt><trkpt lat="42.1573893" lon="11.9421546"><ele>426.0</ele><time>2026-04-19T08:46:47.039Z</time></trkpt><trkpt lat="42.1572884" lon="11.9423026"><ele>422.66666666666663</ele><time>2026-04-19T08:46:48.031Z</time></trkpt><trkpt lat="42.1571909" lon="11.9424722"><ele>419.3333333333333</ele><time>2026-04-19T08:46:49.048Z</time></trkpt><trkpt lat="42.1570797" lon="11.9426287"><ele>416.0</ele><time>2026-04-19T08:46:50.045Z</time></trkpt><trkpt lat="42.1569607" lon="11.9427796"><ele>416.0</ele><time>2026-04-19T08:46:51.048Z</time></trkpt><trkpt lat="42.1568126" lon="11.9428726"><ele>416.0</ele><time>2026-04-19T08:46:52.038Z</time></trkpt><trkpt lat="42.1566675" lon="11.9429497"><ele>416.0</ele><time>2026-04-19T08:46:53.05Z</time></trkpt><trkpt lat="42.156516" lon="11.9429562"><ele>412.0</ele><time>2026-04-19T08:46:54.037Z</time></trkpt><trkpt lat="42.1563713" lon="11.9429455"><ele>408.0</ele><time>2026-04-19T08:46:55.051Z</time></trkpt><trkpt lat="42.1562265" lon="11.9428541"><ele>404.0</ele><time>2026-04-19T08:46:56.045Z</time></trkpt><trkpt lat="42.1560961" lon="11.9427489"><ele>404.0</ele><time>2026-04-19T08:46:57.051Z</time></trkpt><trkpt lat="42.1559823" lon="11.9425646"><ele>404.0</ele><time>2026-04-19T08:46:58.041Z</time></trkpt><trkpt lat="42.155902" lon="11.9423843"><ele>404.0</ele><time>2026-04-19T08:46:59.048Z</time></trkpt><trkpt lat="42.1558125" lon="11.9422123"><ele>409.5</ele><time>2026-04-19T08:47:00.04Z</time></trkpt><trkpt lat="42.1557284" lon="11.9420883"><ele>415.0</ele><time>2026-04-19T08:47:01.052Z</time></trkpt><trkpt lat="42.1556414" lon="11.9419769"><ele>420.5</ele><time>2026-04-19T08:47:02.049Z</time></trkpt><trkpt lat="42.1555576" lon="11.9418845"><ele>426.0</ele><time>2026-04-19T08:47:03.046Z</time></trkpt><trkpt lat="42.1554707" lon="11.9417909"><ele>428.0</ele><time>2026-04-19T08:47:04.046Z</time></trkpt><trkpt lat="42.155382" lon="11.9416766"><ele>430.0</ele><time>2026-04-19T08:47:05.044Z</time></trkpt><trkpt lat="42.1552999" lon="11.9415525"><ele>432.0</ele><time>2026-04-19T08:47:06.054Z</time></trkpt><trkpt lat="42.1552239" lon="11.9414298"><ele>434.0</ele><time>2026-04-19T08:47:07.044Z</time></trkpt><trkpt lat="42.1551494" lon="11.9413108"><ele>434.0</ele><time>2026-04-19T08:47:08.039Z</time></trkpt><trkpt lat="42.1550774" lon="11.9411881"><ele>434.0</ele><time>2026-04-19T08:47:09.037Z</time></trkpt><trkpt lat="42.1550108" lon="11.9410703"><ele>434.0</ele><time>2026-04-19T08:47:10.033Z</time></trkpt><trkpt lat="42.154946" lon="11.9409492"><ele>434.0</ele><time>2026-04-19T08:47:11.039Z</time></trkpt><trkpt lat="42.1548862" lon="11.940827"><ele>434.0</ele><time>2026-04-19T08:47:12.037Z</time></trkpt><trkpt lat="42.1548289" lon="11.940705"><ele>436.0</ele><time>2026-04-19T08:47:13.04Z</time></trkpt><trkpt lat="42.1547791" lon="11.940579"><ele>438.0</ele><time>2026-04-19T08:47:14.041Z</time></trkpt><trkpt lat="42.154735" lon="11.9404474"><ele>440.0</ele><time>2026-04-19T08:47:15.036Z</time></trkpt><trkpt lat="42.1547033" lon="11.94031"><ele>442.0</ele><time>2026-04-19T08:47:16.039Z</time></trkpt><trkpt lat="42.1546785" lon="11.940169"><ele>444.0</ele><time>2026-04-19T08:47:17.049Z</time></trkpt><trkpt lat="42.1546538" lon="11.9400323"><ele>445.2</ele><time>2026-04-19T08:47:18.042Z</time></trkpt><trkpt lat="42.154631" lon="11.9399015"><ele>446.4</ele><time>2026-04-19T08:47:19.037Z</time></trkpt><trkpt lat="42.1546015" lon="11.939782"><ele>447.6</ele><time>2026-04-19T08:47:20.044Z</time></trkpt><trkpt lat="42.1545733" lon="11.9396561"><ele>448.8</ele><time>2026-04-19T08:47:21.052Z</time></trkpt><trkpt lat="42.1545208" lon="11.9395452"><ele>450.0</ele><time>2026-04-19T08:47:22.037Z</time></trkpt><trkpt lat="42.1544576" lon="11.9394446"><ele>450.0</ele><time>2026-04-19T08:47:23.034Z</time></trkpt><trkpt lat="42.1543738" lon="11.9393803"><ele>450.0</ele><time>2026-04-19T08:47:24.039Z</time></trkpt><trkpt lat="42.1542836" lon="11.9393518"><ele>450.0</ele><time>2026-04-19T08:47:25.042Z</time></trkpt><trkpt lat="42.1541859" lon="11.9393419"><ele>450.0</ele><time>2026-04-19T08:47:26.04Z</time></trkpt><trkpt lat="42.1540778" lon="11.9393447"><ele>450.0</ele><time>2026-04-19T08:47:27.038Z</time></trkpt><trkpt lat="42.1539705" lon="11.9393505"><ele>453.8</ele><time>2026-04-19T08:47:28.04Z</time></trkpt><trkpt lat="42.1538618" lon="11.9393579"><ele>457.6</ele><time>2026-04-19T08:47:29.046Z</time></trkpt><trkpt lat="42.1537556" lon="11.9393656"><ele>461.4</ele><time>2026-04-19T08:47:30.046Z</time></trkpt><trkpt lat="42.1536484" lon="11.9393761"><ele>465.2</ele><time>2026-04-19T08:47:31.048Z</time></trkpt><trkpt lat="42.1535428" lon="11.9394172"><ele>469.0</ele><time>2026-04-19T08:47:32.038Z</time></trkpt><trkpt lat="42.1534602" lon="11.939487"><ele>469.0</ele><time>2026-04-19T08:47:33.042Z</time></trkpt><trkpt lat="42.1534058" lon="11.9395863"><ele>469.0</ele><time>2026-04-19T08:47:34.049Z</time></trkpt><trkpt lat="42.1533812" lon="11.9397077"><ele>469.0</ele><time>2026-04-19T08:47:35.038Z</time></trkpt><trkpt lat="42.1533818" lon="11.9398388"><ele>469.0</ele><time>2026-04-19T08:47:36.039Z</time></trkpt><trkpt lat="42.1534017" lon="11.9399743"><ele>469.0</ele><time>2026-04-19T08:47:37.049Z</time></trkpt><trkpt lat="42.1534321" lon="11.9401143"><ele>469.4</ele><time>2026-04-19T08:47:38.037Z</time></trkpt><trkpt lat="42.1534629" lon="11.9402586"><ele>469.79999999999995</ele><time>2026-04-19T08:47:39.046Z</time></trkpt><trkpt lat="42.1534918" lon="11.9404066"><ele>470.20000000000005</ele><time>2026-04-19T08:47:40.045Z</time></trkpt><trkpt lat="42.1535212" lon="11.9405491"><ele>470.6</ele><time>2026-04-19T08:47:41.037Z</time></trkpt><trkpt lat="42.1535468" lon="11.9406852"><ele>471.0</ele><time>2026-04-19T08:47:42.039Z</time></trkpt><trkpt lat="42.1535402" lon="11.940819"><ele>471.20000000000005</ele><time>2026-04-19T08:47:43.047Z</time></trkpt><trkpt lat="42.1535124" lon="11.9409315"><ele>471.40000000000003</ele><time>2026-04-19T08:47:44.043Z</time></trkpt><trkpt lat="42.153485" lon="11.9410357"><ele>471.6</ele><time>2026-04-19T08:47:45.043Z</time></trkpt><trkpt lat="42.1534155" lon="11.9411305"><ele>471.8</ele><time>2026-04-19T08:47:46.066Z</time></trkpt><trkpt lat="42.153344" lon="11.9411981"><ele>472.0</ele><time>2026-04-19T08:47:47.049Z</time></trkpt><trkpt lat="42.1532528" lon="11.9412576"><ele>473.8</ele><time>2026-04-19T08:47:48.043Z</time></trkpt><trkpt lat="42.153174" lon="11.9413038"><ele>475.6</ele><time>2026-04-19T08:47:49.065Z</time></trkpt><trkpt lat="42.1531156" lon="11.9413396"><ele>477.40000000000003</ele><time>2026-04-19T08:47:50.043Z</time></trkpt><trkpt lat="42.1530195" lon="11.9414022"><ele>479.20000000000005</ele><time>2026-04-19T08:47:52.043Z</time></trkpt><trkpt lat="42.1529024" lon="11.9413362"><ele>481.0</ele><time>2026-04-19T08:47:54.042Z</time></trkpt><trkpt lat="42.1528372" lon="11.9412942"><ele>481.00000000000006</ele><time>2026-04-19T08:47:55.041Z</time></trkpt><trkpt lat="42.1527289" lon="11.9412023"><ele>481.0</ele><time>2026-04-19T08:47:57.055Z</time></trkpt><trkpt lat="42.1526615" lon="11.9411373"><ele>481.0</ele><time>2026-04-19T08:47:59.049Z</time></trkpt><trkpt lat="42.1525827" lon="11.9410988"><ele>481.0</ele><time>2026-04-19T08:48:10.047Z</time></trkpt><trkpt lat="42.1525186" lon="11.941112"><ele>481.00000000000006</ele><time>2026-04-19T08:48:12.052Z</time></trkpt><trkpt lat="42.1524442" lon="11.9411151"><ele>481.0</ele><time>2026-04-19T08:48:14.042Z</time></trkpt><trkpt lat="42.1523521" lon="11.9410675"><ele>478.0</ele><time>2026-04-19T08:48:16.042Z</time></trkpt><trkpt lat="42.152256" lon="11.9409895"><ele>475.0</ele><time>2026-04-19T08:48:18.036Z</time></trkpt><trkpt lat="42.1521755" lon="11.9409183"><ele>472.0</ele><time>2026-04-19T08:48:20.041Z</time></trkpt><trkpt lat="42.1520859" lon="11.94085"><ele>469.0</ele><time>2026-04-19T08:48:22.044Z</time></trkpt><trkpt lat="42.1520203" lon="11.9408204"><ele>466.0</ele><time>2026-04-19T08:48:24.048Z</time></trkpt><trkpt lat="42.1519313" lon="11.9407665"><ele>465.6666666666667</ele><time>2026-04-19T08:48:26.056Z</time></trkpt><trkpt lat="42.1518376" lon="11.9407091"><ele>465.33333333333337</ele><time>2026-04-19T08:48:28.039Z</time></trkpt><trkpt lat="42.1517549" lon="11.9406695"><ele>465.0</ele><time>2026-04-19T08:48:30.056Z</time></trkpt><trkpt lat="42.1516763" lon="11.9406453"><ele>464.66666666666663</ele><time>2026-04-19T08:48:32.039Z</time></trkpt><trkpt lat="42.151603" lon="11.9406078"><ele>464.3333333333333</ele><time>2026-04-19T08:48:34.049Z</time></trkpt><trkpt lat="42.151516" lon="11.9405586"><ele>464.0</ele><time>2026-04-19T08:48:36.043Z</time></trkpt><trkpt lat="42.1514329" lon="11.9404796"><ele>458.8333333333333</ele><time>2026-04-19T08:48:38.048Z</time></trkpt><trkpt lat="42.151358" lon="11.9403977"><ele>453.66666666666663</ele><time>2026-04-19T08:48:40.041Z</time></trkpt><trkpt lat="42.151283" lon="11.940353"><ele>448.5</ele><time>2026-04-19T08:48:42.044Z</time></trkpt><trkpt lat="42.1512142" lon="11.9403256"><ele>443.33333333333337</ele><time>2026-04-19T08:48:44.055Z</time></trkpt><trkpt lat="42.1513225" lon="11.9403795"><ele>438.1666666666667</ele><time>2026-04-19T08:49:11.049Z</time></trkpt><trkpt lat="42.1513798" lon="11.9404257"><ele>433.0</ele><time>2026-04-19T08:49:12.049Z</time></trkpt><trkpt lat="42.1514412" lon="11.9404795"><ele>432.99999999999994</ele><time>2026-04-19T08:49:13.042Z</time></trkpt><trkpt lat="42.1515016" lon="11.9405371"><ele>433.0</ele><time>2026-04-19T08:49:14.041Z</time></trkpt><trkpt lat="42.1515619" lon="11.9405932"><ele>433.0</ele><time>2026-04-19T08:49:15.057Z</time></trkpt><trkpt lat="42.1516322" lon="11.9406374"><ele>433.0</ele><time>2026-04-19T08:49:16.04Z</time></trkpt><trkpt lat="42.1517001" lon="11.9406705"><ele>433.0</ele><time>2026-04-19T08:49:17.046Z</time></trkpt><trkpt lat="42.1517658" lon="11.9406999"><ele>432.99999999999994</ele><time>2026-04-19T08:49:18.048Z</time></trkpt><trkpt lat="42.1518382" lon="11.9407241"><ele>433.0</ele><time>2026-04-19T08:49:19.045Z</time></trkpt><trkpt lat="42.1519116" lon="11.9407485"><ele>439.2</ele><time>2026-04-19T08:49:20.039Z</time></trkpt><trkpt lat="42.1519801" lon="11.940783"><ele>445.4</ele><time>2026-04-19T08:49:21.043Z</time></trkpt><trkpt lat="42.1520827" lon="11.9408583"><ele>451.59999999999997</ele><time>2026-04-19T08:49:23.04Z</time></trkpt><trkpt lat="42.1521822" lon="11.9409149"><ele>457.79999999999995</ele><time>2026-04-19T08:49:25.037Z</time></trkpt><trkpt lat="42.1522765" lon="11.9409788"><ele>464.0</ele><time>2026-04-19T08:49:27.046Z</time></trkpt><trkpt lat="42.1523803" lon="11.9410223"><ele>466.66666666666663</ele><time>2026-04-19T08:49:29.043Z</time></trkpt><trkpt lat="42.1524106" lon="11.9410971"><ele>469.3333333333333</ele><time>2026-04-19T08:49:31.047Z</time></trkpt><trkpt lat="42.1524916" lon="11.9411423"><ele>472.0</ele><time>2026-04-19T08:49:34.053Z</time></trkpt><trkpt lat="42.152569" lon="11.941141"><ele>474.66666666666663</ele><time>2026-04-19T08:49:36.054Z</time></trkpt><trkpt lat="42.1526015" lon="11.941042"><ele>477.3333333333333</ele><time>2026-04-19T08:49:39.055Z</time></trkpt><trkpt lat="42.1525539" lon="11.9409083"><ele>480.0</ele><time>2026-04-19T08:49:41.045Z</time></trkpt><trkpt lat="42.1524837" lon="11.9407708"><ele>480.0</ele><time>2026-04-19T08:49:43.048Z</time></trkpt><trkpt lat="42.1524394" lon="11.940701"><ele>480.0</ele><time>2026-04-19T08:49:44.038Z</time></trkpt><trkpt lat="42.1523315" lon="11.9406265"><ele>480.0</ele><time>2026-04-19T08:49:46.043Z</time></trkpt><trkpt lat="42.1522749" lon="11.9405838"><ele>480.0</ele><time>2026-04-19T08:49:47.047Z</time></trkpt><trkpt lat="42.1522157" lon="11.9405446"><ele>480.0</ele><time>2026-04-19T08:49:48.045Z</time></trkpt><trkpt lat="42.1521546" lon="11.9404993"><ele>480.0</ele><time>2026-04-19T08:49:49.048Z</time></trkpt><trkpt lat="42.1520914" lon="11.9404591"><ele>477.3333333333333</ele><time>2026-04-19T08:49:50.038Z</time></trkpt><trkpt lat="42.1520278" lon="11.9404128"><ele>474.66666666666663</ele><time>2026-04-19T08:49:51.046Z</time></trkpt><trkpt lat="42.1519644" lon="11.9403684"><ele>472.0</ele><time>2026-04-19T08:49:52.048Z</time></trkpt><trkpt lat="42.1518985" lon="11.9403072"><ele>469.3333333333333</ele><time>2026-04-19T08:49:53.05Z</time></trkpt><trkpt lat="42.1518357" lon="11.9402448"><ele>466.66666666666663</ele><time>2026-04-19T08:49:54.048Z</time></trkpt><trkpt lat="42.1517757" lon="11.9401803"><ele>464.0</ele><time>2026-04-19T08:49:55.045Z</time></trkpt><trkpt lat="42.1517133" lon="11.9401163"><ele>463.99999999999994</ele><time>2026-04-19T08:49:56.048Z</time></trkpt><trkpt lat="42.1516531" lon="11.9400518"><ele>464.0</ele><time>2026-04-19T08:49:57.048Z</time></trkpt><trkpt lat="42.1515951" lon="11.9399921"><ele>464.0</ele><time>2026-04-19T08:49:58.047Z</time></trkpt><trkpt lat="42.1515358" lon="11.9399294"><ele>464.0</ele><time>2026-04-19T08:49:59.059Z</time></trkpt><trkpt lat="42.1514764" lon="11.9398637"><ele>463.99999999999994</ele><time>2026-04-19T08:50:00.048Z</time></trkpt><trkpt lat="42.1514137" lon="11.9398008"><ele>464.0</ele><time>2026-04-19T08:50:01.04Z</time></trkpt><trkpt lat="42.1513498" lon="11.939738"><ele>463.3333333333333</ele><time>2026-04-19T08:50:02.049Z</time></trkpt><trkpt lat="42.1512853" lon="11.9396785"><ele>462.66666666666663</ele><time>2026-04-19T08:50:03.053Z</time></trkpt><trkpt lat="42.1512189" lon="11.9396205"><ele>462.0</ele><time>2026-04-19T08:50:04.048Z</time></trkpt><trkpt lat="42.1511537" lon="11.9395633"><ele>461.33333333333337</ele><time>2026-04-19T08:50:05.038Z</time></trkpt><trkpt lat="42.1510891" lon="11.9395058"><ele>460.6666666666667</ele><time>2026-04-19T08:50:06.047Z</time></trkpt><trkpt lat="42.1510216" lon="11.9394457"><ele>460.0</ele><time>2026-04-19T08:50:07.076Z</time></trkpt><trkpt lat="42.1509573" lon="11.9393908"><ele>460.00000000000006</ele><time>2026-04-19T08:50:08.051Z</time></trkpt><trkpt lat="42.1508905" lon="11.9393425"><ele>460.0</ele><time>2026-04-19T08:50:09.042Z</time></trkpt><trkpt lat="42.1508224" lon="11.9392937"><ele>460.0</ele><time>2026-04-19T08:50:10.042Z</time></trkpt><trkpt lat="42.1507583" lon="11.9392405"><ele>460.0</ele><time>2026-04-19T08:50:11.043Z</time></trkpt><trkpt lat="42.1506963" lon="11.9391835"><ele>460.00000000000006</ele><time>2026-04-19T08:50:12.051Z</time></trkpt><trkpt lat="42.1506325" lon="11.9391295"><ele>460.0</ele><time>2026-04-19T08:50:13.047Z</time></trkpt><trkpt lat="42.1505669" lon="11.9390846"><ele>462.50000000000006</ele><time>2026-04-19T08:50:14.036Z</time></trkpt><trkpt lat="42.1505017" lon="11.9390399"><ele>465.0</ele><time>2026-04-19T08:50:15.043Z</time></trkpt><trkpt lat="42.150439" lon="11.9389938"><ele>467.5</ele><time>2026-04-19T08:50:16.056Z</time></trkpt><trkpt lat="42.150379" lon="11.938946"><ele>470.0</ele><time>2026-04-19T08:50:17.052Z</time></trkpt><trkpt lat="42.1503255" lon="11.9388959"><ele>472.50000000000006</ele><time>2026-04-19T08:50:18.039Z</time></trkpt><trkpt lat="42.1502284" lon="11.9387864"><ele>475.0</ele><time>2026-04-19T08:50:20.043Z</time></trkpt><trkpt lat="42.1501836" lon="11.9387194"><ele>475.0</ele><time>2026-04-19T08:50:21.037Z</time></trkpt><trkpt lat="42.1501284" lon="11.938581"><ele>475.0</ele><time>2026-04-19T08:50:23.052Z</time></trkpt><trkpt lat="42.1501097" lon="11.9384287"><ele>475.0</ele><time>2026-04-19T08:50:25.036Z</time></trkpt><trkpt lat="42.1501281" lon="11.9382518"><ele>475.0</ele><time>2026-04-19T08:50:27.044Z</time></trkpt><trkpt lat="42.1501342" lon="11.9381546"><ele>475.0</ele><time>2026-04-19T08:50:28.042Z</time></trkpt><trkpt lat="42.150131" lon="11.9380517"><ele>476.50000000000006</ele><time>2026-04-19T08:50:29.049Z</time></trkpt><trkpt lat="42.1501313" lon="11.9379476"><ele>478.0</ele><time>2026-04-19T08:50:30.033Z</time></trkpt><trkpt lat="42.1501329" lon="11.937841"><ele>479.5</ele><time>2026-04-19T08:50:31.038Z</time></trkpt><trkpt lat="42.1501325" lon="11.9377374"><ele>481.0</ele><time>2026-04-19T08:50:32.045Z</time></trkpt><trkpt lat="42.1501318" lon="11.9376328"><ele>482.50000000000006</ele><time>2026-04-19T08:50:33.034Z</time></trkpt><trkpt lat="42.1501313" lon="11.9375294"><ele>484.0</ele><time>2026-04-19T08:50:34.038Z</time></trkpt><trkpt lat="42.1501297" lon="11.937422"><ele>484.33333333333337</ele><time>2026-04-19T08:50:35.041Z</time></trkpt><trkpt lat="42.1501293" lon="11.9373162"><ele>484.6666666666667</ele><time>2026-04-19T08:50:36.037Z</time></trkpt><trkpt lat="42.1501328" lon="11.9372057"><ele>485.0</ele><time>2026-04-19T08:50:37.038Z</time></trkpt><trkpt lat="42.1501331" lon="11.937103"><ele>485.33333333333337</ele><time>2026-04-19T08:50:38.036Z</time></trkpt><trkpt lat="42.1501331" lon="11.9370078"><ele>485.6666666666667</ele><time>2026-04-19T08:50:39.039Z</time></trkpt><trkpt lat="42.150134" lon="11.9368658"><ele>486.0</ele><time>2026-04-19T08:50:41.038Z</time></trkpt><trkpt lat="42.1501357" lon="11.9367578"><ele>485.8333333333333</ele><time>2026-04-19T08:50:43.04Z</time></trkpt><trkpt lat="42.1501371" lon="11.9366131"><ele>485.66666666666663</ele><time>2026-04-19T08:50:45.04Z</time></trkpt><trkpt lat="42.1501392" lon="11.9365243"><ele>485.5</ele><time>2026-04-19T08:50:46.039Z</time></trkpt><trkpt lat="42.1501428" lon="11.9364195"><ele>485.3333333333333</ele><time>2026-04-19T08:50:47.04Z</time></trkpt><trkpt lat="42.1501463" lon="11.9363171"><ele>485.16666666666663</ele><time>2026-04-19T08:50:48.041Z</time></trkpt><trkpt lat="42.1501457" lon="11.9362157"><ele>485.0</ele><time>2026-04-19T08:50:49.036Z</time></trkpt><trkpt lat="42.1501476" lon="11.9361108"><ele>484.99999999999994</ele><time>2026-04-19T08:50:50.037Z</time></trkpt><trkpt lat="42.1501486" lon="11.9360035"><ele>485.0</ele><time>2026-04-19T08:50:51.04Z</time></trkpt><trkpt lat="42.1501478" lon="11.9358959"><ele>485.0</ele><time>2026-04-19T08:50:52.039Z</time></trkpt><trkpt lat="42.1501488" lon="11.9357944"><ele>485.0</ele><time>2026-04-19T08:50:53.04Z</time></trkpt><trkpt lat="42.1501503" lon="11.935697"><ele>484.99999999999994</ele><time>2026-04-19T08:50:54.043Z</time></trkpt><trkpt lat="42.1501517" lon="11.9355974"><ele>485.0</ele><time>2026-04-19T08:50:55.033Z</time></trkpt><trkpt lat="42.150155" lon="11.9354892"><ele>485.2</ele><time>2026-04-19T08:50:56.045Z</time></trkpt><trkpt lat="42.1501582" lon="11.9353624"><ele>485.4</ele><time>2026-04-19T08:50:57.044Z</time></trkpt><trkpt lat="42.1501616" lon="11.9352399"><ele>485.6</ele><time>2026-04-19T08:50:58.036Z</time></trkpt><trkpt lat="42.1501681" lon="11.9351071"><ele>485.8</ele><time>2026-04-19T08:50:59.04Z</time></trkpt><trkpt lat="42.1501727" lon="11.9349656"><ele>486.0</ele><time>2026-04-19T08:51:00.043Z</time></trkpt><trkpt lat="42.1501732" lon="11.9348088"><ele>486.25</ele><time>2026-04-19T08:51:01.037Z</time></trkpt><trkpt lat="42.1501643" lon="11.9346457"><ele>486.5</ele><time>2026-04-19T08:51:02.039Z</time></trkpt><trkpt lat="42.1501426" lon="11.9344867"><ele>486.75</ele><time>2026-04-19T08:51:03.038Z</time></trkpt><trkpt lat="42.1501047" lon="11.9343368"><ele>487.0</ele><time>2026-04-19T08:51:04.041Z</time></trkpt><trkpt lat="42.1500539" lon="11.9342012"><ele>488.5</ele><time>2026-04-19T08:51:05.044Z</time></trkpt><trkpt lat="42.1499923" lon="11.934075"><ele>490.0</ele><time>2026-04-19T08:51:06.045Z</time></trkpt><trkpt lat="42.1499261" lon="11.9339502"><ele>491.5</ele><time>2026-04-19T08:51:07.044Z</time></trkpt><trkpt lat="42.1498602" lon="11.9338235"><ele>493.0</ele><time>2026-04-19T08:51:08.038Z</time></trkpt><trkpt lat="42.1497903" lon="11.9336945"><ele>489.75</ele><time>2026-04-19T08:51:09.041Z</time></trkpt><trkpt lat="42.149722" lon="11.9335637"><ele>486.5</ele><time>2026-04-19T08:51:10.043Z</time></trkpt><trkpt lat="42.1496529" lon="11.9334309"><ele>483.25</ele><time>2026-04-19T08:51:11.045Z</time></trkpt><trkpt lat="42.1495875" lon="11.9332949"><ele>480.0</ele><time>2026-04-19T08:51:12.044Z</time></trkpt><trkpt lat="42.1495262" lon="11.9331539"><ele>480.0</ele><time>2026-04-19T08:51:13.055Z</time></trkpt><trkpt lat="42.149473" lon="11.9330077"><ele>480.0</ele><time>2026-04-19T08:51:14.041Z</time></trkpt><trkpt lat="42.1494289" lon="11.9328564"><ele>480.0</ele><time>2026-04-19T08:51:15.048Z</time></trkpt><trkpt lat="42.1493957" lon="11.9326984"><ele>480.0</ele><time>2026-04-19T08:51:16.069Z</time></trkpt><trkpt lat="42.1493753" lon="11.9325349"><ele>483.5</ele><time>2026-04-19T08:51:17.047Z</time></trkpt><trkpt lat="42.1493667" lon="11.9323704"><ele>487.0</ele><time>2026-04-19T08:51:18.034Z</time></trkpt><trkpt lat="42.1493684" lon="11.9322065"><ele>490.5</ele><time>2026-04-19T08:51:19.05Z</time></trkpt><trkpt lat="42.1493824" lon="11.9320445"><ele>494.0</ele><time>2026-04-19T08:51:20.045Z</time></trkpt><trkpt lat="42.1494097" lon="11.9318829"><ele>494.5</ele><time>2026-04-19T08:51:21.044Z</time></trkpt><trkpt lat="42.1494505" lon="11.9317214"><ele>495.0</ele><time>2026-04-19T08:51:22.085Z</time></trkpt><trkpt lat="42.1495014" lon="11.9315627"><ele>495.5</ele><time>2026-04-19T08:51:23.044Z</time></trkpt><trkpt lat="42.1495553" lon="11.9314046"><ele>496.0</ele><time>2026-04-19T08:51:24.036Z</time></trkpt><trkpt lat="42.1496086" lon="11.9312467"><ele>496.0</ele><time>2026-04-19T08:51:25.043Z</time></trkpt><trkpt lat="42.1496612" lon="11.9310913"><ele>496.0</ele><time>2026-04-19T08:51:26.05Z</time></trkpt><trkpt lat="42.1497113" lon="11.930937"><ele>496.0</ele><time>2026-04-19T08:51:27.042Z</time></trkpt><trkpt lat="42.1497606" lon="11.9307864"><ele>496.0</ele><time>2026-04-19T08:51:28.047Z</time></trkpt><trkpt lat="42.1498087" lon="11.9306388"><ele>494.25</ele><time>2026-04-19T08:51:29.053Z</time></trkpt><trkpt lat="42.1498526" lon="11.9304889"><ele>492.5</ele><time>2026-04-19T08:51:30.04Z</time></trkpt><trkpt lat="42.1498961" lon="11.9303417"><ele>490.75</ele><time>2026-04-19T08:51:31.045Z</time></trkpt><trkpt lat="42.1499398" lon="11.9301942"><ele>489.0</ele><time>2026-04-19T08:51:32.043Z</time></trkpt><trkpt lat="42.1499863" lon="11.9300483"><ele>492.6</ele><time>2026-04-19T08:51:33.042Z</time></trkpt><trkpt lat="42.1500268" lon="11.9299158"><ele>496.2</ele><time>2026-04-19T08:51:34.045Z</time></trkpt><trkpt lat="42.1500675" lon="11.9297969"><ele>499.80000000000007</ele><time>2026-04-19T08:51:35.046Z</time></trkpt><trkpt lat="42.1501136" lon="11.9296823"><ele>503.40000000000003</ele><time>2026-04-19T08:51:36.045Z</time></trkpt><trkpt lat="42.1501644" lon="11.9295682"><ele>507.0</ele><time>2026-04-19T08:51:37.062Z</time></trkpt><trkpt lat="42.1502102" lon="11.9294657"><ele>507.0</ele><time>2026-04-19T08:51:38.045Z</time></trkpt><trkpt lat="42.1502594" lon="11.9293859"><ele>507.0</ele><time>2026-04-19T08:51:39.045Z</time></trkpt><trkpt lat="42.1503071" lon="11.9293163"><ele>507.0</ele><time>2026-04-19T08:51:40.056Z</time></trkpt><trkpt lat="42.1503508" lon="11.9292431"><ele>507.0</ele><time>2026-04-19T08:51:41.049Z</time></trkpt><trkpt lat="42.1503899" lon="11.929158"><ele>507.0</ele><time>2026-04-19T08:51:42.036Z</time></trkpt><trkpt lat="42.1504211" lon="11.9290596"><ele>507.0</ele><time>2026-04-19T08:51:43.044Z</time></trkpt><trkpt lat="42.150432" lon="11.9289624"><ele>507.0</ele><time>2026-04-19T08:51:44.044Z</time></trkpt><trkpt lat="42.1504549" lon="11.9288646"><ele>507.6666666666667</ele><time>2026-04-19T08:51:45.042Z</time></trkpt><trkpt lat="42.1504749" lon="11.9287669"><ele>508.33333333333337</ele><time>2026-04-19T08:51:46.042Z</time></trkpt><trkpt lat="42.1504936" lon="11.9286739"><ele>509.0</ele><time>2026-04-19T08:51:47.049Z</time></trkpt><trkpt lat="42.150515" lon="11.9285787"><ele>509.6666666666667</ele><time>2026-04-19T08:51:48.04Z</time></trkpt><trkpt lat="42.1505338" lon="11.9284905"><ele>510.33333333333337</ele><time>2026-04-19T08:51:49.046Z</time></trkpt><trkpt lat="42.150553" lon="11.9284014"><ele>511.0</ele><time>2026-04-19T08:51:50.038Z</time></trkpt><trkpt lat="42.1505866" lon="11.9282614"><ele>511.6666666666667</ele><time>2026-04-19T08:51:52.044Z</time></trkpt><trkpt lat="42.1506101" lon="11.9281301"><ele>512.3333333333334</ele><time>2026-04-19T08:51:54.042Z</time></trkpt><trkpt lat="42.150635" lon="11.9280297"><ele>513.0</ele><time>2026-04-19T08:51:56.041Z</time></trkpt><trkpt lat="42.1506459" lon="11.9279403"><ele>513.6666666666666</ele><time>2026-04-19T08:52:30.035Z</time></trkpt><trkpt lat="42.1506201" lon="11.9280473"><ele>514.3333333333333</ele><time>2026-04-19T08:52:34.049Z</time></trkpt><trkpt lat="42.1506087" lon="11.9281551"><ele>515.0</ele><time>2026-04-19T08:52:36.04Z</time></trkpt><trkpt lat="42.1505868" lon="11.9282759"><ele>514.2</ele><time>2026-04-19T08:52:38.042Z</time></trkpt><trkpt lat="42.1505427" lon="11.9284698"><ele>513.4</ele><time>2026-04-19T08:52:40.041Z</time></trkpt><trkpt lat="42.1505176" lon="11.9285831"><ele>512.6</ele><time>2026-04-19T08:52:41.039Z</time></trkpt><trkpt lat="42.15049" lon="11.9287085"><ele>511.8</ele><time>2026-04-19T08:52:42.044Z</time></trkpt><trkpt lat="42.1504642" lon="11.928832"><ele>511.0</ele><time>2026-04-19T08:52:43.038Z</time></trkpt><trkpt lat="42.1504287" lon="11.9289394"><ele>511.0</ele><time>2026-04-19T08:52:44.035Z</time></trkpt><trkpt lat="42.1504004" lon="11.9290267"><ele>511.0</ele><time>2026-04-19T08:52:45.044Z</time></trkpt><trkpt lat="42.1503984" lon="11.9291281"><ele>511.0</ele><time>2026-04-19T08:52:47.043Z</time></trkpt><trkpt lat="42.1504613" lon="11.929211"><ele>511.0</ele><time>2026-04-19T08:52:49.05Z</time></trkpt><trkpt lat="42.1505255" lon="11.9292043"><ele>511.0</ele><time>2026-04-19T08:52:50.044Z</time></trkpt><trkpt lat="42.1505931" lon="11.9291725"><ele>511.0</ele><time>2026-04-19T08:52:51.078Z</time></trkpt><trkpt lat="42.1506586" lon="11.9291419"><ele>511.0</ele><time>2026-04-19T08:52:52.045Z</time></trkpt><trkpt lat="42.1507531" lon="11.9290656"><ele>510.83333333333337</ele><time>2026-04-19T08:52:54.043Z</time></trkpt><trkpt lat="42.1508158" lon="11.9290208"><ele>510.6666666666667</ele><time>2026-04-19T08:52:56.037Z</time></trkpt><trkpt lat="42.1508722" lon="11.9289819"><ele>510.5</ele><time>2026-04-19T08:53:00.042Z</time></trkpt><trkpt lat="42.150934" lon="11.9290117"><ele>510.33333333333337</ele><time>2026-04-19T08:53:04.046Z</time></trkpt><trkpt lat="42.1510582" lon="11.9289731"><ele>510.1666666666667</ele><time>2026-04-19T08:53:15.064Z</time></trkpt><trkpt lat="42.151112" lon="11.9288896"><ele>510.0</ele><time>2026-04-19T08:54:38.037Z</time></trkpt><trkpt lat="42.1509496" lon="11.928891"><ele>510.0</ele><time>2026-04-19T08:54:57.049Z</time></trkpt><trkpt lat="42.150854" lon="11.9289298"><ele>510.0</ele><time>2026-04-19T08:56:10.046Z</time></trkpt><trkpt lat="42.1508354" lon="11.9290166"><ele>510.0</ele><time>2026-04-19T08:57:16.041Z</time></trkpt><trkpt lat="42.1507678" lon="11.9291085"><ele>510.0</ele><time>2026-04-19T08:57:20.045Z</time></trkpt><trkpt lat="42.1506539" lon="11.9291668"><ele>510.0</ele><time>2026-04-19T08:57:22.037Z</time></trkpt><trkpt lat="42.1505835" lon="11.9291865"><ele>510.1666666666667</ele><time>2026-04-19T08:57:23.042Z</time></trkpt><trkpt lat="42.1505188" lon="11.9291968"><ele>510.33333333333337</ele><time>2026-04-19T08:57:24.048Z</time></trkpt><trkpt lat="42.1504326" lon="11.9291704"><ele>510.5</ele><time>2026-04-19T08:57:26.043Z</time></trkpt><trkpt lat="42.1504448" lon="11.9290242"><ele>510.6666666666667</ele><time>2026-04-19T08:57:28.056Z</time></trkpt><trkpt lat="42.1504655" lon="11.9289334"><ele>510.83333333333337</ele><time>2026-04-19T08:57:29.043Z</time></trkpt><trkpt lat="42.1504881" lon="11.9288267"><ele>511.0</ele><time>2026-04-19T08:57:30.044Z</time></trkpt><trkpt lat="42.1505081" lon="11.928711"><ele>511.0</ele><time>2026-04-19T08:57:31.047Z</time></trkpt><trkpt lat="42.1505346" lon="11.9285945"><ele>511.0</ele><time>2026-04-19T08:57:32.044Z</time></trkpt><trkpt lat="42.1505592" lon="11.9284643"><ele>511.0</ele><time>2026-04-19T08:57:33.045Z</time></trkpt><trkpt lat="42.1505885" lon="11.9283265"><ele>511.0</ele><time>2026-04-19T08:57:34.051Z</time></trkpt><trkpt lat="42.1506163" lon="11.9281785"><ele>511.0</ele><time>2026-04-19T08:57:35.041Z</time></trkpt><trkpt lat="42.1506434" lon="11.9280158"><ele>512.0</ele><time>2026-04-19T08:57:36.034Z</time></trkpt><trkpt lat="42.1506699" lon="11.9278513"><ele>513.0</ele><time>2026-04-19T08:57:37.047Z</time></trkpt><trkpt lat="42.1506898" lon="11.927684"><ele>514.0</ele><time>2026-04-19T08:57:38.045Z</time></trkpt><trkpt lat="42.1507099" lon="11.9275143"><ele>515.0</ele><time>2026-04-19T08:57:39.039Z</time></trkpt><trkpt lat="42.150724" lon="11.9273494"><ele>518.0</ele><time>2026-04-19T08:57:40.042Z</time></trkpt><trkpt lat="42.1507407" lon="11.9271799"><ele>521.0</ele><time>2026-04-19T08:57:41.047Z</time></trkpt><trkpt lat="42.1507598" lon="11.9270192"><ele>524.0</ele><time>2026-04-19T08:57:42.048Z</time></trkpt><trkpt lat="42.1507764" lon="11.9268647"><ele>527.0</ele><time>2026-04-19T08:57:43.038Z</time></trkpt><trkpt lat="42.1507936" lon="11.9267164"><ele>528.0</ele><time>2026-04-19T08:57:44.042Z</time></trkpt><trkpt lat="42.1508056" lon="11.9265783"><ele>529.0</ele><time>2026-04-19T08:57:45.048Z</time></trkpt><trkpt lat="42.1508177" lon="11.9264465"><ele>530.0</ele><time>2026-04-19T08:57:46.038Z</time></trkpt><trkpt lat="42.1508312" lon="11.926308"><ele>531.0</ele><time>2026-04-19T08:57:47.038Z</time></trkpt><trkpt lat="42.1508439" lon="11.926165"><ele>532.0</ele><time>2026-04-19T08:57:48.043Z</time></trkpt><trkpt lat="42.1508602" lon="11.9260074"><ele>532.5</ele><time>2026-04-19T08:57:49.041Z</time></trkpt><trkpt lat="42.1508821" lon="11.9258402"><ele>533.0</ele><time>2026-04-19T08:57:50.042Z</time></trkpt><trkpt lat="42.1509125" lon="11.9256654"><ele>533.5</ele><time>2026-04-19T08:57:51.047Z</time></trkpt><trkpt lat="42.1509404" lon="11.9254881"><ele>534.0</ele><time>2026-04-19T08:57:52.048Z</time></trkpt><trkpt lat="42.1509728" lon="11.925301"><ele>534.0</ele><time>2026-04-19T08:57:53.063Z</time></trkpt><trkpt lat="42.1510132" lon="11.9251105"><ele>534.0</ele><time>2026-04-19T08:57:54.044Z</time></trkpt><trkpt lat="42.151074" lon="11.9249266"><ele>534.0</ele><time>2026-04-19T08:57:55.043Z</time></trkpt><trkpt lat="42.1511526" lon="11.9247568"><ele>534.0</ele><time>2026-04-19T08:57:56.041Z</time></trkpt><trkpt lat="42.1512476" lon="11.9246093"><ele>535.25</ele><time>2026-04-19T08:57:57.057Z</time></trkpt><trkpt lat="42.1513521" lon="11.9244794"><ele>536.5</ele><time>2026-04-19T08:57:58.049Z</time></trkpt><trkpt lat="42.1514512" lon="11.9243378"><ele>537.75</ele><time>2026-04-19T08:57:59.052Z</time></trkpt><trkpt lat="42.1515264" lon="11.9241889"><ele>539.0</ele><time>2026-04-19T08:58:00.053Z</time></trkpt><trkpt lat="42.1515733" lon="11.9240242"><ele>536.75</ele><time>2026-04-19T08:58:01.05Z</time></trkpt><trkpt lat="42.1515957" lon="11.9238464"><ele>534.5</ele><time>2026-04-19T08:58:02.055Z</time></trkpt><trkpt lat="42.1515981" lon="11.9236575"><ele>532.25</ele><time>2026-04-19T08:58:03.043Z</time></trkpt><trkpt lat="42.1515996" lon="11.9234672"><ele>530.0</ele><time>2026-04-19T08:58:04.047Z</time></trkpt><trkpt lat="42.151596" lon="11.923274"><ele>530.0</ele><time>2026-04-19T08:58:05.097Z</time></trkpt><trkpt lat="42.1515937" lon="11.9230797"><ele>530.0</ele><time>2026-04-19T08:58:06.075Z</time></trkpt><trkpt lat="42.1515895" lon="11.9228931"><ele>530.0</ele><time>2026-04-19T08:58:07.049Z</time></trkpt><trkpt lat="42.15158" lon="11.922706"><ele>530.0</ele><time>2026-04-19T08:58:08.05Z</time></trkpt><trkpt lat="42.1515646" lon="11.9225201"><ele>529.25</ele><time>2026-04-19T08:58:09.043Z</time></trkpt><trkpt lat="42.1515438" lon="11.9223371"><ele>528.5</ele><time>2026-04-19T08:58:10.04Z</time></trkpt><trkpt lat="42.1515205" lon="11.9221775"><ele>527.75</ele><time>2026-04-19T08:58:11.048Z</time></trkpt><trkpt lat="42.1514752" lon="11.9220415"><ele>527.0</ele><time>2026-04-19T08:58:12.051Z</time></trkpt><trkpt lat="42.1514283" lon="11.9219061"><ele>526.75</ele><time>2026-04-19T08:58:13.056Z</time></trkpt><trkpt lat="42.1513442" lon="11.92178"><ele>526.5</ele><time>2026-04-19T08:58:14.05Z</time></trkpt><trkpt lat="42.1512529" lon="11.9216366"><ele>526.25</ele><time>2026-04-19T08:58:15.045Z</time></trkpt><trkpt lat="42.1511616" lon="11.9214893"><ele>526.0</ele><time>2026-04-19T08:58:16.046Z</time></trkpt><trkpt lat="42.1510663" lon="11.921334"><ele>527.0</ele><time>2026-04-19T08:58:17.057Z</time></trkpt><trkpt lat="42.1509709" lon="11.9211774"><ele>528.0</ele><time>2026-04-19T08:58:18.035Z</time></trkpt><trkpt lat="42.1508683" lon="11.9210199"><ele>529.0</ele><time>2026-04-19T08:58:19.047Z</time></trkpt><trkpt lat="42.1507665" lon="11.9208687"><ele>523.25</ele><time>2026-04-19T08:58:20.045Z</time></trkpt><trkpt lat="42.1506671" lon="11.9207254"><ele>517.5</ele><time>2026-04-19T08:58:21.038Z</time></trkpt><trkpt lat="42.1505774" lon="11.9205843"><ele>511.75</ele><time>2026-04-19T08:58:22.041Z</time></trkpt><trkpt lat="42.1504942" lon="11.9204534"><ele>506.0</ele><time>2026-04-19T08:58:23.046Z</time></trkpt><trkpt lat="42.1504355" lon="11.9203391"><ele>505.99999999999994</ele><time>2026-04-19T08:58:24.039Z</time></trkpt><trkpt lat="42.1503855" lon="11.9202466"><ele>506.0</ele><time>2026-04-19T08:58:25.045Z</time></trkpt><trkpt lat="42.1503372" lon="11.920163"><ele>506.0</ele><time>2026-04-19T08:58:26.043Z</time></trkpt><trkpt lat="42.1503004" lon="11.9200911"><ele>506.0</ele><time>2026-04-19T08:58:27.039Z</time></trkpt><trkpt lat="42.1502099" lon="11.9200587"><ele>505.99999999999994</ele><time>2026-04-19T08:58:29.049Z</time></trkpt><trkpt lat="42.1501466" lon="11.920079"><ele>506.0</ele><time>2026-04-19T08:58:30.044Z</time></trkpt><trkpt lat="42.1500773" lon="11.9200965"><ele>505.99999999999994</ele><time>2026-04-19T08:58:31.05Z</time></trkpt><trkpt lat="42.1499874" lon="11.920087"><ele>506.0</ele><time>2026-04-19T08:58:32.052Z</time></trkpt><trkpt lat="42.1498971" lon="11.9200737"><ele>506.0</ele><time>2026-04-19T08:58:33.053Z</time></trkpt><trkpt lat="42.1498067" lon="11.920102"><ele>506.0</ele><time>2026-04-19T08:58:34.055Z</time></trkpt><trkpt lat="42.1497448" lon="11.9201733"><ele>505.99999999999994</ele><time>2026-04-19T08:58:35.045Z</time></trkpt><trkpt lat="42.1496989" lon="11.9202663"><ele>506.0</ele><time>2026-04-19T08:58:36.049Z</time></trkpt><trkpt lat="42.1496656" lon="11.9203656"><ele>504.4</ele><time>2026-04-19T08:58:37.051Z</time></trkpt><trkpt lat="42.1496598" lon="11.9204831"><ele>502.8</ele><time>2026-04-19T08:58:38.046Z</time></trkpt><trkpt lat="42.1496661" lon="11.9206067"><ele>501.19999999999993</ele><time>2026-04-19T08:58:39.044Z</time></trkpt><trkpt lat="42.1496487" lon="11.9207345"><ele>499.59999999999997</ele><time>2026-04-19T08:58:40.051Z</time></trkpt><trkpt lat="42.1495915" lon="11.9208523"><ele>498.0</ele><time>2026-04-19T08:58:41.042Z</time></trkpt><trkpt lat="42.1495269" lon="11.9209488"><ele>496.0</ele><time>2026-04-19T08:58:42.037Z</time></trkpt><trkpt lat="42.1494529" lon="11.9210236"><ele>493.99999999999994</ele><time>2026-04-19T08:58:43.046Z</time></trkpt><trkpt lat="42.1493722" lon="11.9210891"><ele>491.99999999999994</ele><time>2026-04-19T08:58:44.045Z</time></trkpt><trkpt lat="42.1492733" lon="11.9211362"><ele>490.0</ele><time>2026-04-19T08:58:45.04Z</time></trkpt><trkpt lat="42.1491716" lon="11.9211686"><ele>488.0</ele><time>2026-04-19T08:58:46.052Z</time></trkpt><trkpt lat="42.1490679" lon="11.9211837"><ele>486.0</ele><time>2026-04-19T08:58:47.067Z</time></trkpt><trkpt lat="42.148961" lon="11.9212051"><ele>484.0</ele><time>2026-04-19T08:58:48.036Z</time></trkpt><trkpt lat="42.1488482" lon="11.9212302"><ele>482.0</ele><time>2026-04-19T08:58:49.043Z</time></trkpt><trkpt lat="42.1487229" lon="11.9212561"><ele>480.0</ele><time>2026-04-19T08:58:50.046Z</time></trkpt><trkpt lat="42.1486078" lon="11.9212753"><ele>480.0</ele><time>2026-04-19T08:58:51.072Z</time></trkpt><trkpt lat="42.1484891" lon="11.9212908"><ele>480.0</ele><time>2026-04-19T08:58:52.046Z</time></trkpt><trkpt lat="42.1483785" lon="11.921308"><ele>480.0</ele><time>2026-04-19T08:58:53.051Z</time></trkpt><trkpt lat="42.1482622" lon="11.9212847"><ele>480.0</ele><time>2026-04-19T08:58:54.054Z</time></trkpt><trkpt lat="42.1481687" lon="11.9212352"><ele>480.0</ele><time>2026-04-19T08:58:55.053Z</time></trkpt><trkpt lat="42.1480872" lon="11.9211617"><ele>478.0</ele><time>2026-04-19T08:58:56.043Z</time></trkpt><trkpt lat="42.1480241" lon="11.9210923"><ele>476.0</ele><time>2026-04-19T08:58:57.045Z</time></trkpt><trkpt lat="42.1479803" lon="11.9210133"><ele>474.0</ele><time>2026-04-19T08:58:58.041Z</time></trkpt><trkpt lat="42.1479495" lon="11.9209068"><ele>472.0</ele><time>2026-04-19T08:58:59.041Z</time></trkpt><trkpt lat="42.1479266" lon="11.9207944"><ele>470.0</ele><time>2026-04-19T08:59:00.049Z</time></trkpt><trkpt lat="42.1478936" lon="11.9206842"><ele>468.0</ele><time>2026-04-19T08:59:01.049Z</time></trkpt><trkpt lat="42.1478598" lon="11.9205786"><ele>468.0</ele><time>2026-04-19T08:59:02.036Z</time></trkpt><trkpt lat="42.1478246" lon="11.9204709"><ele>468.00000000000006</ele><time>2026-04-19T08:59:03.039Z</time></trkpt><trkpt lat="42.1477933" lon="11.9203704"><ele>468.0</ele><time>2026-04-19T08:59:04.042Z</time></trkpt><trkpt lat="42.1477719" lon="11.920277"><ele>468.0</ele><time>2026-04-19T08:59:05.039Z</time></trkpt><trkpt lat="42.1477666" lon="11.9201868"><ele>468.00000000000006</ele><time>2026-04-19T08:59:06.037Z</time></trkpt><trkpt lat="42.1477702" lon="11.9200973"><ele>468.0</ele><time>2026-04-19T08:59:07.036Z</time></trkpt><trkpt lat="42.1477743" lon="11.9200094"><ele>468.0</ele><time>2026-04-19T08:59:08.048Z</time></trkpt><trkpt lat="42.1478069" lon="11.9199127"><ele>468.5</ele><time>2026-04-19T08:59:09.047Z</time></trkpt><trkpt lat="42.1478323" lon="11.9198058"><ele>469.0</ele><time>2026-04-19T08:59:10.042Z</time></trkpt><trkpt lat="42.1478191" lon="11.9197075"><ele>469.5</ele><time>2026-04-19T08:59:11.047Z</time></trkpt><trkpt lat="42.1477815" lon="11.9196196"><ele>470.0</ele><time>2026-04-19T08:59:12.045Z</time></trkpt><trkpt lat="42.1477356" lon="11.9195515"><ele>470.5</ele><time>2026-04-19T08:59:13.037Z</time></trkpt><trkpt lat="42.1476753" lon="11.9194697"><ele>471.0</ele><time>2026-04-19T08:59:14.039Z</time></trkpt><trkpt lat="42.1476023" lon="11.9193736"><ele>471.0</ele><time>2026-04-19T08:59:15.037Z</time></trkpt><trkpt lat="42.1475364" lon="11.9192697"><ele>471.0</ele><time>2026-04-19T08:59:16.046Z</time></trkpt><trkpt lat="42.1474648" lon="11.9191717"><ele>471.0</ele><time>2026-04-19T08:59:17.046Z</time></trkpt><trkpt lat="42.1473975" lon="11.9190928"><ele>471.0</ele><time>2026-04-19T08:59:18.04Z</time></trkpt><trkpt lat="42.1473169" lon="11.9190071"><ele>471.0</ele><time>2026-04-19T08:59:19.043Z</time></trkpt><trkpt lat="42.1472305" lon="11.9189433"><ele>468.8</ele><time>2026-04-19T08:59:20.046Z</time></trkpt><trkpt lat="42.1471416" lon="11.9188991"><ele>466.6</ele><time>2026-04-19T08:59:21.043Z</time></trkpt><trkpt lat="42.1470466" lon="11.9188533"><ele>464.4</ele><time>2026-04-19T08:59:22.046Z</time></trkpt><trkpt lat="42.1469497" lon="11.9188"><ele>462.2</ele><time>2026-04-19T08:59:23.045Z</time></trkpt><trkpt lat="42.1468349" lon="11.9187535"><ele>460.0</ele><time>2026-04-19T08:59:24.036Z</time></trkpt><trkpt lat="42.1467242" lon="11.91873"><ele>460.0</ele><time>2026-04-19T08:59:25.043Z</time></trkpt><trkpt lat="42.1466228" lon="11.9187153"><ele>460.0</ele><time>2026-04-19T08:59:26.038Z</time></trkpt><trkpt lat="42.1465237" lon="11.9187172"><ele>460.0</ele><time>2026-04-19T08:59:27.04Z</time></trkpt><trkpt lat="42.1464369" lon="11.9187526"><ele>460.0</ele><time>2026-04-19T08:59:28.041Z</time></trkpt><trkpt lat="42.1463538" lon="11.9187973"><ele>460.0</ele><time>2026-04-19T08:59:29.041Z</time></trkpt><trkpt lat="42.1462716" lon="11.9188446"><ele>458.33333333333337</ele><time>2026-04-19T08:59:30.044Z</time></trkpt><trkpt lat="42.1461989" lon="11.9188749"><ele>456.6666666666667</ele><time>2026-04-19T08:59:31.039Z</time></trkpt><trkpt lat="42.1461129" lon="11.9188584"><ele>455.0</ele><time>2026-04-19T08:59:32.051Z</time></trkpt><trkpt lat="42.146024" lon="11.9188265"><ele>453.33333333333337</ele><time>2026-04-19T08:59:33.044Z</time></trkpt><trkpt lat="42.1459418" lon="11.9187706"><ele>451.6666666666667</ele><time>2026-04-19T08:59:34.042Z</time></trkpt><trkpt lat="42.1458688" lon="11.9186946"><ele>450.0</ele><time>2026-04-19T08:59:35.042Z</time></trkpt><trkpt lat="42.1458007" lon="11.9186068"><ele>450.0</ele><time>2026-04-19T08:59:36.043Z</time></trkpt><trkpt lat="42.145732" lon="11.918518"><ele>450.0</ele><time>2026-04-19T08:59:37.042Z</time></trkpt><trkpt lat="42.1456643" lon="11.9184262"><ele>450.0</ele><time>2026-04-19T08:59:38.039Z</time></trkpt><trkpt lat="42.1455971" lon="11.9183362"><ele>450.0</ele><time>2026-04-19T08:59:39.053Z</time></trkpt><trkpt lat="42.1455278" lon="11.918234"><ele>450.0</ele><time>2026-04-19T08:59:40.039Z</time></trkpt><trkpt lat="42.1454578" lon="11.9181325"><ele>447.8</ele><time>2026-04-19T08:59:41.043Z</time></trkpt><trkpt lat="42.1453879" lon="11.9180268"><ele>445.6</ele><time>2026-04-19T08:59:42.037Z</time></trkpt><trkpt lat="42.1453248" lon="11.9179144"><ele>443.4</ele><time>2026-04-19T08:59:43.043Z</time></trkpt><trkpt lat="42.1452688" lon="11.9177945"><ele>441.2</ele><time>2026-04-19T08:59:44.044Z</time></trkpt><trkpt lat="42.145214" lon="11.9176717"><ele>439.0</ele><time>2026-04-19T08:59:45.041Z</time></trkpt><trkpt lat="42.1451571" lon="11.9175578"><ele>439.00000000000006</ele><time>2026-04-19T08:59:46.039Z</time></trkpt><trkpt lat="42.1450985" lon="11.9174526"><ele>439.0</ele><time>2026-04-19T08:59:47.048Z</time></trkpt><trkpt lat="42.1450386" lon="11.9173628"><ele>439.0</ele><time>2026-04-19T08:59:48.048Z</time></trkpt><trkpt lat="42.1449731" lon="11.9172943"><ele>439.0</ele><time>2026-04-19T08:59:49.042Z</time></trkpt><trkpt lat="42.1448931" lon="11.9172611"><ele>439.00000000000006</ele><time>2026-04-19T08:59:50.041Z</time></trkpt><trkpt lat="42.1448043" lon="11.9172559"><ele>439.0</ele><time>2026-04-19T08:59:51.041Z</time></trkpt><trkpt lat="42.1447214" lon="11.9172673"><ele>437.0</ele><time>2026-04-19T08:59:52.039Z</time></trkpt><trkpt lat="42.1446479" lon="11.9172819"><ele>435.0</ele><time>2026-04-19T08:59:53.043Z</time></trkpt><trkpt lat="42.1445709" lon="11.9173683"><ele>433.0</ele><time>2026-04-19T08:59:55.051Z</time></trkpt><trkpt lat="42.1445905" lon="11.9175275"><ele>431.0</ele><time>2026-04-19T08:59:57.052Z</time></trkpt><trkpt lat="42.1446098" lon="11.9176247"><ele>429.0</ele><time>2026-04-19T08:59:58.041Z</time></trkpt><trkpt lat="42.144622" lon="11.9177527"><ele>426.5</ele><time>2026-04-19T08:59:59.04Z</time></trkpt><trkpt lat="42.1446297" lon="11.9178697"><ele>424.0</ele><time>2026-04-19T09:00:00.04Z</time></trkpt><trkpt lat="42.144643" lon="11.9179847"><ele>421.5</ele><time>2026-04-19T09:00:01.046Z</time></trkpt><trkpt lat="42.1446562" lon="11.918096"><ele>419.0</ele><time>2026-04-19T09:00:02.031Z</time></trkpt><trkpt lat="42.144694" lon="11.9181981"><ele>416.5</ele><time>2026-04-19T09:00:03.047Z</time></trkpt><trkpt lat="42.1447309" lon="11.9182974"><ele>414.0</ele><time>2026-04-19T09:00:04.035Z</time></trkpt><trkpt lat="42.1447758" lon="11.9183969"><ele>411.8333333333333</ele><time>2026-04-19T09:00:05.045Z</time></trkpt><trkpt lat="42.1448191" lon="11.9184848"><ele>409.66666666666663</ele><time>2026-04-19T09:00:06.043Z</time></trkpt><trkpt lat="42.1448597" lon="11.9185726"><ele>407.5</ele><time>2026-04-19T09:00:07.041Z</time></trkpt><trkpt lat="42.1448936" lon="11.9186553"><ele>405.3333333333333</ele><time>2026-04-19T09:00:08.043Z</time></trkpt><trkpt lat="42.1449186" lon="11.9187447"><ele>403.16666666666663</ele><time>2026-04-19T09:00:09.048Z</time></trkpt><trkpt lat="42.1449237" lon="11.91885"><ele>401.0</ele><time>2026-04-19T09:00:10.048Z</time></trkpt><trkpt lat="42.1449155" lon="11.9189847"><ele>399.99999999999994</ele><time>2026-04-19T09:00:11.049Z</time></trkpt><trkpt lat="42.1449086" lon="11.9190954"><ele>399.0</ele><time>2026-04-19T09:00:12.052Z</time></trkpt><trkpt lat="42.1448983" lon="11.9192027"><ele>398.0</ele><time>2026-04-19T09:00:13.041Z</time></trkpt><trkpt lat="42.1448892" lon="11.9193185"><ele>397.0</ele><time>2026-04-19T09:00:14.05Z</time></trkpt><trkpt lat="42.1448658" lon="11.9194157"><ele>395.99999999999994</ele><time>2026-04-19T09:00:15.08Z</time></trkpt><trkpt lat="42.1448428" lon="11.9195078"><ele>395.0</ele><time>2026-04-19T09:00:16.046Z</time></trkpt><trkpt lat="42.1448268" lon="11.9195995"><ele>395.0</ele><time>2026-04-19T09:00:17.039Z</time></trkpt><trkpt lat="42.1448266" lon="11.9197002"><ele>395.0</ele><time>2026-04-19T09:00:18.048Z</time></trkpt><trkpt lat="42.144845" lon="11.9197876"><ele>395.0</ele><time>2026-04-19T09:00:19.049Z</time></trkpt><trkpt lat="42.144881" lon="11.91986"><ele>395.0</ele><time>2026-04-19T09:00:20.04Z</time></trkpt><trkpt lat="42.1449318" lon="11.9199242"><ele>395.0</ele><time>2026-04-19T09:00:21.041Z</time></trkpt><trkpt lat="42.1449995" lon="11.9199754"><ele>395.0</ele><time>2026-04-19T09:00:22.039Z</time></trkpt><trkpt lat="42.1450551" lon="11.9200304"><ele>395.0</ele><time>2026-04-19T09:00:23.039Z</time></trkpt><trkpt lat="42.1451208" lon="11.9200814"><ele>395.0</ele><time>2026-04-19T09:00:25.045Z</time></trkpt><trkpt lat="42.1451323" lon="11.9201658"><ele>395.0</ele><time>2026-04-19T09:00:28.051Z</time></trkpt><trkpt lat="42.1450587" lon="11.9202137"><ele>395.0</ele><time>2026-04-19T09:00:30.046Z</time></trkpt><trkpt lat="42.1449342" lon="11.920157"><ele>395.0</ele><time>2026-04-19T09:00:32.046Z</time></trkpt><trkpt lat="42.1448526" lon="11.9201033"><ele>395.0</ele><time>2026-04-19T09:00:33.037Z</time></trkpt><trkpt lat="42.1447729" lon="11.9200487"><ele>395.0</ele><time>2026-04-19T09:00:34.043Z</time></trkpt><trkpt lat="42.1446923" lon="11.9200028"><ele>395.0</ele><time>2026-04-19T09:00:35.037Z</time></trkpt><trkpt lat="42.1446031" lon="11.9199414"><ele>395.0</ele><time>2026-04-19T09:00:36.035Z</time></trkpt><trkpt lat="42.1445097" lon="11.9198738"><ele>395.0</ele><time>2026-04-19T09:00:37.045Z</time></trkpt><trkpt lat="42.1444195" lon="11.9198035"><ele>395.0</ele><time>2026-04-19T09:00:38.05Z</time></trkpt><trkpt lat="42.14435" lon="11.9197514"><ele>395.0</ele><time>2026-04-19T09:00:39.041Z</time></trkpt><trkpt lat="42.1442847" lon="11.9197104"><ele>395.0</ele><time>2026-04-19T09:00:40.045Z</time></trkpt><trkpt lat="42.1441847" lon="11.9196405"><ele>395.0</ele><time>2026-04-19T09:00:42.041Z</time></trkpt><trkpt lat="42.1440907" lon="11.9195812"><ele>395.0</ele><time>2026-04-19T09:00:44.039Z</time></trkpt><trkpt lat="42.1440238" lon="11.9194799"><ele>395.0</ele><time>2026-04-19T09:00:46.044Z</time></trkpt><trkpt lat="42.1440129" lon="11.9193902"><ele>392.85714285714283</ele><time>2026-04-19T09:00:47.036Z</time></trkpt><trkpt lat="42.144013" lon="11.9192946"><ele>390.7142857142857</ele><time>2026-04-19T09:00:48.056Z</time></trkpt><trkpt lat="42.1439965" lon="11.9192004"><ele>388.57142857142856</ele><time>2026-04-19T09:00:49.05Z</time></trkpt><trkpt lat="42.1439578" lon="11.9191291"><ele>386.42857142857144</ele><time>2026-04-19T09:00:50.043Z</time></trkpt><trkpt lat="42.1439182" lon="11.9190615"><ele>384.28571428571433</ele><time>2026-04-19T09:00:51.047Z</time></trkpt><trkpt lat="42.1438743" lon="11.9189921"><ele>382.14285714285717</ele><time>2026-04-19T09:00:52.042Z</time></trkpt><trkpt lat="42.143827" lon="11.9189258"><ele>380.0</ele><time>2026-04-19T09:00:53.058Z</time></trkpt><trkpt lat="42.1437793" lon="11.9188644"><ele>380.0</ele><time>2026-04-19T09:00:54.042Z</time></trkpt><trkpt lat="42.1437278" lon="11.9188055"><ele>380.0</ele><time>2026-04-19T09:00:55.05Z</time></trkpt><trkpt lat="42.1436632" lon="11.9187726"><ele>380.0</ele><time>2026-04-19T09:00:56.04Z</time></trkpt><trkpt lat="42.1435341" lon="11.9188021"><ele>380.0</ele><time>2026-04-19T09:00:58.041Z</time></trkpt><trkpt lat="42.1434709" lon="11.9188153"><ele>380.0</ele><time>2026-04-19T09:00:59.038Z</time></trkpt><trkpt lat="42.143404" lon="11.9188032"><ele>380.0</ele><time>2026-04-19T09:01:00.044Z</time></trkpt><trkpt lat="42.1432788" lon="11.9187229"><ele>380.0</ele><time>2026-04-19T09:01:02.035Z</time></trkpt><trkpt lat="42.1432254" lon="11.9186191"><ele>380.0</ele><time>2026-04-19T09:01:03.039Z</time></trkpt><trkpt lat="42.1431691" lon="11.9185087"><ele>380.0</ele><time>2026-04-19T09:01:04.053Z</time></trkpt><trkpt lat="42.1431029" lon="11.9183865"><ele>380.0</ele><time>2026-04-19T09:01:05.039Z</time></trkpt><trkpt lat="42.1430504" lon="11.9182651"><ele>380.0</ele><time>2026-04-19T09:01:06.042Z</time></trkpt><trkpt lat="42.1429969" lon="11.9181542"><ele>380.0</ele><time>2026-04-19T09:01:07.051Z</time></trkpt><trkpt lat="42.1429562" lon="11.9180498"><ele>380.0</ele><time>2026-04-19T09:01:08.042Z</time></trkpt><trkpt lat="42.142926" lon="11.9179564"><ele>380.0</ele><time>2026-04-19T09:01:09.04Z</time></trkpt><trkpt lat="42.1429044" lon="11.9178613"><ele>380.0</ele><time>2026-04-19T09:01:10.039Z</time></trkpt><trkpt lat="42.1428827" lon="11.917763"><ele>380.0</ele><time>2026-04-19T09:01:11.04Z</time></trkpt><trkpt lat="42.1428506" lon="11.9176613"><ele>380.0</ele><time>2026-04-19T09:01:12.034Z</time></trkpt><trkpt lat="42.142827" lon="11.9175718"><ele>380.1666666666667</ele><time>2026-04-19T09:01:13.052Z</time></trkpt><trkpt lat="42.1428084" lon="11.9174845"><ele>380.33333333333337</ele><time>2026-04-19T09:01:14.04Z</time></trkpt><trkpt lat="42.1427829" lon="11.9173245"><ele>380.5</ele><time>2026-04-19T09:01:16.034Z</time></trkpt><trkpt lat="42.1427771" lon="11.9172371"><ele>380.6666666666667</ele><time>2026-04-19T09:01:17.036Z</time></trkpt><trkpt lat="42.142779" lon="11.917143"><ele>380.8333333333333</ele><time>2026-04-19T09:01:18.036Z</time></trkpt><trkpt lat="42.1427921" lon="11.9170486"><ele>381.0</ele><time>2026-04-19T09:01:19.045Z</time></trkpt><trkpt lat="42.1428071" lon="11.9169549"><ele>381.0</ele><time>2026-04-19T09:01:20.047Z</time></trkpt><trkpt lat="42.1428338" lon="11.9168588"><ele>381.0</ele><time>2026-04-19T09:01:21.043Z</time></trkpt><trkpt lat="42.1428691" lon="11.9167522"><ele>381.0</ele><time>2026-04-19T09:01:22.042Z</time></trkpt><trkpt lat="42.1429118" lon="11.9166508"><ele>381.0</ele><time>2026-04-19T09:01:23.05Z</time></trkpt><trkpt lat="42.1429567" lon="11.9165497"><ele>381.0</ele><time>2026-04-19T09:01:24.035Z</time></trkpt><trkpt lat="42.1430018" lon="11.9164613"><ele>381.0</ele><time>2026-04-19T09:01:25.039Z</time></trkpt><trkpt lat="42.1430417" lon="11.9163834"><ele>381.3333333333333</ele><time>2026-04-19T09:01:26.038Z</time></trkpt><trkpt lat="42.1430968" lon="11.9163093"><ele>381.6666666666667</ele><time>2026-04-19T09:01:40.044Z</time></trkpt><trkpt lat="42.1431642" lon="11.9161935"><ele>382.0</ele><time>2026-04-19T09:01:42.038Z</time></trkpt><trkpt lat="42.1432088" lon="11.9161304"><ele>382.33333333333337</ele><time>2026-04-19T09:01:43.042Z</time></trkpt><trkpt lat="42.1432526" lon="11.9160631"><ele>382.6666666666667</ele><time>2026-04-19T09:01:44.037Z</time></trkpt><trkpt lat="42.1432956" lon="11.9159748"><ele>383.0</ele><time>2026-04-19T09:01:45.043Z</time></trkpt><trkpt lat="42.1433023" lon="11.9158618"><ele>385.0</ele><time>2026-04-19T09:01:46.044Z</time></trkpt><trkpt lat="42.1433025" lon="11.9157582"><ele>387.0</ele><time>2026-04-19T09:01:47.041Z</time></trkpt><trkpt lat="42.1433136" lon="11.9156333"><ele>389.0</ele><time>2026-04-19T09:01:48.035Z</time></trkpt><trkpt lat="42.1433241" lon="11.9154961"><ele>391.0</ele><time>2026-04-19T09:01:49.038Z</time></trkpt><trkpt lat="42.1433358" lon="11.9153671"><ele>393.0</ele><time>2026-04-19T09:01:50.036Z</time></trkpt><trkpt lat="42.1433515" lon="11.9152591"><ele>393.0</ele><time>2026-04-19T09:01:51.046Z</time></trkpt><trkpt lat="42.1433855" lon="11.9151859"><ele>393.0</ele><time>2026-04-19T09:01:52.039Z</time></trkpt><trkpt lat="42.1434293" lon="11.9151114"><ele>393.0</ele><time>2026-04-19T09:01:53.048Z</time></trkpt><trkpt lat="42.1435038" lon="11.9150429"><ele>393.0</ele><time>2026-04-19T09:01:54.036Z</time></trkpt><trkpt lat="42.1435752" lon="11.9149813"><ele>393.0</ele><time>2026-04-19T09:01:55.043Z</time></trkpt><trkpt lat="42.1436473" lon="11.9149309"><ele>393.0</ele><time>2026-04-19T09:01:56.039Z</time></trkpt><trkpt lat="42.1437304" lon="11.914886"><ele>392.2</ele><time>2026-04-19T09:01:57.04Z</time></trkpt><trkpt lat="42.1438157" lon="11.9148456"><ele>391.4</ele><time>2026-04-19T09:01:58.036Z</time></trkpt><trkpt lat="42.1438995" lon="11.9148134"><ele>390.59999999999997</ele><time>2026-04-19T09:01:59.048Z</time></trkpt><trkpt lat="42.1439661" lon="11.9147896"><ele>389.79999999999995</ele><time>2026-04-19T09:02:00.034Z</time></trkpt><trkpt lat="42.1440982" lon="11.914786"><ele>389.0</ele><time>2026-04-19T09:02:02.038Z</time></trkpt><trkpt lat="42.1441856" lon="11.9148058"><ele>392.66666666666663</ele><time>2026-04-19T09:02:03.043Z</time></trkpt><trkpt lat="42.1442551" lon="11.9148187"><ele>396.3333333333333</ele><time>2026-04-19T09:02:04.04Z</time></trkpt><trkpt lat="42.1443201" lon="11.9148295"><ele>400.0</ele><time>2026-04-19T09:02:05.035Z</time></trkpt><trkpt lat="42.1444078" lon="11.9148073"><ele>403.66666666666663</ele><time>2026-04-19T09:02:07.044Z</time></trkpt><trkpt lat="42.1444814" lon="11.9147446"><ele>407.3333333333333</ele><time>2026-04-19T09:02:09.039Z</time></trkpt><trkpt lat="42.1444642" lon="11.9146493"><ele>411.0</ele><time>2026-04-19T09:02:11.046Z</time></trkpt><trkpt lat="42.144364" lon="11.914541"><ele>411.0</ele><time>2026-04-19T09:02:13.034Z</time></trkpt><trkpt lat="42.1443037" lon="11.9144833"><ele>411.0</ele><time>2026-04-19T09:02:14.042Z</time></trkpt><trkpt lat="42.1442376" lon="11.914417"><ele>411.0</ele><time>2026-04-19T09:02:15.037Z</time></trkpt><trkpt lat="42.1441744" lon="11.9143535"><ele>411.0</ele><time>2026-04-19T09:02:16.04Z</time></trkpt><trkpt lat="42.1441162" lon="11.914289"><ele>411.0</ele><time>2026-04-19T09:02:17.056Z</time></trkpt><trkpt lat="42.1440586" lon="11.9142101"><ele>411.0</ele><time>2026-04-19T09:02:18.039Z</time></trkpt><trkpt lat="42.1440154" lon="11.9141235"><ele>409.1666666666667</ele><time>2026-04-19T09:02:19.033Z</time></trkpt><trkpt lat="42.1439935" lon="11.9140381"><ele>407.33333333333337</ele><time>2026-04-19T09:02:20.045Z</time></trkpt><trkpt lat="42.143992" lon="11.9139468"><ele>405.5</ele><time>2026-04-19T09:02:21.041Z</time></trkpt><trkpt lat="42.1440136" lon="11.9138541"><ele>403.6666666666667</ele><time>2026-04-19T09:02:22.038Z</time></trkpt><trkpt lat="42.1440394" lon="11.913755"><ele>401.83333333333337</ele><time>2026-04-19T09:02:23.045Z</time></trkpt><trkpt lat="42.1440788" lon="11.9136559"><ele>400.0</ele><time>2026-04-19T09:02:24.04Z</time></trkpt><trkpt lat="42.1441178" lon="11.9135277"><ele>400.6</ele><time>2026-04-19T09:02:25.036Z</time></trkpt><trkpt lat="42.144147" lon="11.9134054"><ele>401.2</ele><time>2026-04-19T09:02:26.04Z</time></trkpt><trkpt lat="42.144179" lon="11.9132703"><ele>401.79999999999995</ele><time>2026-04-19T09:02:27.043Z</time></trkpt><trkpt lat="42.1442161" lon="11.9131391"><ele>402.4</ele><time>2026-04-19T09:02:28.035Z</time></trkpt><trkpt lat="42.1442557" lon="11.913004"><ele>403.0</ele><time>2026-04-19T09:02:29.038Z</time></trkpt><trkpt lat="42.1442987" lon="11.9128459"><ele>403.0</ele><time>2026-04-19T09:02:30.038Z</time></trkpt><trkpt lat="42.1443418" lon="11.9126693"><ele>403.0</ele><time>2026-04-19T09:02:31.043Z</time></trkpt><trkpt lat="42.1443782" lon="11.9125049"><ele>403.0</ele><time>2026-04-19T09:02:32.036Z</time></trkpt><trkpt lat="42.1444218" lon="11.9123517"><ele>403.0</ele><time>2026-04-19T09:02:33.038Z</time></trkpt><trkpt lat="42.1444651" lon="11.9122376"><ele>403.50000000000006</ele><time>2026-04-19T09:02:34.042Z</time></trkpt><trkpt lat="42.1445126" lon="11.9121475"><ele>404.0</ele><time>2026-04-19T09:02:35.05Z</time></trkpt><trkpt lat="42.1445656" lon="11.9120914"><ele>404.5</ele><time>2026-04-19T09:02:36.036Z</time></trkpt><trkpt lat="42.1446856" lon="11.9120212"><ele>405.0</ele><time>2026-04-19T09:02:38.036Z</time></trkpt><trkpt lat="42.1447692" lon="11.9119968"><ele>405.50000000000006</ele><time>2026-04-19T09:02:39.045Z</time></trkpt><trkpt lat="42.1448419" lon="11.9119844"><ele>406.0</ele><time>2026-04-19T09:02:40.028Z</time></trkpt><trkpt lat="42.1449347" lon="11.9119698"><ele>408.50000000000006</ele><time>2026-04-19T09:02:41.041Z</time></trkpt><trkpt lat="42.1450151" lon="11.9119525"><ele>411.0</ele><time>2026-04-19T09:02:42.034Z</time></trkpt><trkpt lat="42.1450925" lon="11.9119437"><ele>413.5</ele><time>2026-04-19T09:02:43.039Z</time></trkpt><trkpt lat="42.1452117" lon="11.911918"><ele>416.0</ele><time>2026-04-19T09:02:45.041Z</time></trkpt><trkpt lat="42.1452771" lon="11.9118636"><ele>418.50000000000006</ele><time>2026-04-19T09:02:47.047Z</time></trkpt><trkpt lat="42.1452416" lon="11.9117798"><ele>421.0</ele><time>2026-04-19T09:02:49.034Z</time></trkpt><trkpt lat="42.1451535" lon="11.9117372"><ele>421.0</ele><time>2026-04-19T09:02:50.037Z</time></trkpt><trkpt lat="42.1450439" lon="11.9116971"><ele>421.0</ele><time>2026-04-19T09:02:51.036Z</time></trkpt><trkpt lat="42.1449441" lon="11.9116327"><ele>421.0</ele><time>2026-04-19T09:02:52.034Z</time></trkpt><trkpt lat="42.1448737" lon="11.9115687"><ele>421.0</ele><time>2026-04-19T09:02:53.045Z</time></trkpt><trkpt lat="42.1448264" lon="11.911476"><ele>421.0</ele><time>2026-04-19T09:02:54.035Z</time></trkpt><trkpt lat="42.1447979" lon="11.9113017"><ele>420.20000000000005</ele><time>2026-04-19T09:02:56.047Z</time></trkpt><trkpt lat="42.1448127" lon="11.911164"><ele>419.40000000000003</ele><time>2026-04-19T09:02:57.042Z</time></trkpt><trkpt lat="42.1448214" lon="11.9110214"><ele>418.6</ele><time>2026-04-19T09:02:58.043Z</time></trkpt><trkpt lat="42.1448344" lon="11.9108893"><ele>417.8</ele><time>2026-04-19T09:02:59.035Z</time></trkpt><trkpt lat="42.1448289" lon="11.9107652"><ele>417.0</ele><time>2026-04-19T09:03:00.043Z</time></trkpt><trkpt lat="42.1447727" lon="11.91067"><ele>417.0</ele><time>2026-04-19T09:03:01.034Z</time></trkpt><trkpt lat="42.1447182" lon="11.9105704"><ele>417.0</ele><time>2026-04-19T09:03:02.033Z</time></trkpt><trkpt lat="42.1446906" lon="11.9104692"><ele>417.0</ele><time>2026-04-19T09:03:03.043Z</time></trkpt><trkpt lat="42.1446882" lon="11.9103672"><ele>417.0</ele><time>2026-04-19T09:03:04.036Z</time></trkpt><trkpt lat="42.1447056" lon="11.9102735"><ele>417.0</ele><time>2026-04-19T09:03:05.039Z</time></trkpt><trkpt lat="42.1447544" lon="11.9102092"><ele>417.0</ele><time>2026-04-19T09:03:06.046Z</time></trkpt><trkpt lat="42.1448176" lon="11.9101374"><ele>417.8</ele><time>2026-04-19T09:03:07.038Z</time></trkpt><trkpt lat="42.1448674" lon="11.9100461"><ele>418.6</ele><time>2026-04-19T09:03:08.042Z</time></trkpt><trkpt lat="42.1448861" lon="11.9099315"><ele>419.40000000000003</ele><time>2026-04-19T09:03:09.045Z</time></trkpt><trkpt lat="42.1448896" lon="11.9098062"><ele>420.20000000000005</ele><time>2026-04-19T09:03:10.039Z</time></trkpt><trkpt lat="42.1449037" lon="11.9096817"><ele>421.0</ele><time>2026-04-19T09:03:11.044Z</time></trkpt><trkpt lat="42.1449257" lon="11.909553"><ele>422.6666666666667</ele><time>2026-04-19T09:03:12.036Z</time></trkpt><trkpt lat="42.1449401" lon="11.9094222"><ele>424.33333333333337</ele><time>2026-04-19T09:03:13.041Z</time></trkpt><trkpt lat="42.1449508" lon="11.9093034"><ele>426.0</ele><time>2026-04-19T09:03:14.048Z</time></trkpt><trkpt lat="42.1449663" lon="11.9091945"><ele>427.66666666666663</ele><time>2026-04-19T09:03:15.05Z</time></trkpt><trkpt lat="42.1450061" lon="11.9090999"><ele>429.3333333333333</ele><time>2026-04-19T09:03:16.038Z</time></trkpt><trkpt lat="42.1450515" lon="11.9090353"><ele>431.0</ele><time>2026-04-19T09:03:17.032Z</time></trkpt><trkpt lat="42.1450778" lon="11.9089452"><ele>432.25</ele><time>2026-04-19T09:03:18.046Z</time></trkpt><trkpt lat="42.1450785" lon="11.9088404"><ele>433.5</ele><time>2026-04-19T09:03:19.034Z</time></trkpt><trkpt lat="42.1450785" lon="11.9087519"><ele>434.75</ele><time>2026-04-19T09:03:20.046Z</time></trkpt><trkpt lat="42.1451221" lon="11.9085829"><ele>436.0</ele><time>2026-04-19T09:03:22.036Z</time></trkpt><trkpt lat="42.1446856" lon="11.9120212"><ele>434.50000000000006</ele><time>2026-04-19T09:02:38.036Z</time></trkpt><trkpt lat="42.1447692" lon="11.9119968"><ele>433.0</ele><time>2026-04-19T09:02:39.045Z</time></trkpt><trkpt lat="42.1448419" lon="11.9119844"><ele>431.5</ele><time>2026-04-19T09:02:40.028Z</time></trkpt><trkpt lat="42.1449347" lon="11.9119698"><ele>430.0</ele><time>2026-04-19T09:02:41.041Z</time></trkpt><trkpt lat="42.1450151" lon="11.9119525"><ele>428.50000000000006</ele><time>2026-04-19T09:02:42.034Z</time></trkpt><trkpt lat="42.1450925" lon="11.9119437"><ele>427.0</ele><time>2026-04-19T09:02:43.039Z</time></trkpt><trkpt lat="42.1452117" lon="11.911918"><ele>427.0</ele><time>2026-04-19T09:02:45.041Z</time></trkpt><trkpt lat="42.1452771" lon="11.9118636"><ele>427.00000000000006</ele><time>2026-04-19T09:02:47.047Z</time></trkpt><trkpt lat="42.1452416" lon="11.9117798"><ele>427.00000000000006</ele><time>2026-04-19T09:02:49.034Z</time></trkpt><trkpt lat="42.1451535" lon="11.9117372"><ele>427.0</ele><time>2026-04-19T09:02:50.037Z</time></trkpt><trkpt lat="42.1450439" lon="11.9116971"><ele>427.0</ele><time>2026-04-19T09:02:51.036Z</time></trkpt><trkpt lat="42.1449441" lon="11.9116327"><ele>424.0</ele><time>2026-04-19T09:02:52.034Z</time></trkpt><trkpt lat="42.1448737" lon="11.9115687"><ele>421.00000000000006</ele><time>2026-04-19T09:02:53.045Z</time></trkpt><trkpt lat="42.1448264" lon="11.911476"><ele>418.0</ele><time>2026-04-19T09:02:54.035Z</time></trkpt><trkpt lat="42.1447979" lon="11.9113017"><ele>415.0</ele><time>2026-04-19T09:02:56.047Z</time></trkpt><trkpt lat="42.1448127" lon="11.911164"><ele>412.0</ele><time>2026-04-19T09:02:57.042Z</time></trkpt><trkpt lat="42.1448214" lon="11.9110214"><ele>413.0</ele><time>2026-04-19T09:02:58.043Z</time></trkpt><trkpt lat="42.1448344" lon="11.9108893"><ele>414.0</ele><time>2026-04-19T09:02:59.035Z</time></trkpt><trkpt lat="42.1448289" lon="11.9107652"><ele>415.0</ele><time>2026-04-19T09:03:00.043Z</time></trkpt><trkpt lat="42.1447727" lon="11.91067"><ele>416.0</ele><time>2026-04-19T09:03:01.034Z</time></trkpt><trkpt lat="42.1447182" lon="11.9105704"><ele>417.0</ele><time>2026-04-19T09:03:02.033Z</time></trkpt><trkpt lat="42.1446906" lon="11.9104692"><ele>417.0</ele><time>2026-04-19T09:03:03.043Z</time></trkpt><trkpt lat="42.1446882" lon="11.9103672"><ele>417.0</ele><time>2026-04-19T09:03:04.036Z</time></trkpt><trkpt lat="42.1447056" lon="11.9102735"><ele>417.0</ele><time>2026-04-19T09:03:05.039Z</time></trkpt><trkpt lat="42.1447544" lon="11.9102092"><ele>417.0</ele><time>2026-04-19T09:03:06.046Z</time></trkpt><trkpt lat="42.1448176" lon="11.9101374"><ele>417.0</ele><time>2026-04-19T09:03:07.038Z</time></trkpt><trkpt lat="42.1448674" lon="11.9100461"><ele>417.0</ele><time>2026-04-19T09:03:08.042Z</time></trkpt><trkpt lat="42.1448861" lon="11.9099315"><ele>419.8</ele><time>2026-04-19T09:03:09.045Z</time></trkpt><trkpt lat="42.1448896" lon="11.9098062"><ele>422.6</ele><time>2026-04-19T09:03:10.039Z</time></trkpt><trkpt lat="42.1449037" lon="11.9096817"><ele>425.40000000000003</ele><time>2026-04-19T09:03:11.044Z</time></trkpt><trkpt lat="42.1449257" lon="11.909553"><ele>428.20000000000005</ele><time>2026-04-19T09:03:12.036Z</time></trkpt><trkpt lat="42.1449401" lon="11.9094222"><ele>431.0</ele><time>2026-04-19T09:03:13.041Z</time></trkpt><trkpt lat="42.1449508" lon="11.9093034"><ele>431.7142857142857</ele><time>2026-04-19T09:03:14.048Z</time></trkpt><trkpt lat="42.1449663" lon="11.9091945"><ele>432.4285714285714</ele><time>2026-04-19T09:03:15.05Z</time></trkpt><trkpt lat="42.1450061" lon="11.9090999"><ele>433.1428571428571</ele><time>2026-04-19T09:03:16.038Z</time></trkpt><trkpt lat="42.1450515" lon="11.9090353"><ele>433.8571428571429</ele><time>2026-04-19T09:03:17.032Z</time></trkpt><trkpt lat="42.1450778" lon="11.9089452"><ele>434.57142857142856</ele><time>2026-04-19T09:03:18.046Z</time></trkpt><trkpt lat="42.1450785" lon="11.9088404"><ele>435.2857142857143</ele><time>2026-04-19T09:03:19.034Z</time></trkpt><trkpt lat="42.1450785" lon="11.9087519"><ele>436.0</ele><time>2026-04-19T09:03:20.046Z</time></trkpt><trkpt lat="42.1451221" lon="11.9085829"><ele>436.0</ele><time>2026-04-19T09:03:22.036Z</time></trkpt><trkpt lat="42.1451567" lon="11.9084617"><ele>436.0</ele><time>2026-04-19T09:03:23.044Z</time></trkpt><trkpt lat="42.1452026" lon="11.9083514"><ele>436.0</ele><time>2026-04-19T09:03:25.039Z</time></trkpt><trkpt lat="42.1451802" lon="11.9082541"><ele>436.0</ele><time>2026-04-19T09:03:28.042Z</time></trkpt><trkpt lat="42.1450726" lon="11.9083654"><ele>436.0</ele><time>2026-04-19T09:03:30.044Z</time></trkpt><trkpt lat="42.1450205" lon="11.9084695"><ele>436.0</ele><time>2026-04-19T09:03:31.046Z</time></trkpt><trkpt lat="42.1449399" lon="11.9085785"><ele>436.0</ele><time>2026-04-19T09:03:32.045Z</time></trkpt><trkpt lat="42.1448293" lon="11.9086808"><ele>436.0</ele><time>2026-04-19T09:03:33.042Z</time></trkpt><trkpt lat="42.1447341" lon="11.9087581"><ele>436.0</ele><time>2026-04-19T09:03:34.046Z</time></trkpt><trkpt lat="42.1446609" lon="11.908811"><ele>436.0</ele><time>2026-04-19T09:03:35.038Z</time></trkpt><trkpt lat="42.1445606" lon="11.9088092"><ele>435.4</ele><time>2026-04-19T09:03:37.043Z</time></trkpt><trkpt lat="42.1445137" lon="11.9087418"><ele>434.8</ele><time>2026-04-19T09:03:38.042Z</time></trkpt><trkpt lat="42.144467" lon="11.9086423"><ele>434.19999999999993</ele><time>2026-04-19T09:03:39.044Z</time></trkpt><trkpt lat="42.1444317" lon="11.9085135"><ele>433.59999999999997</ele><time>2026-04-19T09:03:40.038Z</time></trkpt><trkpt lat="42.144405" lon="11.9083767"><ele>433.0</ele><time>2026-04-19T09:03:41.044Z</time></trkpt><trkpt lat="42.1443628" lon="11.9082438"><ele>433.0</ele><time>2026-04-19T09:03:42.038Z</time></trkpt><trkpt lat="42.1443353" lon="11.9081157"><ele>432.99999999999994</ele><time>2026-04-19T09:03:43.041Z</time></trkpt><trkpt lat="42.1443041" lon="11.9079876"><ele>432.99999999999994</ele><time>2026-04-19T09:03:44.053Z</time></trkpt><trkpt lat="42.1442843" lon="11.9078593"><ele>433.0</ele><time>2026-04-19T09:03:45.038Z</time></trkpt><trkpt lat="42.1442758" lon="11.9077402"><ele>433.0</ele><time>2026-04-19T09:03:46.039Z</time></trkpt><trkpt lat="42.1442753" lon="11.9076295"><ele>434.1666666666667</ele><time>2026-04-19T09:03:47.04Z</time></trkpt><trkpt lat="42.1442934" lon="11.9075132"><ele>435.33333333333337</ele><time>2026-04-19T09:03:48.039Z</time></trkpt><trkpt lat="42.1443189" lon="11.9073911"><ele>436.5</ele><time>2026-04-19T09:03:49.04Z</time></trkpt><trkpt lat="42.1443411" lon="11.9072807"><ele>437.66666666666663</ele><time>2026-04-19T09:03:50.04Z</time></trkpt><trkpt lat="42.1443623" lon="11.9071806"><ele>438.8333333333333</ele><time>2026-04-19T09:03:51.04Z</time></trkpt><trkpt lat="42.1443759" lon="11.9070752"><ele>440.0</ele><time>2026-04-19T09:03:52.036Z</time></trkpt><trkpt lat="42.1443882" lon="11.9069768"><ele>439.99999999999994</ele><time>2026-04-19T09:03:53.045Z</time></trkpt><trkpt lat="42.1444234" lon="11.9068227"><ele>440.0</ele><time>2026-04-19T09:03:55.054Z</time></trkpt><trkpt lat="42.144454" lon="11.9067102"><ele>440.0</ele><time>2026-04-19T09:03:57.06Z</time></trkpt><trkpt lat="42.1445065" lon="11.9065877"><ele>440.0</ele><time>2026-04-19T09:03:59.047Z</time></trkpt><trkpt lat="42.1445453" lon="11.9065197"><ele>439.99999999999994</ele><time>2026-04-19T09:04:00.039Z</time></trkpt><trkpt lat="42.1445935" lon="11.9064547"><ele>440.0</ele><time>2026-04-19T09:04:01.039Z</time></trkpt><trkpt lat="42.1446503" lon="11.9063941"><ele>439.6</ele><time>2026-04-19T09:04:02.046Z</time></trkpt><trkpt lat="42.1447136" lon="11.9063239"><ele>439.2</ele><time>2026-04-19T09:04:03.036Z</time></trkpt><trkpt lat="42.1447773" lon="11.9062566"><ele>438.79999999999995</ele><time>2026-04-19T09:04:04.043Z</time></trkpt><trkpt lat="42.1448312" lon="11.9062041"><ele>438.4</ele><time>2026-04-19T09:04:05.055Z</time></trkpt><trkpt lat="42.1449266" lon="11.9061218"><ele>438.0</ele><time>2026-04-19T09:04:07.041Z</time></trkpt><trkpt lat="42.145046" lon="11.906069"><ele>440.42857142857144</ele><time>2026-04-19T09:04:09.046Z</time></trkpt><trkpt lat="42.1451099" lon="11.9060706"><ele>442.85714285714283</ele><time>2026-04-19T09:04:10.035Z</time></trkpt><trkpt lat="42.1451811" lon="11.9060728"><ele>445.2857142857143</ele><time>2026-04-19T09:04:11.039Z</time></trkpt><trkpt lat="42.14525" lon="11.9060626"><ele>447.7142857142857</ele><time>2026-04-19T09:04:12.042Z</time></trkpt><trkpt lat="42.1453232" lon="11.9060219"><ele>450.1428571428571</ele><time>2026-04-19T09:04:13.04Z</time></trkpt><trkpt lat="42.1453755" lon="11.9059458"><ele>452.57142857142856</ele><time>2026-04-19T09:04:14.036Z</time></trkpt><trkpt lat="42.1454223" lon="11.9058442"><ele>455.0</ele><time>2026-04-19T09:04:15.051Z</time></trkpt><trkpt lat="42.1454656" lon="11.9057327"><ele>454.99999999999994</ele><time>2026-04-19T09:04:16.041Z</time></trkpt><trkpt lat="42.1455036" lon="11.9056244"><ele>455.0</ele><time>2026-04-19T09:04:17.042Z</time></trkpt><trkpt lat="42.1455186" lon="11.905501"><ele>455.0</ele><time>2026-04-19T09:04:18.039Z</time></trkpt><trkpt lat="42.145546" lon="11.9053988"><ele>455.0</ele><time>2026-04-19T09:04:19.045Z</time></trkpt><trkpt lat="42.1455724" lon="11.9052996"><ele>454.99999999999994</ele><time>2026-04-19T09:04:20.047Z</time></trkpt><trkpt lat="42.1456009" lon="11.9051954"><ele>455.0</ele><time>2026-04-19T09:04:21.04Z</time></trkpt><trkpt lat="42.1456306" lon="11.9050919"><ele>453.8</ele><time>2026-04-19T09:04:22.039Z</time></trkpt><trkpt lat="42.1456693" lon="11.9049852"><ele>452.6</ele><time>2026-04-19T09:04:23.048Z</time></trkpt><trkpt lat="42.1457385" lon="11.9048903"><ele>451.4</ele><time>2026-04-19T09:04:24.045Z</time></trkpt><trkpt lat="42.1458029" lon="11.9047993"><ele>450.2</ele><time>2026-04-19T09:04:25.046Z</time></trkpt><trkpt lat="42.1458866" lon="11.9047325"><ele>449.0</ele><time>2026-04-19T09:04:26.038Z</time></trkpt><trkpt lat="42.1459634" lon="11.9046718"><ele>451.66666666666663</ele><time>2026-04-19T09:04:27.038Z</time></trkpt><trkpt lat="42.1460383" lon="11.9046085"><ele>454.3333333333333</ele><time>2026-04-19T09:04:28.038Z</time></trkpt><trkpt lat="42.1461014" lon="11.9045404"><ele>457.0</ele><time>2026-04-19T09:04:29.042Z</time></trkpt><trkpt lat="42.146178" lon="11.9044857"><ele>459.66666666666663</ele><time>2026-04-19T09:04:30.044Z</time></trkpt><trkpt lat="42.1462508" lon="11.904435"><ele>462.3333333333333</ele><time>2026-04-19T09:04:31.044Z</time></trkpt><trkpt lat="42.1463183" lon="11.9044043"><ele>465.0</ele><time>2026-04-19T09:04:32.051Z</time></trkpt><trkpt lat="42.1463971" lon="11.9044078"><ele>465.0</ele><time>2026-04-19T09:04:33.042Z</time></trkpt><trkpt lat="42.1464742" lon="11.9044096"><ele>465.0</ele><time>2026-04-19T09:04:34.041Z</time></trkpt><trkpt lat="42.1465479" lon="11.9043885"><ele>465.0</ele><time>2026-04-19T09:04:35.046Z</time></trkpt><trkpt lat="42.1466151" lon="11.9043712"><ele>465.0</ele><time>2026-04-19T09:04:36.052Z</time></trkpt><trkpt lat="42.14669" lon="11.9042835"><ele>465.0</ele><time>2026-04-19T09:04:38.041Z</time></trkpt><trkpt lat="42.1467238" lon="11.9041434"><ele>465.0</ele><time>2026-04-19T09:04:40.051Z</time></trkpt><trkpt lat="42.1467463" lon="11.9039995"><ele>466.3333333333333</ele><time>2026-04-19T09:04:42.036Z</time></trkpt><trkpt lat="42.146768" lon="11.9038633"><ele>467.66666666666663</ele><time>2026-04-19T09:04:44.04Z</time></trkpt><trkpt lat="42.1468375" lon="11.9037667"><ele>469.0</ele><time>2026-04-19T09:04:46.035Z</time></trkpt><trkpt lat="42.1469286" lon="11.9037449"><ele>470.3333333333333</ele><time>2026-04-19T09:04:48.051Z</time></trkpt><trkpt lat="42.1470031" lon="11.9037331"><ele>471.66666666666663</ele><time>2026-04-19T09:04:50.046Z</time></trkpt><trkpt lat="42.1470774" lon="11.9037123"><ele>473.0</ele><time>2026-04-19T09:04:52.05Z</time></trkpt><trkpt lat="42.1470792" lon="11.9036064"><ele>473.0</ele><time>2026-04-19T09:04:57.045Z</time></trkpt><trkpt lat="42.1470059" lon="11.9034635"><ele>472.99999999999994</ele><time>2026-04-19T09:04:59.051Z</time></trkpt><trkpt lat="42.1469653" lon="11.9033628"><ele>472.99999999999994</ele><time>2026-04-19T09:05:00.034Z</time></trkpt><trkpt lat="42.1469282" lon="11.9032301"><ele>473.0</ele><time>2026-04-19T09:05:01.044Z</time></trkpt><trkpt lat="42.1468913" lon="11.9031135"><ele>473.0</ele><time>2026-04-19T09:05:02.041Z</time></trkpt><trkpt lat="42.1468617" lon="11.9029962"><ele>472.99999999999994</ele><time>2026-04-19T09:05:03.037Z</time></trkpt><trkpt lat="42.146841" lon="11.9028782"><ele>473.0</ele><time>2026-04-19T09:05:04.041Z</time></trkpt><trkpt lat="42.1468212" lon="11.9027657"><ele>473.0</ele><time>2026-04-19T09:05:05.049Z</time></trkpt><trkpt lat="42.1468209" lon="11.9026581"><ele>473.0</ele><time>2026-04-19T09:05:06.04Z</time></trkpt><trkpt lat="42.1468381" lon="11.9025649"><ele>472.99999999999994</ele><time>2026-04-19T09:05:07.059Z</time></trkpt><trkpt lat="42.1468662" lon="11.902477"><ele>473.0</ele><time>2026-04-19T09:05:08.041Z</time></trkpt><trkpt lat="42.1469053" lon="11.9023824"><ele>473.0</ele><time>2026-04-19T09:05:09.042Z</time></trkpt><trkpt lat="42.1469633" lon="11.9022806"><ele>472.99999999999994</ele><time>2026-04-19T09:05:10.052Z</time></trkpt><trkpt lat="42.1470294" lon="11.9021737"><ele>472.99999999999994</ele><time>2026-04-19T09:05:11.046Z</time></trkpt><trkpt lat="42.147106" lon="11.902082"><ele>473.0</ele><time>2026-04-19T09:05:12.039Z</time></trkpt><trkpt lat="42.147194" lon="11.9019977"><ele>473.0</ele><time>2026-04-19T09:05:13.042Z</time></trkpt><trkpt lat="42.1472835" lon="11.9019078"><ele>473.0</ele><time>2026-04-19T09:05:14.051Z</time></trkpt><trkpt lat="42.1473713" lon="11.9018239"><ele>472.99999999999994</ele><time>2026-04-19T09:05:15.055Z</time></trkpt><trkpt lat="42.1474556" lon="11.9017299"><ele>472.99999999999994</ele><time>2026-04-19T09:05:16.045Z</time></trkpt><trkpt lat="42.1475401" lon="11.9016388"><ele>473.0</ele><time>2026-04-19T09:05:17.039Z</time></trkpt><trkpt lat="42.1476321" lon="11.9015563"><ele>473.0</ele><time>2026-04-19T09:05:18.046Z</time></trkpt><trkpt lat="42.1477151" lon="11.9014811"><ele>474.8333333333333</ele><time>2026-04-19T09:05:19.042Z</time></trkpt><trkpt lat="42.1477916" lon="11.9014243"><ele>476.66666666666663</ele><time>2026-04-19T09:05:20.035Z</time></trkpt><trkpt lat="42.1478651" lon="11.9013815"><ele>478.5</ele><time>2026-04-19T09:05:21.042Z</time></trkpt><trkpt lat="42.1479392" lon="11.9013363"><ele>480.33333333333337</ele><time>2026-04-19T09:05:22.047Z</time></trkpt><trkpt lat="42.1479791" lon="11.9012559"><ele>482.1666666666667</ele><time>2026-04-19T09:05:23.045Z</time></trkpt><trkpt lat="42.1479813" lon="11.9011668"><ele>484.0</ele><time>2026-04-19T09:05:24.041Z</time></trkpt><trkpt lat="42.1479824" lon="11.9010678"><ele>484.00000000000006</ele><time>2026-04-19T09:05:25.041Z</time></trkpt><trkpt lat="42.1479356" lon="11.9009709"><ele>484.0</ele><time>2026-04-19T09:05:26.04Z</time></trkpt><trkpt lat="42.1478909" lon="11.900879"><ele>484.0</ele><time>2026-04-19T09:05:27.055Z</time></trkpt><trkpt lat="42.147863" lon="11.9007785"><ele>484.0</ele><time>2026-04-19T09:05:28.042Z</time></trkpt><trkpt lat="42.1478853" lon="11.900667"><ele>484.00000000000006</ele><time>2026-04-19T09:05:29.04Z</time></trkpt><trkpt lat="42.1479023" lon="11.90054"><ele>484.0</ele><time>2026-04-19T09:05:30.052Z</time></trkpt><trkpt lat="42.147907" lon="11.9004312"><ele>483.1666666666667</ele><time>2026-04-19T09:05:31.049Z</time></trkpt><trkpt lat="42.1478894" lon="11.900322"><ele>482.33333333333337</ele><time>2026-04-19T09:05:32.047Z</time></trkpt><trkpt lat="42.1478219" lon="11.9002469"><ele>481.5</ele><time>2026-04-19T09:05:33.04Z</time></trkpt><trkpt lat="42.1477234" lon="11.9002456"><ele>480.66666666666663</ele><time>2026-04-19T09:05:34.031Z</time></trkpt><trkpt lat="42.1476453" lon="11.9002332"><ele>479.8333333333333</ele><time>2026-04-19T09:05:35.051Z</time></trkpt><trkpt lat="42.147563" lon="11.9001797"><ele>479.0</ele><time>2026-04-19T09:05:36.048Z</time></trkpt><trkpt lat="42.1475292" lon="11.9001009"><ele>480.3333333333333</ele><time>2026-04-19T09:05:37.043Z</time></trkpt><trkpt lat="42.1475159" lon="11.8999999"><ele>481.66666666666663</ele><time>2026-04-19T09:05:38.041Z</time></trkpt><trkpt lat="42.1475326" lon="11.8998793"><ele>483.0</ele><time>2026-04-19T09:05:39.053Z</time></trkpt><trkpt lat="42.1475744" lon="11.899757"><ele>484.33333333333337</ele><time>2026-04-19T09:05:40.042Z</time></trkpt><trkpt lat="42.1476253" lon="11.8996592"><ele>485.6666666666667</ele><time>2026-04-19T09:05:41.042Z</time></trkpt><trkpt lat="42.1476857" lon="11.8996018"><ele>487.0</ele><time>2026-04-19T09:05:42.052Z</time></trkpt><trkpt lat="42.1477742" lon="11.8995599"><ele>487.0</ele><time>2026-04-19T09:05:44.03Z</time></trkpt><trkpt lat="42.1478667" lon="11.89963"><ele>487.00000000000006</ele><time>2026-04-19T09:05:46.04Z</time></trkpt><trkpt lat="42.1479658" lon="11.8996861"><ele>487.00000000000006</ele><time>2026-04-19T09:05:48.057Z</time></trkpt><trkpt lat="42.1480649" lon="11.8996739"><ele>487.0</ele><time>2026-04-19T09:05:50.048Z</time></trkpt><trkpt lat="42.148129" lon="11.8996381"><ele>487.0</ele><time>2026-04-19T09:05:51.05Z</time></trkpt><trkpt lat="42.1482004" lon="11.899583"><ele>486.8</ele><time>2026-04-19T09:05:52.043Z</time></trkpt><trkpt lat="42.1482824" lon="11.8995179"><ele>486.6</ele><time>2026-04-19T09:05:53.05Z</time></trkpt><trkpt lat="42.1483804" lon="11.8994524"><ele>486.40000000000003</ele><time>2026-04-19T09:05:54.035Z</time></trkpt><trkpt lat="42.1484805" lon="11.8993858"><ele>486.20000000000005</ele><time>2026-04-19T09:05:55.048Z</time></trkpt><trkpt lat="42.1485828" lon="11.8993225"><ele>486.0</ele><time>2026-04-19T09:05:56.044Z</time></trkpt><trkpt lat="42.1486915" lon="11.899249"><ele>486.0</ele><time>2026-04-19T09:05:57.044Z</time></trkpt><trkpt lat="42.1488002" lon="11.8991772"><ele>486.0</ele><time>2026-04-19T09:05:58.049Z</time></trkpt><trkpt lat="42.1489076" lon="11.8991066"><ele>486.0</ele><time>2026-04-19T09:05:59.04Z</time></trkpt><trkpt lat="42.1490196" lon="11.8990421"><ele>486.0</ele><time>2026-04-19T09:06:00.038Z</time></trkpt><trkpt lat="42.1491375" lon="11.8990019"><ele>485.75</ele><time>2026-04-19T09:06:01.038Z</time></trkpt><trkpt lat="42.149259" lon="11.8990018"><ele>485.5</ele><time>2026-04-19T09:06:02.047Z</time></trkpt><trkpt lat="42.1493788" lon="11.8990483"><ele>485.25</ele><time>2026-04-19T09:06:03.045Z</time></trkpt><trkpt lat="42.1494863" lon="11.8991314"><ele>485.0</ele><time>2026-04-19T09:06:04.032Z</time></trkpt><trkpt lat="42.1495889" lon="11.8992351"><ele>489.25</ele><time>2026-04-19T09:06:05.054Z</time></trkpt><trkpt lat="42.1496952" lon="11.8993428"><ele>493.5</ele><time>2026-04-19T09:06:06.042Z</time></trkpt><trkpt lat="42.1497973" lon="11.8994391"><ele>497.75</ele><time>2026-04-19T09:06:07.043Z</time></trkpt><trkpt lat="42.1498985" lon="11.8995173"><ele>502.0</ele><time>2026-04-19T09:06:08.048Z</time></trkpt><trkpt lat="42.1500083" lon="11.8995663"><ele>502.0</ele><time>2026-04-19T09:06:09.049Z</time></trkpt><trkpt lat="42.1501262" lon="11.8995829"><ele>502.0</ele><time>2026-04-19T09:06:10.055Z</time></trkpt><trkpt lat="42.1502474" lon="11.8995839"><ele>502.0</ele><time>2026-04-19T09:06:11.041Z</time></trkpt><trkpt lat="42.1503618" lon="11.8995722"><ele>502.0</ele><time>2026-04-19T09:06:12.05Z</time></trkpt><trkpt lat="42.1504595" lon="11.8995409"><ele>502.00000000000006</ele><time>2026-04-19T09:06:13.05Z</time></trkpt><trkpt lat="42.1505366" lon="11.8994819"><ele>502.0</ele><time>2026-04-19T09:06:14.046Z</time></trkpt><trkpt lat="42.1505936" lon="11.8993989"><ele>502.0</ele><time>2026-04-19T09:06:15.051Z</time></trkpt><trkpt lat="42.1506448" lon="11.8993076"><ele>502.0</ele><time>2026-04-19T09:06:16.054Z</time></trkpt><trkpt lat="42.1506976" lon="11.8992075"><ele>502.00000000000006</ele><time>2026-04-19T09:06:17.053Z</time></trkpt><trkpt lat="42.1507545" lon="11.8991006"><ele>502.0</ele><time>2026-04-19T09:06:18.041Z</time></trkpt><trkpt lat="42.1508307" lon="11.8989834"><ele>499.0</ele><time>2026-04-19T09:06:19.033Z</time></trkpt><trkpt lat="42.1509221" lon="11.8988799"><ele>496.0</ele><time>2026-04-19T09:06:20.042Z</time></trkpt><trkpt lat="42.1510206" lon="11.8987842"><ele>493.0</ele><time>2026-04-19T09:06:21.043Z</time></trkpt><trkpt lat="42.1511235" lon="11.8986943"><ele>490.0</ele><time>2026-04-19T09:06:22.036Z</time></trkpt><trkpt lat="42.1512298" lon="11.8986097"><ele>490.0</ele><time>2026-04-19T09:06:23.044Z</time></trkpt><trkpt lat="42.1513352" lon="11.8985342"><ele>490.0</ele><time>2026-04-19T09:06:24.042Z</time></trkpt><trkpt lat="42.1514411" lon="11.8984901"><ele>490.0</ele><time>2026-04-19T09:06:25.037Z</time></trkpt><trkpt lat="42.1515514" lon="11.8984851"><ele>490.0</ele><time>2026-04-19T09:06:26.036Z</time></trkpt><trkpt lat="42.1516596" lon="11.8985232"><ele>493.75</ele><time>2026-04-19T09:06:27.037Z</time></trkpt><trkpt lat="42.1517601" lon="11.8985983"><ele>497.5</ele><time>2026-04-19T09:06:28.036Z</time></trkpt><trkpt lat="42.1518617" lon="11.898676"><ele>501.25</ele><time>2026-04-19T09:06:29.047Z</time></trkpt><trkpt lat="42.1519412" lon="11.8988008"><ele>505.0</ele><time>2026-04-19T09:06:30.039Z</time></trkpt><trkpt lat="42.1520233" lon="11.8989303"><ele>505.0</ele><time>2026-04-19T09:06:31.046Z</time></trkpt><trkpt lat="42.1521056" lon="11.8990606"><ele>505.0</ele><time>2026-04-19T09:06:32.044Z</time></trkpt><trkpt lat="42.1521891" lon="11.8991893"><ele>505.0</ele><time>2026-04-19T09:06:33.043Z</time></trkpt><trkpt lat="42.1522748" lon="11.8993167"><ele>505.0</ele><time>2026-04-19T09:06:34.039Z</time></trkpt><trkpt lat="42.1523587" lon="11.8994386"><ele>504.75</ele><time>2026-04-19T09:06:35.045Z</time></trkpt><trkpt lat="42.1524447" lon="11.8995547"><ele>504.5</ele><time>2026-04-19T09:06:36.054Z</time></trkpt><trkpt lat="42.1525306" lon="11.8996667"><ele>504.25</ele><time>2026-04-19T09:06:37.044Z</time></trkpt><trkpt lat="42.1526182" lon="11.8997811"><ele>504.0</ele><time>2026-04-19T09:06:38.051Z</time></trkpt><trkpt lat="42.1527081" lon="11.8998972"><ele>504.0</ele><time>2026-04-19T09:06:39.049Z</time></trkpt><trkpt lat="42.1528038" lon="11.9000145"><ele>504.0</ele><time>2026-04-19T09:06:40.034Z</time></trkpt><trkpt lat="42.1528987" lon="11.9001305"><ele>504.0</ele><time>2026-04-19T09:06:41.045Z</time></trkpt><trkpt lat="42.1529975" lon="11.9002489"><ele>504.0</ele><time>2026-04-19T09:06:42.046Z</time></trkpt><trkpt lat="42.1530964" lon="11.9003684"><ele>502.75</ele><time>2026-04-19T09:06:43.036Z</time></trkpt><trkpt lat="42.1531939" lon="11.9004957"><ele>501.5</ele><time>2026-04-19T09:06:44.046Z</time></trkpt><trkpt lat="42.1532906" lon="11.9006238"><ele>500.25</ele><time>2026-04-19T09:06:45.038Z</time></trkpt><trkpt lat="42.1533862" lon="11.9007639"><ele>499.0</ele><time>2026-04-19T09:06:46.037Z</time></trkpt><trkpt lat="42.1534719" lon="11.9009129"><ele>503.75</ele><time>2026-04-19T09:06:47.049Z</time></trkpt><trkpt lat="42.1535434" lon="11.9010741"><ele>508.5</ele><time>2026-04-19T09:06:48.043Z</time></trkpt><trkpt lat="42.1536033" lon="11.9012413"><ele>513.25</ele><time>2026-04-19T09:06:49.035Z</time></trkpt><trkpt lat="42.1536572" lon="11.9014122"><ele>518.0</ele><time>2026-04-19T09:06:50.034Z</time></trkpt><trkpt lat="42.1537075" lon="11.901582"><ele>519.75</ele><time>2026-04-19T09:06:51.04Z</time></trkpt><trkpt lat="42.1537494" lon="11.9017554"><ele>521.5</ele><time>2026-04-19T09:06:52.033Z</time></trkpt><trkpt lat="42.1537722" lon="11.901933"><ele>523.25</ele><time>2026-04-19T09:06:53.038Z</time></trkpt><trkpt lat="42.1537787" lon="11.9021139"><ele>525.0</ele><time>2026-04-19T09:06:54.038Z</time></trkpt><trkpt lat="42.1537789" lon="11.9023004"><ele>525.0</ele><time>2026-04-19T09:06:55.037Z</time></trkpt><trkpt lat="42.1537696" lon="11.902489"><ele>525.0</ele><time>2026-04-19T09:06:56.034Z</time></trkpt><trkpt lat="42.1537505" lon="11.902673"><ele>525.0</ele><time>2026-04-19T09:06:57.036Z</time></trkpt><trkpt lat="42.153729" lon="11.9028596"><ele>525.0</ele><time>2026-04-19T09:06:58.041Z</time></trkpt><trkpt lat="42.1537058" lon="11.9030458"><ele>524.25</ele><time>2026-04-19T09:06:59.04Z</time></trkpt><trkpt lat="42.1536852" lon="11.9032318"><ele>523.5</ele><time>2026-04-19T09:07:00.034Z</time></trkpt><trkpt lat="42.1536634" lon="11.9034173"><ele>522.75</ele><time>2026-04-19T09:07:01.036Z</time></trkpt><trkpt lat="42.1536403" lon="11.9035997"><ele>522.0</ele><time>2026-04-19T09:07:02.045Z</time></trkpt><trkpt lat="42.1536163" lon="11.9037795"><ele>520.0</ele><time>2026-04-19T09:07:03.037Z</time></trkpt><trkpt lat="42.1535881" lon="11.9039617"><ele>518.0</ele><time>2026-04-19T09:07:04.042Z</time></trkpt><trkpt lat="42.1535493" lon="11.9041392"><ele>516.0</ele><time>2026-04-19T09:07:05.044Z</time></trkpt><trkpt lat="42.1534861" lon="11.9043082"><ele>514.0</ele><time>2026-04-19T09:07:06.03Z</time></trkpt><trkpt lat="42.1533985" lon="11.9044609"><ele>510.75</ele><time>2026-04-19T09:07:07.043Z</time></trkpt><trkpt lat="42.1533097" lon="11.9046121"><ele>507.5</ele><time>2026-04-19T09:07:08.033Z</time></trkpt><trkpt lat="42.1532139" lon="11.9047534"><ele>504.25</ele><time>2026-04-19T09:07:09.052Z</time></trkpt><trkpt lat="42.153118" lon="11.9049003"><ele>501.0</ele><time>2026-04-19T09:07:10.041Z</time></trkpt><trkpt lat="42.1530404" lon="11.9050553"><ele>509.0</ele><time>2026-04-19T09:07:11.044Z</time></trkpt><trkpt lat="42.1529782" lon="11.9052202"><ele>517.0</ele><time>2026-04-19T09:07:12.039Z</time></trkpt><trkpt lat="42.1529351" lon="11.9053979"><ele>525.0</ele><time>2026-04-19T09:07:13.041Z</time></trkpt><trkpt lat="42.1529125" lon="11.9055902"><ele>533.0</ele><time>2026-04-19T09:07:14.039Z</time></trkpt><trkpt lat="42.1529064" lon="11.9057874"><ele>535.5</ele><time>2026-04-19T09:07:15.049Z</time></trkpt><trkpt lat="42.1529018" lon="11.9059873"><ele>538.0</ele><time>2026-04-19T09:07:16.038Z</time></trkpt><trkpt lat="42.1529016" lon="11.9061852"><ele>540.5</ele><time>2026-04-19T09:07:17.036Z</time></trkpt><trkpt lat="42.1529044" lon="11.9063857"><ele>543.0</ele><time>2026-04-19T09:07:18.035Z</time></trkpt><trkpt lat="42.1529103" lon="11.90657"><ele>544.75</ele><time>2026-04-19T09:07:19.041Z</time></trkpt><trkpt lat="42.1529165" lon="11.9067511"><ele>546.5</ele><time>2026-04-19T09:07:20.036Z</time></trkpt><trkpt lat="42.1529599" lon="11.9069182"><ele>548.25</ele><time>2026-04-19T09:07:21.046Z</time></trkpt><trkpt lat="42.1530296" lon="11.9070669"><ele>550.0</ele><time>2026-04-19T09:07:22.034Z</time></trkpt><trkpt lat="42.1531278" lon="11.9071847"><ele>544.75</ele><time>2026-04-19T09:07:23.036Z</time></trkpt><trkpt lat="42.1532272" lon="11.9072975"><ele>539.5</ele><time>2026-04-19T09:07:24.042Z</time></trkpt><trkpt lat="42.1533496" lon="11.9073433"><ele>534.25</ele><time>2026-04-19T09:07:25.042Z</time></trkpt><trkpt lat="42.1534795" lon="11.9073605"><ele>529.0</ele><time>2026-04-19T09:07:26.042Z</time></trkpt><trkpt lat="42.1536088" lon="11.9073174"><ele>529.0</ele><time>2026-04-19T09:07:27.034Z</time></trkpt><trkpt lat="42.1537237" lon="11.907212"><ele>529.0</ele><time>2026-04-19T09:07:28.035Z</time></trkpt><trkpt lat="42.1538344" lon="11.9070725"><ele>529.0</ele><time>2026-04-19T09:07:29.043Z</time></trkpt><trkpt lat="42.1539414" lon="11.9069396"><ele>529.0</ele><time>2026-04-19T09:07:30.036Z</time></trkpt><trkpt lat="42.154059" lon="11.9068135"><ele>524.3333333333334</ele><time>2026-04-19T09:07:31.043Z</time></trkpt><trkpt lat="42.1541917" lon="11.906708"><ele>519.6666666666666</ele><time>2026-04-19T09:07:32.053Z</time></trkpt><trkpt lat="42.1543202" lon="11.9066077"><ele>515.0</ele><time>2026-04-19T09:07:33.05Z</time></trkpt><trkpt lat="42.1544607" lon="11.9065405"><ele>515.0</ele><time>2026-04-19T09:07:34.039Z</time></trkpt><trkpt lat="42.154599" lon="11.9065046"><ele>515.0</ele><time>2026-04-19T09:07:35.049Z</time></trkpt><trkpt lat="42.1547352" lon="11.9064943"><ele>515.0</ele><time>2026-04-19T09:07:36.044Z</time></trkpt><trkpt lat="42.1548702" lon="11.9064893"><ele>515.0</ele><time>2026-04-19T09:07:37.038Z</time></trkpt><trkpt lat="42.1550018" lon="11.9065258"><ele>517.0</ele><time>2026-04-19T09:07:38.044Z</time></trkpt><trkpt lat="42.1551318" lon="11.9065761"><ele>519.0</ele><time>2026-04-19T09:07:39.05Z</time></trkpt><trkpt lat="42.1552553" lon="11.9066424"><ele>521.0</ele><time>2026-04-19T09:07:40.044Z</time></trkpt><trkpt lat="42.1553723" lon="11.9067194"><ele>523.0</ele><time>2026-04-19T09:07:41.055Z</time></trkpt><trkpt lat="42.1554777" lon="11.9067997"><ele>528.0</ele><time>2026-04-19T09:07:42.046Z</time></trkpt><trkpt lat="42.1555811" lon="11.9068799"><ele>533.0</ele><time>2026-04-19T09:07:43.039Z</time></trkpt><trkpt lat="42.1556788" lon="11.9069661"><ele>538.0</ele><time>2026-04-19T09:07:44.06Z</time></trkpt><trkpt lat="42.1557776" lon="11.9070542"><ele>543.0</ele><time>2026-04-19T09:07:45.045Z</time></trkpt><trkpt lat="42.1558718" lon="11.9071345"><ele>543.0</ele><time>2026-04-19T09:07:46.087Z</time></trkpt><trkpt lat="42.1559661" lon="11.9072071"><ele>543.0</ele><time>2026-04-19T09:07:47.052Z</time></trkpt><trkpt lat="42.1560684" lon="11.9072626"><ele>543.0</ele><time>2026-04-19T09:07:48.037Z</time></trkpt><trkpt lat="42.1561744" lon="11.9073035"><ele>543.0</ele><time>2026-04-19T09:07:49.04Z</time></trkpt><trkpt lat="42.1562871" lon="11.9073197"><ele>543.0</ele><time>2026-04-19T09:07:50.038Z</time></trkpt><trkpt lat="42.1564053" lon="11.9073105"><ele>543.0</ele><time>2026-04-19T09:07:51.039Z</time></trkpt><trkpt lat="42.1565283" lon="11.9072791"><ele>543.0</ele><time>2026-04-19T09:07:52.035Z</time></trkpt><trkpt lat="42.156653" lon="11.9072402"><ele>543.0</ele><time>2026-04-19T09:07:53.035Z</time></trkpt><trkpt lat="42.156782" lon="11.9072034"><ele>543.0</ele><time>2026-04-19T09:07:54.047Z</time></trkpt><trkpt lat="42.1569207" lon="11.9071809"><ele>540.75</ele><time>2026-04-19T09:07:55.037Z</time></trkpt><trkpt lat="42.1570552" lon="11.9071737"><ele>538.5</ele><time>2026-04-19T09:07:56.036Z</time></trkpt><trkpt lat="42.1571899" lon="11.9071926"><ele>536.25</ele><time>2026-04-19T09:07:57.045Z</time></trkpt><trkpt lat="42.1573175" lon="11.9072447"><ele>534.0</ele><time>2026-04-19T09:07:58.052Z</time></trkpt><trkpt lat="42.1574394" lon="11.9073222"><ele>534.4</ele><time>2026-04-19T09:07:59.05Z</time></trkpt><trkpt lat="42.1575482" lon="11.9074226"><ele>534.8</ele><time>2026-04-19T09:08:00.042Z</time></trkpt><trkpt lat="42.1576311" lon="11.9075188"><ele>535.2</ele><time>2026-04-19T09:08:01.05Z</time></trkpt><trkpt lat="42.1576935" lon="11.907608"><ele>535.6</ele><time>2026-04-19T09:08:02.054Z</time></trkpt><trkpt lat="42.1577385" lon="11.9076819"><ele>536.0</ele><time>2026-04-19T09:08:03.048Z</time></trkpt><trkpt lat="42.1578212" lon="11.9077671"><ele>536.0</ele><time>2026-04-19T09:08:05.054Z</time></trkpt><trkpt lat="42.1578828" lon="11.9077282"><ele>536.0</ele><time>2026-04-19T09:08:07.056Z</time></trkpt><trkpt lat="42.1578942" lon="11.9075795"><ele>536.0</ele><time>2026-04-19T09:08:09.061Z</time></trkpt><trkpt lat="42.1578857" lon="11.9074736"><ele>536.0</ele><time>2026-04-19T09:08:10.039Z</time></trkpt><trkpt lat="42.1578746" lon="11.9073506"><ele>536.0</ele><time>2026-04-19T09:08:11.05Z</time></trkpt><trkpt lat="42.1578638" lon="11.9072223"><ele>536.0</ele><time>2026-04-19T09:08:12.044Z</time></trkpt><trkpt lat="42.1578492" lon="11.9070808"><ele>534.0</ele><time>2026-04-19T09:08:13.046Z</time></trkpt><trkpt lat="42.1578316" lon="11.9069344"><ele>532.0</ele><time>2026-04-19T09:08:14.046Z</time></trkpt><trkpt lat="42.1578132" lon="11.9067789"><ele>530.0</ele><time>2026-04-19T09:08:15.038Z</time></trkpt><trkpt lat="42.1577964" lon="11.9066254"><ele>528.0</ele><time>2026-04-19T09:08:16.043Z</time></trkpt><trkpt lat="42.1577769" lon="11.9064763"><ele>526.8</ele><time>2026-04-19T09:08:17.047Z</time></trkpt><trkpt lat="42.1577524" lon="11.906334"><ele>525.5999999999999</ele><time>2026-04-19T09:08:18.041Z</time></trkpt><trkpt lat="42.157721" lon="11.9062025"><ele>524.4000000000001</ele><time>2026-04-19T09:08:19.044Z</time></trkpt><trkpt lat="42.1576821" lon="11.9060739"><ele>523.2</ele><time>2026-04-19T09:08:20.047Z</time></trkpt><trkpt lat="42.1576393" lon="11.9059503"><ele>522.0</ele><time>2026-04-19T09:08:21.04Z</time></trkpt><trkpt lat="42.1575949" lon="11.9058324"><ele>521.4</ele><time>2026-04-19T09:08:22.043Z</time></trkpt><trkpt lat="42.1575514" lon="11.9057207"><ele>520.8000000000001</ele><time>2026-04-19T09:08:23.035Z</time></trkpt><trkpt lat="42.1575088" lon="11.9056132"><ele>520.2</ele><time>2026-04-19T09:08:24.043Z</time></trkpt><trkpt lat="42.1574652" lon="11.9055079"><ele>519.6</ele><time>2026-04-19T09:08:25.06Z</time></trkpt><trkpt lat="42.1574227" lon="11.9054007"><ele>519.0</ele><time>2026-04-19T09:08:26.036Z</time></trkpt><trkpt lat="42.1573788" lon="11.9052894"><ele>515.6</ele><time>2026-04-19T09:08:27.041Z</time></trkpt><trkpt lat="42.1573303" lon="11.9051688"><ele>512.2</ele><time>2026-04-19T09:08:28.038Z</time></trkpt><trkpt lat="42.157277" lon="11.9050402"><ele>508.80000000000007</ele><time>2026-04-19T09:08:29.04Z</time></trkpt><trkpt lat="42.1572197" lon="11.9049067"><ele>505.40000000000003</ele><time>2026-04-19T09:08:30.046Z</time></trkpt><trkpt lat="42.1571632" lon="11.9047726"><ele>502.0</ele><time>2026-04-19T09:08:31.041Z</time></trkpt><trkpt lat="42.1571136" lon="11.9046417"><ele>501.8</ele><time>2026-04-19T09:08:32.036Z</time></trkpt><trkpt lat="42.1570665" lon="11.9045127"><ele>501.6</ele><time>2026-04-19T09:08:33.05Z</time></trkpt><trkpt lat="42.1570219" lon="11.9043876"><ele>501.40000000000003</ele><time>2026-04-19T09:08:34.038Z</time></trkpt><trkpt lat="42.1569777" lon="11.9042624"><ele>501.20000000000005</ele><time>2026-04-19T09:08:35.037Z</time></trkpt><trkpt lat="42.1569373" lon="11.9041343"><ele>501.0</ele><time>2026-04-19T09:08:36.037Z</time></trkpt><trkpt lat="42.1569" lon="11.9040059"><ele>501.0</ele><time>2026-04-19T09:08:37.039Z</time></trkpt><trkpt lat="42.1568708" lon="11.9038836"><ele>501.0</ele><time>2026-04-19T09:08:38.055Z</time></trkpt><trkpt lat="42.1568525" lon="11.9037654"><ele>501.0</ele><time>2026-04-19T09:08:39.041Z</time></trkpt><trkpt lat="42.1568284" lon="11.9036565"><ele>501.0</ele><time>2026-04-19T09:08:40.049Z</time></trkpt><trkpt lat="42.156841" lon="11.903549"><ele>501.0</ele><time>2026-04-19T09:08:41.056Z</time></trkpt><trkpt lat="42.1568532" lon="11.9034503"><ele>501.0</ele><time>2026-04-19T09:08:42.039Z</time></trkpt><trkpt lat="42.1569149" lon="11.903376"><ele>500.5</ele><time>2026-04-19T09:08:43.056Z</time></trkpt><trkpt lat="42.1569787" lon="11.9033006"><ele>500.0</ele><time>2026-04-19T09:08:44.049Z</time></trkpt><trkpt lat="42.1570356" lon="11.9032318"><ele>499.5</ele><time>2026-04-19T09:08:45.034Z</time></trkpt><trkpt lat="42.1570757" lon="11.9031448"><ele>499.0</ele><time>2026-04-19T09:08:46.039Z</time></trkpt><trkpt lat="42.1571151" lon="11.9030518"><ele>498.5</ele><time>2026-04-19T09:08:47.034Z</time></trkpt><trkpt lat="42.1571154" lon="11.9029438"><ele>498.0</ele><time>2026-04-19T09:08:48.031Z</time></trkpt><trkpt lat="42.1570832" lon="11.9028445"><ele>498.0</ele><time>2026-04-19T09:08:49.047Z</time></trkpt><trkpt lat="42.1570526" lon="11.9027534"><ele>498.0</ele><time>2026-04-19T09:08:50.045Z</time></trkpt><trkpt lat="42.157024" lon="11.902664"><ele>498.0</ele><time>2026-04-19T09:08:51.038Z</time></trkpt><trkpt lat="42.1569994" lon="11.9025851"><ele>498.0</ele><time>2026-04-19T09:08:52.05Z</time></trkpt><trkpt lat="42.1569586" lon="11.9024632"><ele>498.0</ele><time>2026-04-19T09:08:54.03Z</time></trkpt><trkpt lat="42.1568867" lon="11.9023412"><ele>498.0</ele><time>2026-04-19T09:08:56.04Z</time></trkpt><trkpt lat="42.1567879" lon="11.9022263"><ele>497.3333333333333</ele><time>2026-04-19T09:08:58.052Z</time></trkpt><trkpt lat="42.1567376" lon="11.9021688"><ele>496.66666666666663</ele><time>2026-04-19T09:08:59.052Z</time></trkpt><trkpt lat="42.1566871" lon="11.9021083"><ele>496.0</ele><time>2026-04-19T09:09:00.053Z</time></trkpt><trkpt lat="42.1566404" lon="11.9020447"><ele>495.3333333333333</ele><time>2026-04-19T09:09:01.05Z</time></trkpt><trkpt lat="42.1565554" lon="11.9019419"><ele>494.66666666666663</ele><time>2026-04-19T09:09:03.06Z</time></trkpt><trkpt lat="42.1564769" lon="11.9018377"><ele>494.0</ele><time>2026-04-19T09:09:05.046Z</time></trkpt><trkpt lat="42.1564114" lon="11.9017273"><ele>493.3333333333333</ele><time>2026-04-19T09:09:07.037Z</time></trkpt><trkpt lat="42.1563564" lon="11.9016434"><ele>492.66666666666663</ele><time>2026-04-19T09:09:09.043Z</time></trkpt><trkpt lat="42.1563161" lon="11.9015766"><ele>492.0</ele><time>2026-04-19T09:09:11.044Z</time></trkpt><trkpt lat="42.1562784" lon="11.9015011"><ele>491.33333333333337</ele><time>2026-04-19T09:09:13.045Z</time></trkpt><trkpt lat="42.1562255" lon="11.9013895"><ele>490.6666666666667</ele><time>2026-04-19T09:09:15.059Z</time></trkpt><trkpt lat="42.1561685" lon="11.9012968"><ele>490.0</ele><time>2026-04-19T09:09:17.044Z</time></trkpt><trkpt lat="42.1560932" lon="11.9012602"><ele>490.00000000000006</ele><time>2026-04-19T09:09:20.046Z</time></trkpt><trkpt lat="42.1560339" lon="11.9012977"><ele>490.0</ele><time>2026-04-19T09:09:46.034Z</time></trkpt><trkpt lat="42.1559257" lon="11.9013914"><ele>490.0</ele><time>2026-04-19T09:09:56.039Z</time></trkpt><trkpt lat="42.1558321" lon="11.9014188"><ele>490.0</ele><time>2026-04-19T09:09:59.043Z</time></trkpt><trkpt lat="42.1557503" lon="11.9014193"><ele>490.00000000000006</ele><time>2026-04-19T09:10:01.047Z</time></trkpt><trkpt lat="42.1556769" lon="11.9014296"><ele>490.0</ele><time>2026-04-19T09:10:03.05Z</time></trkpt><trkpt lat="42.1555826" lon="11.9014199"><ele>485.50000000000006</ele><time>2026-04-19T09:10:06.045Z</time></trkpt><trkpt lat="42.1555126" lon="11.9013947"><ele>481.0</ele><time>2026-04-19T09:10:08.04Z</time></trkpt><trkpt lat="42.1554511" lon="11.9012914"><ele>476.5</ele><time>2026-04-19T09:10:10.047Z</time></trkpt><trkpt lat="42.1554267" lon="11.901167"><ele>472.0</ele><time>2026-04-19T09:10:12.055Z</time></trkpt><trkpt lat="42.1554093" lon="11.9010553"><ele>467.50000000000006</ele><time>2026-04-19T09:10:14.049Z</time></trkpt><trkpt lat="42.1554011" lon="11.9009607"><ele>463.0</ele><time>2026-04-19T09:10:16.047Z</time></trkpt><trkpt lat="42.155378" lon="11.9008583"><ele>462.00000000000006</ele><time>2026-04-19T09:10:18.048Z</time></trkpt><trkpt lat="42.1553093" lon="11.9007554"><ele>461.0</ele><time>2026-04-19T09:10:20.047Z</time></trkpt><trkpt lat="42.1553313" lon="11.9006501"><ele>460.0</ele><time>2026-04-19T09:10:22.037Z</time></trkpt><trkpt lat="42.1553854" lon="11.900603"><ele>459.0</ele><time>2026-04-19T09:10:23.074Z</time></trkpt><trkpt lat="42.1554561" lon="11.9005759"><ele>458.00000000000006</ele><time>2026-04-19T09:10:24.053Z</time></trkpt><trkpt lat="42.1555348" lon="11.9005412"><ele>457.0</ele><time>2026-04-19T09:10:25.043Z</time></trkpt><trkpt lat="42.1556113" lon="11.9004783"><ele>457.0</ele><time>2026-04-19T09:10:26.06Z</time></trkpt><trkpt lat="42.1556755" lon="11.9003897"><ele>457.00000000000006</ele><time>2026-04-19T09:10:27.059Z</time></trkpt><trkpt lat="42.1557291" lon="11.9002832"><ele>457.00000000000006</ele><time>2026-04-19T09:10:28.046Z</time></trkpt><trkpt lat="42.1557748" lon="11.9001655"><ele>457.0</ele><time>2026-04-19T09:10:29.041Z</time></trkpt><trkpt lat="42.1558207" lon="11.9000419"><ele>457.0</ele><time>2026-04-19T09:10:30.048Z</time></trkpt><trkpt lat="42.1558474" lon="11.8999046"><ele>458.1666666666667</ele><time>2026-04-19T09:10:31.04Z</time></trkpt><trkpt lat="42.155877" lon="11.8997641"><ele>459.33333333333337</ele><time>2026-04-19T09:10:32.048Z</time></trkpt><trkpt lat="42.1559067" lon="11.8996429"><ele>460.5</ele><time>2026-04-19T09:10:33.073Z</time></trkpt><trkpt lat="42.1559316" lon="11.8995348"><ele>461.66666666666663</ele><time>2026-04-19T09:10:34.051Z</time></trkpt><trkpt lat="42.155942" lon="11.8994364"><ele>462.8333333333333</ele><time>2026-04-19T09:10:35.042Z</time></trkpt><trkpt lat="42.1559262" lon="11.8993266"><ele>464.0</ele><time>2026-04-19T09:10:37.046Z</time></trkpt><trkpt lat="42.1558605" lon="11.8994057"><ele>464.0</ele><time>2026-04-19T09:10:40.036Z</time></trkpt><trkpt lat="42.155806" lon="11.899527"><ele>464.0</ele><time>2026-04-19T09:10:42.037Z</time></trkpt><trkpt lat="42.1557139" lon="11.8996687"><ele>464.0</ele><time>2026-04-19T09:10:44.038Z</time></trkpt><trkpt lat="42.1556528" lon="11.8997227"><ele>464.0</ele><time>2026-04-19T09:10:45.059Z</time></trkpt><trkpt lat="42.1555381" lon="11.8997494"><ele>464.0</ele><time>2026-04-19T09:10:47.04Z</time></trkpt><trkpt lat="42.1554732" lon="11.8997199"><ele>460.8333333333333</ele><time>2026-04-19T09:10:48.042Z</time></trkpt><trkpt lat="42.1554085" lon="11.899665"><ele>457.66666666666663</ele><time>2026-04-19T09:10:49.051Z</time></trkpt><trkpt lat="42.1553428" lon="11.8996002"><ele>454.5</ele><time>2026-04-19T09:10:50.041Z</time></trkpt><trkpt lat="42.1552686" lon="11.8995534"><ele>451.33333333333337</ele><time>2026-04-19T09:10:51.058Z</time></trkpt><trkpt lat="42.1551976" lon="11.89951"><ele>448.1666666666667</ele><time>2026-04-19T09:10:52.061Z</time></trkpt><trkpt lat="42.1551317" lon="11.8994888"><ele>445.0</ele><time>2026-04-19T09:10:53.042Z</time></trkpt><trkpt lat="42.1550418" lon="11.899418"><ele>445.00000000000006</ele><time>2026-04-19T09:10:55.046Z</time></trkpt><trkpt lat="42.1550388" lon="11.8993078"><ele>445.0</ele><time>2026-04-19T09:10:57.043Z</time></trkpt><trkpt lat="42.1550511" lon="11.8991814"><ele>445.0</ele><time>2026-04-19T09:10:59.037Z</time></trkpt><trkpt lat="42.1550342" lon="11.8990264"><ele>445.0</ele><time>2026-04-19T09:11:01.044Z</time></trkpt><trkpt lat="42.1550248" lon="11.8989415"><ele>445.00000000000006</ele><time>2026-04-19T09:11:02.043Z</time></trkpt><trkpt lat="42.1550198" lon="11.8988519"><ele>445.0</ele><time>2026-04-19T09:11:03.04Z</time></trkpt><trkpt lat="42.1550312" lon="11.8987605"><ele>442.83333333333337</ele><time>2026-04-19T09:11:04.047Z</time></trkpt><trkpt lat="42.1550591" lon="11.8986707"><ele>440.6666666666667</ele><time>2026-04-19T09:11:05.048Z</time></trkpt><trkpt lat="42.1550888" lon="11.8985802"><ele>438.5</ele><time>2026-04-19T09:11:06.05Z</time></trkpt><trkpt lat="42.1551248" lon="11.8984936"><ele>436.33333333333337</ele><time>2026-04-19T09:11:07.037Z</time></trkpt><trkpt lat="42.1551584" lon="11.89842"><ele>434.1666666666667</ele><time>2026-04-19T09:11:08.042Z</time></trkpt><trkpt lat="42.1551571" lon="11.8983058"><ele>432.0</ele><time>2026-04-19T09:11:10.045Z</time></trkpt><trkpt lat="42.1550609" lon="11.898258"><ele>430.5</ele><time>2026-04-19T09:11:12.056Z</time></trkpt><trkpt lat="42.1549919" lon="11.8982467"><ele>429.0</ele><time>2026-04-19T09:11:13.048Z</time></trkpt><trkpt lat="42.154916" lon="11.8982354"><ele>427.5</ele><time>2026-04-19T09:11:14.049Z</time></trkpt><trkpt lat="42.1548417" lon="11.8982498"><ele>426.0</ele><time>2026-04-19T09:11:15.044Z</time></trkpt><trkpt lat="42.1547741" lon="11.8982984"><ele>424.5</ele><time>2026-04-19T09:11:16.044Z</time></trkpt><trkpt lat="42.1547062" lon="11.8983606"><ele>423.0</ele><time>2026-04-19T09:11:17.039Z</time></trkpt><trkpt lat="42.1546288" lon="11.8984111"><ele>424.0</ele><time>2026-04-19T09:11:18.05Z</time></trkpt><trkpt lat="42.1545509" lon="11.8984418"><ele>425.0</ele><time>2026-04-19T09:11:19.054Z</time></trkpt><trkpt lat="42.154472" lon="11.8984683"><ele>426.0</ele><time>2026-04-19T09:11:20.04Z</time></trkpt><trkpt lat="42.1543962" lon="11.8984968"><ele>427.0</ele><time>2026-04-19T09:11:21.041Z</time></trkpt><trkpt lat="42.154328" lon="11.8985234"><ele>428.0</ele><time>2026-04-19T09:11:22.048Z</time></trkpt><trkpt lat="42.1542118" lon="11.8985343"><ele>429.0</ele><time>2026-04-19T09:11:24.034Z</time></trkpt><trkpt lat="42.1541418" lon="11.8984391"><ele>429.4</ele><time>2026-04-19T09:11:26.047Z</time></trkpt><trkpt lat="42.1540865" lon="11.8982669"><ele>429.79999999999995</ele><time>2026-04-19T09:11:28.04Z</time></trkpt><trkpt lat="42.15406" lon="11.8981536"><ele>430.20000000000005</ele><time>2026-04-19T09:11:29.038Z</time></trkpt><trkpt lat="42.1540328" lon="11.8980208"><ele>430.6</ele><time>2026-04-19T09:11:30.049Z</time></trkpt><trkpt lat="42.1540176" lon="11.8978778"><ele>431.0</ele><time>2026-04-19T09:11:31.051Z</time></trkpt><trkpt lat="42.1540091" lon="11.8977257"><ele>428.20000000000005</ele><time>2026-04-19T09:11:32.046Z</time></trkpt><trkpt lat="42.1540028" lon="11.8975703"><ele>425.40000000000003</ele><time>2026-04-19T09:11:33.048Z</time></trkpt><trkpt lat="42.1539941" lon="11.8974192"><ele>422.6</ele><time>2026-04-19T09:11:34.046Z</time></trkpt><trkpt lat="42.1540077" lon="11.8972709"><ele>419.8</ele><time>2026-04-19T09:11:35.049Z</time></trkpt><trkpt lat="42.154042" lon="11.8971291"><ele>417.0</ele><time>2026-04-19T09:11:36.034Z</time></trkpt><trkpt lat="42.1540488" lon="11.8969688"><ele>414.6666666666667</ele><time>2026-04-19T09:11:37.045Z</time></trkpt><trkpt lat="42.1540463" lon="11.8968209"><ele>412.33333333333337</ele><time>2026-04-19T09:11:38.131Z</time></trkpt><trkpt lat="42.1540471" lon="11.8966865"><ele>410.0</ele><time>2026-04-19T09:11:39.048Z</time></trkpt><trkpt lat="42.1540447" lon="11.8965708"><ele>407.6666666666667</ele><time>2026-04-19T09:11:40.038Z</time></trkpt><trkpt lat="42.154044" lon="11.8964686"><ele>405.33333333333337</ele><time>2026-04-19T09:11:41.046Z</time></trkpt><trkpt lat="42.1540429" lon="11.8963734"><ele>403.0</ele><time>2026-04-19T09:11:42.043Z</time></trkpt><trkpt lat="42.1540287" lon="11.8962462"><ele>403.00000000000006</ele><time>2026-04-19T09:11:44.043Z</time></trkpt><trkpt lat="42.1539426" lon="11.896212"><ele>403.0</ele><time>2026-04-19T09:11:47.046Z</time></trkpt><trkpt lat="42.1538438" lon="11.8962519"><ele>403.0</ele><time>2026-04-19T09:11:49.042Z</time></trkpt><trkpt lat="42.1537262" lon="11.8962611"><ele>403.0</ele><time>2026-04-19T09:11:51.043Z</time></trkpt><trkpt lat="42.1536616" lon="11.8962578"><ele>403.00000000000006</ele><time>2026-04-19T09:11:52.039Z</time></trkpt><trkpt lat="42.1535955" lon="11.8962587"><ele>403.0</ele><time>2026-04-19T09:11:53.045Z</time></trkpt><trkpt lat="42.1535251" lon="11.8962584"><ele>403.0</ele><time>2026-04-19T09:11:54.048Z</time></trkpt><trkpt lat="42.153414" lon="11.8962173"><ele>403.0</ele><time>2026-04-19T09:11:56.046Z</time></trkpt><trkpt lat="42.1533456" lon="11.8960875"><ele>403.0</ele><time>2026-04-19T09:11:58.044Z</time></trkpt><trkpt lat="42.1533061" lon="11.8960131"><ele>403.0</ele><time>2026-04-19T09:11:59.05Z</time></trkpt><trkpt lat="42.1532515" lon="11.8959643"><ele>403.0</ele><time>2026-04-19T09:12:00.04Z</time></trkpt><trkpt lat="42.1531441" lon="11.8959837"><ele>404.4</ele><time>2026-04-19T09:12:02.038Z</time></trkpt><trkpt lat="42.1530965" lon="11.8961169"><ele>405.79999999999995</ele><time>2026-04-19T09:12:04.043Z</time></trkpt><trkpt lat="42.1531119" lon="11.8962869"><ele>407.2</ele><time>2026-04-19T09:12:06.055Z</time></trkpt><trkpt lat="42.1531364" lon="11.8963659"><ele>408.6</ele><time>2026-04-19T09:12:07.04Z</time></trkpt><trkpt lat="42.1531704" lon="11.8964412"><ele>410.0</ele><time>2026-04-19T09:12:08.04Z</time></trkpt><trkpt lat="42.1531863" lon="11.8965589"><ele>409.99999999999994</ele><time>2026-04-19T09:12:10.044Z</time></trkpt><trkpt lat="42.153121" lon="11.8965922"><ele>410.0</ele><time>2026-04-19T09:12:12.055Z</time></trkpt><trkpt lat="42.1530783" lon="11.8965295"><ele>410.0</ele><time>2026-04-19T09:12:13.049Z</time></trkpt><trkpt lat="42.1530244" lon="11.8964489"><ele>410.0</ele><time>2026-04-19T09:12:14.04Z</time></trkpt><trkpt lat="42.1529563" lon="11.8963764"><ele>409.99999999999994</ele><time>2026-04-19T09:12:15.047Z</time></trkpt><trkpt lat="42.1528766" lon="11.8963234"><ele>410.0</ele><time>2026-04-19T09:12:16.047Z</time></trkpt><trkpt lat="42.1528089" lon="11.8962971"><ele>409.99999999999994</ele><time>2026-04-19T09:12:17.044Z</time></trkpt><trkpt lat="42.1527015" lon="11.8963093"><ele>410.0</ele><time>2026-04-19T09:12:19.049Z</time></trkpt><trkpt lat="42.1526426" lon="11.8963486"><ele>410.0</ele><time>2026-04-19T09:12:35.052Z</time></trkpt><trkpt lat="42.1525652" lon="11.8964622"><ele>410.0</ele><time>2026-04-19T09:12:37.061Z</time></trkpt><trkpt lat="42.1525118" lon="11.8965236"><ele>409.99999999999994</ele><time>2026-04-19T09:12:38.041Z</time></trkpt><trkpt lat="42.1524503" lon="11.8965825"><ele>410.0</ele><time>2026-04-19T09:12:39.041Z</time></trkpt><trkpt lat="42.1523883" lon="11.8966356"><ele>411.14285714285717</ele><time>2026-04-19T09:12:40.043Z</time></trkpt><trkpt lat="42.1523312" lon="11.896681"><ele>412.2857142857143</ele><time>2026-04-19T09:12:41.044Z</time></trkpt><trkpt lat="42.1522518" lon="11.8967193"><ele>413.42857142857144</ele><time>2026-04-19T09:12:43.038Z</time></trkpt><trkpt lat="42.1521863" lon="11.8967554"><ele>414.57142857142856</ele><time>2026-04-19T09:12:46.055Z</time></trkpt><trkpt lat="42.1521249" lon="11.8967971"><ele>415.71428571428567</ele><time>2026-04-19T09:12:51.05Z</time></trkpt><trkpt lat="42.1520755" lon="11.8967342"><ele>416.85714285714283</ele><time>2026-04-19T09:12:55.046Z</time></trkpt><trkpt lat="42.1520222" lon="11.8966691"><ele>418.0</ele><time>2026-04-19T09:13:01.055Z</time></trkpt><trkpt lat="42.1519587" lon="11.8966367"><ele>418.00000000000006</ele><time>2026-04-19T09:13:05.048Z</time></trkpt><trkpt lat="42.1518856" lon="11.8966192"><ele>418.0</ele><time>2026-04-19T09:13:54.046Z</time></trkpt><trkpt lat="42.1518154" lon="11.896581"><ele>418.0</ele><time>2026-04-19T09:14:01.035Z</time></trkpt><trkpt lat="42.1517508" lon="11.8965413"><ele>418.0</ele><time>2026-04-19T09:14:07.039Z</time></trkpt><trkpt lat="42.1516939" lon="11.8965032"><ele>418.00000000000006</ele><time>2026-04-19T09:14:31.07Z</time></trkpt><trkpt lat="42.1516313" lon="11.8964286"><ele>418.0</ele><time>2026-04-19T09:14:33.045Z</time></trkpt><trkpt lat="42.1515936" lon="11.8963027"><ele>418.00000000000006</ele><time>2026-04-19T09:14:35.049Z</time></trkpt><trkpt lat="42.1515636" lon="11.8962207"><ele>418.0</ele><time>2026-04-19T09:14:36.039Z</time></trkpt><trkpt lat="42.1515207" lon="11.8961349"><ele>418.0</ele><time>2026-04-19T09:14:37.039Z</time></trkpt><trkpt lat="42.1514623" lon="11.8960537"><ele>418.0</ele><time>2026-04-19T09:14:38.061Z</time></trkpt><trkpt lat="42.1513904" lon="11.8959811"><ele>418.00000000000006</ele><time>2026-04-19T09:14:39.064Z</time></trkpt><trkpt lat="42.1513068" lon="11.8959115"><ele>418.0</ele><time>2026-04-19T09:14:40.039Z</time></trkpt><trkpt lat="42.1512202" lon="11.8958414"><ele>414.79999999999995</ele><time>2026-04-19T09:14:41.047Z</time></trkpt><trkpt lat="42.1511296" lon="11.8957739"><ele>411.6</ele><time>2026-04-19T09:14:42.053Z</time></trkpt><trkpt lat="42.1510474" lon="11.8957128"><ele>408.4</ele><time>2026-04-19T09:14:43.035Z</time></trkpt><trkpt lat="42.1509823" lon="11.8956634"><ele>405.20000000000005</ele><time>2026-04-19T09:14:44.041Z</time></trkpt><trkpt lat="42.1508884" lon="11.8955812"><ele>402.0</ele><time>2026-04-19T09:14:46.039Z</time></trkpt><trkpt lat="42.1507927" lon="11.8955158"><ele>402.1666666666667</ele><time>2026-04-19T09:14:48.044Z</time></trkpt><trkpt lat="42.1507005" lon="11.8954604"><ele>402.33333333333337</ele><time>2026-04-19T09:14:50.031Z</time></trkpt><trkpt lat="42.1506239" lon="11.8953939"><ele>402.5</ele><time>2026-04-19T09:14:52.039Z</time></trkpt><trkpt lat="42.1505699" lon="11.8953415"><ele>402.6666666666667</ele><time>2026-04-19T09:14:54.047Z</time></trkpt><trkpt lat="42.1505099" lon="11.8952982"><ele>402.83333333333337</ele><time>2026-04-19T09:14:57.049Z</time></trkpt><trkpt lat="42.1504466" lon="11.8952545"><ele>403.0</ele><time>2026-04-19T09:15:00.038Z</time></trkpt><trkpt lat="42.1503726" lon="11.8952118"><ele>403.00000000000006</ele><time>2026-04-19T09:15:03.035Z</time></trkpt><trkpt lat="42.1503916" lon="11.8953106"><ele>403.0</ele><time>2026-04-19T09:15:07.035Z</time></trkpt><trkpt lat="42.150459" lon="11.8953163"><ele>403.0</ele><time>2026-04-19T09:15:09.046Z</time></trkpt><trkpt lat="42.1505703" lon="11.8954136"><ele>403.0</ele><time>2026-04-19T09:23:54.027Z</time></trkpt><trkpt lat="42.1506444" lon="11.8954545"><ele>403.00000000000006</ele><time>2026-04-19T09:23:57.05Z</time></trkpt><trkpt lat="42.1507175" lon="11.8954433"><ele>403.0</ele><time>2026-04-19T09:24:00.041Z</time></trkpt><trkpt lat="42.1506766" lon="11.8953382"><ele>403.0</ele><time>2026-04-19T09:24:04.045Z</time></trkpt><trkpt lat="42.1505907" lon="11.8952676"><ele>403.0</ele><time>2026-04-19T09:24:06.046Z</time></trkpt><trkpt lat="42.1505006" lon="11.8951921"><ele>403.0</ele><time>2026-04-19T09:24:08.042Z</time></trkpt><trkpt lat="42.1503969" lon="11.8951018"><ele>403.0</ele><time>2026-04-19T09:24:10.042Z</time></trkpt><trkpt lat="42.15029" lon="11.8950083"><ele>404.33333333333337</ele><time>2026-04-19T09:24:12.038Z</time></trkpt><trkpt lat="42.1502298" lon="11.8949603"><ele>405.6666666666667</ele><time>2026-04-19T09:24:13.041Z</time></trkpt><trkpt lat="42.1501663" lon="11.8949085"><ele>407.0</ele><time>2026-04-19T09:24:14.046Z</time></trkpt><trkpt lat="42.1500951" lon="11.8948497"><ele>408.33333333333337</ele><time>2026-04-19T09:24:15.046Z</time></trkpt><trkpt lat="42.1500182" lon="11.894796"><ele>409.6666666666667</ele><time>2026-04-19T09:24:16.055Z</time></trkpt><trkpt lat="42.1499425" lon="11.8947511"><ele>411.0</ele><time>2026-04-19T09:24:17.041Z</time></trkpt><trkpt lat="42.149867" lon="11.8947058"><ele>411.0</ele><time>2026-04-19T09:24:18.038Z</time></trkpt><trkpt lat="42.1497938" lon="11.894658"><ele>411.0</ele><time>2026-04-19T09:24:19.044Z</time></trkpt><trkpt lat="42.1497159" lon="11.8946127"><ele>411.0</ele><time>2026-04-19T09:24:20.038Z</time></trkpt><trkpt lat="42.1496374" lon="11.8945689"><ele>411.0</ele><time>2026-04-19T09:24:21.04Z</time></trkpt><trkpt lat="42.1495631" lon="11.8945179"><ele>411.0</ele><time>2026-04-19T09:24:22.041Z</time></trkpt><trkpt lat="42.1494959" lon="11.8944488"><ele>411.0</ele><time>2026-04-19T09:24:23.048Z</time></trkpt><trkpt lat="42.1494345" lon="11.894361"><ele>411.0</ele><time>2026-04-19T09:24:24.043Z</time></trkpt><trkpt lat="42.1493814" lon="11.8942587"><ele>411.0</ele><time>2026-04-19T09:24:25.041Z</time></trkpt><trkpt lat="42.1493274" lon="11.894155"><ele>411.0</ele><time>2026-04-19T09:24:26.041Z</time></trkpt><trkpt lat="42.1492705" lon="11.8940426"><ele>411.0</ele><time>2026-04-19T09:24:27.045Z</time></trkpt><trkpt lat="42.1492136" lon="11.8939392"><ele>411.0</ele><time>2026-04-19T09:24:28.035Z</time></trkpt><trkpt lat="42.1491551" lon="11.8938288"><ele>411.6</ele><time>2026-04-19T09:24:29.05Z</time></trkpt><trkpt lat="42.1490967" lon="11.8937169"><ele>412.20000000000005</ele><time>2026-04-19T09:24:30.04Z</time></trkpt><trkpt lat="42.1490364" lon="11.8936028"><ele>412.79999999999995</ele><time>2026-04-19T09:24:31.038Z</time></trkpt><trkpt lat="42.1489683" lon="11.8934838"><ele>413.4</ele><time>2026-04-19T09:24:32.04Z</time></trkpt><trkpt lat="42.1488975" lon="11.8933676"><ele>414.0</ele><time>2026-04-19T09:24:33.043Z</time></trkpt><trkpt lat="42.14882" lon="11.893275"><ele>410.79999999999995</ele><time>2026-04-19T09:24:34.048Z</time></trkpt><trkpt lat="42.1487381" lon="11.8932103"><ele>407.59999999999997</ele><time>2026-04-19T09:24:35.039Z</time></trkpt><trkpt lat="42.1486438" lon="11.8931771"><ele>404.4</ele><time>2026-04-19T09:24:36.036Z</time></trkpt><trkpt lat="42.1485435" lon="11.8931847"><ele>401.2</ele><time>2026-04-19T09:24:37.035Z</time></trkpt><trkpt lat="42.1484438" lon="11.8932114"><ele>398.0</ele><time>2026-04-19T09:24:38.042Z</time></trkpt><trkpt lat="42.1483426" lon="11.8932527"><ele>398.0</ele><time>2026-04-19T09:24:39.031Z</time></trkpt><trkpt lat="42.1482457" lon="11.8932914"><ele>398.0</ele><time>2026-04-19T09:24:40.033Z</time></trkpt><trkpt lat="42.1481576" lon="11.8933616"><ele>398.0</ele><time>2026-04-19T09:24:41.042Z</time></trkpt><trkpt lat="42.1480727" lon="11.8934195"><ele>398.0</ele><time>2026-04-19T09:24:42.037Z</time></trkpt><trkpt lat="42.1479933" lon="11.893439"><ele>398.0</ele><time>2026-04-19T09:24:43.039Z</time></trkpt><trkpt lat="42.1479196" lon="11.893419"><ele>398.3333333333333</ele><time>2026-04-19T09:24:44.04Z</time></trkpt><trkpt lat="42.147855" lon="11.8933623"><ele>398.66666666666663</ele><time>2026-04-19T09:24:45.052Z</time></trkpt><trkpt lat="42.1477926" lon="11.8932837"><ele>399.0</ele><time>2026-04-19T09:24:46.035Z</time></trkpt><trkpt lat="42.1477232" lon="11.8932041"><ele>399.33333333333337</ele><time>2026-04-19T09:24:47.046Z</time></trkpt><trkpt lat="42.1476571" lon="11.893142"><ele>399.6666666666667</ele><time>2026-04-19T09:24:48.032Z</time></trkpt><trkpt lat="42.1475867" lon="11.8931105"><ele>400.0</ele><time>2026-04-19T09:24:49.045Z</time></trkpt><trkpt lat="42.1475123" lon="11.8931168"><ele>400.0</ele><time>2026-04-19T09:24:50.046Z</time></trkpt><trkpt lat="42.1474344" lon="11.8931511"><ele>400.0</ele><time>2026-04-19T09:24:51.043Z</time></trkpt><trkpt lat="42.1473437" lon="11.8932007"><ele>400.0</ele><time>2026-04-19T09:24:52.039Z</time></trkpt><trkpt lat="42.1472473" lon="11.8932554"><ele>400.0</ele><time>2026-04-19T09:24:53.048Z</time></trkpt><trkpt lat="42.1471429" lon="11.8933116"><ele>400.0</ele><time>2026-04-19T09:24:54.035Z</time></trkpt><trkpt lat="42.1470364" lon="11.8933654"><ele>399.8</ele><time>2026-04-19T09:24:55.045Z</time></trkpt><trkpt lat="42.1469227" lon="11.8933734"><ele>399.6</ele><time>2026-04-19T09:24:56.032Z</time></trkpt><trkpt lat="42.1468117" lon="11.8933585"><ele>399.4</ele><time>2026-04-19T09:24:57.036Z</time></trkpt><trkpt lat="42.1467012" lon="11.893331"><ele>399.2</ele><time>2026-04-19T09:24:58.041Z</time></trkpt><trkpt lat="42.146598" lon="11.8932849"><ele>399.0</ele><time>2026-04-19T09:24:59.055Z</time></trkpt><trkpt lat="42.1464946" lon="11.8932246"><ele>401.4</ele><time>2026-04-19T09:25:00.045Z</time></trkpt><trkpt lat="42.1463996" lon="11.8931669"><ele>403.79999999999995</ele><time>2026-04-19T09:25:01.035Z</time></trkpt><trkpt lat="42.1463098" lon="11.8931065"><ele>406.20000000000005</ele><time>2026-04-19T09:25:02.034Z</time></trkpt><trkpt lat="42.1462249" lon="11.8930491"><ele>408.6</ele><time>2026-04-19T09:25:03.037Z</time></trkpt><trkpt lat="42.1461765" lon="11.8929431"><ele>411.0</ele><time>2026-04-19T09:25:04.04Z</time></trkpt><trkpt lat="42.1461268" lon="11.8928303"><ele>411.0</ele><time>2026-04-19T09:25:05.037Z</time></trkpt><trkpt lat="42.1461147" lon="11.8926849"><ele>411.0</ele><time>2026-04-19T09:25:06.033Z</time></trkpt><trkpt lat="42.1461089" lon="11.892536"><ele>411.0</ele><time>2026-04-19T09:25:07.039Z</time></trkpt><trkpt lat="42.1460992" lon="11.8923831"><ele>411.0</ele><time>2026-04-19T09:25:08.044Z</time></trkpt><trkpt lat="42.1460976" lon="11.8922359"><ele>411.0</ele><time>2026-04-19T09:25:09.043Z</time></trkpt><trkpt lat="42.1461158" lon="11.8920909"><ele>411.20000000000005</ele><time>2026-04-19T09:25:10.031Z</time></trkpt><trkpt lat="42.146141" lon="11.8919486"><ele>411.40000000000003</ele><time>2026-04-19T09:25:11.033Z</time></trkpt><trkpt lat="42.1461487" lon="11.8918164"><ele>411.6</ele><time>2026-04-19T09:25:12.036Z</time></trkpt><trkpt lat="42.1461325" lon="11.8916923"><ele>411.8</ele><time>2026-04-19T09:25:13.039Z</time></trkpt><trkpt lat="42.1460975" lon="11.8915638"><ele>412.0</ele><time>2026-04-19T09:25:14.031Z</time></trkpt><trkpt lat="42.1460627" lon="11.8914335"><ele>412.8</ele><time>2026-04-19T09:25:15.041Z</time></trkpt><trkpt lat="42.1460075" lon="11.8913077"><ele>413.6</ele><time>2026-04-19T09:25:16.035Z</time></trkpt><trkpt lat="42.1459541" lon="11.8911873"><ele>414.40000000000003</ele><time>2026-04-19T09:25:17.03Z</time></trkpt><trkpt lat="42.1459207" lon="11.8910505"><ele>415.20000000000005</ele><time>2026-04-19T09:25:18.033Z</time></trkpt><trkpt lat="42.1458976" lon="11.8909203"><ele>416.0</ele><time>2026-04-19T09:25:19.036Z</time></trkpt><trkpt lat="42.1459023" lon="11.8907929"><ele>416.0</ele><time>2026-04-19T09:25:20.036Z</time></trkpt><trkpt lat="42.1459076" lon="11.8906518"><ele>416.0</ele><time>2026-04-19T09:25:21.033Z</time></trkpt><trkpt lat="42.1459018" lon="11.8905212"><ele>416.0</ele><time>2026-04-19T09:25:22.035Z</time></trkpt><trkpt lat="42.1458951" lon="11.8904104"><ele>416.0</ele><time>2026-04-19T09:25:23.04Z</time></trkpt><trkpt lat="42.1458937" lon="11.8902954"><ele>416.0</ele><time>2026-04-19T09:25:24.031Z</time></trkpt><trkpt lat="42.1458936" lon="11.8901574"><ele>416.0</ele><time>2026-04-19T09:25:25.039Z</time></trkpt><trkpt lat="42.1459034" lon="11.8900165"><ele>416.0</ele><time>2026-04-19T09:25:26.033Z</time></trkpt><trkpt lat="42.1459089" lon="11.8898662"><ele>416.0</ele><time>2026-04-19T09:25:27.035Z</time></trkpt><trkpt lat="42.1459151" lon="11.889713"><ele>416.0</ele><time>2026-04-19T09:25:28.033Z</time></trkpt><trkpt lat="42.1459176" lon="11.88954"><ele>416.0</ele><time>2026-04-19T09:25:29.045Z</time></trkpt><trkpt lat="42.1459221" lon="11.8893745"><ele>416.0</ele><time>2026-04-19T09:25:30.04Z</time></trkpt><trkpt lat="42.1459107" lon="11.8891998"><ele>416.0</ele><time>2026-04-19T09:25:31.029Z</time></trkpt><trkpt lat="42.1458998" lon="11.8890324"><ele>416.0</ele><time>2026-04-19T09:25:32.032Z</time></trkpt><trkpt lat="42.145886" lon="11.8888717"><ele>415.4</ele><time>2026-04-19T09:25:33.035Z</time></trkpt><trkpt lat="42.1458719" lon="11.8887203"><ele>414.8</ele><time>2026-04-19T09:25:34.031Z</time></trkpt><trkpt lat="42.1458545" lon="11.8885753"><ele>414.2</ele><time>2026-04-19T09:25:35.041Z</time></trkpt><trkpt lat="42.1458379" lon="11.8884294"><ele>413.59999999999997</ele><time>2026-04-19T09:25:36.041Z</time></trkpt><trkpt lat="42.1458154" lon="11.8882931"><ele>413.0</ele><time>2026-04-19T09:25:37.039Z</time></trkpt><trkpt lat="42.1457958" lon="11.8881701"><ele>411.99999999999994</ele><time>2026-04-19T09:25:38.033Z</time></trkpt><trkpt lat="42.1457684" lon="11.8880595"><ele>411.0</ele><time>2026-04-19T09:25:39.042Z</time></trkpt><trkpt lat="42.1457241" lon="11.8879705"><ele>410.0</ele><time>2026-04-19T09:25:40.035Z</time></trkpt><trkpt lat="42.1456734" lon="11.8879051"><ele>409.0</ele><time>2026-04-19T09:25:41.045Z</time></trkpt><trkpt lat="42.1455953" lon="11.8878846"><ele>407.99999999999994</ele><time>2026-04-19T09:25:42.032Z</time></trkpt><trkpt lat="42.1455013" lon="11.8878952"><ele>407.0</ele><time>2026-04-19T09:25:43.04Z</time></trkpt><trkpt lat="42.1453943" lon="11.8879091"><ele>411.20000000000005</ele><time>2026-04-19T09:25:44.052Z</time></trkpt><trkpt lat="42.1452824" lon="11.8879094"><ele>415.4</ele><time>2026-04-19T09:25:45.043Z</time></trkpt><trkpt lat="42.1451739" lon="11.8879189"><ele>419.59999999999997</ele><time>2026-04-19T09:25:46.034Z</time></trkpt><trkpt lat="42.1450699" lon="11.8879357"><ele>423.79999999999995</ele><time>2026-04-19T09:25:47.037Z</time></trkpt><trkpt lat="42.1449693" lon="11.8879589"><ele>428.0</ele><time>2026-04-19T09:25:48.045Z</time></trkpt><trkpt lat="42.1448839" lon="11.8879762"><ele>429.16666666666663</ele><time>2026-04-19T09:25:49.033Z</time></trkpt><trkpt lat="42.1447957" lon="11.8879773"><ele>430.3333333333333</ele><time>2026-04-19T09:25:50.055Z</time></trkpt><trkpt lat="42.144731" lon="11.8879589"><ele>431.5</ele><time>2026-04-19T09:25:51.042Z</time></trkpt><trkpt lat="42.1446729" lon="11.8879052"><ele>432.66666666666663</ele><time>2026-04-19T09:25:52.034Z</time></trkpt><trkpt lat="42.1446478" lon="11.8877991"><ele>433.8333333333333</ele><time>2026-04-19T09:25:53.034Z</time></trkpt><trkpt lat="42.1446479" lon="11.8876615"><ele>435.0</ele><time>2026-04-19T09:25:54.037Z</time></trkpt><trkpt lat="42.1446358" lon="11.8875188"><ele>435.0</ele><time>2026-04-19T09:25:55.049Z</time></trkpt><trkpt lat="42.1446272" lon="11.887368"><ele>435.0</ele><time>2026-04-19T09:25:56.044Z</time></trkpt><trkpt lat="42.1446215" lon="11.8872417"><ele>435.0</ele><time>2026-04-19T09:25:57.048Z</time></trkpt><trkpt lat="42.1445932" lon="11.8871297"><ele>435.0</ele><time>2026-04-19T09:25:58.041Z</time></trkpt><trkpt lat="42.144561" lon="11.8870384"><ele>435.0</ele><time>2026-04-19T09:25:59.043Z</time></trkpt><trkpt lat="42.1444986" lon="11.8869732"><ele>435.0</ele><time>2026-04-19T09:26:00.048Z</time></trkpt><trkpt lat="42.1444112" lon="11.8869471"><ele>435.0</ele><time>2026-04-19T09:26:01.034Z</time></trkpt><trkpt lat="42.14432" lon="11.8869585"><ele>435.0</ele><time>2026-04-19T09:26:02.035Z</time></trkpt><trkpt lat="42.1442337" lon="11.8869479"><ele>435.0</ele><time>2026-04-19T09:26:03.033Z</time></trkpt><trkpt lat="42.1441564" lon="11.8869057"><ele>435.0</ele><time>2026-04-19T09:26:04.044Z</time></trkpt><trkpt lat="42.1440922" lon="11.8868629"><ele>435.0</ele><time>2026-04-19T09:26:05.04Z</time></trkpt><trkpt lat="42.144041" lon="11.8868028"><ele>435.0</ele><time>2026-04-19T09:26:06.031Z</time></trkpt><trkpt lat="42.1439923" lon="11.886727"><ele>435.2</ele><time>2026-04-19T09:26:07.042Z</time></trkpt><trkpt lat="42.1439484" lon="11.8866295"><ele>435.4</ele><time>2026-04-19T09:26:08.034Z</time></trkpt><trkpt lat="42.143926" lon="11.8865067"><ele>435.6</ele><time>2026-04-19T09:26:09.04Z</time></trkpt><trkpt lat="42.1439015" lon="11.8863753"><ele>435.8</ele><time>2026-04-19T09:26:10.038Z</time></trkpt><trkpt lat="42.1439363" lon="11.8862284"><ele>436.0</ele><time>2026-04-19T09:26:11.035Z</time></trkpt><trkpt lat="42.1439993" lon="11.8860882"><ele>432.8</ele><time>2026-04-19T09:26:12.043Z</time></trkpt><trkpt lat="42.1440694" lon="11.8859506"><ele>429.6</ele><time>2026-04-19T09:26:13.034Z</time></trkpt><trkpt lat="42.1441328" lon="11.8858457"><ele>426.4</ele><time>2026-04-19T09:26:14.036Z</time></trkpt><trkpt lat="42.1441885" lon="11.885754"><ele>423.2</ele><time>2026-04-19T09:26:15.041Z</time></trkpt><trkpt lat="42.1442405" lon="11.8856392"><ele>420.0</ele><time>2026-04-19T09:26:17.029Z</time></trkpt><trkpt lat="42.1441668" lon="11.8857415"><ele>419.6666666666667</ele><time>2026-04-19T09:26:22.034Z</time></trkpt><trkpt lat="42.1441316" lon="11.8858216"><ele>419.33333333333337</ele><time>2026-04-19T09:26:23.03Z</time></trkpt><trkpt lat="42.1440811" lon="11.8859063"><ele>419.0</ele><time>2026-04-19T09:26:24.038Z</time></trkpt><trkpt lat="42.1440271" lon="11.885997"><ele>418.6666666666667</ele><time>2026-04-19T09:26:25.037Z</time></trkpt><trkpt lat="42.143976" lon="11.886098"><ele>418.33333333333337</ele><time>2026-04-19T09:26:26.038Z</time></trkpt><trkpt lat="42.1439202" lon="11.8862134"><ele>418.0</ele><time>2026-04-19T09:26:27.033Z</time></trkpt><trkpt lat="42.1438947" lon="11.886359"><ele>421.59999999999997</ele><time>2026-04-19T09:26:28.046Z</time></trkpt><trkpt lat="42.1438983" lon="11.8865001"><ele>425.2</ele><time>2026-04-19T09:26:29.038Z</time></trkpt><trkpt lat="42.1439186" lon="11.8866159"><ele>428.8</ele><time>2026-04-19T09:26:30.037Z</time></trkpt><trkpt lat="42.1439464" lon="11.8867091"><ele>432.4</ele><time>2026-04-19T09:26:31.034Z</time></trkpt><trkpt lat="42.1439597" lon="11.8868294"><ele>436.0</ele><time>2026-04-19T09:26:33.033Z</time></trkpt><trkpt lat="42.1438698" lon="11.8867856"><ele>436.00000000000006</ele><time>2026-04-19T09:26:37.039Z</time></trkpt><trkpt lat="42.1438374" lon="11.8867075"><ele>436.0</ele><time>2026-04-19T09:26:38.038Z</time></trkpt><trkpt lat="42.1438102" lon="11.8866188"><ele>436.0</ele><time>2026-04-19T09:26:39.037Z</time></trkpt><trkpt lat="42.1437783" lon="11.8865261"><ele>436.0</ele><time>2026-04-19T09:26:40.032Z</time></trkpt><trkpt lat="42.1437442" lon="11.8864413"><ele>436.00000000000006</ele><time>2026-04-19T09:26:41.037Z</time></trkpt><trkpt lat="42.1436981" lon="11.8863563"><ele>436.0</ele><time>2026-04-19T09:26:42.038Z</time></trkpt><trkpt lat="42.1436339" lon="11.8862694"><ele>436.00000000000006</ele><time>2026-04-19T09:26:43.046Z</time></trkpt><trkpt lat="42.1435599" lon="11.8861784"><ele>436.0</ele><time>2026-04-19T09:26:44.039Z</time></trkpt><trkpt lat="42.1434973" lon="11.8860808"><ele>436.0</ele><time>2026-04-19T09:26:45.042Z</time></trkpt><trkpt lat="42.143438" lon="11.8859818"><ele>436.0</ele><time>2026-04-19T09:26:46.036Z</time></trkpt><trkpt lat="42.1434037" lon="11.8858994"><ele>436.00000000000006</ele><time>2026-04-19T09:26:47.042Z</time></trkpt><trkpt lat="42.1433313" lon="11.8858431"><ele>436.0</ele><time>2026-04-19T09:26:49.038Z</time></trkpt><trkpt lat="42.1432796" lon="11.8859447"><ele>436.0</ele><time>2026-04-19T09:26:52.04Z</time></trkpt><trkpt lat="42.1432768" lon="11.8860939"><ele>436.0</ele><time>2026-04-19T09:26:54.037Z</time></trkpt><trkpt lat="42.1432741" lon="11.8862564"><ele>436.0</ele><time>2026-04-19T09:26:56.034Z</time></trkpt><trkpt lat="42.1432742" lon="11.886342"><ele>436.0</ele><time>2026-04-19T09:26:57.037Z</time></trkpt><trkpt lat="42.1432744" lon="11.886433"><ele>436.0</ele><time>2026-04-19T09:26:58.04Z</time></trkpt><trkpt lat="42.143289" lon="11.8866072"><ele>436.00000000000006</ele><time>2026-04-19T09:27:00.035Z</time></trkpt><trkpt lat="42.1432993" lon="11.8866959"><ele>436.0</ele><time>2026-04-19T09:27:01.037Z</time></trkpt><trkpt lat="42.1433075" lon="11.8867899"><ele>436.0</ele><time>2026-04-19T09:27:02.049Z</time></trkpt><trkpt lat="42.1433175" lon="11.8868742"><ele>436.0</ele><time>2026-04-19T09:27:03.041Z</time></trkpt><trkpt lat="42.1433273" lon="11.886962"><ele>436.00000000000006</ele><time>2026-04-19T09:27:04.047Z</time></trkpt><trkpt lat="42.1433532" lon="11.8871147"><ele>436.0</ele><time>2026-04-19T09:27:06.044Z</time></trkpt><trkpt lat="42.1433938" lon="11.8872457"><ele>438.6</ele><time>2026-04-19T09:27:08.042Z</time></trkpt><trkpt lat="42.1434561" lon="11.8873662"><ele>441.20000000000005</ele><time>2026-04-19T09:27:10.042Z</time></trkpt><trkpt lat="42.143515" lon="11.8874977"><ele>443.79999999999995</ele><time>2026-04-19T09:27:12.04Z</time></trkpt><trkpt lat="42.1435418" lon="11.8875752"><ele>446.4</ele><time>2026-04-19T09:27:13.034Z</time></trkpt><trkpt lat="42.1435684" lon="11.8876531"><ele>449.0</ele><time>2026-04-19T09:27:14.042Z</time></trkpt><trkpt lat="42.143608" lon="11.8878051"><ele>450.0</ele><time>2026-04-19T09:27:16.042Z</time></trkpt><trkpt lat="42.1436184" lon="11.8879752"><ele>451.0</ele><time>2026-04-19T09:27:18.044Z</time></trkpt><trkpt lat="42.1436105" lon="11.8880835"><ele>452.0</ele><time>2026-04-19T09:27:19.036Z</time></trkpt><trkpt lat="42.1435967" lon="11.8881961"><ele>453.0</ele><time>2026-04-19T09:27:20.039Z</time></trkpt><trkpt lat="42.1435797" lon="11.8883115"><ele>454.0</ele><time>2026-04-19T09:27:21.05Z</time></trkpt><trkpt lat="42.1435708" lon="11.8884309"><ele>454.79999999999995</ele><time>2026-04-19T09:27:22.041Z</time></trkpt><trkpt lat="42.1435699" lon="11.8885501"><ele>455.59999999999997</ele><time>2026-04-19T09:27:23.039Z</time></trkpt><trkpt lat="42.1435706" lon="11.8886519"><ele>456.4</ele><time>2026-04-19T09:27:24.041Z</time></trkpt><trkpt lat="42.1435878" lon="11.8888069"><ele>457.2</ele><time>2026-04-19T09:27:26.037Z</time></trkpt><trkpt lat="42.1436615" lon="11.8888906"><ele>458.0</ele><time>2026-04-19T09:27:28.036Z</time></trkpt><trkpt lat="42.1437661" lon="11.8889278"><ele>458.0</ele><time>2026-04-19T09:27:30.034Z</time></trkpt><trkpt lat="42.1438294" lon="11.8889341"><ele>458.0</ele><time>2026-04-19T09:27:31.051Z</time></trkpt><trkpt lat="42.1438999" lon="11.8889464"><ele>458.0</ele><time>2026-04-19T09:27:32.038Z</time></trkpt><trkpt lat="42.1439689" lon="11.8889535"><ele>458.0</ele><time>2026-04-19T09:27:33.039Z</time></trkpt><trkpt lat="42.1440431" lon="11.8889586"><ele>458.0</ele><time>2026-04-19T09:27:34.036Z</time></trkpt><trkpt lat="42.1441207" lon="11.8889863"><ele>458.0</ele><time>2026-04-19T09:27:35.039Z</time></trkpt><trkpt lat="42.1441946" lon="11.8890303"><ele>458.0</ele><time>2026-04-19T09:27:36.037Z</time></trkpt><trkpt lat="42.1442622" lon="11.8890891"><ele>456.8333333333333</ele><time>2026-04-19T09:27:37.036Z</time></trkpt><trkpt lat="42.1443267" lon="11.8891438"><ele>455.66666666666663</ele><time>2026-04-19T09:27:38.03Z</time></trkpt><trkpt lat="42.1443949" lon="11.8891891"><ele>454.5</ele><time>2026-04-19T09:27:39.03Z</time></trkpt><trkpt lat="42.1444661" lon="11.8892237"><ele>453.33333333333337</ele><time>2026-04-19T09:27:40.033Z</time></trkpt><trkpt lat="42.1445448" lon="11.8892445"><ele>452.1666666666667</ele><time>2026-04-19T09:27:41.03Z</time></trkpt><trkpt lat="42.1446227" lon="11.8892442"><ele>451.0</ele><time>2026-04-19T09:27:42.043Z</time></trkpt><trkpt lat="42.1447006" lon="11.8892512"><ele>451.1666666666667</ele><time>2026-04-19T09:27:43.042Z</time></trkpt><trkpt lat="42.1448168" lon="11.8892991"><ele>451.33333333333337</ele><time>2026-04-19T09:27:45.039Z</time></trkpt><trkpt lat="42.1448686" lon="11.8893687"><ele>451.5</ele><time>2026-04-19T09:27:46.037Z</time></trkpt><trkpt lat="42.1449136" lon="11.8894537"><ele>451.66666666666663</ele><time>2026-04-19T09:27:47.041Z</time></trkpt><trkpt lat="42.1449636" lon="11.8895305"><ele>451.8333333333333</ele><time>2026-04-19T09:27:48.034Z</time></trkpt><trkpt lat="42.1450015" lon="11.8896259"><ele>452.0</ele><time>2026-04-19T09:27:49.037Z</time></trkpt><trkpt lat="42.1450349" lon="11.8897145"><ele>451.99999999999994</ele><time>2026-04-19T09:27:50.039Z</time></trkpt><trkpt lat="42.1450255" lon="11.8898165"><ele>452.0</ele><time>2026-04-19T09:27:51.036Z</time></trkpt><trkpt lat="42.145028" lon="11.8899154"><ele>452.0</ele><time>2026-04-19T09:27:52.046Z</time></trkpt><trkpt lat="42.1450102" lon="11.8900228"><ele>452.0</ele><time>2026-04-19T09:27:53.063Z</time></trkpt><trkpt lat="42.1449775" lon="11.8901382"><ele>451.99999999999994</ele><time>2026-04-19T09:27:54.048Z</time></trkpt><trkpt lat="42.1449489" lon="11.8902517"><ele>452.0</ele><time>2026-04-19T09:27:55.043Z</time></trkpt><trkpt lat="42.1449189" lon="11.8903729"><ele>457.40000000000003</ele><time>2026-04-19T09:27:56.046Z</time></trkpt><trkpt lat="42.1448749" lon="11.8904895"><ele>462.80000000000007</ele><time>2026-04-19T09:27:57.04Z</time></trkpt><trkpt lat="42.1448312" lon="11.8906041"><ele>468.2</ele><time>2026-04-19T09:27:58.044Z</time></trkpt><trkpt lat="42.1447885" lon="11.8907163"><ele>473.6</ele><time>2026-04-19T09:27:59.045Z</time></trkpt><trkpt lat="42.1447425" lon="11.8908204"><ele>479.0</ele><time>2026-04-19T09:28:00.044Z</time></trkpt><trkpt lat="42.1447007" lon="11.8909229"><ele>479.8333333333333</ele><time>2026-04-19T09:28:01.049Z</time></trkpt><trkpt lat="42.1446624" lon="11.8910192"><ele>480.66666666666663</ele><time>2026-04-19T09:28:02.039Z</time></trkpt><trkpt lat="42.1446259" lon="11.8911226"><ele>481.5</ele><time>2026-04-19T09:28:03.044Z</time></trkpt><trkpt lat="42.1445955" lon="11.891225"><ele>482.33333333333337</ele><time>2026-04-19T09:28:04.036Z</time></trkpt><trkpt lat="42.1445571" lon="11.891337"><ele>483.1666666666667</ele><time>2026-04-19T09:28:05.043Z</time></trkpt><trkpt lat="42.1445248" lon="11.8914635"><ele>484.0</ele><time>2026-04-19T09:28:06.039Z</time></trkpt><trkpt lat="42.1445108" lon="11.891596"><ele>484.00000000000006</ele><time>2026-04-19T09:28:07.033Z</time></trkpt><trkpt lat="42.1444963" lon="11.8917241"><ele>484.0</ele><time>2026-04-19T09:28:08.033Z</time></trkpt><trkpt lat="42.1444863" lon="11.8918369"><ele>484.0</ele><time>2026-04-19T09:28:09.047Z</time></trkpt><trkpt lat="42.1444727" lon="11.8919517"><ele>484.0</ele><time>2026-04-19T09:28:10.034Z</time></trkpt><trkpt lat="42.1444569" lon="11.8920617"><ele>484.00000000000006</ele><time>2026-04-19T09:28:11.032Z</time></trkpt><trkpt lat="42.1444492" lon="11.8921828"><ele>484.0</ele><time>2026-04-19T09:28:12.04Z</time></trkpt><trkpt lat="42.1444382" lon="11.8922933"><ele>484.00000000000006</ele><time>2026-04-19T09:28:13.038Z</time></trkpt><trkpt lat="42.1444243" lon="11.8923992"><ele>484.0</ele><time>2026-04-19T09:28:14.039Z</time></trkpt><trkpt lat="42.1444066" lon="11.8925061"><ele>484.0</ele><time>2026-04-19T09:28:15.045Z</time></trkpt><trkpt lat="42.144377" lon="11.8926226"><ele>484.0</ele><time>2026-04-19T09:28:16.037Z</time></trkpt><trkpt lat="42.1443467" lon="11.8927328"><ele>484.00000000000006</ele><time>2026-04-19T09:28:17.036Z</time></trkpt><trkpt lat="42.1443341" lon="11.8928434"><ele>484.0</ele><time>2026-04-19T09:28:18.044Z</time></trkpt><trkpt lat="42.1443206" lon="11.8929388"><ele>482.79999999999995</ele><time>2026-04-19T09:28:19.043Z</time></trkpt><trkpt lat="42.1443049" lon="11.8930293"><ele>481.59999999999997</ele><time>2026-04-19T09:28:20.049Z</time></trkpt><trkpt lat="42.1442591" lon="11.8931792"><ele>480.4</ele><time>2026-04-19T09:28:22.046Z</time></trkpt><trkpt lat="42.144219" lon="11.8933346"><ele>479.2</ele><time>2026-04-19T09:28:24.038Z</time></trkpt><trkpt lat="42.1441957" lon="11.893429"><ele>478.0</ele><time>2026-04-19T09:28:25.045Z</time></trkpt><trkpt lat="42.1441628" lon="11.8935543"><ele>475.79999999999995</ele><time>2026-04-19T09:28:26.052Z</time></trkpt><trkpt lat="42.1441132" lon="11.8936852"><ele>473.59999999999997</ele><time>2026-04-19T09:28:27.043Z</time></trkpt><trkpt lat="42.1440653" lon="11.89382"><ele>471.40000000000003</ele><time>2026-04-19T09:28:28.046Z</time></trkpt><trkpt lat="42.1440101" lon="11.8939502"><ele>469.20000000000005</ele><time>2026-04-19T09:28:29.049Z</time></trkpt><trkpt lat="42.1439586" lon="11.8940853"><ele>467.0</ele><time>2026-04-19T09:28:30.047Z</time></trkpt><trkpt lat="42.1439142" lon="11.8942155"><ele>470.3333333333333</ele><time>2026-04-19T09:28:31.049Z</time></trkpt><trkpt lat="42.1438751" lon="11.8943362"><ele>473.66666666666663</ele><time>2026-04-19T09:28:32.041Z</time></trkpt><trkpt lat="42.143841" lon="11.8944429"><ele>477.0</ele><time>2026-04-19T09:28:33.043Z</time></trkpt><trkpt lat="42.1438063" lon="11.8945374"><ele>480.33333333333337</ele><time>2026-04-19T09:28:34.045Z</time></trkpt><trkpt lat="42.1437781" lon="11.8946394"><ele>483.6666666666667</ele><time>2026-04-19T09:28:35.044Z</time></trkpt><trkpt lat="42.1437649" lon="11.8947562"><ele>487.0</ele><time>2026-04-19T09:28:36.04Z</time></trkpt><trkpt lat="42.1437474" lon="11.8948656"><ele>487.0</ele><time>2026-04-19T09:28:37.046Z</time></trkpt><trkpt lat="42.1437292" lon="11.894955"><ele>487.0</ele><time>2026-04-19T09:28:38.052Z</time></trkpt><trkpt lat="42.1437027" lon="11.8950411"><ele>487.0</ele><time>2026-04-19T09:28:39.051Z</time></trkpt><trkpt lat="42.1436655" lon="11.8951296"><ele>487.0</ele><time>2026-04-19T09:28:40.037Z</time></trkpt><trkpt lat="42.1436058" lon="11.8952108"><ele>487.0</ele><time>2026-04-19T09:28:41.04Z</time></trkpt><trkpt lat="42.1435441" lon="11.8952862"><ele>487.0</ele><time>2026-04-19T09:28:42.035Z</time></trkpt><trkpt lat="42.1434986" lon="11.8953529"><ele>487.0</ele><time>2026-04-19T09:28:43.052Z</time></trkpt><trkpt lat="42.1434679" lon="11.895509"><ele>486.6666666666667</ele><time>2026-04-19T09:28:45.033Z</time></trkpt><trkpt lat="42.1434761" lon="11.8956619"><ele>486.33333333333337</ele><time>2026-04-19T09:28:47.035Z</time></trkpt><trkpt lat="42.1434977" lon="11.8957474"><ele>486.0</ele><time>2026-04-19T09:28:48.046Z</time></trkpt><trkpt lat="42.1435207" lon="11.8958325"><ele>485.66666666666663</ele><time>2026-04-19T09:28:49.05Z</time></trkpt><trkpt lat="42.1435384" lon="11.8959236"><ele>485.3333333333333</ele><time>2026-04-19T09:28:50.045Z</time></trkpt><trkpt lat="42.1435663" lon="11.8960605"><ele>485.0</ele><time>2026-04-19T09:28:52.045Z</time></trkpt><trkpt lat="42.1436432" lon="11.896132"><ele>486.0</ele><time>2026-04-19T09:28:54.046Z</time></trkpt><trkpt lat="42.1437086" lon="11.8961348"><ele>487.0</ele><time>2026-04-19T09:28:55.036Z</time></trkpt><trkpt lat="42.1437834" lon="11.8961238"><ele>488.0</ele><time>2026-04-19T09:28:56.039Z</time></trkpt><trkpt lat="42.143847" lon="11.8961199"><ele>489.0</ele><time>2026-04-19T09:28:57.039Z</time></trkpt><trkpt lat="42.1439667" lon="11.8961337"><ele>490.0</ele><time>2026-04-19T09:28:59.039Z</time></trkpt><trkpt lat="42.1440918" lon="11.8961866"><ele>490.00000000000006</ele><time>2026-04-19T09:29:01.041Z</time></trkpt><trkpt lat="42.1441542" lon="11.8962224"><ele>490.0</ele><time>2026-04-19T09:29:02.036Z</time></trkpt><trkpt lat="42.1442154" lon="11.8962656"><ele>490.0</ele><time>2026-04-19T09:29:03.051Z</time></trkpt><trkpt lat="42.1442823" lon="11.8963257"><ele>490.0</ele><time>2026-04-19T09:29:04.041Z</time></trkpt><trkpt lat="42.1443505" lon="11.8963808"><ele>490.00000000000006</ele><time>2026-04-19T09:29:05.037Z</time></trkpt><trkpt lat="42.1444197" lon="11.8964387"><ele>490.0</ele><time>2026-04-19T09:29:06.042Z</time></trkpt><trkpt lat="42.1444919" lon="11.8964962"><ele>490.00000000000006</ele><time>2026-04-19T09:29:07.052Z</time></trkpt><trkpt lat="42.1445527" lon="11.8965641"><ele>490.0</ele><time>2026-04-19T09:29:08.036Z</time></trkpt><trkpt lat="42.1446105" lon="11.8966237"><ele>490.0</ele><time>2026-04-19T09:29:09.047Z</time></trkpt><trkpt lat="42.1446804" lon="11.8967166"><ele>490.0</ele><time>2026-04-19T09:29:11.044Z</time></trkpt><trkpt lat="42.1447043" lon="11.8968137"><ele>490.00000000000006</ele><time>2026-04-19T09:29:35.067Z</time></trkpt><trkpt lat="42.1446996" lon="11.8969595"><ele>490.0</ele><time>2026-04-19T09:29:37.041Z</time></trkpt><trkpt lat="42.1446618" lon="11.8970496"><ele>490.6666666666667</ele><time>2026-04-19T09:29:38.052Z</time></trkpt><trkpt lat="42.1446246" lon="11.8971391"><ele>491.33333333333337</ele><time>2026-04-19T09:29:39.045Z</time></trkpt><trkpt lat="42.1445679" lon="11.8972078"><ele>492.0</ele><time>2026-04-19T09:29:40.044Z</time></trkpt><trkpt lat="42.1444961" lon="11.8972655"><ele>492.66666666666663</ele><time>2026-04-19T09:29:41.048Z</time></trkpt><trkpt lat="42.1444203" lon="11.8973213"><ele>493.3333333333333</ele><time>2026-04-19T09:29:42.047Z</time></trkpt><trkpt lat="42.1443518" lon="11.897377"><ele>494.0</ele><time>2026-04-19T09:29:43.041Z</time></trkpt><trkpt lat="42.1443077" lon="11.8974536"><ele>493.99999999999994</ele><time>2026-04-19T09:29:44.043Z</time></trkpt><trkpt lat="42.1442842" lon="11.8975454"><ele>494.0</ele><time>2026-04-19T09:29:45.04Z</time></trkpt><trkpt lat="42.1442631" lon="11.8976407"><ele>494.0</ele><time>2026-04-19T09:29:46.038Z</time></trkpt><trkpt lat="42.1442969" lon="11.8977635"><ele>494.0</ele><time>2026-04-19T09:29:47.045Z</time></trkpt><trkpt lat="42.1443278" lon="11.8978807"><ele>493.99999999999994</ele><time>2026-04-19T09:29:48.044Z</time></trkpt><trkpt lat="42.1443406" lon="11.897992"><ele>494.0</ele><time>2026-04-19T09:29:49.049Z</time></trkpt><trkpt lat="42.1443523" lon="11.8980872"><ele>494.42857142857144</ele><time>2026-04-19T09:29:50.038Z</time></trkpt><trkpt lat="42.1443971" lon="11.8981568"><ele>494.85714285714283</ele><time>2026-04-19T09:29:51.049Z</time></trkpt><trkpt lat="42.1444425" lon="11.8982195"><ele>495.2857142857143</ele><time>2026-04-19T09:29:52.048Z</time></trkpt><trkpt lat="42.1445029" lon="11.8982881"><ele>495.7142857142857</ele><time>2026-04-19T09:29:54.054Z</time></trkpt><trkpt lat="42.1444234" lon="11.8983183"><ele>496.1428571428571</ele><time>2026-04-19T09:29:57.048Z</time></trkpt><trkpt lat="42.1443619" lon="11.8982924"><ele>496.57142857142856</ele><time>2026-04-19T09:29:58.047Z</time></trkpt><trkpt lat="42.1442936" lon="11.8982431"><ele>497.0</ele><time>2026-04-19T09:29:59.048Z</time></trkpt><trkpt lat="42.1442215" lon="11.8981804"><ele>496.99999999999994</ele><time>2026-04-19T09:30:00.042Z</time></trkpt><trkpt lat="42.1441459" lon="11.8981157"><ele>497.0</ele><time>2026-04-19T09:30:01.046Z</time></trkpt><trkpt lat="42.1440696" lon="11.8980496"><ele>497.0</ele><time>2026-04-19T09:30:02.048Z</time></trkpt><trkpt lat="42.1439951" lon="11.8979847"><ele>497.0</ele><time>2026-04-19T09:30:03.037Z</time></trkpt><trkpt lat="42.1439298" lon="11.8979217"><ele>496.99999999999994</ele><time>2026-04-19T09:30:04.039Z</time></trkpt><trkpt lat="42.1438635" lon="11.8978587"><ele>497.0</ele><time>2026-04-19T09:30:05.047Z</time></trkpt><trkpt lat="42.1437905" lon="11.8977949"><ele>497.6</ele><time>2026-04-19T09:30:06.042Z</time></trkpt><trkpt lat="42.1437135" lon="11.8977344"><ele>498.20000000000005</ele><time>2026-04-19T09:30:07.038Z</time></trkpt><trkpt lat="42.1436219" lon="11.8976823"><ele>498.8</ele><time>2026-04-19T09:30:08.038Z</time></trkpt><trkpt lat="42.1435224" lon="11.897645"><ele>499.4</ele><time>2026-04-19T09:30:09.039Z</time></trkpt><trkpt lat="42.1434239" lon="11.8976274"><ele>500.0</ele><time>2026-04-19T09:30:10.036Z</time></trkpt><trkpt lat="42.1433233" lon="11.8976115"><ele>500.0</ele><time>2026-04-19T09:30:11.046Z</time></trkpt><trkpt lat="42.143215" lon="11.8976474"><ele>500.0</ele><time>2026-04-19T09:30:12.049Z</time></trkpt><trkpt lat="42.1431081" lon="11.8977017"><ele>500.0</ele><time>2026-04-19T09:30:13.046Z</time></trkpt><trkpt lat="42.1430055" lon="11.8977764"><ele>500.0</ele><time>2026-04-19T09:30:14.037Z</time></trkpt><trkpt lat="42.1429102" lon="11.8978723"><ele>498.0</ele><time>2026-04-19T09:30:15.036Z</time></trkpt><trkpt lat="42.142823" lon="11.8979892"><ele>496.0</ele><time>2026-04-19T09:30:16.042Z</time></trkpt><trkpt lat="42.142745" lon="11.8981146"><ele>494.0</ele><time>2026-04-19T09:30:17.051Z</time></trkpt><trkpt lat="42.142675" lon="11.8982348"><ele>492.0</ele><time>2026-04-19T09:30:18.038Z</time></trkpt><trkpt lat="42.1426282" lon="11.8983688"><ele>490.75</ele><time>2026-04-19T09:30:19.042Z</time></trkpt><trkpt lat="42.1426059" lon="11.8985158"><ele>489.5</ele><time>2026-04-19T09:30:20.037Z</time></trkpt><trkpt lat="42.1426113" lon="11.8986749"><ele>488.25</ele><time>2026-04-19T09:30:21.042Z</time></trkpt><trkpt lat="42.1426358" lon="11.8988369"><ele>487.0</ele><time>2026-04-19T09:30:22.052Z</time></trkpt><trkpt lat="42.1426705" lon="11.8989996"><ele>487.0</ele><time>2026-04-19T09:30:23.055Z</time></trkpt><trkpt lat="42.1427051" lon="11.8991655"><ele>487.0</ele><time>2026-04-19T09:30:24.038Z</time></trkpt><trkpt lat="42.142724" lon="11.8993393"><ele>487.0</ele><time>2026-04-19T09:30:25.044Z</time></trkpt><trkpt lat="42.1427368" lon="11.8995021"><ele>487.0</ele><time>2026-04-19T09:30:26.037Z</time></trkpt><trkpt lat="42.1427352" lon="11.8996428"><ele>485.6</ele><time>2026-04-19T09:30:27.042Z</time></trkpt><trkpt lat="42.1427121" lon="11.8997636"><ele>484.20000000000005</ele><time>2026-04-19T09:30:28.041Z</time></trkpt><trkpt lat="42.1426611" lon="11.8998567"><ele>482.8</ele><time>2026-04-19T09:30:29.039Z</time></trkpt><trkpt lat="42.1425841" lon="11.8999215"><ele>481.4</ele><time>2026-04-19T09:30:30.037Z</time></trkpt><trkpt lat="42.142502" lon="11.8999896"><ele>480.0</ele><time>2026-04-19T09:30:31.04Z</time></trkpt><trkpt lat="42.1423934" lon="11.9000294"><ele>477.25</ele><time>2026-04-19T09:30:32.041Z</time></trkpt><trkpt lat="42.1422814" lon="11.9000748"><ele>474.5</ele><time>2026-04-19T09:30:33.043Z</time></trkpt><trkpt lat="42.1421709" lon="11.9001216"><ele>471.75</ele><time>2026-04-19T09:30:34.044Z</time></trkpt><trkpt lat="42.1420801" lon="11.9002064"><ele>469.0</ele><time>2026-04-19T09:30:35.04Z</time></trkpt><trkpt lat="42.1419992" lon="11.9003171"><ele>468.25</ele><time>2026-04-19T09:30:36.038Z</time></trkpt><trkpt lat="42.141926" lon="11.9004412"><ele>467.5</ele><time>2026-04-19T09:30:37.042Z</time></trkpt><trkpt lat="42.1418615" lon="11.9005774"><ele>466.75</ele><time>2026-04-19T09:30:38.04Z</time></trkpt><trkpt lat="42.1417989" lon="11.9007095"><ele>466.0</ele><time>2026-04-19T09:30:39.042Z</time></trkpt><trkpt lat="42.1417459" lon="11.900844"><ele>467.6</ele><time>2026-04-19T09:30:40.042Z</time></trkpt><trkpt lat="42.1416851" lon="11.9009723"><ele>469.20000000000005</ele><time>2026-04-19T09:30:41.037Z</time></trkpt><trkpt lat="42.1416113" lon="11.9010668"><ele>470.79999999999995</ele><time>2026-04-19T09:30:42.04Z</time></trkpt><trkpt lat="42.1415179" lon="11.9011061"><ele>472.4</ele><time>2026-04-19T09:30:43.035Z</time></trkpt><trkpt lat="42.1414162" lon="11.901103"><ele>474.0</ele><time>2026-04-19T09:30:44.038Z</time></trkpt><trkpt lat="42.141316" lon="11.9010623"><ele>473.2</ele><time>2026-04-19T09:30:45.044Z</time></trkpt><trkpt lat="42.1412245" lon="11.9009866"><ele>472.4</ele><time>2026-04-19T09:30:46.034Z</time></trkpt><trkpt lat="42.1411352" lon="11.9009059"><ele>471.6</ele><time>2026-04-19T09:30:47.039Z</time></trkpt><trkpt lat="42.1410336" lon="11.900847"><ele>470.8</ele><time>2026-04-19T09:30:48.042Z</time></trkpt><trkpt lat="42.1409182" lon="11.9008169"><ele>470.0</ele><time>2026-04-19T09:30:49.035Z</time></trkpt><trkpt lat="42.1407915" lon="11.9007891"><ele>470.5</ele><time>2026-04-19T09:30:50.047Z</time></trkpt><trkpt lat="42.1406699" lon="11.9007394"><ele>471.0</ele><time>2026-04-19T09:30:51.055Z</time></trkpt><trkpt lat="42.1405567" lon="11.9006653"><ele>471.5</ele><time>2026-04-19T09:30:52.041Z</time></trkpt><trkpt lat="42.1404475" lon="11.9005949"><ele>472.0</ele><time>2026-04-19T09:30:53.05Z</time></trkpt><trkpt lat="42.1403399" lon="11.9005448"><ele>472.0</ele><time>2026-04-19T09:30:54.035Z</time></trkpt><trkpt lat="42.1402211" lon="11.9005393"><ele>472.0</ele><time>2026-04-19T09:30:55.04Z</time></trkpt><trkpt lat="42.1400987" lon="11.9005523"><ele>472.0</ele><time>2026-04-19T09:30:56.056Z</time></trkpt><trkpt lat="42.1399735" lon="11.9005671"><ele>472.0</ele><time>2026-04-19T09:30:57.037Z</time></trkpt><trkpt lat="42.1398429" lon="11.9005773"><ele>470.75</ele><time>2026-04-19T09:30:58.036Z</time></trkpt><trkpt lat="42.1397131" lon="11.9005877"><ele>469.5</ele><time>2026-04-19T09:30:59.044Z</time></trkpt><trkpt lat="42.1395906" lon="11.9005948"><ele>468.25</ele><time>2026-04-19T09:31:00.043Z</time></trkpt><trkpt lat="42.1394718" lon="11.9005968"><ele>467.0</ele><time>2026-04-19T09:31:01.038Z</time></trkpt><trkpt lat="42.139351" lon="11.9005688"><ele>467.0</ele><time>2026-04-19T09:31:02.05Z</time></trkpt><trkpt lat="42.1392352" lon="11.9005202"><ele>467.00000000000006</ele><time>2026-04-19T09:31:03.041Z</time></trkpt><trkpt lat="42.1391343" lon="11.9004761"><ele>467.00000000000006</ele><time>2026-04-19T09:31:04.051Z</time></trkpt><trkpt lat="42.139029" lon="11.9004318"><ele>467.0</ele><time>2026-04-19T09:31:05.041Z</time></trkpt><trkpt lat="42.1389198" lon="11.9004219"><ele>467.0</ele><time>2026-04-19T09:31:06.042Z</time></trkpt><trkpt lat="42.1388056" lon="11.9004634"><ele>464.0</ele><time>2026-04-19T09:31:07.037Z</time></trkpt><trkpt lat="42.1386967" lon="11.9005252"><ele>461.0</ele><time>2026-04-19T09:31:08.036Z</time></trkpt><trkpt lat="42.138608" lon="11.9006123"><ele>458.0</ele><time>2026-04-19T09:31:09.047Z</time></trkpt><trkpt lat="42.1385219" lon="11.9007068"><ele>455.0</ele><time>2026-04-19T09:31:10.049Z</time></trkpt><trkpt lat="42.1384803" lon="11.9008561"><ele>458.25</ele><time>2026-04-19T09:31:11.036Z</time></trkpt><trkpt lat="42.1384378" lon="11.9010058"><ele>461.5</ele><time>2026-04-19T09:31:12.054Z</time></trkpt><trkpt lat="42.1383739" lon="11.9011373"><ele>464.75</ele><time>2026-04-19T09:31:13.04Z</time></trkpt><trkpt lat="42.1383093" lon="11.901266"><ele>468.0</ele><time>2026-04-19T09:31:14.042Z</time></trkpt><trkpt lat="42.1382465" lon="11.9013918"><ele>468.79999999999995</ele><time>2026-04-19T09:31:15.046Z</time></trkpt><trkpt lat="42.1382126" lon="11.901536"><ele>469.59999999999997</ele><time>2026-04-19T09:31:16.039Z</time></trkpt><trkpt lat="42.1381807" lon="11.9016746"><ele>470.40000000000003</ele><time>2026-04-19T09:31:17.033Z</time></trkpt><trkpt lat="42.1381349" lon="11.9018007"><ele>471.20000000000005</ele><time>2026-04-19T09:31:18.047Z</time></trkpt><trkpt lat="42.1380667" lon="11.9018919"><ele>472.0</ele><time>2026-04-19T09:31:19.048Z</time></trkpt><trkpt lat="42.1379766" lon="11.9019494"><ele>472.0</ele><time>2026-04-19T09:31:20.042Z</time></trkpt><trkpt lat="42.1378726" lon="11.9019589"><ele>472.00000000000006</ele><time>2026-04-19T09:31:21.042Z</time></trkpt><trkpt lat="42.1377706" lon="11.9019297"><ele>472.00000000000006</ele><time>2026-04-19T09:31:22.052Z</time></trkpt><trkpt lat="42.1376717" lon="11.9019008"><ele>472.0</ele><time>2026-04-19T09:31:23.038Z</time></trkpt><trkpt lat="42.137574" lon="11.9018768"><ele>472.0</ele><time>2026-04-19T09:31:24.034Z</time></trkpt><trkpt lat="42.13747" lon="11.9018713"><ele>470.6</ele><time>2026-04-19T09:31:25.036Z</time></trkpt><trkpt lat="42.1373662" lon="11.9019302"><ele>469.20000000000005</ele><time>2026-04-19T09:31:26.034Z</time></trkpt><trkpt lat="42.1372828" lon="11.9019992"><ele>467.8</ele><time>2026-04-19T09:31:27.042Z</time></trkpt><trkpt lat="42.1371854" lon="11.9020777"><ele>466.4</ele><time>2026-04-19T09:31:28.041Z</time></trkpt><trkpt lat="42.137089" lon="11.9021508"><ele>465.0</ele><time>2026-04-19T09:31:29.039Z</time></trkpt><trkpt lat="42.1369999" lon="11.9021867"><ele>465.0</ele><time>2026-04-19T09:31:30.041Z</time></trkpt><trkpt lat="42.1369079" lon="11.9021938"><ele>465.0</ele><time>2026-04-19T09:31:31.043Z</time></trkpt><trkpt lat="42.1368189" lon="11.9021898"><ele>465.0</ele><time>2026-04-19T09:31:32.037Z</time></trkpt><trkpt lat="42.1367221" lon="11.9021994"><ele>465.0</ele><time>2026-04-19T09:31:33.04Z</time></trkpt><trkpt lat="42.1366201" lon="11.9022185"><ele>465.0</ele><time>2026-04-19T09:31:34.044Z</time></trkpt><trkpt lat="42.1365184" lon="11.9022413"><ele>469.0</ele><time>2026-04-19T09:31:35.033Z</time></trkpt><trkpt lat="42.136416" lon="11.9022871"><ele>473.0</ele><time>2026-04-19T09:31:36.03Z</time></trkpt><trkpt lat="42.1363134" lon="11.9023335"><ele>477.0</ele><time>2026-04-19T09:31:37.044Z</time></trkpt><trkpt lat="42.1362158" lon="11.9023924"><ele>481.0</ele><time>2026-04-19T09:31:38.036Z</time></trkpt><trkpt lat="42.1361255" lon="11.9024711"><ele>485.0</ele><time>2026-04-19T09:31:39.045Z</time></trkpt><trkpt lat="42.1360431" lon="11.9025768"><ele>482.25</ele><time>2026-04-19T09:31:40.036Z</time></trkpt><trkpt lat="42.135979" lon="11.9027195"><ele>479.5</ele><time>2026-04-19T09:31:41.04Z</time></trkpt><trkpt lat="42.1359331" lon="11.9028755"><ele>476.75</ele><time>2026-04-19T09:31:42.043Z</time></trkpt><trkpt lat="42.1358774" lon="11.903057"><ele>474.0</ele><time>2026-04-19T09:31:43.035Z</time></trkpt><trkpt lat="42.1358209" lon="11.9032216"><ele>474.0</ele><time>2026-04-19T09:31:44.029Z</time></trkpt><trkpt lat="42.1357667" lon="11.903382"><ele>474.0</ele><time>2026-04-19T09:31:45.036Z</time></trkpt><trkpt lat="42.1357005" lon="11.9035139"><ele>474.0</ele><time>2026-04-19T09:31:46.033Z</time></trkpt><trkpt lat="42.1356259" lon="11.9036148"><ele>474.0</ele><time>2026-04-19T09:31:47.043Z</time></trkpt><trkpt lat="42.1355344" lon="11.9036654"><ele>470.75</ele><time>2026-04-19T09:31:48.029Z</time></trkpt><trkpt lat="42.1354485" lon="11.9036797"><ele>467.5</ele><time>2026-04-19T09:31:49.034Z</time></trkpt><trkpt lat="42.1353537" lon="11.9036131"><ele>464.25</ele><time>2026-04-19T09:31:50.043Z</time></trkpt><trkpt lat="42.1352394" lon="11.9035195"><ele>461.0</ele><time>2026-04-19T09:31:51.039Z</time></trkpt><trkpt lat="42.1350983" lon="11.9034337"><ele>466.0</ele><time>2026-04-19T09:31:52.031Z</time></trkpt><trkpt lat="42.1349519" lon="11.903369"><ele>471.0</ele><time>2026-04-19T09:31:53.031Z</time></trkpt><trkpt lat="42.1348044" lon="11.9033236"><ele>476.0</ele><time>2026-04-19T09:31:54.033Z</time></trkpt><trkpt lat="42.1346623" lon="11.9032478"><ele>476.0</ele><time>2026-04-19T09:31:55.036Z</time></trkpt><trkpt lat="42.1345025" lon="11.903162"><ele>476.0</ele><time>2026-04-19T09:31:56.038Z</time></trkpt><trkpt lat="42.1343579" lon="11.9030484"><ele>476.0</ele><time>2026-04-19T09:31:57.033Z</time></trkpt><trkpt lat="42.1342463" lon="11.9029378"><ele>476.0</ele><time>2026-04-19T09:31:58.031Z</time></trkpt><trkpt lat="42.1341329" lon="11.9028487"><ele>476.0</ele><time>2026-04-19T09:31:59.04Z</time></trkpt><trkpt lat="42.1340249" lon="11.9027804"><ele>476.0</ele><time>2026-04-19T09:32:00.034Z</time></trkpt><trkpt lat="42.1339071" lon="11.9027764"><ele>476.0</ele><time>2026-04-19T09:32:01.031Z</time></trkpt><trkpt lat="42.1337881" lon="11.9028067"><ele>477.5</ele><time>2026-04-19T09:32:02.039Z</time></trkpt><trkpt lat="42.1336763" lon="11.9028836"><ele>479.0</ele><time>2026-04-19T09:32:03.034Z</time></trkpt><trkpt lat="42.1335612" lon="11.9029775"><ele>480.5</ele><time>2026-04-19T09:32:04.039Z</time></trkpt><trkpt lat="42.1334397" lon="11.9030677"><ele>482.0</ele><time>2026-04-19T09:32:05.035Z</time></trkpt><trkpt lat="42.133319" lon="11.9031542"><ele>484.25</ele><time>2026-04-19T09:32:06.037Z</time></trkpt><trkpt lat="42.1331959" lon="11.903228"><ele>486.5</ele><time>2026-04-19T09:32:07.031Z</time></trkpt><trkpt lat="42.1330687" lon="11.9032882"><ele>488.75</ele><time>2026-04-19T09:32:08.039Z</time></trkpt><trkpt lat="42.1329436" lon="11.9033376"><ele>491.0</ele><time>2026-04-19T09:32:09.039Z</time></trkpt><trkpt lat="42.1328108" lon="11.9033213"><ele>491.0</ele><time>2026-04-19T09:32:10.036Z</time></trkpt><trkpt lat="42.132686" lon="11.9032981"><ele>491.0</ele><time>2026-04-19T09:32:11.04Z</time></trkpt><trkpt lat="42.1325587" lon="11.9032771"><ele>491.0</ele><time>2026-04-19T09:32:12.034Z</time></trkpt><trkpt lat="42.1324214" lon="11.903275"><ele>491.0</ele><time>2026-04-19T09:32:13.032Z</time></trkpt><trkpt lat="42.1322786" lon="11.9032655"><ele>491.75</ele><time>2026-04-19T09:32:14.042Z</time></trkpt><trkpt lat="42.1321325" lon="11.9032551"><ele>492.5</ele><time>2026-04-19T09:32:15.045Z</time></trkpt><trkpt lat="42.1319945" lon="11.9032514"><ele>493.25</ele><time>2026-04-19T09:32:16.046Z</time></trkpt><trkpt lat="42.1318557" lon="11.9032503"><ele>494.0</ele><time>2026-04-19T09:32:17.038Z</time></trkpt><trkpt lat="42.1317289" lon="11.9032948"><ele>494.0</ele><time>2026-04-19T09:32:18.045Z</time></trkpt><trkpt lat="42.1316132" lon="11.9033724"><ele>494.0</ele><time>2026-04-19T09:32:19.039Z</time></trkpt><trkpt lat="42.1315141" lon="11.9034822"><ele>494.0</ele><time>2026-04-19T09:32:20.044Z</time></trkpt><trkpt lat="42.13144" lon="11.9036158"><ele>494.0</ele><time>2026-04-19T09:32:21.038Z</time></trkpt><trkpt lat="42.1313626" lon="11.9037562"><ele>494.25</ele><time>2026-04-19T09:32:22.045Z</time></trkpt><trkpt lat="42.1312542" lon="11.9038614"><ele>494.5</ele><time>2026-04-19T09:32:23.046Z</time></trkpt><trkpt lat="42.1311434" lon="11.9039652"><ele>494.75</ele><time>2026-04-19T09:32:24.041Z</time></trkpt><trkpt lat="42.1310271" lon="11.9040324"><ele>495.0</ele><time>2026-04-19T09:32:25.038Z</time></trkpt><trkpt lat="42.1308995" lon="11.9041051"><ele>495.0</ele><time>2026-04-19T09:32:26.04Z</time></trkpt><trkpt lat="42.1307695" lon="11.9041677"><ele>495.0</ele><time>2026-04-19T09:32:27.043Z</time></trkpt><trkpt lat="42.1306183" lon="11.904202"><ele>495.0</ele><time>2026-04-19T09:32:28.041Z</time></trkpt><trkpt lat="42.1304624" lon="11.9042423"><ele>490.0</ele><time>2026-04-19T09:32:29.036Z</time></trkpt><trkpt lat="42.1303052" lon="11.9042924"><ele>485.0</ele><time>2026-04-19T09:32:30.03Z</time></trkpt><trkpt lat="42.1301572" lon="11.9043388"><ele>480.0</ele><time>2026-04-19T09:32:31.054Z</time></trkpt><trkpt lat="42.1300233" lon="11.9043953"><ele>480.0</ele><time>2026-04-19T09:32:32.035Z</time></trkpt><trkpt lat="42.1298931" lon="11.9044502"><ele>480.0</ele><time>2026-04-19T09:32:33.039Z</time></trkpt><trkpt lat="42.1297755" lon="11.9045"><ele>480.0</ele><time>2026-04-19T09:32:34.036Z</time></trkpt><trkpt lat="42.1296631" lon="11.9045461"><ele>480.0</ele><time>2026-04-19T09:32:35.039Z</time></trkpt><trkpt lat="42.129552" lon="11.9045911"><ele>481.0</ele><time>2026-04-19T09:32:36.036Z</time></trkpt><trkpt lat="42.1294375" lon="11.9046392"><ele>482.0</ele><time>2026-04-19T09:32:37.044Z</time></trkpt><trkpt lat="42.1293152" lon="11.9046809"><ele>483.0</ele><time>2026-04-19T09:32:38.046Z</time></trkpt><trkpt lat="42.1291935" lon="11.9047178"><ele>484.0</ele><time>2026-04-19T09:32:39.047Z</time></trkpt><trkpt lat="42.1290811" lon="11.9047619"><ele>484.4</ele><time>2026-04-19T09:32:40.049Z</time></trkpt><trkpt lat="42.1289801" lon="11.9048274"><ele>484.79999999999995</ele><time>2026-04-19T09:32:41.041Z</time></trkpt><trkpt lat="42.1288831" lon="11.904894"><ele>485.20000000000005</ele><time>2026-04-19T09:32:42.039Z</time></trkpt><trkpt lat="42.128818" lon="11.9050064"><ele>485.6</ele><time>2026-04-19T09:32:43.046Z</time></trkpt><trkpt lat="42.1287553" lon="11.9051236"><ele>486.0</ele><time>2026-04-19T09:32:44.043Z</time></trkpt><trkpt lat="42.1286989" lon="11.9052507"><ele>486.5</ele><time>2026-04-19T09:32:45.041Z</time></trkpt><trkpt lat="42.1286419" lon="11.9053842"><ele>487.0</ele><time>2026-04-19T09:32:46.05Z</time></trkpt><trkpt lat="42.1286099" lon="11.9055399"><ele>487.5</ele><time>2026-04-19T09:32:47.046Z</time></trkpt><trkpt lat="42.1286054" lon="11.9056909"><ele>488.0</ele><time>2026-04-19T09:32:48.035Z</time></trkpt><trkpt lat="42.1286067" lon="11.9058429"><ele>490.0</ele><time>2026-04-19T09:32:49.051Z</time></trkpt><trkpt lat="42.1286589" lon="11.9059815"><ele>492.0</ele><time>2026-04-19T09:32:50.033Z</time></trkpt><trkpt lat="42.1287124" lon="11.9061185"><ele>494.0</ele><time>2026-04-19T09:32:51.036Z</time></trkpt><trkpt lat="42.1287815" lon="11.9062462"><ele>496.0</ele><time>2026-04-19T09:32:52.042Z</time></trkpt><trkpt lat="42.1288166" lon="11.9063954"><ele>496.0</ele><time>2026-04-19T09:32:53.043Z</time></trkpt><trkpt lat="42.1288484" lon="11.9065361"><ele>496.0</ele><time>2026-04-19T09:32:54.034Z</time></trkpt><trkpt lat="42.1288365" lon="11.9066978"><ele>496.0</ele><time>2026-04-19T09:32:55.043Z</time></trkpt><trkpt lat="42.1288136" lon="11.9068706"><ele>496.0</ele><time>2026-04-19T09:32:56.05Z</time></trkpt><trkpt lat="42.1287956" lon="11.9070465"><ele>494.25</ele><time>2026-04-19T09:32:57.041Z</time></trkpt><trkpt lat="42.1287871" lon="11.9072279"><ele>492.5</ele><time>2026-04-19T09:32:58.037Z</time></trkpt><trkpt lat="42.1287856" lon="11.9074105"><ele>490.75</ele><time>2026-04-19T09:32:59.048Z</time></trkpt><trkpt lat="42.1287863" lon="11.9076007"><ele>489.0</ele><time>2026-04-19T09:33:00.04Z</time></trkpt><trkpt lat="42.1287834" lon="11.9077978"><ele>485.75</ele><time>2026-04-19T09:33:01.042Z</time></trkpt><trkpt lat="42.1287766" lon="11.9079963"><ele>482.5</ele><time>2026-04-19T09:33:02.04Z</time></trkpt><trkpt lat="42.128768" lon="11.9081977"><ele>479.25</ele><time>2026-04-19T09:33:03.042Z</time></trkpt><trkpt lat="42.1287637" lon="11.9084017"><ele>476.0</ele><time>2026-04-19T09:33:04.047Z</time></trkpt><trkpt lat="42.128762" lon="11.9086063"><ele>473.3333333333333</ele><time>2026-04-19T09:33:05.054Z</time></trkpt><trkpt lat="42.1287613" lon="11.9088113"><ele>470.66666666666663</ele><time>2026-04-19T09:33:06.046Z</time></trkpt><trkpt lat="42.1287586" lon="11.9090187"><ele>468.0</ele><time>2026-04-19T09:33:07.054Z</time></trkpt><trkpt lat="42.1287543" lon="11.9092263"><ele>467.5</ele><time>2026-04-19T09:33:08.057Z</time></trkpt><trkpt lat="42.1287467" lon="11.9094189"><ele>467.0</ele><time>2026-04-19T09:33:09.041Z</time></trkpt><trkpt lat="42.1287373" lon="11.9096049"><ele>466.5</ele><time>2026-04-19T09:33:10.047Z</time></trkpt><trkpt lat="42.1287212" lon="11.9097858"><ele>466.0</ele><time>2026-04-19T09:33:11.057Z</time></trkpt><trkpt lat="42.128692" lon="11.9099661"><ele>467.0</ele><time>2026-04-19T09:33:12.039Z</time></trkpt><trkpt lat="42.1286493" lon="11.9101402"><ele>468.0</ele><time>2026-04-19T09:33:13.043Z</time></trkpt><trkpt lat="42.1285923" lon="11.9103114"><ele>469.0</ele><time>2026-04-19T09:33:14.052Z</time></trkpt><trkpt lat="42.128515" lon="11.9104765"><ele>470.0</ele><time>2026-04-19T09:33:15.06Z</time></trkpt><trkpt lat="42.1284255" lon="11.9106342"><ele>470.0</ele><time>2026-04-19T09:33:16.037Z</time></trkpt><trkpt lat="42.1283367" lon="11.9107916"><ele>470.0</ele><time>2026-04-19T09:33:17.046Z</time></trkpt><trkpt lat="42.1282551" lon="11.9109469"><ele>470.0</ele><time>2026-04-19T09:33:18.034Z</time></trkpt><trkpt lat="42.1281797" lon="11.9111125"><ele>470.0</ele><time>2026-04-19T09:33:19.04Z</time></trkpt><trkpt lat="42.1281121" lon="11.9112898"><ele>467.0</ele><time>2026-04-19T09:33:20.045Z</time></trkpt><trkpt lat="42.1280435" lon="11.9114717"><ele>464.0</ele><time>2026-04-19T09:33:21.039Z</time></trkpt><trkpt lat="42.1279623" lon="11.911659"><ele>461.0</ele><time>2026-04-19T09:33:22.047Z</time></trkpt><trkpt lat="42.1278727" lon="11.911828"><ele>461.0</ele><time>2026-04-19T09:33:23.043Z</time></trkpt><trkpt lat="42.127782" lon="11.9119905"><ele>461.0</ele><time>2026-04-19T09:33:24.041Z</time></trkpt><trkpt lat="42.1276875" lon="11.9121647"><ele>461.0</ele><time>2026-04-19T09:33:25.046Z</time></trkpt><trkpt lat="42.1275929" lon="11.9123387"><ele>461.0</ele><time>2026-04-19T09:33:26.046Z</time></trkpt><trkpt lat="42.1274942" lon="11.9125146"><ele>461.0</ele><time>2026-04-19T09:33:27.046Z</time></trkpt><trkpt lat="42.1273886" lon="11.9126947"><ele>461.0</ele><time>2026-04-19T09:33:28.043Z</time></trkpt><trkpt lat="42.1272837" lon="11.9128747"><ele>464.66666666666663</ele><time>2026-04-19T09:33:29.038Z</time></trkpt><trkpt lat="42.127178" lon="11.9130536"><ele>468.33333333333337</ele><time>2026-04-19T09:33:30.034Z</time></trkpt><trkpt lat="42.1270705" lon="11.9132287"><ele>472.0</ele><time>2026-04-19T09:33:31.042Z</time></trkpt><trkpt lat="42.126965" lon="11.9133892"><ele>471.5</ele><time>2026-04-19T09:33:32.04Z</time></trkpt><trkpt lat="42.1268584" lon="11.9135455"><ele>471.0</ele><time>2026-04-19T09:33:33.036Z</time></trkpt><trkpt lat="42.1267567" lon="11.9136845"><ele>470.5</ele><time>2026-04-19T09:33:34.047Z</time></trkpt><trkpt lat="42.126661" lon="11.9138108"><ele>470.0</ele><time>2026-04-19T09:33:35.043Z</time></trkpt><trkpt lat="42.1265857" lon="11.9139066"><ele>470.4</ele><time>2026-04-19T09:33:36.036Z</time></trkpt><trkpt lat="42.126517" lon="11.9139987"><ele>470.8</ele><time>2026-04-19T09:33:37.044Z</time></trkpt><trkpt lat="42.1264838" lon="11.9141134"><ele>471.20000000000005</ele><time>2026-04-19T09:33:38.038Z</time></trkpt><trkpt lat="42.1264889" lon="11.9142377"><ele>471.6</ele><time>2026-04-19T09:33:39.037Z</time></trkpt><trkpt lat="42.1265349" lon="11.9143655"><ele>472.0</ele><time>2026-04-19T09:33:40.034Z</time></trkpt><trkpt lat="42.1266225" lon="11.9144558"><ele>472.0</ele><time>2026-04-19T09:33:41.04Z</time></trkpt><trkpt lat="42.1267064" lon="11.9145617"><ele>472.0</ele><time>2026-04-19T09:33:42.038Z</time></trkpt><trkpt lat="42.1267723" lon="11.9146895"><ele>472.0</ele><time>2026-04-19T09:33:43.037Z</time></trkpt><trkpt lat="42.1268118" lon="11.9148372"><ele>472.0</ele><time>2026-04-19T09:33:44.035Z</time></trkpt><trkpt lat="42.1268201" lon="11.914982"><ele>470.8</ele><time>2026-04-19T09:33:45.041Z</time></trkpt><trkpt lat="42.1267975" lon="11.915102"><ele>469.6</ele><time>2026-04-19T09:33:46.04Z</time></trkpt><trkpt lat="42.1267397" lon="11.9152105"><ele>468.40000000000003</ele><time>2026-04-19T09:33:47.035Z</time></trkpt><trkpt lat="42.1266542" lon="11.9153056"><ele>467.20000000000005</ele><time>2026-04-19T09:33:48.036Z</time></trkpt><trkpt lat="42.1265627" lon="11.9154088"><ele>466.0</ele><time>2026-04-19T09:33:49.04Z</time></trkpt><trkpt lat="42.1264676" lon="11.9155139"><ele>466.5</ele><time>2026-04-19T09:33:50.033Z</time></trkpt><trkpt lat="42.1263821" lon="11.9156677"><ele>467.0</ele><time>2026-04-19T09:33:51.035Z</time></trkpt><trkpt lat="42.1263001" lon="11.9158278"><ele>467.5</ele><time>2026-04-19T09:33:52.034Z</time></trkpt><trkpt lat="42.1262143" lon="11.9159849"><ele>468.0</ele><time>2026-04-19T09:33:53.046Z</time></trkpt><trkpt lat="42.1261273" lon="11.9161409"><ele>468.0</ele><time>2026-04-19T09:33:54.034Z</time></trkpt><trkpt lat="42.1260479" lon="11.9163023"><ele>468.0</ele><time>2026-04-19T09:33:55.046Z</time></trkpt><trkpt lat="42.1259778" lon="11.9164702"><ele>468.0</ele><time>2026-04-19T09:33:56.04Z</time></trkpt><trkpt lat="42.1259479" lon="11.9166616"><ele>468.0</ele><time>2026-04-19T09:33:57.033Z</time></trkpt><trkpt lat="42.1259429" lon="11.9168741"><ele>466.75</ele><time>2026-04-19T09:33:58.046Z</time></trkpt><trkpt lat="42.1259517" lon="11.9170641"><ele>465.5</ele><time>2026-04-19T09:33:59.035Z</time></trkpt><trkpt lat="42.1259575" lon="11.9172402"><ele>464.25</ele><time>2026-04-19T09:34:00.036Z</time></trkpt><trkpt lat="42.1259734" lon="11.9174173"><ele>463.0</ele><time>2026-04-19T09:34:01.042Z</time></trkpt><trkpt lat="42.1259885" lon="11.9175934"><ele>463.0</ele><time>2026-04-19T09:34:02.04Z</time></trkpt><trkpt lat="42.1260055" lon="11.917767"><ele>463.0</ele><time>2026-04-19T09:34:03.041Z</time></trkpt><trkpt lat="42.1260012" lon="11.9179536"><ele>463.0</ele><time>2026-04-19T09:34:04.039Z</time></trkpt><trkpt lat="42.1259804" lon="11.9181352"><ele>463.0</ele><time>2026-04-19T09:34:05.041Z</time></trkpt><trkpt lat="42.125937" lon="11.9183116"><ele>463.25</ele><time>2026-04-19T09:34:06.047Z</time></trkpt><trkpt lat="42.1258673" lon="11.9184797"><ele>463.5</ele><time>2026-04-19T09:34:07.046Z</time></trkpt><trkpt lat="42.1257866" lon="11.9186323"><ele>463.75</ele><time>2026-04-19T09:34:08.046Z</time></trkpt><trkpt lat="42.1256986" lon="11.9187795"><ele>464.0</ele><time>2026-04-19T09:34:09.051Z</time></trkpt><trkpt lat="42.1256083" lon="11.9189234"><ele>461.25</ele><time>2026-04-19T09:34:10.045Z</time></trkpt><trkpt lat="42.1255104" lon="11.9190665"><ele>458.5</ele><time>2026-04-19T09:34:11.046Z</time></trkpt><trkpt lat="42.1254098" lon="11.9192138"><ele>455.75</ele><time>2026-04-19T09:34:12.035Z</time></trkpt><trkpt lat="42.1253017" lon="11.9193609"><ele>453.0</ele><time>2026-04-19T09:34:13.041Z</time></trkpt><trkpt lat="42.125203" lon="11.9195025"><ele>453.0</ele><time>2026-04-19T09:34:14.037Z</time></trkpt><trkpt lat="42.1251048" lon="11.9196462"><ele>453.0</ele><time>2026-04-19T09:34:15.041Z</time></trkpt><trkpt lat="42.1250004" lon="11.9197904"><ele>453.0</ele><time>2026-04-19T09:34:16.043Z</time></trkpt><trkpt lat="42.1248961" lon="11.9199387"><ele>453.0</ele><time>2026-04-19T09:34:17.044Z</time></trkpt><trkpt lat="42.1247984" lon="11.9200889"><ele>456.0</ele><time>2026-04-19T09:34:18.037Z</time></trkpt><trkpt lat="42.1247095" lon="11.9202373"><ele>459.0</ele><time>2026-04-19T09:34:19.043Z</time></trkpt><trkpt lat="42.1246483" lon="11.9204123"><ele>462.0</ele><time>2026-04-19T09:34:20.035Z</time></trkpt><trkpt lat="42.1246115" lon="11.9205999"><ele>465.0</ele><time>2026-04-19T09:34:21.043Z</time></trkpt><trkpt lat="42.1245948" lon="11.9207882"><ele>465.0</ele><time>2026-04-19T09:34:22.036Z</time></trkpt><trkpt lat="42.1245865" lon="11.9209708"><ele>465.0</ele><time>2026-04-19T09:34:23.036Z</time></trkpt><trkpt lat="42.1245652" lon="11.9211473"><ele>465.0</ele><time>2026-04-19T09:34:24.038Z</time></trkpt><trkpt lat="42.1245227" lon="11.9213194"><ele>465.0</ele><time>2026-04-19T09:34:25.042Z</time></trkpt><trkpt lat="42.1244708" lon="11.9214829"><ele>465.0</ele><time>2026-04-19T09:34:26.04Z</time></trkpt><trkpt lat="42.1243974" lon="11.9216359"><ele>465.0</ele><time>2026-04-19T09:34:27.042Z</time></trkpt><trkpt lat="42.1243261" lon="11.9217787"><ele>465.0</ele><time>2026-04-19T09:34:28.044Z</time></trkpt><trkpt lat="42.124262" lon="11.9219059"><ele>465.0</ele><time>2026-04-19T09:34:29.043Z</time></trkpt><trkpt lat="42.1241829" lon="11.9220282"><ele>463.0</ele><time>2026-04-19T09:34:30.038Z</time></trkpt><trkpt lat="42.1240877" lon="11.9221"><ele>461.0</ele><time>2026-04-19T09:34:31.049Z</time></trkpt><trkpt lat="42.1239885" lon="11.9221617"><ele>459.0</ele><time>2026-04-19T09:34:32.035Z</time></trkpt><trkpt lat="42.1238878" lon="11.9222427"><ele>457.0</ele><time>2026-04-19T09:34:33.035Z</time></trkpt><trkpt lat="42.1237992" lon="11.9223407"><ele>457.0</ele><time>2026-04-19T09:34:34.046Z</time></trkpt><trkpt lat="42.1237253" lon="11.9224483"><ele>457.00000000000006</ele><time>2026-04-19T09:34:35.053Z</time></trkpt><trkpt lat="42.1236701" lon="11.9225753"><ele>457.00000000000006</ele><time>2026-04-19T09:34:36.045Z</time></trkpt><trkpt lat="42.1236335" lon="11.9226969"><ele>457.0</ele><time>2026-04-19T09:34:37.04Z</time></trkpt><trkpt lat="42.1235892" lon="11.9228182"><ele>457.0</ele><time>2026-04-19T09:34:38.048Z</time></trkpt><trkpt lat="42.1234995" lon="11.9228796"><ele>453.0</ele><time>2026-04-19T09:34:39.047Z</time></trkpt><trkpt lat="42.1233951" lon="11.9229324"><ele>449.0</ele><time>2026-04-19T09:34:40.041Z</time></trkpt><trkpt lat="42.1232612" lon="11.9229732"><ele>445.0</ele><time>2026-04-19T09:34:41.049Z</time></trkpt><trkpt lat="42.1231229" lon="11.9230332"><ele>441.0</ele><time>2026-04-19T09:34:42.054Z</time></trkpt><trkpt lat="42.1229787" lon="11.9230939"><ele>440.66666666666663</ele><time>2026-04-19T09:34:43.046Z</time></trkpt><trkpt lat="42.1228261" lon="11.9231955"><ele>440.3333333333333</ele><time>2026-04-19T09:34:44.064Z</time></trkpt><trkpt lat="42.1226741" lon="11.923308"><ele>440.0</ele><time>2026-04-19T09:34:45.053Z</time></trkpt><trkpt lat="42.1225264" lon="11.9234178"><ele>438.0</ele><time>2026-04-19T09:34:46.042Z</time></trkpt><trkpt lat="42.1223671" lon="11.9235274"><ele>436.0</ele><time>2026-04-19T09:34:47.052Z</time></trkpt><trkpt lat="42.1222061" lon="11.9236276"><ele>434.0</ele><time>2026-04-19T09:34:48.054Z</time></trkpt><trkpt lat="42.1220479" lon="11.9237171"><ele>434.0</ele><time>2026-04-19T09:34:49.044Z</time></trkpt><trkpt lat="42.1218884" lon="11.9237927"><ele>434.0</ele><time>2026-04-19T09:34:50.044Z</time></trkpt><trkpt lat="42.1217283" lon="11.9238492"><ele>434.0</ele><time>2026-04-19T09:34:51.046Z</time></trkpt><trkpt lat="42.121565" lon="11.9239056"><ele>434.5</ele><time>2026-04-19T09:34:52.051Z</time></trkpt><trkpt lat="42.1214081" lon="11.9239549"><ele>435.0</ele><time>2026-04-19T09:34:53.039Z</time></trkpt><trkpt lat="42.1212659" lon="11.9240084"><ele>435.5</ele><time>2026-04-19T09:34:54.047Z</time></trkpt><trkpt lat="42.1211378" lon="11.924078"><ele>436.0</ele><time>2026-04-19T09:34:55.052Z</time></trkpt><trkpt lat="42.1210204" lon="11.9241591"><ele>437.5</ele><time>2026-04-19T09:34:56.052Z</time></trkpt><trkpt lat="42.1209121" lon="11.9242587"><ele>439.0</ele><time>2026-04-19T09:34:57.05Z</time></trkpt><trkpt lat="42.1208117" lon="11.9243623"><ele>440.5</ele><time>2026-04-19T09:34:58.045Z</time></trkpt><trkpt lat="42.1207116" lon="11.9244757"><ele>442.0</ele><time>2026-04-19T09:34:59.049Z</time></trkpt><trkpt lat="42.1206127" lon="11.9245895"><ele>442.0</ele><time>2026-04-19T09:35:00.055Z</time></trkpt><trkpt lat="42.1205146" lon="11.9247058"><ele>442.0</ele><time>2026-04-19T09:35:01.04Z</time></trkpt><trkpt lat="42.1204149" lon="11.9248237"><ele>442.0</ele><time>2026-04-19T09:35:02.048Z</time></trkpt><trkpt lat="42.1203176" lon="11.9249472"><ele>442.0</ele><time>2026-04-19T09:35:03.038Z</time></trkpt><trkpt lat="42.1202202" lon="11.9250695"><ele>444.0</ele><time>2026-04-19T09:35:04.036Z</time></trkpt><trkpt lat="42.1201212" lon="11.925197"><ele>446.0</ele><time>2026-04-19T09:35:05.046Z</time></trkpt><trkpt lat="42.1200219" lon="11.9253282"><ele>448.0</ele><time>2026-04-19T09:35:06.051Z</time></trkpt><trkpt lat="42.1199249" lon="11.9254634"><ele>450.0</ele><time>2026-04-19T09:35:07.048Z</time></trkpt><trkpt lat="42.1198323" lon="11.9255968"><ele>450.0</ele><time>2026-04-19T09:35:08.037Z</time></trkpt><trkpt lat="42.119744" lon="11.9257201"><ele>450.0</ele><time>2026-04-19T09:35:09.039Z</time></trkpt><trkpt lat="42.1196605" lon="11.925843"><ele>450.0</ele><time>2026-04-19T09:35:10.04Z</time></trkpt><trkpt lat="42.1195909" lon="11.9259607"><ele>450.0</ele><time>2026-04-19T09:35:11.047Z</time></trkpt><trkpt lat="42.1195389" lon="11.9260521"><ele>450.0</ele><time>2026-04-19T09:35:12.04Z</time></trkpt><trkpt lat="42.1194686" lon="11.9261259"><ele>450.0</ele><time>2026-04-19T09:35:14.046Z</time></trkpt><trkpt lat="42.1194571" lon="11.9262094"><ele>450.0</ele><time>2026-04-19T09:35:18.055Z</time></trkpt><trkpt lat="42.1195128" lon="11.9261413"><ele>450.0</ele><time>2026-04-19T09:35:20.043Z</time></trkpt><trkpt lat="42.1195769" lon="11.9259918"><ele>450.0</ele><time>2026-04-19T09:35:22.038Z</time></trkpt><trkpt lat="42.1196278" lon="11.9258907"><ele>450.0</ele><time>2026-04-19T09:35:23.037Z</time></trkpt><trkpt lat="42.1196908" lon="11.9257961"><ele>450.0</ele><time>2026-04-19T09:35:24.047Z</time></trkpt><trkpt lat="42.1197532" lon="11.9257018"><ele>450.0</ele><time>2026-04-19T09:35:25.041Z</time></trkpt><trkpt lat="42.1198182" lon="11.9256085"><ele>450.0</ele><time>2026-04-19T09:35:26.046Z</time></trkpt><trkpt lat="42.1198817" lon="11.9255219"><ele>450.0</ele><time>2026-04-19T09:35:27.041Z</time></trkpt><trkpt lat="42.1199354" lon="11.9254434"><ele>450.0</ele><time>2026-04-19T09:35:28.041Z</time></trkpt><trkpt lat="42.1200028" lon="11.9253564"><ele>450.2</ele><time>2026-04-19T09:35:30.038Z</time></trkpt><trkpt lat="42.1201298" lon="11.9254265"><ele>450.4</ele><time>2026-04-19T09:36:02.042Z</time></trkpt><trkpt lat="42.1201646" lon="11.9255319"><ele>450.6</ele><time>2026-04-19T09:36:04.067Z</time></trkpt><trkpt lat="42.1201928" lon="11.9256439"><ele>450.8</ele><time>2026-04-19T09:37:04.038Z</time></trkpt><trkpt lat="42.1202551" lon="11.9257407"><ele>451.0</ele><time>2026-04-19T09:37:07.048Z</time></trkpt><trkpt lat="42.1202928" lon="11.9258466"><ele>452.20000000000005</ele><time>2026-04-19T09:37:09.073Z</time></trkpt><trkpt lat="42.1203419" lon="11.9259698"><ele>453.40000000000003</ele><time>2026-04-19T09:37:11.046Z</time></trkpt><trkpt lat="42.1204016" lon="11.9261182"><ele>454.6</ele><time>2026-04-19T09:37:13.035Z</time></trkpt><trkpt lat="42.1204365" lon="11.9262203"><ele>455.8</ele><time>2026-04-19T09:37:14.031Z</time></trkpt><trkpt lat="42.1204754" lon="11.9263487"><ele>457.0</ele><time>2026-04-19T09:37:15.039Z</time></trkpt><trkpt lat="42.1205147" lon="11.9264801"><ele>457.00000000000006</ele><time>2026-04-19T09:37:16.036Z</time></trkpt><trkpt lat="42.12055" lon="11.926601"><ele>457.0</ele><time>2026-04-19T09:37:17.039Z</time></trkpt><trkpt lat="42.1205808" lon="11.9267089"><ele>457.0</ele><time>2026-04-19T09:37:18.039Z</time></trkpt><trkpt lat="42.1206049" lon="11.9267994"><ele>457.0</ele><time>2026-04-19T09:37:19.047Z</time></trkpt><trkpt lat="42.1206274" lon="11.9268886"><ele>457.00000000000006</ele><time>2026-04-19T09:37:20.04Z</time></trkpt><trkpt lat="42.1206527" lon="11.9269747"><ele>457.0</ele><time>2026-04-19T09:37:21.034Z</time></trkpt><trkpt lat="42.1206711" lon="11.9270614"><ele>457.1666666666667</ele><time>2026-04-19T09:37:22.042Z</time></trkpt><trkpt lat="42.1206854" lon="11.927148"><ele>457.33333333333337</ele><time>2026-04-19T09:37:23.035Z</time></trkpt><trkpt lat="42.1206931" lon="11.9272326"><ele>457.5</ele><time>2026-04-19T09:37:24.038Z</time></trkpt><trkpt lat="42.1206897" lon="11.9273984"><ele>457.66666666666663</ele><time>2026-04-19T09:37:26.037Z</time></trkpt><trkpt lat="42.1206668" lon="11.9274893"><ele>457.8333333333333</ele><time>2026-04-19T09:37:27.044Z</time></trkpt><trkpt lat="42.1206435" lon="11.9275747"><ele>458.0</ele><time>2026-04-19T09:37:28.038Z</time></trkpt><trkpt lat="42.1205899" lon="11.9277051"><ele>457.99999999999994</ele><time>2026-04-19T09:37:30.044Z</time></trkpt><trkpt lat="42.1205416" lon="11.9278371"><ele>458.0</ele><time>2026-04-19T09:37:32.039Z</time></trkpt><trkpt lat="42.1205214" lon="11.927918"><ele>458.0</ele><time>2026-04-19T09:37:33.048Z</time></trkpt><trkpt lat="42.1205058" lon="11.928005"><ele>458.0</ele><time>2026-04-19T09:37:34.041Z</time></trkpt><trkpt lat="42.1205135" lon="11.9281211"><ele>457.99999999999994</ele><time>2026-04-19T09:37:36.039Z</time></trkpt><trkpt lat="42.1205746" lon="11.9281661"><ele>458.0</ele><time>2026-04-19T09:37:38.035Z</time></trkpt><trkpt lat="42.1206675" lon="11.9281147"><ele>456.8333333333333</ele><time>2026-04-19T09:37:40.045Z</time></trkpt><trkpt lat="42.1207708" lon="11.9280494"><ele>455.66666666666663</ele><time>2026-04-19T09:37:42.051Z</time></trkpt><trkpt lat="42.1208333" lon="11.9280199"><ele>454.5</ele><time>2026-04-19T09:37:43.041Z</time></trkpt><trkpt lat="42.1209054" lon="11.9279839"><ele>453.33333333333337</ele><time>2026-04-19T09:37:44.042Z</time></trkpt><trkpt lat="42.1209755" lon="11.9279465"><ele>452.1666666666667</ele><time>2026-04-19T09:37:45.048Z</time></trkpt><trkpt lat="42.121044" lon="11.9279048"><ele>451.0</ele><time>2026-04-19T09:37:46.037Z</time></trkpt><trkpt lat="42.12111" lon="11.9278547"><ele>451.0</ele><time>2026-04-19T09:37:47.047Z</time></trkpt><trkpt lat="42.1211774" lon="11.9277997"><ele>451.0</ele><time>2026-04-19T09:37:48.043Z</time></trkpt><trkpt lat="42.1212501" lon="11.9277226"><ele>451.0</ele><time>2026-04-19T09:37:49.039Z</time></trkpt><trkpt lat="42.1213167" lon="11.9276273"><ele>451.0</ele><time>2026-04-19T09:37:50.03Z</time></trkpt><trkpt lat="42.1213924" lon="11.9275218"><ele>451.0</ele><time>2026-04-19T09:37:51.031Z</time></trkpt><trkpt lat="42.1214644" lon="11.9274243"><ele>451.0</ele><time>2026-04-19T09:37:52.032Z</time></trkpt><trkpt lat="42.1215376" lon="11.9273305"><ele>451.0</ele><time>2026-04-19T09:37:53.039Z</time></trkpt><trkpt lat="42.1216159" lon="11.9272167"><ele>451.0</ele><time>2026-04-19T09:37:54.036Z</time></trkpt><trkpt lat="42.1216889" lon="11.9271126"><ele>451.0</ele><time>2026-04-19T09:37:55.031Z</time></trkpt><trkpt lat="42.1217567" lon="11.9270246"><ele>451.0</ele><time>2026-04-19T09:37:56.036Z</time></trkpt><trkpt lat="42.1218251" lon="11.9269507"><ele>451.00000000000006</ele><time>2026-04-19T09:37:57.035Z</time></trkpt><trkpt lat="42.1219005" lon="11.9268851"><ele>451.0</ele><time>2026-04-19T09:37:58.04Z</time></trkpt><trkpt lat="42.1219689" lon="11.9268338"><ele>451.0</ele><time>2026-04-19T09:37:59.04Z</time></trkpt><trkpt lat="42.1220273" lon="11.9267976"><ele>451.0</ele><time>2026-04-19T09:38:00.037Z</time></trkpt><trkpt lat="42.1221483" lon="11.9267631"><ele>451.00000000000006</ele><time>2026-04-19T09:38:02.039Z</time></trkpt><trkpt lat="42.1222147" lon="11.9267419"><ele>451.0</ele><time>2026-04-19T09:38:03.03Z</time></trkpt><trkpt lat="42.1222868" lon="11.9267071"><ele>452.83333333333337</ele><time>2026-04-19T09:38:04.035Z</time></trkpt><trkpt lat="42.1223564" lon="11.9266676"><ele>454.6666666666667</ele><time>2026-04-19T09:38:05.041Z</time></trkpt><trkpt lat="42.1224141" lon="11.9266318"><ele>456.5</ele><time>2026-04-19T09:38:06.036Z</time></trkpt><trkpt lat="42.1225029" lon="11.9266317"><ele>458.33333333333337</ele><time>2026-04-19T09:38:08.042Z</time></trkpt><trkpt lat="42.1225707" lon="11.9266816"><ele>460.1666666666667</ele><time>2026-04-19T09:38:10.036Z</time></trkpt><trkpt lat="42.1226424" lon="11.926726"><ele>462.0</ele><time>2026-04-19T09:38:12.031Z</time></trkpt><trkpt lat="42.1227495" lon="11.9267287"><ele>462.0</ele><time>2026-04-19T09:38:14.031Z</time></trkpt><trkpt lat="42.1228184" lon="11.926731"><ele>462.0</ele><time>2026-04-19T09:38:15.047Z</time></trkpt><trkpt lat="42.1228942" lon="11.9267234"><ele>462.0</ele><time>2026-04-19T09:38:16.03Z</time></trkpt><trkpt lat="42.1229779" lon="11.9267238"><ele>462.0</ele><time>2026-04-19T09:38:17.036Z</time></trkpt><trkpt lat="42.1230624" lon="11.926732"><ele>462.0</ele><time>2026-04-19T09:38:18.034Z</time></trkpt><trkpt lat="42.1231335" lon="11.9267456"><ele>462.0</ele><time>2026-04-19T09:38:19.043Z</time></trkpt><trkpt lat="42.1232008" lon="11.9268019"><ele>458.0</ele><time>2026-04-19T09:38:20.042Z</time></trkpt><trkpt lat="42.1232632" lon="11.9268562"><ele>454.0</ele><time>2026-04-19T09:38:21.041Z</time></trkpt><trkpt lat="42.1233084" lon="11.9269341"><ele>450.0</ele><time>2026-04-19T09:38:22.037Z</time></trkpt><trkpt lat="42.12335" lon="11.9270097"><ele>446.0</ele><time>2026-04-19T09:38:23.036Z</time></trkpt><trkpt lat="42.1233691" lon="11.9271058"><ele>442.0</ele><time>2026-04-19T09:38:24.038Z</time></trkpt><trkpt lat="42.1233729" lon="11.9271974"><ele>438.0</ele><time>2026-04-19T09:38:25.032Z</time></trkpt><trkpt lat="42.1233835" lon="11.9273586"><ele>438.0</ele><time>2026-04-19T09:38:27.044Z</time></trkpt><trkpt lat="42.1234207" lon="11.9274692"><ele>438.0</ele><time>2026-04-19T09:38:29.033Z</time></trkpt><trkpt lat="42.123495" lon="11.9275326"><ele>438.0</ele><time>2026-04-19T09:38:31.039Z</time></trkpt><trkpt lat="42.123601" lon="11.9275789"><ele>438.0</ele><time>2026-04-19T09:38:33.038Z</time></trkpt><trkpt lat="42.1236635" lon="11.9276062"><ele>438.0</ele><time>2026-04-19T09:38:34.046Z</time></trkpt><trkpt lat="42.1237346" lon="11.9276594"><ele>438.0</ele><time>2026-04-19T09:38:35.034Z</time></trkpt><trkpt lat="42.1237935" lon="11.927711"><ele>438.0</ele><time>2026-04-19T09:38:36.033Z</time></trkpt><trkpt lat="42.1238797" lon="11.927777"><ele>437.99999999999994</ele><time>2026-04-19T09:38:38.033Z</time></trkpt><trkpt lat="42.123957" lon="11.9278037"><ele>437.99999999999994</ele><time>2026-04-19T09:38:40.032Z</time></trkpt><trkpt lat="42.12405" lon="11.9278"><ele>438.0</ele><time>2026-04-19T09:38:43.03Z</time></trkpt><trkpt lat="42.1241471" lon="11.9277586"><ele>438.0</ele><time>2026-04-19T09:38:46.03Z</time></trkpt><trkpt lat="42.1242195" lon="11.9277103"><ele>438.0</ele><time>2026-04-19T09:38:48.037Z</time></trkpt><trkpt lat="42.1242879" lon="11.9276428"><ele>438.0</ele><time>2026-04-19T09:38:50.036Z</time></trkpt><trkpt lat="42.1243711" lon="11.9275746"><ele>438.0</ele><time>2026-04-19T09:38:52.032Z</time></trkpt><trkpt lat="42.1244803" lon="11.9275186"><ele>438.0</ele><time>2026-04-19T09:38:54.038Z</time></trkpt><trkpt lat="42.124539" lon="11.9274815"><ele>438.0</ele><time>2026-04-19T09:38:55.042Z</time></trkpt><trkpt lat="42.1245972" lon="11.9274474"><ele>438.0</ele><time>2026-04-19T09:38:56.03Z</time></trkpt><trkpt lat="42.1247153" lon="11.9274129"><ele>436.0</ele><time>2026-04-19T09:38:58.041Z</time></trkpt><trkpt lat="42.1248158" lon="11.9274069"><ele>433.99999999999994</ele><time>2026-04-19T09:39:00.042Z</time></trkpt><trkpt lat="42.1249134" lon="11.9274219"><ele>431.99999999999994</ele><time>2026-04-19T09:39:02.03Z</time></trkpt><trkpt lat="42.1249792" lon="11.9275145"><ele>430.0</ele><time>2026-04-19T09:39:04.037Z</time></trkpt><trkpt lat="42.1250125" lon="11.9276376"><ele>428.0</ele><time>2026-04-19T09:39:06.03Z</time></trkpt><trkpt lat="42.1250301" lon="11.9277244"><ele>428.0</ele><time>2026-04-19T09:39:08.036Z</time></trkpt><trkpt lat="42.1250555" lon="11.927811"><ele>427.99999999999994</ele><time>2026-04-19T09:39:10.038Z</time></trkpt><trkpt lat="42.1250983" lon="11.9278987"><ele>427.99999999999994</ele><time>2026-04-19T09:39:12.029Z</time></trkpt><trkpt lat="42.1251847" lon="11.9279623"><ele>428.0</ele><time>2026-04-19T09:39:14.034Z</time></trkpt><trkpt lat="42.1252938" lon="11.9280297"><ele>428.0</ele><time>2026-04-19T09:39:16.048Z</time></trkpt><trkpt lat="42.1253946" lon="11.9281141"><ele>427.99999999999994</ele><time>2026-04-19T09:39:18.038Z</time></trkpt><trkpt lat="42.1254381" lon="11.9282351"><ele>428.0</ele><time>2026-04-19T09:39:20.041Z</time></trkpt><trkpt lat="42.1254438" lon="11.9283734"><ele>428.0</ele><time>2026-04-19T09:39:22.046Z</time></trkpt><trkpt lat="42.1254466" lon="11.9284936"><ele>428.0</ele><time>2026-04-19T09:39:24.034Z</time></trkpt><trkpt lat="42.1254634" lon="11.9285892"><ele>427.99999999999994</ele><time>2026-04-19T09:39:26.043Z</time></trkpt><trkpt lat="42.1254875" lon="11.9286906"><ele>428.0</ele><time>2026-04-19T09:39:28.05Z</time></trkpt><trkpt lat="42.1255201" lon="11.9287744"><ele>429.4</ele><time>2026-04-19T09:39:30.042Z</time></trkpt><trkpt lat="42.1255906" lon="11.9288914"><ele>430.79999999999995</ele><time>2026-04-19T09:39:33.034Z</time></trkpt><trkpt lat="42.1256868" lon="11.9290125"><ele>432.2</ele><time>2026-04-19T09:39:35.037Z</time></trkpt><trkpt lat="42.1257323" lon="11.9290892"><ele>433.6</ele><time>2026-04-19T09:39:36.047Z</time></trkpt><trkpt lat="42.1257587" lon="11.929186"><ele>435.0</ele><time>2026-04-19T09:39:37.045Z</time></trkpt><trkpt lat="42.1257634" lon="11.9292844"><ele>433.8</ele><time>2026-04-19T09:39:38.039Z</time></trkpt><trkpt lat="42.1257645" lon="11.9293706"><ele>432.6</ele><time>2026-04-19T09:39:39.035Z</time></trkpt><trkpt lat="42.1257388" lon="11.9295195"><ele>431.4</ele><time>2026-04-19T09:39:41.046Z</time></trkpt><trkpt lat="42.1257044" lon="11.9296921"><ele>430.2</ele><time>2026-04-19T09:39:43.048Z</time></trkpt><trkpt lat="42.1256907" lon="11.929795"><ele>429.0</ele><time>2026-04-19T09:39:44.038Z</time></trkpt><trkpt lat="42.125688" lon="11.9299008"><ele>429.0</ele><time>2026-04-19T09:39:45.037Z</time></trkpt><trkpt lat="42.1256947" lon="11.9299982"><ele>429.0</ele><time>2026-04-19T09:39:46.038Z</time></trkpt><trkpt lat="42.1256943" lon="11.9300865"><ele>429.0</ele><time>2026-04-19T09:39:47.048Z</time></trkpt><trkpt lat="42.1256841" lon="11.930173"><ele>429.0</ele><time>2026-04-19T09:39:48.038Z</time></trkpt><trkpt lat="42.1256589" lon="11.9302565"><ele>429.0</ele><time>2026-04-19T09:39:49.057Z</time></trkpt><trkpt lat="42.1255759" lon="11.9303809"><ele>429.0</ele><time>2026-04-19T09:39:51.053Z</time></trkpt><trkpt lat="42.1255296" lon="11.9304426"><ele>427.2857142857143</ele><time>2026-04-19T09:39:52.044Z</time></trkpt><trkpt lat="42.1254943" lon="11.9305188"><ele>425.57142857142856</ele><time>2026-04-19T09:39:53.055Z</time></trkpt><trkpt lat="42.125465" lon="11.9306004"><ele>423.8571428571429</ele><time>2026-04-19T09:39:54.038Z</time></trkpt><trkpt lat="42.1254399" lon="11.9306796"><ele>422.1428571428571</ele><time>2026-04-19T09:39:55.041Z</time></trkpt><trkpt lat="42.1254161" lon="11.9307594"><ele>420.4285714285714</ele><time>2026-04-19T09:39:56.042Z</time></trkpt><trkpt lat="42.1253833" lon="11.9308515"><ele>418.7142857142857</ele><time>2026-04-19T09:39:57.04Z</time></trkpt><trkpt lat="42.1253618" lon="11.9309379"><ele>417.0</ele><time>2026-04-19T09:39:58.037Z</time></trkpt><trkpt lat="42.125353" lon="11.9310245"><ele>415.6</ele><time>2026-04-19T09:39:59.045Z</time></trkpt><trkpt lat="42.1253671" lon="11.931158"><ele>414.20000000000005</ele><time>2026-04-19T09:40:01.04Z</time></trkpt><trkpt lat="42.1253779" lon="11.9312561"><ele>412.8</ele><time>2026-04-19T09:40:03.047Z</time></trkpt><trkpt lat="42.1253715" lon="11.9313608"><ele>411.4</ele><time>2026-04-19T09:40:05.039Z</time></trkpt><trkpt lat="42.1253186" lon="11.9315217"><ele>410.0</ele><time>2026-04-19T09:40:07.043Z</time></trkpt><trkpt lat="42.1252925" lon="11.9316143"><ele>409.99999999999994</ele><time>2026-04-19T09:40:08.043Z</time></trkpt><trkpt lat="42.1252804" lon="11.9317061"><ele>410.0</ele><time>2026-04-19T09:40:09.038Z</time></trkpt><trkpt lat="42.125263" lon="11.9318037"><ele>410.0</ele><time>2026-04-19T09:40:10.031Z</time></trkpt><trkpt lat="42.1252399" lon="11.931891"><ele>410.0</ele><time>2026-04-19T09:40:11.035Z</time></trkpt><trkpt lat="42.125188" lon="11.932018"><ele>409.99999999999994</ele><time>2026-04-19T09:40:13.042Z</time></trkpt><trkpt lat="42.1251342" lon="11.932123"><ele>410.0</ele><time>2026-04-19T09:40:15.033Z</time></trkpt><trkpt lat="42.1250831" lon="11.9322376"><ele>410.16666666666663</ele><time>2026-04-19T09:40:17.045Z</time></trkpt><trkpt lat="42.1250528" lon="11.9323433"><ele>410.3333333333333</ele><time>2026-04-19T09:40:19.033Z</time></trkpt><trkpt lat="42.1250726" lon="11.9324564"><ele>410.5</ele><time>2026-04-19T09:40:22.034Z</time></trkpt><trkpt lat="42.1251172" lon="11.9325178"><ele>410.66666666666663</ele><time>2026-04-19T09:40:24.036Z</time></trkpt><trkpt lat="42.1252121" lon="11.9325907"><ele>410.8333333333333</ele><time>2026-04-19T09:40:27.034Z</time></trkpt><trkpt lat="42.1252713" lon="11.9326982"><ele>411.0</ele><time>2026-04-19T09:40:29.042Z</time></trkpt><trkpt lat="42.1252866" lon="11.9328126"><ele>411.0</ele><time>2026-04-19T09:40:31.031Z</time></trkpt><trkpt lat="42.1253184" lon="11.9329581"><ele>411.0</ele><time>2026-04-19T09:40:33.041Z</time></trkpt><trkpt lat="42.1253902" lon="11.9331258"><ele>411.0</ele><time>2026-04-19T09:40:35.037Z</time></trkpt><trkpt lat="42.1254357" lon="11.9332189"><ele>411.0</ele><time>2026-04-19T09:40:36.048Z</time></trkpt><trkpt lat="42.1254804" lon="11.9333124"><ele>411.0</ele><time>2026-04-19T09:40:37.031Z</time></trkpt><trkpt lat="42.1255302" lon="11.9334046"><ele>411.8333333333333</ele><time>2026-04-19T09:40:38.042Z</time></trkpt><trkpt lat="42.1255826" lon="11.9335031"><ele>412.66666666666663</ele><time>2026-04-19T09:40:39.034Z</time></trkpt><trkpt lat="42.1256238" lon="11.9335889"><ele>413.5</ele><time>2026-04-19T09:40:40.036Z</time></trkpt><trkpt lat="42.125651" lon="11.9336838"><ele>414.3333333333333</ele><time>2026-04-19T09:40:41.034Z</time></trkpt><trkpt lat="42.1256682" lon="11.9337704"><ele>415.16666666666663</ele><time>2026-04-19T09:40:42.038Z</time></trkpt><trkpt lat="42.1256657" lon="11.9339044"><ele>416.0</ele><time>2026-04-19T09:40:44.039Z</time></trkpt><trkpt lat="42.1255994" lon="11.9340307"><ele>415.99999999999994</ele><time>2026-04-19T09:40:46.037Z</time></trkpt><trkpt lat="42.1255581" lon="11.9341006"><ele>416.0</ele><time>2026-04-19T09:40:47.035Z</time></trkpt><trkpt lat="42.1254936" lon="11.9341665"><ele>416.0</ele><time>2026-04-19T09:40:48.035Z</time></trkpt><trkpt lat="42.1254394" lon="11.9342212"><ele>416.0</ele><time>2026-04-19T09:40:49.031Z</time></trkpt><trkpt lat="42.1253762" lon="11.9343214"><ele>415.99999999999994</ele><time>2026-04-19T09:40:51.043Z</time></trkpt><trkpt lat="42.1253772" lon="11.9344585"><ele>416.0</ele><time>2026-04-19T09:40:53.037Z</time></trkpt><trkpt lat="42.1254126" lon="11.9345381"><ele>417.8333333333333</ele><time>2026-04-19T09:40:54.031Z</time></trkpt><trkpt lat="42.1254693" lon="11.9345986"><ele>419.66666666666663</ele><time>2026-04-19T09:40:55.034Z</time></trkpt><trkpt lat="42.1255346" lon="11.9346585"><ele>421.5</ele><time>2026-04-19T09:40:56.041Z</time></trkpt><trkpt lat="42.1255975" lon="11.934719"><ele>423.33333333333337</ele><time>2026-04-19T09:40:57.05Z</time></trkpt><trkpt lat="42.1256397" lon="11.9348036"><ele>425.1666666666667</ele><time>2026-04-19T09:40:58.033Z</time></trkpt><trkpt lat="42.1256817" lon="11.9349108"><ele>427.0</ele><time>2026-04-19T09:40:59.036Z</time></trkpt><trkpt lat="42.1257125" lon="11.9350479"><ele>422.6666666666667</ele><time>2026-04-19T09:41:00.051Z</time></trkpt><trkpt lat="42.1257448" lon="11.9351724"><ele>418.33333333333337</ele><time>2026-04-19T09:41:01.032Z</time></trkpt><trkpt lat="42.1257737" lon="11.9352957"><ele>414.0</ele><time>2026-04-19T09:41:02.034Z</time></trkpt><trkpt lat="42.1258037" lon="11.9354135"><ele>409.66666666666663</ele><time>2026-04-19T09:41:03.049Z</time></trkpt><trkpt lat="42.1258249" lon="11.9355054"><ele>405.3333333333333</ele><time>2026-04-19T09:41:04.031Z</time></trkpt><trkpt lat="42.1258326" lon="11.9355984"><ele>401.0</ele><time>2026-04-19T09:41:05.041Z</time></trkpt><trkpt lat="42.1258154" lon="11.9357072"><ele>401.0</ele><time>2026-04-19T09:41:06.033Z</time></trkpt><trkpt lat="42.1257947" lon="11.935805"><ele>401.0</ele><time>2026-04-19T09:41:07.037Z</time></trkpt><trkpt lat="42.1257737" lon="11.9358908"><ele>401.0</ele><time>2026-04-19T09:41:08.032Z</time></trkpt><trkpt lat="42.1256834" lon="11.9360069"><ele>401.0</ele><time>2026-04-19T09:41:10.03Z</time></trkpt><trkpt lat="42.1255895" lon="11.9360908"><ele>401.0</ele><time>2026-04-19T09:41:12.035Z</time></trkpt><trkpt lat="42.1255114" lon="11.9361958"><ele>402.7142857142857</ele><time>2026-04-19T09:41:14.037Z</time></trkpt><trkpt lat="42.1254836" lon="11.936282"><ele>404.42857142857144</ele><time>2026-04-19T09:41:15.052Z</time></trkpt><trkpt lat="42.1254689" lon="11.9363736"><ele>406.1428571428571</ele><time>2026-04-19T09:41:16.033Z</time></trkpt><trkpt lat="42.1254705" lon="11.9364767"><ele>407.8571428571429</ele><time>2026-04-19T09:41:17.038Z</time></trkpt><trkpt lat="42.1254657" lon="11.9365908"><ele>409.57142857142856</ele><time>2026-04-19T09:41:18.024Z</time></trkpt><trkpt lat="42.1254577" lon="11.9366902"><ele>411.2857142857143</ele><time>2026-04-19T09:41:19.041Z</time></trkpt><trkpt lat="42.125443" lon="11.9367763"><ele>413.0</ele><time>2026-04-19T09:41:20.035Z</time></trkpt><trkpt lat="42.1254188" lon="11.936863"><ele>412.99999999999994</ele><time>2026-04-19T09:41:21.042Z</time></trkpt><trkpt lat="42.1253842" lon="11.9369661"><ele>413.0</ele><time>2026-04-19T09:41:22.039Z</time></trkpt><trkpt lat="42.1253404" lon="11.9370746"><ele>413.0</ele><time>2026-04-19T09:41:23.04Z</time></trkpt><trkpt lat="42.1253023" lon="11.9371819"><ele>413.0</ele><time>2026-04-19T09:41:24.036Z</time></trkpt><trkpt lat="42.1252706" lon="11.937274"><ele>412.99999999999994</ele><time>2026-04-19T09:41:25.042Z</time></trkpt><trkpt lat="42.125243" lon="11.9373661"><ele>413.0</ele><time>2026-04-19T09:41:26.032Z</time></trkpt><trkpt lat="42.1251992" lon="11.937497"><ele>411.79999999999995</ele><time>2026-04-19T09:41:28.037Z</time></trkpt><trkpt lat="42.1251474" lon="11.9376619"><ele>410.6</ele><time>2026-04-19T09:41:30.035Z</time></trkpt><trkpt lat="42.1250828" lon="11.9377745"><ele>409.4</ele><time>2026-04-19T09:41:31.041Z</time></trkpt><trkpt lat="42.1250186" lon="11.9378553"><ele>408.20000000000005</ele><time>2026-04-19T09:41:32.032Z</time></trkpt><trkpt lat="42.1249534" lon="11.9379399"><ele>407.0</ele><time>2026-04-19T09:41:33.046Z</time></trkpt><trkpt lat="42.1248988" lon="11.9380355"><ele>407.0</ele><time>2026-04-19T09:41:34.037Z</time></trkpt><trkpt lat="42.1248703" lon="11.9381359"><ele>407.0</ele><time>2026-04-19T09:41:35.039Z</time></trkpt><trkpt lat="42.1248734" lon="11.9382308"><ele>407.0</ele><time>2026-04-19T09:41:36.037Z</time></trkpt><trkpt lat="42.1248971" lon="11.9383424"><ele>407.0</ele><time>2026-04-19T09:41:38.033Z</time></trkpt><trkpt lat="42.1249806" lon="11.9384895"><ele>407.0</ele><time>2026-04-19T09:41:40.035Z</time></trkpt><trkpt lat="42.1250553" lon="11.9385617"><ele>407.8333333333333</ele><time>2026-04-19T09:41:41.038Z</time></trkpt><trkpt lat="42.125125" lon="11.9386308"><ele>408.66666666666663</ele><time>2026-04-19T09:41:42.047Z</time></trkpt><trkpt lat="42.1252032" lon="11.938722"><ele>409.5</ele><time>2026-04-19T09:41:43.034Z</time></trkpt><trkpt lat="42.1252737" lon="11.9388127"><ele>410.33333333333337</ele><time>2026-04-19T09:41:44.036Z</time></trkpt><trkpt lat="42.1253316" lon="11.9388783"><ele>411.1666666666667</ele><time>2026-04-19T09:41:45.044Z</time></trkpt><trkpt lat="42.1253841" lon="11.9389531"><ele>412.0</ele><time>2026-04-19T09:41:46.04Z</time></trkpt><trkpt lat="42.1254227" lon="11.939105"><ele>412.00000000000006</ele><time>2026-04-19T09:41:48.045Z</time></trkpt><trkpt lat="42.1253928" lon="11.9391833"><ele>412.0</ele><time>2026-04-19T09:41:49.039Z</time></trkpt><trkpt lat="42.1253542" lon="11.9392594"><ele>412.0</ele><time>2026-04-19T09:41:50.037Z</time></trkpt><trkpt lat="42.1253153" lon="11.9393309"><ele>412.0</ele><time>2026-04-19T09:41:51.053Z</time></trkpt><trkpt lat="42.1252755" lon="11.9394052"><ele>412.00000000000006</ele><time>2026-04-19T09:41:52.036Z</time></trkpt><trkpt lat="42.1252367" lon="11.939485"><ele>412.0</ele><time>2026-04-19T09:41:53.043Z</time></trkpt><trkpt lat="42.1252328" lon="11.9396378"><ele>411.83333333333337</ele><time>2026-04-19T09:41:55.044Z</time></trkpt><trkpt lat="42.1252468" lon="11.9397208"><ele>411.6666666666667</ele><time>2026-04-19T09:41:56.04Z</time></trkpt><trkpt lat="42.1252592" lon="11.9398048"><ele>411.5</ele><time>2026-04-19T09:41:57.044Z</time></trkpt><trkpt lat="42.1252305" lon="11.9399744"><ele>411.33333333333337</ele><time>2026-04-19T09:41:59.045Z</time></trkpt><trkpt lat="42.1252036" lon="11.9400559"><ele>411.1666666666667</ele><time>2026-04-19T09:42:00.042Z</time></trkpt><trkpt lat="42.1251735" lon="11.940136"><ele>411.0</ele><time>2026-04-19T09:42:01.045Z</time></trkpt><trkpt lat="42.1251591" lon="11.9402332"><ele>409.5</ele><time>2026-04-19T09:42:02.05Z</time></trkpt><trkpt lat="42.1251505" lon="11.9403428"><ele>408.0</ele><time>2026-04-19T09:42:03.045Z</time></trkpt><trkpt lat="42.125145" lon="11.9404452"><ele>406.5</ele><time>2026-04-19T09:42:04.043Z</time></trkpt><trkpt lat="42.1251403" lon="11.9405434"><ele>405.0</ele><time>2026-04-19T09:42:05.037Z</time></trkpt><trkpt lat="42.1251206" lon="11.9406623"><ele>403.5</ele><time>2026-04-19T09:42:07.044Z</time></trkpt><trkpt lat="42.1251043" lon="11.9408158"><ele>402.0</ele><time>2026-04-19T09:42:09.045Z</time></trkpt><trkpt lat="42.1251147" lon="11.9409215"><ele>401.0</ele><time>2026-04-19T09:42:10.043Z</time></trkpt><trkpt lat="42.1251237" lon="11.94103"><ele>400.0</ele><time>2026-04-19T09:42:11.04Z</time></trkpt><trkpt lat="42.125116" lon="11.941122"><ele>399.0</ele><time>2026-04-19T09:42:12.04Z</time></trkpt><trkpt lat="42.125091" lon="11.9412504"><ele>398.0</ele><time>2026-04-19T09:42:14.038Z</time></trkpt><trkpt lat="42.1249978" lon="11.9413067"><ele>397.0</ele><time>2026-04-19T09:42:16.05Z</time></trkpt><trkpt lat="42.1248669" lon="11.9412935"><ele>397.00000000000006</ele><time>2026-04-19T09:42:18.039Z</time></trkpt><trkpt lat="42.1247981" lon="11.9412633"><ele>397.0</ele><time>2026-04-19T09:42:19.042Z</time></trkpt><trkpt lat="42.1247062" lon="11.9412141"><ele>397.0</ele><time>2026-04-19T09:42:20.035Z</time></trkpt><trkpt lat="42.1246149" lon="11.9411654"><ele>397.0</ele><time>2026-04-19T09:42:21.049Z</time></trkpt><trkpt lat="42.1245241" lon="11.9411386"><ele>397.00000000000006</ele><time>2026-04-19T09:42:22.044Z</time></trkpt><trkpt lat="42.1244486" lon="11.9411279"><ele>397.0</ele><time>2026-04-19T09:42:23.045Z</time></trkpt><trkpt lat="42.1243811" lon="11.941118"><ele>397.0</ele><time>2026-04-19T09:42:24.041Z</time></trkpt><trkpt lat="42.1242643" lon="11.9411347"><ele>397.0</ele><time>2026-04-19T09:42:26.032Z</time></trkpt><trkpt lat="42.1241564" lon="11.9411712"><ele>397.0</ele><time>2026-04-19T09:42:28.038Z</time></trkpt><trkpt lat="42.1241014" lon="11.9412133"><ele>397.0</ele><time>2026-04-19T09:42:29.039Z</time></trkpt><trkpt lat="42.1240509" lon="11.9412717"><ele>397.0</ele><time>2026-04-19T09:42:30.04Z</time></trkpt><trkpt lat="42.1239591" lon="11.9413605"><ele>401.8</ele><time>2026-04-19T09:42:32.037Z</time></trkpt><trkpt lat="42.1239077" lon="11.941476"><ele>406.6</ele><time>2026-04-19T09:42:34.039Z</time></trkpt><trkpt lat="42.1238963" lon="11.9416124"><ele>411.40000000000003</ele><time>2026-04-19T09:42:36.047Z</time></trkpt><trkpt lat="42.1238315" lon="11.9417304"><ele>416.20000000000005</ele><time>2026-04-19T09:42:38.047Z</time></trkpt><trkpt lat="42.1237422" lon="11.9417972"><ele>421.0</ele><time>2026-04-19T09:42:40.044Z</time></trkpt><trkpt lat="42.123655" lon="11.9418967"><ele>421.00000000000006</ele><time>2026-04-19T09:42:42.037Z</time></trkpt><trkpt lat="42.123618" lon="11.9419698"><ele>421.0</ele><time>2026-04-19T09:42:43.046Z</time></trkpt><trkpt lat="42.123606" lon="11.9421401"><ele>421.0</ele><time>2026-04-19T09:42:45.05Z</time></trkpt><trkpt lat="42.1236291" lon="11.9422244"><ele>421.0</ele><time>2026-04-19T09:42:46.05Z</time></trkpt><trkpt lat="42.1236774" lon="11.9422945"><ele>421.00000000000006</ele><time>2026-04-19T09:42:47.041Z</time></trkpt><trkpt lat="42.1237351" lon="11.9423614"><ele>421.0</ele><time>2026-04-19T09:42:48.045Z</time></trkpt><trkpt lat="42.1237846" lon="11.9424194"><ele>421.0</ele><time>2026-04-19T09:42:49.048Z</time></trkpt><trkpt lat="42.123834" lon="11.9424975"><ele>421.0</ele><time>2026-04-19T09:42:50.049Z</time></trkpt><trkpt lat="42.1238781" lon="11.9425926"><ele>421.0</ele><time>2026-04-19T09:42:51.037Z</time></trkpt><trkpt lat="42.123918" lon="11.9426809"><ele>421.0</ele><time>2026-04-19T09:42:52.039Z</time></trkpt><trkpt lat="42.1238927" lon="11.9428474"><ele>421.0</ele><time>2026-04-19T09:42:54.04Z</time></trkpt><trkpt lat="42.1238232" lon="11.9429399"><ele>417.8</ele><time>2026-04-19T09:42:55.041Z</time></trkpt><trkpt lat="42.1237505" lon="11.9430356"><ele>414.6</ele><time>2026-04-19T09:42:56.043Z</time></trkpt><trkpt lat="42.1236522" lon="11.943109"><ele>411.4</ele><time>2026-04-19T09:42:57.05Z</time></trkpt><trkpt lat="42.1235461" lon="11.943175"><ele>408.2</ele><time>2026-04-19T09:42:58.046Z</time></trkpt><trkpt lat="42.1234389" lon="11.9432437"><ele>405.0</ele><time>2026-04-19T09:42:59.043Z</time></trkpt><trkpt lat="42.1233477" lon="11.9433081"><ele>405.0</ele><time>2026-04-19T09:43:00.033Z</time></trkpt><trkpt lat="42.1232777" lon="11.9433643"><ele>405.0</ele><time>2026-04-19T09:43:01.04Z</time></trkpt><trkpt lat="42.1232187" lon="11.9434163"><ele>405.0</ele><time>2026-04-19T09:43:02.036Z</time></trkpt><trkpt lat="42.1231362" lon="11.9435014"><ele>405.0</ele><time>2026-04-19T09:43:04.049Z</time></trkpt><trkpt lat="42.1231175" lon="11.9436455"><ele>405.0</ele><time>2026-04-19T09:43:06.04Z</time></trkpt><trkpt lat="42.1231166" lon="11.9437828"><ele>407.0</ele><time>2026-04-19T09:43:08.047Z</time></trkpt><trkpt lat="42.1231371" lon="11.9438696"><ele>409.0</ele><time>2026-04-19T09:43:09.053Z</time></trkpt><trkpt lat="42.1231621" lon="11.9439805"><ele>411.0</ele><time>2026-04-19T09:43:10.046Z</time></trkpt><trkpt lat="42.1231885" lon="11.944116"><ele>413.0</ele><time>2026-04-19T09:43:11.045Z</time></trkpt><trkpt lat="42.1232098" lon="11.9442615"><ele>415.0</ele><time>2026-04-19T09:43:12.053Z</time></trkpt><trkpt lat="42.1232345" lon="11.944421"><ele>409.6</ele><time>2026-04-19T09:43:13.039Z</time></trkpt><trkpt lat="42.123254" lon="11.9445499"><ele>404.2</ele><time>2026-04-19T09:43:14.036Z</time></trkpt><trkpt lat="42.123272" lon="11.9446541"><ele>398.79999999999995</ele><time>2026-04-19T09:43:15.038Z</time></trkpt><trkpt lat="42.1233098" lon="11.9448241"><ele>393.4</ele><time>2026-04-19T09:43:17.039Z</time></trkpt><trkpt lat="42.1233099" lon="11.9449602"><ele>388.0</ele><time>2026-04-19T09:43:19.043Z</time></trkpt><trkpt lat="42.1232725" lon="11.9450452"><ele>389.6666666666667</ele><time>2026-04-19T09:43:21.046Z</time></trkpt><trkpt lat="42.1231807" lon="11.9450515"><ele>391.33333333333337</ele><time>2026-04-19T09:43:23.043Z</time></trkpt><trkpt lat="42.1231173" lon="11.9450514"><ele>393.0</ele><time>2026-04-19T09:43:24.036Z</time></trkpt><trkpt lat="42.1230474" lon="11.9450734"><ele>394.66666666666663</ele><time>2026-04-19T09:43:25.036Z</time></trkpt><trkpt lat="42.1229806" lon="11.945093"><ele>396.3333333333333</ele><time>2026-04-19T09:43:26.039Z</time></trkpt><trkpt lat="42.12288" lon="11.9451429"><ele>398.0</ele><time>2026-04-19T09:43:28.034Z</time></trkpt><trkpt lat="42.1228023" lon="11.9452285"><ele>398.0</ele><time>2026-04-19T09:43:30.031Z</time></trkpt><trkpt lat="42.1227083" lon="11.9454079"><ele>398.0</ele><time>2026-04-19T09:43:32.042Z</time></trkpt><trkpt lat="42.1226744" lon="11.9455184"><ele>398.0</ele><time>2026-04-19T09:43:33.041Z</time></trkpt><trkpt lat="42.1226277" lon="11.9456497"><ele>398.0</ele><time>2026-04-19T09:43:34.033Z</time></trkpt><trkpt lat="42.1225846" lon="11.9458141"><ele>394.79999999999995</ele><time>2026-04-19T09:43:35.031Z</time></trkpt><trkpt lat="42.1225486" lon="11.9459807"><ele>391.6</ele><time>2026-04-19T09:43:36.031Z</time></trkpt><trkpt lat="42.1225433" lon="11.9461293"><ele>388.4</ele><time>2026-04-19T09:43:37.041Z</time></trkpt><trkpt lat="42.1225306" lon="11.946263"><ele>385.20000000000005</ele><time>2026-04-19T09:43:38.049Z</time></trkpt><trkpt lat="42.1225211" lon="11.9463675"><ele>382.0</ele><time>2026-04-19T09:43:39.05Z</time></trkpt><trkpt lat="42.1225002" lon="11.9464653"><ele>382.0</ele><time>2026-04-19T09:43:40.035Z</time></trkpt><trkpt lat="42.122455" lon="11.9465439"><ele>382.0</ele><time>2026-04-19T09:43:41.037Z</time></trkpt><trkpt lat="42.122394" lon="11.9466064"><ele>382.0</ele><time>2026-04-19T09:43:42.035Z</time></trkpt><trkpt lat="42.122329" lon="11.946697"><ele>382.0</ele><time>2026-04-19T09:43:43.042Z</time></trkpt><trkpt lat="42.1222668" lon="11.9467879"><ele>382.0</ele><time>2026-04-19T09:43:44.035Z</time></trkpt><trkpt lat="42.1222163" lon="11.9468783"><ele>382.0</ele><time>2026-04-19T09:43:45.034Z</time></trkpt><trkpt lat="42.1221692" lon="11.9469625"><ele>383.66666666666663</ele><time>2026-04-19T09:43:46.03Z</time></trkpt><trkpt lat="42.1221153" lon="11.9470411"><ele>385.3333333333333</ele><time>2026-04-19T09:43:47.037Z</time></trkpt><trkpt lat="42.1220598" lon="11.9471266"><ele>387.0</ele><time>2026-04-19T09:43:48.043Z</time></trkpt><trkpt lat="42.1219956" lon="11.947215"><ele>388.66666666666663</ele><time>2026-04-19T09:43:49.042Z</time></trkpt><trkpt lat="42.1219333" lon="11.9472872"><ele>390.3333333333333</ele><time>2026-04-19T09:43:50.036Z</time></trkpt><trkpt lat="42.1218858" lon="11.9473483"><ele>392.0</ele><time>2026-04-19T09:43:51.052Z</time></trkpt><trkpt lat="42.1218624" lon="11.9474392"><ele>391.99999999999994</ele><time>2026-04-19T09:43:52.038Z</time></trkpt><trkpt lat="42.1218624" lon="11.9475639"><ele>392.0</ele><time>2026-04-19T09:43:53.032Z</time></trkpt><trkpt lat="42.1218659" lon="11.9476811"><ele>392.0</ele><time>2026-04-19T09:43:54.031Z</time></trkpt><trkpt lat="42.1218642" lon="11.9477724"><ele>392.0</ele><time>2026-04-19T09:43:55.039Z</time></trkpt><trkpt lat="42.1218661" lon="11.9478692"><ele>391.99999999999994</ele><time>2026-04-19T09:43:56.033Z</time></trkpt><trkpt lat="42.1218836" lon="11.9479731"><ele>392.0</ele><time>2026-04-19T09:43:57.038Z</time></trkpt><trkpt lat="42.1219201" lon="11.9480668"><ele>391.99999999999994</ele><time>2026-04-19T09:43:58.033Z</time></trkpt><trkpt lat="42.1219727" lon="11.9481549"><ele>392.0</ele><time>2026-04-19T09:43:59.033Z</time></trkpt><trkpt lat="42.1220261" lon="11.9482495"><ele>392.0</ele><time>2026-04-19T09:44:00.053Z</time></trkpt><trkpt lat="42.1220725" lon="11.9483423"><ele>392.0</ele><time>2026-04-19T09:44:01.038Z</time></trkpt><trkpt lat="42.1221042" lon="11.9484262"><ele>391.99999999999994</ele><time>2026-04-19T09:44:02.047Z</time></trkpt><trkpt lat="42.122132" lon="11.9485118"><ele>392.0</ele><time>2026-04-19T09:44:03.034Z</time></trkpt><trkpt lat="42.1221588" lon="11.9485899"><ele>393.6</ele><time>2026-04-19T09:44:04.037Z</time></trkpt><trkpt lat="42.1222258" lon="11.948749"><ele>395.20000000000005</ele><time>2026-04-19T09:44:06.029Z</time></trkpt><trkpt lat="42.1222668" lon="11.948853"><ele>396.8</ele><time>2026-04-19T09:44:07.046Z</time></trkpt><trkpt lat="42.1223064" lon="11.9489767"><ele>398.4</ele><time>2026-04-19T09:44:08.038Z</time></trkpt><trkpt lat="42.1223466" lon="11.9490976"><ele>400.0</ele><time>2026-04-19T09:44:09.034Z</time></trkpt><trkpt lat="42.1223908" lon="11.9492072"><ele>397.1666666666667</ele><time>2026-04-19T09:44:10.034Z</time></trkpt><trkpt lat="42.1224315" lon="11.9493095"><ele>394.33333333333337</ele><time>2026-04-19T09:44:11.038Z</time></trkpt><trkpt lat="42.1224909" lon="11.9493959"><ele>391.5</ele><time>2026-04-19T09:44:12.034Z</time></trkpt><trkpt lat="42.1225692" lon="11.9494407"><ele>388.6666666666667</ele><time>2026-04-19T09:44:13.037Z</time></trkpt><trkpt lat="42.1226552" lon="11.949469"><ele>385.83333333333337</ele><time>2026-04-19T09:44:14.034Z</time></trkpt><trkpt lat="42.1227357" lon="11.9494979"><ele>383.0</ele><time>2026-04-19T09:44:15.033Z</time></trkpt><trkpt lat="42.1228073" lon="11.9495464"><ele>383.0</ele><time>2026-04-19T09:44:16.034Z</time></trkpt><trkpt lat="42.1228535" lon="11.9496441"><ele>383.0</ele><time>2026-04-19T09:44:17.041Z</time></trkpt><trkpt lat="42.1228908" lon="11.9497856"><ele>383.0</ele><time>2026-04-19T09:44:18.037Z</time></trkpt><trkpt lat="42.1229181" lon="11.9499245"><ele>383.0</ele><time>2026-04-19T09:44:19.033Z</time></trkpt><trkpt lat="42.122928" lon="11.9500235"><ele>383.0</ele><time>2026-04-19T09:44:20.039Z</time></trkpt><trkpt lat="42.1229496" lon="11.9501046"><ele>383.0</ele><time>2026-04-19T09:44:21.037Z</time></trkpt><trkpt lat="42.1230665" lon="11.9501709"><ele>384.33333333333337</ele><time>2026-04-19T09:44:23.04Z</time></trkpt><trkpt lat="42.1231463" lon="11.9501838"><ele>385.6666666666667</ele><time>2026-04-19T09:44:24.036Z</time></trkpt><trkpt lat="42.1232089" lon="11.9502192"><ele>387.0</ele><time>2026-04-19T09:44:25.04Z</time></trkpt><trkpt lat="42.1232543" lon="11.9503112"><ele>388.33333333333337</ele><time>2026-04-19T09:44:26.046Z</time></trkpt><trkpt lat="42.123266" lon="11.9504369"><ele>389.6666666666667</ele><time>2026-04-19T09:44:27.038Z</time></trkpt><trkpt lat="42.1232653" lon="11.9505794"><ele>391.0</ele><time>2026-04-19T09:44:28.038Z</time></trkpt><trkpt lat="42.123275" lon="11.9507307"><ele>388.20000000000005</ele><time>2026-04-19T09:44:29.046Z</time></trkpt><trkpt lat="42.1232904" lon="11.950884"><ele>385.40000000000003</ele><time>2026-04-19T09:44:30.035Z</time></trkpt><trkpt lat="42.1233068" lon="11.9510187"><ele>382.6</ele><time>2026-04-19T09:44:31.03Z</time></trkpt><trkpt lat="42.1233203" lon="11.95112"><ele>379.8</ele><time>2026-04-19T09:44:32.035Z</time></trkpt><trkpt lat="42.1233747" lon="11.9512424"><ele>377.0</ele><time>2026-04-19T09:44:34.036Z</time></trkpt><trkpt lat="42.123475" lon="11.9512828"><ele>377.0</ele><time>2026-04-19T09:44:36.04Z</time></trkpt><trkpt lat="42.1235511" lon="11.9512933"><ele>377.0</ele><time>2026-04-19T09:44:37.04Z</time></trkpt><trkpt lat="42.1236375" lon="11.9513362"><ele>377.0</ele><time>2026-04-19T09:44:38.039Z</time></trkpt><trkpt lat="42.1237381" lon="11.9514391"><ele>377.0</ele><time>2026-04-19T09:44:39.041Z</time></trkpt><trkpt lat="42.1238158" lon="11.9515483"><ele>377.0</ele><time>2026-04-19T09:44:40.046Z</time></trkpt><trkpt lat="42.1238797" lon="11.9516252"><ele>377.0</ele><time>2026-04-19T09:44:41.048Z</time></trkpt><trkpt lat="42.1239229" lon="11.9517185"><ele>377.0</ele><time>2026-04-19T09:44:42.043Z</time></trkpt><trkpt lat="42.1239419" lon="11.9518461"><ele>377.0</ele><time>2026-04-19T09:44:43.044Z</time></trkpt><trkpt lat="42.1239378" lon="11.951986"><ele>377.0</ele><time>2026-04-19T09:44:44.04Z</time></trkpt><trkpt lat="42.1239284" lon="11.9521435"><ele>377.0</ele><time>2026-04-19T09:44:45.035Z</time></trkpt><trkpt lat="42.1239031" lon="11.9523026"><ele>377.0</ele><time>2026-04-19T09:44:46.04Z</time></trkpt><trkpt lat="42.1238757" lon="11.9524517"><ele>377.0</ele><time>2026-04-19T09:44:47.043Z</time></trkpt><trkpt lat="42.1238484" lon="11.9525826"><ele>377.0</ele><time>2026-04-19T09:44:48.035Z</time></trkpt><trkpt lat="42.1238172" lon="11.9527093"><ele>377.0</ele><time>2026-04-19T09:44:49.041Z</time></trkpt><trkpt lat="42.1237843" lon="11.9528248"><ele>377.0</ele><time>2026-04-19T09:44:50.047Z</time></trkpt><trkpt lat="42.1237462" lon="11.9529491"><ele>375.40000000000003</ele><time>2026-04-19T09:44:51.043Z</time></trkpt><trkpt lat="42.1237135" lon="11.9530698"><ele>373.8</ele><time>2026-04-19T09:44:52.044Z</time></trkpt><trkpt lat="42.1236784" lon="11.9531834"><ele>372.2</ele><time>2026-04-19T09:44:53.036Z</time></trkpt><trkpt lat="42.1236331" lon="11.9532875"><ele>370.6</ele><time>2026-04-19T09:44:54.043Z</time></trkpt><trkpt lat="42.123583" lon="11.9534185"><ele>369.0</ele><time>2026-04-19T09:44:55.041Z</time></trkpt><trkpt lat="42.1235531" lon="11.9535676"><ele>367.6</ele><time>2026-04-19T09:44:56.052Z</time></trkpt><trkpt lat="42.1235446" lon="11.9537048"><ele>366.2</ele><time>2026-04-19T09:44:57.04Z</time></trkpt><trkpt lat="42.1235409" lon="11.9538421"><ele>364.8</ele><time>2026-04-19T09:44:58.039Z</time></trkpt><trkpt lat="42.1235374" lon="11.9539985"><ele>363.40000000000003</ele><time>2026-04-19T09:44:59.044Z</time></trkpt><trkpt lat="42.1235406" lon="11.954145"><ele>362.0</ele><time>2026-04-19T09:45:00.049Z</time></trkpt><trkpt lat="42.1235401" lon="11.954292"><ele>360.33333333333337</ele><time>2026-04-19T09:45:01.041Z</time></trkpt><trkpt lat="42.1235535" lon="11.9544446"><ele>358.6666666666667</ele><time>2026-04-19T09:45:02.042Z</time></trkpt><trkpt lat="42.123567" lon="11.954566"><ele>357.0</ele><time>2026-04-19T09:45:03.045Z</time></trkpt><trkpt lat="42.1235621" lon="11.9546603"><ele>355.3333333333333</ele><time>2026-04-19T09:45:04.047Z</time></trkpt><trkpt lat="42.1235302" lon="11.9547548"><ele>353.66666666666663</ele><time>2026-04-19T09:45:05.042Z</time></trkpt><trkpt lat="42.1234796" lon="11.9548501"><ele>352.0</ele><time>2026-04-19T09:45:06.038Z</time></trkpt><trkpt lat="42.1234301" lon="11.9549486"><ele>352.0</ele><time>2026-04-19T09:45:07.046Z</time></trkpt><trkpt lat="42.1233859" lon="11.9550291"><ele>352.0</ele><time>2026-04-19T09:45:08.049Z</time></trkpt><trkpt lat="42.1233278" lon="11.9550738"><ele>352.0</ele><time>2026-04-19T09:45:09.048Z</time></trkpt><trkpt lat="42.1232577" lon="11.9551073"><ele>352.0</ele><time>2026-04-19T09:45:10.046Z</time></trkpt><trkpt lat="42.1231812" lon="11.9551252"><ele>352.0</ele><time>2026-04-19T09:45:11.053Z</time></trkpt><trkpt lat="42.1231124" lon="11.9550988"><ele>352.0</ele><time>2026-04-19T09:45:12.059Z</time></trkpt><trkpt lat="42.1230415" lon="11.9550614"><ele>352.0</ele><time>2026-04-19T09:45:13.048Z</time></trkpt><trkpt lat="42.1229733" lon="11.9550286"><ele>350.8571428571429</ele><time>2026-04-19T09:45:14.043Z</time></trkpt><trkpt lat="42.1229132" lon="11.9549898"><ele>349.7142857142857</ele><time>2026-04-19T09:45:15.083Z</time></trkpt><trkpt lat="42.1228639" lon="11.9549309"><ele>348.57142857142856</ele><time>2026-04-19T09:45:16.06Z</time></trkpt><trkpt lat="42.1228103" lon="11.9548663"><ele>347.42857142857144</ele><time>2026-04-19T09:45:17.038Z</time></trkpt><trkpt lat="42.1227463" lon="11.9548072"><ele>346.2857142857143</ele><time>2026-04-19T09:45:18.046Z</time></trkpt><trkpt lat="42.1226769" lon="11.9547522"><ele>345.14285714285717</ele><time>2026-04-19T09:45:19.049Z</time></trkpt><trkpt lat="42.1225955" lon="11.9547225"><ele>344.0</ele><time>2026-04-19T09:45:20.038Z</time></trkpt><trkpt lat="42.1225155" lon="11.9546993"><ele>344.0</ele><time>2026-04-19T09:45:21.074Z</time></trkpt><trkpt lat="42.1224394" lon="11.9546824"><ele>344.0</ele><time>2026-04-19T09:45:22.038Z</time></trkpt><trkpt lat="42.122358" lon="11.9546791"><ele>344.0</ele><time>2026-04-19T09:45:23.044Z</time></trkpt><trkpt lat="42.1222857" lon="11.9546989"><ele>344.0</ele><time>2026-04-19T09:45:24.057Z</time></trkpt><trkpt lat="42.1221675" lon="11.9546934"><ele>344.0</ele><time>2026-04-19T09:45:26.037Z</time></trkpt><trkpt lat="42.1221003" lon="11.9546702"><ele>344.0</ele><time>2026-04-19T09:45:27.046Z</time></trkpt><trkpt lat="42.1220266" lon="11.9546498"><ele>343.1666666666667</ele><time>2026-04-19T09:45:28.051Z</time></trkpt><trkpt lat="42.1219451" lon="11.9546348"><ele>342.33333333333337</ele><time>2026-04-19T09:45:29.091Z</time></trkpt><trkpt lat="42.1218516" lon="11.9546282"><ele>341.5</ele><time>2026-04-19T09:45:30.042Z</time></trkpt><trkpt lat="42.121777" lon="11.9546179"><ele>340.6666666666667</ele><time>2026-04-19T09:45:31.037Z</time></trkpt><trkpt lat="42.1217094" lon="11.9546101"><ele>339.8333333333333</ele><time>2026-04-19T09:45:32.04Z</time></trkpt><trkpt lat="42.1216348" lon="11.9546079"><ele>339.0</ele><time>2026-04-19T09:45:33.037Z</time></trkpt><trkpt lat="42.1215579" lon="11.9546127"><ele>341.0</ele><time>2026-04-19T09:45:34.045Z</time></trkpt><trkpt lat="42.1214727" lon="11.9546254"><ele>343.0</ele><time>2026-04-19T09:45:35.038Z</time></trkpt><trkpt lat="42.1213932" lon="11.9546739"><ele>345.0</ele><time>2026-04-19T09:45:36.047Z</time></trkpt><trkpt lat="42.1213169" lon="11.954755"><ele>347.0</ele><time>2026-04-19T09:45:37.042Z</time></trkpt><trkpt lat="42.121251" lon="11.95485"><ele>349.0</ele><time>2026-04-19T09:45:38.041Z</time></trkpt><trkpt lat="42.1211993" lon="11.9549516"><ele>346.6</ele><time>2026-04-19T09:45:39.041Z</time></trkpt><trkpt lat="42.1211494" lon="11.9550572"><ele>344.2</ele><time>2026-04-19T09:45:40.056Z</time></trkpt><trkpt lat="42.1210948" lon="11.9551665"><ele>341.8</ele><time>2026-04-19T09:45:41.041Z</time></trkpt><trkpt lat="42.121039" lon="11.95528"><ele>339.40000000000003</ele><time>2026-04-19T09:45:42.048Z</time></trkpt><trkpt lat="42.1209866" lon="11.9554022"><ele>337.0</ele><time>2026-04-19T09:45:43.04Z</time></trkpt><trkpt lat="42.1209437" lon="11.9555287"><ele>337.0</ele><time>2026-04-19T09:45:44.045Z</time></trkpt><trkpt lat="42.1209131" lon="11.9556399"><ele>337.0</ele><time>2026-04-19T09:45:45.049Z</time></trkpt><trkpt lat="42.1208948" lon="11.9557369"><ele>337.0</ele><time>2026-04-19T09:45:46.039Z</time></trkpt><trkpt lat="42.1208758" lon="11.9558244"><ele>337.0</ele><time>2026-04-19T09:45:47.047Z</time></trkpt><trkpt lat="42.1208545" lon="11.9559055"><ele>337.0</ele><time>2026-04-19T09:45:48.046Z</time></trkpt><trkpt lat="42.1208157" lon="11.9559846"><ele>337.0</ele><time>2026-04-19T09:45:49.05Z</time></trkpt><trkpt lat="42.1207467" lon="11.9561068"><ele>337.16666666666663</ele><time>2026-04-19T09:45:51.049Z</time></trkpt><trkpt lat="42.1207123" lon="11.9561825"><ele>337.3333333333333</ele><time>2026-04-19T09:45:52.045Z</time></trkpt><trkpt lat="42.1206828" lon="11.9562656"><ele>337.5</ele><time>2026-04-19T09:45:53.043Z</time></trkpt><trkpt lat="42.1206293" lon="11.9564219"><ele>337.6666666666667</ele><time>2026-04-19T09:45:55.041Z</time></trkpt><trkpt lat="42.1205955" lon="11.9565293"><ele>337.83333333333337</ele><time>2026-04-19T09:45:56.04Z</time></trkpt><trkpt lat="42.1205752" lon="11.9566411"><ele>338.0</ele><time>2026-04-19T09:45:57.038Z</time></trkpt><trkpt lat="42.12056" lon="11.9567512"><ele>337.57142857142856</ele><time>2026-04-19T09:45:58.037Z</time></trkpt><trkpt lat="42.120552" lon="11.9568424"><ele>337.1428571428571</ele><time>2026-04-19T09:45:59.034Z</time></trkpt><trkpt lat="42.1205436" lon="11.956933"><ele>336.71428571428567</ele><time>2026-04-19T09:46:00.045Z</time></trkpt><trkpt lat="42.1205296" lon="11.957021"><ele>336.2857142857143</ele><time>2026-04-19T09:46:01.031Z</time></trkpt><trkpt lat="42.1205028" lon="11.9571026"><ele>335.85714285714283</ele><time>2026-04-19T09:46:02.038Z</time></trkpt><trkpt lat="42.1204658" lon="11.9572313"><ele>335.4285714285714</ele><time>2026-04-19T09:46:04.039Z</time></trkpt><trkpt lat="42.1204473" lon="11.957319"><ele>335.0</ele><time>2026-04-19T09:46:07.038Z</time></trkpt><trkpt lat="42.1204715" lon="11.9574046"><ele>335.0</ele><time>2026-04-19T09:47:17.053Z</time></trkpt><trkpt lat="42.1204638" lon="11.9575243"><ele>335.0</ele><time>2026-04-19T09:47:20.041Z</time></trkpt><trkpt lat="42.1204453" lon="11.9576733"><ele>335.0</ele><time>2026-04-19T09:47:22.042Z</time></trkpt><trkpt lat="42.1204386" lon="11.9577788"><ele>335.0</ele><time>2026-04-19T09:47:23.045Z</time></trkpt><trkpt lat="42.1204287" lon="11.9578878"><ele>335.0</ele><time>2026-04-19T09:47:24.038Z</time></trkpt><trkpt lat="42.120419" lon="11.9580093"><ele>335.0</ele><time>2026-04-19T09:47:25.043Z</time></trkpt><trkpt lat="42.1204094" lon="11.9581486"><ele>335.0</ele><time>2026-04-19T09:47:26.038Z</time></trkpt><trkpt lat="42.120403" lon="11.9583078"><ele>335.0</ele><time>2026-04-19T09:47:27.052Z</time></trkpt><trkpt lat="42.1204095" lon="11.9584783"><ele>335.0</ele><time>2026-04-19T09:47:28.046Z</time></trkpt><trkpt lat="42.1204452" lon="11.9586523"><ele>336.5</ele><time>2026-04-19T09:47:29.038Z</time></trkpt><trkpt lat="42.1205036" lon="11.9588176"><ele>338.0</ele><time>2026-04-19T09:47:30.048Z</time></trkpt><trkpt lat="42.1205778" lon="11.9589729"><ele>339.5</ele><time>2026-04-19T09:47:31.045Z</time></trkpt><trkpt lat="42.1206441" lon="11.9591297"><ele>341.0</ele><time>2026-04-19T09:47:32.042Z</time></trkpt><trkpt lat="42.1206786" lon="11.9592871"><ele>341.5</ele><time>2026-04-19T09:47:33.036Z</time></trkpt><trkpt lat="42.1206753" lon="11.9594422"><ele>342.0</ele><time>2026-04-19T09:47:34.034Z</time></trkpt><trkpt lat="42.1206408" lon="11.9596008"><ele>342.5</ele><time>2026-04-19T09:47:35.039Z</time></trkpt><trkpt lat="42.1205898" lon="11.9597565"><ele>343.0</ele><time>2026-04-19T09:47:36.037Z</time></trkpt><trkpt lat="42.1205311" lon="11.9599149"><ele>340.75</ele><time>2026-04-19T09:47:37.04Z</time></trkpt><trkpt lat="42.12048" lon="11.9600667"><ele>338.5</ele><time>2026-04-19T09:47:38.042Z</time></trkpt><trkpt lat="42.1204796" lon="11.960226"><ele>336.25</ele><time>2026-04-19T09:47:39.031Z</time></trkpt><trkpt lat="42.120513" lon="11.9603841"><ele>334.0</ele><time>2026-04-19T09:47:40.036Z</time></trkpt><trkpt lat="42.1205599" lon="11.9605379"><ele>334.0</ele><time>2026-04-19T09:47:41.045Z</time></trkpt><trkpt lat="42.1205857" lon="11.9606996"><ele>334.0</ele><time>2026-04-19T09:47:42.039Z</time></trkpt><trkpt lat="42.1205733" lon="11.9608569"><ele>334.0</ele><time>2026-04-19T09:47:43.054Z</time></trkpt><trkpt lat="42.1205593" lon="11.9610043"><ele>334.0</ele><time>2026-04-19T09:47:44.047Z</time></trkpt><trkpt lat="42.1204809" lon="11.9611033"><ele>332.25</ele><time>2026-04-19T09:47:45.041Z</time></trkpt><trkpt lat="42.1203662" lon="11.9611615"><ele>330.5</ele><time>2026-04-19T09:47:46.047Z</time></trkpt><trkpt lat="42.1202461" lon="11.9612035"><ele>328.75</ele><time>2026-04-19T09:47:47.044Z</time></trkpt><trkpt lat="42.1201267" lon="11.9612452"><ele>327.0</ele><time>2026-04-19T09:47:48.035Z</time></trkpt><trkpt lat="42.1200398" lon="11.9613482"><ele>327.0</ele><time>2026-04-19T09:47:49.04Z</time></trkpt><trkpt lat="42.1199942" lon="11.9614656"><ele>327.0</ele><time>2026-04-19T09:47:50.04Z</time></trkpt><trkpt lat="42.1199867" lon="11.9615978"><ele>327.0</ele><time>2026-04-19T09:47:51.042Z</time></trkpt><trkpt lat="42.120016" lon="11.9617488"><ele>327.0</ele><time>2026-04-19T09:47:52.038Z</time></trkpt><trkpt lat="42.1200603" lon="11.9619012"><ele>327.0</ele><time>2026-04-19T09:47:53.045Z</time></trkpt><trkpt lat="42.1200828" lon="11.9620625"><ele>326.25</ele><time>2026-04-19T09:47:54.035Z</time></trkpt><trkpt lat="42.1201027" lon="11.9622147"><ele>325.5</ele><time>2026-04-19T09:47:55.042Z</time></trkpt><trkpt lat="42.12006" lon="11.9623586"><ele>324.75</ele><time>2026-04-19T09:47:56.042Z</time></trkpt><trkpt lat="42.1199751" lon="11.9624838"><ele>324.0</ele><time>2026-04-19T09:47:57.05Z</time></trkpt><trkpt lat="42.1198616" lon="11.9625857"><ele>328.25</ele><time>2026-04-19T09:47:58.041Z</time></trkpt><trkpt lat="42.11973" lon="11.962673"><ele>332.5</ele><time>2026-04-19T09:47:59.043Z</time></trkpt><trkpt lat="42.1196335" lon="11.9628142"><ele>336.75</ele><time>2026-04-19T09:48:00.042Z</time></trkpt><trkpt lat="42.1195737" lon="11.9629861"><ele>341.0</ele><time>2026-04-19T09:48:01.059Z</time></trkpt><trkpt lat="42.1195469" lon="11.9631663"><ele>341.0</ele><time>2026-04-19T09:48:02.042Z</time></trkpt><trkpt lat="42.1195478" lon="11.9633579"><ele>341.0</ele><time>2026-04-19T09:48:03.041Z</time></trkpt><trkpt lat="42.1195785" lon="11.963544"><ele>341.0</ele><time>2026-04-19T09:48:04.046Z</time></trkpt><trkpt lat="42.1196201" lon="11.9637315"><ele>341.0</ele><time>2026-04-19T09:48:05.058Z</time></trkpt><trkpt lat="42.1196676" lon="11.9639211"><ele>343.33333333333337</ele><time>2026-04-19T09:48:06.042Z</time></trkpt><trkpt lat="42.1197203" lon="11.9641116"><ele>345.6666666666667</ele><time>2026-04-19T09:48:07.034Z</time></trkpt><trkpt lat="42.1197849" lon="11.9643078"><ele>348.0</ele><time>2026-04-19T09:48:08.049Z</time></trkpt><trkpt lat="42.1198637" lon="11.9645034"><ele>346.3333333333333</ele><time>2026-04-19T09:48:09.043Z</time></trkpt><trkpt lat="42.1199545" lon="11.9646942"><ele>344.66666666666663</ele><time>2026-04-19T09:48:10.043Z</time></trkpt><trkpt lat="42.1200508" lon="11.9648816"><ele>343.0</ele><time>2026-04-19T09:48:11.05Z</time></trkpt><trkpt lat="42.1201288" lon="11.9650785"><ele>346.0</ele><time>2026-04-19T09:48:12.039Z</time></trkpt><trkpt lat="42.120173" lon="11.9652752"><ele>349.0</ele><time>2026-04-19T09:48:13.04Z</time></trkpt><trkpt lat="42.1202044" lon="11.9654536"><ele>352.0</ele><time>2026-04-19T09:48:14.04Z</time></trkpt><trkpt lat="42.1201802" lon="11.9656314"><ele>355.0</ele><time>2026-04-19T09:48:15.037Z</time></trkpt><trkpt lat="42.1201695" lon="11.9658026"><ele>358.0</ele><time>2026-04-19T09:48:16.035Z</time></trkpt><trkpt lat="42.1201906" lon="11.965985"><ele>361.0</ele><time>2026-04-19T09:48:17.041Z</time></trkpt><trkpt lat="42.1202672" lon="11.9661423"><ele>364.0</ele><time>2026-04-19T09:48:18.038Z</time></trkpt><trkpt lat="42.1203524" lon="11.9663077"><ele>367.0</ele><time>2026-04-19T09:48:19.041Z</time></trkpt><trkpt lat="42.1204465" lon="11.9664681"><ele>367.0</ele><time>2026-04-19T09:48:20.034Z</time></trkpt><trkpt lat="42.1205378" lon="11.9666446"><ele>367.0</ele><time>2026-04-19T09:48:21.043Z</time></trkpt><trkpt lat="42.1206298" lon="11.9668255"><ele>367.0</ele><time>2026-04-19T09:48:22.038Z</time></trkpt><trkpt lat="42.1206998" lon="11.9670236"><ele>360.66666666666663</ele><time>2026-04-19T09:48:23.043Z</time></trkpt><trkpt lat="42.120751" lon="11.9672206"><ele>354.3333333333333</ele><time>2026-04-19T09:48:24.048Z</time></trkpt><trkpt lat="42.1207761" lon="11.9674294"><ele>348.0</ele><time>2026-04-19T09:48:25.04Z</time></trkpt><trkpt lat="42.1207812" lon="11.9676506"><ele>347.3333333333333</ele><time>2026-04-19T09:48:26.049Z</time></trkpt><trkpt lat="42.1207896" lon="11.9678616"><ele>346.66666666666663</ele><time>2026-04-19T09:48:27.038Z</time></trkpt><trkpt lat="42.1207946" lon="11.9680687"><ele>346.0</ele><time>2026-04-19T09:48:28.037Z</time></trkpt><trkpt lat="42.1207769" lon="11.9682708"><ele>347.0</ele><time>2026-04-19T09:48:29.053Z</time></trkpt><trkpt lat="42.1207618" lon="11.9684587"><ele>348.0</ele><time>2026-04-19T09:48:30.041Z</time></trkpt><trkpt lat="42.1206921" lon="11.9686294"><ele>349.0</ele><time>2026-04-19T09:48:31.034Z</time></trkpt><trkpt lat="42.120565" lon="11.9687672"><ele>350.0</ele><time>2026-04-19T09:48:32.042Z</time></trkpt><trkpt lat="42.1204064" lon="11.9689018"><ele>350.0</ele><time>2026-04-19T09:48:33.046Z</time></trkpt><trkpt lat="42.1202583" lon="11.9690368"><ele>350.0</ele><time>2026-04-19T09:48:34.045Z</time></trkpt><trkpt lat="42.1201169" lon="11.9691883"><ele>350.0</ele><time>2026-04-19T09:48:35.044Z</time></trkpt><trkpt lat="42.1199749" lon="11.9693392"><ele>349.33333333333337</ele><time>2026-04-19T09:48:36.042Z</time></trkpt><trkpt lat="42.1198321" lon="11.9695028"><ele>348.6666666666667</ele><time>2026-04-19T09:48:37.037Z</time></trkpt><trkpt lat="42.1196996" lon="11.9696957"><ele>348.0</ele><time>2026-04-19T09:48:38.049Z</time></trkpt><trkpt lat="42.1195818" lon="11.9699028"><ele>345.3333333333333</ele><time>2026-04-19T09:48:39.036Z</time></trkpt><trkpt lat="42.1194725" lon="11.9701236"><ele>342.66666666666663</ele><time>2026-04-19T09:48:40.038Z</time></trkpt><trkpt lat="42.1193799" lon="11.9703549"><ele>340.0</ele><time>2026-04-19T09:48:41.044Z</time></trkpt><trkpt lat="42.1192826" lon="11.9705772"><ele>340.0</ele><time>2026-04-19T09:48:42.051Z</time></trkpt><trkpt lat="42.1191734" lon="11.9707832"><ele>340.0</ele><time>2026-04-19T09:48:43.046Z</time></trkpt><trkpt lat="42.1190497" lon="11.9709582"><ele>340.0</ele><time>2026-04-19T09:48:44.035Z</time></trkpt><trkpt lat="42.118907" lon="11.9710996"><ele>339.66666666666663</ele><time>2026-04-19T09:48:45.047Z</time></trkpt><trkpt lat="42.1187436" lon="11.971206"><ele>339.3333333333333</ele><time>2026-04-19T09:48:46.05Z</time></trkpt><trkpt lat="42.1185747" lon="11.9712753"><ele>339.0</ele><time>2026-04-19T09:48:47.042Z</time></trkpt><trkpt lat="42.1184154" lon="11.9713241"><ele>339.0</ele><time>2026-04-19T09:48:48.048Z</time></trkpt><trkpt lat="42.1182661" lon="11.9713766"><ele>339.0</ele><time>2026-04-19T09:48:49.056Z</time></trkpt><trkpt lat="42.1181217" lon="11.9714517"><ele>339.0</ele><time>2026-04-19T09:48:50.038Z</time></trkpt><trkpt lat="42.1179799" lon="11.97155"><ele>339.3333333333333</ele><time>2026-04-19T09:48:51.051Z</time></trkpt><trkpt lat="42.1178446" lon="11.9716725"><ele>339.66666666666663</ele><time>2026-04-19T09:48:52.063Z</time></trkpt><trkpt lat="42.1177077" lon="11.9717991"><ele>340.0</ele><time>2026-04-19T09:48:53.036Z</time></trkpt><trkpt lat="42.1175682" lon="11.9719231"><ele>340.0</ele><time>2026-04-19T09:48:54.043Z</time></trkpt><trkpt lat="42.1174261" lon="11.9720523"><ele>340.0</ele><time>2026-04-19T09:48:55.042Z</time></trkpt><trkpt lat="42.1172761" lon="11.9721771"><ele>340.0</ele><time>2026-04-19T09:48:56.044Z</time></trkpt><trkpt lat="42.1171257" lon="11.9723077"><ele>340.0</ele><time>2026-04-19T09:48:57.045Z</time></trkpt><trkpt lat="42.1169757" lon="11.972438"><ele>340.0</ele><time>2026-04-19T09:48:58.052Z</time></trkpt><trkpt lat="42.1168203" lon="11.972568"><ele>340.0</ele><time>2026-04-19T09:48:59.039Z</time></trkpt><trkpt lat="42.1166719" lon="11.9727006"><ele>344.0</ele><time>2026-04-19T09:49:00.044Z</time></trkpt><trkpt lat="42.1165292" lon="11.9728444"><ele>348.0</ele><time>2026-04-19T09:49:01.041Z</time></trkpt><trkpt lat="42.116408" lon="11.9729968"><ele>352.0</ele><time>2026-04-19T09:49:02.04Z</time></trkpt><trkpt lat="42.1163172" lon="11.9731535"><ele>352.0</ele><time>2026-04-19T09:49:03.048Z</time></trkpt><trkpt lat="42.1162471" lon="11.9733108"><ele>352.0</ele><time>2026-04-19T09:49:04.044Z</time></trkpt><trkpt lat="42.1161839" lon="11.973465"><ele>352.0</ele><time>2026-04-19T09:49:05.041Z</time></trkpt><trkpt lat="42.1161231" lon="11.9736075"><ele>352.0</ele><time>2026-04-19T09:49:06.049Z</time></trkpt><trkpt lat="42.1160657" lon="11.9737383"><ele>351.0</ele><time>2026-04-19T09:49:07.045Z</time></trkpt><trkpt lat="42.116011" lon="11.9738489"><ele>350.0</ele><time>2026-04-19T09:49:08.05Z</time></trkpt><trkpt lat="42.1159579" lon="11.9739366"><ele>349.0</ele><time>2026-04-19T09:49:09.04Z</time></trkpt><trkpt lat="42.1159143" lon="11.9740106"><ele>348.0</ele><time>2026-04-19T09:49:10.051Z</time></trkpt><trkpt lat="42.1159021" lon="11.9741521"><ele>347.0</ele><time>2026-04-19T09:49:12.038Z</time></trkpt><trkpt lat="42.1159488" lon="11.9742679"><ele>343.0</ele><time>2026-04-19T09:49:14.042Z</time></trkpt><trkpt lat="42.1159173" lon="11.9744068"><ele>343.0</ele><time>2026-04-19T09:49:16.036Z</time></trkpt><trkpt lat="42.1158699" lon="11.9744664"><ele>343.0</ele><time>2026-04-19T09:49:17.036Z</time></trkpt><trkpt lat="42.1157889" lon="11.9745439"><ele>343.0</ele><time>2026-04-19T09:49:19.045Z</time></trkpt><trkpt lat="42.1157639" lon="11.9746322"><ele>343.0</ele><time>2026-04-19T09:49:21.039Z</time></trkpt></trkseg><trkseg><trkpt lat="42.1157594" lon="11.9745744"><ele>343.0</ele><time>2026-04-19T11:04:02.052Z</time></trkpt><trkpt lat="42.1158059" lon="11.9745051"><ele>343.0</ele><time>2026-04-19T11:04:07.059Z</time></trkpt><trkpt lat="42.1158556" lon="11.9744448"><ele>343.0</ele><time>2026-04-19T11:04:10.052Z</time></trkpt><trkpt lat="42.1159049" lon="11.9743784"><ele>343.0</ele><time>2026-04-19T11:04:13.054Z</time></trkpt><trkpt lat="42.1159503" lon="11.9743045"><ele>343.0</ele><time>2026-04-19T11:04:16.047Z</time></trkpt><trkpt lat="42.1159531" lon="11.9742062"><ele>343.0</ele><time>2026-04-19T11:04:20.058Z</time></trkpt><trkpt lat="42.1158925" lon="11.9741701"><ele>343.0</ele><time>2026-04-19T11:04:36.061Z</time></trkpt><trkpt lat="42.1158125" lon="11.9741593"><ele>344.0</ele><time>2026-04-19T11:04:40.056Z</time></trkpt><trkpt lat="42.1157258" lon="11.9742478"><ele>345.0</ele><time>2026-04-19T11:04:42.053Z</time></trkpt><trkpt lat="42.1156757" lon="11.9743148"><ele>346.0</ele><time>2026-04-19T11:04:43.05Z</time></trkpt><trkpt lat="42.1156173" lon="11.9743912"><ele>347.0</ele><time>2026-04-19T11:04:44.058Z</time></trkpt><trkpt lat="42.115558" lon="11.9744693"><ele>348.0</ele><time>2026-04-19T11:04:45.072Z</time></trkpt><trkpt lat="42.1154897" lon="11.9745606"><ele>349.0</ele><time>2026-04-19T11:04:46.047Z</time></trkpt><trkpt lat="42.1154155" lon="11.9746579"><ele>349.0</ele><time>2026-04-19T11:04:47.06Z</time></trkpt><trkpt lat="42.1153499" lon="11.9747442"><ele>349.0</ele><time>2026-04-19T11:04:48.061Z</time></trkpt><trkpt lat="42.1152948" lon="11.9748167"><ele>349.0</ele><time>2026-04-19T11:04:49.05Z</time></trkpt><trkpt lat="42.115229" lon="11.9749357"><ele>349.0</ele><time>2026-04-19T11:04:51.06Z</time></trkpt><trkpt lat="42.1152355" lon="11.9750585"><ele>349.0</ele><time>2026-04-19T11:04:53.052Z</time></trkpt><trkpt lat="42.1153018" lon="11.9752102"><ele>348.4</ele><time>2026-04-19T11:04:55.048Z</time></trkpt><trkpt lat="42.1153556" lon="11.9752959"><ele>347.79999999999995</ele><time>2026-04-19T11:04:56.051Z</time></trkpt><trkpt lat="42.1154175" lon="11.9753964"><ele>347.20000000000005</ele><time>2026-04-19T11:04:57.051Z</time></trkpt><trkpt lat="42.1154756" lon="11.9755104"><ele>346.6</ele><time>2026-04-19T11:04:58.055Z</time></trkpt><trkpt lat="42.1155242" lon="11.9756441"><ele>346.0</ele><time>2026-04-19T11:04:59.061Z</time></trkpt><trkpt lat="42.1155489" lon="11.9757956"><ele>344.0</ele><time>2026-04-19T11:05:00.063Z</time></trkpt><trkpt lat="42.1155467" lon="11.9759576"><ele>342.0</ele><time>2026-04-19T11:05:01.05Z</time></trkpt><trkpt lat="42.1155161" lon="11.9761231"><ele>340.0</ele><time>2026-04-19T11:05:02.057Z</time></trkpt><trkpt lat="42.1154571" lon="11.9762857"><ele>338.0</ele><time>2026-04-19T11:05:03.054Z</time></trkpt><trkpt lat="42.1153801" lon="11.9764434"><ele>338.0</ele><time>2026-04-19T11:05:04.052Z</time></trkpt><trkpt lat="42.1152999" lon="11.9765994"><ele>338.0</ele><time>2026-04-19T11:05:05.052Z</time></trkpt><trkpt lat="42.1152182" lon="11.9767526"><ele>338.0</ele><time>2026-04-19T11:05:06.05Z</time></trkpt><trkpt lat="42.1151337" lon="11.9769111"><ele>338.0</ele><time>2026-04-19T11:05:07.055Z</time></trkpt><trkpt lat="42.1150452" lon="11.9770805"><ele>336.33333333333337</ele><time>2026-04-19T11:05:08.055Z</time></trkpt><trkpt lat="42.1149552" lon="11.9772571"><ele>334.6666666666667</ele><time>2026-04-19T11:05:09.053Z</time></trkpt><trkpt lat="42.1148641" lon="11.9774406"><ele>333.0</ele><time>2026-04-19T11:05:10.048Z</time></trkpt><trkpt lat="42.1147703" lon="11.9776275"><ele>331.6666666666667</ele><time>2026-04-19T11:05:11.051Z</time></trkpt><trkpt lat="42.1146773" lon="11.9778112"><ele>330.33333333333337</ele><time>2026-04-19T11:05:12.058Z</time></trkpt><trkpt lat="42.1145848" lon="11.9779884"><ele>329.0</ele><time>2026-04-19T11:05:13.052Z</time></trkpt><trkpt lat="42.1144952" lon="11.9781578"><ele>329.0</ele><time>2026-04-19T11:05:14.046Z</time></trkpt><trkpt lat="42.1144063" lon="11.9783232"><ele>329.0</ele><time>2026-04-19T11:05:15.055Z</time></trkpt><trkpt lat="42.1143165" lon="11.9784892"><ele>329.0</ele><time>2026-04-19T11:05:16.054Z</time></trkpt><trkpt lat="42.1142262" lon="11.9786467"><ele>327.75</ele><time>2026-04-19T11:05:17.051Z</time></trkpt><trkpt lat="42.1141403" lon="11.9787945"><ele>326.5</ele><time>2026-04-19T11:05:18.059Z</time></trkpt><trkpt lat="42.1140579" lon="11.9789434"><ele>325.25</ele><time>2026-04-19T11:05:19.057Z</time></trkpt><trkpt lat="42.1139833" lon="11.9791051"><ele>324.0</ele><time>2026-04-19T11:05:20.051Z</time></trkpt><trkpt lat="42.1139244" lon="11.9792807"><ele>328.0</ele><time>2026-04-19T11:05:21.071Z</time></trkpt><trkpt lat="42.1138913" lon="11.9794708"><ele>332.0</ele><time>2026-04-19T11:05:22.052Z</time></trkpt><trkpt lat="42.113884" lon="11.9796663"><ele>336.0</ele><time>2026-04-19T11:05:23.051Z</time></trkpt><trkpt lat="42.113883" lon="11.9798624"><ele>340.0</ele><time>2026-04-19T11:05:24.048Z</time></trkpt><trkpt lat="42.1139227" lon="11.9800733"><ele>340.0</ele><time>2026-04-19T11:05:25.055Z</time></trkpt><trkpt lat="42.1139598" lon="11.9802693"><ele>340.0</ele><time>2026-04-19T11:05:26.055Z</time></trkpt><trkpt lat="42.113996" lon="11.9804566"><ele>340.0</ele><time>2026-04-19T11:05:27.049Z</time></trkpt><trkpt lat="42.1140186" lon="11.9806273"><ele>340.0</ele><time>2026-04-19T11:05:28.063Z</time></trkpt><trkpt lat="42.1140259" lon="11.9808023"><ele>338.75</ele><time>2026-04-19T11:05:29.056Z</time></trkpt><trkpt lat="42.114004" lon="11.9809663"><ele>337.5</ele><time>2026-04-19T11:05:30.045Z</time></trkpt><trkpt lat="42.1139577" lon="11.9811229"><ele>336.25</ele><time>2026-04-19T11:05:31.053Z</time></trkpt><trkpt lat="42.1138948" lon="11.9812764"><ele>335.0</ele><time>2026-04-19T11:05:32.047Z</time></trkpt><trkpt lat="42.1138389" lon="11.9814063"><ele>335.0</ele><time>2026-04-19T11:05:33.044Z</time></trkpt><trkpt lat="42.1137917" lon="11.9815083"><ele>335.0</ele><time>2026-04-19T11:05:34.056Z</time></trkpt><trkpt lat="42.1137669" lon="11.9816268"><ele>335.0</ele><time>2026-04-19T11:05:36.058Z</time></trkpt><trkpt lat="42.1138507" lon="11.9816426"><ele>335.0</ele><time>2026-04-19T11:05:39.062Z</time></trkpt><trkpt lat="42.1139119" lon="11.9816065"><ele>335.0</ele><time>2026-04-19T11:05:40.045Z</time></trkpt><trkpt lat="42.1139905" lon="11.9815562"><ele>335.0</ele><time>2026-04-19T11:05:41.044Z</time></trkpt><trkpt lat="42.1140683" lon="11.9814935"><ele>332.6666666666667</ele><time>2026-04-19T11:05:42.057Z</time></trkpt><trkpt lat="42.1141373" lon="11.9814203"><ele>330.33333333333337</ele><time>2026-04-19T11:05:43.052Z</time></trkpt><trkpt lat="42.1142013" lon="11.9813413"><ele>328.0</ele><time>2026-04-19T11:05:44.044Z</time></trkpt><trkpt lat="42.1142653" lon="11.9812659"><ele>325.6666666666667</ele><time>2026-04-19T11:05:45.053Z</time></trkpt><trkpt lat="42.1143345" lon="11.981188"><ele>323.3333333333333</ele><time>2026-04-19T11:05:46.052Z</time></trkpt><trkpt lat="42.114404" lon="11.9811086"><ele>321.0</ele><time>2026-04-19T11:05:47.05Z</time></trkpt><trkpt lat="42.1144705" lon="11.9810358"><ele>321.0</ele><time>2026-04-19T11:05:48.054Z</time></trkpt><trkpt lat="42.1145294" lon="11.9809434"><ele>321.0</ele><time>2026-04-19T11:05:49.052Z</time></trkpt><trkpt lat="42.1145746" lon="11.9808534"><ele>321.0</ele><time>2026-04-19T11:05:50.046Z</time></trkpt><trkpt lat="42.114599" lon="11.9807482"><ele>321.0</ele><time>2026-04-19T11:05:51.05Z</time></trkpt><trkpt lat="42.1145994" lon="11.9806502"><ele>321.0</ele><time>2026-04-19T11:05:52.052Z</time></trkpt><trkpt lat="42.1145863" lon="11.9805447"><ele>321.0</ele><time>2026-04-19T11:05:53.047Z</time></trkpt><trkpt lat="42.1145762" lon="11.9804387"><ele>321.20000000000005</ele><time>2026-04-19T11:05:54.053Z</time></trkpt><trkpt lat="42.114559" lon="11.9803285"><ele>321.40000000000003</ele><time>2026-04-19T11:05:55.044Z</time></trkpt><trkpt lat="42.114554" lon="11.9802051"><ele>321.6</ele><time>2026-04-19T11:05:56.045Z</time></trkpt><trkpt lat="42.1145603" lon="11.9800602"><ele>321.8</ele><time>2026-04-19T11:05:57.057Z</time></trkpt><trkpt lat="42.1145609" lon="11.9799047"><ele>322.0</ele><time>2026-04-19T11:05:58.052Z</time></trkpt><trkpt lat="42.1145692" lon="11.979758"><ele>322.0</ele><time>2026-04-19T11:05:59.047Z</time></trkpt><trkpt lat="42.1145901" lon="11.9796383"><ele>322.0</ele><time>2026-04-19T11:06:00.049Z</time></trkpt><trkpt lat="42.1146452" lon="11.979526"><ele>322.0</ele><time>2026-04-19T11:06:01.05Z</time></trkpt><trkpt lat="42.1147159" lon="11.9794251"><ele>322.0</ele><time>2026-04-19T11:06:02.057Z</time></trkpt><trkpt lat="42.114797" lon="11.9793238"><ele>322.0</ele><time>2026-04-19T11:06:03.053Z</time></trkpt><trkpt lat="42.1148862" lon="11.9792787"><ele>319.5</ele><time>2026-04-19T11:06:04.052Z</time></trkpt><trkpt lat="42.1149969" lon="11.9792625"><ele>317.0</ele><time>2026-04-19T11:06:05.053Z</time></trkpt><trkpt lat="42.1151229" lon="11.979297"><ele>314.5</ele><time>2026-04-19T11:06:06.052Z</time></trkpt><trkpt lat="42.1152322" lon="11.9793573"><ele>312.0</ele><time>2026-04-19T11:06:07.047Z</time></trkpt><trkpt lat="42.1153265" lon="11.9794236"><ele>312.0</ele><time>2026-04-19T11:06:08.05Z</time></trkpt><trkpt lat="42.1154207" lon="11.9794611"><ele>312.0</ele><time>2026-04-19T11:06:09.049Z</time></trkpt><trkpt lat="42.1155054" lon="11.9794673"><ele>312.0</ele><time>2026-04-19T11:06:10.057Z</time></trkpt><trkpt lat="42.1155885" lon="11.9794399"><ele>312.0</ele><time>2026-04-19T11:06:11.05Z</time></trkpt><trkpt lat="42.1156769" lon="11.9793995"><ele>312.0</ele><time>2026-04-19T11:06:12.047Z</time></trkpt><trkpt lat="42.1157702" lon="11.9793099"><ele>311.75</ele><time>2026-04-19T11:06:13.049Z</time></trkpt><trkpt lat="42.1158617" lon="11.9792302"><ele>311.5</ele><time>2026-04-19T11:06:14.059Z</time></trkpt><trkpt lat="42.11596" lon="11.9791474"><ele>311.25</ele><time>2026-04-19T11:06:15.047Z</time></trkpt><trkpt lat="42.1160629" lon="11.9790673"><ele>311.0</ele><time>2026-04-19T11:06:16.051Z</time></trkpt><trkpt lat="42.1161722" lon="11.9789906"><ele>311.0</ele><time>2026-04-19T11:06:17.047Z</time></trkpt><trkpt lat="42.1162831" lon="11.978924"><ele>311.0</ele><time>2026-04-19T11:06:18.055Z</time></trkpt><trkpt lat="42.1163916" lon="11.9788619"><ele>311.0</ele><time>2026-04-19T11:06:19.048Z</time></trkpt><trkpt lat="42.1164965" lon="11.9787997"><ele>311.0</ele><time>2026-04-19T11:06:20.047Z</time></trkpt><trkpt lat="42.1166137" lon="11.9787439"><ele>308.75</ele><time>2026-04-19T11:06:21.057Z</time></trkpt><trkpt lat="42.1167307" lon="11.9786706"><ele>306.5</ele><time>2026-04-19T11:06:22.053Z</time></trkpt><trkpt lat="42.1168538" lon="11.9786031"><ele>304.25</ele><time>2026-04-19T11:06:23.049Z</time></trkpt><trkpt lat="42.1169818" lon="11.9785341"><ele>302.0</ele><time>2026-04-19T11:06:24.053Z</time></trkpt><trkpt lat="42.1171038" lon="11.9784701"><ele>302.0</ele><time>2026-04-19T11:06:25.047Z</time></trkpt><trkpt lat="42.1172211" lon="11.978403"><ele>302.0</ele><time>2026-04-19T11:06:26.052Z</time></trkpt><trkpt lat="42.1173326" lon="11.9783522"><ele>302.0</ele><time>2026-04-19T11:06:27.054Z</time></trkpt><trkpt lat="42.1174422" lon="11.9783176"><ele>302.0</ele><time>2026-04-19T11:06:28.061Z</time></trkpt><trkpt lat="42.1175532" lon="11.9782827"><ele>301.75</ele><time>2026-04-19T11:06:29.055Z</time></trkpt><trkpt lat="42.1176709" lon="11.9782798"><ele>301.5</ele><time>2026-04-19T11:06:30.047Z</time></trkpt><trkpt lat="42.1177958" lon="11.9782856"><ele>301.25</ele><time>2026-04-19T11:06:31.055Z</time></trkpt><trkpt lat="42.1179146" lon="11.9782722"><ele>301.0</ele><time>2026-04-19T11:06:32.048Z</time></trkpt><trkpt lat="42.1180254" lon="11.9782638"><ele>301.0</ele><time>2026-04-19T11:06:33.044Z</time></trkpt><trkpt lat="42.118133" lon="11.9781845"><ele>301.0</ele><time>2026-04-19T11:06:34.046Z</time></trkpt><trkpt lat="42.1182247" lon="11.9780946"><ele>301.0</ele><time>2026-04-19T11:06:35.057Z</time></trkpt><trkpt lat="42.118316" lon="11.9779984"><ele>301.0</ele><time>2026-04-19T11:06:36.046Z</time></trkpt><trkpt lat="42.1184064" lon="11.9778996"><ele>298.5</ele><time>2026-04-19T11:06:37.058Z</time></trkpt><trkpt lat="42.1185118" lon="11.9778043"><ele>296.0</ele><time>2026-04-19T11:06:38.057Z</time></trkpt><trkpt lat="42.118613" lon="11.9777136"><ele>293.5</ele><time>2026-04-19T11:06:39.05Z</time></trkpt><trkpt lat="42.1186994" lon="11.9776257"><ele>291.0</ele><time>2026-04-19T11:06:40.065Z</time></trkpt><trkpt lat="42.1187683" lon="11.9775322"><ele>291.40000000000003</ele><time>2026-04-19T11:06:41.053Z</time></trkpt><trkpt lat="42.1188214" lon="11.9774386"><ele>291.8</ele><time>2026-04-19T11:06:42.048Z</time></trkpt><trkpt lat="42.1188602" lon="11.9773418"><ele>292.20000000000005</ele><time>2026-04-19T11:06:43.048Z</time></trkpt><trkpt lat="42.1188741" lon="11.9772152"><ele>292.6</ele><time>2026-04-19T11:06:44.058Z</time></trkpt><trkpt lat="42.1188748" lon="11.9770899"><ele>293.0</ele><time>2026-04-19T11:06:45.046Z</time></trkpt><trkpt lat="42.1188745" lon="11.9769603"><ele>293.0</ele><time>2026-04-19T11:06:46.056Z</time></trkpt><trkpt lat="42.1188741" lon="11.9768287"><ele>293.0</ele><time>2026-04-19T11:06:47.054Z</time></trkpt><trkpt lat="42.1188721" lon="11.9766985"><ele>293.0</ele><time>2026-04-19T11:06:48.042Z</time></trkpt><trkpt lat="42.118903" lon="11.9765732"><ele>293.0</ele><time>2026-04-19T11:06:49.048Z</time></trkpt><trkpt lat="42.1189407" lon="11.9764477"><ele>293.0</ele><time>2026-04-19T11:06:50.059Z</time></trkpt><trkpt lat="42.1189992" lon="11.9763405"><ele>291.2</ele><time>2026-04-19T11:06:51.053Z</time></trkpt><trkpt lat="42.1190726" lon="11.9762417"><ele>289.4</ele><time>2026-04-19T11:06:52.051Z</time></trkpt><trkpt lat="42.119154" lon="11.9761931"><ele>287.59999999999997</ele><time>2026-04-19T11:06:53.05Z</time></trkpt><trkpt lat="42.1192573" lon="11.9761629"><ele>285.8</ele><time>2026-04-19T11:06:54.049Z</time></trkpt><trkpt lat="42.1193645" lon="11.9761229"><ele>284.0</ele><time>2026-04-19T11:06:55.054Z</time></trkpt><trkpt lat="42.1194682" lon="11.9760816"><ele>284.0</ele><time>2026-04-19T11:06:56.054Z</time></trkpt><trkpt lat="42.1195635" lon="11.976039"><ele>284.0</ele><time>2026-04-19T11:06:57.054Z</time></trkpt><trkpt lat="42.1196544" lon="11.9759937"><ele>284.0</ele><time>2026-04-19T11:06:58.051Z</time></trkpt><trkpt lat="42.1197434" lon="11.97595"><ele>284.0</ele><time>2026-04-19T11:06:59.049Z</time></trkpt><trkpt lat="42.1198296" lon="11.9759002"><ele>284.0</ele><time>2026-04-19T11:07:00.055Z</time></trkpt><trkpt lat="42.1199167" lon="11.9758474"><ele>283.2</ele><time>2026-04-19T11:07:01.056Z</time></trkpt><trkpt lat="42.1200087" lon="11.9758311"><ele>282.4</ele><time>2026-04-19T11:07:02.049Z</time></trkpt><trkpt lat="42.1201083" lon="11.975815"><ele>281.6</ele><time>2026-04-19T11:07:03.053Z</time></trkpt><trkpt lat="42.1202081" lon="11.9758149"><ele>280.8</ele><time>2026-04-19T11:07:04.049Z</time></trkpt><trkpt lat="42.120316" lon="11.9758257"><ele>280.0</ele><time>2026-04-19T11:07:05.048Z</time></trkpt><trkpt lat="42.1204305" lon="11.9758153"><ele>280.0</ele><time>2026-04-19T11:07:06.057Z</time></trkpt><trkpt lat="42.1205391" lon="11.9758093"><ele>280.0</ele><time>2026-04-19T11:07:07.061Z</time></trkpt><trkpt lat="42.1206552" lon="11.9758265"><ele>280.0</ele><time>2026-04-19T11:07:08.045Z</time></trkpt><trkpt lat="42.1207796" lon="11.9758581"><ele>280.0</ele><time>2026-04-19T11:07:09.058Z</time></trkpt><trkpt lat="42.1209048" lon="11.9759066"><ele>276.8</ele><time>2026-04-19T11:07:10.051Z</time></trkpt><trkpt lat="42.1210254" lon="11.9759499"><ele>273.6</ele><time>2026-04-19T11:07:11.042Z</time></trkpt><trkpt lat="42.1211337" lon="11.9759952"><ele>270.4</ele><time>2026-04-19T11:07:12.052Z</time></trkpt><trkpt lat="42.1212298" lon="11.9760303"><ele>267.2</ele><time>2026-04-19T11:07:13.049Z</time></trkpt><trkpt lat="42.1213243" lon="11.9760558"><ele>264.0</ele><time>2026-04-19T11:07:14.043Z</time></trkpt><trkpt lat="42.1214156" lon="11.9760835"><ele>264.0</ele><time>2026-04-19T11:07:15.056Z</time></trkpt><trkpt lat="42.1214991" lon="11.9761068"><ele>264.0</ele><time>2026-04-19T11:07:16.047Z</time></trkpt><trkpt lat="42.1215806" lon="11.9761119"><ele>264.0</ele><time>2026-04-19T11:07:17.046Z</time></trkpt><trkpt lat="42.121658" lon="11.976103"><ele>264.0</ele><time>2026-04-19T11:07:18.046Z</time></trkpt><trkpt lat="42.1217356" lon="11.9760838"><ele>264.0</ele><time>2026-04-19T11:07:19.052Z</time></trkpt><trkpt lat="42.1218231" lon="11.9760519"><ele>264.0</ele><time>2026-04-19T11:07:20.052Z</time></trkpt><trkpt lat="42.1219148" lon="11.9760143"><ele>263.59999999999997</ele><time>2026-04-19T11:07:21.044Z</time></trkpt><trkpt lat="42.1220122" lon="11.9759776"><ele>263.2</ele><time>2026-04-19T11:07:22.053Z</time></trkpt><trkpt lat="42.1221159" lon="11.9759458"><ele>262.79999999999995</ele><time>2026-04-19T11:07:23.051Z</time></trkpt><trkpt lat="42.1222315" lon="11.9759075"><ele>262.4</ele><time>2026-04-19T11:07:24.043Z</time></trkpt><trkpt lat="42.1223429" lon="11.9758649"><ele>262.0</ele><time>2026-04-19T11:07:25.048Z</time></trkpt><trkpt lat="42.1224473" lon="11.9758252"><ele>261.6</ele><time>2026-04-19T11:07:26.05Z</time></trkpt><trkpt lat="42.1225521" lon="11.9757863"><ele>261.2</ele><time>2026-04-19T11:07:27.05Z</time></trkpt><trkpt lat="42.1226566" lon="11.9757482"><ele>260.8</ele><time>2026-04-19T11:07:28.043Z</time></trkpt><trkpt lat="42.1227635" lon="11.9757093"><ele>260.4</ele><time>2026-04-19T11:07:29.057Z</time></trkpt><trkpt lat="42.122868" lon="11.9756705"><ele>260.0</ele><time>2026-04-19T11:07:30.051Z</time></trkpt><trkpt lat="42.1229845" lon="11.9756322"><ele>260.0</ele><time>2026-04-19T11:07:31.04Z</time></trkpt><trkpt lat="42.1231015" lon="11.9755935"><ele>260.0</ele><time>2026-04-19T11:07:32.047Z</time></trkpt><trkpt lat="42.1232185" lon="11.975555"><ele>260.0</ele><time>2026-04-19T11:07:33.056Z</time></trkpt><trkpt lat="42.1233401" lon="11.9755168"><ele>260.0</ele><time>2026-04-19T11:07:34.042Z</time></trkpt><trkpt lat="42.1234591" lon="11.9754787"><ele>258.0</ele><time>2026-04-19T11:07:35.051Z</time></trkpt><trkpt lat="42.1235783" lon="11.9754489"><ele>256.0</ele><time>2026-04-19T11:07:36.047Z</time></trkpt><trkpt lat="42.1236979" lon="11.9754205"><ele>254.0</ele><time>2026-04-19T11:07:37.043Z</time></trkpt><trkpt lat="42.1238237" lon="11.9754078"><ele>252.0</ele><time>2026-04-19T11:07:38.046Z</time></trkpt><trkpt lat="42.1239437" lon="11.9753985"><ele>252.0</ele><time>2026-04-19T11:07:39.057Z</time></trkpt><trkpt lat="42.1240557" lon="11.9753899"><ele>252.0</ele><time>2026-04-19T11:07:40.051Z</time></trkpt><trkpt lat="42.1241616" lon="11.9753768"><ele>252.0</ele><time>2026-04-19T11:07:41.058Z</time></trkpt><trkpt lat="42.1242585" lon="11.9753589"><ele>252.0</ele><time>2026-04-19T11:07:42.048Z</time></trkpt><trkpt lat="42.1243454" lon="11.9753388"><ele>252.0</ele><time>2026-04-19T11:07:43.054Z</time></trkpt><trkpt lat="42.1244369" lon="11.9752994"><ele>251.6</ele><time>2026-04-19T11:07:44.046Z</time></trkpt><trkpt lat="42.1245277" lon="11.9752355"><ele>251.2</ele><time>2026-04-19T11:07:45.056Z</time></trkpt><trkpt lat="42.1246145" lon="11.975151"><ele>250.8</ele><time>2026-04-19T11:07:46.052Z</time></trkpt><trkpt lat="42.1246854" lon="11.9750579"><ele>250.4</ele><time>2026-04-19T11:07:47.047Z</time></trkpt><trkpt lat="42.124759" lon="11.97496"><ele>250.0</ele><time>2026-04-19T11:07:48.065Z</time></trkpt><trkpt lat="42.1248295" lon="11.9748611"><ele>248.2</ele><time>2026-04-19T11:07:49.05Z</time></trkpt><trkpt lat="42.124899" lon="11.9747768"><ele>246.4</ele><time>2026-04-19T11:07:50.047Z</time></trkpt><trkpt lat="42.1249874" lon="11.9747173"><ele>244.60000000000002</ele><time>2026-04-19T11:07:51.053Z</time></trkpt><trkpt lat="42.1250857" lon="11.9746898"><ele>242.8</ele><time>2026-04-19T11:07:52.051Z</time></trkpt><trkpt lat="42.1251896" lon="11.9746729"><ele>241.0</ele><time>2026-04-19T11:07:53.042Z</time></trkpt><trkpt lat="42.1252929" lon="11.974655"><ele>241.0</ele><time>2026-04-19T11:07:54.05Z</time></trkpt><trkpt lat="42.1253958" lon="11.9746307"><ele>241.00000000000003</ele><time>2026-04-19T11:07:55.05Z</time></trkpt><trkpt lat="42.1254966" lon="11.9746027"><ele>241.00000000000003</ele><time>2026-04-19T11:07:56.048Z</time></trkpt><trkpt lat="42.125591" lon="11.9745766"><ele>241.0</ele><time>2026-04-19T11:07:57.05Z</time></trkpt><trkpt lat="42.1256774" lon="11.9745557"><ele>241.0</ele><time>2026-04-19T11:07:58.062Z</time></trkpt><trkpt lat="42.1257515" lon="11.9745342"><ele>239.66666666666666</ele><time>2026-04-19T11:07:59.061Z</time></trkpt><trkpt lat="42.1258229" lon="11.9745134"><ele>238.33333333333331</ele><time>2026-04-19T11:08:00.05Z</time></trkpt><trkpt lat="42.1258973" lon="11.9744924"><ele>237.0</ele><time>2026-04-19T11:08:01.05Z</time></trkpt><trkpt lat="42.1259839" lon="11.9745057"><ele>235.66666666666669</ele><time>2026-04-19T11:08:02.047Z</time></trkpt><trkpt lat="42.1260765" lon="11.9745168"><ele>234.33333333333334</ele><time>2026-04-19T11:08:03.042Z</time></trkpt><trkpt lat="42.1261642" lon="11.9745644"><ele>233.0</ele><time>2026-04-19T11:08:04.054Z</time></trkpt><trkpt lat="42.1262627" lon="11.974612"><ele>233.0</ele><time>2026-04-19T11:08:05.055Z</time></trkpt><trkpt lat="42.1263723" lon="11.9746646"><ele>233.0</ele><time>2026-04-19T11:08:06.051Z</time></trkpt><trkpt lat="42.1264837" lon="11.9747294"><ele>233.0</ele><time>2026-04-19T11:08:07.046Z</time></trkpt><trkpt lat="42.1265891" lon="11.9747843"><ele>233.0</ele><time>2026-04-19T11:08:08.05Z</time></trkpt><trkpt lat="42.1266896" lon="11.9748327"><ele>231.2</ele><time>2026-04-19T11:08:09.055Z</time></trkpt><trkpt lat="42.1267889" lon="11.9748796"><ele>229.4</ele><time>2026-04-19T11:08:10.043Z</time></trkpt><trkpt lat="42.1268959" lon="11.9749354"><ele>227.59999999999997</ele><time>2026-04-19T11:08:11.055Z</time></trkpt><trkpt lat="42.1269979" lon="11.9749877"><ele>225.79999999999998</ele><time>2026-04-19T11:08:12.045Z</time></trkpt><trkpt lat="42.1270848" lon="11.9750344"><ele>224.0</ele><time>2026-04-19T11:08:13.046Z</time></trkpt><trkpt lat="42.1271722" lon="11.9750777"><ele>222.83333333333334</ele><time>2026-04-19T11:08:14.042Z</time></trkpt><trkpt lat="42.127264" lon="11.9751171"><ele>221.66666666666669</ele><time>2026-04-19T11:08:15.052Z</time></trkpt><trkpt lat="42.1273468" lon="11.9751556"><ele>220.5</ele><time>2026-04-19T11:08:16.076Z</time></trkpt><trkpt lat="42.1274201" lon="11.9751907"><ele>219.33333333333331</ele><time>2026-04-19T11:08:17.06Z</time></trkpt><trkpt lat="42.1274816" lon="11.9752299"><ele>218.16666666666666</ele><time>2026-04-19T11:08:18.055Z</time></trkpt><trkpt lat="42.1275725" lon="11.9752748"><ele>217.0</ele><time>2026-04-19T11:08:20.058Z</time></trkpt><trkpt lat="42.127649" lon="11.9752299"><ele>216.49999999999997</ele><time>2026-04-19T11:08:22.054Z</time></trkpt><trkpt lat="42.1276614" lon="11.9750945"><ele>216.0</ele><time>2026-04-19T11:08:24.049Z</time></trkpt><trkpt lat="42.1276433" lon="11.9750054"><ele>215.5</ele><time>2026-04-19T11:08:25.054Z</time></trkpt><trkpt lat="42.127617" lon="11.9749021"><ele>215.0</ele><time>2026-04-19T11:08:26.059Z</time></trkpt><trkpt lat="42.1275945" lon="11.9748074"><ele>214.49999999999997</ele><time>2026-04-19T11:08:27.049Z</time></trkpt><trkpt lat="42.1275761" lon="11.9746527"><ele>214.0</ele><time>2026-04-19T11:08:29.061Z</time></trkpt><trkpt lat="42.1276036" lon="11.9745343"><ele>213.99999999999997</ele><time>2026-04-19T11:08:31.051Z</time></trkpt><trkpt lat="42.1276908" lon="11.9744543"><ele>214.0</ele><time>2026-04-19T11:08:33.05Z</time></trkpt><trkpt lat="42.1277722" lon="11.9744282"><ele>214.0</ele><time>2026-04-19T11:08:34.043Z</time></trkpt><trkpt lat="42.127857" lon="11.9744055"><ele>214.0</ele><time>2026-04-19T11:08:35.056Z</time></trkpt><trkpt lat="42.1279357" lon="11.9743764"><ele>213.99999999999997</ele><time>2026-04-19T11:08:36.053Z</time></trkpt><trkpt lat="42.1280173" lon="11.9743442"><ele>214.0</ele><time>2026-04-19T11:08:37.045Z</time></trkpt><trkpt lat="42.1281057" lon="11.9742884"><ele>214.0</ele><time>2026-04-19T11:08:38.053Z</time></trkpt><trkpt lat="42.1282002" lon="11.9742129"><ele>214.0</ele><time>2026-04-19T11:08:39.046Z</time></trkpt><trkpt lat="42.1282934" lon="11.9741297"><ele>214.0</ele><time>2026-04-19T11:08:40.048Z</time></trkpt><trkpt lat="42.1283955" lon="11.974033"><ele>214.0</ele><time>2026-04-19T11:08:41.057Z</time></trkpt><trkpt lat="42.1284905" lon="11.9739403"><ele>211.39999999999998</ele><time>2026-04-19T11:08:42.059Z</time></trkpt><trkpt lat="42.128587" lon="11.973858"><ele>208.79999999999998</ele><time>2026-04-19T11:08:43.057Z</time></trkpt><trkpt lat="42.1286803" lon="11.9737791"><ele>206.2</ele><time>2026-04-19T11:08:44.05Z</time></trkpt><trkpt lat="42.1287688" lon="11.973702"><ele>203.60000000000002</ele><time>2026-04-19T11:08:45.052Z</time></trkpt><trkpt lat="42.128853" lon="11.9736193"><ele>201.0</ele><time>2026-04-19T11:08:46.056Z</time></trkpt><trkpt lat="42.1289353" lon="11.9735447"><ele>201.0</ele><time>2026-04-19T11:08:47.058Z</time></trkpt><trkpt lat="42.1290153" lon="11.9734812"><ele>201.0</ele><time>2026-04-19T11:08:48.053Z</time></trkpt><trkpt lat="42.1290945" lon="11.9734122"><ele>201.0</ele><time>2026-04-19T11:08:49.044Z</time></trkpt><trkpt lat="42.1291736" lon="11.9733363"><ele>201.0</ele><time>2026-04-19T11:08:50.063Z</time></trkpt><trkpt lat="42.1292591" lon="11.9732482"><ele>201.0</ele><time>2026-04-19T11:08:51.058Z</time></trkpt><trkpt lat="42.1293501" lon="11.9731587"><ele>198.4</ele><time>2026-04-19T11:08:52.045Z</time></trkpt><trkpt lat="42.1294457" lon="11.9730632"><ele>195.8</ele><time>2026-04-19T11:08:53.063Z</time></trkpt><trkpt lat="42.1295362" lon="11.9729756"><ele>193.20000000000002</ele><time>2026-04-19T11:08:54.051Z</time></trkpt><trkpt lat="42.1296242" lon="11.9728975"><ele>190.60000000000002</ele><time>2026-04-19T11:08:55.051Z</time></trkpt><trkpt lat="42.1297028" lon="11.972823"><ele>188.0</ele><time>2026-04-19T11:08:56.044Z</time></trkpt><trkpt lat="42.1297777" lon="11.9727356"><ele>188.0</ele><time>2026-04-19T11:08:57.073Z</time></trkpt><trkpt lat="42.1298455" lon="11.9726393"><ele>188.0</ele><time>2026-04-19T11:08:58.062Z</time></trkpt><trkpt lat="42.1299101" lon="11.972547"><ele>188.0</ele><time>2026-04-19T11:08:59.057Z</time></trkpt><trkpt lat="42.1299742" lon="11.9724595"><ele>188.0</ele><time>2026-04-19T11:09:00.051Z</time></trkpt><trkpt lat="42.1300398" lon="11.9723899"><ele>188.0</ele><time>2026-04-19T11:09:01.05Z</time></trkpt><trkpt lat="42.1300953" lon="11.9723343"><ele>188.0</ele><time>2026-04-19T11:09:02.05Z</time></trkpt><trkpt lat="42.1302099" lon="11.9724098"><ele>186.16666666666666</ele><time>2026-04-19T11:09:04.051Z</time></trkpt><trkpt lat="42.1302582" lon="11.9725062"><ele>184.33333333333331</ele><time>2026-04-19T11:09:05.04Z</time></trkpt><trkpt lat="42.1303085" lon="11.97261"><ele>182.5</ele><time>2026-04-19T11:09:06.064Z</time></trkpt><trkpt lat="42.1303483" lon="11.972722"><ele>180.66666666666666</ele><time>2026-04-19T11:09:07.062Z</time></trkpt><trkpt lat="42.1303884" lon="11.9728164"><ele>178.83333333333334</ele><time>2026-04-19T11:09:08.044Z</time></trkpt><trkpt lat="42.130433" lon="11.972898"><ele>177.0</ele><time>2026-04-19T11:09:09.065Z</time></trkpt><trkpt lat="42.1304929" lon="11.9729674"><ele>177.0</ele><time>2026-04-19T11:09:10.055Z</time></trkpt><trkpt lat="42.1305742" lon="11.9730132"><ele>177.0</ele><time>2026-04-19T11:09:11.047Z</time></trkpt><trkpt lat="42.130666" lon="11.9730396"><ele>177.0</ele><time>2026-04-19T11:09:12.045Z</time></trkpt><trkpt lat="42.1307572" lon="11.973069"><ele>177.0</ele><time>2026-04-19T11:09:13.045Z</time></trkpt><trkpt lat="42.130857" lon="11.973095"><ele>177.0</ele><time>2026-04-19T11:09:14.057Z</time></trkpt><trkpt lat="42.130963" lon="11.9731209"><ele>174.5</ele><time>2026-04-19T11:09:15.057Z</time></trkpt><trkpt lat="42.1310687" lon="11.9731505"><ele>172.0</ele><time>2026-04-19T11:09:16.052Z</time></trkpt><trkpt lat="42.1311767" lon="11.9731849"><ele>169.5</ele><time>2026-04-19T11:09:17.054Z</time></trkpt><trkpt lat="42.1313042" lon="11.9732257"><ele>167.0</ele><time>2026-04-19T11:09:18.05Z</time></trkpt><trkpt lat="42.1314435" lon="11.9732708"><ele>165.0</ele><time>2026-04-19T11:09:19.046Z</time></trkpt><trkpt lat="42.1315783" lon="11.9733133"><ele>163.0</ele><time>2026-04-19T11:09:20.05Z</time></trkpt><trkpt lat="42.1317046" lon="11.9733555"><ele>161.0</ele><time>2026-04-19T11:09:21.044Z</time></trkpt><trkpt lat="42.1318291" lon="11.9733958"><ele>159.0</ele><time>2026-04-19T11:09:22.059Z</time></trkpt><trkpt lat="42.1319394" lon="11.9734313"><ele>159.0</ele><time>2026-04-19T11:09:23.049Z</time></trkpt><trkpt lat="42.1320396" lon="11.9734591"><ele>159.0</ele><time>2026-04-19T11:09:24.054Z</time></trkpt><trkpt lat="42.1321308" lon="11.9734789"><ele>159.0</ele><time>2026-04-19T11:09:25.05Z</time></trkpt><trkpt lat="42.1322049" lon="11.9734889"><ele>159.0</ele><time>2026-04-19T11:09:26.056Z</time></trkpt><trkpt lat="42.1322791" lon="11.9734972"><ele>159.0</ele><time>2026-04-19T11:09:28.047Z</time></trkpt><trkpt lat="42.1323214" lon="11.9734196"><ele>159.0</ele><time>2026-04-19T11:09:48.064Z</time></trkpt><trkpt lat="42.1323553" lon="11.9733098"><ele>157.83333333333334</ele><time>2026-04-19T11:09:50.057Z</time></trkpt><trkpt lat="42.1323939" lon="11.9732399"><ele>156.66666666666666</ele><time>2026-04-19T11:09:51.053Z</time></trkpt><trkpt lat="42.1324413" lon="11.9731677"><ele>155.5</ele><time>2026-04-19T11:09:52.055Z</time></trkpt><trkpt lat="42.1324925" lon="11.9730916"><ele>154.33333333333331</ele><time>2026-04-19T11:09:53.044Z</time></trkpt><trkpt lat="42.1325493" lon="11.973007"><ele>153.16666666666666</ele><time>2026-04-19T11:09:54.056Z</time></trkpt><trkpt lat="42.1326117" lon="11.9729204"><ele>152.0</ele><time>2026-04-19T11:09:55.056Z</time></trkpt><trkpt lat="42.132676" lon="11.9728346"><ele>152.0</ele><time>2026-04-19T11:09:56.046Z</time></trkpt><trkpt lat="42.1327406" lon="11.9727493"><ele>152.0</ele><time>2026-04-19T11:09:57.059Z</time></trkpt><trkpt lat="42.1328029" lon="11.9726611"><ele>152.0</ele><time>2026-04-19T11:09:58.054Z</time></trkpt><trkpt lat="42.1328634" lon="11.9725734"><ele>152.0</ele><time>2026-04-19T11:09:59.058Z</time></trkpt><trkpt lat="42.1329218" lon="11.9724878"><ele>152.0</ele><time>2026-04-19T11:10:00.059Z</time></trkpt><trkpt lat="42.1329803" lon="11.9724049"><ele>152.0</ele><time>2026-04-19T11:10:01.039Z</time></trkpt><trkpt lat="42.1330387" lon="11.9723202"><ele>152.0</ele><time>2026-04-19T11:10:02.055Z</time></trkpt><trkpt lat="42.1330985" lon="11.9722305"><ele>152.0</ele><time>2026-04-19T11:10:03.054Z</time></trkpt><trkpt lat="42.1331575" lon="11.9721415"><ele>152.0</ele><time>2026-04-19T11:10:04.053Z</time></trkpt><trkpt lat="42.133208" lon="11.9720638"><ele>152.0</ele><time>2026-04-19T11:10:05.05Z</time></trkpt><trkpt lat="42.1332537" lon="11.9719876"><ele>152.0</ele><time>2026-04-19T11:10:06.054Z</time></trkpt><trkpt lat="42.133298" lon="11.9719148"><ele>152.0</ele><time>2026-04-19T11:10:07.056Z</time></trkpt><trkpt lat="42.1333429" lon="11.9717748"><ele>151.2</ele><time>2026-04-19T11:10:09.05Z</time></trkpt><trkpt lat="42.1333405" lon="11.9716291"><ele>150.39999999999998</ele><time>2026-04-19T11:10:11.046Z</time></trkpt><trkpt lat="42.1333224" lon="11.9714928"><ele>149.60000000000002</ele><time>2026-04-19T11:10:13.052Z</time></trkpt><trkpt lat="42.1333301" lon="11.9713785"><ele>148.8</ele><time>2026-04-19T11:10:15.052Z</time></trkpt><trkpt lat="42.13336" lon="11.9712991"><ele>148.0</ele><time>2026-04-19T11:10:17.049Z</time></trkpt><trkpt lat="42.1334162" lon="11.9712005"><ele>148.0</ele><time>2026-04-19T11:10:19.052Z</time></trkpt><trkpt lat="42.1334707" lon="11.9710582"><ele>148.0</ele><time>2026-04-19T11:10:21.058Z</time></trkpt><trkpt lat="42.1334912" lon="11.9709776"><ele>148.0</ele><time>2026-04-19T11:10:22.052Z</time></trkpt><trkpt lat="42.1335239" lon="11.9709001"><ele>148.0</ele><time>2026-04-19T11:10:23.046Z</time></trkpt><trkpt lat="42.1335697" lon="11.9708279"><ele>148.0</ele><time>2026-04-19T11:10:24.043Z</time></trkpt><trkpt lat="42.1336179" lon="11.9707552"><ele>148.0</ele><time>2026-04-19T11:10:25.041Z</time></trkpt><trkpt lat="42.1336785" lon="11.9706836"><ele>148.4</ele><time>2026-04-19T11:10:26.044Z</time></trkpt><trkpt lat="42.1337377" lon="11.9706081"><ele>148.8</ele><time>2026-04-19T11:10:27.051Z</time></trkpt><trkpt lat="42.1338052" lon="11.9705214"><ele>149.2</ele><time>2026-04-19T11:10:28.042Z</time></trkpt><trkpt lat="42.1338737" lon="11.9704408"><ele>149.6</ele><time>2026-04-19T11:10:29.053Z</time></trkpt><trkpt lat="42.1339417" lon="11.9703596"><ele>150.0</ele><time>2026-04-19T11:10:30.048Z</time></trkpt><trkpt lat="42.134013" lon="11.9702762"><ele>151.0</ele><time>2026-04-19T11:10:31.046Z</time></trkpt><trkpt lat="42.1340894" lon="11.9701814"><ele>152.0</ele><time>2026-04-19T11:10:32.041Z</time></trkpt><trkpt lat="42.134152" lon="11.9700872"><ele>153.0</ele><time>2026-04-19T11:10:33.051Z</time></trkpt><trkpt lat="42.1342012" lon="11.9699789"><ele>154.0</ele><time>2026-04-19T11:10:34.053Z</time></trkpt><trkpt lat="42.1342392" lon="11.9698581"><ele>155.0</ele><time>2026-04-19T11:10:35.049Z</time></trkpt><trkpt lat="42.1342726" lon="11.9697333"><ele>155.8</ele><time>2026-04-19T11:10:36.039Z</time></trkpt><trkpt lat="42.134308" lon="11.9696072"><ele>156.6</ele><time>2026-04-19T11:10:37.045Z</time></trkpt><trkpt lat="42.1343448" lon="11.9694864"><ele>157.4</ele><time>2026-04-19T11:10:38.05Z</time></trkpt><trkpt lat="42.1343827" lon="11.9693638"><ele>158.2</ele><time>2026-04-19T11:10:39.063Z</time></trkpt><trkpt lat="42.1344228" lon="11.9692409"><ele>159.0</ele><time>2026-04-19T11:10:40.051Z</time></trkpt><trkpt lat="42.1344665" lon="11.9691371"><ele>159.83333333333334</ele><time>2026-04-19T11:10:41.046Z</time></trkpt><trkpt lat="42.1345195" lon="11.969066"><ele>160.66666666666666</ele><time>2026-04-19T11:10:42.043Z</time></trkpt><trkpt lat="42.134566" lon="11.969006"><ele>161.5</ele><time>2026-04-19T11:10:43.05Z</time></trkpt><trkpt lat="42.1346504" lon="11.9689733"><ele>162.33333333333331</ele><time>2026-04-19T11:10:44.044Z</time></trkpt><trkpt lat="42.1347291" lon="11.9689525"><ele>163.16666666666666</ele><time>2026-04-19T11:10:45.041Z</time></trkpt><trkpt lat="42.1348231" lon="11.9689661"><ele>164.0</ele><time>2026-04-19T11:10:46.051Z</time></trkpt><trkpt lat="42.1349088" lon="11.9689909"><ele>165.6</ele><time>2026-04-19T11:10:47.054Z</time></trkpt><trkpt lat="42.1349929" lon="11.9690279"><ele>167.2</ele><time>2026-04-19T11:10:48.039Z</time></trkpt><trkpt lat="42.1350776" lon="11.9691002"><ele>168.79999999999998</ele><time>2026-04-19T11:10:49.047Z</time></trkpt><trkpt lat="42.1351602" lon="11.9691839"><ele>170.39999999999998</ele><time>2026-04-19T11:10:50.049Z</time></trkpt><trkpt lat="42.1352384" lon="11.9692593"><ele>172.0</ele><time>2026-04-19T11:10:51.042Z</time></trkpt><trkpt lat="42.1353125" lon="11.9693317"><ele>172.0</ele><time>2026-04-19T11:10:52.045Z</time></trkpt><trkpt lat="42.1353691" lon="11.9693713"><ele>172.0</ele><time>2026-04-19T11:10:53.046Z</time></trkpt><trkpt lat="42.1354637" lon="11.9693876"><ele>172.0</ele><time>2026-04-19T11:10:55.049Z</time></trkpt><trkpt lat="42.1355214" lon="11.969227"><ele>172.0</ele><time>2026-04-19T11:10:57.042Z</time></trkpt><trkpt lat="42.1355432" lon="11.969113"><ele>172.0</ele><time>2026-04-19T11:10:58.052Z</time></trkpt><trkpt lat="42.1355708" lon="11.9689803"><ele>173.5</ele><time>2026-04-19T11:10:59.055Z</time></trkpt><trkpt lat="42.1355981" lon="11.9688325"><ele>175.0</ele><time>2026-04-19T11:11:00.044Z</time></trkpt><trkpt lat="42.1356276" lon="11.9686778"><ele>176.5</ele><time>2026-04-19T11:11:01.042Z</time></trkpt><trkpt lat="42.1356571" lon="11.9685097"><ele>178.0</ele><time>2026-04-19T11:11:02.054Z</time></trkpt><trkpt lat="42.135677" lon="11.9683464"><ele>180.0</ele><time>2026-04-19T11:11:03.05Z</time></trkpt><trkpt lat="42.1356826" lon="11.968186"><ele>182.0</ele><time>2026-04-19T11:11:04.041Z</time></trkpt><trkpt lat="42.1356784" lon="11.9680244"><ele>184.0</ele><time>2026-04-19T11:11:05.044Z</time></trkpt><trkpt lat="42.1356725" lon="11.967874"><ele>186.0</ele><time>2026-04-19T11:11:06.045Z</time></trkpt><trkpt lat="42.1356727" lon="11.9677392"><ele>186.0</ele><time>2026-04-19T11:11:07.044Z</time></trkpt><trkpt lat="42.1356953" lon="11.9676156"><ele>186.0</ele><time>2026-04-19T11:11:08.053Z</time></trkpt><trkpt lat="42.1357301" lon="11.9675307"><ele>186.0</ele><time>2026-04-19T11:11:09.058Z</time></trkpt><trkpt lat="42.1357843" lon="11.9674834"><ele>186.0</ele><time>2026-04-19T11:11:10.054Z</time></trkpt><trkpt lat="42.1359115" lon="11.9674191"><ele>186.0</ele><time>2026-04-19T11:11:12.055Z</time></trkpt><trkpt lat="42.1360002" lon="11.9673937"><ele>190.20000000000002</ele><time>2026-04-19T11:11:13.05Z</time></trkpt><trkpt lat="42.1360939" lon="11.9673405"><ele>194.4</ele><time>2026-04-19T11:11:14.055Z</time></trkpt><trkpt lat="42.1361852" lon="11.9672959"><ele>198.6</ele><time>2026-04-19T11:11:15.056Z</time></trkpt><trkpt lat="42.1362779" lon="11.967251"><ele>202.8</ele><time>2026-04-19T11:11:16.065Z</time></trkpt><trkpt lat="42.1363838" lon="11.9672114"><ele>207.0</ele><time>2026-04-19T11:11:17.067Z</time></trkpt><trkpt lat="42.1364915" lon="11.9671728"><ele>209.0</ele><time>2026-04-19T11:11:18.057Z</time></trkpt><trkpt lat="42.1365989" lon="11.9671327"><ele>211.0</ele><time>2026-04-19T11:11:19.057Z</time></trkpt><trkpt lat="42.1367044" lon="11.9670943"><ele>213.0</ele><time>2026-04-19T11:11:20.069Z</time></trkpt><trkpt lat="42.1368072" lon="11.9670627"><ele>215.0</ele><time>2026-04-19T11:11:21.057Z</time></trkpt><trkpt lat="42.1369146" lon="11.9670318"><ele>217.0</ele><time>2026-04-19T11:11:22.055Z</time></trkpt><trkpt lat="42.1370471" lon="11.9670017"><ele>217.0</ele><time>2026-04-19T11:11:23.053Z</time></trkpt><trkpt lat="42.1371874" lon="11.9669745"><ele>217.0</ele><time>2026-04-19T11:11:24.045Z</time></trkpt><trkpt lat="42.1373357" lon="11.9669455"><ele>217.0</ele><time>2026-04-19T11:11:25.045Z</time></trkpt><trkpt lat="42.1374794" lon="11.9669005"><ele>217.0</ele><time>2026-04-19T11:11:26.061Z</time></trkpt><trkpt lat="42.1376321" lon="11.9668476"><ele>218.75</ele><time>2026-04-19T11:11:27.049Z</time></trkpt><trkpt lat="42.1377718" lon="11.966793"><ele>220.5</ele><time>2026-04-19T11:11:28.048Z</time></trkpt><trkpt lat="42.137903" lon="11.9667411"><ele>222.25</ele><time>2026-04-19T11:11:29.044Z</time></trkpt><trkpt lat="42.1380222" lon="11.9666981"><ele>224.0</ele><time>2026-04-19T11:11:30.05Z</time></trkpt><trkpt lat="42.138145" lon="11.9666778"><ele>220.5</ele><time>2026-04-19T11:11:31.04Z</time></trkpt><trkpt lat="42.1382693" lon="11.9666691"><ele>217.0</ele><time>2026-04-19T11:11:32.046Z</time></trkpt><trkpt lat="42.1383826" lon="11.9666526"><ele>213.5</ele><time>2026-04-19T11:11:33.057Z</time></trkpt><trkpt lat="42.1384804" lon="11.9665933"><ele>210.0</ele><time>2026-04-19T11:11:34.051Z</time></trkpt><trkpt lat="42.1385639" lon="11.9665061"><ele>210.0</ele><time>2026-04-19T11:11:35.048Z</time></trkpt><trkpt lat="42.1386404" lon="11.9663862"><ele>210.0</ele><time>2026-04-19T11:11:36.066Z</time></trkpt><trkpt lat="42.1387092" lon="11.9662676"><ele>210.0</ele><time>2026-04-19T11:11:37.048Z</time></trkpt><trkpt lat="42.1387769" lon="11.9661436"><ele>210.0</ele><time>2026-04-19T11:11:38.052Z</time></trkpt><trkpt lat="42.1388604" lon="11.9659959"><ele>211.75</ele><time>2026-04-19T11:11:39.045Z</time></trkpt><trkpt lat="42.1389305" lon="11.9658348"><ele>213.5</ele><time>2026-04-19T11:11:40.051Z</time></trkpt><trkpt lat="42.1389874" lon="11.9656886"><ele>215.25</ele><time>2026-04-19T11:11:41.055Z</time></trkpt><trkpt lat="42.1390406" lon="11.9655672"><ele>217.0</ele><time>2026-04-19T11:11:42.067Z</time></trkpt><trkpt lat="42.1390914" lon="11.9654573"><ele>217.0</ele><time>2026-04-19T11:11:43.055Z</time></trkpt><trkpt lat="42.1391788" lon="11.9653762"><ele>217.0</ele><time>2026-04-19T11:11:44.052Z</time></trkpt><trkpt lat="42.1392898" lon="11.9653067"><ele>217.0</ele><time>2026-04-19T11:11:45.048Z</time></trkpt><trkpt lat="42.1394177" lon="11.9652508"><ele>217.0</ele><time>2026-04-19T11:11:46.051Z</time></trkpt><trkpt lat="42.1395496" lon="11.9651815"><ele>217.0</ele><time>2026-04-19T11:11:47.047Z</time></trkpt><trkpt lat="42.1396837" lon="11.9651059"><ele>217.0</ele><time>2026-04-19T11:11:48.057Z</time></trkpt><trkpt lat="42.1398113" lon="11.9650332"><ele>217.0</ele><time>2026-04-19T11:11:49.055Z</time></trkpt><trkpt lat="42.1399327" lon="11.9649619"><ele>217.0</ele><time>2026-04-19T11:11:50.049Z</time></trkpt><trkpt lat="42.1400418" lon="11.964864"><ele>216.25</ele><time>2026-04-19T11:11:51.059Z</time></trkpt><trkpt lat="42.1401363" lon="11.9647414"><ele>215.5</ele><time>2026-04-19T11:11:52.054Z</time></trkpt><trkpt lat="42.1402411" lon="11.9646463"><ele>214.75</ele><time>2026-04-19T11:11:53.049Z</time></trkpt><trkpt lat="42.1403603" lon="11.9645597"><ele>214.0</ele><time>2026-04-19T11:11:54.049Z</time></trkpt><trkpt lat="42.1404925" lon="11.964461"><ele>214.0</ele><time>2026-04-19T11:11:55.062Z</time></trkpt><trkpt lat="42.1406187" lon="11.9643584"><ele>214.0</ele><time>2026-04-19T11:11:56.055Z</time></trkpt><trkpt lat="42.1407374" lon="11.9642624"><ele>214.0</ele><time>2026-04-19T11:11:57.049Z</time></trkpt><trkpt lat="42.1408503" lon="11.9641792"><ele>214.0</ele><time>2026-04-19T11:11:58.044Z</time></trkpt><trkpt lat="42.1409642" lon="11.9641115"><ele>212.5</ele><time>2026-04-19T11:11:59.047Z</time></trkpt><trkpt lat="42.1410811" lon="11.9640609"><ele>211.0</ele><time>2026-04-19T11:12:00.048Z</time></trkpt><trkpt lat="42.141192" lon="11.9639939"><ele>209.5</ele><time>2026-04-19T11:12:01.053Z</time></trkpt><trkpt lat="42.1413078" lon="11.9639221"><ele>208.0</ele><time>2026-04-19T11:12:02.04Z</time></trkpt><trkpt lat="42.1414112" lon="11.9638179"><ele>208.0</ele><time>2026-04-19T11:12:03.062Z</time></trkpt><trkpt lat="42.1414993" lon="11.9637365"><ele>208.0</ele><time>2026-04-19T11:12:04.057Z</time></trkpt><trkpt lat="42.1415722" lon="11.9636622"><ele>208.0</ele><time>2026-04-19T11:12:05.053Z</time></trkpt><trkpt lat="42.141628" lon="11.9635965"><ele>208.0</ele><time>2026-04-19T11:12:06.05Z</time></trkpt><trkpt lat="42.1416616" lon="11.9634629"><ele>208.0</ele><time>2026-04-19T11:12:08.053Z</time></trkpt><trkpt lat="42.1416355" lon="11.963297"><ele>208.4</ele><time>2026-04-19T11:12:10.045Z</time></trkpt><trkpt lat="42.1416127" lon="11.9632032"><ele>208.8</ele><time>2026-04-19T11:12:11.055Z</time></trkpt><trkpt lat="42.1415826" lon="11.963097"><ele>209.2</ele><time>2026-04-19T11:12:12.047Z</time></trkpt><trkpt lat="42.1415428" lon="11.9629716"><ele>209.6</ele><time>2026-04-19T11:12:13.052Z</time></trkpt><trkpt lat="42.141494" lon="11.9628325"><ele>210.0</ele><time>2026-04-19T11:12:14.058Z</time></trkpt><trkpt lat="42.1414274" lon="11.9626823"><ele>207.5</ele><time>2026-04-19T11:12:15.058Z</time></trkpt><trkpt lat="42.1413532" lon="11.962532"><ele>205.0</ele><time>2026-04-19T11:12:16.061Z</time></trkpt><trkpt lat="42.1412771" lon="11.9623807"><ele>202.5</ele><time>2026-04-19T11:12:17.057Z</time></trkpt><trkpt lat="42.1411997" lon="11.962234"><ele>200.0</ele><time>2026-04-19T11:12:18.04Z</time></trkpt><trkpt lat="42.1411191" lon="11.962083"><ele>200.0</ele><time>2026-04-19T11:12:19.061Z</time></trkpt><trkpt lat="42.1410368" lon="11.9619307"><ele>200.0</ele><time>2026-04-19T11:12:20.056Z</time></trkpt><trkpt lat="42.1409655" lon="11.9617873"><ele>200.0</ele><time>2026-04-19T11:12:21.055Z</time></trkpt><trkpt lat="42.1409153" lon="11.9616607"><ele>200.0</ele><time>2026-04-19T11:12:22.048Z</time></trkpt><trkpt lat="42.1408864" lon="11.9615378"><ele>201.75</ele><time>2026-04-19T11:12:23.06Z</time></trkpt><trkpt lat="42.1408519" lon="11.9613947"><ele>203.5</ele><time>2026-04-19T11:12:24.044Z</time></trkpt><trkpt lat="42.140829" lon="11.9612235"><ele>205.25</ele><time>2026-04-19T11:12:25.045Z</time></trkpt><trkpt lat="42.1408132" lon="11.9610317"><ele>207.0</ele><time>2026-04-19T11:12:26.044Z</time></trkpt><trkpt lat="42.1407952" lon="11.9608359"><ele>206.25</ele><time>2026-04-19T11:12:27.046Z</time></trkpt><trkpt lat="42.1407723" lon="11.9606515"><ele>205.5</ele><time>2026-04-19T11:12:28.044Z</time></trkpt><trkpt lat="42.1407482" lon="11.9604769"><ele>204.75</ele><time>2026-04-19T11:12:29.054Z</time></trkpt><trkpt lat="42.140715" lon="11.9603113"><ele>204.0</ele><time>2026-04-19T11:12:30.049Z</time></trkpt><trkpt lat="42.1406791" lon="11.9601426"><ele>206.25</ele><time>2026-04-19T11:12:31.044Z</time></trkpt><trkpt lat="42.1406444" lon="11.9599643"><ele>208.5</ele><time>2026-04-19T11:12:32.042Z</time></trkpt><trkpt lat="42.140613" lon="11.9597755"><ele>210.75</ele><time>2026-04-19T11:12:33.06Z</time></trkpt><trkpt lat="42.1405801" lon="11.9595802"><ele>213.0</ele><time>2026-04-19T11:12:34.043Z</time></trkpt><trkpt lat="42.1405519" lon="11.9593976"><ele>213.0</ele><time>2026-04-19T11:12:35.05Z</time></trkpt><trkpt lat="42.1405386" lon="11.959235"><ele>213.0</ele><time>2026-04-19T11:12:36.056Z</time></trkpt><trkpt lat="42.1405261" lon="11.9590741"><ele>213.0</ele><time>2026-04-19T11:12:37.051Z</time></trkpt><trkpt lat="42.1405166" lon="11.9589129"><ele>213.0</ele><time>2026-04-19T11:12:38.044Z</time></trkpt><trkpt lat="42.1404962" lon="11.9587391"><ele>215.25</ele><time>2026-04-19T11:12:39.048Z</time></trkpt><trkpt lat="42.1404721" lon="11.9585623"><ele>217.5</ele><time>2026-04-19T11:12:40.051Z</time></trkpt><trkpt lat="42.1404448" lon="11.9583897"><ele>219.75</ele><time>2026-04-19T11:12:41.039Z</time></trkpt><trkpt lat="42.140419" lon="11.9582253"><ele>222.0</ele><time>2026-04-19T11:12:42.053Z</time></trkpt><trkpt lat="42.1404062" lon="11.9580813"><ele>222.66666666666666</ele><time>2026-04-19T11:12:43.056Z</time></trkpt><trkpt lat="42.1404013" lon="11.9579665"><ele>223.33333333333331</ele><time>2026-04-19T11:12:44.04Z</time></trkpt><trkpt lat="42.1404182" lon="11.9578635"><ele>224.0</ele><time>2026-04-19T11:12:45.048Z</time></trkpt><trkpt lat="42.1404588" lon="11.9577975"><ele>224.66666666666666</ele><time>2026-04-19T11:12:46.046Z</time></trkpt><trkpt lat="42.1405294" lon="11.9577425"><ele>225.33333333333331</ele><time>2026-04-19T11:12:47.047Z</time></trkpt><trkpt lat="42.1406203" lon="11.9576915"><ele>226.0</ele><time>2026-04-19T11:12:48.054Z</time></trkpt><trkpt lat="42.1407265" lon="11.9576325"><ele>227.25</ele><time>2026-04-19T11:12:49.053Z</time></trkpt><trkpt lat="42.1408476" lon="11.9575664"><ele>228.5</ele><time>2026-04-19T11:12:50.059Z</time></trkpt><trkpt lat="42.1409786" lon="11.9574986"><ele>229.75</ele><time>2026-04-19T11:12:51.048Z</time></trkpt><trkpt lat="42.1411211" lon="11.957437"><ele>231.0</ele><time>2026-04-19T11:12:52.05Z</time></trkpt><trkpt lat="42.1412709" lon="11.9573794"><ele>232.0</ele><time>2026-04-19T11:12:53.049Z</time></trkpt><trkpt lat="42.1414069" lon="11.9573287"><ele>233.00000000000003</ele><time>2026-04-19T11:12:54.056Z</time></trkpt><trkpt lat="42.1415155" lon="11.9572895"><ele>234.00000000000003</ele><time>2026-04-19T11:12:55.042Z</time></trkpt><trkpt lat="42.1416001" lon="11.9572676"><ele>235.0</ele><time>2026-04-19T11:12:56.055Z</time></trkpt><trkpt lat="42.1416672" lon="11.9573206"><ele>236.0</ele><time>2026-04-19T11:12:57.052Z</time></trkpt><trkpt lat="42.1417416" lon="11.9573865"><ele>238.0</ele><time>2026-04-19T11:12:58.045Z</time></trkpt><trkpt lat="42.1418085" lon="11.9575063"><ele>240.00000000000003</ele><time>2026-04-19T11:12:59.055Z</time></trkpt><trkpt lat="42.1418599" lon="11.9576201"><ele>242.00000000000003</ele><time>2026-04-19T11:13:00.056Z</time></trkpt><trkpt lat="42.1419055" lon="11.9576846"><ele>244.0</ele><time>2026-04-19T11:13:01.047Z</time></trkpt><trkpt lat="42.1420009" lon="11.957707"><ele>246.0</ele><time>2026-04-19T11:13:03.044Z</time></trkpt><trkpt lat="42.1421079" lon="11.9575847"><ele>247.75</ele><time>2026-04-19T11:13:05.042Z</time></trkpt><trkpt lat="42.1421852" lon="11.957498"><ele>249.5</ele><time>2026-04-19T11:13:06.057Z</time></trkpt><trkpt lat="42.1422851" lon="11.9574149"><ele>251.25</ele><time>2026-04-19T11:13:07.046Z</time></trkpt><trkpt lat="42.1423961" lon="11.9573372"><ele>253.0</ele><time>2026-04-19T11:13:08.039Z</time></trkpt><trkpt lat="42.1425107" lon="11.9572641"><ele>256.25</ele><time>2026-04-19T11:13:09.06Z</time></trkpt><trkpt lat="42.1426289" lon="11.9571869"><ele>259.5</ele><time>2026-04-19T11:13:10.048Z</time></trkpt><trkpt lat="42.1427607" lon="11.9570999"><ele>262.75</ele><time>2026-04-19T11:13:11.048Z</time></trkpt><trkpt lat="42.1429042" lon="11.9570122"><ele>266.0</ele><time>2026-04-19T11:13:12.055Z</time></trkpt><trkpt lat="42.1430413" lon="11.9569257"><ele>266.0</ele><time>2026-04-19T11:13:13.058Z</time></trkpt><trkpt lat="42.1431692" lon="11.9568378"><ele>266.0</ele><time>2026-04-19T11:13:14.049Z</time></trkpt><trkpt lat="42.1433005" lon="11.9567376"><ele>266.0</ele><time>2026-04-19T11:13:15.061Z</time></trkpt><trkpt lat="42.1434289" lon="11.9566352"><ele>266.0</ele><time>2026-04-19T11:13:16.052Z</time></trkpt><trkpt lat="42.1435574" lon="11.9565318"><ele>267.0</ele><time>2026-04-19T11:13:17.048Z</time></trkpt><trkpt lat="42.1436858" lon="11.956429"><ele>268.0</ele><time>2026-04-19T11:13:18.052Z</time></trkpt><trkpt lat="42.143821" lon="11.9563221"><ele>269.0</ele><time>2026-04-19T11:13:19.052Z</time></trkpt><trkpt lat="42.1439542" lon="11.956217"><ele>266.33333333333337</ele><time>2026-04-19T11:13:20.06Z</time></trkpt><trkpt lat="42.1440895" lon="11.9561093"><ele>263.6666666666667</ele><time>2026-04-19T11:13:21.048Z</time></trkpt><trkpt lat="42.1442235" lon="11.9560008"><ele>261.0</ele><time>2026-04-19T11:13:22.047Z</time></trkpt><trkpt lat="42.1443487" lon="11.955906"><ele>263.25</ele><time>2026-04-19T11:13:23.053Z</time></trkpt><trkpt lat="42.1444632" lon="11.9558078"><ele>265.5</ele><time>2026-04-19T11:13:24.057Z</time></trkpt><trkpt lat="42.1445806" lon="11.9557021"><ele>267.75</ele><time>2026-04-19T11:13:25.042Z</time></trkpt><trkpt lat="42.1447032" lon="11.9555931"><ele>270.0</ele><time>2026-04-19T11:13:26.047Z</time></trkpt><trkpt lat="42.1448169" lon="11.9554747"><ele>266.6666666666667</ele><time>2026-04-19T11:13:27.07Z</time></trkpt><trkpt lat="42.1449547" lon="11.9553611"><ele>263.33333333333337</ele><time>2026-04-19T11:13:28.054Z</time></trkpt><trkpt lat="42.1450928" lon="11.9552437"><ele>260.0</ele><time>2026-04-19T11:13:29.069Z</time></trkpt><trkpt lat="42.1452331" lon="11.9551262"><ele>259.75</ele><time>2026-04-19T11:13:30.058Z</time></trkpt><trkpt lat="42.1453637" lon="11.955019"><ele>259.5</ele><time>2026-04-19T11:13:31.063Z</time></trkpt><trkpt lat="42.1454837" lon="11.9549202"><ele>259.25</ele><time>2026-04-19T11:13:32.052Z</time></trkpt><trkpt lat="42.1456013" lon="11.9548263"><ele>259.0</ele><time>2026-04-19T11:13:33.056Z</time></trkpt><trkpt lat="42.1457119" lon="11.9547221"><ele>259.0</ele><time>2026-04-19T11:13:34.055Z</time></trkpt><trkpt lat="42.1458371" lon="11.9546085"><ele>259.0</ele><time>2026-04-19T11:13:35.053Z</time></trkpt><trkpt lat="42.1459597" lon="11.9544949"><ele>259.0</ele><time>2026-04-19T11:13:36.05Z</time></trkpt><trkpt lat="42.146082" lon="11.9543799"><ele>259.0</ele><time>2026-04-19T11:13:37.054Z</time></trkpt><trkpt lat="42.1462052" lon="11.9542712"><ele>258.25</ele><time>2026-04-19T11:13:38.053Z</time></trkpt><trkpt lat="42.1463151" lon="11.9541589"><ele>257.5</ele><time>2026-04-19T11:13:39.073Z</time></trkpt><trkpt lat="42.1464343" lon="11.9540598"><ele>256.75</ele><time>2026-04-19T11:13:40.057Z</time></trkpt><trkpt lat="42.1465334" lon="11.9539392"><ele>256.0</ele><time>2026-04-19T11:13:41.053Z</time></trkpt><trkpt lat="42.1466328" lon="11.9537974"><ele>255.75</ele><time>2026-04-19T11:13:42.057Z</time></trkpt><trkpt lat="42.1467446" lon="11.9536656"><ele>255.5</ele><time>2026-04-19T11:13:43.057Z</time></trkpt><trkpt lat="42.1468465" lon="11.9535279"><ele>255.25</ele><time>2026-04-19T11:13:44.045Z</time></trkpt><trkpt lat="42.1469453" lon="11.953388"><ele>255.0</ele><time>2026-04-19T11:13:45.054Z</time></trkpt><trkpt lat="42.147039" lon="11.953254"><ele>255.4</ele><time>2026-04-19T11:13:46.055Z</time></trkpt><trkpt lat="42.1471248" lon="11.9531342"><ele>255.8</ele><time>2026-04-19T11:13:47.047Z</time></trkpt><trkpt lat="42.1471967" lon="11.9530254"><ele>256.2</ele><time>2026-04-19T11:13:48.068Z</time></trkpt><trkpt lat="42.1472609" lon="11.9529169"><ele>256.6</ele><time>2026-04-19T11:13:49.043Z</time></trkpt><trkpt lat="42.147319" lon="11.9528211"><ele>257.0</ele><time>2026-04-19T11:13:50.041Z</time></trkpt><trkpt lat="42.1473794" lon="11.9527359"><ele>257.1666666666667</ele><time>2026-04-19T11:13:51.051Z</time></trkpt><trkpt lat="42.1474429" lon="11.9526871"><ele>257.33333333333337</ele><time>2026-04-19T11:13:52.047Z</time></trkpt><trkpt lat="42.147506" lon="11.9526481"><ele>257.5</ele><time>2026-04-19T11:13:53.043Z</time></trkpt><trkpt lat="42.1475861" lon="11.952658"><ele>257.6666666666667</ele><time>2026-04-19T11:13:54.05Z</time></trkpt><trkpt lat="42.1476772" lon="11.9526993"><ele>257.8333333333333</ele><time>2026-04-19T11:13:55.065Z</time></trkpt><trkpt lat="42.147764" lon="11.9527445"><ele>258.0</ele><time>2026-04-19T11:13:56.051Z</time></trkpt><trkpt lat="42.1478607" lon="11.9527856"><ele>258.0</ele><time>2026-04-19T11:13:57.044Z</time></trkpt><trkpt lat="42.1479661" lon="11.9527957"><ele>258.0</ele><time>2026-04-19T11:13:58.046Z</time></trkpt><trkpt lat="42.1480877" lon="11.9527805"><ele>258.0</ele><time>2026-04-19T11:13:59.05Z</time></trkpt><trkpt lat="42.1482008" lon="11.9527473"><ele>258.0</ele><time>2026-04-19T11:14:00.054Z</time></trkpt><trkpt lat="42.1483167" lon="11.9527174"><ele>260.0</ele><time>2026-04-19T11:14:01.047Z</time></trkpt><trkpt lat="42.1484198" lon="11.9526593"><ele>262.0</ele><time>2026-04-19T11:14:02.042Z</time></trkpt><trkpt lat="42.1485265" lon="11.9525864"><ele>264.0</ele><time>2026-04-19T11:14:03.042Z</time></trkpt><trkpt lat="42.1486355" lon="11.9524963"><ele>266.0</ele><time>2026-04-19T11:14:04.055Z</time></trkpt><trkpt lat="42.1487459" lon="11.9524021"><ele>268.0</ele><time>2026-04-19T11:14:05.046Z</time></trkpt><trkpt lat="42.1488644" lon="11.9523074"><ele>270.0</ele><time>2026-04-19T11:14:06.039Z</time></trkpt><trkpt lat="42.1489753" lon="11.9522234"><ele>272.0</ele><time>2026-04-19T11:14:07.053Z</time></trkpt><trkpt lat="42.1490762" lon="11.9521535"><ele>274.0</ele><time>2026-04-19T11:14:08.044Z</time></trkpt><trkpt lat="42.1491801" lon="11.9521142"><ele>276.0</ele><time>2026-04-19T11:14:09.047Z</time></trkpt><trkpt lat="42.1493014" lon="11.9521012"><ele>278.0</ele><time>2026-04-19T11:14:10.049Z</time></trkpt><trkpt lat="42.1494255" lon="11.9520948"><ele>280.0</ele><time>2026-04-19T11:14:11.062Z</time></trkpt><trkpt lat="42.1495575" lon="11.9520908"><ele>282.0</ele><time>2026-04-19T11:14:12.044Z</time></trkpt><trkpt lat="42.1496801" lon="11.9520459"><ele>282.0</ele><time>2026-04-19T11:14:13.046Z</time></trkpt><trkpt lat="42.1498032" lon="11.9519793"><ele>282.0</ele><time>2026-04-19T11:14:14.05Z</time></trkpt><trkpt lat="42.1499506" lon="11.9518851"><ele>282.0</ele><time>2026-04-19T11:14:15.044Z</time></trkpt><trkpt lat="42.1500838" lon="11.9517958"><ele>282.0</ele><time>2026-04-19T11:14:16.043Z</time></trkpt><trkpt lat="42.1502126" lon="11.9517135"><ele>284.6666666666667</ele><time>2026-04-19T11:14:17.049Z</time></trkpt><trkpt lat="42.1503566" lon="11.9516472"><ele>287.33333333333337</ele><time>2026-04-19T11:14:18.048Z</time></trkpt><trkpt lat="42.1505032" lon="11.9515853"><ele>290.0</ele><time>2026-04-19T11:14:19.04Z</time></trkpt><trkpt lat="42.1506447" lon="11.9515319"><ele>289.5</ele><time>2026-04-19T11:14:20.054Z</time></trkpt><trkpt lat="42.1507841" lon="11.9514817"><ele>289.0</ele><time>2026-04-19T11:14:21.053Z</time></trkpt><trkpt lat="42.150917" lon="11.9514201"><ele>288.5</ele><time>2026-04-19T11:14:22.047Z</time></trkpt><trkpt lat="42.1510474" lon="11.9513482"><ele>288.0</ele><time>2026-04-19T11:14:23.055Z</time></trkpt><trkpt lat="42.1511691" lon="11.9512701"><ele>288.0</ele><time>2026-04-19T11:14:24.061Z</time></trkpt><trkpt lat="42.1512867" lon="11.9511878"><ele>288.0</ele><time>2026-04-19T11:14:25.048Z</time></trkpt><trkpt lat="42.1513938" lon="11.9510987"><ele>288.0</ele><time>2026-04-19T11:14:26.054Z</time></trkpt><trkpt lat="42.1514932" lon="11.9510145"><ele>288.0</ele><time>2026-04-19T11:14:27.056Z</time></trkpt><trkpt lat="42.1515847" lon="11.9509698"><ele>287.6</ele><time>2026-04-19T11:14:28.072Z</time></trkpt><trkpt lat="42.1516801" lon="11.9509525"><ele>287.20000000000005</ele><time>2026-04-19T11:14:29.063Z</time></trkpt><trkpt lat="42.1517752" lon="11.9509471"><ele>286.8</ele><time>2026-04-19T11:14:30.045Z</time></trkpt><trkpt lat="42.1518605" lon="11.9509001"><ele>286.40000000000003</ele><time>2026-04-19T11:14:31.048Z</time></trkpt><trkpt lat="42.1519424" lon="11.9508361"><ele>286.0</ele><time>2026-04-19T11:14:32.058Z</time></trkpt><trkpt lat="42.1520255" lon="11.9507633"><ele>288.8</ele><time>2026-04-19T11:14:33.046Z</time></trkpt><trkpt lat="42.1521057" lon="11.950696"><ele>291.6</ele><time>2026-04-19T11:14:34.054Z</time></trkpt><trkpt lat="42.152223" lon="11.9506724"><ele>294.4</ele><time>2026-04-19T11:14:35.053Z</time></trkpt><trkpt lat="42.1523179" lon="11.9506853"><ele>297.2</ele><time>2026-04-19T11:14:36.057Z</time></trkpt><trkpt lat="42.1524108" lon="11.9507148"><ele>300.0</ele><time>2026-04-19T11:14:37.052Z</time></trkpt><trkpt lat="42.1525006" lon="11.9507537"><ele>300.0</ele><time>2026-04-19T11:14:38.055Z</time></trkpt><trkpt lat="42.1525831" lon="11.9507446"><ele>300.0</ele><time>2026-04-19T11:14:39.051Z</time></trkpt><trkpt lat="42.1526589" lon="11.9507077"><ele>300.0</ele><time>2026-04-19T11:14:40.048Z</time></trkpt><trkpt lat="42.1527522" lon="11.9506477"><ele>300.0</ele><time>2026-04-19T11:14:41.057Z</time></trkpt><trkpt lat="42.1528475" lon="11.9505803"><ele>300.0</ele><time>2026-04-19T11:14:42.052Z</time></trkpt><trkpt lat="42.1529525" lon="11.9504876"><ele>300.0</ele><time>2026-04-19T11:14:43.054Z</time></trkpt><trkpt lat="42.1530703" lon="11.950391"><ele>300.0</ele><time>2026-04-19T11:14:44.045Z</time></trkpt><trkpt lat="42.1531966" lon="11.9502872"><ele>300.0</ele><time>2026-04-19T11:14:45.057Z</time></trkpt><trkpt lat="42.1533394" lon="11.9502034"><ele>300.0</ele><time>2026-04-19T11:14:46.06Z</time></trkpt><trkpt lat="42.1534711" lon="11.9501312"><ele>299.25</ele><time>2026-04-19T11:14:47.046Z</time></trkpt><trkpt lat="42.1536095" lon="11.950064"><ele>298.5</ele><time>2026-04-19T11:14:48.052Z</time></trkpt><trkpt lat="42.1537347" lon="11.9499992"><ele>297.75</ele><time>2026-04-19T11:14:49.052Z</time></trkpt><trkpt lat="42.153843" lon="11.9499393"><ele>297.0</ele><time>2026-04-19T11:14:50.048Z</time></trkpt><trkpt lat="42.1539523" lon="11.9498872"><ele>299.1666666666667</ele><time>2026-04-19T11:14:51.053Z</time></trkpt><trkpt lat="42.1540603" lon="11.9498551"><ele>301.3333333333333</ele><time>2026-04-19T11:14:52.055Z</time></trkpt><trkpt lat="42.1541486" lon="11.9498628"><ele>303.5</ele><time>2026-04-19T11:14:53.044Z</time></trkpt><trkpt lat="42.1542118" lon="11.9498832"><ele>305.66666666666663</ele><time>2026-04-19T11:14:54.047Z</time></trkpt><trkpt lat="42.1542827" lon="11.9499053"><ele>307.8333333333333</ele><time>2026-04-19T11:14:56.043Z</time></trkpt><trkpt lat="42.1543772" lon="11.9499224"><ele>310.0</ele><time>2026-04-19T11:14:58.051Z</time></trkpt><trkpt lat="42.1544666" lon="11.9499078"><ele>310.0</ele><time>2026-04-19T11:15:00.051Z</time></trkpt><trkpt lat="42.1545336" lon="11.949868"><ele>310.0</ele><time>2026-04-19T11:15:02.056Z</time></trkpt><trkpt lat="42.1546225" lon="11.9498727"><ele>310.0</ele><time>2026-04-19T11:15:04.044Z</time></trkpt><trkpt lat="42.1546912" lon="11.9498771"><ele>310.0</ele><time>2026-04-19T11:15:05.053Z</time></trkpt><trkpt lat="42.1547686" lon="11.9498729"><ele>310.0</ele><time>2026-04-19T11:15:06.048Z</time></trkpt><trkpt lat="42.1548432" lon="11.9498625"><ele>310.0</ele><time>2026-04-19T11:15:07.052Z</time></trkpt><trkpt lat="42.1549188" lon="11.9498304"><ele>310.8333333333333</ele><time>2026-04-19T11:15:08.049Z</time></trkpt><trkpt lat="42.1549951" lon="11.9497614"><ele>311.66666666666663</ele><time>2026-04-19T11:15:09.043Z</time></trkpt><trkpt lat="42.1550666" lon="11.9497092"><ele>312.5</ele><time>2026-04-19T11:15:10.053Z</time></trkpt><trkpt lat="42.1551438" lon="11.9496775"><ele>313.3333333333333</ele><time>2026-04-19T11:15:11.048Z</time></trkpt><trkpt lat="42.1552156" lon="11.9496371"><ele>314.1666666666667</ele><time>2026-04-19T11:15:12.048Z</time></trkpt><trkpt lat="42.1552794" lon="11.9495869"><ele>315.0</ele><time>2026-04-19T11:15:13.047Z</time></trkpt><trkpt lat="42.1553297" lon="11.9495168"><ele>315.0</ele><time>2026-04-19T11:15:14.067Z</time></trkpt><trkpt lat="42.1553718" lon="11.9494275"><ele>315.0</ele><time>2026-04-19T11:15:15.043Z</time></trkpt><trkpt lat="42.1554023" lon="11.9493331"><ele>315.0</ele><time>2026-04-19T11:15:16.042Z</time></trkpt><trkpt lat="42.1554435" lon="11.9492025"><ele>315.0</ele><time>2026-04-19T11:15:18.049Z</time></trkpt><trkpt lat="42.1555504" lon="11.9491706"><ele>315.0</ele><time>2026-04-19T11:15:20.046Z</time></trkpt><trkpt lat="42.1556253" lon="11.9491892"><ele>315.0</ele><time>2026-04-19T11:15:21.048Z</time></trkpt><trkpt lat="42.1557005" lon="11.9491931"><ele>316.3333333333333</ele><time>2026-04-19T11:15:22.05Z</time></trkpt><trkpt lat="42.1557785" lon="11.9491697"><ele>317.6666666666667</ele><time>2026-04-19T11:15:23.047Z</time></trkpt><trkpt lat="42.1558579" lon="11.9491535"><ele>319.0</ele><time>2026-04-19T11:15:24.041Z</time></trkpt><trkpt lat="42.1559612" lon="11.9491464"><ele>320.33333333333337</ele><time>2026-04-19T11:15:25.049Z</time></trkpt><trkpt lat="42.1560429" lon="11.9491131"><ele>321.6666666666667</ele><time>2026-04-19T11:15:26.043Z</time></trkpt><trkpt lat="42.1561188" lon="11.949069"><ele>323.0</ele><time>2026-04-19T11:15:27.041Z</time></trkpt><trkpt lat="42.1562099" lon="11.9490247"><ele>323.0</ele><time>2026-04-19T11:15:28.052Z</time></trkpt><trkpt lat="42.1562908" lon="11.9489925"><ele>323.0</ele><time>2026-04-19T11:15:29.045Z</time></trkpt><trkpt lat="42.1563634" lon="11.9489358"><ele>323.0</ele><time>2026-04-19T11:15:30.046Z</time></trkpt><trkpt lat="42.1564173" lon="11.9488752"><ele>323.0</ele><time>2026-04-19T11:15:31.042Z</time></trkpt><trkpt lat="42.1564402" lon="11.9487805"><ele>323.0</ele><time>2026-04-19T11:15:32.053Z</time></trkpt><trkpt lat="42.1564633" lon="11.9486856"><ele>323.0</ele><time>2026-04-19T11:15:33.047Z</time></trkpt><trkpt lat="42.1564852" lon="11.9485855"><ele>323.0</ele><time>2026-04-19T11:15:34.04Z</time></trkpt><trkpt lat="42.1565075" lon="11.9484825"><ele>323.0</ele><time>2026-04-19T11:15:35.047Z</time></trkpt><trkpt lat="42.1565582" lon="11.94838"><ele>323.0</ele><time>2026-04-19T11:15:36.052Z</time></trkpt><trkpt lat="42.1566048" lon="11.9482798"><ele>323.0</ele><time>2026-04-19T11:15:37.045Z</time></trkpt><trkpt lat="42.1566415" lon="11.9481718"><ele>323.0</ele><time>2026-04-19T11:15:38.049Z</time></trkpt><trkpt lat="42.1566794" lon="11.9480712"><ele>323.0</ele><time>2026-04-19T11:15:39.054Z</time></trkpt><trkpt lat="42.1567113" lon="11.9479731"><ele>325.33333333333337</ele><time>2026-04-19T11:15:40.045Z</time></trkpt><trkpt lat="42.1567269" lon="11.9478694"><ele>327.6666666666667</ele><time>2026-04-19T11:15:41.054Z</time></trkpt><trkpt lat="42.1567388" lon="11.9477642"><ele>330.0</ele><time>2026-04-19T11:15:42.044Z</time></trkpt><trkpt lat="42.1567479" lon="11.9476613"><ele>332.3333333333333</ele><time>2026-04-19T11:15:43.055Z</time></trkpt><trkpt lat="42.1567529" lon="11.9475563"><ele>334.66666666666663</ele><time>2026-04-19T11:15:44.046Z</time></trkpt><trkpt lat="42.1567505" lon="11.9474445"><ele>337.0</ele><time>2026-04-19T11:15:45.046Z</time></trkpt><trkpt lat="42.1567449" lon="11.9473382"><ele>338.20000000000005</ele><time>2026-04-19T11:15:46.056Z</time></trkpt><trkpt lat="42.1567186" lon="11.9472272"><ele>339.4</ele><time>2026-04-19T11:15:47.052Z</time></trkpt><trkpt lat="42.1566965" lon="11.9471097"><ele>340.6</ele><time>2026-04-19T11:15:48.047Z</time></trkpt><trkpt lat="42.1566681" lon="11.9469794"><ele>341.79999999999995</ele><time>2026-04-19T11:15:49.049Z</time></trkpt><trkpt lat="42.1566445" lon="11.9468531"><ele>343.0</ele><time>2026-04-19T11:15:50.053Z</time></trkpt><trkpt lat="42.1566213" lon="11.9467244"><ele>344.3333333333333</ele><time>2026-04-19T11:15:51.063Z</time></trkpt><trkpt lat="42.1566004" lon="11.9466018"><ele>345.66666666666663</ele><time>2026-04-19T11:15:52.052Z</time></trkpt><trkpt lat="42.1565916" lon="11.9464847"><ele>347.0</ele><time>2026-04-19T11:15:53.053Z</time></trkpt><trkpt lat="42.1565963" lon="11.9463624"><ele>348.3333333333333</ele><time>2026-04-19T11:15:54.05Z</time></trkpt><trkpt lat="42.1566084" lon="11.9462426"><ele>349.6666666666667</ele><time>2026-04-19T11:15:55.038Z</time></trkpt><trkpt lat="42.1566124" lon="11.9461296"><ele>351.0</ele><time>2026-04-19T11:15:56.057Z</time></trkpt><trkpt lat="42.1566012" lon="11.9460183"><ele>351.0</ele><time>2026-04-19T11:15:57.051Z</time></trkpt><trkpt lat="42.156584" lon="11.9459079"><ele>351.0</ele><time>2026-04-19T11:15:58.039Z</time></trkpt><trkpt lat="42.1565601" lon="11.9457993"><ele>351.0</ele><time>2026-04-19T11:15:59.042Z</time></trkpt><trkpt lat="42.1565464" lon="11.9456858"><ele>351.0</ele><time>2026-04-19T11:16:00.048Z</time></trkpt><trkpt lat="42.1565501" lon="11.9455453"><ele>351.0</ele><time>2026-04-19T11:16:01.048Z</time></trkpt><trkpt lat="42.1565615" lon="11.9454059"><ele>353.8</ele><time>2026-04-19T11:16:02.045Z</time></trkpt><trkpt lat="42.1565699" lon="11.9452725"><ele>356.6</ele><time>2026-04-19T11:16:03.06Z</time></trkpt><trkpt lat="42.1565587" lon="11.9451347"><ele>359.4</ele><time>2026-04-19T11:16:04.057Z</time></trkpt><trkpt lat="42.156534" lon="11.9449936"><ele>362.2</ele><time>2026-04-19T11:16:05.049Z</time></trkpt><trkpt lat="42.1565038" lon="11.9448524"><ele>365.0</ele><time>2026-04-19T11:16:06.049Z</time></trkpt><trkpt lat="42.1564725" lon="11.9447025"><ele>367.75</ele><time>2026-04-19T11:16:07.054Z</time></trkpt><trkpt lat="42.1564491" lon="11.9445429"><ele>370.5</ele><time>2026-04-19T11:16:08.05Z</time></trkpt><trkpt lat="42.156422" lon="11.9443899"><ele>373.25</ele><time>2026-04-19T11:16:09.048Z</time></trkpt><trkpt lat="42.1564001" lon="11.9442401"><ele>376.0</ele><time>2026-04-19T11:16:10.049Z</time></trkpt><trkpt lat="42.1563775" lon="11.9440858"><ele>378.6</ele><time>2026-04-19T11:16:11.05Z</time></trkpt><trkpt lat="42.1563405" lon="11.9439304"><ele>381.20000000000005</ele><time>2026-04-19T11:16:12.045Z</time></trkpt><trkpt lat="42.1563014" lon="11.9438112"><ele>383.79999999999995</ele><time>2026-04-19T11:16:13.05Z</time></trkpt><trkpt lat="42.1562501" lon="11.9437204"><ele>386.4</ele><time>2026-04-19T11:16:14.055Z</time></trkpt><trkpt lat="42.1561749" lon="11.9436404"><ele>389.0</ele><time>2026-04-19T11:16:15.043Z</time></trkpt><trkpt lat="42.1560843" lon="11.9435733"><ele>389.0</ele><time>2026-04-19T11:16:16.049Z</time></trkpt><trkpt lat="42.1559934" lon="11.943509"><ele>389.0</ele><time>2026-04-19T11:16:17.071Z</time></trkpt><trkpt lat="42.1559186" lon="11.9434199"><ele>389.0</ele><time>2026-04-19T11:16:18.037Z</time></trkpt><trkpt lat="42.1558661" lon="11.9433017"><ele>389.0</ele><time>2026-04-19T11:16:19.053Z</time></trkpt><trkpt lat="42.1558252" lon="11.9431613"><ele>389.0</ele><time>2026-04-19T11:16:20.057Z</time></trkpt><trkpt lat="42.1557877" lon="11.9429952"><ele>392.75</ele><time>2026-04-19T11:16:21.046Z</time></trkpt><trkpt lat="42.1557385" lon="11.9428187"><ele>396.5</ele><time>2026-04-19T11:16:22.039Z</time></trkpt><trkpt lat="42.1556652" lon="11.9426559"><ele>400.25</ele><time>2026-04-19T11:16:23.071Z</time></trkpt><trkpt lat="42.1555686" lon="11.9424984"><ele>404.0</ele><time>2026-04-19T11:16:24.049Z</time></trkpt><trkpt lat="42.155452" lon="11.9423481"><ele>411.3333333333333</ele><time>2026-04-19T11:16:25.05Z</time></trkpt><trkpt lat="42.1553248" lon="11.9422069"><ele>418.66666666666663</ele><time>2026-04-19T11:16:26.052Z</time></trkpt><trkpt lat="42.1551979" lon="11.9420688"><ele>426.0</ele><time>2026-04-19T11:16:27.054Z</time></trkpt><trkpt lat="42.1550832" lon="11.9419389"><ele>426.0</ele><time>2026-04-19T11:16:28.048Z</time></trkpt><trkpt lat="42.1549825" lon="11.9418142"><ele>426.0</ele><time>2026-04-19T11:16:29.056Z</time></trkpt><trkpt lat="42.1548961" lon="11.9416837"><ele>426.0</ele><time>2026-04-19T11:16:30.049Z</time></trkpt><trkpt lat="42.1548197" lon="11.9415438"><ele>426.0</ele><time>2026-04-19T11:16:31.042Z</time></trkpt><trkpt lat="42.1547418" lon="11.9413971"><ele>429.4</ele><time>2026-04-19T11:16:32.048Z</time></trkpt><trkpt lat="42.1546645" lon="11.9412639"><ele>432.8</ele><time>2026-04-19T11:16:33.042Z</time></trkpt><trkpt lat="42.1545977" lon="11.9411632"><ele>436.19999999999993</ele><time>2026-04-19T11:16:34.061Z</time></trkpt><trkpt lat="42.1545463" lon="11.9410891"><ele>439.59999999999997</ele><time>2026-04-19T11:16:35.05Z</time></trkpt><trkpt lat="42.1544836" lon="11.9409717"><ele>443.0</ele><time>2026-04-19T11:16:37.046Z</time></trkpt><trkpt lat="42.1545081" lon="11.9408538"><ele>442.99999999999994</ele><time>2026-04-19T11:16:39.053Z</time></trkpt><trkpt lat="42.1545729" lon="11.9408348"><ele>443.0</ele><time>2026-04-19T11:16:40.041Z</time></trkpt><trkpt lat="42.1546464" lon="11.9408612"><ele>443.0</ele><time>2026-04-19T11:16:41.057Z</time></trkpt><trkpt lat="42.1547258" lon="11.9408892"><ele>443.0</ele><time>2026-04-19T11:16:42.049Z</time></trkpt><trkpt lat="42.1547926" lon="11.9409426"><ele>442.99999999999994</ele><time>2026-04-19T11:16:43.043Z</time></trkpt><trkpt lat="42.1548717" lon="11.9409743"><ele>443.0</ele><time>2026-04-19T11:16:45.045Z</time></trkpt><trkpt lat="42.1549264" lon="11.9411016"><ele>441.2</ele><time>2026-04-19T11:18:09.058Z</time></trkpt><trkpt lat="42.1550185" lon="11.9412292"><ele>439.4</ele><time>2026-04-19T11:18:11.049Z</time></trkpt><trkpt lat="42.1550727" lon="11.9413102"><ele>437.59999999999997</ele><time>2026-04-19T11:18:12.044Z</time></trkpt><trkpt lat="42.1551357" lon="11.9414087"><ele>435.79999999999995</ele><time>2026-04-19T11:18:13.042Z</time></trkpt><trkpt lat="42.155213" lon="11.9415224"><ele>434.0</ele><time>2026-04-19T11:18:14.04Z</time></trkpt><trkpt lat="42.1552975" lon="11.941639"><ele>432.75</ele><time>2026-04-19T11:18:15.051Z</time></trkpt><trkpt lat="42.1553917" lon="11.9417604"><ele>431.5</ele><time>2026-04-19T11:18:16.046Z</time></trkpt><trkpt lat="42.1554956" lon="11.941884"><ele>430.25</ele><time>2026-04-19T11:18:17.043Z</time></trkpt><trkpt lat="42.1556089" lon="11.9420127"><ele>429.0</ele><time>2026-04-19T11:18:18.057Z</time></trkpt><trkpt lat="42.1557216" lon="11.9421396"><ele>429.0</ele><time>2026-04-19T11:18:19.04Z</time></trkpt><trkpt lat="42.1558149" lon="11.9422835"><ele>429.0</ele><time>2026-04-19T11:18:20.049Z</time></trkpt><trkpt lat="42.1558856" lon="11.9424372"><ele>429.0</ele><time>2026-04-19T11:18:21.044Z</time></trkpt><trkpt lat="42.1559524" lon="11.9425806"><ele>429.0</ele><time>2026-04-19T11:18:22.044Z</time></trkpt><trkpt lat="42.1560401" lon="11.9427162"><ele>422.75</ele><time>2026-04-19T11:18:23.067Z</time></trkpt><trkpt lat="42.1561406" lon="11.9428259"><ele>416.5</ele><time>2026-04-19T11:18:24.057Z</time></trkpt><trkpt lat="42.1562595" lon="11.942916"><ele>410.25</ele><time>2026-04-19T11:18:25.04Z</time></trkpt><trkpt lat="42.1563917" lon="11.9429692"><ele>404.0</ele><time>2026-04-19T11:18:26.056Z</time></trkpt><trkpt lat="42.1565345" lon="11.9429861"><ele>407.0</ele><time>2026-04-19T11:18:27.07Z</time></trkpt><trkpt lat="42.1566781" lon="11.9429808"><ele>410.0</ele><time>2026-04-19T11:18:28.046Z</time></trkpt><trkpt lat="42.1568235" lon="11.9429285"><ele>413.0</ele><time>2026-04-19T11:18:29.05Z</time></trkpt><trkpt lat="42.1569607" lon="11.942835"><ele>416.0</ele><time>2026-04-19T11:18:30.06Z</time></trkpt><trkpt lat="42.1570879" lon="11.9427231"><ele>416.0</ele><time>2026-04-19T11:18:31.047Z</time></trkpt><trkpt lat="42.1571938" lon="11.9425633"><ele>416.0</ele><time>2026-04-19T11:18:32.047Z</time></trkpt><trkpt lat="42.1572774" lon="11.9424079"><ele>416.0</ele><time>2026-04-19T11:18:33.053Z</time></trkpt><trkpt lat="42.1573513" lon="11.9422579"><ele>416.0</ele><time>2026-04-19T11:18:34.049Z</time></trkpt><trkpt lat="42.1574366" lon="11.9421262"><ele>419.3333333333333</ele><time>2026-04-19T11:18:35.044Z</time></trkpt><trkpt lat="42.1575402" lon="11.9420024"><ele>422.66666666666663</ele><time>2026-04-19T11:18:36.044Z</time></trkpt><trkpt lat="42.1576863" lon="11.9419272"><ele>426.0</ele><time>2026-04-19T11:18:37.05Z</time></trkpt><trkpt lat="42.1578356" lon="11.9418606"><ele>426.0</ele><time>2026-04-19T11:18:38.053Z</time></trkpt><trkpt lat="42.1579812" lon="11.9417874"><ele>426.0</ele><time>2026-04-19T11:18:39.046Z</time></trkpt><trkpt lat="42.1581187" lon="11.9417359"><ele>426.0</ele><time>2026-04-19T11:18:40.047Z</time></trkpt><trkpt lat="42.1582635" lon="11.941698"><ele>426.0</ele><time>2026-04-19T11:18:41.041Z</time></trkpt><trkpt lat="42.1584037" lon="11.941695"><ele>417.66666666666663</ele><time>2026-04-19T11:18:42.047Z</time></trkpt><trkpt lat="42.1585607" lon="11.9417545"><ele>409.3333333333333</ele><time>2026-04-19T11:18:43.047Z</time></trkpt><trkpt lat="42.1586855" lon="11.9418823"><ele>401.0</ele><time>2026-04-19T11:18:44.053Z</time></trkpt><trkpt lat="42.1587941" lon="11.9420052"><ele>401.0</ele><time>2026-04-19T11:18:45.049Z</time></trkpt><trkpt lat="42.1588979" lon="11.9421318"><ele>401.0</ele><time>2026-04-19T11:18:46.053Z</time></trkpt><trkpt lat="42.1590052" lon="11.9422332"><ele>401.0</ele><time>2026-04-19T11:18:47.057Z</time></trkpt><trkpt lat="42.1591104" lon="11.9422989"><ele>401.0</ele><time>2026-04-19T11:18:48.048Z</time></trkpt><trkpt lat="42.1592178" lon="11.9423383"><ele>400.25</ele><time>2026-04-19T11:18:49.044Z</time></trkpt><trkpt lat="42.1593327" lon="11.9423079"><ele>399.5</ele><time>2026-04-19T11:18:50.057Z</time></trkpt><trkpt lat="42.159448" lon="11.9422413"><ele>398.75</ele><time>2026-04-19T11:18:51.05Z</time></trkpt><trkpt lat="42.1595569" lon="11.942147"><ele>398.0</ele><time>2026-04-19T11:18:52.049Z</time></trkpt><trkpt lat="42.1596714" lon="11.9420391"><ele>398.0</ele><time>2026-04-19T11:18:53.064Z</time></trkpt><trkpt lat="42.1597828" lon="11.9419192"><ele>398.0</ele><time>2026-04-19T11:18:54.053Z</time></trkpt><trkpt lat="42.1598802" lon="11.9417985"><ele>398.0</ele><time>2026-04-19T11:18:55.045Z</time></trkpt><trkpt lat="42.1599672" lon="11.9416615"><ele>398.0</ele><time>2026-04-19T11:18:56.045Z</time></trkpt><trkpt lat="42.160042" lon="11.9415081"><ele>397.5</ele><time>2026-04-19T11:18:57.059Z</time></trkpt><trkpt lat="42.160104" lon="11.9413471"><ele>397.0</ele><time>2026-04-19T11:18:58.057Z</time></trkpt><trkpt lat="42.1601532" lon="11.941194"><ele>396.5</ele><time>2026-04-19T11:18:59.048Z</time></trkpt><trkpt lat="42.1601963" lon="11.9410358"><ele>396.0</ele><time>2026-04-19T11:19:00.052Z</time></trkpt><trkpt lat="42.1602397" lon="11.9408692"><ele>395.25</ele><time>2026-04-19T11:19:01.055Z</time></trkpt><trkpt lat="42.160285" lon="11.9406949"><ele>394.5</ele><time>2026-04-19T11:19:02.047Z</time></trkpt><trkpt lat="42.160332" lon="11.9405237"><ele>393.75</ele><time>2026-04-19T11:19:03.058Z</time></trkpt><trkpt lat="42.1603924" lon="11.9403635"><ele>393.0</ele><time>2026-04-19T11:19:04.055Z</time></trkpt><trkpt lat="42.1604723" lon="11.9402322"><ele>393.0</ele><time>2026-04-19T11:19:05.043Z</time></trkpt><trkpt lat="42.1605761" lon="11.9401372"><ele>393.0</ele><time>2026-04-19T11:19:06.063Z</time></trkpt><trkpt lat="42.1607" lon="11.9400773"><ele>393.0</ele><time>2026-04-19T11:19:07.059Z</time></trkpt><trkpt lat="42.1608354" lon="11.9400401"><ele>393.0</ele><time>2026-04-19T11:19:08.049Z</time></trkpt><trkpt lat="42.1609731" lon="11.9400107"><ele>390.25</ele><time>2026-04-19T11:19:09.049Z</time></trkpt><trkpt lat="42.161104" lon="11.9399834"><ele>387.5</ele><time>2026-04-19T11:19:10.05Z</time></trkpt><trkpt lat="42.1612241" lon="11.9399595"><ele>384.75</ele><time>2026-04-19T11:19:11.064Z</time></trkpt><trkpt lat="42.1613385" lon="11.9399593"><ele>382.0</ele><time>2026-04-19T11:19:12.045Z</time></trkpt><trkpt lat="42.1614472" lon="11.9399902"><ele>380.75</ele><time>2026-04-19T11:19:13.06Z</time></trkpt><trkpt lat="42.1615548" lon="11.9400317"><ele>379.5</ele><time>2026-04-19T11:19:14.059Z</time></trkpt><trkpt lat="42.161637" lon="11.9401474"><ele>378.25</ele><time>2026-04-19T11:19:15.043Z</time></trkpt><trkpt lat="42.1617134" lon="11.9402937"><ele>377.0</ele><time>2026-04-19T11:19:16.097Z</time></trkpt><trkpt lat="42.1617831" lon="11.9404649"><ele>381.0</ele><time>2026-04-19T11:19:17.059Z</time></trkpt><trkpt lat="42.161866" lon="11.940649"><ele>385.0</ele><time>2026-04-19T11:19:18.045Z</time></trkpt><trkpt lat="42.161958" lon="11.940845"><ele>389.0</ele><time>2026-04-19T11:19:19.07Z</time></trkpt><trkpt lat="42.1620471" lon="11.9410551"><ele>389.0</ele><time>2026-04-19T11:19:20.051Z</time></trkpt><trkpt lat="42.162138" lon="11.9412702"><ele>389.0</ele><time>2026-04-19T11:19:21.054Z</time></trkpt><trkpt lat="42.1622224" lon="11.9414855"><ele>389.0</ele><time>2026-04-19T11:19:22.049Z</time></trkpt><trkpt lat="42.1622955" lon="11.9417023"><ele>385.0</ele><time>2026-04-19T11:19:23.055Z</time></trkpt><trkpt lat="42.1623369" lon="11.9419133"><ele>381.0</ele><time>2026-04-19T11:19:24.044Z</time></trkpt><trkpt lat="42.1623681" lon="11.9420984"><ele>377.0</ele><time>2026-04-19T11:19:25.072Z</time></trkpt><trkpt lat="42.1623661" lon="11.94225"><ele>373.0</ele><time>2026-04-19T11:19:26.051Z</time></trkpt><trkpt lat="42.1623563" lon="11.9423699"><ele>373.0</ele><time>2026-04-19T11:19:27.057Z</time></trkpt><trkpt lat="42.1623415" lon="11.9424612"><ele>373.0</ele><time>2026-04-19T11:19:28.057Z</time></trkpt><trkpt lat="42.1623077" lon="11.9426064"><ele>373.0</ele><time>2026-04-19T11:19:30.05Z</time></trkpt><trkpt lat="42.1622662" lon="11.942697"><ele>373.0</ele><time>2026-04-19T11:19:32.053Z</time></trkpt><trkpt lat="42.1623312" lon="11.9426238"><ele>373.0</ele><time>2026-04-19T11:19:41.049Z</time></trkpt><trkpt lat="42.16236" lon="11.9425332"><ele>373.0</ele><time>2026-04-19T11:19:42.051Z</time></trkpt><trkpt lat="42.1623913" lon="11.9424299"><ele>371.2</ele><time>2026-04-19T11:19:43.051Z</time></trkpt><trkpt lat="42.1624164" lon="11.9423424"><ele>369.4</ele><time>2026-04-19T11:19:44.051Z</time></trkpt><trkpt lat="42.1624401" lon="11.9422534"><ele>367.59999999999997</ele><time>2026-04-19T11:19:45.061Z</time></trkpt><trkpt lat="42.1625603" lon="11.9421959"><ele>365.79999999999995</ele><time>2026-04-19T11:19:47.056Z</time></trkpt><trkpt lat="42.1626241" lon="11.9421832"><ele>364.0</ele><time>2026-04-19T11:19:48.055Z</time></trkpt><trkpt lat="42.1627435" lon="11.9421556"><ele>364.0</ele><time>2026-04-19T11:19:50.047Z</time></trkpt><trkpt lat="42.1628064" lon="11.9421309"><ele>364.0</ele><time>2026-04-19T11:19:51.059Z</time></trkpt><trkpt lat="42.1628679" lon="11.9420851"><ele>364.0</ele><time>2026-04-19T11:19:52.045Z</time></trkpt><trkpt lat="42.1629333" lon="11.9420231"><ele>364.0</ele><time>2026-04-19T11:19:53.04Z</time></trkpt><trkpt lat="42.1630089" lon="11.9419472"><ele>364.0</ele><time>2026-04-19T11:19:54.054Z</time></trkpt><trkpt lat="42.1631" lon="11.9418598"><ele>364.0</ele><time>2026-04-19T11:19:55.054Z</time></trkpt><trkpt lat="42.1631934" lon="11.9417731"><ele>362.0</ele><time>2026-04-19T11:19:56.049Z</time></trkpt><trkpt lat="42.1632949" lon="11.9416991"><ele>360.0</ele><time>2026-04-19T11:19:57.045Z</time></trkpt><trkpt lat="42.1634111" lon="11.9416391"><ele>358.0</ele><time>2026-04-19T11:19:58.063Z</time></trkpt><trkpt lat="42.1635329" lon="11.9416092"><ele>356.0</ele><time>2026-04-19T11:19:59.045Z</time></trkpt><trkpt lat="42.1636587" lon="11.9415999"><ele>356.0</ele><time>2026-04-19T11:20:00.062Z</time></trkpt><trkpt lat="42.1637798" lon="11.9416043"><ele>356.0</ele><time>2026-04-19T11:20:01.044Z</time></trkpt><trkpt lat="42.163892" lon="11.9416365"><ele>356.0</ele><time>2026-04-19T11:20:02.04Z</time></trkpt><trkpt lat="42.1639948" lon="11.9416895"><ele>356.0</ele><time>2026-04-19T11:20:03.051Z</time></trkpt><trkpt lat="42.1640993" lon="11.9417457"><ele>355.25</ele><time>2026-04-19T11:20:04.043Z</time></trkpt><trkpt lat="42.164209" lon="11.9418047"><ele>354.5</ele><time>2026-04-19T11:20:05.036Z</time></trkpt><trkpt lat="42.1643526" lon="11.9418502"><ele>353.75</ele><time>2026-04-19T11:20:06.054Z</time></trkpt><trkpt lat="42.1644923" lon="11.9418889"><ele>353.0</ele><time>2026-04-19T11:20:07.043Z</time></trkpt><trkpt lat="42.1646335" lon="11.9419199"><ele>353.0</ele><time>2026-04-19T11:20:08.041Z</time></trkpt><trkpt lat="42.1647698" lon="11.9419136"><ele>353.0</ele><time>2026-04-19T11:20:09.048Z</time></trkpt><trkpt lat="42.1649008" lon="11.9418694"><ele>353.0</ele><time>2026-04-19T11:20:10.055Z</time></trkpt><trkpt lat="42.165035" lon="11.941801"><ele>353.0</ele><time>2026-04-19T11:20:11.043Z</time></trkpt><trkpt lat="42.1651756" lon="11.9417246"><ele>349.33333333333337</ele><time>2026-04-19T11:20:12.052Z</time></trkpt><trkpt lat="42.1653239" lon="11.9416471"><ele>345.6666666666667</ele><time>2026-04-19T11:20:13.046Z</time></trkpt><trkpt lat="42.1654789" lon="11.941574"><ele>342.0</ele><time>2026-04-19T11:20:14.049Z</time></trkpt><trkpt lat="42.1656357" lon="11.9415158"><ele>342.3333333333333</ele><time>2026-04-19T11:20:15.057Z</time></trkpt><trkpt lat="42.1657946" lon="11.9414765"><ele>342.66666666666663</ele><time>2026-04-19T11:20:16.049Z</time></trkpt><trkpt lat="42.1659574" lon="11.9414462"><ele>343.0</ele><time>2026-04-19T11:20:17.048Z</time></trkpt><trkpt lat="42.1661159" lon="11.9414045"><ele>343.0</ele><time>2026-04-19T11:20:18.046Z</time></trkpt><trkpt lat="42.1662692" lon="11.9413454"><ele>343.0</ele><time>2026-04-19T11:20:19.051Z</time></trkpt><trkpt lat="42.1664146" lon="11.9412777"><ele>343.0</ele><time>2026-04-19T11:20:20.066Z</time></trkpt><trkpt lat="42.1665532" lon="11.9412106"><ele>344.0</ele><time>2026-04-19T11:20:21.048Z</time></trkpt><trkpt lat="42.1666886" lon="11.9411564"><ele>345.0</ele><time>2026-04-19T11:20:22.049Z</time></trkpt><trkpt lat="42.1668192" lon="11.9411082"><ele>346.0</ele><time>2026-04-19T11:20:23.063Z</time></trkpt><trkpt lat="42.1669539" lon="11.9410776"><ele>347.0</ele><time>2026-04-19T11:20:24.058Z</time></trkpt><trkpt lat="42.1671015" lon="11.9410736"><ele>347.0</ele><time>2026-04-19T11:20:25.048Z</time></trkpt><trkpt lat="42.167259" lon="11.9410975"><ele>347.0</ele><time>2026-04-19T11:20:26.043Z</time></trkpt><trkpt lat="42.1674156" lon="11.9411365"><ele>347.0</ele><time>2026-04-19T11:20:27.045Z</time></trkpt><trkpt lat="42.1675744" lon="11.9411751"><ele>346.33333333333337</ele><time>2026-04-19T11:20:28.051Z</time></trkpt><trkpt lat="42.1677413" lon="11.9412025"><ele>345.6666666666667</ele><time>2026-04-19T11:20:29.049Z</time></trkpt><trkpt lat="42.1679021" lon="11.9412249"><ele>345.0</ele><time>2026-04-19T11:20:30.052Z</time></trkpt><trkpt lat="42.1680662" lon="11.9412326"><ele>342.0</ele><time>2026-04-19T11:20:31.058Z</time></trkpt><trkpt lat="42.1682303" lon="11.9412115"><ele>339.0</ele><time>2026-04-19T11:20:32.044Z</time></trkpt><trkpt lat="42.1683834" lon="11.941169"><ele>336.0</ele><time>2026-04-19T11:20:33.06Z</time></trkpt><trkpt lat="42.168535" lon="11.9411396"><ele>336.0</ele><time>2026-04-19T11:20:34.059Z</time></trkpt><trkpt lat="42.1686818" lon="11.9411185"><ele>336.0</ele><time>2026-04-19T11:20:35.048Z</time></trkpt><trkpt lat="42.1688316" lon="11.9411461"><ele>336.0</ele><time>2026-04-19T11:20:36.046Z</time></trkpt><trkpt lat="42.1689752" lon="11.9412279"><ele>330.3333333333333</ele><time>2026-04-19T11:20:37.048Z</time></trkpt><trkpt lat="42.1691211" lon="11.9413241"><ele>324.66666666666663</ele><time>2026-04-19T11:20:38.043Z</time></trkpt><trkpt lat="42.1692618" lon="11.9414371"><ele>319.0</ele><time>2026-04-19T11:20:39.051Z</time></trkpt><trkpt lat="42.1693955" lon="11.9415598"><ele>319.0</ele><time>2026-04-19T11:20:40.049Z</time></trkpt><trkpt lat="42.1695147" lon="11.9417032"><ele>319.0</ele><time>2026-04-19T11:20:41.049Z</time></trkpt><trkpt lat="42.1696138" lon="11.9418679"><ele>319.0</ele><time>2026-04-19T11:20:42.058Z</time></trkpt><trkpt lat="42.1696893" lon="11.9420354"><ele>321.0</ele><time>2026-04-19T11:20:43.045Z</time></trkpt><trkpt lat="42.1697325" lon="11.9421925"><ele>323.0</ele><time>2026-04-19T11:20:44.059Z</time></trkpt><trkpt lat="42.1697672" lon="11.9423008"><ele>325.0</ele><time>2026-04-19T11:20:45.05Z</time></trkpt><trkpt lat="42.1697988" lon="11.9424043"><ele>327.0</ele><time>2026-04-19T11:20:47.045Z</time></trkpt><trkpt lat="42.1698283" lon="11.9425242"><ele>329.0</ele><time>2026-04-19T11:20:50.056Z</time></trkpt><trkpt lat="42.1698673" lon="11.9426919"><ele>329.0</ele><time>2026-04-19T11:20:52.059Z</time></trkpt><trkpt lat="42.1698942" lon="11.942788"><ele>329.0</ele><time>2026-04-19T11:20:53.049Z</time></trkpt><trkpt lat="42.1699248" lon="11.9428624"><ele>329.0</ele><time>2026-04-19T11:20:54.053Z</time></trkpt><trkpt lat="42.1699709" lon="11.9429273"><ele>329.0</ele><time>2026-04-19T11:20:56.072Z</time></trkpt><trkpt lat="42.1700091" lon="11.9430142"><ele>329.0</ele><time>2026-04-19T11:20:58.053Z</time></trkpt><trkpt lat="42.169966" lon="11.9428699"><ele>329.0</ele><time>2026-04-19T11:22:45.051Z</time></trkpt><trkpt lat="42.1699162" lon="11.9427954"><ele>329.0</ele><time>2026-04-19T11:22:53.05Z</time></trkpt><trkpt lat="42.1698796" lon="11.9427161"><ele>329.0</ele><time>2026-04-19T11:22:58.053Z</time></trkpt><trkpt lat="42.1698533" lon="11.9426274"><ele>329.0</ele><time>2026-04-19T11:23:01.056Z</time></trkpt><trkpt lat="42.1698311" lon="11.9425408"><ele>329.0</ele><time>2026-04-19T11:23:04.047Z</time></trkpt><trkpt lat="42.1698336" lon="11.9424538"><ele>329.0</ele><time>2026-04-19T11:23:06.052Z</time></trkpt><trkpt lat="42.1698721" lon="11.9423748"><ele>329.0</ele><time>2026-04-19T11:23:09.063Z</time></trkpt><trkpt lat="42.1699467" lon="11.9423333"><ele>329.0</ele><time>2026-04-19T11:23:13.05Z</time></trkpt><trkpt lat="42.170025" lon="11.9423375"><ele>329.0</ele><time>2026-04-19T11:23:17.066Z</time></trkpt><trkpt lat="42.1701071" lon="11.9424182"><ele>329.0</ele><time>2026-04-19T11:23:21.05Z</time></trkpt><trkpt lat="42.1701851" lon="11.9424999"><ele>329.0</ele><time>2026-04-19T11:23:23.055Z</time></trkpt><trkpt lat="42.1702875" lon="11.9425997"><ele>329.0</ele><time>2026-04-19T11:23:25.06Z</time></trkpt><trkpt lat="42.170351" lon="11.942647"><ele>329.0</ele><time>2026-04-19T11:23:26.063Z</time></trkpt><trkpt lat="42.1704189" lon="11.942682"><ele>329.0</ele><time>2026-04-19T11:23:27.052Z</time></trkpt><trkpt lat="42.1704949" lon="11.942707"><ele>329.0</ele><time>2026-04-19T11:23:28.058Z</time></trkpt><trkpt lat="42.170578" lon="11.9427405"><ele>329.0</ele><time>2026-04-19T11:23:29.045Z</time></trkpt><trkpt lat="42.1706598" lon="11.9427701"><ele>329.0</ele><time>2026-04-19T11:23:30.057Z</time></trkpt><trkpt lat="42.1707417" lon="11.9428265"><ele>329.0</ele><time>2026-04-19T11:23:31.046Z</time></trkpt><trkpt lat="42.1708216" lon="11.942888"><ele>329.0</ele><time>2026-04-19T11:23:32.04Z</time></trkpt><trkpt lat="42.1708985" lon="11.942965"><ele>329.0</ele><time>2026-04-19T11:23:33.063Z</time></trkpt><trkpt lat="42.1709776" lon="11.943044"><ele>329.0</ele><time>2026-04-19T11:23:34.051Z</time></trkpt><trkpt lat="42.1710503" lon="11.9431447"><ele>329.0</ele><time>2026-04-19T11:23:35.045Z</time></trkpt><trkpt lat="42.1711358" lon="11.9432402"><ele>329.0</ele><time>2026-04-19T11:23:36.056Z</time></trkpt><trkpt lat="42.1712317" lon="11.9433236"><ele>329.0</ele><time>2026-04-19T11:23:37.051Z</time></trkpt><trkpt lat="42.171337" lon="11.9433979"><ele>329.0</ele><time>2026-04-19T11:23:38.041Z</time></trkpt><trkpt lat="42.1714373" lon="11.9434705"><ele>329.0</ele><time>2026-04-19T11:23:39.057Z</time></trkpt><trkpt lat="42.1715359" lon="11.9435486"><ele>329.0</ele><time>2026-04-19T11:23:40.059Z</time></trkpt><trkpt lat="42.171634" lon="11.9436466"><ele>329.0</ele><time>2026-04-19T11:23:41.052Z</time></trkpt><trkpt lat="42.1717351" lon="11.9437463"><ele>325.5</ele><time>2026-04-19T11:23:42.051Z</time></trkpt><trkpt lat="42.1718143" lon="11.9438834"><ele>322.0</ele><time>2026-04-19T11:23:43.054Z</time></trkpt><trkpt lat="42.1718806" lon="11.9440278"><ele>318.5</ele><time>2026-04-19T11:23:44.05Z</time></trkpt><trkpt lat="42.171949" lon="11.944167"><ele>315.0</ele><time>2026-04-19T11:23:45.053Z</time></trkpt><trkpt lat="42.1720206" lon="11.9443095"><ele>315.0</ele><time>2026-04-19T11:23:46.044Z</time></trkpt><trkpt lat="42.1721196" lon="11.9444461"><ele>315.0</ele><time>2026-04-19T11:23:47.046Z</time></trkpt><trkpt lat="42.1722192" lon="11.9445849"><ele>315.0</ele><time>2026-04-19T11:23:48.05Z</time></trkpt><trkpt lat="42.1723139" lon="11.9447198"><ele>315.0</ele><time>2026-04-19T11:23:49.052Z</time></trkpt><trkpt lat="42.1723874" lon="11.9448643"><ele>314.8</ele><time>2026-04-19T11:23:50.05Z</time></trkpt><trkpt lat="42.1724444" lon="11.9449937"><ele>314.6</ele><time>2026-04-19T11:23:51.05Z</time></trkpt><trkpt lat="42.1724946" lon="11.9451067"><ele>314.4</ele><time>2026-04-19T11:23:52.069Z</time></trkpt><trkpt lat="42.1725388" lon="11.9452019"><ele>314.2</ele><time>2026-04-19T11:23:53.062Z</time></trkpt><trkpt lat="42.1726079" lon="11.9453107"><ele>314.0</ele><time>2026-04-19T11:23:55.043Z</time></trkpt><trkpt lat="42.1726713" lon="11.9452733"><ele>314.0</ele><time>2026-04-19T11:23:58.06Z</time></trkpt><trkpt lat="42.1726714" lon="11.945179"><ele>314.0</ele><time>2026-04-19T11:24:00.049Z</time></trkpt><trkpt lat="42.172631" lon="11.9450258"><ele>314.0</ele><time>2026-04-19T11:24:02.052Z</time></trkpt><trkpt lat="42.172616" lon="11.9449179"><ele>314.0</ele><time>2026-04-19T11:24:03.042Z</time></trkpt><trkpt lat="42.1726036" lon="11.944802"><ele>314.0</ele><time>2026-04-19T11:24:04.048Z</time></trkpt><trkpt lat="42.1725918" lon="11.9446921"><ele>314.0</ele><time>2026-04-19T11:24:05.047Z</time></trkpt><trkpt lat="42.172582" lon="11.9445855"><ele>316.2</ele><time>2026-04-19T11:24:06.042Z</time></trkpt><trkpt lat="42.1726263" lon="11.9444476"><ele>318.4</ele><time>2026-04-19T11:24:08.051Z</time></trkpt><trkpt lat="42.1727092" lon="11.9444035"><ele>320.6</ele><time>2026-04-19T11:24:10.051Z</time></trkpt><trkpt lat="42.1728024" lon="11.944453"><ele>322.8</ele><time>2026-04-19T11:24:12.049Z</time></trkpt><trkpt lat="42.1728453" lon="11.9445424"><ele>325.0</ele><time>2026-04-19T11:24:13.059Z</time></trkpt><trkpt lat="42.172895" lon="11.9446439"><ele>325.0</ele><time>2026-04-19T11:24:14.041Z</time></trkpt><trkpt lat="42.1729453" lon="11.9447814"><ele>325.0</ele><time>2026-04-19T11:24:15.053Z</time></trkpt><trkpt lat="42.1730012" lon="11.9449115"><ele>325.0</ele><time>2026-04-19T11:24:16.057Z</time></trkpt><trkpt lat="42.1730702" lon="11.9450242"><ele>325.0</ele><time>2026-04-19T11:24:17.039Z</time></trkpt><trkpt lat="42.173147" lon="11.9451128"><ele>325.0</ele><time>2026-04-19T11:24:18.05Z</time></trkpt><trkpt lat="42.1732235" lon="11.9451695"><ele>327.0</ele><time>2026-04-19T11:24:19.049Z</time></trkpt><trkpt lat="42.1733129" lon="11.9452138"><ele>329.0</ele><time>2026-04-19T11:24:20.044Z</time></trkpt><trkpt lat="42.1734143" lon="11.9452531"><ele>331.0</ele><time>2026-04-19T11:24:21.049Z</time></trkpt><trkpt lat="42.1735266" lon="11.9452934"><ele>333.0</ele><time>2026-04-19T11:24:22.057Z</time></trkpt><trkpt lat="42.1736497" lon="11.9453332"><ele>335.0</ele><time>2026-04-19T11:24:23.049Z</time></trkpt><trkpt lat="42.1737774" lon="11.9453754"><ele>335.0</ele><time>2026-04-19T11:24:24.059Z</time></trkpt><trkpt lat="42.1739089" lon="11.9454282"><ele>335.0</ele><time>2026-04-19T11:24:25.055Z</time></trkpt><trkpt lat="42.1740406" lon="11.9454735"><ele>335.0</ele><time>2026-04-19T11:24:26.044Z</time></trkpt><trkpt lat="42.1741756" lon="11.9455277"><ele>335.0</ele><time>2026-04-19T11:24:27.045Z</time></trkpt><trkpt lat="42.1743098" lon="11.9455943"><ele>340.0</ele><time>2026-04-19T11:24:28.045Z</time></trkpt><trkpt lat="42.1744393" lon="11.9456584"><ele>345.0</ele><time>2026-04-19T11:24:29.043Z</time></trkpt><trkpt lat="42.1745586" lon="11.9457383"><ele>350.0</ele><time>2026-04-19T11:24:30.045Z</time></trkpt><trkpt lat="42.1746607" lon="11.9458214"><ele>355.0</ele><time>2026-04-19T11:24:31.06Z</time></trkpt><trkpt lat="42.1747689" lon="11.9459064"><ele>355.66666666666663</ele><time>2026-04-19T11:24:32.049Z</time></trkpt><trkpt lat="42.1748396" lon="11.9459925"><ele>356.3333333333333</ele><time>2026-04-19T11:24:33.058Z</time></trkpt><trkpt lat="42.174873" lon="11.9460959"><ele>357.0</ele><time>2026-04-19T11:24:34.05Z</time></trkpt><trkpt lat="42.1749002" lon="11.946188"><ele>357.6666666666667</ele><time>2026-04-19T11:24:35.043Z</time></trkpt><trkpt lat="42.1749422" lon="11.9462609"><ele>358.33333333333337</ele><time>2026-04-19T11:24:36.052Z</time></trkpt><trkpt lat="42.175036" lon="11.9463012"><ele>359.0</ele><time>2026-04-19T11:24:38.043Z</time></trkpt><trkpt lat="42.1751168" lon="11.94624"><ele>361.4</ele><time>2026-04-19T11:24:40.058Z</time></trkpt><trkpt lat="42.1751859" lon="11.9461146"><ele>363.79999999999995</ele><time>2026-04-19T11:24:42.062Z</time></trkpt><trkpt lat="42.1752359" lon="11.9460054"><ele>366.20000000000005</ele><time>2026-04-19T11:24:43.05Z</time></trkpt><trkpt lat="42.1752863" lon="11.9458914"><ele>368.6</ele><time>2026-04-19T11:24:44.042Z</time></trkpt><trkpt lat="42.1753417" lon="11.9457659"><ele>371.0</ele><time>2026-04-19T11:24:45.044Z</time></trkpt><trkpt lat="42.1753927" lon="11.9456548"><ele>371.0</ele><time>2026-04-19T11:24:46.047Z</time></trkpt><trkpt lat="42.1754475" lon="11.9455758"><ele>371.0</ele><time>2026-04-19T11:24:47.039Z</time></trkpt><trkpt lat="42.1755207" lon="11.9455292"><ele>371.0</ele><time>2026-04-19T11:24:48.047Z</time></trkpt><trkpt lat="42.1756021" lon="11.9454765"><ele>371.0</ele><time>2026-04-19T11:24:49.054Z</time></trkpt><trkpt lat="42.1756843" lon="11.9454195"><ele>371.0</ele><time>2026-04-19T11:24:50.051Z</time></trkpt><trkpt lat="42.1757534" lon="11.9453262"><ele>371.0</ele><time>2026-04-19T11:24:51.051Z</time></trkpt><trkpt lat="42.1758337" lon="11.9452266"><ele>374.20000000000005</ele><time>2026-04-19T11:24:52.058Z</time></trkpt><trkpt lat="42.1759182" lon="11.9451168"><ele>377.40000000000003</ele><time>2026-04-19T11:24:53.051Z</time></trkpt><trkpt lat="42.1759986" lon="11.9450045"><ele>380.6</ele><time>2026-04-19T11:24:54.049Z</time></trkpt><trkpt lat="42.1760728" lon="11.9448958"><ele>383.8</ele><time>2026-04-19T11:24:55.058Z</time></trkpt><trkpt lat="42.1761232" lon="11.9447946"><ele>387.0</ele><time>2026-04-19T11:24:56.047Z</time></trkpt><trkpt lat="42.1761722" lon="11.9446963"><ele>388.20000000000005</ele><time>2026-04-19T11:24:57.042Z</time></trkpt><trkpt lat="42.1762" lon="11.9446045"><ele>389.4</ele><time>2026-04-19T11:24:58.049Z</time></trkpt><trkpt lat="42.1761967" lon="11.9444921"><ele>390.6</ele><time>2026-04-19T11:24:59.05Z</time></trkpt><trkpt lat="42.1761665" lon="11.9443681"><ele>391.79999999999995</ele><time>2026-04-19T11:25:00.044Z</time></trkpt><trkpt lat="42.1761193" lon="11.9442272"><ele>393.0</ele><time>2026-04-19T11:25:01.053Z</time></trkpt><trkpt lat="42.1760723" lon="11.9440896"><ele>394.25</ele><time>2026-04-19T11:25:02.046Z</time></trkpt><trkpt lat="42.1760151" lon="11.9439524"><ele>395.5</ele><time>2026-04-19T11:25:03.041Z</time></trkpt><trkpt lat="42.175958" lon="11.9438144"><ele>396.75</ele><time>2026-04-19T11:25:04.049Z</time></trkpt><trkpt lat="42.1759025" lon="11.9436628"><ele>398.0</ele><time>2026-04-19T11:25:05.049Z</time></trkpt><trkpt lat="42.1758579" lon="11.9435008"><ele>399.0</ele><time>2026-04-19T11:25:06.043Z</time></trkpt><trkpt lat="42.1758146" lon="11.9433418"><ele>400.0</ele><time>2026-04-19T11:25:07.048Z</time></trkpt><trkpt lat="42.1757941" lon="11.9431698"><ele>401.0</ele><time>2026-04-19T11:25:08.048Z</time></trkpt><trkpt lat="42.1757961" lon="11.9429971"><ele>402.0</ele><time>2026-04-19T11:25:09.055Z</time></trkpt><trkpt lat="42.175816" lon="11.9428361"><ele>402.0</ele><time>2026-04-19T11:25:10.05Z</time></trkpt><trkpt lat="42.1758614" lon="11.9426845"><ele>402.0</ele><time>2026-04-19T11:25:11.046Z</time></trkpt><trkpt lat="42.1759247" lon="11.9425545"><ele>402.0</ele><time>2026-04-19T11:25:12.055Z</time></trkpt><trkpt lat="42.1759904" lon="11.9424228"><ele>402.0</ele><time>2026-04-19T11:25:13.045Z</time></trkpt><trkpt lat="42.1760894" lon="11.9423095"><ele>402.0</ele><time>2026-04-19T11:25:14.044Z</time></trkpt><trkpt lat="42.1761944" lon="11.9422051"><ele>402.0</ele><time>2026-04-19T11:25:15.05Z</time></trkpt><trkpt lat="42.1763007" lon="11.9421284"><ele>402.0</ele><time>2026-04-19T11:25:16.051Z</time></trkpt><trkpt lat="42.1764127" lon="11.9420705"><ele>402.0</ele><time>2026-04-19T11:25:17.042Z</time></trkpt><trkpt lat="42.1765372" lon="11.9420211"><ele>404.0</ele><time>2026-04-19T11:25:18.054Z</time></trkpt><trkpt lat="42.176668" lon="11.9419829"><ele>406.0</ele><time>2026-04-19T11:25:19.053Z</time></trkpt><trkpt lat="42.1767999" lon="11.9419608"><ele>408.0</ele><time>2026-04-19T11:25:20.051Z</time></trkpt><trkpt lat="42.1769348" lon="11.9419579"><ele>410.0</ele><time>2026-04-19T11:25:21.058Z</time></trkpt><trkpt lat="42.1770663" lon="11.941964"><ele>410.0</ele><time>2026-04-19T11:25:22.056Z</time></trkpt><trkpt lat="42.1771964" lon="11.9419765"><ele>410.0</ele><time>2026-04-19T11:25:23.054Z</time></trkpt><trkpt lat="42.1773266" lon="11.9419899"><ele>410.0</ele><time>2026-04-19T11:25:24.056Z</time></trkpt><trkpt lat="42.1774611" lon="11.9420111"><ele>410.0</ele><time>2026-04-19T11:25:25.053Z</time></trkpt><trkpt lat="42.1775969" lon="11.9420322"><ele>409.75</ele><time>2026-04-19T11:25:26.055Z</time></trkpt><trkpt lat="42.1777287" lon="11.942055"><ele>409.5</ele><time>2026-04-19T11:25:27.057Z</time></trkpt><trkpt lat="42.1778514" lon="11.9420807"><ele>409.25</ele><time>2026-04-19T11:25:28.063Z</time></trkpt><trkpt lat="42.1779589" lon="11.942105"><ele>409.0</ele><time>2026-04-19T11:25:29.05Z</time></trkpt><trkpt lat="42.1780648" lon="11.9421206"><ele>409.0</ele><time>2026-04-19T11:25:30.047Z</time></trkpt><trkpt lat="42.1781694" lon="11.9421194"><ele>409.0</ele><time>2026-04-19T11:25:31.051Z</time></trkpt><trkpt lat="42.1782785" lon="11.942118"><ele>409.0</ele><time>2026-04-19T11:25:32.059Z</time></trkpt><trkpt lat="42.1783892" lon="11.9421339"><ele>409.0</ele><time>2026-04-19T11:25:33.042Z</time></trkpt><trkpt lat="42.1785055" lon="11.9421523"><ele>409.0</ele><time>2026-04-19T11:25:34.055Z</time></trkpt><trkpt lat="42.178622" lon="11.9421682"><ele>410.75</ele><time>2026-04-19T11:25:35.046Z</time></trkpt><trkpt lat="42.1787377" lon="11.9421723"><ele>412.5</ele><time>2026-04-19T11:25:36.042Z</time></trkpt><trkpt lat="42.1788614" lon="11.9421729"><ele>414.25</ele><time>2026-04-19T11:25:37.054Z</time></trkpt><trkpt lat="42.1789834" lon="11.9421758"><ele>416.0</ele><time>2026-04-19T11:25:38.054Z</time></trkpt><trkpt lat="42.1791073" lon="11.9421795"><ele>417.75</ele><time>2026-04-19T11:25:39.04Z</time></trkpt><trkpt lat="42.1792397" lon="11.942175"><ele>419.5</ele><time>2026-04-19T11:25:40.047Z</time></trkpt><trkpt lat="42.1793762" lon="11.9421745"><ele>421.25</ele><time>2026-04-19T11:25:41.057Z</time></trkpt><trkpt lat="42.1795118" lon="11.9421741"><ele>423.0</ele><time>2026-04-19T11:25:42.046Z</time></trkpt><trkpt lat="42.1796532" lon="11.9421803"><ele>423.0</ele><time>2026-04-19T11:25:43.053Z</time></trkpt><trkpt lat="42.1797948" lon="11.9421838"><ele>423.0</ele><time>2026-04-19T11:25:44.05Z</time></trkpt><trkpt lat="42.179942" lon="11.9421846"><ele>423.0</ele><time>2026-04-19T11:25:45.046Z</time></trkpt><trkpt lat="42.1800837" lon="11.9421643"><ele>423.0</ele><time>2026-04-19T11:25:46.053Z</time></trkpt><trkpt lat="42.1802216" lon="11.9421363"><ele>425.5</ele><time>2026-04-19T11:25:47.05Z</time></trkpt><trkpt lat="42.1803579" lon="11.942099"><ele>428.0</ele><time>2026-04-19T11:25:48.054Z</time></trkpt><trkpt lat="42.1804958" lon="11.9420632"><ele>430.5</ele><time>2026-04-19T11:25:49.05Z</time></trkpt><trkpt lat="42.18063" lon="11.9420306"><ele>433.0</ele><time>2026-04-19T11:25:50.051Z</time></trkpt><trkpt lat="42.180749" lon="11.9420053"><ele>435.0</ele><time>2026-04-19T11:25:51.046Z</time></trkpt><trkpt lat="42.1808429" lon="11.9419823"><ele>436.99999999999994</ele><time>2026-04-19T11:25:52.058Z</time></trkpt><trkpt lat="42.1809332" lon="11.9419458"><ele>438.99999999999994</ele><time>2026-04-19T11:25:53.049Z</time></trkpt><trkpt lat="42.1810186" lon="11.9419069"><ele>441.0</ele><time>2026-04-19T11:25:54.051Z</time></trkpt><trkpt lat="42.1811043" lon="11.941868"><ele>443.0</ele><time>2026-04-19T11:25:55.043Z</time></trkpt><trkpt lat="42.1811948" lon="11.9418323"><ele>442.99999999999994</ele><time>2026-04-19T11:25:56.055Z</time></trkpt><trkpt lat="42.1812853" lon="11.9417913"><ele>443.0</ele><time>2026-04-19T11:25:57.046Z</time></trkpt><trkpt lat="42.1813761" lon="11.9417535"><ele>443.0</ele><time>2026-04-19T11:25:58.052Z</time></trkpt><trkpt lat="42.1814612" lon="11.9417248"><ele>443.0</ele><time>2026-04-19T11:25:59.055Z</time></trkpt><trkpt lat="42.181537" lon="11.9417026"><ele>442.99999999999994</ele><time>2026-04-19T11:26:00.05Z</time></trkpt><trkpt lat="42.1816217" lon="11.9416911"><ele>443.0</ele><time>2026-04-19T11:26:01.049Z</time></trkpt><trkpt lat="42.1817119" lon="11.9417195"><ele>444.59999999999997</ele><time>2026-04-19T11:26:02.049Z</time></trkpt><trkpt lat="42.1818057" lon="11.9417634"><ele>446.19999999999993</ele><time>2026-04-19T11:26:03.054Z</time></trkpt><trkpt lat="42.181908" lon="11.9418173"><ele>447.8</ele><time>2026-04-19T11:26:04.043Z</time></trkpt><trkpt lat="42.1820193" lon="11.9418762"><ele>449.4</ele><time>2026-04-19T11:26:05.051Z</time></trkpt><trkpt lat="42.1821267" lon="11.9419344"><ele>451.0</ele><time>2026-04-19T11:26:06.054Z</time></trkpt><trkpt lat="42.1822488" lon="11.9419727"><ele>449.75</ele><time>2026-04-19T11:26:07.062Z</time></trkpt><trkpt lat="42.182359" lon="11.9420126"><ele>448.5</ele><time>2026-04-19T11:26:08.063Z</time></trkpt><trkpt lat="42.1824627" lon="11.9420741"><ele>447.25</ele><time>2026-04-19T11:26:09.045Z</time></trkpt><trkpt lat="42.1825657" lon="11.9421259"><ele>446.0</ele><time>2026-04-19T11:26:10.043Z</time></trkpt><trkpt lat="42.1826566" lon="11.9422268"><ele>446.0</ele><time>2026-04-19T11:26:11.048Z</time></trkpt><trkpt lat="42.1827463" lon="11.942332"><ele>446.0</ele><time>2026-04-19T11:26:12.045Z</time></trkpt><trkpt lat="42.1828432" lon="11.942444"><ele>446.0</ele><time>2026-04-19T11:26:13.044Z</time></trkpt><trkpt lat="42.1829385" lon="11.9425465"><ele>446.0</ele><time>2026-04-19T11:26:14.043Z</time></trkpt><trkpt lat="42.183028" lon="11.9426399"><ele>449.4</ele><time>2026-04-19T11:26:15.046Z</time></trkpt><trkpt lat="42.1830938" lon="11.942709"><ele>452.8</ele><time>2026-04-19T11:26:16.049Z</time></trkpt><trkpt lat="42.1831619" lon="11.9428069"><ele>456.19999999999993</ele><time>2026-04-19T11:26:18.049Z</time></trkpt><trkpt lat="42.1832109" lon="11.9428889"><ele>459.59999999999997</ele><time>2026-04-19T11:26:51.053Z</time></trkpt><trkpt lat="42.1831714" lon="11.9428092"><ele>463.0</ele><time>2026-04-19T11:26:55.046Z</time></trkpt><trkpt lat="42.1830675" lon="11.9427165"><ele>463.0</ele><time>2026-04-19T11:26:57.047Z</time></trkpt><trkpt lat="42.1830014" lon="11.9426472"><ele>462.99999999999994</ele><time>2026-04-19T11:26:58.04Z</time></trkpt><trkpt lat="42.1829332" lon="11.942573"><ele>462.99999999999994</ele><time>2026-04-19T11:26:59.046Z</time></trkpt><trkpt lat="42.1828659" lon="11.9424937"><ele>463.0</ele><time>2026-04-19T11:27:00.044Z</time></trkpt><trkpt lat="42.1827915" lon="11.942411"><ele>463.0</ele><time>2026-04-19T11:27:01.045Z</time></trkpt><trkpt lat="42.182717" lon="11.9423182"><ele>460.59999999999997</ele><time>2026-04-19T11:27:02.042Z</time></trkpt><trkpt lat="42.1826316" lon="11.9422371"><ele>458.19999999999993</ele><time>2026-04-19T11:27:03.041Z</time></trkpt><trkpt lat="42.1825455" lon="11.9421589"><ele>455.8</ele><time>2026-04-19T11:27:04.044Z</time></trkpt><trkpt lat="42.1824551" lon="11.9421054"><ele>453.4</ele><time>2026-04-19T11:27:05.047Z</time></trkpt><trkpt lat="42.1823627" lon="11.9420609"><ele>451.0</ele><time>2026-04-19T11:27:06.049Z</time></trkpt><trkpt lat="42.1822577" lon="11.9420236"><ele>451.0</ele><time>2026-04-19T11:27:07.041Z</time></trkpt><trkpt lat="42.1821551" lon="11.9419843"><ele>451.0</ele><time>2026-04-19T11:27:08.04Z</time></trkpt><trkpt lat="42.1820543" lon="11.9419488"><ele>451.0</ele><time>2026-04-19T11:27:09.044Z</time></trkpt><trkpt lat="42.1819521" lon="11.9419102"><ele>451.0</ele><time>2026-04-19T11:27:10.045Z</time></trkpt><trkpt lat="42.181847" lon="11.9418604"><ele>451.0</ele><time>2026-04-19T11:27:11.04Z</time></trkpt><trkpt lat="42.1817338" lon="11.9418165"><ele>451.0</ele><time>2026-04-19T11:27:12.041Z</time></trkpt><trkpt lat="42.1816201" lon="11.9417724"><ele>451.0</ele><time>2026-04-19T11:27:13.041Z</time></trkpt><trkpt lat="42.1815187" lon="11.9417587"><ele>451.0</ele><time>2026-04-19T11:27:14.041Z</time></trkpt><trkpt lat="42.1814343" lon="11.9417657"><ele>451.0</ele><time>2026-04-19T11:27:15.056Z</time></trkpt><trkpt lat="42.1813524" lon="11.9417858"><ele>451.0</ele><time>2026-04-19T11:27:16.041Z</time></trkpt><trkpt lat="42.1812817" lon="11.9418108"><ele>449.6666666666667</ele><time>2026-04-19T11:27:17.05Z</time></trkpt><trkpt lat="42.1812188" lon="11.9418328"><ele>448.33333333333337</ele><time>2026-04-19T11:27:18.05Z</time></trkpt><trkpt lat="42.1811312" lon="11.9418359"><ele>447.0</ele><time>2026-04-19T11:27:20.055Z</time></trkpt><trkpt lat="42.181175" lon="11.9417269"><ele>445.66666666666663</ele><time>2026-04-19T11:27:23.043Z</time></trkpt><trkpt lat="42.181295" lon="11.9416731"><ele>444.3333333333333</ele><time>2026-04-19T11:27:25.039Z</time></trkpt><trkpt lat="42.1813578" lon="11.9416508"><ele>443.0</ele><time>2026-04-19T11:27:26.046Z</time></trkpt><trkpt lat="42.1814195" lon="11.9416312"><ele>442.3333333333333</ele><time>2026-04-19T11:27:27.051Z</time></trkpt><trkpt lat="42.1814913" lon="11.9416232"><ele>441.66666666666663</ele><time>2026-04-19T11:27:28.051Z</time></trkpt><trkpt lat="42.1815619" lon="11.9416115"><ele>441.0</ele><time>2026-04-19T11:27:29.047Z</time></trkpt><trkpt lat="42.1816321" lon="11.9415976"><ele>440.33333333333337</ele><time>2026-04-19T11:27:30.048Z</time></trkpt><trkpt lat="42.1816977" lon="11.9415811"><ele>439.6666666666667</ele><time>2026-04-19T11:27:31.048Z</time></trkpt><trkpt lat="42.1818234" lon="11.941517"><ele>439.0</ele><time>2026-04-19T11:27:33.04Z</time></trkpt><trkpt lat="42.1818914" lon="11.9414655"><ele>439.0</ele><time>2026-04-19T11:27:34.043Z</time></trkpt><trkpt lat="42.1819541" lon="11.9414135"><ele>439.0</ele><time>2026-04-19T11:27:35.046Z</time></trkpt><trkpt lat="42.1820176" lon="11.941359"><ele>439.0</ele><time>2026-04-19T11:27:36.047Z</time></trkpt><trkpt lat="42.1820794" lon="11.9413046"><ele>439.0</ele><time>2026-04-19T11:27:37.051Z</time></trkpt><trkpt lat="42.1821324" lon="11.9412568"><ele>439.0</ele><time>2026-04-19T11:27:38.041Z</time></trkpt><trkpt lat="42.1821967" lon="11.9412176"><ele>439.0</ele><time>2026-04-19T11:27:39.038Z</time></trkpt><trkpt lat="42.182275" lon="11.9411731"><ele>439.0</ele><time>2026-04-19T11:27:40.046Z</time></trkpt><trkpt lat="42.1823528" lon="11.9411282"><ele>438.1666666666667</ele><time>2026-04-19T11:27:41.039Z</time></trkpt><trkpt lat="42.1824291" lon="11.9410835"><ele>437.33333333333337</ele><time>2026-04-19T11:27:42.041Z</time></trkpt><trkpt lat="42.1825065" lon="11.9410365"><ele>436.5</ele><time>2026-04-19T11:27:43.046Z</time></trkpt><trkpt lat="42.1825809" lon="11.9409914"><ele>435.66666666666663</ele><time>2026-04-19T11:27:44.045Z</time></trkpt><trkpt lat="42.1826646" lon="11.9409481"><ele>434.8333333333333</ele><time>2026-04-19T11:27:45.042Z</time></trkpt><trkpt lat="42.1827385" lon="11.9408971"><ele>434.0</ele><time>2026-04-19T11:27:46.04Z</time></trkpt><trkpt lat="42.1828195" lon="11.9408266"><ele>433.99999999999994</ele><time>2026-04-19T11:27:47.043Z</time></trkpt><trkpt lat="42.1828856" lon="11.9407529"><ele>434.0</ele><time>2026-04-19T11:27:48.045Z</time></trkpt><trkpt lat="42.1829325" lon="11.9406839"><ele>434.0</ele><time>2026-04-19T11:27:49.054Z</time></trkpt><trkpt lat="42.1829915" lon="11.9406221"><ele>434.0</ele><time>2026-04-19T11:27:50.043Z</time></trkpt><trkpt lat="42.1830653" lon="11.9405849"><ele>433.99999999999994</ele><time>2026-04-19T11:27:51.041Z</time></trkpt><trkpt lat="42.1831431" lon="11.9405496"><ele>434.0</ele><time>2026-04-19T11:27:52.047Z</time></trkpt><trkpt lat="42.1832275" lon="11.9405231"><ele>431.66666666666663</ele><time>2026-04-19T11:27:53.048Z</time></trkpt><trkpt lat="42.1833052" lon="11.9405147"><ele>429.3333333333333</ele><time>2026-04-19T11:27:54.044Z</time></trkpt><trkpt lat="42.1833796" lon="11.9405163"><ele>427.0</ele><time>2026-04-19T11:27:55.05Z</time></trkpt><trkpt lat="42.183465" lon="11.940553"><ele>424.66666666666663</ele><time>2026-04-19T11:27:56.046Z</time></trkpt><trkpt lat="42.1835477" lon="11.9405778"><ele>422.3333333333333</ele><time>2026-04-19T11:27:57.04Z</time></trkpt><trkpt lat="42.1836389" lon="11.9405751"><ele>420.0</ele><time>2026-04-19T11:27:58.048Z</time></trkpt><trkpt lat="42.1837289" lon="11.9405671"><ele>420.0</ele><time>2026-04-19T11:27:59.037Z</time></trkpt><trkpt lat="42.1838281" lon="11.9405454"><ele>420.0</ele><time>2026-04-19T11:28:00.041Z</time></trkpt><trkpt lat="42.1839173" lon="11.9405139"><ele>420.0</ele><time>2026-04-19T11:28:01.048Z</time></trkpt><trkpt lat="42.1840141" lon="11.9404772"><ele>420.0</ele><time>2026-04-19T11:28:02.046Z</time></trkpt><trkpt lat="42.1841042" lon="11.9404538"><ele>420.0</ele><time>2026-04-19T11:28:03.045Z</time></trkpt><trkpt lat="42.1842111" lon="11.9404314"><ele>417.6</ele><time>2026-04-19T11:28:04.046Z</time></trkpt><trkpt lat="42.184302" lon="11.940394"><ele>415.2</ele><time>2026-04-19T11:28:05.037Z</time></trkpt><trkpt lat="42.1843824" lon="11.9403361"><ele>412.79999999999995</ele><time>2026-04-19T11:28:06.045Z</time></trkpt><trkpt lat="42.1844647" lon="11.9402797"><ele>410.4</ele><time>2026-04-19T11:28:07.048Z</time></trkpt><trkpt lat="42.1845502" lon="11.9402201"><ele>408.0</ele><time>2026-04-19T11:28:08.041Z</time></trkpt><trkpt lat="42.1846245" lon="11.9401696"><ele>408.0</ele><time>2026-04-19T11:28:09.045Z</time></trkpt><trkpt lat="42.1846985" lon="11.9401158"><ele>408.0</ele><time>2026-04-19T11:28:10.053Z</time></trkpt><trkpt lat="42.184761" lon="11.940064"><ele>408.0</ele><time>2026-04-19T11:28:11.038Z</time></trkpt><trkpt lat="42.1848107" lon="11.9400116"><ele>408.0</ele><time>2026-04-19T11:28:12.049Z</time></trkpt><trkpt lat="42.1848535" lon="11.9399389"><ele>408.0</ele><time>2026-04-19T11:28:13.044Z</time></trkpt><trkpt lat="42.182275" lon="11.9411731"><ele>411.3333333333333</ele><time>2026-04-19T11:27:40.046Z</time></trkpt><trkpt lat="42.1823528" lon="11.9411282"><ele>414.66666666666663</ele><time>2026-04-19T11:27:41.039Z</time></trkpt><trkpt lat="42.1824291" lon="11.9410835"><ele>418.0</ele><time>2026-04-19T11:27:42.041Z</time></trkpt><trkpt lat="42.1825065" lon="11.9410365"><ele>421.3333333333333</ele><time>2026-04-19T11:27:43.046Z</time></trkpt><trkpt lat="42.1825809" lon="11.9409914"><ele>424.66666666666663</ele><time>2026-04-19T11:27:44.045Z</time></trkpt><trkpt lat="42.1826646" lon="11.9409481"><ele>428.0</ele><time>2026-04-19T11:27:45.042Z</time></trkpt><trkpt lat="42.1827385" lon="11.9408971"><ele>428.99999999999994</ele><time>2026-04-19T11:27:46.04Z</time></trkpt><trkpt lat="42.1828195" lon="11.9408266"><ele>430.0</ele><time>2026-04-19T11:27:47.043Z</time></trkpt><trkpt lat="42.1828856" lon="11.9407529"><ele>431.0</ele><time>2026-04-19T11:27:48.045Z</time></trkpt><trkpt lat="42.1829325" lon="11.9406839"><ele>432.0</ele><time>2026-04-19T11:27:49.054Z</time></trkpt><trkpt lat="42.1829915" lon="11.9406221"><ele>432.99999999999994</ele><time>2026-04-19T11:27:50.043Z</time></trkpt><trkpt lat="42.1830653" lon="11.9405849"><ele>434.0</ele><time>2026-04-19T11:27:51.041Z</time></trkpt><trkpt lat="42.1831431" lon="11.9405496"><ele>431.66666666666663</ele><time>2026-04-19T11:27:52.047Z</time></trkpt><trkpt lat="42.1832275" lon="11.9405231"><ele>429.3333333333333</ele><time>2026-04-19T11:27:53.048Z</time></trkpt><trkpt lat="42.1833052" lon="11.9405147"><ele>427.0</ele><time>2026-04-19T11:27:54.044Z</time></trkpt><trkpt lat="42.1833796" lon="11.9405163"><ele>424.66666666666663</ele><time>2026-04-19T11:27:55.05Z</time></trkpt><trkpt lat="42.183465" lon="11.940553"><ele>422.3333333333333</ele><time>2026-04-19T11:27:56.046Z</time></trkpt><trkpt lat="42.1835477" lon="11.9405778"><ele>420.0</ele><time>2026-04-19T11:27:57.04Z</time></trkpt><trkpt lat="42.1836389" lon="11.9405751"><ele>420.0</ele><time>2026-04-19T11:27:58.048Z</time></trkpt><trkpt lat="42.1837289" lon="11.9405671"><ele>420.0</ele><time>2026-04-19T11:27:59.037Z</time></trkpt><trkpt lat="42.1838281" lon="11.9405454"><ele>420.0</ele><time>2026-04-19T11:28:00.041Z</time></trkpt><trkpt lat="42.1839173" lon="11.9405139"><ele>420.0</ele><time>2026-04-19T11:28:01.048Z</time></trkpt><trkpt lat="42.1840141" lon="11.9404772"><ele>420.0</ele><time>2026-04-19T11:28:02.046Z</time></trkpt><trkpt lat="42.1841042" lon="11.9404538"><ele>417.6</ele><time>2026-04-19T11:28:03.045Z</time></trkpt><trkpt lat="42.1842111" lon="11.9404314"><ele>415.2</ele><time>2026-04-19T11:28:04.046Z</time></trkpt><trkpt lat="42.184302" lon="11.940394"><ele>412.79999999999995</ele><time>2026-04-19T11:28:05.037Z</time></trkpt><trkpt lat="42.1843824" lon="11.9403361"><ele>410.4</ele><time>2026-04-19T11:28:06.045Z</time></trkpt><trkpt lat="42.1844647" lon="11.9402797"><ele>408.0</ele><time>2026-04-19T11:28:07.048Z</time></trkpt><trkpt lat="42.1845502" lon="11.9402201"><ele>408.0</ele><time>2026-04-19T11:28:08.041Z</time></trkpt><trkpt lat="42.1846245" lon="11.9401696"><ele>408.0</ele><time>2026-04-19T11:28:09.045Z</time></trkpt><trkpt lat="42.1846985" lon="11.9401158"><ele>408.0</ele><time>2026-04-19T11:28:10.053Z</time></trkpt><trkpt lat="42.184761" lon="11.940064"><ele>408.0</ele><time>2026-04-19T11:28:11.038Z</time></trkpt><trkpt lat="42.1848107" lon="11.9400116"><ele>408.0</ele><time>2026-04-19T11:28:12.049Z</time></trkpt><trkpt lat="42.1848535" lon="11.9399389"><ele>408.0</ele><time>2026-04-19T11:28:13.044Z</time></trkpt><trkpt lat="42.1848779" lon="11.9398419"><ele>408.0</ele><time>2026-04-19T11:28:14.046Z</time></trkpt><trkpt lat="42.184891" lon="11.9397331"><ele>407.5</ele><time>2026-04-19T11:28:15.05Z</time></trkpt><trkpt lat="42.1848916" lon="11.9396196"><ele>407.0</ele><time>2026-04-19T11:28:16.047Z</time></trkpt><trkpt lat="42.1848894" lon="11.9394987"><ele>406.5</ele><time>2026-04-19T11:28:17.043Z</time></trkpt><trkpt lat="42.184878" lon="11.9393825"><ele>406.0</ele><time>2026-04-19T11:28:18.046Z</time></trkpt><trkpt lat="42.1848665" lon="11.9392779"><ele>405.5</ele><time>2026-04-19T11:28:19.041Z</time></trkpt><trkpt lat="42.1848518" lon="11.9391813"><ele>405.0</ele><time>2026-04-19T11:28:20.046Z</time></trkpt><trkpt lat="42.1848289" lon="11.9390786"><ele>405.0</ele><time>2026-04-19T11:28:21.048Z</time></trkpt><trkpt lat="42.184817" lon="11.9389691"><ele>405.0</ele><time>2026-04-19T11:28:22.042Z</time></trkpt><trkpt lat="42.1848129" lon="11.9388703"><ele>405.0</ele><time>2026-04-19T11:28:23.046Z</time></trkpt><trkpt lat="42.1848285" lon="11.9387533"><ele>405.0</ele><time>2026-04-19T11:28:25.05Z</time></trkpt><trkpt lat="42.1849079" lon="11.9386918"><ele>405.0</ele><time>2026-04-19T11:28:27.038Z</time></trkpt><trkpt lat="42.1849713" lon="11.9386864"><ele>405.0</ele><time>2026-04-19T11:28:28.043Z</time></trkpt><trkpt lat="42.1850492" lon="11.9387145"><ele>405.0</ele><time>2026-04-19T11:28:29.053Z</time></trkpt><trkpt lat="42.1851468" lon="11.938741"><ele>405.0</ele><time>2026-04-19T11:28:30.042Z</time></trkpt><trkpt lat="42.1852482" lon="11.9387584"><ele>405.0</ele><time>2026-04-19T11:28:31.045Z</time></trkpt><trkpt lat="42.1853451" lon="11.938758"><ele>405.0</ele><time>2026-04-19T11:28:32.038Z</time></trkpt><trkpt lat="42.185436" lon="11.9387396"><ele>405.0</ele><time>2026-04-19T11:28:33.038Z</time></trkpt><trkpt lat="42.1855438" lon="11.9387003"><ele>405.0</ele><time>2026-04-19T11:28:34.046Z</time></trkpt><trkpt lat="42.1856429" lon="11.9386365"><ele>405.0</ele><time>2026-04-19T11:28:35.045Z</time></trkpt><trkpt lat="42.1857365" lon="11.9385687"><ele>405.0</ele><time>2026-04-19T11:28:36.038Z</time></trkpt><trkpt lat="42.1858325" lon="11.9385274"><ele>405.0</ele><time>2026-04-19T11:28:37.048Z</time></trkpt><trkpt lat="42.1859274" lon="11.9385342"><ele>405.0</ele><time>2026-04-19T11:28:38.046Z</time></trkpt><trkpt lat="42.1860022" lon="11.9385375"><ele>403.1666666666667</ele><time>2026-04-19T11:28:39.035Z</time></trkpt><trkpt lat="42.1860822" lon="11.93855"><ele>401.33333333333337</ele><time>2026-04-19T11:28:40.052Z</time></trkpt><trkpt lat="42.1861593" lon="11.9385747"><ele>399.5</ele><time>2026-04-19T11:28:41.05Z</time></trkpt><trkpt lat="42.1862199" lon="11.9386447"><ele>397.6666666666667</ele><time>2026-04-19T11:28:42.048Z</time></trkpt><trkpt lat="42.1862568" lon="11.9387262"><ele>395.83333333333337</ele><time>2026-04-19T11:28:43.057Z</time></trkpt><trkpt lat="42.1862801" lon="11.9388165"><ele>394.0</ele><time>2026-04-19T11:28:44.059Z</time></trkpt><trkpt lat="42.1863175" lon="11.9389197"><ele>394.00000000000006</ele><time>2026-04-19T11:28:45.049Z</time></trkpt><trkpt lat="42.1863689" lon="11.9390304"><ele>394.0</ele><time>2026-04-19T11:28:46.057Z</time></trkpt><trkpt lat="42.1864205" lon="11.9391382"><ele>394.0</ele><time>2026-04-19T11:28:47.042Z</time></trkpt><trkpt lat="42.1864647" lon="11.9392531"><ele>394.0</ele><time>2026-04-19T11:28:48.054Z</time></trkpt><trkpt lat="42.1865087" lon="11.9393539"><ele>394.00000000000006</ele><time>2026-04-19T11:28:49.054Z</time></trkpt><trkpt lat="42.1865532" lon="11.9394341"><ele>394.0</ele><time>2026-04-19T11:28:50.042Z</time></trkpt><trkpt lat="42.186593" lon="11.9395029"><ele>392.50000000000006</ele><time>2026-04-19T11:28:51.049Z</time></trkpt><trkpt lat="42.1866966" lon="11.9395626"><ele>391.0</ele><time>2026-04-19T11:28:53.049Z</time></trkpt><trkpt lat="42.1867723" lon="11.9395853"><ele>389.5</ele><time>2026-04-19T11:28:54.049Z</time></trkpt><trkpt lat="42.1868552" lon="11.9395922"><ele>388.0</ele><time>2026-04-19T11:28:55.06Z</time></trkpt><trkpt lat="42.1869349" lon="11.939607"><ele>386.50000000000006</ele><time>2026-04-19T11:28:56.046Z</time></trkpt><trkpt lat="42.1870008" lon="11.9396"><ele>385.0</ele><time>2026-04-19T11:28:57.067Z</time></trkpt><trkpt lat="42.187114" lon="11.9395474"><ele>385.0</ele><time>2026-04-19T11:28:59.046Z</time></trkpt><trkpt lat="42.187196" lon="11.9394467"><ele>385.0</ele><time>2026-04-19T11:29:01.05Z</time></trkpt><trkpt lat="42.1872334" lon="11.9392941"><ele>385.0</ele><time>2026-04-19T11:29:03.041Z</time></trkpt><trkpt lat="42.1872422" lon="11.9391985"><ele>385.0</ele><time>2026-04-19T11:29:04.049Z</time></trkpt><trkpt lat="42.1872478" lon="11.9390941"><ele>385.0</ele><time>2026-04-19T11:29:05.049Z</time></trkpt><trkpt lat="42.1872555" lon="11.9389863"><ele>388.8</ele><time>2026-04-19T11:29:06.041Z</time></trkpt><trkpt lat="42.1872683" lon="11.9388692"><ele>392.6</ele><time>2026-04-19T11:29:07.042Z</time></trkpt><trkpt lat="42.1872836" lon="11.9387476"><ele>396.4</ele><time>2026-04-19T11:29:08.052Z</time></trkpt><trkpt lat="42.1872972" lon="11.9386159"><ele>400.2</ele><time>2026-04-19T11:29:09.04Z</time></trkpt><trkpt lat="42.1873079" lon="11.9384825"><ele>404.0</ele><time>2026-04-19T11:29:10.045Z</time></trkpt><trkpt lat="42.187325" lon="11.9383476"><ele>405.0</ele><time>2026-04-19T11:29:11.044Z</time></trkpt><trkpt lat="42.1873368" lon="11.9382236"><ele>406.0</ele><time>2026-04-19T11:29:12.041Z</time></trkpt><trkpt lat="42.187338" lon="11.9381071"><ele>407.0</ele><time>2026-04-19T11:29:13.045Z</time></trkpt><trkpt lat="42.1873257" lon="11.937978"><ele>408.0</ele><time>2026-04-19T11:29:14.05Z</time></trkpt><trkpt lat="42.1873032" lon="11.9378596"><ele>409.0</ele><time>2026-04-19T11:29:15.051Z</time></trkpt><trkpt lat="42.1872861" lon="11.9377457"><ele>409.00000000000006</ele><time>2026-04-19T11:29:16.056Z</time></trkpt><trkpt lat="42.1872593" lon="11.9376478"><ele>409.0</ele><time>2026-04-19T11:29:17.051Z</time></trkpt><trkpt lat="42.1872154" lon="11.9375579"><ele>409.0</ele><time>2026-04-19T11:29:18.044Z</time></trkpt><trkpt lat="42.1871499" lon="11.9374819"><ele>409.0</ele><time>2026-04-19T11:29:19.042Z</time></trkpt><trkpt lat="42.187079" lon="11.9374297"><ele>409.00000000000006</ele><time>2026-04-19T11:29:20.053Z</time></trkpt><trkpt lat="42.1870121" lon="11.937376"><ele>409.0</ele><time>2026-04-19T11:29:21.05Z</time></trkpt><trkpt lat="42.1869382" lon="11.9373189"><ele>407.83333333333337</ele><time>2026-04-19T11:29:22.053Z</time></trkpt><trkpt lat="42.1868776" lon="11.937261"><ele>406.6666666666667</ele><time>2026-04-19T11:29:23.058Z</time></trkpt><trkpt lat="42.186822" lon="11.9371891"><ele>405.5</ele><time>2026-04-19T11:29:24.055Z</time></trkpt><trkpt lat="42.1868068" lon="11.9370864"><ele>404.33333333333337</ele><time>2026-04-19T11:29:25.044Z</time></trkpt><trkpt lat="42.1867958" lon="11.936989"><ele>403.1666666666667</ele><time>2026-04-19T11:29:26.045Z</time></trkpt><trkpt lat="42.1868046" lon="11.9368787"><ele>402.0</ele><time>2026-04-19T11:29:27.051Z</time></trkpt><trkpt lat="42.1868293" lon="11.9367535"><ele>401.6</ele><time>2026-04-19T11:29:28.047Z</time></trkpt><trkpt lat="42.1868676" lon="11.9366428"><ele>401.20000000000005</ele><time>2026-04-19T11:29:29.051Z</time></trkpt><trkpt lat="42.1869182" lon="11.9365378"><ele>400.8</ele><time>2026-04-19T11:29:30.065Z</time></trkpt><trkpt lat="42.1869683" lon="11.9364391"><ele>400.4</ele><time>2026-04-19T11:29:31.053Z</time></trkpt><trkpt lat="42.187034" lon="11.9363395"><ele>400.0</ele><time>2026-04-19T11:29:32.056Z</time></trkpt><trkpt lat="42.1870867" lon="11.936242"><ele>400.00000000000006</ele><time>2026-04-19T11:29:33.055Z</time></trkpt><trkpt lat="42.1871387" lon="11.9361539"><ele>400.0</ele><time>2026-04-19T11:29:34.047Z</time></trkpt><trkpt lat="42.1871854" lon="11.9360705"><ele>400.0</ele><time>2026-04-19T11:29:35.047Z</time></trkpt><trkpt lat="42.1872231" lon="11.9359979"><ele>400.0</ele><time>2026-04-19T11:29:36.05Z</time></trkpt><trkpt lat="42.1872812" lon="11.9359058"><ele>400.00000000000006</ele><time>2026-04-19T11:29:38.06Z</time></trkpt><trkpt lat="42.1874099" lon="11.9358636"><ele>400.0</ele><time>2026-04-19T11:29:40.042Z</time></trkpt><trkpt lat="42.187473" lon="11.9358577"><ele>397.50000000000006</ele><time>2026-04-19T11:29:41.048Z</time></trkpt><trkpt lat="42.1875431" lon="11.9358742"><ele>395.0</ele><time>2026-04-19T11:29:42.044Z</time></trkpt><trkpt lat="42.1876328" lon="11.9359067"><ele>392.5</ele><time>2026-04-19T11:29:43.049Z</time></trkpt><trkpt lat="42.1877253" lon="11.9359361"><ele>390.0</ele><time>2026-04-19T11:29:44.058Z</time></trkpt><trkpt lat="42.187805" lon="11.9359686"><ele>387.50000000000006</ele><time>2026-04-19T11:29:45.05Z</time></trkpt><trkpt lat="42.1878856" lon="11.9359942"><ele>385.0</ele><time>2026-04-19T11:29:46.042Z</time></trkpt><trkpt lat="42.1879621" lon="11.936008"><ele>382.83333333333337</ele><time>2026-04-19T11:29:47.048Z</time></trkpt><trkpt lat="42.1880408" lon="11.9360251"><ele>380.6666666666667</ele><time>2026-04-19T11:29:48.054Z</time></trkpt><trkpt lat="42.1881281" lon="11.9360509"><ele>378.5</ele><time>2026-04-19T11:29:49.047Z</time></trkpt><trkpt lat="42.1882081" lon="11.9360736"><ele>376.33333333333337</ele><time>2026-04-19T11:29:50.05Z</time></trkpt><trkpt lat="42.1883093" lon="11.9360957"><ele>374.1666666666667</ele><time>2026-04-19T11:29:52.039Z</time></trkpt><trkpt lat="42.1883678" lon="11.9360111"><ele>372.0</ele><time>2026-04-19T11:29:54.055Z</time></trkpt><trkpt lat="42.1883736" lon="11.9358529"><ele>371.5</ele><time>2026-04-19T11:29:56.052Z</time></trkpt><trkpt lat="42.188365" lon="11.9357572"><ele>371.0</ele><time>2026-04-19T11:29:57.058Z</time></trkpt><trkpt lat="42.1883483" lon="11.9356508"><ele>370.5</ele><time>2026-04-19T11:29:58.05Z</time></trkpt><trkpt lat="42.1883344" lon="11.9355525"><ele>370.0</ele><time>2026-04-19T11:29:59.045Z</time></trkpt><trkpt lat="42.1883182" lon="11.9354554"><ele>369.5</ele><time>2026-04-19T11:30:00.045Z</time></trkpt><trkpt lat="42.1882971" lon="11.9353604"><ele>369.0</ele><time>2026-04-19T11:30:01.038Z</time></trkpt><trkpt lat="42.1882732" lon="11.9352459"><ele>369.0</ele><time>2026-04-19T11:30:02.047Z</time></trkpt><trkpt lat="42.1882542" lon="11.9351091"><ele>369.0</ele><time>2026-04-19T11:30:03.044Z</time></trkpt><trkpt lat="42.188255" lon="11.9349586"><ele>369.0</ele><time>2026-04-19T11:30:04.05Z</time></trkpt><trkpt lat="42.1882545" lon="11.9348239"><ele>369.0</ele><time>2026-04-19T11:30:05.052Z</time></trkpt><trkpt lat="42.1882645" lon="11.9347142"><ele>369.0</ele><time>2026-04-19T11:30:06.045Z</time></trkpt><trkpt lat="42.1882737" lon="11.934606"><ele>368.0</ele><time>2026-04-19T11:30:07.049Z</time></trkpt><trkpt lat="42.1882786" lon="11.9344956"><ele>367.0</ele><time>2026-04-19T11:30:08.053Z</time></trkpt><trkpt lat="42.1882605" lon="11.934405"><ele>366.0</ele><time>2026-04-19T11:30:09.046Z</time></trkpt><trkpt lat="42.1882472" lon="11.9343189"><ele>365.0</ele><time>2026-04-19T11:30:10.044Z</time></trkpt><trkpt lat="42.1882264" lon="11.934176"><ele>364.0</ele><time>2026-04-19T11:30:12.047Z</time></trkpt><trkpt lat="42.1882189" lon="11.9340189"><ele>363.0</ele><time>2026-04-19T11:30:14.048Z</time></trkpt><trkpt lat="42.1882388" lon="11.9338538"><ele>361.8333333333333</ele><time>2026-04-19T11:30:16.044Z</time></trkpt><trkpt lat="42.1882599" lon="11.9337606"><ele>360.6666666666667</ele><time>2026-04-19T11:30:17.049Z</time></trkpt><trkpt lat="42.1882857" lon="11.9336251"><ele>359.5</ele><time>2026-04-19T11:30:19.043Z</time></trkpt><trkpt lat="42.1883251" lon="11.9335343"><ele>358.33333333333337</ele><time>2026-04-19T11:30:22.042Z</time></trkpt><trkpt lat="42.1883953" lon="11.9335731"><ele>357.1666666666667</ele><time>2026-04-19T11:30:25.044Z</time></trkpt><trkpt lat="42.1884636" lon="11.9335826"><ele>356.0</ele><time>2026-04-19T11:31:31.052Z</time></trkpt><trkpt lat="42.1885232" lon="11.933633"><ele>356.0</ele><time>2026-04-19T11:31:32.058Z</time></trkpt><trkpt lat="42.1885881" lon="11.9336843"><ele>356.0</ele><time>2026-04-19T11:31:33.066Z</time></trkpt><trkpt lat="42.1886574" lon="11.9337381"><ele>356.0</ele><time>2026-04-19T11:31:34.042Z</time></trkpt><trkpt lat="42.1887293" lon="11.9337746"><ele>356.0</ele><time>2026-04-19T11:31:35.049Z</time></trkpt><trkpt lat="42.1887952" lon="11.933785"><ele>356.0</ele><time>2026-04-19T11:31:36.049Z</time></trkpt><trkpt lat="42.1888708" lon="11.933799"><ele>356.0</ele><time>2026-04-19T11:31:37.042Z</time></trkpt><trkpt lat="42.188952" lon="11.9338064"><ele>353.6666666666667</ele><time>2026-04-19T11:31:38.053Z</time></trkpt><trkpt lat="42.1890206" lon="11.9338056"><ele>351.33333333333337</ele><time>2026-04-19T11:31:39.052Z</time></trkpt><trkpt lat="42.1890988" lon="11.9337983"><ele>349.0</ele><time>2026-04-19T11:31:40.041Z</time></trkpt><trkpt lat="42.189187" lon="11.9337664"><ele>346.6666666666667</ele><time>2026-04-19T11:31:41.057Z</time></trkpt><trkpt lat="42.189267" lon="11.9337324"><ele>344.3333333333333</ele><time>2026-04-19T11:31:42.063Z</time></trkpt><trkpt lat="42.1893557" lon="11.9336894"><ele>342.0</ele><time>2026-04-19T11:31:43.042Z</time></trkpt><trkpt lat="42.1894208" lon="11.9336404"><ele>342.0</ele><time>2026-04-19T11:31:44.058Z</time></trkpt><trkpt lat="42.1894808" lon="11.9335859"><ele>342.0</ele><time>2026-04-19T11:31:45.072Z</time></trkpt><trkpt lat="42.1895326" lon="11.933431"><ele>342.0</ele><time>2026-04-19T11:31:47.055Z</time></trkpt><trkpt lat="42.1895563" lon="11.9333425"><ele>342.0</ele><time>2026-04-19T11:31:48.056Z</time></trkpt><trkpt lat="42.1896124" lon="11.9332225"><ele>342.0</ele><time>2026-04-19T11:31:50.044Z</time></trkpt><trkpt lat="42.1897149" lon="11.9332411"><ele>340.6</ele><time>2026-04-19T11:31:52.068Z</time></trkpt><trkpt lat="42.1897832" lon="11.9333015"><ele>339.20000000000005</ele><time>2026-04-19T11:31:53.042Z</time></trkpt><trkpt lat="42.1898576" lon="11.9333963"><ele>337.8</ele><time>2026-04-19T11:31:54.055Z</time></trkpt><trkpt lat="42.1899448" lon="11.9334821"><ele>336.4</ele><time>2026-04-19T11:31:55.057Z</time></trkpt><trkpt lat="42.1899932" lon="11.9335818"><ele>335.0</ele><time>2026-04-19T11:31:56.047Z</time></trkpt><trkpt lat="42.1900939" lon="11.9336297"><ele>335.0</ele><time>2026-04-19T11:31:58.045Z</time></trkpt><trkpt lat="42.1902195" lon="11.9336083"><ele>335.0</ele><time>2026-04-19T11:32:00.055Z</time></trkpt><trkpt lat="42.1902991" lon="11.9335932"><ele>335.0</ele><time>2026-04-19T11:32:01.046Z</time></trkpt><trkpt lat="42.1903951" lon="11.9335772"><ele>335.0</ele><time>2026-04-19T11:32:02.038Z</time></trkpt><trkpt lat="42.1904897" lon="11.9335713"><ele>335.0</ele><time>2026-04-19T11:32:03.042Z</time></trkpt><trkpt lat="42.1905875" lon="11.9336063"><ele>335.6</ele><time>2026-04-19T11:32:04.044Z</time></trkpt><trkpt lat="42.1906898" lon="11.9336527"><ele>336.2</ele><time>2026-04-19T11:32:05.043Z</time></trkpt><trkpt lat="42.1907862" lon="11.9337044"><ele>336.79999999999995</ele><time>2026-04-19T11:32:06.06Z</time></trkpt><trkpt lat="42.1908655" lon="11.9337734"><ele>337.4</ele><time>2026-04-19T11:32:07.053Z</time></trkpt><trkpt lat="42.1909256" lon="11.9338715"><ele>338.0</ele><time>2026-04-19T11:32:08.044Z</time></trkpt><trkpt lat="42.1909848" lon="11.9339769"><ele>338.0</ele><time>2026-04-19T11:32:09.077Z</time></trkpt><trkpt lat="42.1910338" lon="11.9340654"><ele>338.0</ele><time>2026-04-19T11:32:10.046Z</time></trkpt><trkpt lat="42.1911218" lon="11.9341191"><ele>338.0</ele><time>2026-04-19T11:32:12.055Z</time></trkpt><trkpt lat="42.1912217" lon="11.9340718"><ele>338.0</ele><time>2026-04-19T11:32:14.044Z</time></trkpt><trkpt lat="42.1912717" lon="11.933991"><ele>338.0</ele><time>2026-04-19T11:32:15.043Z</time></trkpt><trkpt lat="42.1913251" lon="11.9338819"><ele>338.0</ele><time>2026-04-19T11:32:16.047Z</time></trkpt><trkpt lat="42.1913732" lon="11.9337582"><ele>338.0</ele><time>2026-04-19T11:32:17.066Z</time></trkpt><trkpt lat="42.1914091" lon="11.9336472"><ele>338.0</ele><time>2026-04-19T11:32:18.044Z</time></trkpt><trkpt lat="42.1914161" lon="11.9335219"><ele>338.0</ele><time>2026-04-19T11:32:19.053Z</time></trkpt><trkpt lat="42.1914103" lon="11.9333849"><ele>338.0</ele><time>2026-04-19T11:32:20.044Z</time></trkpt><trkpt lat="42.1913845" lon="11.9332404"><ele>341.0</ele><time>2026-04-19T11:32:21.041Z</time></trkpt><trkpt lat="42.1913591" lon="11.9330903"><ele>344.0</ele><time>2026-04-19T11:32:22.046Z</time></trkpt><trkpt lat="42.1913368" lon="11.9329423"><ele>347.0</ele><time>2026-04-19T11:32:23.05Z</time></trkpt><trkpt lat="42.1913242" lon="11.9328036"><ele>350.0</ele><time>2026-04-19T11:32:24.052Z</time></trkpt><trkpt lat="42.1913181" lon="11.9326814"><ele>353.0</ele><time>2026-04-19T11:32:25.044Z</time></trkpt><trkpt lat="42.1913078" lon="11.9325885"><ele>353.2</ele><time>2026-04-19T11:32:26.046Z</time></trkpt><trkpt lat="42.1913009" lon="11.932503"><ele>353.4</ele><time>2026-04-19T11:32:27.051Z</time></trkpt><trkpt lat="42.1913008" lon="11.9323931"><ele>353.59999999999997</ele><time>2026-04-19T11:32:29.061Z</time></trkpt><trkpt lat="42.1913814" lon="11.9323709"><ele>353.79999999999995</ele><time>2026-04-19T11:32:34.053Z</time></trkpt><trkpt lat="42.1915137" lon="11.9324405"><ele>354.0</ele><time>2026-04-19T11:32:36.046Z</time></trkpt><trkpt lat="42.1916443" lon="11.9325227"><ele>352.2</ele><time>2026-04-19T11:32:37.063Z</time></trkpt><trkpt lat="42.1917658" lon="11.9325935"><ele>350.4</ele><time>2026-04-19T11:32:38.053Z</time></trkpt><trkpt lat="42.1918596" lon="11.9326758"><ele>348.6</ele><time>2026-04-19T11:32:39.05Z</time></trkpt><trkpt lat="42.1919381" lon="11.9327415"><ele>346.8</ele><time>2026-04-19T11:32:40.053Z</time></trkpt><trkpt lat="42.1920017" lon="11.932815"><ele>345.0</ele><time>2026-04-19T11:32:41.053Z</time></trkpt><trkpt lat="42.1920618" lon="11.9328916"><ele>345.0</ele><time>2026-04-19T11:32:42.049Z</time></trkpt><trkpt lat="42.1921072" lon="11.9329923"><ele>345.0</ele><time>2026-04-19T11:32:43.048Z</time></trkpt><trkpt lat="42.1921426" lon="11.9331211"><ele>345.0</ele><time>2026-04-19T11:32:44.053Z</time></trkpt><trkpt lat="42.1921591" lon="11.9332565"><ele>345.0</ele><time>2026-04-19T11:32:45.052Z</time></trkpt><trkpt lat="42.1921813" lon="11.9333658"><ele>345.0</ele><time>2026-04-19T11:32:46.045Z</time></trkpt><trkpt lat="42.1922008" lon="11.9334885"><ele>344.2</ele><time>2026-04-19T11:32:47.053Z</time></trkpt><trkpt lat="42.1922251" lon="11.93362"><ele>343.4</ele><time>2026-04-19T11:32:48.056Z</time></trkpt><trkpt lat="42.1922446" lon="11.9337528"><ele>342.6</ele><time>2026-04-19T11:32:49.042Z</time></trkpt><trkpt lat="42.1922567" lon="11.9338763"><ele>341.8</ele><time>2026-04-19T11:32:50.055Z</time></trkpt><trkpt lat="42.1922627" lon="11.9339933"><ele>341.0</ele><time>2026-04-19T11:32:51.048Z</time></trkpt><trkpt lat="42.1922825" lon="11.9340921"><ele>341.0</ele><time>2026-04-19T11:32:52.04Z</time></trkpt><trkpt lat="42.1923144" lon="11.9341812"><ele>341.0</ele><time>2026-04-19T11:32:53.045Z</time></trkpt><trkpt lat="42.1923594" lon="11.9342435"><ele>341.0</ele><time>2026-04-19T11:32:54.056Z</time></trkpt><trkpt lat="42.1924217" lon="11.9343276"><ele>341.0</ele><time>2026-04-19T11:32:56.05Z</time></trkpt><trkpt lat="42.1924752" lon="11.9343876"><ele>341.0</ele><time>2026-04-19T11:32:59.061Z</time></trkpt><trkpt lat="42.1924888" lon="11.9344839"><ele>341.0</ele><time>2026-04-19T11:33:02.05Z</time></trkpt><trkpt lat="42.1925417" lon="11.9346135"><ele>344.20000000000005</ele><time>2026-04-19T11:33:04.053Z</time></trkpt><trkpt lat="42.192591" lon="11.93474"><ele>347.40000000000003</ele><time>2026-04-19T11:33:06.054Z</time></trkpt><trkpt lat="42.1926434" lon="11.9348204"><ele>350.6</ele><time>2026-04-19T11:33:09.065Z</time></trkpt><trkpt lat="42.1925932" lon="11.9346904"><ele>353.8</ele><time>2026-04-19T11:33:25.054Z</time></trkpt><trkpt lat="42.1925631" lon="11.9346153"><ele>357.0</ele><time>2026-04-19T11:33:26.051Z</time></trkpt><trkpt lat="42.192513" lon="11.9345101"><ele>357.0</ele><time>2026-04-19T11:33:28.059Z</time></trkpt><trkpt lat="42.192488" lon="11.9344079"><ele>357.0</ele><time>2026-04-19T11:33:30.047Z</time></trkpt><trkpt lat="42.1925285" lon="11.9343162"><ele>357.0</ele><time>2026-04-19T11:33:32.063Z</time></trkpt><trkpt lat="42.1925637" lon="11.9342259"><ele>357.0</ele><time>2026-04-19T11:33:34.066Z</time></trkpt><trkpt lat="42.1925837" lon="11.9341258"><ele>357.0</ele><time>2026-04-19T11:33:36.063Z</time></trkpt><trkpt lat="42.1925919" lon="11.9340297"><ele>357.0</ele><time>2026-04-19T11:33:38.042Z</time></trkpt><trkpt lat="42.1925972" lon="11.9339128"><ele>357.6</ele><time>2026-04-19T11:33:40.058Z</time></trkpt><trkpt lat="42.1926077" lon="11.9337823"><ele>358.20000000000005</ele><time>2026-04-19T11:33:42.057Z</time></trkpt><trkpt lat="42.1926229" lon="11.9336487"><ele>358.8</ele><time>2026-04-19T11:33:44.043Z</time></trkpt><trkpt lat="42.1926471" lon="11.9335172"><ele>359.4</ele><time>2026-04-19T11:33:46.056Z</time></trkpt><trkpt lat="42.1927077" lon="11.9333796"><ele>360.0</ele><time>2026-04-19T11:33:48.052Z</time></trkpt><trkpt lat="42.1927656" lon="11.9332588"><ele>360.3333333333333</ele><time>2026-04-19T11:33:50.056Z</time></trkpt><trkpt lat="42.1928192" lon="11.933153"><ele>360.6666666666667</ele><time>2026-04-19T11:33:52.044Z</time></trkpt><trkpt lat="42.1928787" lon="11.9330461"><ele>361.0</ele><time>2026-04-19T11:33:54.065Z</time></trkpt><trkpt lat="42.1929145" lon="11.9329675"><ele>361.33333333333337</ele><time>2026-04-19T11:33:55.047Z</time></trkpt><trkpt lat="42.1929421" lon="11.9328862"><ele>361.6666666666667</ele><time>2026-04-19T11:33:56.053Z</time></trkpt><trkpt lat="42.1929876" lon="11.9327426"><ele>362.0</ele><time>2026-04-19T11:33:58.039Z</time></trkpt><trkpt lat="42.1930262" lon="11.9326314"><ele>362.8</ele><time>2026-04-19T11:34:00.05Z</time></trkpt><trkpt lat="42.1929947" lon="11.932541"><ele>363.6</ele><time>2026-04-19T11:34:02.054Z</time></trkpt><trkpt lat="42.1929265" lon="11.9324581"><ele>364.40000000000003</ele><time>2026-04-19T11:34:04.051Z</time></trkpt><trkpt lat="42.1928726" lon="11.9323626"><ele>365.20000000000005</ele><time>2026-04-19T11:34:06.049Z</time></trkpt><trkpt lat="42.1928327" lon="11.9322119"><ele>366.0</ele><time>2026-04-19T11:34:08.053Z</time></trkpt><trkpt lat="42.1928081" lon="11.9320656"><ele>366.0</ele><time>2026-04-19T11:34:10.063Z</time></trkpt><trkpt lat="42.1927961" lon="11.9319"><ele>366.0</ele><time>2026-04-19T11:34:12.059Z</time></trkpt><trkpt lat="42.1927835" lon="11.9317456"><ele>366.0</ele><time>2026-04-19T11:34:14.058Z</time></trkpt><trkpt lat="42.1927452" lon="11.9315994"><ele>366.0</ele><time>2026-04-19T11:34:16.053Z</time></trkpt><trkpt lat="42.19268" lon="11.9314839"><ele>366.0</ele><time>2026-04-19T11:34:18.056Z</time></trkpt><trkpt lat="42.1926111" lon="11.9313554"><ele>366.0</ele><time>2026-04-19T11:34:20.05Z</time></trkpt><trkpt lat="42.1925715" lon="11.9312643"><ele>366.0</ele><time>2026-04-19T11:34:23.051Z</time></trkpt><trkpt lat="42.1925102" lon="11.9312061"><ele>366.0</ele><time>2026-04-19T11:34:25.062Z</time></trkpt><trkpt lat="42.1924228" lon="11.9311578"><ele>366.0</ele><time>2026-04-19T11:34:27.049Z</time></trkpt><trkpt lat="42.1923075" lon="11.9311002"><ele>366.0</ele><time>2026-04-19T11:34:29.042Z</time></trkpt><trkpt lat="42.1922308" lon="11.9310626"><ele>366.0</ele><time>2026-04-19T11:34:30.061Z</time></trkpt><trkpt lat="42.1921559" lon="11.9310289"><ele>366.0</ele><time>2026-04-19T11:34:31.052Z</time></trkpt><trkpt lat="42.1920779" lon="11.9309949"><ele>366.0</ele><time>2026-04-19T11:34:32.054Z</time></trkpt><trkpt lat="42.1920006" lon="11.9309636"><ele>366.0</ele><time>2026-04-19T11:34:33.046Z</time></trkpt><trkpt lat="42.1919351" lon="11.930923"><ele>366.0</ele><time>2026-04-19T11:34:34.058Z</time></trkpt><trkpt lat="42.1918704" lon="11.930888"><ele>367.3333333333333</ele><time>2026-04-19T11:34:35.046Z</time></trkpt><trkpt lat="42.191818" lon="11.9308374"><ele>368.6666666666667</ele><time>2026-04-19T11:34:36.067Z</time></trkpt><trkpt lat="42.1917647" lon="11.9307919"><ele>370.0</ele><time>2026-04-19T11:34:37.044Z</time></trkpt><trkpt lat="42.1916942" lon="11.9307136"><ele>371.33333333333337</ele><time>2026-04-19T11:34:39.044Z</time></trkpt><trkpt lat="42.1916306" lon="11.9306538"><ele>372.6666666666667</ele><time>2026-04-19T11:34:41.05Z</time></trkpt><trkpt lat="42.1915357" lon="11.9305788"><ele>374.0</ele><time>2026-04-19T11:34:43.056Z</time></trkpt><trkpt lat="42.1914781" lon="11.9305405"><ele>374.0</ele><time>2026-04-19T11:34:44.05Z</time></trkpt><trkpt lat="42.1913593" lon="11.9304666"><ele>374.0</ele><time>2026-04-19T11:34:46.048Z</time></trkpt><trkpt lat="42.1912843" lon="11.9304058"><ele>374.0</ele><time>2026-04-19T11:34:47.046Z</time></trkpt><trkpt lat="42.1912219" lon="11.9303466"><ele>374.0</ele><time>2026-04-19T11:34:48.051Z</time></trkpt><trkpt lat="42.1911549" lon="11.9302834"><ele>374.0</ele><time>2026-04-19T11:34:50.053Z</time></trkpt><trkpt lat="42.1910982" lon="11.930222"><ele>374.0</ele><time>2026-04-19T11:34:52.06Z</time></trkpt><trkpt lat="42.1909897" lon="11.9300424"><ele>375.33333333333337</ele><time>2026-04-19T11:34:58.06Z</time></trkpt><trkpt lat="42.1909482" lon="11.9299145"><ele>376.6666666666667</ele><time>2026-04-19T11:35:00.084Z</time></trkpt><trkpt lat="42.1909136" lon="11.9297796"><ele>378.0</ele><time>2026-04-19T11:35:02.082Z</time></trkpt><trkpt lat="42.1908975" lon="11.9296864"><ele>379.3333333333333</ele><time>2026-04-19T11:35:03.098Z</time></trkpt><trkpt lat="42.1908901" lon="11.9295906"><ele>380.66666666666663</ele><time>2026-04-19T11:35:04.07Z</time></trkpt><trkpt lat="42.190881" lon="11.9294711"><ele>382.0</ele><time>2026-04-19T11:35:05.044Z</time></trkpt><trkpt lat="42.1908786" lon="11.9293604"><ele>383.6</ele><time>2026-04-19T11:35:06.06Z</time></trkpt><trkpt lat="42.1908794" lon="11.9292194"><ele>385.20000000000005</ele><time>2026-04-19T11:35:07.047Z</time></trkpt><trkpt lat="42.1908803" lon="11.9290936"><ele>386.8</ele><time>2026-04-19T11:35:08.045Z</time></trkpt><trkpt lat="42.1908862" lon="11.9289651"><ele>388.4</ele><time>2026-04-19T11:35:09.051Z</time></trkpt><trkpt lat="42.1908896" lon="11.9288324"><ele>390.0</ele><time>2026-04-19T11:35:10.055Z</time></trkpt><trkpt lat="42.1908924" lon="11.928712"><ele>390.0</ele><time>2026-04-19T11:35:11.046Z</time></trkpt><trkpt lat="42.1908914" lon="11.9285875"><ele>390.0</ele><time>2026-04-19T11:35:12.047Z</time></trkpt><trkpt lat="42.1908884" lon="11.9284429"><ele>390.0</ele><time>2026-04-19T11:35:13.053Z</time></trkpt><trkpt lat="42.1908821" lon="11.9283034"><ele>390.0</ele><time>2026-04-19T11:35:14.049Z</time></trkpt><trkpt lat="42.1908875" lon="11.9281631"><ele>390.0</ele><time>2026-04-19T11:35:15.046Z</time></trkpt><trkpt lat="42.1908885" lon="11.9280245"><ele>390.2</ele><time>2026-04-19T11:35:16.043Z</time></trkpt><trkpt lat="42.1908812" lon="11.9278571"><ele>390.4</ele><time>2026-04-19T11:35:17.05Z</time></trkpt><trkpt lat="42.1908739" lon="11.9277071"><ele>390.6</ele><time>2026-04-19T11:35:18.042Z</time></trkpt><trkpt lat="42.1908805" lon="11.927585"><ele>390.8</ele><time>2026-04-19T11:35:19.056Z</time></trkpt><trkpt lat="42.1908996" lon="11.9274598"><ele>391.0</ele><time>2026-04-19T11:35:20.054Z</time></trkpt><trkpt lat="42.1909176" lon="11.927347"><ele>391.0</ele><time>2026-04-19T11:35:21.046Z</time></trkpt><trkpt lat="42.1909286" lon="11.9272554"><ele>391.0</ele><time>2026-04-19T11:35:22.048Z</time></trkpt><trkpt lat="42.1909055" lon="11.927099"><ele>391.0</ele><time>2026-04-19T11:35:24.037Z</time></trkpt><trkpt lat="42.1908796" lon="11.9269348"><ele>391.0</ele><time>2026-04-19T11:35:26.045Z</time></trkpt><trkpt lat="42.1908919" lon="11.9268353"><ele>391.0</ele><time>2026-04-19T11:35:27.045Z</time></trkpt><trkpt lat="42.1909328" lon="11.9267524"><ele>391.4</ele><time>2026-04-19T11:35:28.055Z</time></trkpt><trkpt lat="42.1909889" lon="11.926694"><ele>391.8</ele><time>2026-04-19T11:35:30.046Z</time></trkpt><trkpt lat="42.1909785" lon="11.9266031"><ele>392.2</ele><time>2026-04-19T11:35:36.046Z</time></trkpt><trkpt lat="42.1909449" lon="11.9265139"><ele>392.59999999999997</ele><time>2026-04-19T11:35:38.049Z</time></trkpt><trkpt lat="42.1908672" lon="11.9263773"><ele>393.0</ele><time>2026-04-19T11:35:40.049Z</time></trkpt><trkpt lat="42.1908139" lon="11.9262184"><ele>393.0</ele><time>2026-04-19T11:35:42.056Z</time></trkpt><trkpt lat="42.1908037" lon="11.9261294"><ele>393.0</ele><time>2026-04-19T11:35:43.105Z</time></trkpt><trkpt lat="42.1908024" lon="11.926044"><ele>393.0</ele><time>2026-04-19T11:35:44.051Z</time></trkpt><trkpt lat="42.1907868" lon="11.9259563"><ele>393.0</ele><time>2026-04-19T11:35:45.042Z</time></trkpt><trkpt lat="42.1907432" lon="11.9258028"><ele>393.0</ele><time>2026-04-19T11:35:47.064Z</time></trkpt><trkpt lat="42.1907218" lon="11.925648"><ele>393.0</ele><time>2026-04-19T11:35:49.05Z</time></trkpt><trkpt lat="42.1907218" lon="11.9255533"><ele>393.14285714285717</ele><time>2026-04-19T11:35:50.052Z</time></trkpt><trkpt lat="42.1907312" lon="11.9254579"><ele>393.2857142857143</ele><time>2026-04-19T11:35:51.043Z</time></trkpt><trkpt lat="42.1907415" lon="11.9253598"><ele>393.42857142857144</ele><time>2026-04-19T11:35:52.042Z</time></trkpt><trkpt lat="42.1907555" lon="11.9252526"><ele>393.57142857142856</ele><time>2026-04-19T11:35:53.057Z</time></trkpt><trkpt lat="42.190775" lon="11.9251602"><ele>393.7142857142857</ele><time>2026-04-19T11:35:54.05Z</time></trkpt><trkpt lat="42.1907967" lon="11.9250753"><ele>393.8571428571429</ele><time>2026-04-19T11:35:55.056Z</time></trkpt><trkpt lat="42.1908177" lon="11.9249779"><ele>394.0</ele><time>2026-04-19T11:35:56.041Z</time></trkpt><trkpt lat="42.1908238" lon="11.9248861"><ele>394.33333333333337</ele><time>2026-04-19T11:35:57.044Z</time></trkpt><trkpt lat="42.1908196" lon="11.9248002"><ele>394.6666666666667</ele><time>2026-04-19T11:35:58.054Z</time></trkpt><trkpt lat="42.1907695" lon="11.9246576"><ele>395.0</ele><time>2026-04-19T11:36:00.048Z</time></trkpt><trkpt lat="42.1907268" lon="11.9245629"><ele>395.33333333333337</ele><time>2026-04-19T11:36:01.056Z</time></trkpt><trkpt lat="42.1906837" lon="11.9244746"><ele>395.6666666666667</ele><time>2026-04-19T11:36:02.057Z</time></trkpt><trkpt lat="42.190636" lon="11.9244103"><ele>396.0</ele><time>2026-04-19T11:36:03.043Z</time></trkpt><trkpt lat="42.1905784" lon="11.9243606"><ele>396.0</ele><time>2026-04-19T11:36:04.047Z</time></trkpt><trkpt lat="42.1905139" lon="11.9243128"><ele>396.0</ele><time>2026-04-19T11:36:05.059Z</time></trkpt><trkpt lat="42.1904342" lon="11.9242882"><ele>396.0</ele><time>2026-04-19T11:36:06.046Z</time></trkpt><trkpt lat="42.190352" lon="11.924269"><ele>396.0</ele><time>2026-04-19T11:36:07.051Z</time></trkpt><trkpt lat="42.1902688" lon="11.9242568"><ele>396.0</ele><time>2026-04-19T11:36:08.068Z</time></trkpt><trkpt lat="42.1901897" lon="11.9242465"><ele>396.0</ele><time>2026-04-19T11:36:09.06Z</time></trkpt><trkpt lat="42.1901208" lon="11.9242402"><ele>396.8333333333333</ele><time>2026-04-19T11:36:10.049Z</time></trkpt><trkpt lat="42.1900178" lon="11.9242292"><ele>397.66666666666663</ele><time>2026-04-19T11:36:12.063Z</time></trkpt><trkpt lat="42.1899372" lon="11.9242145"><ele>398.5</ele><time>2026-04-19T11:36:15.054Z</time></trkpt><trkpt lat="42.1898789" lon="11.9241818"><ele>399.3333333333333</ele><time>2026-04-19T11:41:32.018Z</time></trkpt><trkpt lat="42.1898193" lon="11.9241417"><ele>400.16666666666663</ele><time>2026-04-19T11:42:15.029Z</time></trkpt><trkpt lat="42.1897248" lon="11.9241267"><ele>401.0</ele><time>2026-04-19T11:42:17.055Z</time></trkpt><trkpt lat="42.1896543" lon="11.9241075"><ele>401.6</ele><time>2026-04-19T11:42:18.046Z</time></trkpt><trkpt lat="42.1895665" lon="11.9240758"><ele>402.20000000000005</ele><time>2026-04-19T11:42:19.066Z</time></trkpt><trkpt lat="42.1894973" lon="11.9240469"><ele>402.79999999999995</ele><time>2026-04-19T11:42:20.055Z</time></trkpt><trkpt lat="42.1893973" lon="11.9239989"><ele>403.4</ele><time>2026-04-19T11:42:22.048Z</time></trkpt><trkpt lat="42.1892745" lon="11.9239571"><ele>404.0</ele><time>2026-04-19T11:42:24.042Z</time></trkpt><trkpt lat="42.189194" lon="11.9239408"><ele>403.99999999999994</ele><time>2026-04-19T11:42:25.044Z</time></trkpt><trkpt lat="42.1891092" lon="11.9239403"><ele>404.0</ele><time>2026-04-19T11:42:26.048Z</time></trkpt><trkpt lat="42.1890283" lon="11.92394"><ele>404.0</ele><time>2026-04-19T11:42:27.044Z</time></trkpt><trkpt lat="42.1889442" lon="11.9239413"><ele>404.0</ele><time>2026-04-19T11:42:28.04Z</time></trkpt><trkpt lat="42.188864" lon="11.92394"><ele>403.99999999999994</ele><time>2026-04-19T11:42:29.05Z</time></trkpt><trkpt lat="42.1887823" lon="11.9239253"><ele>404.0</ele><time>2026-04-19T11:42:30.041Z</time></trkpt><trkpt lat="42.1886937" lon="11.9238921"><ele>405.16666666666663</ele><time>2026-04-19T11:42:31.044Z</time></trkpt><trkpt lat="42.1886123" lon="11.9238664"><ele>406.3333333333333</ele><time>2026-04-19T11:42:32.06Z</time></trkpt><trkpt lat="42.1885317" lon="11.9238413"><ele>407.5</ele><time>2026-04-19T11:42:33.059Z</time></trkpt><trkpt lat="42.1884408" lon="11.9238296"><ele>408.66666666666663</ele><time>2026-04-19T11:42:34.048Z</time></trkpt><trkpt lat="42.1883458" lon="11.9238375"><ele>409.8333333333333</ele><time>2026-04-19T11:42:35.043Z</time></trkpt><trkpt lat="42.1882509" lon="11.923841"><ele>411.0</ele><time>2026-04-19T11:42:36.049Z</time></trkpt><trkpt lat="42.1881537" lon="11.9238365"><ele>412.0</ele><time>2026-04-19T11:42:37.05Z</time></trkpt><trkpt lat="42.188054" lon="11.9238318"><ele>413.0</ele><time>2026-04-19T11:42:38.055Z</time></trkpt><trkpt lat="42.1879468" lon="11.923821"><ele>414.0</ele><time>2026-04-19T11:42:39.045Z</time></trkpt><trkpt lat="42.1878449" lon="11.9238064"><ele>415.0</ele><time>2026-04-19T11:42:40.052Z</time></trkpt><trkpt lat="42.1877389" lon="11.9237816"><ele>416.0</ele><time>2026-04-19T11:42:41.049Z</time></trkpt><trkpt lat="42.1876284" lon="11.923763"><ele>416.0</ele><time>2026-04-19T11:42:42.05Z</time></trkpt><trkpt lat="42.1875242" lon="11.92374"><ele>416.0</ele><time>2026-04-19T11:42:43.055Z</time></trkpt><trkpt lat="42.1874071" lon="11.9237272"><ele>416.0</ele><time>2026-04-19T11:42:44.049Z</time></trkpt><trkpt lat="42.1872929" lon="11.9237272"><ele>416.0</ele><time>2026-04-19T11:42:45.046Z</time></trkpt><trkpt lat="42.187175" lon="11.9237241"><ele>416.20000000000005</ele><time>2026-04-19T11:42:46.05Z</time></trkpt><trkpt lat="42.1870709" lon="11.9237154"><ele>416.40000000000003</ele><time>2026-04-19T11:42:47.047Z</time></trkpt><trkpt lat="42.1869741" lon="11.9237047"><ele>416.6</ele><time>2026-04-19T11:42:48.051Z</time></trkpt><trkpt lat="42.1868865" lon="11.9236433"><ele>416.8</ele><time>2026-04-19T11:42:49.042Z</time></trkpt><trkpt lat="42.1868116" lon="11.9235939"><ele>417.0</ele><time>2026-04-19T11:42:50.047Z</time></trkpt><trkpt lat="42.1867348" lon="11.9235152"><ele>417.0</ele><time>2026-04-19T11:42:51.042Z</time></trkpt><trkpt lat="42.1866559" lon="11.9234249"><ele>417.0</ele><time>2026-04-19T11:42:52.057Z</time></trkpt><trkpt lat="42.1865671" lon="11.9233299"><ele>417.0</ele><time>2026-04-19T11:42:53.04Z</time></trkpt><trkpt lat="42.1864736" lon="11.923229"><ele>417.0</ele><time>2026-04-19T11:42:54.049Z</time></trkpt><trkpt lat="42.1863919" lon="11.9231319"><ele>417.0</ele><time>2026-04-19T11:42:55.042Z</time></trkpt><trkpt lat="42.1863129" lon="11.9230391"><ele>419.20000000000005</ele><time>2026-04-19T11:42:56.043Z</time></trkpt><trkpt lat="42.1862357" lon="11.9229533"><ele>421.4</ele><time>2026-04-19T11:42:57.047Z</time></trkpt><trkpt lat="42.1861762" lon="11.9228844"><ele>423.59999999999997</ele><time>2026-04-19T11:42:58.045Z</time></trkpt><trkpt lat="42.1861236" lon="11.9228251"><ele>425.79999999999995</ele><time>2026-04-19T11:42:59.047Z</time></trkpt><trkpt lat="42.1860395" lon="11.9227233"><ele>428.0</ele><time>2026-04-19T11:43:01.055Z</time></trkpt><trkpt lat="42.1859456" lon="11.9226664"><ele>427.99999999999994</ele><time>2026-04-19T11:43:03.056Z</time></trkpt><trkpt lat="42.1858288" lon="11.9226282"><ele>428.0</ele><time>2026-04-19T11:43:05.052Z</time></trkpt><trkpt lat="42.185762" lon="11.9226063"><ele>428.0</ele><time>2026-04-19T11:43:06.046Z</time></trkpt><trkpt lat="42.1856872" lon="11.9225724"><ele>428.0</ele><time>2026-04-19T11:43:07.048Z</time></trkpt><trkpt lat="42.1856102" lon="11.9225426"><ele>427.99999999999994</ele><time>2026-04-19T11:43:08.042Z</time></trkpt><trkpt lat="42.1855351" lon="11.9225092"><ele>428.0</ele><time>2026-04-19T11:43:09.05Z</time></trkpt><trkpt lat="42.1854585" lon="11.9224707"><ele>429.2</ele><time>2026-04-19T11:43:10.051Z</time></trkpt><trkpt lat="42.1853777" lon="11.922385"><ele>430.4</ele><time>2026-04-19T11:43:11.049Z</time></trkpt><trkpt lat="42.1852983" lon="11.9222978"><ele>431.59999999999997</ele><time>2026-04-19T11:43:12.045Z</time></trkpt><trkpt lat="42.1852114" lon="11.9222344"><ele>432.79999999999995</ele><time>2026-04-19T11:43:13.056Z</time></trkpt><trkpt lat="42.1851256" lon="11.9221825"><ele>434.0</ele><time>2026-04-19T11:43:14.043Z</time></trkpt><trkpt lat="42.185026" lon="11.9221396"><ele>433.99999999999994</ele><time>2026-04-19T11:43:15.045Z</time></trkpt><trkpt lat="42.1849234" lon="11.9221192"><ele>434.0</ele><time>2026-04-19T11:43:16.047Z</time></trkpt><trkpt lat="42.1848286" lon="11.9220851"><ele>434.0</ele><time>2026-04-19T11:43:17.049Z</time></trkpt><trkpt lat="42.184762" lon="11.9220467"><ele>434.0</ele><time>2026-04-19T11:43:18.041Z</time></trkpt><trkpt lat="42.1846881" lon="11.92198"><ele>433.99999999999994</ele><time>2026-04-19T11:43:19.057Z</time></trkpt><trkpt lat="42.1846278" lon="11.9219141"><ele>434.0</ele><time>2026-04-19T11:43:20.046Z</time></trkpt><trkpt lat="42.1845767" lon="11.9218031"><ele>434.2</ele><time>2026-04-19T11:43:21.05Z</time></trkpt><trkpt lat="42.184519" lon="11.9216838"><ele>434.4</ele><time>2026-04-19T11:43:22.052Z</time></trkpt><trkpt lat="42.1844685" lon="11.9215637"><ele>434.6</ele><time>2026-04-19T11:43:23.051Z</time></trkpt><trkpt lat="42.1844216" lon="11.9214271"><ele>434.8</ele><time>2026-04-19T11:43:24.042Z</time></trkpt><trkpt lat="42.1843819" lon="11.9212848"><ele>435.0</ele><time>2026-04-19T11:43:25.054Z</time></trkpt><trkpt lat="42.1843444" lon="11.9211373"><ele>435.0</ele><time>2026-04-19T11:43:26.059Z</time></trkpt><trkpt lat="42.1843017" lon="11.9210027"><ele>435.0</ele><time>2026-04-19T11:43:27.051Z</time></trkpt><trkpt lat="42.1842344" lon="11.9208842"><ele>435.0</ele><time>2026-04-19T11:43:28.06Z</time></trkpt><trkpt lat="42.184155" lon="11.9207886"><ele>435.0</ele><time>2026-04-19T11:43:29.055Z</time></trkpt><trkpt lat="42.1840793" lon="11.9206946"><ele>435.0</ele><time>2026-04-19T11:43:30.055Z</time></trkpt><trkpt lat="42.1839997" lon="11.9205972"><ele>438.75</ele><time>2026-04-19T11:43:31.057Z</time></trkpt><trkpt lat="42.1839238" lon="11.9204921"><ele>442.5</ele><time>2026-04-19T11:43:32.057Z</time></trkpt><trkpt lat="42.1838739" lon="11.9203311"><ele>446.25</ele><time>2026-04-19T11:43:33.057Z</time></trkpt><trkpt lat="42.1838299" lon="11.9201764"><ele>450.0</ele><time>2026-04-19T11:43:34.058Z</time></trkpt><trkpt lat="42.1837849" lon="11.9200241"><ele>450.0</ele><time>2026-04-19T11:43:35.046Z</time></trkpt><trkpt lat="42.183736" lon="11.9198854"><ele>450.0</ele><time>2026-04-19T11:43:36.046Z</time></trkpt><trkpt lat="42.1836695" lon="11.9197573"><ele>450.0</ele><time>2026-04-19T11:43:37.054Z</time></trkpt><trkpt lat="42.1836036" lon="11.9196379"><ele>450.0</ele><time>2026-04-19T11:43:38.056Z</time></trkpt><trkpt lat="42.1835284" lon="11.919537"><ele>450.0</ele><time>2026-04-19T11:43:39.051Z</time></trkpt><trkpt lat="42.1834626" lon="11.919422"><ele>450.0</ele><time>2026-04-19T11:43:40.064Z</time></trkpt><trkpt lat="42.1834132" lon="11.9192984"><ele>450.0</ele><time>2026-04-19T11:43:41.051Z</time></trkpt><trkpt lat="42.183382" lon="11.9191989"><ele>450.0</ele><time>2026-04-19T11:43:42.046Z</time></trkpt><trkpt lat="42.183362" lon="11.9191051"><ele>450.0</ele><time>2026-04-19T11:43:43.051Z</time></trkpt><trkpt lat="42.1833373" lon="11.9190177"><ele>450.0</ele><time>2026-04-19T11:43:44.058Z</time></trkpt><trkpt lat="42.183256" lon="11.9189087"><ele>450.0</ele><time>2026-04-19T11:43:46.053Z</time></trkpt><trkpt lat="42.1831993" lon="11.9188454"><ele>450.8333333333333</ele><time>2026-04-19T11:43:47.049Z</time></trkpt><trkpt lat="42.1831352" lon="11.9187813"><ele>451.66666666666663</ele><time>2026-04-19T11:43:48.039Z</time></trkpt><trkpt lat="42.1830634" lon="11.9187112"><ele>452.5</ele><time>2026-04-19T11:43:49.056Z</time></trkpt><trkpt lat="42.1829971" lon="11.9186461"><ele>453.3333333333333</ele><time>2026-04-19T11:43:50.053Z</time></trkpt><trkpt lat="42.1829388" lon="11.9185903"><ele>454.16666666666663</ele><time>2026-04-19T11:43:51.042Z</time></trkpt><trkpt lat="42.1828592" lon="11.9185249"><ele>455.0</ele><time>2026-04-19T11:43:53.067Z</time></trkpt><trkpt lat="42.1828106" lon="11.9184664"><ele>453.66666666666663</ele><time>2026-04-19T11:43:56.059Z</time></trkpt><trkpt lat="42.18288" lon="11.9183953"><ele>452.3333333333333</ele><time>2026-04-19T11:44:14.049Z</time></trkpt><trkpt lat="42.1829735" lon="11.918371"><ele>451.0</ele><time>2026-04-19T11:44:17.051Z</time></trkpt><trkpt lat="42.1830553" lon="11.9183466"><ele>449.66666666666663</ele><time>2026-04-19T11:44:20.048Z</time></trkpt><trkpt lat="42.1831304" lon="11.9183139"><ele>448.3333333333333</ele><time>2026-04-19T11:44:24.045Z</time></trkpt><trkpt lat="42.1832075" lon="11.9182749"><ele>447.0</ele><time>2026-04-19T11:44:26.055Z</time></trkpt><trkpt lat="42.183307" lon="11.9182268"><ele>444.6</ele><time>2026-04-19T11:44:28.054Z</time></trkpt><trkpt lat="42.1834049" lon="11.9181744"><ele>442.20000000000005</ele><time>2026-04-19T11:44:30.05Z</time></trkpt><trkpt lat="42.1835081" lon="11.9181267"><ele>439.8</ele><time>2026-04-19T11:44:32.045Z</time></trkpt><trkpt lat="42.1836001" lon="11.9180988"><ele>437.4</ele><time>2026-04-19T11:44:34.05Z</time></trkpt><trkpt lat="42.18372" lon="11.9180754"><ele>435.0</ele><time>2026-04-19T11:44:36.05Z</time></trkpt><trkpt lat="42.1838102" lon="11.9180643"><ele>435.0</ele><time>2026-04-19T11:44:38.053Z</time></trkpt><trkpt lat="42.1838721" lon="11.9180435"><ele>435.0</ele><time>2026-04-19T11:44:41.048Z</time></trkpt><trkpt lat="42.1839616" lon="11.918026"><ele>435.0</ele><time>2026-04-19T11:45:56.059Z</time></trkpt><trkpt lat="42.1841187" lon="11.9180633"><ele>435.0</ele><time>2026-04-19T11:45:58.064Z</time></trkpt><trkpt lat="42.1842115" lon="11.9180818"><ele>435.0</ele><time>2026-04-19T11:45:59.048Z</time></trkpt><trkpt lat="42.1843228" lon="11.9181063"><ele>432.5</ele><time>2026-04-19T11:46:00.047Z</time></trkpt><trkpt lat="42.1844318" lon="11.9181287"><ele>430.0</ele><time>2026-04-19T11:46:01.062Z</time></trkpt><trkpt lat="42.1845527" lon="11.9181475"><ele>427.5</ele><time>2026-04-19T11:46:02.046Z</time></trkpt><trkpt lat="42.1846801" lon="11.9181689"><ele>425.0</ele><time>2026-04-19T11:46:03.049Z</time></trkpt><trkpt lat="42.1847974" lon="11.9181991"><ele>423.6</ele><time>2026-04-19T11:46:04.06Z</time></trkpt><trkpt lat="42.1849077" lon="11.918231"><ele>422.2</ele><time>2026-04-19T11:46:05.055Z</time></trkpt><trkpt lat="42.1850062" lon="11.9182601"><ele>420.79999999999995</ele><time>2026-04-19T11:46:06.043Z</time></trkpt><trkpt lat="42.1850925" lon="11.9182605"><ele>419.4</ele><time>2026-04-19T11:46:07.056Z</time></trkpt><trkpt lat="42.1851853" lon="11.9181804"><ele>418.0</ele><time>2026-04-19T11:46:09.045Z</time></trkpt><trkpt lat="42.1852301" lon="11.918118"><ele>418.0</ele><time>2026-04-19T11:46:10.048Z</time></trkpt><trkpt lat="42.1852665" lon="11.9180461"><ele>418.0</ele><time>2026-04-19T11:46:11.053Z</time></trkpt><trkpt lat="42.1853233" lon="11.9179392"><ele>418.0</ele><time>2026-04-19T11:46:12.055Z</time></trkpt><trkpt lat="42.1853816" lon="11.9178264"><ele>418.0</ele><time>2026-04-19T11:46:13.06Z</time></trkpt><trkpt lat="42.1854446" lon="11.9177082"><ele>418.0</ele><time>2026-04-19T11:46:14.064Z</time></trkpt><trkpt lat="42.185526" lon="11.9175804"><ele>417.0</ele><time>2026-04-19T11:46:15.052Z</time></trkpt><trkpt lat="42.1856084" lon="11.9174497"><ele>416.0</ele><time>2026-04-19T11:46:16.044Z</time></trkpt><trkpt lat="42.185689" lon="11.9173236"><ele>415.0</ele><time>2026-04-19T11:46:17.066Z</time></trkpt><trkpt lat="42.1857726" lon="11.9171927"><ele>414.0</ele><time>2026-04-19T11:46:18.063Z</time></trkpt><trkpt lat="42.1858547" lon="11.9170643"><ele>413.75</ele><time>2026-04-19T11:46:19.057Z</time></trkpt><trkpt lat="42.185938" lon="11.9169417"><ele>413.5</ele><time>2026-04-19T11:46:20.067Z</time></trkpt><trkpt lat="42.1860181" lon="11.9168263"><ele>413.25</ele><time>2026-04-19T11:46:21.069Z</time></trkpt><trkpt lat="42.1860951" lon="11.9167215"><ele>413.0</ele><time>2026-04-19T11:46:22.054Z</time></trkpt><trkpt lat="42.1861771" lon="11.9166277"><ele>413.4</ele><time>2026-04-19T11:46:23.056Z</time></trkpt><trkpt lat="42.1862632" lon="11.9165444"><ele>413.79999999999995</ele><time>2026-04-19T11:46:24.065Z</time></trkpt><trkpt lat="42.1863505" lon="11.916466"><ele>414.2</ele><time>2026-04-19T11:46:25.061Z</time></trkpt><trkpt lat="42.1864427" lon="11.9163856"><ele>414.6</ele><time>2026-04-19T11:46:26.055Z</time></trkpt><trkpt lat="42.1865331" lon="11.9163139"><ele>415.0</ele><time>2026-04-19T11:46:27.052Z</time></trkpt><trkpt lat="42.1866262" lon="11.9162417"><ele>415.0</ele><time>2026-04-19T11:46:28.055Z</time></trkpt><trkpt lat="42.1867188" lon="11.916165"><ele>415.0</ele><time>2026-04-19T11:46:29.066Z</time></trkpt><trkpt lat="42.1868129" lon="11.9160849"><ele>415.0</ele><time>2026-04-19T11:46:30.063Z</time></trkpt><trkpt lat="42.1869158" lon="11.916014"><ele>415.0</ele><time>2026-04-19T11:46:31.049Z</time></trkpt><trkpt lat="42.1870378" lon="11.9159471"><ele>416.25</ele><time>2026-04-19T11:46:32.054Z</time></trkpt><trkpt lat="42.1871606" lon="11.91589"><ele>417.5</ele><time>2026-04-19T11:46:33.068Z</time></trkpt><trkpt lat="42.1872811" lon="11.9158409"><ele>418.75</ele><time>2026-04-19T11:46:34.055Z</time></trkpt><trkpt lat="42.1873866" lon="11.9157805"><ele>420.0</ele><time>2026-04-19T11:46:35.05Z</time></trkpt><trkpt lat="42.1874906" lon="11.9157157"><ele>420.0</ele><time>2026-04-19T11:46:36.053Z</time></trkpt><trkpt lat="42.1875806" lon="11.9156478"><ele>420.0</ele><time>2026-04-19T11:46:37.061Z</time></trkpt><trkpt lat="42.1876563" lon="11.9155884"><ele>420.0</ele><time>2026-04-19T11:46:38.052Z</time></trkpt><trkpt lat="42.1877087" lon="11.9155156"><ele>420.0</ele><time>2026-04-19T11:46:39.046Z</time></trkpt><trkpt lat="42.1877485" lon="11.9154424"><ele>420.0</ele><time>2026-04-19T11:46:40.059Z</time></trkpt><trkpt lat="42.1877783" lon="11.9153595"><ele>420.0</ele><time>2026-04-19T11:46:41.054Z</time></trkpt><trkpt lat="42.1877804" lon="11.9152656"><ele>420.0</ele><time>2026-04-19T11:46:42.05Z</time></trkpt><trkpt lat="42.1877655" lon="11.9151664"><ele>420.0</ele><time>2026-04-19T11:46:43.05Z</time></trkpt><trkpt lat="42.1877616" lon="11.9150437"><ele>420.0</ele><time>2026-04-19T11:46:44.063Z</time></trkpt><trkpt lat="42.1877392" lon="11.9149028"><ele>420.0</ele><time>2026-04-19T11:46:45.05Z</time></trkpt><trkpt lat="42.1877094" lon="11.9147692"><ele>420.0</ele><time>2026-04-19T11:46:46.05Z</time></trkpt><trkpt lat="42.1876783" lon="11.9146287"><ele>421.0</ele><time>2026-04-19T11:46:47.053Z</time></trkpt><trkpt lat="42.1876275" lon="11.9144928"><ele>422.0</ele><time>2026-04-19T11:46:48.053Z</time></trkpt><trkpt lat="42.1875763" lon="11.9143502"><ele>423.0</ele><time>2026-04-19T11:46:49.101Z</time></trkpt><trkpt lat="42.1875482" lon="11.9141981"><ele>424.0</ele><time>2026-04-19T11:46:50.052Z</time></trkpt><trkpt lat="42.1875372" lon="11.9140537"><ele>424.0</ele><time>2026-04-19T11:46:51.05Z</time></trkpt><trkpt lat="42.1875484" lon="11.9139162"><ele>424.0</ele><time>2026-04-19T11:46:52.051Z</time></trkpt><trkpt lat="42.1875616" lon="11.9137766"><ele>424.0</ele><time>2026-04-19T11:46:53.055Z</time></trkpt><trkpt lat="42.187586" lon="11.9136229"><ele>424.0</ele><time>2026-04-19T11:46:54.044Z</time></trkpt><trkpt lat="42.1876279" lon="11.9134786"><ele>424.0</ele><time>2026-04-19T11:46:55.046Z</time></trkpt><trkpt lat="42.187686" lon="11.9133502"><ele>424.2</ele><time>2026-04-19T11:46:56.049Z</time></trkpt><trkpt lat="42.1877539" lon="11.9132416"><ele>424.4</ele><time>2026-04-19T11:46:57.049Z</time></trkpt><trkpt lat="42.1878401" lon="11.9131563"><ele>424.6</ele><time>2026-04-19T11:46:58.048Z</time></trkpt><trkpt lat="42.1879229" lon="11.913083"><ele>424.8</ele><time>2026-04-19T11:46:59.05Z</time></trkpt><trkpt lat="42.1880231" lon="11.9130138"><ele>425.0</ele><time>2026-04-19T11:47:00.044Z</time></trkpt><trkpt lat="42.1881128" lon="11.9129214"><ele>421.8</ele><time>2026-04-19T11:47:01.058Z</time></trkpt><trkpt lat="42.1882161" lon="11.9128405"><ele>418.6</ele><time>2026-04-19T11:47:02.054Z</time></trkpt><trkpt lat="42.1883046" lon="11.912764"><ele>415.4</ele><time>2026-04-19T11:47:03.057Z</time></trkpt><trkpt lat="42.1883874" lon="11.9126909"><ele>412.2</ele><time>2026-04-19T11:47:04.059Z</time></trkpt><trkpt lat="42.1884611" lon="11.9126082"><ele>409.0</ele><time>2026-04-19T11:47:05.053Z</time></trkpt><trkpt lat="42.18853" lon="11.9125093"><ele>409.0</ele><time>2026-04-19T11:47:06.046Z</time></trkpt><trkpt lat="42.1885892" lon="11.912395"><ele>409.0</ele><time>2026-04-19T11:47:07.049Z</time></trkpt><trkpt lat="42.1886353" lon="11.9122707"><ele>409.0</ele><time>2026-04-19T11:47:08.049Z</time></trkpt><trkpt lat="42.1886796" lon="11.9121505"><ele>409.0</ele><time>2026-04-19T11:47:09.051Z</time></trkpt><trkpt lat="42.1886835" lon="11.912012"><ele>409.0</ele><time>2026-04-19T11:47:10.051Z</time></trkpt><trkpt lat="42.1886865" lon="11.9118725"><ele>409.2</ele><time>2026-04-19T11:47:11.052Z</time></trkpt><trkpt lat="42.188677" lon="11.9117294"><ele>409.4</ele><time>2026-04-19T11:47:12.049Z</time></trkpt><trkpt lat="42.1886374" lon="11.9115923"><ele>409.6</ele><time>2026-04-19T11:47:13.046Z</time></trkpt><trkpt lat="42.1886139" lon="11.9114638"><ele>409.8</ele><time>2026-04-19T11:47:14.057Z</time></trkpt><trkpt lat="42.1886152" lon="11.9113402"><ele>410.0</ele><time>2026-04-19T11:47:15.047Z</time></trkpt><trkpt lat="42.1886248" lon="11.9112078"><ele>410.0</ele><time>2026-04-19T11:47:16.042Z</time></trkpt><trkpt lat="42.188653" lon="11.911073"><ele>410.0</ele><time>2026-04-19T11:47:17.051Z</time></trkpt><trkpt lat="42.1886898" lon="11.9109415"><ele>410.0</ele><time>2026-04-19T11:47:18.059Z</time></trkpt><trkpt lat="42.1887239" lon="11.9108021"><ele>410.0</ele><time>2026-04-19T11:47:19.041Z</time></trkpt><trkpt lat="42.1887465" lon="11.9106614"><ele>410.0</ele><time>2026-04-19T11:47:20.046Z</time></trkpt><trkpt lat="42.1887531" lon="11.9105313"><ele>410.4</ele><time>2026-04-19T11:47:21.045Z</time></trkpt><trkpt lat="42.1887431" lon="11.9103914"><ele>410.8</ele><time>2026-04-19T11:47:22.045Z</time></trkpt><trkpt lat="42.1887117" lon="11.9102536"><ele>411.20000000000005</ele><time>2026-04-19T11:47:23.041Z</time></trkpt><trkpt lat="42.1886786" lon="11.9101092"><ele>411.6</ele><time>2026-04-19T11:47:24.061Z</time></trkpt><trkpt lat="42.1886698" lon="11.9099558"><ele>412.0</ele><time>2026-04-19T11:47:25.05Z</time></trkpt><trkpt lat="42.1886963" lon="11.9097989"><ele>412.0</ele><time>2026-04-19T11:47:26.044Z</time></trkpt><trkpt lat="42.1887246" lon="11.909641"><ele>412.0</ele><time>2026-04-19T11:47:27.055Z</time></trkpt><trkpt lat="42.188753" lon="11.9094819"><ele>412.0</ele><time>2026-04-19T11:47:28.045Z</time></trkpt><trkpt lat="42.1887816" lon="11.9093276"><ele>412.0</ele><time>2026-04-19T11:47:29.048Z</time></trkpt><trkpt lat="42.1888174" lon="11.9091775"><ele>413.0</ele><time>2026-04-19T11:47:30.051Z</time></trkpt><trkpt lat="42.1888715" lon="11.9090285"><ele>414.0</ele><time>2026-04-19T11:47:31.054Z</time></trkpt><trkpt lat="42.1889423" lon="11.9088972"><ele>415.0</ele><time>2026-04-19T11:47:32.064Z</time></trkpt><trkpt lat="42.1890259" lon="11.9087761"><ele>416.0</ele><time>2026-04-19T11:47:33.056Z</time></trkpt><trkpt lat="42.189106" lon="11.9086437"><ele>411.25</ele><time>2026-04-19T11:47:34.046Z</time></trkpt><trkpt lat="42.1891794" lon="11.9085167"><ele>406.5</ele><time>2026-04-19T11:47:35.061Z</time></trkpt><trkpt lat="42.1892357" lon="11.9083951"><ele>401.75</ele><time>2026-04-19T11:47:36.057Z</time></trkpt><trkpt lat="42.1892857" lon="11.9082577"><ele>397.0</ele><time>2026-04-19T11:47:37.064Z</time></trkpt><trkpt lat="42.1893363" lon="11.9081204"><ele>397.0</ele><time>2026-04-19T11:47:38.042Z</time></trkpt><trkpt lat="42.1893832" lon="11.9079757"><ele>397.0</ele><time>2026-04-19T11:47:39.051Z</time></trkpt><trkpt lat="42.189435" lon="11.9078285"><ele>397.0</ele><time>2026-04-19T11:47:40.057Z</time></trkpt><trkpt lat="42.1894932" lon="11.9076792"><ele>397.0</ele><time>2026-04-19T11:47:41.043Z</time></trkpt><trkpt lat="42.189549" lon="11.907532"><ele>399.20000000000005</ele><time>2026-04-19T11:47:42.056Z</time></trkpt><trkpt lat="42.1895954" lon="11.9074048"><ele>401.4</ele><time>2026-04-19T11:47:43.061Z</time></trkpt><trkpt lat="42.1896249" lon="11.9072808"><ele>403.6</ele><time>2026-04-19T11:47:44.05Z</time></trkpt><trkpt lat="42.1896434" lon="11.9071465"><ele>405.79999999999995</ele><time>2026-04-19T11:47:45.071Z</time></trkpt><trkpt lat="42.1896506" lon="11.9070074"><ele>408.0</ele><time>2026-04-19T11:47:46.067Z</time></trkpt><trkpt lat="42.18967" lon="11.9068757"><ele>408.4</ele><time>2026-04-19T11:47:47.047Z</time></trkpt><trkpt lat="42.1897035" lon="11.906742"><ele>408.79999999999995</ele><time>2026-04-19T11:47:48.052Z</time></trkpt><trkpt lat="42.1897489" lon="11.9066089"><ele>409.2</ele><time>2026-04-19T11:47:49.061Z</time></trkpt><trkpt lat="42.1897895" lon="11.9064747"><ele>409.6</ele><time>2026-04-19T11:47:50.055Z</time></trkpt><trkpt lat="42.1898157" lon="11.9063455"><ele>410.0</ele><time>2026-04-19T11:47:51.056Z</time></trkpt><trkpt lat="42.1898301" lon="11.9062137"><ele>401.0</ele><time>2026-04-19T11:47:52.057Z</time></trkpt><trkpt lat="42.1898426" lon="11.9060826"><ele>392.0</ele><time>2026-04-19T11:47:53.06Z</time></trkpt><trkpt lat="42.1898568" lon="11.9059447"><ele>383.0</ele><time>2026-04-19T11:47:54.044Z</time></trkpt><trkpt lat="42.1898773" lon="11.9058066"><ele>374.0</ele><time>2026-04-19T11:47:55.052Z</time></trkpt><trkpt lat="42.1898976" lon="11.905672"><ele>365.0</ele><time>2026-04-19T11:47:56.061Z</time></trkpt><trkpt lat="42.1899176" lon="11.90554"><ele>365.0</ele><time>2026-04-19T11:47:57.043Z</time></trkpt><trkpt lat="42.1899413" lon="11.9054062"><ele>365.0</ele><time>2026-04-19T11:47:58.059Z</time></trkpt><trkpt lat="42.1899675" lon="11.9052734"><ele>365.0</ele><time>2026-04-19T11:47:59.055Z</time></trkpt><trkpt lat="42.1900266" lon="11.9051536"><ele>365.0</ele><time>2026-04-19T11:48:00.051Z</time></trkpt><trkpt lat="42.1901005" lon="11.9050594"><ele>365.0</ele><time>2026-04-19T11:48:01.061Z</time></trkpt><trkpt lat="42.1901769" lon="11.9049635"><ele>365.4</ele><time>2026-04-19T11:48:02.06Z</time></trkpt><trkpt lat="42.1902454" lon="11.9048625"><ele>365.8</ele><time>2026-04-19T11:48:03.068Z</time></trkpt><trkpt lat="42.1903003" lon="11.9047522"><ele>366.20000000000005</ele><time>2026-04-19T11:48:04.044Z</time></trkpt><trkpt lat="42.1903404" lon="11.9046405"><ele>366.6</ele><time>2026-04-19T11:48:05.054Z</time></trkpt><trkpt lat="42.1903693" lon="11.9045179"><ele>367.0</ele><time>2026-04-19T11:48:06.053Z</time></trkpt><trkpt lat="42.1903986" lon="11.9043905"><ele>367.0</ele><time>2026-04-19T11:48:07.054Z</time></trkpt><trkpt lat="42.1904121" lon="11.904251"><ele>367.0</ele><time>2026-04-19T11:48:08.054Z</time></trkpt><trkpt lat="42.1904284" lon="11.9041066"><ele>367.0</ele><time>2026-04-19T11:48:09.065Z</time></trkpt><trkpt lat="42.1904484" lon="11.9039543"><ele>367.0</ele><time>2026-04-19T11:48:10.048Z</time></trkpt><trkpt lat="42.1904714" lon="11.9037949"><ele>367.0</ele><time>2026-04-19T11:48:11.058Z</time></trkpt><trkpt lat="42.1904954" lon="11.9036363"><ele>367.75</ele><time>2026-04-19T11:48:12.062Z</time></trkpt><trkpt lat="42.1905197" lon="11.903479"><ele>368.5</ele><time>2026-04-19T11:48:13.044Z</time></trkpt><trkpt lat="42.1905458" lon="11.9033193"><ele>369.25</ele><time>2026-04-19T11:48:14.055Z</time></trkpt><trkpt lat="42.1905755" lon="11.9031536"><ele>370.0</ele><time>2026-04-19T11:48:15.058Z</time></trkpt><trkpt lat="42.1906068" lon="11.902984"><ele>367.25</ele><time>2026-04-19T11:48:16.048Z</time></trkpt><trkpt lat="42.1906336" lon="11.9028189"><ele>364.5</ele><time>2026-04-19T11:48:17.073Z</time></trkpt><trkpt lat="42.1906555" lon="11.9026557"><ele>361.75</ele><time>2026-04-19T11:48:18.065Z</time></trkpt><trkpt lat="42.1906753" lon="11.9024918"><ele>359.0</ele><time>2026-04-19T11:48:19.044Z</time></trkpt><trkpt lat="42.1906984" lon="11.9023226"><ele>355.25</ele><time>2026-04-19T11:48:20.051Z</time></trkpt><trkpt lat="42.1907264" lon="11.9021528"><ele>351.5</ele><time>2026-04-19T11:48:21.05Z</time></trkpt><trkpt lat="42.1907596" lon="11.9019861"><ele>347.75</ele><time>2026-04-19T11:48:22.063Z</time></trkpt><trkpt lat="42.1908032" lon="11.9018391"><ele>344.0</ele><time>2026-04-19T11:48:23.05Z</time></trkpt><trkpt lat="42.1908456" lon="11.901698"><ele>342.75</ele><time>2026-04-19T11:48:24.053Z</time></trkpt><trkpt lat="42.1909105" lon="11.9015785"><ele>341.5</ele><time>2026-04-19T11:48:25.053Z</time></trkpt><trkpt lat="42.1909758" lon="11.9014591"><ele>340.25</ele><time>2026-04-19T11:48:26.047Z</time></trkpt><trkpt lat="42.191015" lon="11.9013141"><ele>339.0</ele><time>2026-04-19T11:48:27.042Z</time></trkpt><trkpt lat="42.1910369" lon="11.9011532"><ele>339.0</ele><time>2026-04-19T11:48:28.062Z</time></trkpt><trkpt lat="42.1910482" lon="11.900983"><ele>339.0</ele><time>2026-04-19T11:48:29.057Z</time></trkpt><trkpt lat="42.1910546" lon="11.9008111"><ele>339.0</ele><time>2026-04-19T11:48:30.057Z</time></trkpt><trkpt lat="42.1910633" lon="11.9006355"><ele>339.0</ele><time>2026-04-19T11:48:31.063Z</time></trkpt><trkpt lat="42.191077" lon="11.9004635"><ele>338.0</ele><time>2026-04-19T11:48:32.061Z</time></trkpt><trkpt lat="42.1910947" lon="11.9002962"><ele>337.0</ele><time>2026-04-19T11:48:33.045Z</time></trkpt><trkpt lat="42.1911121" lon="11.9001271"><ele>336.0</ele><time>2026-04-19T11:48:34.05Z</time></trkpt><trkpt lat="42.1911313" lon="11.8999696"><ele>335.0</ele><time>2026-04-19T11:48:35.06Z</time></trkpt><trkpt lat="42.1911496" lon="11.8998262"><ele>335.0</ele><time>2026-04-19T11:48:36.053Z</time></trkpt><trkpt lat="42.1911797" lon="11.8997216"><ele>335.0</ele><time>2026-04-19T11:48:37.051Z</time></trkpt><trkpt lat="42.1912043" lon="11.8996407"><ele>335.0</ele><time>2026-04-19T11:48:38.049Z</time></trkpt><trkpt lat="42.1912689" lon="11.8995161"><ele>335.0</ele><time>2026-04-19T11:48:40.047Z</time></trkpt><trkpt lat="42.1913127" lon="11.8994312"><ele>335.0</ele><time>2026-04-19T11:48:41.05Z</time></trkpt><trkpt lat="42.1913645" lon="11.8993282"><ele>335.0</ele><time>2026-04-19T11:48:42.05Z</time></trkpt><trkpt lat="42.1914249" lon="11.89921"><ele>333.75</ele><time>2026-04-19T11:48:43.051Z</time></trkpt><trkpt lat="42.1914889" lon="11.8990841"><ele>332.5</ele><time>2026-04-19T11:48:44.043Z</time></trkpt><trkpt lat="42.1915633" lon="11.8989449"><ele>331.25</ele><time>2026-04-19T11:48:45.051Z</time></trkpt><trkpt lat="42.1916363" lon="11.8987988"><ele>330.0</ele><time>2026-04-19T11:48:46.055Z</time></trkpt><trkpt lat="42.191716" lon="11.8986345"><ele>331.3333333333333</ele><time>2026-04-19T11:48:47.038Z</time></trkpt><trkpt lat="42.1917987" lon="11.8984625"><ele>332.66666666666663</ele><time>2026-04-19T11:48:48.056Z</time></trkpt><trkpt lat="42.1918822" lon="11.898285"><ele>334.0</ele><time>2026-04-19T11:48:49.049Z</time></trkpt><trkpt lat="42.1919643" lon="11.8981056"><ele>334.0</ele><time>2026-04-19T11:48:50.044Z</time></trkpt><trkpt lat="42.192042" lon="11.8979243"><ele>334.0</ele><time>2026-04-19T11:48:51.049Z</time></trkpt><trkpt lat="42.1921057" lon="11.897755"><ele>334.0</ele><time>2026-04-19T11:48:52.054Z</time></trkpt><trkpt lat="42.1921669" lon="11.8975941"><ele>334.0</ele><time>2026-04-19T11:48:53.046Z</time></trkpt><trkpt lat="42.19225" lon="11.8974694"><ele>333.66666666666663</ele><time>2026-04-19T11:48:54.049Z</time></trkpt><trkpt lat="42.1923253" lon="11.8973627"><ele>333.3333333333333</ele><time>2026-04-19T11:48:55.049Z</time></trkpt><trkpt lat="42.1924022" lon="11.8973165"><ele>333.0</ele><time>2026-04-19T11:48:56.046Z</time></trkpt><trkpt lat="42.1924773" lon="11.8973024"><ele>332.6666666666667</ele><time>2026-04-19T11:48:57.061Z</time></trkpt><trkpt lat="42.1925585" lon="11.8973395"><ele>332.33333333333337</ele><time>2026-04-19T11:48:58.059Z</time></trkpt><trkpt lat="42.192638" lon="11.897374"><ele>332.0</ele><time>2026-04-19T11:48:59.044Z</time></trkpt><trkpt lat="42.1927261" lon="11.897422"><ele>332.0</ele><time>2026-04-19T11:49:00.054Z</time></trkpt><trkpt lat="42.1928255" lon="11.8974756"><ele>332.0</ele><time>2026-04-19T11:49:01.048Z</time></trkpt><trkpt lat="42.1929379" lon="11.897522"><ele>332.0</ele><time>2026-04-19T11:49:02.046Z</time></trkpt><trkpt lat="42.1930413" lon="11.8975682"><ele>332.0</ele><time>2026-04-19T11:49:03.058Z</time></trkpt><trkpt lat="42.1931442" lon="11.8975777"><ele>332.0</ele><time>2026-04-19T11:49:04.049Z</time></trkpt><trkpt lat="42.1932413" lon="11.8975785"><ele>331.0</ele><time>2026-04-19T11:49:05.045Z</time></trkpt><trkpt lat="42.1933202" lon="11.8975489"><ele>330.0</ele><time>2026-04-19T11:49:06.049Z</time></trkpt><trkpt lat="42.1934081" lon="11.8975129"><ele>329.0</ele><time>2026-04-19T11:49:07.058Z</time></trkpt><trkpt lat="42.193499" lon="11.8974632"><ele>328.0</ele><time>2026-04-19T11:49:08.044Z</time></trkpt><trkpt lat="42.1935823" lon="11.8974053"><ele>327.0</ele><time>2026-04-19T11:49:09.048Z</time></trkpt><trkpt lat="42.1936913" lon="11.8973409"><ele>327.0</ele><time>2026-04-19T11:49:10.051Z</time></trkpt><trkpt lat="42.1937907" lon="11.8972799"><ele>327.0</ele><time>2026-04-19T11:49:11.052Z</time></trkpt><trkpt lat="42.1938919" lon="11.8972357"><ele>327.0</ele><time>2026-04-19T11:49:12.044Z</time></trkpt><trkpt lat="42.1939906" lon="11.8971825"><ele>327.0</ele><time>2026-04-19T11:49:13.054Z</time></trkpt><trkpt lat="42.1940974" lon="11.8971334"><ele>327.0</ele><time>2026-04-19T11:49:14.052Z</time></trkpt><trkpt lat="42.1941987" lon="11.8970773"><ele>327.40000000000003</ele><time>2026-04-19T11:49:15.048Z</time></trkpt><trkpt lat="42.194299" lon="11.897025"><ele>327.8</ele><time>2026-04-19T11:49:16.053Z</time></trkpt><trkpt lat="42.1943963" lon="11.8969804"><ele>328.2</ele><time>2026-04-19T11:49:17.058Z</time></trkpt><trkpt lat="42.1944983" lon="11.8969475"><ele>328.6</ele><time>2026-04-19T11:49:18.053Z</time></trkpt><trkpt lat="42.1946037" lon="11.8969235"><ele>329.0</ele><time>2026-04-19T11:49:19.055Z</time></trkpt><trkpt lat="42.1947036" lon="11.8969006"><ele>329.0</ele><time>2026-04-19T11:49:20.054Z</time></trkpt><trkpt lat="42.1948116" lon="11.8968809"><ele>329.0</ele><time>2026-04-19T11:49:21.058Z</time></trkpt><trkpt lat="42.1949168" lon="11.8968657"><ele>329.0</ele><time>2026-04-19T11:49:22.045Z</time></trkpt><trkpt lat="42.1950292" lon="11.8968499"><ele>329.0</ele><time>2026-04-19T11:49:23.055Z</time></trkpt><trkpt lat="42.1951367" lon="11.8968339"><ele>329.0</ele><time>2026-04-19T11:49:24.05Z</time></trkpt><trkpt lat="42.1952354" lon="11.8968297"><ele>328.0</ele><time>2026-04-19T11:49:25.052Z</time></trkpt><trkpt lat="42.1953237" lon="11.8968202"><ele>327.0</ele><time>2026-04-19T11:49:26.042Z</time></trkpt><trkpt lat="42.1954201" lon="11.8968106"><ele>326.0</ele><time>2026-04-19T11:49:27.066Z</time></trkpt><trkpt lat="42.1955136" lon="11.8967603"><ele>325.0</ele><time>2026-04-19T11:49:28.057Z</time></trkpt><trkpt lat="42.1956159" lon="11.89672"><ele>324.0</ele><time>2026-04-19T11:49:29.055Z</time></trkpt><trkpt lat="42.1957196" lon="11.8966892"><ele>318.59999999999997</ele><time>2026-04-19T11:49:30.056Z</time></trkpt><trkpt lat="42.1958218" lon="11.8966378"><ele>313.2</ele><time>2026-04-19T11:49:31.053Z</time></trkpt><trkpt lat="42.1959115" lon="11.8965801"><ele>307.79999999999995</ele><time>2026-04-19T11:49:32.043Z</time></trkpt><trkpt lat="42.195992" lon="11.8965122"><ele>302.4</ele><time>2026-04-19T11:49:33.049Z</time></trkpt><trkpt lat="42.1960696" lon="11.8964377"><ele>297.0</ele><time>2026-04-19T11:49:34.049Z</time></trkpt><trkpt lat="42.1961432" lon="11.8963526"><ele>297.0</ele><time>2026-04-19T11:49:35.045Z</time></trkpt><trkpt lat="42.1962155" lon="11.8962696"><ele>297.0</ele><time>2026-04-19T11:49:36.048Z</time></trkpt><trkpt lat="42.1962888" lon="11.8961967"><ele>297.0</ele><time>2026-04-19T11:49:37.076Z</time></trkpt><trkpt lat="42.1963642" lon="11.8961278"><ele>297.0</ele><time>2026-04-19T11:49:38.049Z</time></trkpt><trkpt lat="42.1964472" lon="11.8960643"><ele>297.0</ele><time>2026-04-19T11:49:39.047Z</time></trkpt><trkpt lat="42.1965278" lon="11.8960104"><ele>296.3333333333333</ele><time>2026-04-19T11:49:40.057Z</time></trkpt><trkpt lat="42.1966083" lon="11.8959775"><ele>295.6666666666667</ele><time>2026-04-19T11:49:41.06Z</time></trkpt><trkpt lat="42.196696" lon="11.8959608"><ele>295.0</ele><time>2026-04-19T11:49:42.052Z</time></trkpt><trkpt lat="42.1967874" lon="11.8959619"><ele>294.33333333333337</ele><time>2026-04-19T11:49:43.055Z</time></trkpt><trkpt lat="42.1968799" lon="11.8959852"><ele>293.6666666666667</ele><time>2026-04-19T11:49:44.058Z</time></trkpt><trkpt lat="42.196962" lon="11.8960334"><ele>293.0</ele><time>2026-04-19T11:49:45.045Z</time></trkpt><trkpt lat="42.1970335" lon="11.8960888"><ele>293.0</ele><time>2026-04-19T11:49:46.055Z</time></trkpt><trkpt lat="42.1970958" lon="11.8961456"><ele>293.0</ele><time>2026-04-19T11:49:47.052Z</time></trkpt><trkpt lat="42.197164" lon="11.8962131"><ele>293.0</ele><time>2026-04-19T11:49:48.053Z</time></trkpt><trkpt lat="42.1972351" lon="11.8962879"><ele>293.0</ele><time>2026-04-19T11:49:49.059Z</time></trkpt><trkpt lat="42.1972973" lon="11.8963746"><ele>293.0</ele><time>2026-04-19T11:49:50.06Z</time></trkpt><trkpt lat="42.1973598" lon="11.8964881"><ele>293.0</ele><time>2026-04-19T11:49:51.049Z</time></trkpt><trkpt lat="42.197412" lon="11.8966359"><ele>289.0</ele><time>2026-04-19T11:49:52.055Z</time></trkpt><trkpt lat="42.1974609" lon="11.896793"><ele>285.0</ele><time>2026-04-19T11:49:53.067Z</time></trkpt><trkpt lat="42.1975105" lon="11.8969571"><ele>281.0</ele><time>2026-04-19T11:49:54.048Z</time></trkpt><trkpt lat="42.1975578" lon="11.897124"><ele>277.0</ele><time>2026-04-19T11:49:55.047Z</time></trkpt><trkpt lat="42.1976178" lon="11.8972989"><ele>277.0</ele><time>2026-04-19T11:49:56.06Z</time></trkpt><trkpt lat="42.1976788" lon="11.8974766"><ele>277.0</ele><time>2026-04-19T11:49:57.066Z</time></trkpt><trkpt lat="42.1977434" lon="11.8976525"><ele>277.0</ele><time>2026-04-19T11:49:58.05Z</time></trkpt><trkpt lat="42.1978306" lon="11.8978254"><ele>277.0</ele><time>2026-04-19T11:49:59.066Z</time></trkpt><trkpt lat="42.1978739" lon="11.8979898"><ele>278.0</ele><time>2026-04-19T11:50:00.067Z</time></trkpt><trkpt lat="42.1979313" lon="11.8981572"><ele>279.0</ele><time>2026-04-19T11:50:01.047Z</time></trkpt><trkpt lat="42.1979772" lon="11.8983232"><ele>280.0</ele><time>2026-04-19T11:50:02.05Z</time></trkpt><trkpt lat="42.1980348" lon="11.8984621"><ele>281.0</ele><time>2026-04-19T11:50:03.045Z</time></trkpt><trkpt lat="42.1980942" lon="11.898588"><ele>282.6</ele><time>2026-04-19T11:50:04.039Z</time></trkpt><trkpt lat="42.1981507" lon="11.8987129"><ele>284.20000000000005</ele><time>2026-04-19T11:50:05.057Z</time></trkpt><trkpt lat="42.1981947" lon="11.8988443"><ele>285.79999999999995</ele><time>2026-04-19T11:50:06.054Z</time></trkpt><trkpt lat="42.1982312" lon="11.8989773"><ele>287.4</ele><time>2026-04-19T11:50:07.042Z</time></trkpt><trkpt lat="42.1982644" lon="11.8991174"><ele>289.0</ele><time>2026-04-19T11:50:08.059Z</time></trkpt><trkpt lat="42.1982946" lon="11.8992571"><ele>281.75</ele><time>2026-04-19T11:50:09.058Z</time></trkpt><trkpt lat="42.1983259" lon="11.8994209"><ele>274.5</ele><time>2026-04-19T11:50:10.041Z</time></trkpt><trkpt lat="42.1983543" lon="11.899574"><ele>267.25</ele><time>2026-04-19T11:50:11.057Z</time></trkpt><trkpt lat="42.1983895" lon="11.8997145"><ele>260.0</ele><time>2026-04-19T11:50:12.065Z</time></trkpt><trkpt lat="42.1984214" lon="11.8998481"><ele>260.0</ele><time>2026-04-19T11:50:13.05Z</time></trkpt><trkpt lat="42.1984409" lon="11.8999641"><ele>260.0</ele><time>2026-04-19T11:50:14.046Z</time></trkpt><trkpt lat="42.1984679" lon="11.9000421"><ele>260.0</ele><time>2026-04-19T11:50:15.051Z</time></trkpt><trkpt lat="42.1985265" lon="11.9000987"><ele>260.0</ele><time>2026-04-19T11:50:17.051Z</time></trkpt><trkpt lat="42.1986125" lon="11.900041"><ele>260.0</ele><time>2026-04-19T11:50:19.043Z</time></trkpt><trkpt lat="42.1986819" lon="11.8998943"><ele>260.0</ele><time>2026-04-19T11:50:21.056Z</time></trkpt><trkpt lat="42.1986842" lon="11.8997855"><ele>260.0</ele><time>2026-04-19T11:50:22.055Z</time></trkpt><trkpt lat="42.1987005" lon="11.8996731"><ele>260.0</ele><time>2026-04-19T11:50:23.052Z</time></trkpt><trkpt lat="42.1987231" lon="11.8995564"><ele>260.0</ele><time>2026-04-19T11:50:24.05Z</time></trkpt><trkpt lat="42.19874" lon="11.8994446"><ele>260.0</ele><time>2026-04-19T11:50:25.061Z</time></trkpt><trkpt lat="42.1987479" lon="11.8993394"><ele>260.0</ele><time>2026-04-19T11:50:26.053Z</time></trkpt><trkpt lat="42.1987553" lon="11.8992233"><ele>260.0</ele><time>2026-04-19T11:50:27.05Z</time></trkpt><trkpt lat="42.1987484" lon="11.8990958"><ele>260.0</ele><time>2026-04-19T11:50:28.05Z</time></trkpt><trkpt lat="42.198746" lon="11.8989787"><ele>260.0</ele><time>2026-04-19T11:50:29.043Z</time></trkpt><trkpt lat="42.1987428" lon="11.8988619"><ele>260.0</ele><time>2026-04-19T11:50:30.059Z</time></trkpt><trkpt lat="42.1987621" lon="11.8987455"><ele>260.0</ele><time>2026-04-19T11:50:31.053Z</time></trkpt><trkpt lat="42.1988071" lon="11.8986269"><ele>260.0</ele><time>2026-04-19T11:50:32.046Z</time></trkpt><trkpt lat="42.1988542" lon="11.8985153"><ele>259.2</ele><time>2026-04-19T11:50:33.048Z</time></trkpt><trkpt lat="42.198904" lon="11.8984072"><ele>258.4</ele><time>2026-04-19T11:50:34.059Z</time></trkpt><trkpt lat="42.1989602" lon="11.8983108"><ele>257.6</ele><time>2026-04-19T11:50:35.044Z</time></trkpt><trkpt lat="42.1990119" lon="11.8982094"><ele>256.8</ele><time>2026-04-19T11:50:36.054Z</time></trkpt><trkpt lat="42.1990592" lon="11.8981081"><ele>256.0</ele><time>2026-04-19T11:50:37.053Z</time></trkpt><trkpt lat="42.1991068" lon="11.8979929"><ele>250.60000000000002</ele><time>2026-04-19T11:50:38.042Z</time></trkpt><trkpt lat="42.1991578" lon="11.8978822"><ele>245.20000000000002</ele><time>2026-04-19T11:50:39.053Z</time></trkpt><trkpt lat="42.1992117" lon="11.8977592"><ele>239.79999999999998</ele><time>2026-04-19T11:50:40.056Z</time></trkpt><trkpt lat="42.1992628" lon="11.8976323"><ele>234.39999999999998</ele><time>2026-04-19T11:50:41.043Z</time></trkpt><trkpt lat="42.1993155" lon="11.8975088"><ele>229.0</ele><time>2026-04-19T11:50:42.045Z</time></trkpt><trkpt lat="42.1993689" lon="11.897386"><ele>228.5</ele><time>2026-04-19T11:50:43.051Z</time></trkpt><trkpt lat="42.199428" lon="11.8972575"><ele>228.0</ele><time>2026-04-19T11:50:44.053Z</time></trkpt><trkpt lat="42.1994827" lon="11.8971153"><ele>227.5</ele><time>2026-04-19T11:50:45.043Z</time></trkpt><trkpt lat="42.1995466" lon="11.8969755"><ele>227.0</ele><time>2026-04-19T11:50:46.051Z</time></trkpt><trkpt lat="42.1996052" lon="11.8968357"><ele>227.0</ele><time>2026-04-19T11:50:47.067Z</time></trkpt><trkpt lat="42.1996584" lon="11.8967103"><ele>227.0</ele><time>2026-04-19T11:50:48.044Z</time></trkpt><trkpt lat="42.1997318" lon="11.896575"><ele>227.0</ele><time>2026-04-19T11:50:49.053Z</time></trkpt><trkpt lat="42.1998007" lon="11.8964441"><ele>227.0</ele><time>2026-04-19T11:50:50.053Z</time></trkpt><trkpt lat="42.1998645" lon="11.8963246"><ele>224.0</ele><time>2026-04-19T11:50:51.048Z</time></trkpt><trkpt lat="42.1999295" lon="11.8962012"><ele>221.0</ele><time>2026-04-19T11:50:52.056Z</time></trkpt><trkpt lat="42.199993" lon="11.8960864"><ele>218.0</ele><time>2026-04-19T11:50:53.059Z</time></trkpt><trkpt lat="42.2000515" lon="11.8959702"><ele>215.0</ele><time>2026-04-19T11:50:54.049Z</time></trkpt><trkpt lat="42.2001094" lon="11.89586"><ele>212.0</ele><time>2026-04-19T11:50:55.055Z</time></trkpt><trkpt lat="42.2001653" lon="11.895754"><ele>212.00000000000003</ele><time>2026-04-19T11:50:56.064Z</time></trkpt><trkpt lat="42.2002307" lon="11.8956519"><ele>212.0</ele><time>2026-04-19T11:50:57.045Z</time></trkpt><trkpt lat="42.200296" lon="11.8955566"><ele>212.0</ele><time>2026-04-19T11:50:58.07Z</time></trkpt><trkpt lat="42.200357" lon="11.8954701"><ele>212.0</ele><time>2026-04-19T11:50:59.064Z</time></trkpt><trkpt lat="42.2004146" lon="11.8953938"><ele>212.00000000000003</ele><time>2026-04-19T11:51:00.046Z</time></trkpt><trkpt lat="42.2004692" lon="11.8953197"><ele>212.0</ele><time>2026-04-19T11:51:01.053Z</time></trkpt><trkpt lat="42.2005213" lon="11.8952414"><ele>212.00000000000003</ele><time>2026-04-19T11:51:02.053Z</time></trkpt><trkpt lat="42.2005646" lon="11.8951726"><ele>212.0</ele><time>2026-04-19T11:51:03.064Z</time></trkpt><trkpt lat="42.2006347" lon="11.8950723"><ele>212.0</ele><time>2026-04-19T11:51:05.045Z</time></trkpt><trkpt lat="42.2007155" lon="11.8949905"><ele>212.0</ele><time>2026-04-19T11:51:07.057Z</time></trkpt><trkpt lat="42.2007883" lon="11.8949823"><ele>212.00000000000003</ele><time>2026-04-19T11:51:08.058Z</time></trkpt><trkpt lat="42.200856" lon="11.8950092"><ele>212.0</ele><time>2026-04-19T11:51:09.056Z</time></trkpt><trkpt lat="42.2009302" lon="11.8950495"><ele>209.39999999999998</ele><time>2026-04-19T11:51:10.058Z</time></trkpt><trkpt lat="42.201007" lon="11.8951058"><ele>206.79999999999998</ele><time>2026-04-19T11:51:11.052Z</time></trkpt><trkpt lat="42.2010863" lon="11.8951662"><ele>204.2</ele><time>2026-04-19T11:51:12.055Z</time></trkpt><trkpt lat="42.2011683" lon="11.8952344"><ele>201.6</ele><time>2026-04-19T11:51:13.055Z</time></trkpt><trkpt lat="42.201248" lon="11.8953003"><ele>199.0</ele><time>2026-04-19T11:51:14.058Z</time></trkpt><trkpt lat="42.2013349" lon="11.8953578"><ele>198.99999999999997</ele><time>2026-04-19T11:51:15.051Z</time></trkpt><trkpt lat="42.2014232" lon="11.8953977"><ele>199.0</ele><time>2026-04-19T11:51:16.051Z</time></trkpt><trkpt lat="42.2015045" lon="11.8954308"><ele>199.0</ele><time>2026-04-19T11:51:17.048Z</time></trkpt><trkpt lat="42.2015792" lon="11.8954424"><ele>199.0</ele><time>2026-04-19T11:51:18.047Z</time></trkpt><trkpt lat="42.2016451" lon="11.8954484"><ele>198.99999999999997</ele><time>2026-04-19T11:51:19.061Z</time></trkpt><trkpt lat="42.2017079" lon="11.8954391"><ele>199.0</ele><time>2026-04-19T11:51:20.043Z</time></trkpt><trkpt lat="42.2017785" lon="11.8954253"><ele>197.16666666666666</ele><time>2026-04-19T11:51:21.058Z</time></trkpt><trkpt lat="42.2018502" lon="11.8954043"><ele>195.33333333333331</ele><time>2026-04-19T11:51:22.05Z</time></trkpt><trkpt lat="42.2019245" lon="11.8953791"><ele>193.5</ele><time>2026-04-19T11:51:23.043Z</time></trkpt><trkpt lat="42.2020011" lon="11.8953494"><ele>191.66666666666666</ele><time>2026-04-19T11:51:24.053Z</time></trkpt><trkpt lat="42.2020782" lon="11.8953211"><ele>189.83333333333331</ele><time>2026-04-19T11:51:25.047Z</time></trkpt><trkpt lat="42.2021543" lon="11.8952926"><ele>188.0</ele><time>2026-04-19T11:51:26.05Z</time></trkpt><trkpt lat="42.2022342" lon="11.8952674"><ele>188.0</ele><time>2026-04-19T11:51:27.057Z</time></trkpt><trkpt lat="42.2023133" lon="11.8952338"><ele>188.0</ele><time>2026-04-19T11:51:28.056Z</time></trkpt><trkpt lat="42.2023909" lon="11.8952034"><ele>188.0</ele><time>2026-04-19T11:51:29.058Z</time></trkpt><trkpt lat="42.2024673" lon="11.8951817"><ele>188.0</ele><time>2026-04-19T11:51:30.053Z</time></trkpt><trkpt lat="42.2025378" lon="11.8951601"><ele>188.0</ele><time>2026-04-19T11:51:31.047Z</time></trkpt><trkpt lat="42.2026361" lon="11.8951354"><ele>188.0</ele><time>2026-04-19T11:51:33.055Z</time></trkpt><trkpt lat="42.2026994" lon="11.895107"><ele>186.0</ele><time>2026-04-19T11:51:35.06Z</time></trkpt><trkpt lat="42.2027395" lon="11.8950222"><ele>184.0</ele><time>2026-04-19T11:51:37.063Z</time></trkpt><trkpt lat="42.2027381" lon="11.8948449"><ele>182.0</ele><time>2026-04-19T11:51:39.049Z</time></trkpt><trkpt lat="42.202735" lon="11.8947278"><ele>180.0</ele><time>2026-04-19T11:51:40.048Z</time></trkpt><trkpt lat="42.2027345" lon="11.8946062"><ele>178.0</ele><time>2026-04-19T11:51:41.051Z</time></trkpt><trkpt lat="42.2027302" lon="11.8944844"><ele>178.0</ele><time>2026-04-19T11:51:42.051Z</time></trkpt><trkpt lat="42.2027241" lon="11.8943623"><ele>178.0</ele><time>2026-04-19T11:51:43.062Z</time></trkpt><trkpt lat="42.2027136" lon="11.8942392"><ele>178.0</ele><time>2026-04-19T11:51:44.056Z</time></trkpt><trkpt lat="42.2027078" lon="11.8941142"><ele>178.0</ele><time>2026-04-19T11:51:45.052Z</time></trkpt><trkpt lat="42.2027073" lon="11.8939759"><ele>178.0</ele><time>2026-04-19T11:51:46.064Z</time></trkpt><trkpt lat="42.2027015" lon="11.8938396"><ele>178.0</ele><time>2026-04-19T11:51:47.054Z</time></trkpt><trkpt lat="42.2026906" lon="11.8937056"><ele>178.0</ele><time>2026-04-19T11:51:48.045Z</time></trkpt><trkpt lat="42.2026792" lon="11.8935714"><ele>178.0</ele><time>2026-04-19T11:51:49.052Z</time></trkpt><trkpt lat="42.2026664" lon="11.8934387"><ele>178.0</ele><time>2026-04-19T11:51:50.057Z</time></trkpt><trkpt lat="42.2026532" lon="11.8933109"><ele>178.0</ele><time>2026-04-19T11:51:51.044Z</time></trkpt><trkpt lat="42.2026421" lon="11.8931902"><ele>177.60000000000002</ele><time>2026-04-19T11:51:52.05Z</time></trkpt><trkpt lat="42.202643" lon="11.893062"><ele>177.20000000000002</ele><time>2026-04-19T11:51:53.045Z</time></trkpt><trkpt lat="42.2026508" lon="11.8929227"><ele>176.8</ele><time>2026-04-19T11:51:54.046Z</time></trkpt><trkpt lat="42.2026599" lon="11.8927918"><ele>176.4</ele><time>2026-04-19T11:51:55.047Z</time></trkpt><trkpt lat="42.202681" lon="11.8926477"><ele>176.0</ele><time>2026-04-19T11:51:56.05Z</time></trkpt><trkpt lat="42.2027003" lon="11.8924946"><ele>176.0</ele><time>2026-04-19T11:51:57.049Z</time></trkpt><trkpt lat="42.2027141" lon="11.8923466"><ele>176.0</ele><time>2026-04-19T11:51:58.051Z</time></trkpt><trkpt lat="42.2027236" lon="11.8922046"><ele>176.0</ele><time>2026-04-19T11:51:59.045Z</time></trkpt><trkpt lat="42.2027319" lon="11.8920556"><ele>176.0</ele><time>2026-04-19T11:52:00.051Z</time></trkpt><trkpt lat="42.2027419" lon="11.8919065"><ele>176.0</ele><time>2026-04-19T11:52:01.042Z</time></trkpt><trkpt lat="42.2027434" lon="11.8917575"><ele>175.4</ele><time>2026-04-19T11:52:02.045Z</time></trkpt><trkpt lat="42.2027346" lon="11.8916238"><ele>174.8</ele><time>2026-04-19T11:52:03.05Z</time></trkpt><trkpt lat="42.202721" lon="11.8914998"><ele>174.20000000000002</ele><time>2026-04-19T11:52:04.058Z</time></trkpt><trkpt lat="42.202689" lon="11.8913876"><ele>173.60000000000002</ele><time>2026-04-19T11:52:05.055Z</time></trkpt><trkpt lat="42.2026317" lon="11.8912775"><ele>173.0</ele><time>2026-04-19T11:52:06.042Z</time></trkpt><trkpt lat="42.2025702" lon="11.8911665"><ele>173.0</ele><time>2026-04-19T11:52:07.057Z</time></trkpt><trkpt lat="42.2025102" lon="11.8910595"><ele>173.0</ele><time>2026-04-19T11:52:08.045Z</time></trkpt><trkpt lat="42.2024507" lon="11.890948"><ele>173.0</ele><time>2026-04-19T11:52:09.052Z</time></trkpt><trkpt lat="42.202384" lon="11.8908633"><ele>173.0</ele><time>2026-04-19T11:52:10.049Z</time></trkpt><trkpt lat="42.2023223" lon="11.8907807"><ele>173.0</ele><time>2026-04-19T11:52:11.057Z</time></trkpt><trkpt lat="42.2022635" lon="11.8907006"><ele>172.16666666666666</ele><time>2026-04-19T11:52:12.04Z</time></trkpt><trkpt lat="42.2022095" lon="11.8906317"><ele>171.33333333333331</ele><time>2026-04-19T11:52:13.05Z</time></trkpt><trkpt lat="42.2021561" lon="11.8905658"><ele>170.5</ele><time>2026-04-19T11:52:14.061Z</time></trkpt><trkpt lat="42.2020932" lon="11.8905076"><ele>169.66666666666666</ele><time>2026-04-19T11:52:15.045Z</time></trkpt><trkpt lat="42.2020241" lon="11.8904541"><ele>168.83333333333334</ele><time>2026-04-19T11:52:16.054Z</time></trkpt><trkpt lat="42.2019539" lon="11.8904125"><ele>168.0</ele><time>2026-04-19T11:52:17.057Z</time></trkpt><trkpt lat="42.2018817" lon="11.8903734"><ele>168.0</ele><time>2026-04-19T11:52:18.048Z</time></trkpt><trkpt lat="42.2018123" lon="11.8903369"><ele>168.0</ele><time>2026-04-19T11:52:19.055Z</time></trkpt><trkpt lat="42.2017328" lon="11.8903052"><ele>168.0</ele><time>2026-04-19T11:52:20.052Z</time></trkpt><trkpt lat="42.2016616" lon="11.8902765"><ele>168.0</ele><time>2026-04-19T11:52:21.049Z</time></trkpt><trkpt lat="42.2015951" lon="11.8902479"><ele>168.0</ele><time>2026-04-19T11:52:22.048Z</time></trkpt><trkpt lat="42.2015328" lon="11.8902096"><ele>168.0</ele><time>2026-04-19T11:52:23.05Z</time></trkpt><trkpt lat="42.2014744" lon="11.8901558"><ele>168.0</ele><time>2026-04-19T11:52:24.054Z</time></trkpt><trkpt lat="42.2014163" lon="11.8901036"><ele>167.8</ele><time>2026-04-19T11:52:25.048Z</time></trkpt><trkpt lat="42.2013572" lon="11.8900451"><ele>167.60000000000002</ele><time>2026-04-19T11:52:26.051Z</time></trkpt><trkpt lat="42.201295" lon="11.8899515"><ele>167.39999999999998</ele><time>2026-04-19T11:52:27.051Z</time></trkpt><trkpt lat="42.201258" lon="11.8898307"><ele>167.2</ele><time>2026-04-19T11:52:28.049Z</time></trkpt><trkpt lat="42.2012265" lon="11.8896824"><ele>167.0</ele><time>2026-04-19T11:52:29.047Z</time></trkpt><trkpt lat="42.2011916" lon="11.889537"><ele>167.0</ele><time>2026-04-19T11:52:30.043Z</time></trkpt><trkpt lat="42.2011795" lon="11.8893854"><ele>167.0</ele><time>2026-04-19T11:52:31.057Z</time></trkpt><trkpt lat="42.2011727" lon="11.8892434"><ele>167.0</ele><time>2026-04-19T11:52:32.047Z</time></trkpt><trkpt lat="42.2011658" lon="11.8891054"><ele>167.0</ele><time>2026-04-19T11:52:33.056Z</time></trkpt><trkpt lat="42.2011519" lon="11.8889749"><ele>167.0</ele><time>2026-04-19T11:52:34.046Z</time></trkpt><trkpt lat="42.2011216" lon="11.888853"><ele>165.4</ele><time>2026-04-19T11:52:35.058Z</time></trkpt><trkpt lat="42.2010819" lon="11.8887221"><ele>163.79999999999998</ele><time>2026-04-19T11:52:36.055Z</time></trkpt><trkpt lat="42.2010503" lon="11.8885799"><ele>162.2</ele><time>2026-04-19T11:52:37.055Z</time></trkpt><trkpt lat="42.2010456" lon="11.8884399"><ele>160.6</ele><time>2026-04-19T11:52:38.049Z</time></trkpt><trkpt lat="42.2010494" lon="11.8883"><ele>159.0</ele><time>2026-04-19T11:52:39.046Z</time></trkpt><trkpt lat="42.2010554" lon="11.8881713"><ele>158.5</ele><time>2026-04-19T11:52:40.046Z</time></trkpt><trkpt lat="42.201056" lon="11.8880773"><ele>158.0</ele><time>2026-04-19T11:52:41.058Z</time></trkpt><trkpt lat="42.2010561" lon="11.8879913"><ele>157.5</ele><time>2026-04-19T11:52:42.05Z</time></trkpt><trkpt lat="42.2010224" lon="11.8878777"><ele>157.0</ele><time>2026-04-19T11:52:44.056Z</time></trkpt><trkpt lat="42.2009732" lon="11.8877764"><ele>156.5</ele><time>2026-04-19T11:52:52.063Z</time></trkpt><trkpt lat="42.2008746" lon="11.8876591"><ele>156.0</ele><time>2026-04-19T11:52:54.052Z</time></trkpt><trkpt lat="42.2008186" lon="11.8875942"><ele>155.6</ele><time>2026-04-19T11:52:55.047Z</time></trkpt><trkpt lat="42.200758" lon="11.8875237"><ele>155.2</ele><time>2026-04-19T11:52:56.061Z</time></trkpt><trkpt lat="42.2006934" lon="11.8874435"><ele>154.8</ele><time>2026-04-19T11:52:57.056Z</time></trkpt><trkpt lat="42.2006385" lon="11.8873401"><ele>154.4</ele><time>2026-04-19T11:52:58.042Z</time></trkpt><trkpt lat="42.200584" lon="11.8872269"><ele>154.0</ele><time>2026-04-19T11:52:59.064Z</time></trkpt><trkpt lat="42.2005224" lon="11.8870995"><ele>155.0</ele><time>2026-04-19T11:53:00.056Z</time></trkpt><trkpt lat="42.2004615" lon="11.8869729"><ele>156.0</ele><time>2026-04-19T11:53:01.045Z</time></trkpt><trkpt lat="42.200394" lon="11.886837"><ele>157.0</ele><time>2026-04-19T11:53:02.051Z</time></trkpt><trkpt lat="42.2003343" lon="11.8867243"><ele>158.0</ele><time>2026-04-19T11:53:03.05Z</time></trkpt><trkpt lat="42.2002845" lon="11.8866324"><ele>159.0</ele><time>2026-04-19T11:53:04.054Z</time></trkpt><trkpt lat="42.2002351" lon="11.8865708"><ele>159.0</ele><time>2026-04-19T11:53:06.046Z</time></trkpt><trkpt lat="42.2001352" lon="11.8865344"><ele>159.0</ele><time>2026-04-19T11:53:08.066Z</time></trkpt><trkpt lat="42.2000635" lon="11.8865086"><ele>159.0</ele><time>2026-04-19T11:53:09.063Z</time></trkpt><trkpt lat="42.1999863" lon="11.886481"><ele>159.0</ele><time>2026-04-19T11:53:10.052Z</time></trkpt><trkpt lat="42.1999036" lon="11.8864408"><ele>159.0</ele><time>2026-04-19T11:53:11.058Z</time></trkpt><trkpt lat="42.1998134" lon="11.8863985"><ele>159.0</ele><time>2026-04-19T11:53:12.062Z</time></trkpt><trkpt lat="42.1997291" lon="11.886357"><ele>159.8</ele><time>2026-04-19T11:53:13.046Z</time></trkpt><trkpt lat="42.1996505" lon="11.8863148"><ele>160.60000000000002</ele><time>2026-04-19T11:53:14.058Z</time></trkpt><trkpt lat="42.1995759" lon="11.8862462"><ele>161.4</ele><time>2026-04-19T11:53:15.06Z</time></trkpt><trkpt lat="42.1995037" lon="11.8861672"><ele>162.20000000000002</ele><time>2026-04-19T11:53:16.048Z</time></trkpt><trkpt lat="42.1994387" lon="11.8860611"><ele>163.0</ele><time>2026-04-19T11:53:17.047Z</time></trkpt><trkpt lat="42.199374" lon="11.8859489"><ele>162.4</ele><time>2026-04-19T11:53:18.071Z</time></trkpt><trkpt lat="42.1993043" lon="11.8858314"><ele>161.8</ele><time>2026-04-19T11:53:19.051Z</time></trkpt><trkpt lat="42.1992338" lon="11.8857079"><ele>161.2</ele><time>2026-04-19T11:53:20.063Z</time></trkpt><trkpt lat="42.1991643" lon="11.8855909"><ele>160.6</ele><time>2026-04-19T11:53:21.064Z</time></trkpt><trkpt lat="42.1990971" lon="11.8854829"><ele>160.0</ele><time>2026-04-19T11:53:22.045Z</time></trkpt><trkpt lat="42.199028" lon="11.8853714"><ele>162.0</ele><time>2026-04-19T11:53:23.05Z</time></trkpt><trkpt lat="42.1989514" lon="11.8852556"><ele>164.0</ele><time>2026-04-19T11:53:24.056Z</time></trkpt><trkpt lat="42.1988813" lon="11.8851343"><ele>166.0</ele><time>2026-04-19T11:53:25.07Z</time></trkpt><trkpt lat="42.1988128" lon="11.8850043"><ele>168.0</ele><time>2026-04-19T11:53:26.051Z</time></trkpt><trkpt lat="42.1987388" lon="11.8848776"><ele>168.0</ele><time>2026-04-19T11:53:27.052Z</time></trkpt><trkpt lat="42.1986625" lon="11.8847354"><ele>168.0</ele><time>2026-04-19T11:53:28.062Z</time></trkpt><trkpt lat="42.1985871" lon="11.8846124"><ele>168.0</ele><time>2026-04-19T11:53:29.056Z</time></trkpt><trkpt lat="42.1985029" lon="11.8844983"><ele>168.0</ele><time>2026-04-19T11:53:30.045Z</time></trkpt><trkpt lat="42.198407" lon="11.8844154"><ele>168.0</ele><time>2026-04-19T11:53:31.063Z</time></trkpt><trkpt lat="42.1983037" lon="11.88435"><ele>168.0</ele><time>2026-04-19T11:53:32.051Z</time></trkpt><trkpt lat="42.1981954" lon="11.8843113"><ele>168.0</ele><time>2026-04-19T11:53:33.048Z</time></trkpt><trkpt lat="42.1980888" lon="11.884295"><ele>168.0</ele><time>2026-04-19T11:53:34.061Z</time></trkpt><trkpt lat="42.1979926" lon="11.8842604"><ele>168.0</ele><time>2026-04-19T11:53:35.057Z</time></trkpt><trkpt lat="42.1978979" lon="11.8842234"><ele>168.0</ele><time>2026-04-19T11:53:36.046Z</time></trkpt><trkpt lat="42.1978047" lon="11.8841444"><ele>168.0</ele><time>2026-04-19T11:53:37.054Z</time></trkpt><trkpt lat="42.1977071" lon="11.8840592"><ele>168.0</ele><time>2026-04-19T11:53:38.06Z</time></trkpt><trkpt lat="42.1976191" lon="11.8839393"><ele>168.0</ele><time>2026-04-19T11:53:39.051Z</time></trkpt><trkpt lat="42.1975486" lon="11.8838127"><ele>168.0</ele><time>2026-04-19T11:53:40.051Z</time></trkpt><trkpt lat="42.1974788" lon="11.8836838"><ele>168.0</ele><time>2026-04-19T11:53:41.048Z</time></trkpt><trkpt lat="42.1974265" lon="11.8835476"><ele>168.0</ele><time>2026-04-19T11:53:42.048Z</time></trkpt><trkpt lat="42.1973795" lon="11.8833997"><ele>168.0</ele><time>2026-04-19T11:53:43.057Z</time></trkpt><trkpt lat="42.1973379" lon="11.883245"><ele>168.0</ele><time>2026-04-19T11:53:44.061Z</time></trkpt><trkpt lat="42.1972997" lon="11.8831016"><ele>168.0</ele><time>2026-04-19T11:53:45.061Z</time></trkpt><trkpt lat="42.197266" lon="11.8829612"><ele>168.0</ele><time>2026-04-19T11:53:46.055Z</time></trkpt><trkpt lat="42.1972356" lon="11.8828344"><ele>168.0</ele><time>2026-04-19T11:53:47.048Z</time></trkpt><trkpt lat="42.1972014" lon="11.8827321"><ele>168.0</ele><time>2026-04-19T11:53:48.059Z</time></trkpt><trkpt lat="42.1971434" lon="11.8826136"><ele>167.0</ele><time>2026-04-19T11:53:50.049Z</time></trkpt><trkpt lat="42.1971077" lon="11.8825314"><ele>166.0</ele><time>2026-04-19T11:53:53.076Z</time></trkpt><trkpt lat="42.1970261" lon="11.8824494"><ele>165.0</ele><time>2026-04-19T11:53:56.059Z</time></trkpt><trkpt lat="42.1969779" lon="11.8823762"><ele>164.0</ele><time>2026-04-19T11:53:58.062Z</time></trkpt><trkpt lat="42.1969411" lon="11.8822828"><ele>163.0</ele><time>2026-04-19T11:54:00.073Z</time></trkpt><trkpt lat="42.19693" lon="11.8821499"><ele>162.0</ele><time>2026-04-19T11:54:02.054Z</time></trkpt><trkpt lat="42.1969322" lon="11.8820563"><ele>162.0</ele><time>2026-04-19T11:54:03.058Z</time></trkpt><trkpt lat="42.1969341" lon="11.8819361"><ele>162.0</ele><time>2026-04-19T11:54:04.055Z</time></trkpt><trkpt lat="42.196936" lon="11.8818024"><ele>162.0</ele><time>2026-04-19T11:54:05.06Z</time></trkpt><trkpt lat="42.196937" lon="11.8816503"><ele>162.0</ele><time>2026-04-19T11:54:06.059Z</time></trkpt><trkpt lat="42.1969363" lon="11.8814853"><ele>162.0</ele><time>2026-04-19T11:54:07.059Z</time></trkpt><trkpt lat="42.1969339" lon="11.8813303"><ele>161.2</ele><time>2026-04-19T11:54:08.051Z</time></trkpt><trkpt lat="42.1969298" lon="11.8811869"><ele>160.39999999999998</ele><time>2026-04-19T11:54:09.064Z</time></trkpt><trkpt lat="42.1969266" lon="11.8810546"><ele>159.60000000000002</ele><time>2026-04-19T11:54:10.053Z</time></trkpt><trkpt lat="42.1969237" lon="11.8809213"><ele>158.8</ele><time>2026-04-19T11:54:11.062Z</time></trkpt><trkpt lat="42.1969198" lon="11.880782"><ele>158.0</ele><time>2026-04-19T11:54:12.047Z</time></trkpt><trkpt lat="42.196915" lon="11.8806419"><ele>157.16666666666666</ele><time>2026-04-19T11:54:13.047Z</time></trkpt><trkpt lat="42.1969098" lon="11.8805032"><ele>156.33333333333331</ele><time>2026-04-19T11:54:14.052Z</time></trkpt><trkpt lat="42.196905" lon="11.8803866"><ele>155.5</ele><time>2026-04-19T11:54:15.045Z</time></trkpt><trkpt lat="42.1969009" lon="11.8802882"><ele>154.66666666666666</ele><time>2026-04-19T11:54:16.049Z</time></trkpt><trkpt lat="42.1968978" lon="11.8802023"><ele>153.83333333333334</ele><time>2026-04-19T11:54:17.057Z</time></trkpt><trkpt lat="42.1968897" lon="11.8800424"><ele>153.0</ele><time>2026-04-19T11:54:19.055Z</time></trkpt><trkpt lat="42.1968883" lon="11.8799525"><ele>152.5</ele><time>2026-04-19T11:54:20.063Z</time></trkpt><trkpt lat="42.1968889" lon="11.8798498"><ele>152.0</ele><time>2026-04-19T11:54:21.058Z</time></trkpt><trkpt lat="42.1968911" lon="11.879739"><ele>151.5</ele><time>2026-04-19T11:54:22.049Z</time></trkpt><trkpt lat="42.1968946" lon="11.8796258"><ele>151.0</ele><time>2026-04-19T11:54:23.051Z</time></trkpt><trkpt lat="42.1968974" lon="11.879514"><ele>150.5</ele><time>2026-04-19T11:54:24.056Z</time></trkpt><trkpt lat="42.1968998" lon="11.8794097"><ele>150.0</ele><time>2026-04-19T11:54:25.052Z</time></trkpt><trkpt lat="42.1969005" lon="11.8793124"><ele>150.33333333333334</ele><time>2026-04-19T11:54:26.053Z</time></trkpt><trkpt lat="42.196918" lon="11.8791809"><ele>150.66666666666666</ele><time>2026-04-19T11:54:28.055Z</time></trkpt><trkpt lat="42.1969516" lon="11.8791063"><ele>151.0</ele><time>2026-04-19T11:54:30.055Z</time></trkpt><trkpt lat="42.1969816" lon="11.8790227"><ele>151.33333333333331</ele><time>2026-04-19T11:54:33.068Z</time></trkpt><trkpt lat="42.1970228" lon="11.8789197"><ele>151.66666666666666</ele><time>2026-04-19T11:54:36.049Z</time></trkpt><trkpt lat="42.1970636" lon="11.878817"><ele>152.0</ele><time>2026-04-19T11:54:39.056Z</time></trkpt><trkpt lat="42.1970148" lon="11.8788828"><ele>152.0</ele><time>2026-04-19T11:54:45.054Z</time></trkpt><trkpt lat="42.1969964" lon="11.8789768"><ele>152.0</ele><time>2026-04-19T11:54:47.054Z</time></trkpt><trkpt lat="42.1970372" lon="11.8790772"><ele>152.0</ele><time>2026-04-19T11:54:50.06Z</time></trkpt><trkpt lat="42.1971226" lon="11.8791021"><ele>152.0</ele><time>2026-04-19T11:54:52.054Z</time></trkpt><trkpt lat="42.1972418" lon="11.8790928"><ele>152.0</ele><time>2026-04-19T11:54:54.054Z</time></trkpt><trkpt lat="42.1973112" lon="11.8790922"><ele>152.0</ele><time>2026-04-19T11:54:55.054Z</time></trkpt><trkpt lat="42.1973922" lon="11.8790924"><ele>152.4</ele><time>2026-04-19T11:54:56.05Z</time></trkpt><trkpt lat="42.1974763" lon="11.8790928"><ele>152.79999999999998</ele><time>2026-04-19T11:54:57.047Z</time></trkpt><trkpt lat="42.1975649" lon="11.8790822"><ele>153.2</ele><time>2026-04-19T11:54:58.055Z</time></trkpt><trkpt lat="42.1976646" lon="11.8790612"><ele>153.6</ele><time>2026-04-19T11:54:59.052Z</time></trkpt><trkpt lat="42.1977601" lon="11.8790352"><ele>154.0</ele><time>2026-04-19T11:55:00.045Z</time></trkpt><trkpt lat="42.1978457" lon="11.878996"><ele>154.0</ele><time>2026-04-19T11:55:01.054Z</time></trkpt><trkpt lat="42.19793" lon="11.8789367"><ele>154.0</ele><time>2026-04-19T11:55:02.055Z</time></trkpt><trkpt lat="42.1980079" lon="11.8788591"><ele>154.0</ele><time>2026-04-19T11:55:03.047Z</time></trkpt><trkpt lat="42.1980848" lon="11.8787721"><ele>154.0</ele><time>2026-04-19T11:55:04.062Z</time></trkpt><trkpt lat="42.1981672" lon="11.8786778"><ele>154.0</ele><time>2026-04-19T11:55:05.051Z</time></trkpt><trkpt lat="42.1982484" lon="11.8785628"><ele>154.5</ele><time>2026-04-19T11:55:06.052Z</time></trkpt><trkpt lat="42.1983373" lon="11.878428"><ele>155.0</ele><time>2026-04-19T11:55:07.069Z</time></trkpt><trkpt lat="42.1984255" lon="11.8782875"><ele>155.5</ele><time>2026-04-19T11:55:08.05Z</time></trkpt><trkpt lat="42.198522" lon="11.8781363"><ele>156.0</ele><time>2026-04-19T11:55:09.062Z</time></trkpt><trkpt lat="42.1986277" lon="11.8779739"><ele>156.0</ele><time>2026-04-19T11:55:10.062Z</time></trkpt><trkpt lat="42.1987438" lon="11.8778049"><ele>156.0</ele><time>2026-04-19T11:55:11.066Z</time></trkpt><trkpt lat="42.1988618" lon="11.8776383"><ele>156.0</ele><time>2026-04-19T11:55:12.049Z</time></trkpt><trkpt lat="42.1989798" lon="11.8774713"><ele>155.33333333333334</ele><time>2026-04-19T11:55:13.053Z</time></trkpt><trkpt lat="42.1990969" lon="11.8773049"><ele>154.66666666666669</ele><time>2026-04-19T11:55:14.06Z</time></trkpt><trkpt lat="42.1992171" lon="11.8771354"><ele>154.0</ele><time>2026-04-19T11:55:15.059Z</time></trkpt><trkpt lat="42.1993297" lon="11.8769733"><ele>154.0</ele><time>2026-04-19T11:55:16.047Z</time></trkpt><trkpt lat="42.1994418" lon="11.8768089"><ele>154.0</ele><time>2026-04-19T11:55:17.054Z</time></trkpt><trkpt lat="42.1995484" lon="11.8766478"><ele>154.0</ele><time>2026-04-19T11:55:18.052Z</time></trkpt><trkpt lat="42.1996572" lon="11.8764912"><ele>153.0</ele><time>2026-04-19T11:55:19.042Z</time></trkpt><trkpt lat="42.1997732" lon="11.8763397"><ele>152.0</ele><time>2026-04-19T11:55:20.057Z</time></trkpt><trkpt lat="42.1998819" lon="11.8761942"><ele>151.0</ele><time>2026-04-19T11:55:21.059Z</time></trkpt><trkpt lat="42.1999676" lon="11.8760432"><ele>152.6</ele><time>2026-04-19T11:55:22.05Z</time></trkpt><trkpt lat="42.2000479" lon="11.8759072"><ele>154.2</ele><time>2026-04-19T11:55:23.057Z</time></trkpt><trkpt lat="42.2000865" lon="11.8758115"><ele>155.8</ele><time>2026-04-19T11:55:24.047Z</time></trkpt><trkpt lat="42.2000919" lon="11.8756756"><ele>157.4</ele><time>2026-04-19T11:55:26.051Z</time></trkpt><trkpt lat="42.2000692" lon="11.8755606"><ele>159.0</ele><time>2026-04-19T11:55:28.052Z</time></trkpt><trkpt lat="42.2000275" lon="11.8753936"><ele>159.0</ele><time>2026-04-19T11:55:30.061Z</time></trkpt><trkpt lat="42.2000032" lon="11.875279"><ele>159.0</ele><time>2026-04-19T11:55:31.044Z</time></trkpt><trkpt lat="42.1999789" lon="11.8751482"><ele>159.0</ele><time>2026-04-19T11:55:32.062Z</time></trkpt><trkpt lat="42.1999546" lon="11.87501"><ele>159.0</ele><time>2026-04-19T11:55:33.05Z</time></trkpt><trkpt lat="42.1999332" lon="11.8748657"><ele>159.0</ele><time>2026-04-19T11:55:34.048Z</time></trkpt><trkpt lat="42.1999066" lon="11.8747215"><ele>159.25</ele><time>2026-04-19T11:55:35.057Z</time></trkpt><trkpt lat="42.1998752" lon="11.8745726"><ele>159.5</ele><time>2026-04-19T11:55:36.054Z</time></trkpt><trkpt lat="42.1998425" lon="11.8744195"><ele>159.75</ele><time>2026-04-19T11:55:37.048Z</time></trkpt><trkpt lat="42.1998082" lon="11.8742658"><ele>160.0</ele><time>2026-04-19T11:55:38.052Z</time></trkpt><trkpt lat="42.1997779" lon="11.8741188"><ele>160.4</ele><time>2026-04-19T11:55:39.056Z</time></trkpt><trkpt lat="42.1997477" lon="11.8739809"><ele>160.8</ele><time>2026-04-19T11:55:40.067Z</time></trkpt><trkpt lat="42.1997138" lon="11.8738417"><ele>161.2</ele><time>2026-04-19T11:55:41.045Z</time></trkpt><trkpt lat="42.1996848" lon="11.8737034"><ele>161.6</ele><time>2026-04-19T11:55:42.052Z</time></trkpt><trkpt lat="42.1996634" lon="11.8735735"><ele>162.0</ele><time>2026-04-19T11:55:43.054Z</time></trkpt><trkpt lat="42.1996664" lon="11.873431"><ele>162.0</ele><time>2026-04-19T11:55:44.054Z</time></trkpt><trkpt lat="42.1996775" lon="11.8732809"><ele>162.0</ele><time>2026-04-19T11:55:45.048Z</time></trkpt><trkpt lat="42.1996909" lon="11.873126"><ele>162.0</ele><time>2026-04-19T11:55:46.063Z</time></trkpt><trkpt lat="42.1997077" lon="11.8729719"><ele>162.0</ele><time>2026-04-19T11:55:47.068Z</time></trkpt><trkpt lat="42.1997337" lon="11.8728023"><ele>162.0</ele><time>2026-04-19T11:55:48.055Z</time></trkpt><trkpt lat="42.1997667" lon="11.8726243"><ele>162.0</ele><time>2026-04-19T11:55:49.058Z</time></trkpt><trkpt lat="42.1998045" lon="11.8724474"><ele>162.0</ele><time>2026-04-19T11:55:50.058Z</time></trkpt><trkpt lat="42.1998374" lon="11.8722794"><ele>162.0</ele><time>2026-04-19T11:55:51.052Z</time></trkpt><trkpt lat="42.1998552" lon="11.8721236"><ele>159.5</ele><time>2026-04-19T11:55:52.05Z</time></trkpt><trkpt lat="42.1998628" lon="11.8719676"><ele>157.0</ele><time>2026-04-19T11:55:53.058Z</time></trkpt><trkpt lat="42.1998495" lon="11.8718095"><ele>154.5</ele><time>2026-04-19T11:55:54.046Z</time></trkpt><trkpt lat="42.1998367" lon="11.8716525"><ele>152.0</ele><time>2026-04-19T11:55:55.052Z</time></trkpt><trkpt lat="42.1998027" lon="11.8714998"><ele>150.75</ele><time>2026-04-19T11:55:56.054Z</time></trkpt><trkpt lat="42.1997715" lon="11.8713527"><ele>149.5</ele><time>2026-04-19T11:55:57.054Z</time></trkpt><trkpt lat="42.1997772" lon="11.8711735"><ele>148.25</ele><time>2026-04-19T11:55:58.052Z</time></trkpt><trkpt lat="42.1997906" lon="11.8710104"><ele>147.0</ele><time>2026-04-19T11:55:59.055Z</time></trkpt><trkpt lat="42.1998191" lon="11.8708349"><ele>147.0</ele><time>2026-04-19T11:56:00.051Z</time></trkpt><trkpt lat="42.1998571" lon="11.8706585"><ele>147.0</ele><time>2026-04-19T11:56:01.045Z</time></trkpt><trkpt lat="42.1998921" lon="11.870491"><ele>147.0</ele><time>2026-04-19T11:56:02.058Z</time></trkpt><trkpt lat="42.1999425" lon="11.8703373"><ele>147.0</ele><time>2026-04-19T11:56:03.053Z</time></trkpt><trkpt lat="42.2000052" lon="11.8701867"><ele>145.0</ele><time>2026-04-19T11:56:04.059Z</time></trkpt><trkpt lat="42.2000834" lon="11.8700391"><ele>143.0</ele><time>2026-04-19T11:56:05.05Z</time></trkpt><trkpt lat="42.2001683" lon="11.8698925"><ele>141.0</ele><time>2026-04-19T11:56:06.054Z</time></trkpt><trkpt lat="42.2002546" lon="11.8697396"><ele>139.0</ele><time>2026-04-19T11:56:07.071Z</time></trkpt><trkpt lat="42.2003334" lon="11.8695744"><ele>139.0</ele><time>2026-04-19T11:56:08.052Z</time></trkpt><trkpt lat="42.2003992" lon="11.8694015"><ele>139.0</ele><time>2026-04-19T11:56:09.048Z</time></trkpt><trkpt lat="42.2004569" lon="11.869226"><ele>139.0</ele><time>2026-04-19T11:56:10.061Z</time></trkpt><trkpt lat="42.2005067" lon="11.8690428"><ele>139.0</ele><time>2026-04-19T11:56:11.06Z</time></trkpt><trkpt lat="42.2005467" lon="11.8688638"><ele>138.25</ele><time>2026-04-19T11:56:12.046Z</time></trkpt><trkpt lat="42.2005787" lon="11.8686878"><ele>137.5</ele><time>2026-04-19T11:56:13.058Z</time></trkpt><trkpt lat="42.200611" lon="11.8685147"><ele>136.75</ele><time>2026-04-19T11:56:14.061Z</time></trkpt><trkpt lat="42.200644" lon="11.8683569"><ele>136.0</ele><time>2026-04-19T11:56:15.047Z</time></trkpt><trkpt lat="42.2006785" lon="11.8682242"><ele>136.0</ele><time>2026-04-19T11:56:16.062Z</time></trkpt><trkpt lat="42.200715" lon="11.8681039"><ele>136.0</ele><time>2026-04-19T11:56:17.048Z</time></trkpt><trkpt lat="42.2007519" lon="11.8680131"><ele>136.0</ele><time>2026-04-19T11:56:18.051Z</time></trkpt><trkpt lat="42.2007778" lon="11.867902"><ele>136.0</ele><time>2026-04-19T11:56:20.064Z</time></trkpt><trkpt lat="42.2007329" lon="11.8678107"><ele>136.0</ele><time>2026-04-19T11:56:22.056Z</time></trkpt><trkpt lat="42.2006322" lon="11.8677728"><ele>136.0</ele><time>2026-04-19T11:56:24.047Z</time></trkpt><trkpt lat="42.2005324" lon="11.8678095"><ele>134.2</ele><time>2026-04-19T11:56:26.061Z</time></trkpt><trkpt lat="42.2004247" lon="11.8679163"><ele>132.39999999999998</ele><time>2026-04-19T11:56:28.059Z</time></trkpt><trkpt lat="42.2003634" lon="11.8679975"><ele>130.6</ele><time>2026-04-19T11:56:29.054Z</time></trkpt><trkpt lat="42.2002966" lon="11.8680954"><ele>128.79999999999998</ele><time>2026-04-19T11:56:30.055Z</time></trkpt><trkpt lat="42.2002153" lon="11.8682113"><ele>127.0</ele><time>2026-04-19T11:56:31.065Z</time></trkpt><trkpt lat="42.2001238" lon="11.8683364"><ele>128.25</ele><time>2026-04-19T11:56:32.056Z</time></trkpt><trkpt lat="42.2000292" lon="11.8684648"><ele>129.5</ele><time>2026-04-19T11:56:33.047Z</time></trkpt><trkpt lat="42.1999314" lon="11.868609"><ele>130.75</ele><time>2026-04-19T11:56:34.055Z</time></trkpt><trkpt lat="42.1998348" lon="11.8687664"><ele>132.0</ele><time>2026-04-19T11:56:35.053Z</time></trkpt><trkpt lat="42.1997404" lon="11.8689373"><ele>130.0</ele><time>2026-04-19T11:56:36.044Z</time></trkpt><trkpt lat="42.1996559" lon="11.8691169"><ele>128.0</ele><time>2026-04-19T11:56:37.046Z</time></trkpt><trkpt lat="42.1995825" lon="11.8693032"><ele>126.0</ele><time>2026-04-19T11:56:38.053Z</time></trkpt><trkpt lat="42.1995244" lon="11.8694784"><ele>126.0</ele><time>2026-04-19T11:56:39.054Z</time></trkpt><trkpt lat="42.1994775" lon="11.8696375"><ele>126.0</ele><time>2026-04-19T11:56:40.049Z</time></trkpt><trkpt lat="42.1994387" lon="11.8697875"><ele>126.0</ele><time>2026-04-19T11:56:41.048Z</time></trkpt><trkpt lat="42.1993989" lon="11.869926"><ele>126.0</ele><time>2026-04-19T11:56:42.06Z</time></trkpt><trkpt lat="42.1993553" lon="11.8700693"><ele>128.0</ele><time>2026-04-19T11:56:43.049Z</time></trkpt><trkpt lat="42.199298" lon="11.8702046"><ele>130.0</ele><time>2026-04-19T11:56:44.043Z</time></trkpt><trkpt lat="42.199242" lon="11.8703234"><ele>132.0</ele><time>2026-04-19T11:56:45.05Z</time></trkpt><trkpt lat="42.1991757" lon="11.8704201"><ele>134.0</ele><time>2026-04-19T11:56:46.05Z</time></trkpt><trkpt lat="42.1991037" lon="11.870515"><ele>136.0</ele><time>2026-04-19T11:56:47.043Z</time></trkpt><trkpt lat="42.1990324" lon="11.8705764"><ele>137.0</ele><time>2026-04-19T11:56:48.053Z</time></trkpt><trkpt lat="42.1989714" lon="11.8706077"><ele>138.0</ele><time>2026-04-19T11:56:49.06Z</time></trkpt><trkpt lat="42.1988723" lon="11.8706333"><ele>139.0</ele><time>2026-04-19T11:56:51.046Z</time></trkpt><trkpt lat="42.1987597" lon="11.8705555"><ele>140.0</ele><time>2026-04-19T11:56:53.043Z</time></trkpt><trkpt lat="42.1986867" lon="11.8704704"><ele>141.0</ele><time>2026-04-19T11:56:54.052Z</time></trkpt><trkpt lat="42.1986169" lon="11.8703616"><ele>141.0</ele><time>2026-04-19T11:56:55.046Z</time></trkpt><trkpt lat="42.1985675" lon="11.870253"><ele>141.0</ele><time>2026-04-19T11:56:56.044Z</time></trkpt><trkpt lat="42.1985" lon="11.8701428"><ele>141.0</ele><time>2026-04-19T11:56:57.053Z</time></trkpt><trkpt lat="42.1984272" lon="11.8700352"><ele>141.0</ele><time>2026-04-19T11:56:58.051Z</time></trkpt><trkpt lat="42.1983514" lon="11.8699246"><ele>141.0</ele><time>2026-04-19T11:56:59.045Z</time></trkpt><trkpt lat="42.1982842" lon="11.8698105"><ele>140.8</ele><time>2026-04-19T11:57:00.051Z</time></trkpt><trkpt lat="42.1982256" lon="11.8697029"><ele>140.6</ele><time>2026-04-19T11:57:01.051Z</time></trkpt><trkpt lat="42.1981923" lon="11.8695607"><ele>140.4</ele><time>2026-04-19T11:57:02.05Z</time></trkpt><trkpt lat="42.1981747" lon="11.8694205"><ele>140.2</ele><time>2026-04-19T11:57:03.053Z</time></trkpt><trkpt lat="42.1981688" lon="11.8692824"><ele>140.0</ele><time>2026-04-19T11:57:04.048Z</time></trkpt><trkpt lat="42.1981514" lon="11.8691331"><ele>140.0</ele><time>2026-04-19T11:57:05.049Z</time></trkpt><trkpt lat="42.1981289" lon="11.8689808"><ele>140.0</ele><time>2026-04-19T11:57:06.05Z</time></trkpt><trkpt lat="42.1980983" lon="11.8688387"><ele>140.0</ele><time>2026-04-19T11:57:07.067Z</time></trkpt><trkpt lat="42.1980622" lon="11.8686979"><ele>140.0</ele><time>2026-04-19T11:57:08.042Z</time></trkpt><trkpt lat="42.1979963" lon="11.8685569"><ele>137.5</ele><time>2026-04-19T11:57:09.055Z</time></trkpt><trkpt lat="42.1979259" lon="11.8684075"><ele>135.0</ele><time>2026-04-19T11:57:10.048Z</time></trkpt><trkpt lat="42.1978429" lon="11.8682564"><ele>132.5</ele><time>2026-04-19T11:57:11.047Z</time></trkpt><trkpt lat="42.1977458" lon="11.8680881"><ele>130.0</ele><time>2026-04-19T11:57:12.062Z</time></trkpt><trkpt lat="42.197662" lon="11.8679108"><ele>130.0</ele><time>2026-04-19T11:57:13.049Z</time></trkpt><trkpt lat="42.1975705" lon="11.8677264"><ele>130.0</ele><time>2026-04-19T11:57:14.059Z</time></trkpt><trkpt lat="42.1974726" lon="11.8675331"><ele>130.0</ele><time>2026-04-19T11:57:15.059Z</time></trkpt><trkpt lat="42.1973675" lon="11.867335"><ele>129.33333333333334</ele><time>2026-04-19T11:57:16.046Z</time></trkpt><trkpt lat="42.1972586" lon="11.8671323"><ele>128.66666666666666</ele><time>2026-04-19T11:57:17.053Z</time></trkpt><trkpt lat="42.1971484" lon="11.8669289"><ele>128.0</ele><time>2026-04-19T11:57:18.062Z</time></trkpt><trkpt lat="42.1970309" lon="11.8667315"><ele>128.0</ele><time>2026-04-19T11:57:19.043Z</time></trkpt><trkpt lat="42.1969213" lon="11.8665322"><ele>128.0</ele><time>2026-04-19T11:57:20.061Z</time></trkpt><trkpt lat="42.1968144" lon="11.8663397"><ele>128.0</ele><time>2026-04-19T11:57:21.057Z</time></trkpt><trkpt lat="42.1967101" lon="11.86615"><ele>128.0</ele><time>2026-04-19T11:57:22.044Z</time></trkpt><trkpt lat="42.1966071" lon="11.8659635"><ele>128.0</ele><time>2026-04-19T11:57:23.048Z</time></trkpt><trkpt lat="42.1965126" lon="11.8657778"><ele>128.0</ele><time>2026-04-19T11:57:24.051Z</time></trkpt><trkpt lat="42.1964181" lon="11.8655935"><ele>130.66666666666666</ele><time>2026-04-19T11:57:25.048Z</time></trkpt><trkpt lat="42.1963195" lon="11.8654072"><ele>133.33333333333334</ele><time>2026-04-19T11:57:26.052Z</time></trkpt><trkpt lat="42.196231" lon="11.8652322"><ele>136.0</ele><time>2026-04-19T11:57:27.052Z</time></trkpt><trkpt lat="42.1961423" lon="11.8650754"><ele>136.0</ele><time>2026-04-19T11:57:28.056Z</time></trkpt><trkpt lat="42.196052" lon="11.8649148"><ele>136.0</ele><time>2026-04-19T11:57:29.042Z</time></trkpt><trkpt lat="42.1959606" lon="11.8647454"><ele>136.0</ele><time>2026-04-19T11:57:30.051Z</time></trkpt><trkpt lat="42.1958655" lon="11.8645664"><ele>136.0</ele><time>2026-04-19T11:57:31.051Z</time></trkpt><trkpt lat="42.1957782" lon="11.8643901"><ele>136.0</ele><time>2026-04-19T11:57:32.049Z</time></trkpt><trkpt lat="42.1956865" lon="11.8642072"><ele>136.0</ele><time>2026-04-19T11:57:33.051Z</time></trkpt><trkpt lat="42.195586" lon="11.8640307"><ele>138.66666666666669</ele><time>2026-04-19T11:57:34.056Z</time></trkpt><trkpt lat="42.1954886" lon="11.8638517"><ele>141.33333333333334</ele><time>2026-04-19T11:57:35.048Z</time></trkpt><trkpt lat="42.1953919" lon="11.8636843"><ele>144.0</ele><time>2026-04-19T11:57:36.039Z</time></trkpt><trkpt lat="42.1952994" lon="11.8635034"><ele>142.66666666666666</ele><time>2026-04-19T11:57:37.054Z</time></trkpt><trkpt lat="42.1952029" lon="11.8633221"><ele>141.33333333333331</ele><time>2026-04-19T11:57:38.064Z</time></trkpt><trkpt lat="42.1951065" lon="11.8631474"><ele>140.0</ele><time>2026-04-19T11:57:39.05Z</time></trkpt><trkpt lat="42.1950099" lon="11.8629844"><ele>140.0</ele><time>2026-04-19T11:57:40.056Z</time></trkpt><trkpt lat="42.1949153" lon="11.862827"><ele>140.0</ele><time>2026-04-19T11:57:41.051Z</time></trkpt><trkpt lat="42.19481" lon="11.8626807"><ele>140.0</ele><time>2026-04-19T11:57:42.05Z</time></trkpt><trkpt lat="42.1947032" lon="11.8625411"><ele>140.25</ele><time>2026-04-19T11:57:43.054Z</time></trkpt><trkpt lat="42.1945807" lon="11.8624129"><ele>140.5</ele><time>2026-04-19T11:57:44.066Z</time></trkpt><trkpt lat="42.1944642" lon="11.8622934"><ele>140.75</ele><time>2026-04-19T11:57:45.041Z</time></trkpt><trkpt lat="42.1943564" lon="11.8621646"><ele>141.0</ele><time>2026-04-19T11:57:46.052Z</time></trkpt><trkpt lat="42.1942529" lon="11.8620271"><ele>141.0</ele><time>2026-04-19T11:57:47.053Z</time></trkpt><trkpt lat="42.1941559" lon="11.8618848"><ele>141.0</ele><time>2026-04-19T11:57:48.049Z</time></trkpt><trkpt lat="42.1940644" lon="11.8617527"><ele>141.0</ele><time>2026-04-19T11:57:49.054Z</time></trkpt><trkpt lat="42.1939911" lon="11.8615897"><ele>141.0</ele><time>2026-04-19T11:57:50.048Z</time></trkpt><trkpt lat="42.1939234" lon="11.8614363"><ele>141.33333333333334</ele><time>2026-04-19T11:57:51.045Z</time></trkpt><trkpt lat="42.1938658" lon="11.8613075"><ele>141.66666666666666</ele><time>2026-04-19T11:57:52.053Z</time></trkpt><trkpt lat="42.1938071" lon="11.8611913"><ele>142.0</ele><time>2026-04-19T11:57:53.059Z</time></trkpt><trkpt lat="42.1937538" lon="11.8611017"><ele>142.33333333333331</ele><time>2026-04-19T11:57:54.043Z</time></trkpt><trkpt lat="42.1937098" lon="11.8610339"><ele>142.66666666666666</ele><time>2026-04-19T11:57:55.058Z</time></trkpt><trkpt lat="42.1936538" lon="11.8609556"><ele>143.0</ele><time>2026-04-19T11:57:57.048Z</time></trkpt><trkpt lat="42.1936065" lon="11.8608391"><ele>143.0</ele><time>2026-04-19T11:59:31.068Z</time></trkpt><trkpt lat="42.1935709" lon="11.8607663"><ele>143.0</ele><time>2026-04-19T11:59:32.059Z</time></trkpt><trkpt lat="42.1935036" lon="11.8606218"><ele>143.0</ele><time>2026-04-19T11:59:34.052Z</time></trkpt><trkpt lat="42.1934583" lon="11.8605257"><ele>143.0</ele><time>2026-04-19T11:59:35.051Z</time></trkpt><trkpt lat="42.1934052" lon="11.8604177"><ele>143.0</ele><time>2026-04-19T11:59:36.047Z</time></trkpt><trkpt lat="42.1933445" lon="11.8603001"><ele>143.0</ele><time>2026-04-19T11:59:37.048Z</time></trkpt><trkpt lat="42.1932771" lon="11.8601696"><ele>143.0</ele><time>2026-04-19T11:59:38.05Z</time></trkpt><trkpt lat="42.1932106" lon="11.8600412"><ele>143.0</ele><time>2026-04-19T11:59:39.05Z</time></trkpt><trkpt lat="42.193145" lon="11.8599141"><ele>143.0</ele><time>2026-04-19T11:59:40.056Z</time></trkpt><trkpt lat="42.1930873" lon="11.859798"><ele>142.5</ele><time>2026-04-19T11:59:41.059Z</time></trkpt><trkpt lat="42.1930347" lon="11.8596983"><ele>142.0</ele><time>2026-04-19T11:59:42.045Z</time></trkpt><trkpt lat="42.1929811" lon="11.8596052"><ele>141.5</ele><time>2026-04-19T11:59:43.051Z</time></trkpt><trkpt lat="42.1929339" lon="11.8595217"><ele>141.0</ele><time>2026-04-19T11:59:44.045Z</time></trkpt><trkpt lat="42.1928793" lon="11.8594416"><ele>140.5</ele><time>2026-04-19T11:59:45.044Z</time></trkpt><trkpt lat="42.1928329" lon="11.8593588"><ele>140.0</ele><time>2026-04-19T11:59:46.043Z</time></trkpt><trkpt lat="42.1927831" lon="11.8592794"><ele>139.0</ele><time>2026-04-19T11:59:47.056Z</time></trkpt><trkpt lat="42.1927249" lon="11.8591988"><ele>138.0</ele><time>2026-04-19T11:59:48.048Z</time></trkpt><trkpt lat="42.1926647" lon="11.8591124"><ele>137.0</ele><time>2026-04-19T11:59:49.06Z</time></trkpt><trkpt lat="42.1925968" lon="11.8590216"><ele>136.0</ele><time>2026-04-19T11:59:50.044Z</time></trkpt><trkpt lat="42.1925236" lon="11.8589312"><ele>135.0</ele><time>2026-04-19T11:59:51.045Z</time></trkpt><trkpt lat="42.1924431" lon="11.8588356"><ele>135.0</ele><time>2026-04-19T11:59:52.05Z</time></trkpt><trkpt lat="42.1923623" lon="11.8587376"><ele>135.0</ele><time>2026-04-19T11:59:53.05Z</time></trkpt><trkpt lat="42.1922868" lon="11.8586178"><ele>135.0</ele><time>2026-04-19T11:59:54.046Z</time></trkpt><trkpt lat="42.1921964" lon="11.8585101"><ele>135.0</ele><time>2026-04-19T11:59:55.049Z</time></trkpt><trkpt lat="42.1920972" lon="11.858406"><ele>134.75</ele><time>2026-04-19T11:59:56.056Z</time></trkpt><trkpt lat="42.1919992" lon="11.8583016"><ele>134.5</ele><time>2026-04-19T11:59:57.044Z</time></trkpt><trkpt lat="42.1919011" lon="11.8581973"><ele>134.25</ele><time>2026-04-19T11:59:58.055Z</time></trkpt><trkpt lat="42.1918061" lon="11.8580935"><ele>134.0</ele><time>2026-04-19T11:59:59.062Z</time></trkpt><trkpt lat="42.1917139" lon="11.8580014"><ele>134.0</ele><time>2026-04-19T12:00:00.043Z</time></trkpt><trkpt lat="42.191607" lon="11.8579157"><ele>134.0</ele><time>2026-04-19T12:00:01.054Z</time></trkpt><trkpt lat="42.1915018" lon="11.8578355"><ele>134.0</ele><time>2026-04-19T12:00:02.055Z</time></trkpt><trkpt lat="42.1914104" lon="11.8577684"><ele>134.0</ele><time>2026-04-19T12:00:03.051Z</time></trkpt><trkpt lat="42.1913469" lon="11.8577223"><ele>134.0</ele><time>2026-04-19T12:00:04.057Z</time></trkpt><trkpt lat="42.1912408" lon="11.8577058"><ele>135.2</ele><time>2026-04-19T12:00:06.043Z</time></trkpt><trkpt lat="42.1911818" lon="11.8577398"><ele>136.4</ele><time>2026-04-19T12:00:07.052Z</time></trkpt><trkpt lat="42.1911101" lon="11.8577843"><ele>137.6</ele><time>2026-04-19T12:00:08.049Z</time></trkpt><trkpt lat="42.1910197" lon="11.8578256"><ele>138.8</ele><time>2026-04-19T12:00:09.045Z</time></trkpt><trkpt lat="42.1909117" lon="11.8578661"><ele>140.0</ele><time>2026-04-19T12:00:10.044Z</time></trkpt><trkpt lat="42.1907971" lon="11.857902"><ele>139.25</ele><time>2026-04-19T12:00:11.061Z</time></trkpt><trkpt lat="42.1906706" lon="11.8579364"><ele>138.5</ele><time>2026-04-19T12:00:12.044Z</time></trkpt><trkpt lat="42.1905383" lon="11.8579712"><ele>137.75</ele><time>2026-04-19T12:00:13.053Z</time></trkpt><trkpt lat="42.1903963" lon="11.8580135"><ele>137.0</ele><time>2026-04-19T12:00:14.055Z</time></trkpt><trkpt lat="42.1902532" lon="11.8580674"><ele>137.0</ele><time>2026-04-19T12:00:15.048Z</time></trkpt><trkpt lat="42.1901149" lon="11.8581281"><ele>137.0</ele><time>2026-04-19T12:00:16.056Z</time></trkpt><trkpt lat="42.1899814" lon="11.8581845"><ele>137.0</ele><time>2026-04-19T12:00:17.052Z</time></trkpt><trkpt lat="42.1898624" lon="11.8582334"><ele>137.0</ele><time>2026-04-19T12:00:18.051Z</time></trkpt><trkpt lat="42.1897578" lon="11.8582766"><ele>137.33333333333331</ele><time>2026-04-19T12:00:19.058Z</time></trkpt><trkpt lat="42.1896702" lon="11.8583141"><ele>137.66666666666666</ele><time>2026-04-19T12:00:20.05Z</time></trkpt><trkpt lat="42.1895962" lon="11.8583441"><ele>138.0</ele><time>2026-04-19T12:00:21.048Z</time></trkpt><trkpt lat="42.1895319" lon="11.8583549"><ele>138.33333333333334</ele><time>2026-04-19T12:00:22.064Z</time></trkpt><trkpt lat="42.1894678" lon="11.8583645"><ele>138.66666666666669</ele><time>2026-04-19T12:00:23.059Z</time></trkpt><trkpt lat="42.1894032" lon="11.8583071"><ele>139.0</ele><time>2026-04-19T12:00:24.045Z</time></trkpt><trkpt lat="42.1893228" lon="11.8582392"><ele>139.0</ele><time>2026-04-19T12:00:25.058Z</time></trkpt><trkpt lat="42.1892184" lon="11.85817"><ele>139.0</ele><time>2026-04-19T12:00:26.056Z</time></trkpt><trkpt lat="42.1891037" lon="11.8580984"><ele>139.0</ele><time>2026-04-19T12:00:27.047Z</time></trkpt><trkpt lat="42.1889906" lon="11.8580212"><ele>139.0</ele><time>2026-04-19T12:00:28.053Z</time></trkpt><trkpt lat="42.1888796" lon="11.8579322"><ele>139.25</ele><time>2026-04-19T12:00:29.053Z</time></trkpt><trkpt lat="42.188781" lon="11.8578247"><ele>139.5</ele><time>2026-04-19T12:00:30.045Z</time></trkpt><trkpt lat="42.1886962" lon="11.8576924"><ele>139.75</ele><time>2026-04-19T12:00:31.063Z</time></trkpt><trkpt lat="42.1886119" lon="11.8575567"><ele>140.0</ele><time>2026-04-19T12:00:32.054Z</time></trkpt><trkpt lat="42.188543" lon="11.8573994"><ele>140.0</ele><time>2026-04-19T12:00:33.05Z</time></trkpt><trkpt lat="42.1884781" lon="11.8572387"><ele>140.0</ele><time>2026-04-19T12:00:34.065Z</time></trkpt><trkpt lat="42.1884218" lon="11.8570749"><ele>140.0</ele><time>2026-04-19T12:00:35.059Z</time></trkpt><trkpt lat="42.1883824" lon="11.856907"><ele>140.0</ele><time>2026-04-19T12:00:36.05Z</time></trkpt><trkpt lat="42.1883448" lon="11.8567376"><ele>139.25</ele><time>2026-04-19T12:00:37.049Z</time></trkpt><trkpt lat="42.1883003" lon="11.8565645"><ele>138.5</ele><time>2026-04-19T12:00:38.062Z</time></trkpt><trkpt lat="42.1882442" lon="11.8563847"><ele>137.75</ele><time>2026-04-19T12:00:39.051Z</time></trkpt><trkpt lat="42.1881822" lon="11.8562035"><ele>137.0</ele><time>2026-04-19T12:00:40.047Z</time></trkpt><trkpt lat="42.1881091" lon="11.8560244"><ele>139.66666666666666</ele><time>2026-04-19T12:00:41.051Z</time></trkpt><trkpt lat="42.1880335" lon="11.8558425"><ele>142.33333333333334</ele><time>2026-04-19T12:00:42.052Z</time></trkpt><trkpt lat="42.1879492" lon="11.8556708"><ele>145.0</ele><time>2026-04-19T12:00:43.049Z</time></trkpt><trkpt lat="42.1878594" lon="11.8555002"><ele>145.0</ele><time>2026-04-19T12:00:44.047Z</time></trkpt><trkpt lat="42.1877712" lon="11.8553212"><ele>145.0</ele><time>2026-04-19T12:00:45.054Z</time></trkpt><trkpt lat="42.1877048" lon="11.8551775"><ele>145.0</ele><time>2026-04-19T12:00:46.05Z</time></trkpt><trkpt lat="42.1876218" lon="11.85504"><ele>145.0</ele><time>2026-04-19T12:00:47.056Z</time></trkpt><trkpt lat="42.1875194" lon="11.854909"><ele>145.5</ele><time>2026-04-19T12:00:48.052Z</time></trkpt><trkpt lat="42.1874116" lon="11.8547831"><ele>146.0</ele><time>2026-04-19T12:00:49.051Z</time></trkpt><trkpt lat="42.1873058" lon="11.8546505"><ele>146.5</ele><time>2026-04-19T12:00:50.062Z</time></trkpt><trkpt lat="42.1871937" lon="11.8545244"><ele>147.0</ele><time>2026-04-19T12:00:51.049Z</time></trkpt><trkpt lat="42.1870769" lon="11.8543984"><ele>144.75</ele><time>2026-04-19T12:00:52.055Z</time></trkpt><trkpt lat="42.186976" lon="11.8542655"><ele>142.5</ele><time>2026-04-19T12:00:53.057Z</time></trkpt><trkpt lat="42.1868895" lon="11.8541096"><ele>140.25</ele><time>2026-04-19T12:00:54.05Z</time></trkpt><trkpt lat="42.1868098" lon="11.8539534"><ele>138.0</ele><time>2026-04-19T12:00:55.049Z</time></trkpt><trkpt lat="42.1867398" lon="11.8537918"><ele>138.0</ele><time>2026-04-19T12:00:56.059Z</time></trkpt><trkpt lat="42.186667" lon="11.8536531"><ele>138.0</ele><time>2026-04-19T12:00:57.055Z</time></trkpt><trkpt lat="42.1865784" lon="11.8535357"><ele>138.0</ele><time>2026-04-19T12:00:58.051Z</time></trkpt><trkpt lat="42.1864671" lon="11.8534339"><ele>138.0</ele><time>2026-04-19T12:00:59.057Z</time></trkpt><trkpt lat="42.186337" lon="11.8533613"><ele>137.75</ele><time>2026-04-19T12:01:00.055Z</time></trkpt><trkpt lat="42.1862052" lon="11.8533118"><ele>137.5</ele><time>2026-04-19T12:01:01.049Z</time></trkpt><trkpt lat="42.1860692" lon="11.8532869"><ele>137.25</ele><time>2026-04-19T12:01:02.063Z</time></trkpt><trkpt lat="42.1859302" lon="11.8532817"><ele>137.0</ele><time>2026-04-19T12:01:03.056Z</time></trkpt><trkpt lat="42.1857865" lon="11.8532951"><ele>137.5</ele><time>2026-04-19T12:01:04.05Z</time></trkpt><trkpt lat="42.1856517" lon="11.853317"><ele>138.0</ele><time>2026-04-19T12:01:05.059Z</time></trkpt><trkpt lat="42.1855377" lon="11.8533441"><ele>138.5</ele><time>2026-04-19T12:01:06.057Z</time></trkpt><trkpt lat="42.1854388" lon="11.8533461"><ele>139.0</ele><time>2026-04-19T12:01:07.056Z</time></trkpt><trkpt lat="42.1853246" lon="11.853317"><ele>139.0</ele><time>2026-04-19T12:01:08.052Z</time></trkpt><trkpt lat="42.185207" lon="11.8532562"><ele>139.0</ele><time>2026-04-19T12:01:09.058Z</time></trkpt><trkpt lat="42.1850923" lon="11.8531631"><ele>139.0</ele><time>2026-04-19T12:01:10.063Z</time></trkpt><trkpt lat="42.1849755" lon="11.8530745"><ele>139.0</ele><time>2026-04-19T12:01:11.056Z</time></trkpt><trkpt lat="42.1848754" lon="11.8529692"><ele>139.75</ele><time>2026-04-19T12:01:12.05Z</time></trkpt><trkpt lat="42.1847722" lon="11.8528723"><ele>140.5</ele><time>2026-04-19T12:01:13.051Z</time></trkpt><trkpt lat="42.184667" lon="11.8527795"><ele>141.25</ele><time>2026-04-19T12:01:14.06Z</time></trkpt><trkpt lat="42.1845558" lon="11.8526975"><ele>142.0</ele><time>2026-04-19T12:01:15.055Z</time></trkpt><trkpt lat="42.1844355" lon="11.8526187"><ele>141.5</ele><time>2026-04-19T12:01:16.06Z</time></trkpt><trkpt lat="42.1843086" lon="11.8525336"><ele>141.0</ele><time>2026-04-19T12:01:17.059Z</time></trkpt><trkpt lat="42.1841937" lon="11.8524418"><ele>140.5</ele><time>2026-04-19T12:01:18.052Z</time></trkpt><trkpt lat="42.1840705" lon="11.8523618"><ele>140.0</ele><time>2026-04-19T12:01:19.048Z</time></trkpt><trkpt lat="42.1839521" lon="11.8523023"><ele>140.0</ele><time>2026-04-19T12:01:20.057Z</time></trkpt><trkpt lat="42.1838377" lon="11.8522155"><ele>140.0</ele><time>2026-04-19T12:01:21.073Z</time></trkpt><trkpt lat="42.1837246" lon="11.8521189"><ele>140.0</ele><time>2026-04-19T12:01:22.052Z</time></trkpt><trkpt lat="42.1835974" lon="11.8520311"><ele>140.0</ele><time>2026-04-19T12:01:23.055Z</time></trkpt><trkpt lat="42.1834639" lon="11.851946"><ele>140.0</ele><time>2026-04-19T12:01:24.052Z</time></trkpt><trkpt lat="42.1833308" lon="11.8518645"><ele>140.0</ele><time>2026-04-19T12:01:25.066Z</time></trkpt><trkpt lat="42.1832055" lon="11.8517741"><ele>140.0</ele><time>2026-04-19T12:01:26.052Z</time></trkpt><trkpt lat="42.1830684" lon="11.8516898"><ele>140.0</ele><time>2026-04-19T12:01:27.053Z</time></trkpt><trkpt lat="42.1829367" lon="11.8515957"><ele>138.75</ele><time>2026-04-19T12:01:28.054Z</time></trkpt><trkpt lat="42.1828158" lon="11.8515091"><ele>137.5</ele><time>2026-04-19T12:01:29.059Z</time></trkpt><trkpt lat="42.1826978" lon="11.8514264"><ele>136.25</ele><time>2026-04-19T12:01:30.071Z</time></trkpt><trkpt lat="42.1825768" lon="11.8513457"><ele>135.0</ele><time>2026-04-19T12:01:31.046Z</time></trkpt><trkpt lat="42.1824545" lon="11.851262"><ele>136.0</ele><time>2026-04-19T12:01:32.055Z</time></trkpt><trkpt lat="42.182334" lon="11.8511785"><ele>137.0</ele><time>2026-04-19T12:01:33.057Z</time></trkpt><trkpt lat="42.1822187" lon="11.8510947"><ele>138.0</ele><time>2026-04-19T12:01:34.057Z</time></trkpt><trkpt lat="42.1820982" lon="11.8510166"><ele>139.0</ele><time>2026-04-19T12:01:35.054Z</time></trkpt><trkpt lat="42.1819691" lon="11.8509431"><ele>136.25</ele><time>2026-04-19T12:01:36.056Z</time></trkpt><trkpt lat="42.181849" lon="11.8508782"><ele>133.5</ele><time>2026-04-19T12:01:37.064Z</time></trkpt><trkpt lat="42.1817404" lon="11.8508416"><ele>130.75</ele><time>2026-04-19T12:01:38.05Z</time></trkpt><trkpt lat="42.1816275" lon="11.8508265"><ele>128.0</ele><time>2026-04-19T12:01:39.053Z</time></trkpt><trkpt lat="42.1815242" lon="11.8508175"><ele>128.4</ele><time>2026-04-19T12:01:40.058Z</time></trkpt><trkpt lat="42.181431" lon="11.8508188"><ele>128.8</ele><time>2026-04-19T12:01:41.068Z</time></trkpt><trkpt lat="42.1813341" lon="11.8508117"><ele>129.2</ele><time>2026-04-19T12:01:42.066Z</time></trkpt><trkpt lat="42.1812376" lon="11.8508059"><ele>129.6</ele><time>2026-04-19T12:01:43.051Z</time></trkpt><trkpt lat="42.1811452" lon="11.8507734"><ele>130.0</ele><time>2026-04-19T12:01:44.051Z</time></trkpt><trkpt lat="42.1810535" lon="11.8507273"><ele>130.0</ele><time>2026-04-19T12:01:45.073Z</time></trkpt><trkpt lat="42.1809711" lon="11.8506701"><ele>130.0</ele><time>2026-04-19T12:01:46.054Z</time></trkpt><trkpt lat="42.1808969" lon="11.8506119"><ele>130.0</ele><time>2026-04-19T12:01:47.056Z</time></trkpt><trkpt lat="42.1808425" lon="11.8505391"><ele>130.0</ele><time>2026-04-19T12:01:48.058Z</time></trkpt><trkpt lat="42.1807986" lon="11.8504569"><ele>130.0</ele><time>2026-04-19T12:01:49.066Z</time></trkpt><trkpt lat="42.1807445" lon="11.8503828"><ele>130.0</ele><time>2026-04-19T12:01:50.046Z</time></trkpt><trkpt lat="42.1806939" lon="11.8503206"><ele>130.16666666666669</ele><time>2026-04-19T12:01:51.052Z</time></trkpt><trkpt lat="42.1806343" lon="11.8502773"><ele>130.33333333333334</ele><time>2026-04-19T12:01:52.055Z</time></trkpt><trkpt lat="42.1805408" lon="11.8502055"><ele>130.5</ele><time>2026-04-19T12:01:54.059Z</time></trkpt><trkpt lat="42.1804855" lon="11.8501594"><ele>130.66666666666666</ele><time>2026-04-19T12:01:55.069Z</time></trkpt><trkpt lat="42.1804303" lon="11.850087"><ele>130.83333333333331</ele><time>2026-04-19T12:01:56.053Z</time></trkpt><trkpt lat="42.1803656" lon="11.8499966"><ele>131.0</ele><time>2026-04-19T12:01:57.055Z</time></trkpt><trkpt lat="42.1802835" lon="11.8499012"><ele>131.0</ele><time>2026-04-19T12:01:58.057Z</time></trkpt><trkpt lat="42.1802024" lon="11.8498087"><ele>131.0</ele><time>2026-04-19T12:01:59.054Z</time></trkpt><trkpt lat="42.1801257" lon="11.8497185"><ele>131.0</ele><time>2026-04-19T12:02:00.064Z</time></trkpt><trkpt lat="42.180061" lon="11.8496396"><ele>131.0</ele><time>2026-04-19T12:02:01.061Z</time></trkpt><trkpt lat="42.1800106" lon="11.8495517"><ele>131.0</ele><time>2026-04-19T12:02:02.052Z</time></trkpt><trkpt lat="42.1799679" lon="11.8494662"><ele>131.0</ele><time>2026-04-19T12:02:03.061Z</time></trkpt><trkpt lat="42.1799246" lon="11.8493872"><ele>131.0</ele><time>2026-04-19T12:02:04.065Z</time></trkpt><trkpt lat="42.1798921" lon="11.8492871"><ele>131.0</ele><time>2026-04-19T12:02:05.072Z</time></trkpt><trkpt lat="42.1798679" lon="11.8491872"><ele>131.0</ele><time>2026-04-19T12:02:06.05Z</time></trkpt><trkpt lat="42.1798418" lon="11.8490912"><ele>131.0</ele><time>2026-04-19T12:02:07.06Z</time></trkpt><trkpt lat="42.1798275" lon="11.8489913"><ele>131.0</ele><time>2026-04-19T12:02:08.065Z</time></trkpt><trkpt lat="42.1798244" lon="11.8488892"><ele>130.8</ele><time>2026-04-19T12:02:09.053Z</time></trkpt><trkpt lat="42.1798196" lon="11.8487635"><ele>130.6</ele><time>2026-04-19T12:02:10.046Z</time></trkpt><trkpt lat="42.1798131" lon="11.8486282"><ele>130.4</ele><time>2026-04-19T12:02:11.053Z</time></trkpt><trkpt lat="42.17981" lon="11.8484872"><ele>130.2</ele><time>2026-04-19T12:02:12.059Z</time></trkpt><trkpt lat="42.1798065" lon="11.8483399"><ele>130.0</ele><time>2026-04-19T12:02:13.056Z</time></trkpt><trkpt lat="42.1798079" lon="11.8481962"><ele>130.0</ele><time>2026-04-19T12:02:14.043Z</time></trkpt><trkpt lat="42.1798053" lon="11.8480547"><ele>130.0</ele><time>2026-04-19T12:02:15.059Z</time></trkpt><trkpt lat="42.1797991" lon="11.847913"><ele>130.0</ele><time>2026-04-19T12:02:16.055Z</time></trkpt><trkpt lat="42.1797882" lon="11.8477837"><ele>130.0</ele><time>2026-04-19T12:02:17.044Z</time></trkpt><trkpt lat="42.1797765" lon="11.8476503"><ele>130.0</ele><time>2026-04-19T12:02:18.057Z</time></trkpt><trkpt lat="42.1797486" lon="11.8475184"><ele>128.6</ele><time>2026-04-19T12:02:19.053Z</time></trkpt><trkpt lat="42.1797195" lon="11.8473896"><ele>127.2</ele><time>2026-04-19T12:02:20.048Z</time></trkpt><trkpt lat="42.1796747" lon="11.8472809"><ele>125.80000000000001</ele><time>2026-04-19T12:02:21.058Z</time></trkpt><trkpt lat="42.1796451" lon="11.8471672"><ele>124.4</ele><time>2026-04-19T12:02:22.056Z</time></trkpt><trkpt lat="42.1796164" lon="11.8470498"><ele>123.0</ele><time>2026-04-19T12:02:23.047Z</time></trkpt><trkpt lat="42.1795759" lon="11.8469424"><ele>123.0</ele><time>2026-04-19T12:02:24.058Z</time></trkpt><trkpt lat="42.1795462" lon="11.8468323"><ele>123.00000000000001</ele><time>2026-04-19T12:02:25.06Z</time></trkpt><trkpt lat="42.1795173" lon="11.8467132"><ele>123.00000000000001</ele><time>2026-04-19T12:02:26.054Z</time></trkpt><trkpt lat="42.1794816" lon="11.8465817"><ele>123.0</ele><time>2026-04-19T12:02:27.061Z</time></trkpt><trkpt lat="42.1794503" lon="11.8464367"><ele>123.0</ele><time>2026-04-19T12:02:28.058Z</time></trkpt><trkpt lat="42.1794374" lon="11.8462961"><ele>121.4</ele><time>2026-04-19T12:02:29.064Z</time></trkpt><trkpt lat="42.1794046" lon="11.8461544"><ele>119.80000000000001</ele><time>2026-04-19T12:02:30.071Z</time></trkpt><trkpt lat="42.1793807" lon="11.8460175"><ele>118.2</ele><time>2026-04-19T12:02:31.067Z</time></trkpt><trkpt lat="42.1793537" lon="11.8458976"><ele>116.6</ele><time>2026-04-19T12:02:32.058Z</time></trkpt><trkpt lat="42.1793256" lon="11.8458009"><ele>115.0</ele><time>2026-04-19T12:02:33.055Z</time></trkpt><trkpt lat="42.1792921" lon="11.8457088"><ele>114.2</ele><time>2026-04-19T12:02:34.065Z</time></trkpt><trkpt lat="42.1792507" lon="11.8456147"><ele>113.4</ele><time>2026-04-19T12:02:35.059Z</time></trkpt><trkpt lat="42.1792007" lon="11.8454842"><ele>112.6</ele><time>2026-04-19T12:02:36.055Z</time></trkpt><trkpt lat="42.1791475" lon="11.8453298"><ele>111.8</ele><time>2026-04-19T12:02:37.074Z</time></trkpt><trkpt lat="42.1790941" lon="11.8451786"><ele>111.0</ele><time>2026-04-19T12:02:38.053Z</time></trkpt><trkpt lat="42.1790358" lon="11.8450042"><ele>109.33333333333334</ele><time>2026-04-19T12:02:39.053Z</time></trkpt><trkpt lat="42.1789712" lon="11.8448156"><ele>107.66666666666667</ele><time>2026-04-19T12:02:40.065Z</time></trkpt><trkpt lat="42.1788979" lon="11.8446089"><ele>106.0</ele><time>2026-04-19T12:02:41.053Z</time></trkpt><trkpt lat="42.1788282" lon="11.8444099"><ele>105.66666666666667</ele><time>2026-04-19T12:02:42.057Z</time></trkpt><trkpt lat="42.1787494" lon="11.8442097"><ele>105.33333333333334</ele><time>2026-04-19T12:02:43.054Z</time></trkpt><trkpt lat="42.1786647" lon="11.8439899"><ele>105.0</ele><time>2026-04-19T12:02:44.065Z</time></trkpt><trkpt lat="42.1785903" lon="11.8437847"><ele>105.0</ele><time>2026-04-19T12:02:45.075Z</time></trkpt><trkpt lat="42.178517" lon="11.8435961"><ele>105.0</ele><time>2026-04-19T12:02:46.061Z</time></trkpt><trkpt lat="42.1784451" lon="11.8434135"><ele>105.0</ele><time>2026-04-19T12:02:47.057Z</time></trkpt><trkpt lat="42.1783452" lon="11.8432601"><ele>104.75</ele><time>2026-04-19T12:02:48.074Z</time></trkpt><trkpt lat="42.178242" lon="11.8431332"><ele>104.5</ele><time>2026-04-19T12:02:49.055Z</time></trkpt><trkpt lat="42.1781525" lon="11.8430255"><ele>104.25</ele><time>2026-04-19T12:02:50.061Z</time></trkpt><trkpt lat="42.1780669" lon="11.8429268"><ele>104.0</ele><time>2026-04-19T12:02:51.071Z</time></trkpt><trkpt lat="42.1779858" lon="11.8428409"><ele>103.99999999999999</ele><time>2026-04-19T12:02:52.066Z</time></trkpt><trkpt lat="42.1779247" lon="11.8427538"><ele>104.0</ele><time>2026-04-19T12:02:53.047Z</time></trkpt><trkpt lat="42.1778642" lon="11.8426617"><ele>104.0</ele><time>2026-04-19T12:02:54.055Z</time></trkpt><trkpt lat="42.1778069" lon="11.8425796"><ele>104.0</ele><time>2026-04-19T12:02:55.062Z</time></trkpt><trkpt lat="42.1777543" lon="11.8425192"><ele>103.99999999999999</ele><time>2026-04-19T12:02:56.063Z</time></trkpt><trkpt lat="42.1777079" lon="11.8424612"><ele>104.0</ele><time>2026-04-19T12:02:57.058Z</time></trkpt><trkpt lat="42.1776153" lon="11.842356"><ele>103.83333333333333</ele><time>2026-04-19T12:02:59.051Z</time></trkpt><trkpt lat="42.1775191" lon="11.8422382"><ele>103.66666666666666</ele><time>2026-04-19T12:03:01.052Z</time></trkpt><trkpt lat="42.1774643" lon="11.8421556"><ele>103.5</ele><time>2026-04-19T12:03:02.061Z</time></trkpt><trkpt lat="42.1774096" lon="11.8420817"><ele>103.33333333333334</ele><time>2026-04-19T12:03:03.061Z</time></trkpt><trkpt lat="42.1773513" lon="11.8420144"><ele>103.16666666666667</ele><time>2026-04-19T12:03:04.058Z</time></trkpt><trkpt lat="42.1772968" lon="11.8419502"><ele>103.0</ele><time>2026-04-19T12:03:05.072Z</time></trkpt><trkpt lat="42.1772419" lon="11.8419003"><ele>102.50000000000001</ele><time>2026-04-19T12:03:06.064Z</time></trkpt><trkpt lat="42.1771859" lon="11.8418445"><ele>102.0</ele><time>2026-04-19T12:03:07.06Z</time></trkpt><trkpt lat="42.1771351" lon="11.841778"><ele>101.5</ele><time>2026-04-19T12:03:08.057Z</time></trkpt><trkpt lat="42.1770925" lon="11.8416961"><ele>101.0</ele><time>2026-04-19T12:03:09.065Z</time></trkpt><trkpt lat="42.1770266" lon="11.841611"><ele>100.50000000000001</ele><time>2026-04-19T12:03:10.068Z</time></trkpt><trkpt lat="42.1769626" lon="11.8415451"><ele>100.0</ele><time>2026-04-19T12:03:11.051Z</time></trkpt><trkpt lat="42.176899" lon="11.841467"><ele>99.66666666666667</ele><time>2026-04-19T12:03:12.064Z</time></trkpt><trkpt lat="42.1768352" lon="11.8413858"><ele>99.33333333333334</ele><time>2026-04-19T12:03:13.056Z</time></trkpt><trkpt lat="42.1767875" lon="11.8413107"><ele>99.0</ele><time>2026-04-19T12:03:14.05Z</time></trkpt><trkpt lat="42.1767274" lon="11.8412383"><ele>98.66666666666666</ele><time>2026-04-19T12:03:15.059Z</time></trkpt><trkpt lat="42.1766757" lon="11.8411657"><ele>98.33333333333333</ele><time>2026-04-19T12:03:16.061Z</time></trkpt><trkpt lat="42.1766248" lon="11.8410962"><ele>98.0</ele><time>2026-04-19T12:03:17.05Z</time></trkpt><trkpt lat="42.1765735" lon="11.8410258"><ele>98.0</ele><time>2026-04-19T12:03:18.048Z</time></trkpt><trkpt lat="42.1765223" lon="11.8409691"><ele>98.0</ele><time>2026-04-19T12:03:19.055Z</time></trkpt><trkpt lat="42.1764743" lon="11.8409021"><ele>98.0</ele><time>2026-04-19T12:03:20.047Z</time></trkpt><trkpt lat="42.1764215" lon="11.8408304"><ele>98.0</ele><time>2026-04-19T12:03:21.08Z</time></trkpt><trkpt lat="42.1763623" lon="11.8407705"><ele>98.0</ele><time>2026-04-19T12:03:22.076Z</time></trkpt><trkpt lat="42.1763117" lon="11.8407152"><ele>98.0</ele><time>2026-04-19T12:03:23.05Z</time></trkpt><trkpt lat="42.176255" lon="11.8406585"><ele>98.0</ele><time>2026-04-19T12:03:24.063Z</time></trkpt><trkpt lat="42.1762056" lon="11.8406025"><ele>96.2</ele><time>2026-04-19T12:03:25.06Z</time></trkpt><trkpt lat="42.1761568" lon="11.8405388"><ele>94.4</ele><time>2026-04-19T12:03:26.06Z</time></trkpt><trkpt lat="42.1760772" lon="11.8404255"><ele>92.60000000000001</ele><time>2026-04-19T12:03:28.053Z</time></trkpt><trkpt lat="42.1759814" lon="11.840311"><ele>90.80000000000001</ele><time>2026-04-19T12:03:30.053Z</time></trkpt><trkpt lat="42.1759232" lon="11.8402685"><ele>89.0</ele><time>2026-04-19T12:03:31.062Z</time></trkpt><trkpt lat="42.1758566" lon="11.8401906"><ele>87.80000000000001</ele><time>2026-04-19T12:03:32.062Z</time></trkpt><trkpt lat="42.1758118" lon="11.8401232"><ele>86.60000000000001</ele><time>2026-04-19T12:03:33.062Z</time></trkpt><trkpt lat="42.1757239" lon="11.8400032"><ele>85.4</ele><time>2026-04-19T12:03:35.048Z</time></trkpt><trkpt lat="42.1756317" lon="11.8398826"><ele>84.2</ele><time>2026-04-19T12:03:37.061Z</time></trkpt><trkpt lat="42.1755742" lon="11.8398096"><ele>83.0</ele><time>2026-04-19T12:03:38.052Z</time></trkpt><trkpt lat="42.1755169" lon="11.8397365"><ele>82.2</ele><time>2026-04-19T12:03:39.052Z</time></trkpt><trkpt lat="42.1754594" lon="11.8396644"><ele>81.4</ele><time>2026-04-19T12:03:40.055Z</time></trkpt><trkpt lat="42.1754092" lon="11.8396082"><ele>80.60000000000001</ele><time>2026-04-19T12:03:41.053Z</time></trkpt><trkpt lat="42.1753201" lon="11.8395043"><ele>79.80000000000001</ele><time>2026-04-19T12:03:43.064Z</time></trkpt><trkpt lat="42.175229" lon="11.8394113"><ele>79.0</ele><time>2026-04-19T12:03:45.054Z</time></trkpt><trkpt lat="42.175116" lon="11.8394052"><ele>79.0</ele><time>2026-04-19T12:03:47.051Z</time></trkpt><trkpt lat="42.1750225" lon="11.8394847"><ele>79.0</ele><time>2026-04-19T12:03:49.072Z</time></trkpt><trkpt lat="42.174995" lon="11.8396437"><ele>79.0</ele><time>2026-04-19T12:03:51.059Z</time></trkpt><trkpt lat="42.1749867" lon="11.839801"><ele>79.0</ele><time>2026-04-19T12:03:53.067Z</time></trkpt><trkpt lat="42.1749663" lon="11.8399591"><ele>79.0</ele><time>2026-04-19T12:03:55.061Z</time></trkpt><trkpt lat="42.1749459" lon="11.8401184"><ele>79.0</ele><time>2026-04-19T12:03:57.048Z</time></trkpt><trkpt lat="42.1749399" lon="11.8402817"><ele>79.0</ele><time>2026-04-19T12:03:59.064Z</time></trkpt><trkpt lat="42.1749602" lon="11.8404426"><ele>79.0</ele><time>2026-04-19T12:04:01.051Z</time></trkpt><trkpt lat="42.174997" lon="11.840585"><ele>78.16666666666666</ele><time>2026-04-19T12:04:03.062Z</time></trkpt><trkpt lat="42.1750404" lon="11.8407208"><ele>77.33333333333333</ele><time>2026-04-19T12:04:05.06Z</time></trkpt><trkpt lat="42.1750519" lon="11.8408151"><ele>76.5</ele><time>2026-04-19T12:04:07.071Z</time></trkpt><trkpt lat="42.1749749" lon="11.8408426"><ele>75.66666666666667</ele><time>2026-04-19T12:04:09.052Z</time></trkpt><trkpt lat="42.174907" lon="11.8407818"><ele>74.83333333333334</ele><time>2026-04-19T12:04:12.049Z</time></trkpt><trkpt lat="42.1748522" lon="11.840712"><ele>74.0</ele><time>2026-04-19T12:04:14.059Z</time></trkpt><trkpt lat="42.1747817" lon="11.8406283"><ele>70.8</ele><time>2026-04-19T12:04:16.059Z</time></trkpt><trkpt lat="42.174707" lon="11.8405447"><ele>67.60000000000001</ele><time>2026-04-19T12:04:18.059Z</time></trkpt><trkpt lat="42.1746308" lon="11.8404449"><ele>64.4</ele><time>2026-04-19T12:04:20.054Z</time></trkpt><trkpt lat="42.1745439" lon="11.8403355"><ele>61.2</ele><time>2026-04-19T12:04:22.057Z</time></trkpt><trkpt lat="42.1744957" lon="11.8402806"><ele>58.0</ele><time>2026-04-19T12:04:23.053Z</time></trkpt><trkpt lat="42.1743979" lon="11.840169"><ele>57.99999999999999</ele><time>2026-04-19T12:04:25.05Z</time></trkpt><trkpt lat="42.174339" lon="11.8400605"><ele>58.0</ele><time>2026-04-19T12:04:27.055Z</time></trkpt><trkpt lat="42.1742911" lon="11.8399901"><ele>58.0</ele><time>2026-04-19T12:04:29.064Z</time></trkpt><trkpt lat="42.1742862" lon="11.8398742"><ele>58.0</ele><time>2026-04-19T12:04:31.072Z</time></trkpt><trkpt lat="42.174324" lon="11.8397839"><ele>57.99999999999999</ele><time>2026-04-19T12:04:33.057Z</time></trkpt><trkpt lat="42.1742991" lon="11.8398631"><ele>58.0</ele><time>2026-04-19T12:04:56.055Z</time></trkpt><trkpt lat="42.1742861" lon="11.8399601"><ele>58.00000000000001</ele><time>2026-04-19T12:04:58.057Z</time></trkpt><trkpt lat="42.1742933" lon="11.8400545"><ele>58.0</ele><time>2026-04-19T12:05:01.062Z</time></trkpt><trkpt lat="42.1742509" lon="11.840125"><ele>58.00000000000001</ele><time>2026-04-19T12:05:16.053Z</time></trkpt><trkpt lat="42.1742126" lon="11.8402108"><ele>58.00000000000001</ele><time>2026-04-19T12:05:19.072Z</time></trkpt><trkpt lat="42.1741626" lon="11.8402819"><ele>58.0</ele><time>2026-04-19T12:05:26.047Z</time></trkpt><trkpt lat="42.1740984" lon="11.8402296"><ele>58.00000000000001</ele><time>2026-04-19T12:05:30.056Z</time></trkpt><trkpt lat="42.1740394" lon="11.8401499"><ele>58.00000000000001</ele><time>2026-04-19T12:05:33.046Z</time></trkpt><trkpt lat="42.1739719" lon="11.8400632"><ele>56.2</ele><time>2026-04-19T12:05:35.064Z</time></trkpt><trkpt lat="42.1738714" lon="11.8399409"><ele>54.4</ele><time>2026-04-19T12:05:37.052Z</time></trkpt><trkpt lat="42.1738075" lon="11.8398667"><ele>52.6</ele><time>2026-04-19T12:05:38.049Z</time></trkpt><trkpt lat="42.1737378" lon="11.8397834"><ele>50.800000000000004</ele><time>2026-04-19T12:05:39.061Z</time></trkpt><trkpt lat="42.1736625" lon="11.8396902"><ele>49.0</ele><time>2026-04-19T12:05:40.06Z</time></trkpt><trkpt lat="42.1735817" lon="11.8395875"><ele>49.0</ele><time>2026-04-19T12:05:41.066Z</time></trkpt><trkpt lat="42.1734966" lon="11.8394774"><ele>49.0</ele><time>2026-04-19T12:05:42.064Z</time></trkpt><trkpt lat="42.173406" lon="11.8393622"><ele>49.0</ele><time>2026-04-19T12:05:43.061Z</time></trkpt><trkpt lat="42.1733091" lon="11.8392431"><ele>49.0</ele><time>2026-04-19T12:05:44.058Z</time></trkpt><trkpt lat="42.1732204" lon="11.8391198"><ele>49.5</ele><time>2026-04-19T12:05:45.068Z</time></trkpt><trkpt lat="42.1731323" lon="11.8389945"><ele>50.0</ele><time>2026-04-19T12:05:46.062Z</time></trkpt><trkpt lat="42.1730464" lon="11.8388685"><ele>50.5</ele><time>2026-04-19T12:05:47.049Z</time></trkpt><trkpt lat="42.172967" lon="11.8387396"><ele>51.0</ele><time>2026-04-19T12:05:48.061Z</time></trkpt><trkpt lat="42.172889" lon="11.8386098"><ele>51.5</ele><time>2026-04-19T12:05:49.065Z</time></trkpt><trkpt lat="42.1728189" lon="11.8384668"><ele>52.0</ele><time>2026-04-19T12:05:50.052Z</time></trkpt><trkpt lat="42.1727502" lon="11.8383258"><ele>52.5</ele><time>2026-04-19T12:05:51.053Z</time></trkpt><trkpt lat="42.1726957" lon="11.8381975"><ele>53.0</ele><time>2026-04-19T12:05:52.065Z</time></trkpt><trkpt lat="42.1726419" lon="11.8380699"><ele>53.0</ele><time>2026-04-19T12:05:53.054Z</time></trkpt><trkpt lat="42.172602" lon="11.8379316"><ele>53.0</ele><time>2026-04-19T12:05:54.046Z</time></trkpt><trkpt lat="42.1725662" lon="11.8377857"><ele>53.0</ele><time>2026-04-19T12:05:55.063Z</time></trkpt><trkpt lat="42.1725309" lon="11.8376488"><ele>53.0</ele><time>2026-04-19T12:05:56.052Z</time></trkpt><trkpt lat="42.1724959" lon="11.8375157"><ele>53.0</ele><time>2026-04-19T12:05:57.052Z</time></trkpt><trkpt lat="42.1724715" lon="11.8373703"><ele>54.0</ele><time>2026-04-19T12:05:58.057Z</time></trkpt><trkpt lat="42.1724497" lon="11.8372188"><ele>55.0</ele><time>2026-04-19T12:05:59.058Z</time></trkpt><trkpt lat="42.1724287" lon="11.8370662"><ele>56.0</ele><time>2026-04-19T12:06:00.046Z</time></trkpt><trkpt lat="42.1724094" lon="11.8369205"><ele>57.0</ele><time>2026-04-19T12:06:01.053Z</time></trkpt><trkpt lat="42.1724011" lon="11.8367749"><ele>58.0</ele><time>2026-04-19T12:06:02.053Z</time></trkpt><trkpt lat="42.1723924" lon="11.8366264"><ele>59.4</ele><time>2026-04-19T12:06:03.053Z</time></trkpt><trkpt lat="42.1723846" lon="11.8364762"><ele>60.8</ele><time>2026-04-19T12:06:04.055Z</time></trkpt><trkpt lat="42.1723883" lon="11.836319"><ele>62.2</ele><time>2026-04-19T12:06:05.058Z</time></trkpt><trkpt lat="42.1723973" lon="11.8361619"><ele>63.6</ele><time>2026-04-19T12:06:06.052Z</time></trkpt><trkpt lat="42.172407" lon="11.8360327"><ele>65.0</ele><time>2026-04-19T12:06:07.056Z</time></trkpt><trkpt lat="42.1724114" lon="11.8359169"><ele>66.0</ele><time>2026-04-19T12:06:08.056Z</time></trkpt><trkpt lat="42.1724072" lon="11.8357869"><ele>67.0</ele><time>2026-04-19T12:06:09.06Z</time></trkpt><trkpt lat="42.1724017" lon="11.8356448"><ele>68.0</ele><time>2026-04-19T12:06:10.049Z</time></trkpt><trkpt lat="42.1723981" lon="11.8354962"><ele>69.0</ele><time>2026-04-19T12:06:11.053Z</time></trkpt><trkpt lat="42.172395" lon="11.8353389"><ele>70.0</ele><time>2026-04-19T12:06:12.062Z</time></trkpt><trkpt lat="42.1723914" lon="11.8351802"><ele>69.75</ele><time>2026-04-19T12:06:13.051Z</time></trkpt><trkpt lat="42.1723889" lon="11.8350174"><ele>69.5</ele><time>2026-04-19T12:06:14.069Z</time></trkpt><trkpt lat="42.1723885" lon="11.8348486"><ele>69.25</ele><time>2026-04-19T12:06:15.056Z</time></trkpt><trkpt lat="42.1723924" lon="11.8346754"><ele>69.0</ele><time>2026-04-19T12:06:16.052Z</time></trkpt><trkpt lat="42.1723972" lon="11.8344975"><ele>69.0</ele><time>2026-04-19T12:06:17.059Z</time></trkpt><trkpt lat="42.172404" lon="11.8343204"><ele>69.0</ele><time>2026-04-19T12:06:18.056Z</time></trkpt><trkpt lat="42.1724103" lon="11.8341448"><ele>69.0</ele><time>2026-04-19T12:06:19.054Z</time></trkpt><trkpt lat="42.1724197" lon="11.8339737"><ele>69.0</ele><time>2026-04-19T12:06:20.068Z</time></trkpt><trkpt lat="42.1724327" lon="11.8338002"><ele>68.25</ele><time>2026-04-19T12:06:21.063Z</time></trkpt><trkpt lat="42.1724504" lon="11.8336331"><ele>67.5</ele><time>2026-04-19T12:06:22.05Z</time></trkpt><trkpt lat="42.1724685" lon="11.8334795"><ele>66.75</ele><time>2026-04-19T12:06:23.059Z</time></trkpt><trkpt lat="42.1724864" lon="11.8333322"><ele>66.0</ele><time>2026-04-19T12:06:24.051Z</time></trkpt><trkpt lat="42.1725038" lon="11.8331914"><ele>65.83333333333333</ele><time>2026-04-19T12:06:25.057Z</time></trkpt><trkpt lat="42.1725206" lon="11.8330727"><ele>65.66666666666667</ele><time>2026-04-19T12:06:26.07Z</time></trkpt><trkpt lat="42.1725319" lon="11.8329771"><ele>65.5</ele><time>2026-04-19T12:06:27.052Z</time></trkpt><trkpt lat="42.1725558" lon="11.8328497"><ele>65.33333333333334</ele><time>2026-04-19T12:06:29.073Z</time></trkpt><trkpt lat="42.1725468" lon="11.8327373"><ele>65.16666666666667</ele><time>2026-04-19T12:06:32.061Z</time></trkpt><trkpt lat="42.1724883" lon="11.8326642"><ele>65.0</ele><time>2026-04-19T12:06:34.067Z</time></trkpt><trkpt lat="42.1724421" lon="11.832576"><ele>67.2</ele><time>2026-04-19T12:06:36.051Z</time></trkpt><trkpt lat="42.172462" lon="11.8324781"><ele>69.4</ele><time>2026-04-19T12:06:49.068Z</time></trkpt><trkpt lat="42.1724313" lon="11.8324017"><ele>71.6</ele><time>2026-04-19T12:06:52.065Z</time></trkpt><trkpt lat="42.1723355" lon="11.832357"><ele>73.8</ele><time>2026-04-19T12:06:54.066Z</time></trkpt><trkpt lat="42.1722205" lon="11.8323284"><ele>76.0</ele><time>2026-04-19T12:06:56.061Z</time></trkpt><trkpt lat="42.1721288" lon="11.8322877"><ele>77.33333333333333</ele><time>2026-04-19T12:06:58.067Z</time></trkpt><trkpt lat="42.1720356" lon="11.8322463"><ele>78.66666666666666</ele><time>2026-04-19T12:07:00.059Z</time></trkpt><trkpt lat="42.1719552" lon="11.8321614"><ele>80.0</ele><time>2026-04-19T12:07:02.065Z</time></trkpt><trkpt lat="42.1718658" lon="11.8320915"><ele>81.33333333333333</ele><time>2026-04-19T12:07:04.064Z</time></trkpt><trkpt lat="42.1717953" lon="11.8320713"><ele>82.66666666666667</ele><time>2026-04-19T12:07:20.062Z</time></trkpt><trkpt lat="42.1717405" lon="11.832023"><ele>84.0</ele><time>2026-04-19T12:07:22.061Z</time></trkpt><trkpt lat="42.1716771" lon="11.8319631"><ele>84.0</ele><time>2026-04-19T12:07:24.053Z</time></trkpt><trkpt lat="42.1716163" lon="11.8318857"><ele>84.0</ele><time>2026-04-19T12:07:28.06Z</time></trkpt><trkpt lat="42.1715552" lon="11.8318462"><ele>84.0</ele><time>2026-04-19T12:07:30.067Z</time></trkpt><trkpt lat="42.1714916" lon="11.8317701"><ele>84.0</ele><time>2026-04-19T12:07:32.055Z</time></trkpt><trkpt lat="42.1714378" lon="11.8317046"><ele>84.0</ele><time>2026-04-19T12:07:34.051Z</time></trkpt><trkpt lat="42.1713806" lon="11.8316644"><ele>84.0</ele><time>2026-04-19T12:07:37.051Z</time></trkpt><trkpt lat="42.1713147" lon="11.8316405"><ele>84.0</ele><time>2026-04-19T12:07:45.074Z</time></trkpt><trkpt lat="42.171248" lon="11.8316074"><ele>88.16666666666667</ele><time>2026-04-19T12:07:47.067Z</time></trkpt><trkpt lat="42.1711501" lon="11.8315696"><ele>92.33333333333334</ele><time>2026-04-19T12:07:49.059Z</time></trkpt><trkpt lat="42.1710927" lon="11.8315147"><ele>96.5</ele><time>2026-04-19T12:07:51.067Z</time></trkpt><trkpt lat="42.1710095" lon="11.8314815"><ele>100.66666666666667</ele><time>2026-04-19T12:07:53.063Z</time></trkpt><trkpt lat="42.1709419" lon="11.8314322"><ele>104.83333333333334</ele><time>2026-04-19T12:07:55.055Z</time></trkpt><trkpt lat="42.1708754" lon="11.831346"><ele>109.0</ele><time>2026-04-19T12:07:57.058Z</time></trkpt><trkpt lat="42.170837" lon="11.8312619"><ele>109.0</ele><time>2026-04-19T12:08:00.059Z</time></trkpt><trkpt lat="42.1707995" lon="11.8311713"><ele>109.0</ele><time>2026-04-19T12:08:41.066Z</time></trkpt><trkpt lat="42.1707498" lon="11.8311118"><ele>109.0</ele><time>2026-04-19T12:08:43.05Z</time></trkpt><trkpt lat="42.1706913" lon="11.8310506"><ele>109.0</ele><time>2026-04-19T12:08:45.067Z</time></trkpt><trkpt lat="42.170637" lon="11.8309894"><ele>109.0</ele><time>2026-04-19T12:08:47.056Z</time></trkpt><trkpt lat="42.1705716" lon="11.8309503"><ele>109.0</ele><time>2026-04-19T12:09:06.056Z</time></trkpt><trkpt lat="42.1705021" lon="11.8309289"><ele>109.0</ele><time>2026-04-19T12:09:09.053Z</time></trkpt><trkpt lat="42.170415" lon="11.8309021"><ele>110.0</ele><time>2026-04-19T12:09:12.053Z</time></trkpt><trkpt lat="42.1703426" lon="11.8308675"><ele>111.0</ele><time>2026-04-19T12:09:14.056Z</time></trkpt><trkpt lat="42.1702366" lon="11.8308249"><ele>112.0</ele><time>2026-04-19T12:09:16.05Z</time></trkpt><trkpt lat="42.170133" lon="11.8307728"><ele>113.0</ele><time>2026-04-19T12:09:18.055Z</time></trkpt><trkpt lat="42.1700445" lon="11.8306979"><ele>114.0</ele><time>2026-04-19T12:09:20.058Z</time></trkpt><trkpt lat="42.1699378" lon="11.8306283"><ele>114.0</ele><time>2026-04-19T12:09:22.051Z</time></trkpt><trkpt lat="42.1698767" lon="11.8305835"><ele>114.0</ele><time>2026-04-19T12:09:23.071Z</time></trkpt><trkpt lat="42.1697815" lon="11.8304939"><ele>114.0</ele><time>2026-04-19T12:09:25.064Z</time></trkpt><trkpt lat="42.1696886" lon="11.830406"><ele>114.0</ele><time>2026-04-19T12:09:27.052Z</time></trkpt><trkpt lat="42.1695917" lon="11.8303099"><ele>114.0</ele><time>2026-04-19T12:09:29.052Z</time></trkpt><trkpt lat="42.1695058" lon="11.8302472"><ele>114.0</ele><time>2026-04-19T12:09:31.063Z</time></trkpt><trkpt lat="42.1694228" lon="11.8301968"><ele>114.0</ele><time>2026-04-19T12:09:34.053Z</time></trkpt><trkpt lat="42.1693214" lon="11.8301318"><ele>114.0</ele><time>2026-04-19T12:09:36.064Z</time></trkpt><trkpt lat="42.1692502" lon="11.8300918"><ele>114.0</ele><time>2026-04-19T12:09:37.055Z</time></trkpt><trkpt lat="42.1691699" lon="11.8300314"><ele>114.0</ele><time>2026-04-19T12:09:38.051Z</time></trkpt><trkpt lat="42.1690975" lon="11.8299609"><ele>113.66666666666667</ele><time>2026-04-19T12:09:39.052Z</time></trkpt><trkpt lat="42.1690225" lon="11.8298856"><ele>113.33333333333334</ele><time>2026-04-19T12:09:40.059Z</time></trkpt><trkpt lat="42.1689651" lon="11.8297942"><ele>113.0</ele><time>2026-04-19T12:09:41.053Z</time></trkpt><trkpt lat="42.1689195" lon="11.8297211"><ele>112.66666666666667</ele><time>2026-04-19T12:09:42.054Z</time></trkpt><trkpt lat="42.1688761" lon="11.8296544"><ele>112.33333333333334</ele><time>2026-04-19T12:09:43.057Z</time></trkpt><trkpt lat="42.1687989" lon="11.8295541"><ele>112.0</ele><time>2026-04-19T12:09:45.07Z</time></trkpt><trkpt lat="42.1687309" lon="11.8294756"><ele>112.0</ele><time>2026-04-19T12:09:47.062Z</time></trkpt><trkpt lat="42.1686457" lon="11.8293896"><ele>111.99999999999999</ele><time>2026-04-19T12:09:49.054Z</time></trkpt><trkpt lat="42.1685735" lon="11.8293048"><ele>111.99999999999999</ele><time>2026-04-19T12:09:51.059Z</time></trkpt><trkpt lat="42.1686254" lon="11.8293915"><ele>112.0</ele><time>2026-04-19T12:10:04.06Z</time></trkpt><trkpt lat="42.168738" lon="11.8294997"><ele>112.0</ele><time>2026-04-19T12:10:06.061Z</time></trkpt><trkpt lat="42.1687985" lon="11.8295675"><ele>112.0</ele><time>2026-04-19T12:10:07.055Z</time></trkpt><trkpt lat="42.1688606" lon="11.8296439"><ele>111.99999999999999</ele><time>2026-04-19T12:10:08.057Z</time></trkpt><trkpt lat="42.1689224" lon="11.8297316"><ele>111.99999999999999</ele><time>2026-04-19T12:10:09.053Z</time></trkpt><trkpt lat="42.1689882" lon="11.8298251"><ele>112.0</ele><time>2026-04-19T12:10:10.059Z</time></trkpt><trkpt lat="42.1690565" lon="11.8299241"><ele>112.0</ele><time>2026-04-19T12:10:11.057Z</time></trkpt><trkpt lat="42.1691283" lon="11.8300114"><ele>111.66666666666667</ele><time>2026-04-19T12:10:12.062Z</time></trkpt><trkpt lat="42.1692101" lon="11.8300765"><ele>111.33333333333334</ele><time>2026-04-19T12:10:13.052Z</time></trkpt><trkpt lat="42.1692863" lon="11.8301223"><ele>111.0</ele><time>2026-04-19T12:10:14.048Z</time></trkpt><trkpt lat="42.1693476" lon="11.8301573"><ele>110.66666666666666</ele><time>2026-04-19T12:10:15.05Z</time></trkpt><trkpt lat="42.1694353" lon="11.8301438"><ele>110.33333333333333</ele><time>2026-04-19T12:10:17.063Z</time></trkpt><trkpt lat="42.1694707" lon="11.8300504"><ele>110.0</ele><time>2026-04-19T12:10:19.049Z</time></trkpt><trkpt lat="42.1694541" lon="11.8298714"><ele>110.0</ele><time>2026-04-19T12:10:21.056Z</time></trkpt><trkpt lat="42.1694429" lon="11.8297409"><ele>110.0</ele><time>2026-04-19T12:10:22.051Z</time></trkpt><trkpt lat="42.1694311" lon="11.829582"><ele>110.0</ele><time>2026-04-19T12:10:23.069Z</time></trkpt><trkpt lat="42.1694191" lon="11.8294133"><ele>110.0</ele><time>2026-04-19T12:10:24.055Z</time></trkpt><trkpt lat="42.1694039" lon="11.8292218"><ele>109.33333333333333</ele><time>2026-04-19T12:10:25.054Z</time></trkpt><trkpt lat="42.1693849" lon="11.8290021"><ele>108.66666666666666</ele><time>2026-04-19T12:10:26.055Z</time></trkpt><trkpt lat="42.1693676" lon="11.8287705"><ele>108.0</ele><time>2026-04-19T12:10:27.057Z</time></trkpt><trkpt lat="42.1693483" lon="11.8285171"><ele>107.33333333333334</ele><time>2026-04-19T12:10:28.067Z</time></trkpt><trkpt lat="42.1693271" lon="11.8282523"><ele>106.66666666666667</ele><time>2026-04-19T12:10:29.067Z</time></trkpt><trkpt lat="42.1693028" lon="11.8279915"><ele>106.0</ele><time>2026-04-19T12:10:30.057Z</time></trkpt><trkpt lat="42.1692746" lon="11.8277259"><ele>106.0</ele><time>2026-04-19T12:10:31.054Z</time></trkpt><trkpt lat="42.1692451" lon="11.8274559"><ele>106.0</ele><time>2026-04-19T12:10:32.06Z</time></trkpt><trkpt lat="42.1692179" lon="11.8271796"><ele>106.0</ele><time>2026-04-19T12:10:33.062Z</time></trkpt><trkpt lat="42.1691893" lon="11.8268977"><ele>105.66666666666667</ele><time>2026-04-19T12:10:34.072Z</time></trkpt><trkpt lat="42.1691607" lon="11.826612"><ele>105.33333333333334</ele><time>2026-04-19T12:10:35.063Z</time></trkpt><trkpt lat="42.1691315" lon="11.8263288"><ele>105.0</ele><time>2026-04-19T12:10:36.071Z</time></trkpt><trkpt lat="42.169103" lon="11.8260473"><ele>104.66666666666666</ele><time>2026-04-19T12:10:37.061Z</time></trkpt><trkpt lat="42.1690744" lon="11.825767"><ele>104.33333333333333</ele><time>2026-04-19T12:10:38.054Z</time></trkpt><trkpt lat="42.1690463" lon="11.8254902"><ele>104.0</ele><time>2026-04-19T12:10:39.061Z</time></trkpt><trkpt lat="42.169019" lon="11.8252236"><ele>103.66666666666666</ele><time>2026-04-19T12:10:40.057Z</time></trkpt><trkpt lat="42.1689896" lon="11.8249606"><ele>103.33333333333334</ele><time>2026-04-19T12:10:41.056Z</time></trkpt><trkpt lat="42.1689578" lon="11.8247089"><ele>103.0</ele><time>2026-04-19T12:10:42.069Z</time></trkpt><trkpt lat="42.1689388" lon="11.8244592"><ele>102.66666666666667</ele><time>2026-04-19T12:10:43.068Z</time></trkpt><trkpt lat="42.1689152" lon="11.8242102"><ele>102.33333333333334</ele><time>2026-04-19T12:10:44.068Z</time></trkpt><trkpt lat="42.1688905" lon="11.8239596"><ele>102.0</ele><time>2026-04-19T12:10:45.059Z</time></trkpt><trkpt lat="42.1688564" lon="11.8237138"><ele>102.33333333333334</ele><time>2026-04-19T12:10:46.059Z</time></trkpt><trkpt lat="42.1688239" lon="11.8234582"><ele>102.66666666666667</ele><time>2026-04-19T12:10:47.06Z</time></trkpt><trkpt lat="42.1688034" lon="11.8231972"><ele>103.0</ele><time>2026-04-19T12:10:48.061Z</time></trkpt><trkpt lat="42.1687789" lon="11.8229351"><ele>103.0</ele><time>2026-04-19T12:10:49.055Z</time></trkpt><trkpt lat="42.1687518" lon="11.8226677"><ele>103.0</ele><time>2026-04-19T12:10:50.057Z</time></trkpt><trkpt lat="42.1687255" lon="11.8224007"><ele>103.0</ele><time>2026-04-19T12:10:51.051Z</time></trkpt><trkpt lat="42.1687023" lon="11.8221305"><ele>103.33333333333334</ele><time>2026-04-19T12:10:52.057Z</time></trkpt><trkpt lat="42.1686686" lon="11.8218597"><ele>103.66666666666666</ele><time>2026-04-19T12:10:53.063Z</time></trkpt><trkpt lat="42.168636" lon="11.8215869"><ele>104.0</ele><time>2026-04-19T12:10:54.067Z</time></trkpt><trkpt lat="42.1686" lon="11.8213087"><ele>104.0</ele><time>2026-04-19T12:10:55.055Z</time></trkpt><trkpt lat="42.1685728" lon="11.8210261"><ele>104.0</ele><time>2026-04-19T12:10:56.062Z</time></trkpt><trkpt lat="42.1685431" lon="11.8207551"><ele>104.0</ele><time>2026-04-19T12:10:57.062Z</time></trkpt><trkpt lat="42.1685285" lon="11.8204778"><ele>103.33333333333333</ele><time>2026-04-19T12:10:58.054Z</time></trkpt><trkpt lat="42.1684928" lon="11.8202107"><ele>102.66666666666666</ele><time>2026-04-19T12:10:59.074Z</time></trkpt><trkpt lat="42.1684614" lon="11.8199415"><ele>102.0</ele><time>2026-04-19T12:11:00.065Z</time></trkpt><trkpt lat="42.1684258" lon="11.8196772"><ele>101.33333333333334</ele><time>2026-04-19T12:11:01.063Z</time></trkpt><trkpt lat="42.1683897" lon="11.8194126"><ele>100.66666666666667</ele><time>2026-04-19T12:11:02.067Z</time></trkpt><trkpt lat="42.1683627" lon="11.8191361"><ele>100.0</ele><time>2026-04-19T12:11:03.07Z</time></trkpt><trkpt lat="42.1683348" lon="11.8188592"><ele>99.66666666666667</ele><time>2026-04-19T12:11:04.059Z</time></trkpt><trkpt lat="42.1683128" lon="11.8185798"><ele>99.33333333333334</ele><time>2026-04-19T12:11:05.056Z</time></trkpt><trkpt lat="42.1682758" lon="11.8183016"><ele>99.0</ele><time>2026-04-19T12:11:06.061Z</time></trkpt><trkpt lat="42.1682479" lon="11.8180113"><ele>98.33333333333334</ele><time>2026-04-19T12:11:07.058Z</time></trkpt><trkpt lat="42.1682154" lon="11.8177332"><ele>97.66666666666667</ele><time>2026-04-19T12:11:08.056Z</time></trkpt><trkpt lat="42.1681841" lon="11.8174499"><ele>97.0</ele><time>2026-04-19T12:11:09.06Z</time></trkpt><trkpt lat="42.1681544" lon="11.817163"><ele>97.0</ele><time>2026-04-19T12:11:10.064Z</time></trkpt><trkpt lat="42.1681325" lon="11.8168804"><ele>97.0</ele><time>2026-04-19T12:11:11.05Z</time></trkpt><trkpt lat="42.1681087" lon="11.8165995"><ele>97.0</ele><time>2026-04-19T12:11:12.06Z</time></trkpt><trkpt lat="42.1680876" lon="11.8163234"><ele>97.0</ele><time>2026-04-19T12:11:13.064Z</time></trkpt><trkpt lat="42.1680579" lon="11.8160387"><ele>97.0</ele><time>2026-04-19T12:11:14.053Z</time></trkpt><trkpt lat="42.1680224" lon="11.8157609"><ele>97.0</ele><time>2026-04-19T12:11:15.063Z</time></trkpt><trkpt lat="42.1679899" lon="11.8154829"><ele>96.33333333333334</ele><time>2026-04-19T12:11:16.066Z</time></trkpt><trkpt lat="42.1679583" lon="11.8151954"><ele>95.66666666666667</ele><time>2026-04-19T12:11:17.056Z</time></trkpt><trkpt lat="42.1679207" lon="11.8149181"><ele>95.0</ele><time>2026-04-19T12:11:18.057Z</time></trkpt><trkpt lat="42.1678961" lon="11.8146389"><ele>94.33333333333334</ele><time>2026-04-19T12:11:19.06Z</time></trkpt><trkpt lat="42.1678701" lon="11.8143578"><ele>93.66666666666667</ele><time>2026-04-19T12:11:20.062Z</time></trkpt><trkpt lat="42.1678401" lon="11.8140882"><ele>93.0</ele><time>2026-04-19T12:11:21.073Z</time></trkpt><trkpt lat="42.1678113" lon="11.8138032"><ele>92.0</ele><time>2026-04-19T12:11:22.055Z</time></trkpt><trkpt lat="42.1677948" lon="11.8135198"><ele>91.0</ele><time>2026-04-19T12:11:23.06Z</time></trkpt><trkpt lat="42.1677592" lon="11.8132442"><ele>90.0</ele><time>2026-04-19T12:11:24.059Z</time></trkpt><trkpt lat="42.1677233" lon="11.8129714"><ele>89.66666666666667</ele><time>2026-04-19T12:11:25.053Z</time></trkpt><trkpt lat="42.1676913" lon="11.8127079"><ele>89.33333333333334</ele><time>2026-04-19T12:11:26.057Z</time></trkpt><trkpt lat="42.1676612" lon="11.8124356"><ele>89.0</ele><time>2026-04-19T12:11:27.063Z</time></trkpt><trkpt lat="42.1676278" lon="11.8121528"><ele>88.33333333333334</ele><time>2026-04-19T12:11:28.063Z</time></trkpt><trkpt lat="42.1675973" lon="11.8118767"><ele>87.66666666666667</ele><time>2026-04-19T12:11:29.057Z</time></trkpt><trkpt lat="42.1675717" lon="11.8115971"><ele>87.0</ele><time>2026-04-19T12:11:30.06Z</time></trkpt><trkpt lat="42.1675385" lon="11.8113176"><ele>86.33333333333333</ele><time>2026-04-19T12:11:31.058Z</time></trkpt><trkpt lat="42.1675081" lon="11.8110357"><ele>85.66666666666666</ele><time>2026-04-19T12:11:32.06Z</time></trkpt><trkpt lat="42.1674763" lon="11.8107531"><ele>85.0</ele><time>2026-04-19T12:11:33.062Z</time></trkpt><trkpt lat="42.1674478" lon="11.8104602"><ele>84.66666666666666</ele><time>2026-04-19T12:11:34.059Z</time></trkpt><trkpt lat="42.1674191" lon="11.8101686"><ele>84.33333333333333</ele><time>2026-04-19T12:11:35.06Z</time></trkpt><trkpt lat="42.16739" lon="11.8098767"><ele>84.0</ele><time>2026-04-19T12:11:36.064Z</time></trkpt><trkpt lat="42.1673534" lon="11.8095875"><ele>83.66666666666667</ele><time>2026-04-19T12:11:37.055Z</time></trkpt><trkpt lat="42.1673201" lon="11.8093051"><ele>83.33333333333334</ele><time>2026-04-19T12:11:38.054Z</time></trkpt><trkpt lat="42.1672905" lon="11.8090171"><ele>83.0</ele><time>2026-04-19T12:11:39.057Z</time></trkpt><trkpt lat="42.1672591" lon="11.8087313"><ele>83.33333333333334</ele><time>2026-04-19T12:11:40.061Z</time></trkpt><trkpt lat="42.1672315" lon="11.8084444"><ele>83.66666666666667</ele><time>2026-04-19T12:11:41.057Z</time></trkpt><trkpt lat="42.1672125" lon="11.8081438"><ele>84.0</ele><time>2026-04-19T12:11:42.068Z</time></trkpt><trkpt lat="42.1671901" lon="11.8078446"><ele>84.0</ele><time>2026-04-19T12:11:43.059Z</time></trkpt><trkpt lat="42.1671537" lon="11.8075522"><ele>84.0</ele><time>2026-04-19T12:11:44.056Z</time></trkpt><trkpt lat="42.1671197" lon="11.8072604"><ele>84.0</ele><time>2026-04-19T12:11:45.059Z</time></trkpt><trkpt lat="42.1670936" lon="11.8069778"><ele>83.33333333333333</ele><time>2026-04-19T12:11:46.067Z</time></trkpt><trkpt lat="42.1670619" lon="11.8066753"><ele>82.66666666666666</ele><time>2026-04-19T12:11:47.068Z</time></trkpt><trkpt lat="42.1670292" lon="11.8063802"><ele>82.0</ele><time>2026-04-19T12:11:48.058Z</time></trkpt><trkpt lat="42.1669931" lon="11.8060747"><ele>78.5</ele><time>2026-04-19T12:11:49.048Z</time></trkpt><trkpt lat="42.1669626" lon="11.8057764"><ele>75.0</ele><time>2026-04-19T12:11:50.061Z</time></trkpt><trkpt lat="42.1669287" lon="11.8054701"><ele>75.0</ele><time>2026-04-19T12:11:51.057Z</time></trkpt><trkpt lat="42.1668928" lon="11.8051656"><ele>75.0</ele><time>2026-04-19T12:11:52.054Z</time></trkpt><trkpt lat="42.1668627" lon="11.8048528"><ele>72.5</ele><time>2026-04-19T12:11:53.058Z</time></trkpt><trkpt lat="42.1668289" lon="11.8045458"><ele>70.0</ele><time>2026-04-19T12:11:54.066Z</time></trkpt><trkpt lat="42.1667936" lon="11.8042392"><ele>69.0</ele><time>2026-04-19T12:11:55.061Z</time></trkpt><trkpt lat="42.1667644" lon="11.8039452"><ele>68.0</ele><time>2026-04-19T12:11:56.065Z</time></trkpt><trkpt lat="42.1667295" lon="11.8036431"><ele>67.0</ele><time>2026-04-19T12:11:57.063Z</time></trkpt><trkpt lat="42.1666978" lon="11.8033459"><ele>66.0</ele><time>2026-04-19T12:11:58.072Z</time></trkpt><trkpt lat="42.1666729" lon="11.8030722"><ele>65.0</ele><time>2026-04-19T12:11:59.051Z</time></trkpt><trkpt lat="42.1666469" lon="11.8028472"><ele>64.0</ele><time>2026-04-19T12:12:00.072Z</time></trkpt><trkpt lat="42.1666313" lon="11.8026586"><ele>63.99999999999999</ele><time>2026-04-19T12:12:01.074Z</time></trkpt><trkpt lat="42.1666192" lon="11.8025104"><ele>64.0</ele><time>2026-04-19T12:12:02.061Z</time></trkpt><trkpt lat="42.1666076" lon="11.8023952"><ele>64.0</ele><time>2026-04-19T12:12:03.058Z</time></trkpt><trkpt lat="42.166593" lon="11.8022888"><ele>64.0</ele><time>2026-04-19T12:12:05.063Z</time></trkpt><trkpt lat="42.1665265" lon="11.8022875"><ele>63.99999999999999</ele><time>2026-04-19T12:12:08.058Z</time></trkpt><trkpt lat="42.1664767" lon="11.8023463"><ele>64.0</ele><time>2026-04-19T12:12:10.056Z</time></trkpt><trkpt lat="42.1663549" lon="11.802387"><ele>63.666666666666664</ele><time>2026-04-19T12:12:12.064Z</time></trkpt><trkpt lat="42.166265" lon="11.8024"><ele>63.33333333333333</ele><time>2026-04-19T12:12:13.066Z</time></trkpt><trkpt lat="42.1661686" lon="11.8024178"><ele>63.0</ele><time>2026-04-19T12:12:14.061Z</time></trkpt><trkpt lat="42.1660799" lon="11.8024332"><ele>62.66666666666667</ele><time>2026-04-19T12:12:15.071Z</time></trkpt><trkpt lat="42.1660088" lon="11.8024378"><ele>62.333333333333336</ele><time>2026-04-19T12:12:16.054Z</time></trkpt><trkpt lat="42.1660969" lon="11.8024686"><ele>62.0</ele><time>2026-04-19T12:12:23.056Z</time></trkpt><trkpt lat="42.1662256" lon="11.8024349"><ele>62.00000000000001</ele><time>2026-04-19T12:12:25.067Z</time></trkpt><trkpt lat="42.1662983" lon="11.8024148"><ele>62.0</ele><time>2026-04-19T12:12:26.064Z</time></trkpt><trkpt lat="42.1663634" lon="11.8023967"><ele>62.0</ele><time>2026-04-19T12:12:27.059Z</time></trkpt><trkpt lat="42.1664773" lon="11.8023691"><ele>62.0</ele><time>2026-04-19T12:12:29.059Z</time></trkpt><trkpt lat="42.1665441" lon="11.8023048"><ele>62.00000000000001</ele><time>2026-04-19T12:12:31.053Z</time></trkpt><trkpt lat="42.1665547" lon="11.8022147"><ele>62.0</ele><time>2026-04-19T12:12:33.075Z</time></trkpt><trkpt lat="42.1665398" lon="11.8021228"><ele>62.0</ele><time>2026-04-19T12:12:35.054Z</time></trkpt><trkpt lat="42.1665274" lon="11.8019795"><ele>62.0</ele><time>2026-04-19T12:12:37.06Z</time></trkpt><trkpt lat="42.1665288" lon="11.8018736"><ele>62.0</ele><time>2026-04-19T12:12:38.057Z</time></trkpt><trkpt lat="42.16653" lon="11.8017469"><ele>62.0</ele><time>2026-04-19T12:12:39.064Z</time></trkpt><trkpt lat="42.1665226" lon="11.8016273"><ele>62.0</ele><time>2026-04-19T12:12:40.06Z</time></trkpt><trkpt lat="42.1665089" lon="11.8015076"><ele>61.8</ele><time>2026-04-19T12:12:41.053Z</time></trkpt><trkpt lat="42.1664973" lon="11.8013667"><ele>61.6</ele><time>2026-04-19T12:12:42.058Z</time></trkpt><trkpt lat="42.1664692" lon="11.8012313"><ele>61.39999999999999</ele><time>2026-04-19T12:12:43.057Z</time></trkpt><trkpt lat="42.1664464" lon="11.8010889"><ele>61.199999999999996</ele><time>2026-04-19T12:12:44.073Z</time></trkpt><trkpt lat="42.1664278" lon="11.8009326"><ele>61.0</ele><time>2026-04-19T12:12:45.066Z</time></trkpt><trkpt lat="42.1664173" lon="11.8007744"><ele>61.0</ele><time>2026-04-19T12:12:46.055Z</time></trkpt><trkpt lat="42.1664134" lon="11.8006172"><ele>61.0</ele><time>2026-04-19T12:12:47.057Z</time></trkpt><trkpt lat="42.166401" lon="11.8004517"><ele>61.0</ele><time>2026-04-19T12:12:48.058Z</time></trkpt><trkpt lat="42.1663805" lon="11.8002846"><ele>61.0</ele><time>2026-04-19T12:12:49.06Z</time></trkpt><trkpt lat="42.1663566" lon="11.8001096"><ele>61.0</ele><time>2026-04-19T12:12:50.06Z</time></trkpt><trkpt lat="42.1663374" lon="11.7999405"><ele>61.0</ele><time>2026-04-19T12:12:51.07Z</time></trkpt><trkpt lat="42.1663167" lon="11.7997675"><ele>61.0</ele><time>2026-04-19T12:12:52.066Z</time></trkpt><trkpt lat="42.1662993" lon="11.7995792"><ele>61.0</ele><time>2026-04-19T12:12:53.06Z</time></trkpt><trkpt lat="42.1662807" lon="11.7993925"><ele>60.75</ele><time>2026-04-19T12:12:54.062Z</time></trkpt><trkpt lat="42.1662602" lon="11.7992068"><ele>60.5</ele><time>2026-04-19T12:12:55.073Z</time></trkpt><trkpt lat="42.1662345" lon="11.7990138"><ele>60.25</ele><time>2026-04-19T12:12:56.057Z</time></trkpt><trkpt lat="42.1662135" lon="11.7988097"><ele>60.0</ele><time>2026-04-19T12:12:57.06Z</time></trkpt><trkpt lat="42.1661948" lon="11.7985963"><ele>59.33333333333333</ele><time>2026-04-19T12:12:58.06Z</time></trkpt><trkpt lat="42.1661723" lon="11.7983775"><ele>58.666666666666664</ele><time>2026-04-19T12:12:59.058Z</time></trkpt><trkpt lat="42.166148" lon="11.7981561"><ele>58.0</ele><time>2026-04-19T12:13:00.061Z</time></trkpt><trkpt lat="42.1661224" lon="11.7979284"><ele>58.0</ele><time>2026-04-19T12:13:01.061Z</time></trkpt><trkpt lat="42.1660929" lon="11.7977017"><ele>58.0</ele><time>2026-04-19T12:13:02.055Z</time></trkpt><trkpt lat="42.1660715" lon="11.7974782"><ele>58.0</ele><time>2026-04-19T12:13:03.057Z</time></trkpt><trkpt lat="42.1660484" lon="11.7972511"><ele>58.0</ele><time>2026-04-19T12:13:04.055Z</time></trkpt><trkpt lat="42.1660242" lon="11.797032"><ele>58.0</ele><time>2026-04-19T12:13:05.059Z</time></trkpt><trkpt lat="42.1660018" lon="11.7968039"><ele>58.0</ele><time>2026-04-19T12:13:06.064Z</time></trkpt><trkpt lat="42.1659805" lon="11.7965812"><ele>56.666666666666664</ele><time>2026-04-19T12:13:07.051Z</time></trkpt><trkpt lat="42.1659614" lon="11.7963513"><ele>55.33333333333333</ele><time>2026-04-19T12:13:08.049Z</time></trkpt><trkpt lat="42.1659322" lon="11.7961215"><ele>54.0</ele><time>2026-04-19T12:13:09.061Z</time></trkpt><trkpt lat="42.1659066" lon="11.795891"><ele>52.66666666666667</ele><time>2026-04-19T12:13:10.065Z</time></trkpt><trkpt lat="42.1658776" lon="11.7956648"><ele>51.333333333333336</ele><time>2026-04-19T12:13:11.06Z</time></trkpt><trkpt lat="42.1658575" lon="11.7954421"><ele>50.0</ele><time>2026-04-19T12:13:12.057Z</time></trkpt><trkpt lat="42.1658325" lon="11.7951946"><ele>49.66666666666667</ele><time>2026-04-19T12:13:13.068Z</time></trkpt><trkpt lat="42.1658026" lon="11.7949493"><ele>49.33333333333333</ele><time>2026-04-19T12:13:14.063Z</time></trkpt><trkpt lat="42.1657732" lon="11.7947081"><ele>49.0</ele><time>2026-04-19T12:13:15.064Z</time></trkpt><trkpt lat="42.165749" lon="11.7944708"><ele>49.0</ele><time>2026-04-19T12:13:16.061Z</time></trkpt><trkpt lat="42.1657288" lon="11.7942465"><ele>49.0</ele><time>2026-04-19T12:13:17.065Z</time></trkpt><trkpt lat="42.1657066" lon="11.7940387"><ele>49.0</ele><time>2026-04-19T12:13:18.06Z</time></trkpt><trkpt lat="42.1656889" lon="11.7938498"><ele>49.0</ele><time>2026-04-19T12:13:19.061Z</time></trkpt><trkpt lat="42.1656724" lon="11.793674"><ele>49.0</ele><time>2026-04-19T12:13:20.06Z</time></trkpt><trkpt lat="42.1656527" lon="11.7935134"><ele>49.0</ele><time>2026-04-19T12:13:21.066Z</time></trkpt><trkpt lat="42.1656289" lon="11.7933502"><ele>49.0</ele><time>2026-04-19T12:13:22.074Z</time></trkpt><trkpt lat="42.1656065" lon="11.7931799"><ele>48.25</ele><time>2026-04-19T12:13:23.066Z</time></trkpt><trkpt lat="42.1655856" lon="11.7930022"><ele>47.5</ele><time>2026-04-19T12:13:24.058Z</time></trkpt><trkpt lat="42.1655654" lon="11.7928192"><ele>46.75</ele><time>2026-04-19T12:13:25.085Z</time></trkpt><trkpt lat="42.1655423" lon="11.7926257"><ele>46.0</ele><time>2026-04-19T12:13:26.064Z</time></trkpt><trkpt lat="42.1655169" lon="11.7924304"><ele>46.0</ele><time>2026-04-19T12:13:27.062Z</time></trkpt><trkpt lat="42.1654901" lon="11.7922353"><ele>46.0</ele><time>2026-04-19T12:13:28.073Z</time></trkpt><trkpt lat="42.1654614" lon="11.7920346"><ele>46.0</ele><time>2026-04-19T12:13:29.089Z</time></trkpt><trkpt lat="42.1654308" lon="11.7918411"><ele>46.0</ele><time>2026-04-19T12:13:30.069Z</time></trkpt><trkpt lat="42.1653835" lon="11.7916482"><ele>46.0</ele><time>2026-04-19T12:13:31.053Z</time></trkpt><trkpt lat="42.1653201" lon="11.7914678"><ele>46.0</ele><time>2026-04-19T12:13:32.058Z</time></trkpt><trkpt lat="42.1652478" lon="11.791298"><ele>46.0</ele><time>2026-04-19T12:13:33.066Z</time></trkpt><trkpt lat="42.165155" lon="11.7911466"><ele>46.0</ele><time>2026-04-19T12:13:34.051Z</time></trkpt><trkpt lat="42.1650524" lon="11.7910113"><ele>44.75</ele><time>2026-04-19T12:13:35.062Z</time></trkpt><trkpt lat="42.1649381" lon="11.7908895"><ele>43.5</ele><time>2026-04-19T12:13:36.071Z</time></trkpt><trkpt lat="42.1648184" lon="11.7907724"><ele>42.25</ele><time>2026-04-19T12:13:37.057Z</time></trkpt><trkpt lat="42.1647037" lon="11.7906499"><ele>41.0</ele><time>2026-04-19T12:13:38.072Z</time></trkpt><trkpt lat="42.1645982" lon="11.7905245"><ele>40.75</ele><time>2026-04-19T12:13:39.059Z</time></trkpt><trkpt lat="42.1645078" lon="11.7904005"><ele>40.5</ele><time>2026-04-19T12:13:40.08Z</time></trkpt><trkpt lat="42.1644315" lon="11.7902768"><ele>40.25</ele><time>2026-04-19T12:13:41.061Z</time></trkpt><trkpt lat="42.1643665" lon="11.7901534"><ele>40.0</ele><time>2026-04-19T12:13:42.07Z</time></trkpt><trkpt lat="42.1643176" lon="11.7900326"><ele>39.66666666666667</ele><time>2026-04-19T12:13:43.058Z</time></trkpt><trkpt lat="42.1642899" lon="11.7899211"><ele>39.333333333333336</ele><time>2026-04-19T12:13:44.071Z</time></trkpt><trkpt lat="42.1642892" lon="11.7898192"><ele>39.0</ele><time>2026-04-19T12:13:45.077Z</time></trkpt><trkpt lat="42.1643115" lon="11.7897237"><ele>38.666666666666664</ele><time>2026-04-19T12:13:46.063Z</time></trkpt><trkpt lat="42.1643463" lon="11.7896205"><ele>38.33333333333333</ele><time>2026-04-19T12:13:47.059Z</time></trkpt><trkpt lat="42.1643917" lon="11.7895134"><ele>38.0</ele><time>2026-04-19T12:13:48.064Z</time></trkpt><trkpt lat="42.1644305" lon="11.7893793"><ele>37.25</ele><time>2026-04-19T12:13:49.058Z</time></trkpt><trkpt lat="42.1644469" lon="11.7892233"><ele>36.5</ele><time>2026-04-19T12:13:50.062Z</time></trkpt><trkpt lat="42.1644461" lon="11.7890555"><ele>35.75</ele><time>2026-04-19T12:13:51.069Z</time></trkpt><trkpt lat="42.1644452" lon="11.7888798"><ele>35.0</ele><time>2026-04-19T12:13:52.063Z</time></trkpt><trkpt lat="42.1644084" lon="11.7887185"><ele>35.0</ele><time>2026-04-19T12:13:53.053Z</time></trkpt><trkpt lat="42.1643356" lon="11.7885657"><ele>35.0</ele><time>2026-04-19T12:13:54.054Z</time></trkpt><trkpt lat="42.1642291" lon="11.7884706"><ele>35.0</ele><time>2026-04-19T12:13:55.059Z</time></trkpt><trkpt lat="42.1641073" lon="11.7884185"><ele>35.0</ele><time>2026-04-19T12:13:56.056Z</time></trkpt><trkpt lat="42.1639864" lon="11.788362"><ele>35.0</ele><time>2026-04-19T12:13:57.061Z</time></trkpt><trkpt lat="42.163845" lon="11.7883497"><ele>35.0</ele><time>2026-04-19T12:13:58.06Z</time></trkpt><trkpt lat="42.1637065" lon="11.7883296"><ele>35.0</ele><time>2026-04-19T12:13:59.054Z</time></trkpt><trkpt lat="42.1635697" lon="11.7882652"><ele>35.0</ele><time>2026-04-19T12:14:00.067Z</time></trkpt><trkpt lat="42.1634439" lon="11.7881657"><ele>35.0</ele><time>2026-04-19T12:14:01.057Z</time></trkpt><trkpt lat="42.1633179" lon="11.7880594"><ele>35.0</ele><time>2026-04-19T12:14:02.05Z</time></trkpt><trkpt lat="42.1632" lon="11.7879574"><ele>35.0</ele><time>2026-04-19T12:14:03.061Z</time></trkpt><trkpt lat="42.1630636" lon="11.7878773"><ele>35.0</ele><time>2026-04-19T12:14:04.103Z</time></trkpt><trkpt lat="42.1629219" lon="11.7878469"><ele>35.33333333333333</ele><time>2026-04-19T12:14:05.063Z</time></trkpt><trkpt lat="42.162777" lon="11.7878471"><ele>35.666666666666664</ele><time>2026-04-19T12:14:06.059Z</time></trkpt><trkpt lat="42.1626265" lon="11.7878856"><ele>36.0</ele><time>2026-04-19T12:14:07.057Z</time></trkpt><trkpt lat="42.1624805" lon="11.7879537"><ele>36.0</ele><time>2026-04-19T12:14:08.07Z</time></trkpt><trkpt lat="42.1623358" lon="11.7880428"><ele>36.0</ele><time>2026-04-19T12:14:09.063Z</time></trkpt><trkpt lat="42.1621939" lon="11.788136"><ele>36.0</ele><time>2026-04-19T12:14:10.069Z</time></trkpt><trkpt lat="42.1620507" lon="11.7882259"><ele>36.0</ele><time>2026-04-19T12:14:11.061Z</time></trkpt><trkpt lat="42.1619057" lon="11.7883132"><ele>36.0</ele><time>2026-04-19T12:14:12.053Z</time></trkpt><trkpt lat="42.1617557" lon="11.7883934"><ele>36.0</ele><time>2026-04-19T12:14:13.059Z</time></trkpt><trkpt lat="42.1616001" lon="11.7884624"><ele>34.666666666666664</ele><time>2026-04-19T12:14:14.056Z</time></trkpt><trkpt lat="42.1614359" lon="11.7885118"><ele>33.33333333333333</ele><time>2026-04-19T12:14:15.061Z</time></trkpt><trkpt lat="42.1612643" lon="11.7885484"><ele>32.0</ele><time>2026-04-19T12:14:16.059Z</time></trkpt><trkpt lat="42.1610868" lon="11.788575"><ele>32.0</ele><time>2026-04-19T12:14:17.051Z</time></trkpt><trkpt lat="42.1609046" lon="11.7885932"><ele>32.0</ele><time>2026-04-19T12:14:18.061Z</time></trkpt><trkpt lat="42.1607194" lon="11.7886138"><ele>32.0</ele><time>2026-04-19T12:14:19.063Z</time></trkpt><trkpt lat="42.1605302" lon="11.7886356"><ele>30.0</ele><time>2026-04-19T12:14:20.056Z</time></trkpt><trkpt lat="42.1603463" lon="11.7886596"><ele>28.0</ele><time>2026-04-19T12:14:21.06Z</time></trkpt><trkpt lat="42.1601609" lon="11.7886845"><ele>26.0</ele><time>2026-04-19T12:14:22.058Z</time></trkpt><trkpt lat="42.1599742" lon="11.7887213"><ele>26.333333333333332</ele><time>2026-04-19T12:14:23.05Z</time></trkpt><trkpt lat="42.1597879" lon="11.7887721"><ele>26.666666666666664</ele><time>2026-04-19T12:14:24.058Z</time></trkpt><trkpt lat="42.159599" lon="11.7888304"><ele>27.0</ele><time>2026-04-19T12:14:25.059Z</time></trkpt><trkpt lat="42.1594069" lon="11.7888866"><ele>27.0</ele><time>2026-04-19T12:14:26.057Z</time></trkpt><trkpt lat="42.1592112" lon="11.7889356"><ele>27.0</ele><time>2026-04-19T12:14:27.074Z</time></trkpt><trkpt lat="42.1590136" lon="11.7889834"><ele>27.0</ele><time>2026-04-19T12:14:28.065Z</time></trkpt><trkpt lat="42.1588139" lon="11.7890325"><ele>29.333333333333336</ele><time>2026-04-19T12:14:29.065Z</time></trkpt><trkpt lat="42.1586114" lon="11.7890845"><ele>31.666666666666668</ele><time>2026-04-19T12:14:30.057Z</time></trkpt><trkpt lat="42.158406" lon="11.7891406"><ele>34.0</ele><time>2026-04-19T12:14:31.057Z</time></trkpt><trkpt lat="42.158199" lon="11.7892003"><ele>34.66666666666667</ele><time>2026-04-19T12:14:32.061Z</time></trkpt><trkpt lat="42.1579906" lon="11.7892619"><ele>35.333333333333336</ele><time>2026-04-19T12:14:33.05Z</time></trkpt><trkpt lat="42.1577842" lon="11.7893245"><ele>36.0</ele><time>2026-04-19T12:14:34.068Z</time></trkpt><trkpt lat="42.1575794" lon="11.7893912"><ele>36.0</ele><time>2026-04-19T12:14:35.056Z</time></trkpt><trkpt lat="42.1573757" lon="11.7894633"><ele>36.0</ele><time>2026-04-19T12:14:36.057Z</time></trkpt><trkpt lat="42.1571736" lon="11.7895407"><ele>36.0</ele><time>2026-04-19T12:14:37.062Z</time></trkpt><trkpt lat="42.1569718" lon="11.7896226"><ele>37.333333333333336</ele><time>2026-04-19T12:14:38.056Z</time></trkpt><trkpt lat="42.1567685" lon="11.7897077"><ele>38.66666666666667</ele><time>2026-04-19T12:14:39.054Z</time></trkpt><trkpt lat="42.156566" lon="11.7897983"><ele>40.0</ele><time>2026-04-19T12:14:40.054Z</time></trkpt><trkpt lat="42.1563621" lon="11.7898939"><ele>41.0</ele><time>2026-04-19T12:14:41.066Z</time></trkpt><trkpt lat="42.1561564" lon="11.7899933"><ele>42.0</ele><time>2026-04-19T12:14:42.057Z</time></trkpt><trkpt lat="42.1559484" lon="11.7900943"><ele>43.0</ele><time>2026-04-19T12:14:43.053Z</time></trkpt><trkpt lat="42.1557384" lon="11.7901959"><ele>44.0</ele><time>2026-04-19T12:14:44.05Z</time></trkpt><trkpt lat="42.1555256" lon="11.7902975"><ele>45.0</ele><time>2026-04-19T12:14:45.058Z</time></trkpt><trkpt lat="42.1553137" lon="11.7904026"><ele>45.0</ele><time>2026-04-19T12:14:46.062Z</time></trkpt><trkpt lat="42.1551037" lon="11.7905105"><ele>45.0</ele><time>2026-04-19T12:14:47.056Z</time></trkpt><trkpt lat="42.1548956" lon="11.7906156"><ele>45.0</ele><time>2026-04-19T12:14:48.059Z</time></trkpt><trkpt lat="42.1546863" lon="11.7907186"><ele>45.333333333333336</ele><time>2026-04-19T12:14:49.054Z</time></trkpt><trkpt lat="42.154477" lon="11.7908213"><ele>45.66666666666667</ele><time>2026-04-19T12:14:50.062Z</time></trkpt><trkpt lat="42.1542658" lon="11.7909262"><ele>46.0</ele><time>2026-04-19T12:14:51.06Z</time></trkpt><trkpt lat="42.1540532" lon="11.7910296"><ele>45.66666666666667</ele><time>2026-04-19T12:14:52.059Z</time></trkpt><trkpt lat="42.1538402" lon="11.7911351"><ele>45.333333333333336</ele><time>2026-04-19T12:14:53.06Z</time></trkpt><trkpt lat="42.1536319" lon="11.7912398"><ele>45.0</ele><time>2026-04-19T12:14:54.058Z</time></trkpt><trkpt lat="42.1534158" lon="11.7913323"><ele>45.0</ele><time>2026-04-19T12:14:55.063Z</time></trkpt><trkpt lat="42.1532" lon="11.7914211"><ele>45.0</ele><time>2026-04-19T12:14:56.054Z</time></trkpt><trkpt lat="42.1529817" lon="11.7914972"><ele>45.0</ele><time>2026-04-19T12:14:57.058Z</time></trkpt><trkpt lat="42.1527604" lon="11.7915596"><ele>45.0</ele><time>2026-04-19T12:14:58.064Z</time></trkpt><trkpt lat="42.152543" lon="11.7916129"><ele>45.0</ele><time>2026-04-19T12:14:59.056Z</time></trkpt><trkpt lat="42.1523254" lon="11.7916496"><ele>43.0</ele><time>2026-04-19T12:15:00.057Z</time></trkpt><trkpt lat="42.1521071" lon="11.7916762"><ele>41.0</ele><time>2026-04-19T12:15:01.06Z</time></trkpt><trkpt lat="42.1518876" lon="11.7916957"><ele>39.0</ele><time>2026-04-19T12:15:02.057Z</time></trkpt><trkpt lat="42.1516668" lon="11.7917047"><ele>38.666666666666664</ele><time>2026-04-19T12:15:03.055Z</time></trkpt><trkpt lat="42.151447" lon="11.7917037"><ele>38.33333333333333</ele><time>2026-04-19T12:15:04.062Z</time></trkpt><trkpt lat="42.1512284" lon="11.7916997"><ele>38.0</ele><time>2026-04-19T12:15:05.064Z</time></trkpt><trkpt lat="42.1510121" lon="11.791695"><ele>38.0</ele><time>2026-04-19T12:15:06.089Z</time></trkpt><trkpt lat="42.1507989" lon="11.7916881"><ele>38.0</ele><time>2026-04-19T12:15:07.056Z</time></trkpt><trkpt lat="42.150587" lon="11.7916813"><ele>38.0</ele><time>2026-04-19T12:15:08.054Z</time></trkpt><trkpt lat="42.1503737" lon="11.7916688"><ele>34.666666666666664</ele><time>2026-04-19T12:15:09.066Z</time></trkpt><trkpt lat="42.1501629" lon="11.7916634"><ele>31.333333333333336</ele><time>2026-04-19T12:15:10.057Z</time></trkpt><trkpt lat="42.149961" lon="11.7916594"><ele>28.0</ele><time>2026-04-19T12:15:11.063Z</time></trkpt><trkpt lat="42.1497461" lon="11.7916519"><ele>28.0</ele><time>2026-04-19T12:15:12.059Z</time></trkpt><trkpt lat="42.1495324" lon="11.7916488"><ele>28.0</ele><time>2026-04-19T12:15:13.059Z</time></trkpt><trkpt lat="42.1493202" lon="11.7916448"><ele>28.0</ele><time>2026-04-19T12:15:14.058Z</time></trkpt><trkpt lat="42.1491071" lon="11.79164"><ele>31.0</ele><time>2026-04-19T12:15:15.056Z</time></trkpt><trkpt lat="42.1488933" lon="11.7916361"><ele>34.0</ele><time>2026-04-19T12:15:16.072Z</time></trkpt><trkpt lat="42.1486784" lon="11.7916308"><ele>37.0</ele><time>2026-04-19T12:15:17.05Z</time></trkpt><trkpt lat="42.1484644" lon="11.7916241"><ele>37.0</ele><time>2026-04-19T12:15:18.055Z</time></trkpt><trkpt lat="42.1482511" lon="11.7916214"><ele>37.0</ele><time>2026-04-19T12:15:19.06Z</time></trkpt><trkpt lat="42.1480389" lon="11.7916225"><ele>37.0</ele><time>2026-04-19T12:15:20.061Z</time></trkpt><trkpt lat="42.1478265" lon="11.7916198"><ele>40.0</ele><time>2026-04-19T12:15:21.049Z</time></trkpt><trkpt lat="42.1476127" lon="11.7916156"><ele>43.0</ele><time>2026-04-19T12:15:22.056Z</time></trkpt><trkpt lat="42.1473969" lon="11.7916115"><ele>46.0</ele><time>2026-04-19T12:15:23.058Z</time></trkpt><trkpt lat="42.1471798" lon="11.7916119"><ele>46.0</ele><time>2026-04-19T12:15:24.057Z</time></trkpt><trkpt lat="42.1469659" lon="11.7916216"><ele>46.0</ele><time>2026-04-19T12:15:25.059Z</time></trkpt><trkpt lat="42.146754" lon="11.791641"><ele>46.0</ele><time>2026-04-19T12:15:26.063Z</time></trkpt><trkpt lat="42.1465433" lon="11.7916697"><ele>46.0</ele><time>2026-04-19T12:15:27.066Z</time></trkpt><trkpt lat="42.1463348" lon="11.7917026"><ele>46.0</ele><time>2026-04-19T12:15:28.055Z</time></trkpt><trkpt lat="42.1461293" lon="11.7917405"><ele>46.0</ele><time>2026-04-19T12:15:29.065Z</time></trkpt><trkpt lat="42.145924" lon="11.7917893"><ele>48.0</ele><time>2026-04-19T12:15:30.049Z</time></trkpt><trkpt lat="42.1457189" lon="11.7918496"><ele>50.0</ele><time>2026-04-19T12:15:31.049Z</time></trkpt><trkpt lat="42.1455132" lon="11.7919193"><ele>52.0</ele><time>2026-04-19T12:15:32.055Z</time></trkpt><trkpt lat="42.1453098" lon="11.7919938"><ele>52.33333333333333</ele><time>2026-04-19T12:15:33.058Z</time></trkpt><trkpt lat="42.1451078" lon="11.7920663"><ele>52.66666666666667</ele><time>2026-04-19T12:15:34.056Z</time></trkpt><trkpt lat="42.1449071" lon="11.7921447"><ele>53.0</ele><time>2026-04-19T12:15:35.051Z</time></trkpt><trkpt lat="42.1447077" lon="11.7922229"><ele>53.0</ele><time>2026-04-19T12:15:36.057Z</time></trkpt><trkpt lat="42.1445119" lon="11.792297"><ele>53.0</ele><time>2026-04-19T12:15:37.06Z</time></trkpt><trkpt lat="42.1443168" lon="11.7923665"><ele>53.0</ele><time>2026-04-19T12:15:38.048Z</time></trkpt><trkpt lat="42.1441232" lon="11.7924319"><ele>53.66666666666667</ele><time>2026-04-19T12:15:39.052Z</time></trkpt><trkpt lat="42.143929" lon="11.7924985"><ele>54.33333333333333</ele><time>2026-04-19T12:15:40.054Z</time></trkpt><trkpt lat="42.1437348" lon="11.7925701"><ele>55.0</ele><time>2026-04-19T12:15:41.057Z</time></trkpt><trkpt lat="42.1435396" lon="11.7926451"><ele>56.0</ele><time>2026-04-19T12:15:42.061Z</time></trkpt><trkpt lat="42.1433423" lon="11.7927218"><ele>57.0</ele><time>2026-04-19T12:15:43.056Z</time></trkpt><trkpt lat="42.1431412" lon="11.7928006"><ele>58.0</ele><time>2026-04-19T12:15:44.054Z</time></trkpt><trkpt lat="42.1429377" lon="11.7928801"><ele>59.33333333333333</ele><time>2026-04-19T12:15:45.058Z</time></trkpt><trkpt lat="42.1427323" lon="11.7929593"><ele>60.66666666666667</ele><time>2026-04-19T12:15:46.055Z</time></trkpt><trkpt lat="42.1425254" lon="11.7930397"><ele>62.0</ele><time>2026-04-19T12:15:47.053Z</time></trkpt><trkpt lat="42.142317" lon="11.7931203"><ele>62.66666666666667</ele><time>2026-04-19T12:15:48.063Z</time></trkpt><trkpt lat="42.1421091" lon="11.7932012"><ele>63.33333333333333</ele><time>2026-04-19T12:15:49.075Z</time></trkpt><trkpt lat="42.1419011" lon="11.7932821"><ele>64.0</ele><time>2026-04-19T12:15:50.055Z</time></trkpt><trkpt lat="42.1416947" lon="11.7933623"><ele>64.33333333333333</ele><time>2026-04-19T12:15:51.05Z</time></trkpt><trkpt lat="42.1414892" lon="11.793442"><ele>64.66666666666667</ele><time>2026-04-19T12:15:52.051Z</time></trkpt><trkpt lat="42.1412842" lon="11.7935215"><ele>65.0</ele><time>2026-04-19T12:15:53.049Z</time></trkpt><trkpt lat="42.1410796" lon="11.7936015"><ele>66.0</ele><time>2026-04-19T12:15:54.046Z</time></trkpt><trkpt lat="42.1408756" lon="11.793682"><ele>67.0</ele><time>2026-04-19T12:15:55.062Z</time></trkpt><trkpt lat="42.1406724" lon="11.7937625"><ele>68.0</ele><time>2026-04-19T12:15:56.055Z</time></trkpt><trkpt lat="42.1404689" lon="11.7938431"><ele>68.66666666666667</ele><time>2026-04-19T12:15:57.048Z</time></trkpt><trkpt lat="42.1402671" lon="11.7939217"><ele>69.33333333333333</ele><time>2026-04-19T12:15:58.061Z</time></trkpt><trkpt lat="42.1400652" lon="11.7939986"><ele>70.0</ele><time>2026-04-19T12:15:59.057Z</time></trkpt><trkpt lat="42.139863" lon="11.7940767"><ele>71.0</ele><time>2026-04-19T12:16:00.052Z</time></trkpt><trkpt lat="42.1396623" lon="11.7941548"><ele>72.0</ele><time>2026-04-19T12:16:01.056Z</time></trkpt><trkpt lat="42.1394636" lon="11.7942328"><ele>73.0</ele><time>2026-04-19T12:16:02.052Z</time></trkpt><trkpt lat="42.1392661" lon="11.7943096"><ele>73.66666666666666</ele><time>2026-04-19T12:16:03.047Z</time></trkpt><trkpt lat="42.1390688" lon="11.794386"><ele>74.33333333333333</ele><time>2026-04-19T12:16:04.059Z</time></trkpt><trkpt lat="42.1388722" lon="11.7944629"><ele>75.0</ele><time>2026-04-19T12:16:05.06Z</time></trkpt><trkpt lat="42.1386769" lon="11.7945385"><ele>77.66666666666667</ele><time>2026-04-19T12:16:06.061Z</time></trkpt><trkpt lat="42.1384823" lon="11.7946135"><ele>80.33333333333334</ele><time>2026-04-19T12:16:07.046Z</time></trkpt><trkpt lat="42.1382851" lon="11.7946856"><ele>83.0</ele><time>2026-04-19T12:16:08.055Z</time></trkpt><trkpt lat="42.1380864" lon="11.7947532"><ele>84.33333333333334</ele><time>2026-04-19T12:16:09.051Z</time></trkpt><trkpt lat="42.1378864" lon="11.7948139"><ele>85.66666666666667</ele><time>2026-04-19T12:16:10.071Z</time></trkpt><trkpt lat="42.1376848" lon="11.7948655"><ele>87.0</ele><time>2026-04-19T12:16:11.058Z</time></trkpt><trkpt lat="42.1374796" lon="11.7949081"><ele>88.33333333333333</ele><time>2026-04-19T12:16:12.059Z</time></trkpt><trkpt lat="42.1372718" lon="11.7949381"><ele>89.66666666666666</ele><time>2026-04-19T12:16:13.05Z</time></trkpt><trkpt lat="42.1370637" lon="11.7949571"><ele>91.0</ele><time>2026-04-19T12:16:14.068Z</time></trkpt><trkpt lat="42.1368544" lon="11.7949681"><ele>91.0</ele><time>2026-04-19T12:16:15.062Z</time></trkpt><trkpt lat="42.1366459" lon="11.7949672"><ele>91.0</ele><time>2026-04-19T12:16:16.063Z</time></trkpt><trkpt lat="42.1364382" lon="11.7949554"><ele>91.0</ele><time>2026-04-19T12:16:17.058Z</time></trkpt><trkpt lat="42.1362308" lon="11.7949365"><ele>91.66666666666666</ele><time>2026-04-19T12:16:18.059Z</time></trkpt><trkpt lat="42.1360219" lon="11.7949102"><ele>92.33333333333333</ele><time>2026-04-19T12:16:19.055Z</time></trkpt><trkpt lat="42.1358121" lon="11.7948732"><ele>93.0</ele><time>2026-04-19T12:16:20.054Z</time></trkpt><trkpt lat="42.1356024" lon="11.794824"><ele>93.33333333333333</ele><time>2026-04-19T12:16:21.051Z</time></trkpt><trkpt lat="42.1353933" lon="11.7947662"><ele>93.66666666666666</ele><time>2026-04-19T12:16:22.052Z</time></trkpt><trkpt lat="42.1351839" lon="11.7947021"><ele>94.0</ele><time>2026-04-19T12:16:23.051Z</time></trkpt><trkpt lat="42.1349741" lon="11.7946323"><ele>94.66666666666666</ele><time>2026-04-19T12:16:24.053Z</time></trkpt><trkpt lat="42.1347651" lon="11.7945579"><ele>95.33333333333333</ele><time>2026-04-19T12:16:25.047Z</time></trkpt><trkpt lat="42.134559" lon="11.7944801"><ele>96.0</ele><time>2026-04-19T12:16:26.06Z</time></trkpt><trkpt lat="42.1343571" lon="11.7944042"><ele>95.0</ele><time>2026-04-19T12:16:27.062Z</time></trkpt><trkpt lat="42.1341583" lon="11.7943326"><ele>94.0</ele><time>2026-04-19T12:16:28.051Z</time></trkpt><trkpt lat="42.1339618" lon="11.7942631"><ele>93.0</ele><time>2026-04-19T12:16:29.08Z</time></trkpt><trkpt lat="42.1337636" lon="11.7941942"><ele>93.0</ele><time>2026-04-19T12:16:30.051Z</time></trkpt><trkpt lat="42.133563" lon="11.7941231"><ele>93.0</ele><time>2026-04-19T12:16:31.05Z</time></trkpt><trkpt lat="42.1333577" lon="11.7940468"><ele>93.0</ele><time>2026-04-19T12:16:32.05Z</time></trkpt><trkpt lat="42.1331574" lon="11.7939744"><ele>92.33333333333333</ele><time>2026-04-19T12:16:33.052Z</time></trkpt><trkpt lat="42.1329691" lon="11.7939036"><ele>91.66666666666666</ele><time>2026-04-19T12:16:34.062Z</time></trkpt><trkpt lat="42.1327785" lon="11.7938304"><ele>91.0</ele><time>2026-04-19T12:16:35.064Z</time></trkpt><trkpt lat="42.132587" lon="11.7937569"><ele>91.0</ele><time>2026-04-19T12:16:36.049Z</time></trkpt><trkpt lat="42.1323926" lon="11.7936849"><ele>91.0</ele><time>2026-04-19T12:16:37.071Z</time></trkpt><trkpt lat="42.1321983" lon="11.7936115"><ele>91.0</ele><time>2026-04-19T12:16:38.062Z</time></trkpt><trkpt lat="42.1320163" lon="11.7935425"><ele>89.66666666666666</ele><time>2026-04-19T12:16:39.05Z</time></trkpt><trkpt lat="42.1318489" lon="11.7934802"><ele>88.33333333333333</ele><time>2026-04-19T12:16:40.05Z</time></trkpt><trkpt lat="42.1316894" lon="11.7934222"><ele>87.0</ele><time>2026-04-19T12:16:41.056Z</time></trkpt><trkpt lat="42.1315392" lon="11.7933693"><ele>85.66666666666667</ele><time>2026-04-19T12:16:42.064Z</time></trkpt><trkpt lat="42.1314043" lon="11.7933094"><ele>84.33333333333334</ele><time>2026-04-19T12:16:43.063Z</time></trkpt><trkpt lat="42.1312489" lon="11.7932484"><ele>83.0</ele><time>2026-04-19T12:16:44.053Z</time></trkpt><trkpt lat="42.1310992" lon="11.7931826"><ele>83.0</ele><time>2026-04-19T12:16:45.056Z</time></trkpt><trkpt lat="42.1309473" lon="11.7931233"><ele>83.0</ele><time>2026-04-19T12:16:46.052Z</time></trkpt><trkpt lat="42.1307942" lon="11.7930618"><ele>83.0</ele><time>2026-04-19T12:16:47.054Z</time></trkpt><trkpt lat="42.1306417" lon="11.7929917"><ele>82.5</ele><time>2026-04-19T12:16:48.056Z</time></trkpt><trkpt lat="42.1304994" lon="11.7929082"><ele>82.0</ele><time>2026-04-19T12:16:49.061Z</time></trkpt><trkpt lat="42.1303662" lon="11.7928172"><ele>81.5</ele><time>2026-04-19T12:16:50.058Z</time></trkpt><trkpt lat="42.130241" lon="11.7927262"><ele>81.0</ele><time>2026-04-19T12:16:51.068Z</time></trkpt><trkpt lat="42.1301239" lon="11.7926331"><ele>79.75</ele><time>2026-04-19T12:16:52.074Z</time></trkpt><trkpt lat="42.1300177" lon="11.7925358"><ele>78.5</ele><time>2026-04-19T12:16:53.058Z</time></trkpt><trkpt lat="42.129921" lon="11.7924349"><ele>77.25</ele><time>2026-04-19T12:16:54.065Z</time></trkpt><trkpt lat="42.129831" lon="11.7923207"><ele>76.0</ele><time>2026-04-19T12:16:55.045Z</time></trkpt><trkpt lat="42.1297474" lon="11.7921906"><ele>74.75</ele><time>2026-04-19T12:16:56.062Z</time></trkpt><trkpt lat="42.1296757" lon="11.7920466"><ele>73.5</ele><time>2026-04-19T12:16:57.055Z</time></trkpt><trkpt lat="42.1296152" lon="11.7918868"><ele>72.25</ele><time>2026-04-19T12:16:58.069Z</time></trkpt><trkpt lat="42.1295652" lon="11.7917179"><ele>71.0</ele><time>2026-04-19T12:16:59.067Z</time></trkpt><trkpt lat="42.1295293" lon="11.7915444"><ele>71.0</ele><time>2026-04-19T12:17:00.053Z</time></trkpt><trkpt lat="42.1295058" lon="11.7913617"><ele>71.0</ele><time>2026-04-19T12:17:01.073Z</time></trkpt><trkpt lat="42.1294939" lon="11.791174"><ele>71.0</ele><time>2026-04-19T12:17:02.056Z</time></trkpt><trkpt lat="42.1294833" lon="11.7909948"><ele>71.0</ele><time>2026-04-19T12:17:03.065Z</time></trkpt><trkpt lat="42.1294743" lon="11.7908202"><ele>70.5</ele><time>2026-04-19T12:17:04.052Z</time></trkpt><trkpt lat="42.1294641" lon="11.7906618"><ele>70.0</ele><time>2026-04-19T12:17:05.063Z</time></trkpt><trkpt lat="42.1294565" lon="11.7905018"><ele>69.5</ele><time>2026-04-19T12:17:06.066Z</time></trkpt><trkpt lat="42.1294487" lon="11.7903414"><ele>69.0</ele><time>2026-04-19T12:17:07.063Z</time></trkpt><trkpt lat="42.1294418" lon="11.7901903"><ele>69.0</ele><time>2026-04-19T12:17:08.053Z</time></trkpt><trkpt lat="42.129434" lon="11.7900423"><ele>69.0</ele><time>2026-04-19T12:17:09.063Z</time></trkpt><trkpt lat="42.1294269" lon="11.7899011"><ele>69.0</ele><time>2026-04-19T12:17:10.065Z</time></trkpt><trkpt lat="42.1294294" lon="11.7897713"><ele>69.0</ele><time>2026-04-19T12:17:11.057Z</time></trkpt><trkpt lat="42.1294515" lon="11.7896527"><ele>69.0</ele><time>2026-04-19T12:17:12.064Z</time></trkpt><trkpt lat="42.1294894" lon="11.7895449"><ele>69.0</ele><time>2026-04-19T12:17:13.061Z</time></trkpt><trkpt lat="42.12954" lon="11.7894435"><ele>69.0</ele><time>2026-04-19T12:17:14.057Z</time></trkpt><trkpt lat="42.1296031" lon="11.7893596"><ele>69.0</ele><time>2026-04-19T12:17:15.056Z</time></trkpt><trkpt lat="42.1296695" lon="11.7892863"><ele>69.0</ele><time>2026-04-19T12:17:16.06Z</time></trkpt><trkpt lat="42.1297361" lon="11.7892161"><ele>69.0</ele><time>2026-04-19T12:17:17.069Z</time></trkpt><trkpt lat="42.1298025" lon="11.7891387"><ele>69.0</ele><time>2026-04-19T12:17:18.055Z</time></trkpt><trkpt lat="42.1298689" lon="11.7890476"><ele>68.2</ele><time>2026-04-19T12:17:19.066Z</time></trkpt><trkpt lat="42.1299347" lon="11.7889426"><ele>67.4</ele><time>2026-04-19T12:17:20.071Z</time></trkpt><trkpt lat="42.1300003" lon="11.788825"><ele>66.6</ele><time>2026-04-19T12:17:21.058Z</time></trkpt><trkpt lat="42.1300634" lon="11.7887008"><ele>65.8</ele><time>2026-04-19T12:17:22.066Z</time></trkpt><trkpt lat="42.1301242" lon="11.7885723"><ele>65.0</ele><time>2026-04-19T12:17:23.053Z</time></trkpt><trkpt lat="42.1301751" lon="11.7884465"><ele>64.66666666666667</ele><time>2026-04-19T12:17:24.055Z</time></trkpt><trkpt lat="42.1302178" lon="11.7883273"><ele>64.33333333333334</ele><time>2026-04-19T12:17:25.055Z</time></trkpt><trkpt lat="42.1302472" lon="11.7882112"><ele>64.0</ele><time>2026-04-19T12:17:26.06Z</time></trkpt><trkpt lat="42.1302564" lon="11.7880952"><ele>63.66666666666667</ele><time>2026-04-19T12:17:27.057Z</time></trkpt><trkpt lat="42.130247" lon="11.7879825"><ele>63.333333333333336</ele><time>2026-04-19T12:17:28.054Z</time></trkpt><trkpt lat="42.1302195" lon="11.787879"><ele>63.0</ele><time>2026-04-19T12:17:29.056Z</time></trkpt><trkpt lat="42.130174" lon="11.7877857"><ele>63.0</ele><time>2026-04-19T12:17:30.049Z</time></trkpt><trkpt lat="42.1301179" lon="11.7876985"><ele>63.0</ele><time>2026-04-19T12:17:31.05Z</time></trkpt><trkpt lat="42.1300599" lon="11.7876071"><ele>63.0</ele><time>2026-04-19T12:17:32.048Z</time></trkpt><trkpt lat="42.1299999" lon="11.7875112"><ele>63.0</ele><time>2026-04-19T12:17:33.048Z</time></trkpt><trkpt lat="42.1299384" lon="11.7874067"><ele>63.0</ele><time>2026-04-19T12:17:34.051Z</time></trkpt><trkpt lat="42.129879" lon="11.7872895"><ele>63.0</ele><time>2026-04-19T12:17:35.051Z</time></trkpt><trkpt lat="42.1298134" lon="11.787165"><ele>63.0</ele><time>2026-04-19T12:17:36.051Z</time></trkpt><trkpt lat="42.1297386" lon="11.7870423"><ele>63.0</ele><time>2026-04-19T12:17:37.049Z</time></trkpt><trkpt lat="42.1296346" lon="11.7869317"><ele>63.0</ele><time>2026-04-19T12:17:38.051Z</time></trkpt><trkpt lat="42.1295202" lon="11.7868379"><ele>62.75</ele><time>2026-04-19T12:17:39.054Z</time></trkpt><trkpt lat="42.1293978" lon="11.7867501"><ele>62.5</ele><time>2026-04-19T12:17:40.054Z</time></trkpt><trkpt lat="42.1292646" lon="11.786671"><ele>62.25</ele><time>2026-04-19T12:17:41.064Z</time></trkpt><trkpt lat="42.1291232" lon="11.7866041"><ele>62.0</ele><time>2026-04-19T12:17:42.049Z</time></trkpt><trkpt lat="42.1289732" lon="11.786534"><ele>62.0</ele><time>2026-04-19T12:17:43.052Z</time></trkpt><trkpt lat="42.1288211" lon="11.7864613"><ele>62.0</ele><time>2026-04-19T12:17:44.064Z</time></trkpt><trkpt lat="42.128664" lon="11.7863848"><ele>62.0</ele><time>2026-04-19T12:17:45.049Z</time></trkpt><trkpt lat="42.1285062" lon="11.7863051"><ele>62.0</ele><time>2026-04-19T12:17:46.056Z</time></trkpt><trkpt lat="42.12835" lon="11.7862183"><ele>62.0</ele><time>2026-04-19T12:17:47.056Z</time></trkpt><trkpt lat="42.1281952" lon="11.7861334"><ele>62.0</ele><time>2026-04-19T12:17:48.051Z</time></trkpt><trkpt lat="42.128048" lon="11.7860117"><ele>60.66666666666667</ele><time>2026-04-19T12:17:49.045Z</time></trkpt><trkpt lat="42.1278874" lon="11.7858974"><ele>59.33333333333333</ele><time>2026-04-19T12:17:50.044Z</time></trkpt><trkpt lat="42.1277201" lon="11.7858062"><ele>58.0</ele><time>2026-04-19T12:17:51.045Z</time></trkpt><trkpt lat="42.1260112" lon="11.7845163"><ele>55.0</ele><time>2026-04-19T12:18:03.024Z</time></trkpt><trkpt lat="42.1258929" lon="11.7844385"><ele>52.0</ele><time>2026-04-19T12:18:04.064Z</time></trkpt><trkpt lat="42.1257523" lon="11.7843291"><ele>49.0</ele><time>2026-04-19T12:18:05.056Z</time></trkpt><trkpt lat="42.1256203" lon="11.7841986"><ele>46.33333333333333</ele><time>2026-04-19T12:18:06.048Z</time></trkpt><trkpt lat="42.1254952" lon="11.7840503"><ele>43.666666666666664</ele><time>2026-04-19T12:18:07.06Z</time></trkpt><trkpt lat="42.1253783" lon="11.7838876"><ele>41.0</ele><time>2026-04-19T12:18:08.065Z</time></trkpt><trkpt lat="42.1252697" lon="11.7837092"><ele>41.0</ele><time>2026-04-19T12:18:09.061Z</time></trkpt><trkpt lat="42.1251691" lon="11.7835174"><ele>41.0</ele><time>2026-04-19T12:18:10.054Z</time></trkpt><trkpt lat="42.1250817" lon="11.7833235"><ele>41.0</ele><time>2026-04-19T12:18:11.065Z</time></trkpt><trkpt lat="42.1250075" lon="11.7831009"><ele>41.0</ele><time>2026-04-19T12:18:12.063Z</time></trkpt><trkpt lat="42.1249552" lon="11.7828716"><ele>41.0</ele><time>2026-04-19T12:18:13.053Z</time></trkpt><trkpt lat="42.1249135" lon="11.7826392"><ele>41.0</ele><time>2026-04-19T12:18:14.06Z</time></trkpt><trkpt lat="42.1248975" lon="11.7823981"><ele>40.0</ele><time>2026-04-19T12:18:15.07Z</time></trkpt><trkpt lat="42.1248728" lon="11.7821692"><ele>39.0</ele><time>2026-04-19T12:18:16.065Z</time></trkpt><trkpt lat="42.1248599" lon="11.7819389"><ele>38.0</ele><time>2026-04-19T12:18:17.066Z</time></trkpt><trkpt lat="42.124846" lon="11.7817124"><ele>37.0</ele><time>2026-04-19T12:18:18.052Z</time></trkpt><trkpt lat="42.1248357" lon="11.7814876"><ele>36.0</ele><time>2026-04-19T12:18:19.054Z</time></trkpt><trkpt lat="42.1248113" lon="11.7812444"><ele>35.0</ele><time>2026-04-19T12:18:20.053Z</time></trkpt><trkpt lat="42.1248056" lon="11.7810294"><ele>34.666666666666664</ele><time>2026-04-19T12:18:21.053Z</time></trkpt><trkpt lat="42.1247909" lon="11.7808114"><ele>34.333333333333336</ele><time>2026-04-19T12:18:22.069Z</time></trkpt><trkpt lat="42.1247869" lon="11.7805839"><ele>34.0</ele><time>2026-04-19T12:18:23.05Z</time></trkpt><trkpt lat="42.1247715" lon="11.7803539"><ele>34.0</ele><time>2026-04-19T12:18:24.059Z</time></trkpt><trkpt lat="42.1247587" lon="11.780123"><ele>34.0</ele><time>2026-04-19T12:18:25.058Z</time></trkpt><trkpt lat="42.1247458" lon="11.7798933"><ele>34.0</ele><time>2026-04-19T12:18:26.063Z</time></trkpt><trkpt lat="42.1247342" lon="11.7796642"><ele>34.0</ele><time>2026-04-19T12:18:27.069Z</time></trkpt><trkpt lat="42.1247171" lon="11.7794449"><ele>34.0</ele><time>2026-04-19T12:18:28.057Z</time></trkpt><trkpt lat="42.1247073" lon="11.7792236"><ele>34.0</ele><time>2026-04-19T12:18:29.051Z</time></trkpt><trkpt lat="42.124698" lon="11.7790159"><ele>33.5</ele><time>2026-04-19T12:18:30.058Z</time></trkpt><trkpt lat="42.124692" lon="11.7788241"><ele>33.0</ele><time>2026-04-19T12:18:31.057Z</time></trkpt><trkpt lat="42.1246907" lon="11.7786491"><ele>32.5</ele><time>2026-04-19T12:18:32.058Z</time></trkpt><trkpt lat="42.124709" lon="11.778491"><ele>32.0</ele><time>2026-04-19T12:18:33.055Z</time></trkpt><trkpt lat="42.1247466" lon="11.7783618"><ele>31.999999999999996</ele><time>2026-04-19T12:18:34.053Z</time></trkpt><trkpt lat="42.1247896" lon="11.7782442"><ele>32.0</ele><time>2026-04-19T12:18:35.054Z</time></trkpt><trkpt lat="42.1248252" lon="11.7781234"><ele>32.0</ele><time>2026-04-19T12:18:36.066Z</time></trkpt><trkpt lat="42.1248408" lon="11.7780018"><ele>32.0</ele><time>2026-04-19T12:18:37.047Z</time></trkpt><trkpt lat="42.1248348" lon="11.7778917"><ele>31.999999999999996</ele><time>2026-04-19T12:18:38.069Z</time></trkpt><trkpt lat="42.1248071" lon="11.7777973"><ele>32.0</ele><time>2026-04-19T12:18:39.062Z</time></trkpt><trkpt lat="42.1247649" lon="11.7777107"><ele>31.999999999999996</ele><time>2026-04-19T12:18:40.055Z</time></trkpt><trkpt lat="42.1247046" lon="11.7776508"><ele>32.0</ele><time>2026-04-19T12:18:41.048Z</time></trkpt><trkpt lat="42.1246314" lon="11.7776193"><ele>32.0</ele><time>2026-04-19T12:18:42.06Z</time></trkpt><trkpt lat="42.1245497" lon="11.7776162"><ele>32.0</ele><time>2026-04-19T12:18:43.048Z</time></trkpt><trkpt lat="42.1244722" lon="11.7776416"><ele>31.999999999999996</ele><time>2026-04-19T12:18:44.069Z</time></trkpt><trkpt lat="42.1244134" lon="11.77769"><ele>32.0</ele><time>2026-04-19T12:18:45.058Z</time></trkpt><trkpt lat="42.1243443" lon="11.7778122"><ele>31.999999999999996</ele><time>2026-04-19T12:18:47.056Z</time></trkpt><trkpt lat="42.1242988" lon="11.7779095"><ele>32.0</ele><time>2026-04-19T12:18:49.058Z</time></trkpt><trkpt lat="42.1242279" lon="11.7779026"><ele>32.0</ele><time>2026-04-19T12:18:51.06Z</time></trkpt><trkpt lat="42.1241547" lon="11.7778941"><ele>32.0</ele><time>2026-04-19T12:18:53.068Z</time></trkpt><trkpt lat="42.1240498" lon="11.7779397"><ele>31.999999999999996</ele><time>2026-04-19T12:18:55.055Z</time></trkpt><trkpt lat="42.1239736" lon="11.7779594"><ele>32.0</ele><time>2026-04-19T12:18:56.057Z</time></trkpt><trkpt lat="42.1238815" lon="11.7779689"><ele>31.5</ele><time>2026-04-19T12:18:57.059Z</time></trkpt><trkpt lat="42.1237774" lon="11.7779719"><ele>31.0</ele><time>2026-04-19T12:18:58.062Z</time></trkpt><trkpt lat="42.123662" lon="11.7779747"><ele>30.5</ele><time>2026-04-19T12:18:59.062Z</time></trkpt><trkpt lat="42.1235375" lon="11.7779828"><ele>30.0</ele><time>2026-04-19T12:19:00.047Z</time></trkpt><trkpt lat="42.1234012" lon="11.7779908"><ele>30.0</ele><time>2026-04-19T12:19:01.066Z</time></trkpt><trkpt lat="42.1232519" lon="11.7780053"><ele>30.0</ele><time>2026-04-19T12:19:02.069Z</time></trkpt><trkpt lat="42.1230991" lon="11.7780227"><ele>30.0</ele><time>2026-04-19T12:19:03.063Z</time></trkpt><trkpt lat="42.1229518" lon="11.7780398"><ele>29.666666666666664</ele><time>2026-04-19T12:19:04.068Z</time></trkpt><trkpt lat="42.1227984" lon="11.7780603"><ele>29.333333333333332</ele><time>2026-04-19T12:19:05.067Z</time></trkpt><trkpt lat="42.1226389" lon="11.778082"><ele>29.0</ele><time>2026-04-19T12:19:06.054Z</time></trkpt><trkpt lat="42.1224747" lon="11.7781029"><ele>28.0</ele><time>2026-04-19T12:19:07.074Z</time></trkpt><trkpt lat="42.1223082" lon="11.7781212"><ele>27.0</ele><time>2026-04-19T12:19:08.06Z</time></trkpt><trkpt lat="42.1221504" lon="11.7781384"><ele>26.0</ele><time>2026-04-19T12:19:09.065Z</time></trkpt><trkpt lat="42.1219921" lon="11.7781548"><ele>26.0</ele><time>2026-04-19T12:19:10.058Z</time></trkpt><trkpt lat="42.1218272" lon="11.7781717"><ele>26.0</ele><time>2026-04-19T12:19:11.067Z</time></trkpt><trkpt lat="42.1216558" lon="11.778191"><ele>26.0</ele><time>2026-04-19T12:19:12.052Z</time></trkpt><trkpt lat="42.1214854" lon="11.7782115"><ele>26.333333333333332</ele><time>2026-04-19T12:19:13.057Z</time></trkpt><trkpt lat="42.1213185" lon="11.7782315"><ele>26.666666666666664</ele><time>2026-04-19T12:19:14.056Z</time></trkpt><trkpt lat="42.121165" lon="11.7782488"><ele>27.0</ele><time>2026-04-19T12:19:15.056Z</time></trkpt><trkpt lat="42.1210249" lon="11.7782642"><ele>27.0</ele><time>2026-04-19T12:19:16.059Z</time></trkpt><trkpt lat="42.1208961" lon="11.7782741"><ele>27.0</ele><time>2026-04-19T12:19:17.083Z</time></trkpt><trkpt lat="42.1207742" lon="11.7782865"><ele>27.0</ele><time>2026-04-19T12:19:18.064Z</time></trkpt><trkpt lat="42.1206548" lon="11.7782856"><ele>27.0</ele><time>2026-04-19T12:19:19.043Z</time></trkpt><trkpt lat="42.1205383" lon="11.7782526"><ele>26.5</ele><time>2026-04-19T12:19:20.075Z</time></trkpt><trkpt lat="42.1204257" lon="11.7781971"><ele>26.0</ele><time>2026-04-19T12:19:21.057Z</time></trkpt><trkpt lat="42.1203103" lon="11.7781494"><ele>25.5</ele><time>2026-04-19T12:19:22.053Z</time></trkpt><trkpt lat="42.1201826" lon="11.7781238"><ele>25.0</ele><time>2026-04-19T12:19:23.059Z</time></trkpt><trkpt lat="42.1200524" lon="11.7781423"><ele>25.0</ele><time>2026-04-19T12:19:24.06Z</time></trkpt><trkpt lat="42.11992" lon="11.7782015"><ele>25.0</ele><time>2026-04-19T12:19:25.059Z</time></trkpt><trkpt lat="42.1197845" lon="11.7782858"><ele>25.0</ele><time>2026-04-19T12:19:26.053Z</time></trkpt><trkpt lat="42.1196472" lon="11.7783729"><ele>25.0</ele><time>2026-04-19T12:19:27.058Z</time></trkpt><trkpt lat="42.1194985" lon="11.7784218"><ele>24.0</ele><time>2026-04-19T12:19:28.056Z</time></trkpt><trkpt lat="42.1193441" lon="11.7784519"><ele>23.0</ele><time>2026-04-19T12:19:29.051Z</time></trkpt><trkpt lat="42.1191859" lon="11.7784721"><ele>22.0</ele><time>2026-04-19T12:19:30.058Z</time></trkpt><trkpt lat="42.1190264" lon="11.7784936"><ele>22.0</ele><time>2026-04-19T12:19:31.052Z</time></trkpt><trkpt lat="42.1188661" lon="11.7785196"><ele>22.0</ele><time>2026-04-19T12:19:32.05Z</time></trkpt><trkpt lat="42.1187017" lon="11.7785432"><ele>22.0</ele><time>2026-04-19T12:19:33.056Z</time></trkpt><trkpt lat="42.1185405" lon="11.7785609"><ele>22.0</ele><time>2026-04-19T12:19:34.06Z</time></trkpt><trkpt lat="42.1183829" lon="11.778578"><ele>22.0</ele><time>2026-04-19T12:19:35.052Z</time></trkpt><trkpt lat="42.1182201" lon="11.7785931"><ele>22.0</ele><time>2026-04-19T12:19:36.05Z</time></trkpt><trkpt lat="42.1180567" lon="11.7786092"><ele>21.333333333333332</ele><time>2026-04-19T12:19:37.062Z</time></trkpt><trkpt lat="42.1178916" lon="11.7786243"><ele>20.666666666666668</ele><time>2026-04-19T12:19:38.064Z</time></trkpt><trkpt lat="42.1177249" lon="11.7786397"><ele>20.0</ele><time>2026-04-19T12:19:39.063Z</time></trkpt><trkpt lat="42.1175596" lon="11.7786565"><ele>20.333333333333336</ele><time>2026-04-19T12:19:40.059Z</time></trkpt><trkpt lat="42.1173958" lon="11.7786706"><ele>20.666666666666668</ele><time>2026-04-19T12:19:41.053Z</time></trkpt><trkpt lat="42.1172315" lon="11.7786839"><ele>21.0</ele><time>2026-04-19T12:19:42.052Z</time></trkpt><trkpt lat="42.1170725" lon="11.7786987"><ele>21.0</ele><time>2026-04-19T12:19:43.059Z</time></trkpt><trkpt lat="42.1169218" lon="11.7787116"><ele>21.0</ele><time>2026-04-19T12:19:44.058Z</time></trkpt><trkpt lat="42.1167829" lon="11.7787259"><ele>21.0</ele><time>2026-04-19T12:19:45.055Z</time></trkpt><trkpt lat="42.1166567" lon="11.7787373"><ele>21.0</ele><time>2026-04-19T12:19:46.063Z</time></trkpt><trkpt lat="42.1165437" lon="11.7787441"><ele>20.6</ele><time>2026-04-19T12:19:47.064Z</time></trkpt><trkpt lat="42.1164413" lon="11.7787436"><ele>20.200000000000003</ele><time>2026-04-19T12:19:48.05Z</time></trkpt><trkpt lat="42.11634" lon="11.7787456"><ele>19.799999999999997</ele><time>2026-04-19T12:19:49.061Z</time></trkpt><trkpt lat="42.1162351" lon="11.7787578"><ele>19.4</ele><time>2026-04-19T12:19:50.064Z</time></trkpt><trkpt lat="42.1161218" lon="11.7787829"><ele>19.0</ele><time>2026-04-19T12:19:51.055Z</time></trkpt><trkpt lat="42.1159976" lon="11.7788201"><ele>19.0</ele><time>2026-04-19T12:19:52.058Z</time></trkpt><trkpt lat="42.1158633" lon="11.7788626"><ele>19.0</ele><time>2026-04-19T12:19:53.057Z</time></trkpt><trkpt lat="42.1157228" lon="11.7789062"><ele>19.0</ele><time>2026-04-19T12:19:54.052Z</time></trkpt><trkpt lat="42.1155785" lon="11.7789541"><ele>19.0</ele><time>2026-04-19T12:19:55.051Z</time></trkpt><trkpt lat="42.1154306" lon="11.7790044"><ele>17.0</ele><time>2026-04-19T12:19:56.06Z</time></trkpt><trkpt lat="42.1152801" lon="11.7790569"><ele>15.0</ele><time>2026-04-19T12:19:57.051Z</time></trkpt><trkpt lat="42.1151291" lon="11.7791166"><ele>13.0</ele><time>2026-04-19T12:19:58.055Z</time></trkpt><trkpt lat="42.1149783" lon="11.7791815"><ele>12.333333333333332</ele><time>2026-04-19T12:19:59.056Z</time></trkpt><trkpt lat="42.1148279" lon="11.7792524"><ele>11.666666666666666</ele><time>2026-04-19T12:20:00.053Z</time></trkpt><trkpt lat="42.1146769" lon="11.7793299"><ele>11.0</ele><time>2026-04-19T12:20:01.053Z</time></trkpt><trkpt lat="42.1145267" lon="11.7794194"><ele>11.0</ele><time>2026-04-19T12:20:02.07Z</time></trkpt><trkpt lat="42.1143773" lon="11.7795118"><ele>11.0</ele><time>2026-04-19T12:20:03.065Z</time></trkpt><trkpt lat="42.1140845" lon="11.779728"><ele>10.0</ele><time>2026-04-19T12:20:05.056Z</time></trkpt><trkpt lat="42.1139409" lon="11.7798454"><ele>9.0</ele><time>2026-04-19T12:20:06.059Z</time></trkpt><trkpt lat="42.1136537" lon="11.7800906"><ele>11.0</ele><time>2026-04-19T12:20:08.063Z</time></trkpt><trkpt lat="42.1135146" lon="11.7802247"><ele>13.0</ele><time>2026-04-19T12:20:09.062Z</time></trkpt><trkpt lat="42.1131191" lon="11.7806665"><ele>13.0</ele><time>2026-04-19T12:20:12.066Z</time></trkpt><trkpt lat="42.1129946" lon="11.780821"><ele>13.0</ele><time>2026-04-19T12:20:13.071Z</time></trkpt><trkpt lat="42.112869" lon="11.7809792"><ele>13.0</ele><time>2026-04-19T12:20:14.067Z</time></trkpt><trkpt lat="42.1127427" lon="11.7811406"><ele>14.333333333333332</ele><time>2026-04-19T12:20:15.066Z</time></trkpt><trkpt lat="42.1126199" lon="11.7813027"><ele>15.666666666666668</ele><time>2026-04-19T12:20:16.06Z</time></trkpt><trkpt lat="42.1124924" lon="11.7814644"><ele>17.0</ele><time>2026-04-19T12:20:17.066Z</time></trkpt><trkpt lat="42.1123644" lon="11.7816278"><ele>17.0</ele><time>2026-04-19T12:20:18.056Z</time></trkpt><trkpt lat="42.1122367" lon="11.7817935"><ele>17.0</ele><time>2026-04-19T12:20:19.067Z</time></trkpt><trkpt lat="42.1121085" lon="11.7819617"><ele>17.0</ele><time>2026-04-19T12:20:20.064Z</time></trkpt><trkpt lat="42.1119796" lon="11.7821325"><ele>17.333333333333336</ele><time>2026-04-19T12:20:21.051Z</time></trkpt><trkpt lat="42.1118485" lon="11.7823051"><ele>17.666666666666668</ele><time>2026-04-19T12:20:22.055Z</time></trkpt><trkpt lat="42.1117151" lon="11.7824751"><ele>18.0</ele><time>2026-04-19T12:20:23.057Z</time></trkpt><trkpt lat="42.1115815" lon="11.7826436"><ele>18.333333333333332</ele><time>2026-04-19T12:20:24.058Z</time></trkpt><trkpt lat="42.1114479" lon="11.7828102"><ele>18.666666666666664</ele><time>2026-04-19T12:20:25.06Z</time></trkpt><trkpt lat="42.1113148" lon="11.7829742"><ele>19.0</ele><time>2026-04-19T12:20:26.056Z</time></trkpt><trkpt lat="42.1111832" lon="11.7831369"><ele>19.0</ele><time>2026-04-19T12:20:27.057Z</time></trkpt><trkpt lat="42.1110554" lon="11.7833"><ele>19.0</ele><time>2026-04-19T12:20:28.053Z</time></trkpt><trkpt lat="42.1109308" lon="11.7834624"><ele>19.0</ele><time>2026-04-19T12:20:29.057Z</time></trkpt><trkpt lat="42.1108088" lon="11.7836219"><ele>19.75</ele><time>2026-04-19T12:20:30.052Z</time></trkpt><trkpt lat="42.1106894" lon="11.7837757"><ele>20.5</ele><time>2026-04-19T12:20:31.059Z</time></trkpt><trkpt lat="42.11058" lon="11.783914"><ele>21.25</ele><time>2026-04-19T12:20:32.052Z</time></trkpt><trkpt lat="42.1104868" lon="11.7840301"><ele>22.0</ele><time>2026-04-19T12:20:33.05Z</time></trkpt><trkpt lat="42.1103998" lon="11.7841384"><ele>22.0</ele><time>2026-04-19T12:20:34.055Z</time></trkpt><trkpt lat="42.1103172" lon="11.7842386"><ele>22.0</ele><time>2026-04-19T12:20:35.048Z</time></trkpt><trkpt lat="42.1102406" lon="11.7843298"><ele>22.0</ele><time>2026-04-19T12:20:36.062Z</time></trkpt><trkpt lat="42.1101719" lon="11.784415"><ele>22.0</ele><time>2026-04-19T12:20:37.055Z</time></trkpt><trkpt lat="42.1101093" lon="11.7844943"><ele>22.0</ele><time>2026-04-19T12:20:38.053Z</time></trkpt><trkpt lat="42.1100501" lon="11.7845688"><ele>22.5</ele><time>2026-04-19T12:20:39.055Z</time></trkpt><trkpt lat="42.1099967" lon="11.7846369"><ele>23.0</ele><time>2026-04-19T12:20:40.06Z</time></trkpt><trkpt lat="42.1099483" lon="11.7846988"><ele>23.5</ele><time>2026-04-19T12:20:41.056Z</time></trkpt><trkpt lat="42.1098641" lon="11.7848042"><ele>24.0</ele><time>2026-04-19T12:20:43.06Z</time></trkpt><trkpt lat="42.1097964" lon="11.7848888"><ele>24.500000000000004</ele><time>2026-04-19T12:20:45.062Z</time></trkpt><trkpt lat="42.1097416" lon="11.7849522"><ele>25.0</ele><time>2026-04-19T12:20:47.059Z</time></trkpt><trkpt lat="42.1098111" lon="11.784868"><ele>25.000000000000004</ele><time>2026-04-19T12:21:01.067Z</time></trkpt><trkpt lat="42.1098976" lon="11.7847437"><ele>25.0</ele><time>2026-04-19T12:21:03.054Z</time></trkpt><trkpt lat="42.1099485" lon="11.7846793"><ele>25.0</ele><time>2026-04-19T12:21:04.06Z</time></trkpt><trkpt lat="42.1100009" lon="11.7846148"><ele>25.0</ele><time>2026-04-19T12:21:05.058Z</time></trkpt><trkpt lat="42.1100563" lon="11.7845463"><ele>25.000000000000004</ele><time>2026-04-19T12:21:06.059Z</time></trkpt><trkpt lat="42.1101132" lon="11.7844736"><ele>25.0</ele><time>2026-04-19T12:21:07.061Z</time></trkpt><trkpt lat="42.1101701" lon="11.7844023"><ele>24.571428571428573</ele><time>2026-04-19T12:21:08.062Z</time></trkpt><trkpt lat="42.1102256" lon="11.7843326"><ele>24.142857142857142</ele><time>2026-04-19T12:21:09.064Z</time></trkpt><trkpt lat="42.1102791" lon="11.7842642"><ele>23.714285714285715</ele><time>2026-04-19T12:21:10.066Z</time></trkpt><trkpt lat="42.1103321" lon="11.7841988"><ele>23.285714285714285</ele><time>2026-04-19T12:21:11.062Z</time></trkpt><trkpt lat="42.1103796" lon="11.7841394"><ele>22.857142857142858</ele><time>2026-04-19T12:21:12.056Z</time></trkpt><trkpt lat="42.1104363" lon="11.7840413"><ele>22.42857142857143</ele><time>2026-04-19T12:21:14.067Z</time></trkpt><trkpt lat="42.1104051" lon="11.7839658"><ele>22.0</ele><time>2026-04-19T12:21:16.06Z</time></trkpt><trkpt lat="42.1103131" lon="11.7839882"><ele>22.0</ele><time>2026-04-19T12:21:18.063Z</time></trkpt><trkpt lat="42.1102468" lon="11.7840373"><ele>22.0</ele><time>2026-04-19T12:21:19.059Z</time></trkpt><trkpt lat="42.1101682" lon="11.7841008"><ele>22.0</ele><time>2026-04-19T12:21:20.05Z</time></trkpt><trkpt lat="42.1100882" lon="11.7841733"><ele>22.0</ele><time>2026-04-19T12:21:21.064Z</time></trkpt><trkpt lat="42.1100009" lon="11.7842659"><ele>22.0</ele><time>2026-04-19T12:21:22.054Z</time></trkpt><trkpt lat="42.1099101" lon="11.7843681"><ele>21.25</ele><time>2026-04-19T12:21:23.059Z</time></trkpt><trkpt lat="42.1098107" lon="11.7844736"><ele>20.5</ele><time>2026-04-19T12:21:24.059Z</time></trkpt><trkpt lat="42.1097016" lon="11.7845888"><ele>19.75</ele><time>2026-04-19T12:21:25.06Z</time></trkpt><trkpt lat="42.1095863" lon="11.7847169"><ele>19.0</ele><time>2026-04-19T12:21:26.061Z</time></trkpt><trkpt lat="42.1094718" lon="11.7848449"><ele>19.0</ele><time>2026-04-19T12:21:27.069Z</time></trkpt><trkpt lat="42.1093502" lon="11.7849794"><ele>19.0</ele><time>2026-04-19T12:21:28.06Z</time></trkpt><trkpt lat="42.1092209" lon="11.7851211"><ele>19.0</ele><time>2026-04-19T12:21:29.053Z</time></trkpt><trkpt lat="42.1090863" lon="11.7852679"><ele>18.5</ele><time>2026-04-19T12:21:30.06Z</time></trkpt><trkpt lat="42.1089615" lon="11.7854055"><ele>18.0</ele><time>2026-04-19T12:21:31.059Z</time></trkpt><trkpt lat="42.1088484" lon="11.785532"><ele>17.5</ele><time>2026-04-19T12:21:32.056Z</time></trkpt><trkpt lat="42.1087484" lon="11.7856431"><ele>17.0</ele><time>2026-04-19T12:21:33.069Z</time></trkpt><trkpt lat="42.1086544" lon="11.7857294"><ele>17.0</ele><time>2026-04-19T12:21:34.052Z</time></trkpt><trkpt lat="42.1085604" lon="11.7857854"><ele>17.0</ele><time>2026-04-19T12:21:35.06Z</time></trkpt><trkpt lat="42.108464" lon="11.7858136"><ele>17.0</ele><time>2026-04-19T12:21:36.05Z</time></trkpt><trkpt lat="42.1083628" lon="11.7858147"><ele>17.0</ele><time>2026-04-19T12:21:37.078Z</time></trkpt><trkpt lat="42.1082602" lon="11.7857809"><ele>17.0</ele><time>2026-04-19T12:21:38.075Z</time></trkpt><trkpt lat="42.1081571" lon="11.7857287"><ele>16.0</ele><time>2026-04-19T12:21:39.061Z</time></trkpt><trkpt lat="42.1080658" lon="11.7856235"><ele>15.0</ele><time>2026-04-19T12:21:40.063Z</time></trkpt><trkpt lat="42.1079845" lon="11.7855003"><ele>14.0</ele><time>2026-04-19T12:21:41.07Z</time></trkpt><trkpt lat="42.1079012" lon="11.7853629"><ele>13.0</ele><time>2026-04-19T12:21:42.072Z</time></trkpt><trkpt lat="42.1078171" lon="11.7852199"><ele>13.25</ele><time>2026-04-19T12:21:43.06Z</time></trkpt><trkpt lat="42.1077291" lon="11.7850759"><ele>13.5</ele><time>2026-04-19T12:21:44.072Z</time></trkpt><trkpt lat="42.1076466" lon="11.7849331"><ele>13.75</ele><time>2026-04-19T12:21:45.061Z</time></trkpt><trkpt lat="42.1075768" lon="11.7848123"><ele>14.0</ele><time>2026-04-19T12:21:46.055Z</time></trkpt><trkpt lat="42.1075157" lon="11.7847061"><ele>14.0</ele><time>2026-04-19T12:21:47.055Z</time></trkpt><trkpt lat="42.1074529" lon="11.7846046"><ele>13.999999999999998</ele><time>2026-04-19T12:21:48.055Z</time></trkpt><trkpt lat="42.1073877" lon="11.7845088"><ele>13.999999999999998</ele><time>2026-04-19T12:21:49.069Z</time></trkpt><trkpt lat="42.1073226" lon="11.784414"><ele>14.0</ele><time>2026-04-19T12:21:50.06Z</time></trkpt><trkpt lat="42.1072512" lon="11.7843313"><ele>14.0</ele><time>2026-04-19T12:21:51.053Z</time></trkpt><trkpt lat="42.1071671" lon="11.7842796"><ele>12.399999999999999</ele><time>2026-04-19T12:21:52.062Z</time></trkpt><trkpt lat="42.1070761" lon="11.7842568"><ele>10.799999999999999</ele><time>2026-04-19T12:21:53.058Z</time></trkpt><trkpt lat="42.1069856" lon="11.7842474"><ele>9.2</ele><time>2026-04-19T12:21:54.065Z</time></trkpt><trkpt lat="42.10689" lon="11.7842449"><ele>7.6</ele><time>2026-04-19T12:21:55.059Z</time></trkpt><trkpt lat="42.1067865" lon="11.7842472"><ele>6.0</ele><time>2026-04-19T12:21:56.073Z</time></trkpt><trkpt lat="42.1066774" lon="11.7842514"><ele>5.8</ele><time>2026-04-19T12:21:57.067Z</time></trkpt><trkpt lat="42.1065632" lon="11.7842575"><ele>5.6</ele><time>2026-04-19T12:21:58.067Z</time></trkpt><trkpt lat="42.1064554" lon="11.784262"><ele>5.4</ele><time>2026-04-19T12:21:59.072Z</time></trkpt><trkpt lat="42.1063629" lon="11.7842584"><ele>5.2</ele><time>2026-04-19T12:22:00.057Z</time></trkpt><trkpt lat="42.1062857" lon="11.7842524"><ele>5.0</ele><time>2026-04-19T12:22:01.053Z</time></trkpt><trkpt lat="42.1061747" lon="11.7842579"><ele>5.0</ele><time>2026-04-19T12:22:03.063Z</time></trkpt><trkpt lat="42.1060629" lon="11.7843199"><ele>5.0</ele><time>2026-04-19T12:22:05.059Z</time></trkpt><trkpt lat="42.1059943" lon="11.7843844"><ele>5.0</ele><time>2026-04-19T12:22:06.057Z</time></trkpt><trkpt lat="42.105924" lon="11.7844744"><ele>5.0</ele><time>2026-04-19T12:22:07.066Z</time></trkpt><trkpt lat="42.10586" lon="11.7845483"><ele>5.0</ele><time>2026-04-19T12:22:08.049Z</time></trkpt><trkpt lat="42.1057845" lon="11.7846376"><ele>5.0</ele><time>2026-04-19T12:22:10.053Z</time></trkpt><trkpt lat="42.1058616" lon="11.7846406"><ele>5.0</ele><time>2026-04-19T12:22:14.066Z</time></trkpt><trkpt lat="42.1059024" lon="11.7845691"><ele>5.0</ele><time>2026-04-19T12:22:15.056Z</time></trkpt><trkpt lat="42.1059581" lon="11.7844789"><ele>5.0</ele><time>2026-04-19T12:22:16.055Z</time></trkpt><trkpt lat="42.1060239" lon="11.7843724"><ele>5.0</ele><time>2026-04-19T12:22:17.058Z</time></trkpt><trkpt lat="42.106091" lon="11.7842614"><ele>5.0</ele><time>2026-04-19T12:22:18.053Z</time></trkpt><trkpt lat="42.1061622" lon="11.7841424"><ele>5.0</ele><time>2026-04-19T12:22:19.057Z</time></trkpt><trkpt lat="42.1062359" lon="11.7840291"><ele>5.0</ele><time>2026-04-19T12:22:20.055Z</time></trkpt><trkpt lat="42.1063115" lon="11.7839075"><ele>5.0</ele><time>2026-04-19T12:22:21.051Z</time></trkpt><trkpt lat="42.1063874" lon="11.783792"><ele>5.0</ele><time>2026-04-19T12:22:22.05Z</time></trkpt><trkpt lat="42.1064654" lon="11.7836762"><ele>5.0</ele><time>2026-04-19T12:22:23.057Z</time></trkpt><trkpt lat="42.1065428" lon="11.7835631"><ele>5.0</ele><time>2026-04-19T12:22:24.052Z</time></trkpt><trkpt lat="42.1066204" lon="11.7834468"><ele>5.0</ele><time>2026-04-19T12:22:25.063Z</time></trkpt><trkpt lat="42.1066996" lon="11.7833253"><ele>5.0</ele><time>2026-04-19T12:22:26.063Z</time></trkpt><trkpt lat="42.1067838" lon="11.783198"><ele>5.25</ele><time>2026-04-19T12:22:27.05Z</time></trkpt><trkpt lat="42.1068692" lon="11.7830721"><ele>5.5</ele><time>2026-04-19T12:22:28.062Z</time></trkpt><trkpt lat="42.1069534" lon="11.7829477"><ele>5.75</ele><time>2026-04-19T12:22:29.056Z</time></trkpt><trkpt lat="42.1070336" lon="11.7828253"><ele>6.0</ele><time>2026-04-19T12:22:30.049Z</time></trkpt><trkpt lat="42.1071133" lon="11.7827074"><ele>5.75</ele><time>2026-04-19T12:22:31.059Z</time></trkpt><trkpt lat="42.1071933" lon="11.7825898"><ele>5.5</ele><time>2026-04-19T12:22:32.053Z</time></trkpt><trkpt lat="42.107273" lon="11.7824731"><ele>5.25</ele><time>2026-04-19T12:22:33.073Z</time></trkpt><trkpt lat="42.1073514" lon="11.7823551"><ele>5.0</ele><time>2026-04-19T12:22:34.064Z</time></trkpt><trkpt lat="42.1074278" lon="11.7822389"><ele>4.833333333333334</ele><time>2026-04-19T12:22:35.054Z</time></trkpt><trkpt lat="42.1074949" lon="11.7821334"><ele>4.666666666666667</ele><time>2026-04-19T12:22:36.06Z</time></trkpt><trkpt lat="42.1075545" lon="11.7820392"><ele>4.5</ele><time>2026-04-19T12:22:37.059Z</time></trkpt><trkpt lat="42.1076107" lon="11.7819564"><ele>4.333333333333333</ele><time>2026-04-19T12:22:38.049Z</time></trkpt><trkpt lat="42.1076587" lon="11.781892"><ele>4.166666666666666</ele><time>2026-04-19T12:22:39.055Z</time></trkpt><trkpt lat="42.1077205" lon="11.7818399"><ele>4.0</ele><time>2026-04-19T12:22:41.059Z</time></trkpt><trkpt lat="42.1077807" lon="11.78191"><ele>3.833333333333333</ele><time>2026-04-19T12:22:44.067Z</time></trkpt><trkpt lat="42.1077544" lon="11.7820198"><ele>3.6666666666666665</ele><time>2026-04-19T12:22:49.063Z</time></trkpt><trkpt lat="42.1077087" lon="11.7821278"><ele>3.5</ele><time>2026-04-19T12:22:51.071Z</time></trkpt><trkpt lat="42.1076767" lon="11.7822511"><ele>3.333333333333333</ele><time>2026-04-19T12:22:53.06Z</time></trkpt><trkpt lat="42.1076957" lon="11.7823351"><ele>3.1666666666666665</ele><time>2026-04-19T12:22:55.06Z</time></trkpt><trkpt lat="42.1077876" lon="11.7823045"><ele>3.0</ele><time>2026-04-19T12:22:58.059Z</time></trkpt><trkpt lat="42.1078302" lon="11.782231"><ele>2.9999999999999996</ele><time>2026-04-19T12:23:00.069Z</time></trkpt><trkpt lat="42.1079027" lon="11.7821436"><ele>3.0</ele><time>2026-04-19T12:26:43.081Z</time></trkpt><trkpt lat="42.1079741" lon="11.7821256"><ele>3.0</ele><time>2026-04-19T12:26:48.072Z</time></trkpt><trkpt lat="42.1079377" lon="11.7821967"><ele>3.0</ele><time>2026-04-19T12:26:53.061Z</time></trkpt><trkpt lat="42.1078812" lon="11.7821522"><ele>3.0</ele><time>2026-04-19T12:27:59.071Z</time></trkpt><trkpt lat="42.1078419" lon="11.7820684"><ele>2.9999999999999996</ele><time>2026-04-19T12:28:07.063Z</time></trkpt><trkpt lat="42.1078102" lon="11.7819839"><ele>3.0</ele><time>2026-04-19T12:28:09.055Z</time></trkpt><trkpt lat="42.1077553" lon="11.7818784"><ele>3.0</ele><time>2026-04-19T12:28:11.068Z</time></trkpt><trkpt lat="42.1076951" lon="11.7818348"><ele>3.0</ele><time>2026-04-19T12:28:13.064Z</time></trkpt><trkpt lat="42.1076081" lon="11.7818962"><ele>3.0</ele><time>2026-04-19T12:28:15.064Z</time></trkpt><trkpt lat="42.1075531" lon="11.78198"><ele>3.0</ele><time>2026-04-19T12:28:16.072Z</time></trkpt><trkpt lat="42.107492" lon="11.7820739"><ele>3.0</ele><time>2026-04-19T12:28:17.07Z</time></trkpt><trkpt lat="42.1074218" lon="11.7821839"><ele>3.5</ele><time>2026-04-19T12:28:18.057Z</time></trkpt><trkpt lat="42.107344" lon="11.782303"><ele>4.0</ele><time>2026-04-19T12:28:19.069Z</time></trkpt><trkpt lat="42.1072613" lon="11.7824273"><ele>4.5</ele><time>2026-04-19T12:28:20.07Z</time></trkpt><trkpt lat="42.107169" lon="11.7825655"><ele>5.0</ele><time>2026-04-19T12:28:21.051Z</time></trkpt><trkpt lat="42.1070683" lon="11.7827154"><ele>5.333333333333334</ele><time>2026-04-19T12:28:22.077Z</time></trkpt><trkpt lat="42.106964" lon="11.7828669"><ele>5.666666666666667</ele><time>2026-04-19T12:28:23.056Z</time></trkpt><trkpt lat="42.1068547" lon="11.7830273"><ele>6.0</ele><time>2026-04-19T12:28:24.071Z</time></trkpt><trkpt lat="42.106741" lon="11.7832006"><ele>6.0</ele><time>2026-04-19T12:28:25.061Z</time></trkpt><trkpt lat="42.1066206" lon="11.7833838"><ele>6.0</ele><time>2026-04-19T12:28:26.056Z</time></trkpt><trkpt lat="42.1065" lon="11.7835651"><ele>6.0</ele><time>2026-04-19T12:28:27.055Z</time></trkpt><trkpt lat="42.1063768" lon="11.7837484"><ele>5.666666666666667</ele><time>2026-04-19T12:28:28.056Z</time></trkpt><trkpt lat="42.1062503" lon="11.7839346"><ele>5.333333333333334</ele><time>2026-04-19T12:28:29.062Z</time></trkpt><trkpt lat="42.1061213" lon="11.7841279"><ele>5.0</ele><time>2026-04-19T12:28:30.102Z</time></trkpt><trkpt lat="42.1059896" lon="11.7843289"><ele>6.0</ele><time>2026-04-19T12:28:31.109Z</time></trkpt><trkpt lat="42.1058539" lon="11.7845341"><ele>7.0</ele><time>2026-04-19T12:28:32.17Z</time></trkpt><trkpt lat="42.1055744" lon="11.7849523"><ele>7.0</ele><time>2026-04-19T12:28:34.059Z</time></trkpt><trkpt lat="42.1054294" lon="11.7851635"><ele>7.0</ele><time>2026-04-19T12:28:35.058Z</time></trkpt><trkpt lat="42.1052868" lon="11.7853684"><ele>7.0</ele><time>2026-04-19T12:28:36.069Z</time></trkpt><trkpt lat="42.1051514" lon="11.78556"><ele>7.333333333333334</ele><time>2026-04-19T12:28:37.082Z</time></trkpt><trkpt lat="42.1050224" lon="11.7857395"><ele>7.666666666666666</ele><time>2026-04-19T12:28:38.052Z</time></trkpt><trkpt lat="42.1049038" lon="11.7859022"><ele>8.0</ele><time>2026-04-19T12:28:39.066Z</time></trkpt><trkpt lat="42.1047905" lon="11.7860507"><ele>8.0</ele><time>2026-04-19T12:28:40.053Z</time></trkpt><trkpt lat="42.1046845" lon="11.7861923"><ele>8.0</ele><time>2026-04-19T12:28:41.05Z</time></trkpt><trkpt lat="42.1045904" lon="11.7863231"><ele>8.0</ele><time>2026-04-19T12:28:42.058Z</time></trkpt><trkpt lat="42.1045032" lon="11.7864376"><ele>8.0</ele><time>2026-04-19T12:28:43.061Z</time></trkpt><trkpt lat="42.1044251" lon="11.7865371"><ele>8.0</ele><time>2026-04-19T12:28:44.063Z</time></trkpt><trkpt lat="42.1043514" lon="11.7866209"><ele>8.0</ele><time>2026-04-19T12:28:45.06Z</time></trkpt><trkpt lat="42.1042925" lon="11.7866835"><ele>8.0</ele><time>2026-04-19T12:28:46.051Z</time></trkpt><trkpt lat="42.1042306" lon="11.786732"><ele>8.0</ele><time>2026-04-19T12:28:47.063Z</time></trkpt><trkpt lat="42.1041237" lon="11.7867109"><ele>8.0</ele><time>2026-04-19T12:28:49.055Z</time></trkpt><trkpt lat="42.1040228" lon="11.7865801"><ele>7.800000000000001</ele><time>2026-04-19T12:28:51.059Z</time></trkpt><trkpt lat="42.1040075" lon="11.7864677"><ele>7.6000000000000005</ele><time>2026-04-19T12:28:52.054Z</time></trkpt><trkpt lat="42.1039917" lon="11.7863834"><ele>7.3999999999999995</ele><time>2026-04-19T12:28:53.048Z</time></trkpt><trkpt lat="42.1040032" lon="11.7862205"><ele>7.199999999999999</ele><time>2026-04-19T12:28:54.056Z</time></trkpt><trkpt lat="42.1040772" lon="11.7860685"><ele>7.0</ele><time>2026-04-19T12:28:55.056Z</time></trkpt><trkpt lat="42.1041336" lon="11.7859725"><ele>7.0</ele><time>2026-04-19T12:28:56.055Z</time></trkpt><trkpt lat="42.1042048" lon="11.7859079"><ele>6.999999999999999</ele><time>2026-04-19T12:28:57.054Z</time></trkpt><trkpt lat="42.1041291" lon="11.7858957"><ele>6.999999999999999</ele><time>2026-04-19T12:29:01.052Z</time></trkpt><trkpt lat="42.1040332" lon="11.785956"><ele>7.0</ele><time>2026-04-19T12:29:02.065Z</time></trkpt><trkpt lat="42.1039632" lon="11.7860469"><ele>7.0</ele><time>2026-04-19T12:29:03.058Z</time></trkpt><trkpt lat="42.1038935" lon="11.7861588"><ele>7.0</ele><time>2026-04-19T12:29:04.06Z</time></trkpt><trkpt lat="42.1037906" lon="11.7862564"><ele>7.0</ele><time>2026-04-19T12:29:05.056Z</time></trkpt><trkpt lat="42.1036861" lon="11.7863379"><ele>7.0</ele><time>2026-04-19T12:29:06.055Z</time></trkpt><trkpt lat="42.1035601" lon="11.7864103"><ele>7.0</ele><time>2026-04-19T12:29:07.054Z</time></trkpt><trkpt lat="42.1034078" lon="11.7864584"><ele>7.0</ele><time>2026-04-19T12:29:08.052Z</time></trkpt><trkpt lat="42.1032493" lon="11.7864814"><ele>7.0</ele><time>2026-04-19T12:29:09.065Z</time></trkpt><trkpt lat="42.1030826" lon="11.7864898"><ele>7.0</ele><time>2026-04-19T12:29:10.06Z</time></trkpt><trkpt lat="42.1029093" lon="11.7864869"><ele>6.666666666666667</ele><time>2026-04-19T12:29:11.054Z</time></trkpt><trkpt lat="42.1027286" lon="11.7864849"><ele>6.333333333333334</ele><time>2026-04-19T12:29:12.049Z</time></trkpt><trkpt lat="42.102544" lon="11.7864816"><ele>6.0</ele><time>2026-04-19T12:29:13.055Z</time></trkpt><trkpt lat="42.1023555" lon="11.7864705"><ele>7.0</ele><time>2026-04-19T12:29:14.071Z</time></trkpt><trkpt lat="42.1021645" lon="11.7864584"><ele>8.0</ele><time>2026-04-19T12:29:15.053Z</time></trkpt><trkpt lat="42.1019763" lon="11.7864494"><ele>9.0</ele><time>2026-04-19T12:29:16.06Z</time></trkpt><trkpt lat="42.1017886" lon="11.7864424"><ele>9.0</ele><time>2026-04-19T12:29:17.056Z</time></trkpt><trkpt lat="42.1016025" lon="11.7864352"><ele>9.0</ele><time>2026-04-19T12:29:18.062Z</time></trkpt><trkpt lat="42.1014126" lon="11.7864505"><ele>9.0</ele><time>2026-04-19T12:29:19.051Z</time></trkpt><trkpt lat="42.1012266" lon="11.7864681"><ele>9.333333333333334</ele><time>2026-04-19T12:29:20.047Z</time></trkpt><trkpt lat="42.1010437" lon="11.7864984"><ele>9.666666666666668</ele><time>2026-04-19T12:29:21.063Z</time></trkpt><trkpt lat="42.1008694" lon="11.7865409"><ele>10.0</ele><time>2026-04-19T12:29:22.055Z</time></trkpt><trkpt lat="42.1007015" lon="11.7865998"><ele>10.0</ele><time>2026-04-19T12:29:23.051Z</time></trkpt><trkpt lat="42.1005373" lon="11.7866754"><ele>10.0</ele><time>2026-04-19T12:29:24.051Z</time></trkpt><trkpt lat="42.1003828" lon="11.7867821"><ele>10.0</ele><time>2026-04-19T12:29:25.057Z</time></trkpt><trkpt lat="42.1002352" lon="11.7869118"><ele>10.0</ele><time>2026-04-19T12:29:26.05Z</time></trkpt><trkpt lat="42.1000901" lon="11.7870548"><ele>10.0</ele><time>2026-04-19T12:29:27.062Z</time></trkpt><trkpt lat="42.099947" lon="11.7872008"><ele>10.0</ele><time>2026-04-19T12:29:28.057Z</time></trkpt><trkpt lat="42.0998026" lon="11.7873538"><ele>10.0</ele><time>2026-04-19T12:29:29.068Z</time></trkpt><trkpt lat="42.0996557" lon="11.7875049"><ele>10.0</ele><time>2026-04-19T12:29:30.049Z</time></trkpt><trkpt lat="42.0995092" lon="11.7876563"><ele>10.0</ele><time>2026-04-19T12:29:31.05Z</time></trkpt><trkpt lat="42.0993649" lon="11.7878081"><ele>10.0</ele><time>2026-04-19T12:29:32.054Z</time></trkpt><trkpt lat="42.0992204" lon="11.7879628"><ele>10.0</ele><time>2026-04-19T12:29:33.05Z</time></trkpt><trkpt lat="42.0990792" lon="11.7881137"><ele>10.0</ele><time>2026-04-19T12:29:34.055Z</time></trkpt><trkpt lat="42.0989492" lon="11.7882589"><ele>9.0</ele><time>2026-04-19T12:29:35.057Z</time></trkpt><trkpt lat="42.098818" lon="11.7883974"><ele>8.0</ele><time>2026-04-19T12:29:36.054Z</time></trkpt><trkpt lat="42.0986763" lon="11.7885162"><ele>7.0</ele><time>2026-04-19T12:29:37.055Z</time></trkpt><trkpt lat="42.0985195" lon="11.7886095"><ele>7.0</ele><time>2026-04-19T12:29:38.051Z</time></trkpt><trkpt lat="42.0983543" lon="11.7886884"><ele>7.0</ele><time>2026-04-19T12:29:39.047Z</time></trkpt><trkpt lat="42.0981884" lon="11.7887654"><ele>7.0</ele><time>2026-04-19T12:29:40.054Z</time></trkpt><trkpt lat="42.0980211" lon="11.7888449"><ele>7.0</ele><time>2026-04-19T12:29:41.059Z</time></trkpt><trkpt lat="42.0978623" lon="11.7889197"><ele>7.0</ele><time>2026-04-19T12:29:42.051Z</time></trkpt><trkpt lat="42.0977192" lon="11.7889844"><ele>7.0</ele><time>2026-04-19T12:29:43.054Z</time></trkpt><trkpt lat="42.0975929" lon="11.789041"><ele>7.0</ele><time>2026-04-19T12:29:44.055Z</time></trkpt><trkpt lat="42.0974853" lon="11.7890873"><ele>6.999999999999999</ele><time>2026-04-19T12:29:45.046Z</time></trkpt><trkpt lat="42.0973901" lon="11.7891285"><ele>6.999999999999999</ele><time>2026-04-19T12:29:46.059Z</time></trkpt><trkpt lat="42.0973049" lon="11.7891658"><ele>7.0</ele><time>2026-04-19T12:29:47.047Z</time></trkpt><trkpt lat="42.0972264" lon="11.7891997"><ele>7.0</ele><time>2026-04-19T12:29:48.051Z</time></trkpt><trkpt lat="42.0971591" lon="11.7892209"><ele>7.000000000000001</ele><time>2026-04-19T12:29:49.048Z</time></trkpt><trkpt lat="42.0970759" lon="11.7892414"><ele>7.0</ele><time>2026-04-19T12:29:51.053Z</time></trkpt><trkpt lat="42.097006" lon="11.7892809"><ele>7.0</ele><time>2026-04-19T12:29:53.063Z</time></trkpt><trkpt lat="42.0969011" lon="11.7893465"><ele>7.0</ele><time>2026-04-19T12:29:55.06Z</time></trkpt><trkpt lat="42.0968373" lon="11.789379"><ele>7.000000000000001</ele><time>2026-04-19T12:29:56.065Z</time></trkpt><trkpt lat="42.0967769" lon="11.7894075"><ele>7.0</ele><time>2026-04-19T12:29:57.051Z</time></trkpt><trkpt lat="42.096717" lon="11.789436"><ele>7.0</ele><time>2026-04-19T12:29:58.052Z</time></trkpt><trkpt lat="42.0966393" lon="11.7894651"><ele>6.999999999999999</ele><time>2026-04-19T12:29:59.059Z</time></trkpt><trkpt lat="42.0965593" lon="11.7894886"><ele>6.999999999999999</ele><time>2026-04-19T12:30:00.053Z</time></trkpt><trkpt lat="42.096474" lon="11.7894973"><ele>7.0</ele><time>2026-04-19T12:30:01.049Z</time></trkpt><trkpt lat="42.0963752" lon="11.7895025"><ele>7.0</ele><time>2026-04-19T12:30:02.061Z</time></trkpt><trkpt lat="42.0962734" lon="11.789553"><ele>7.500000000000001</ele><time>2026-04-19T12:30:03.054Z</time></trkpt><trkpt lat="42.096189" lon="11.7895572"><ele>8.0</ele><time>2026-04-19T12:30:04.051Z</time></trkpt><trkpt lat="42.0961209" lon="11.7895677"><ele>8.5</ele><time>2026-04-19T12:30:05.051Z</time></trkpt><trkpt lat="42.0960558" lon="11.7895925"><ele>9.0</ele><time>2026-04-19T12:30:06.054Z</time></trkpt><trkpt lat="42.0959944" lon="11.7896408"><ele>9.5</ele><time>2026-04-19T12:30:07.051Z</time></trkpt><trkpt lat="42.095906" lon="11.7896638"><ele>10.0</ele><time>2026-04-19T12:30:08.058Z</time></trkpt><trkpt lat="42.0958206" lon="11.7896461"><ele>10.0</ele><time>2026-04-19T12:30:09.054Z</time></trkpt><trkpt lat="42.0957092" lon="11.7896375"><ele>10.0</ele><time>2026-04-19T12:30:10.056Z</time></trkpt><trkpt lat="42.095608" lon="11.7896807"><ele>10.0</ele><time>2026-04-19T12:30:11.049Z</time></trkpt><trkpt lat="42.0954845" lon="11.7897451"><ele>10.0</ele><time>2026-04-19T12:30:12.054Z</time></trkpt><trkpt lat="42.0953655" lon="11.7897709"><ele>10.0</ele><time>2026-04-19T12:30:13.044Z</time></trkpt><trkpt lat="42.0952515" lon="11.7898119"><ele>10.0</ele><time>2026-04-19T12:30:14.051Z</time></trkpt><trkpt lat="42.0951321" lon="11.7898416"><ele>10.0</ele><time>2026-04-19T12:30:15.046Z</time></trkpt><trkpt lat="42.0950234" lon="11.7898663"><ele>10.0</ele><time>2026-04-19T12:30:16.055Z</time></trkpt><trkpt lat="42.0949377" lon="11.789875"><ele>10.0</ele><time>2026-04-19T12:30:17.083Z</time></trkpt><trkpt lat="42.0948723" lon="11.7898869"><ele>9.666666666666668</ele><time>2026-04-19T12:30:18.056Z</time></trkpt><trkpt lat="42.0948028" lon="11.7899217"><ele>9.333333333333334</ele><time>2026-04-19T12:30:19.05Z</time></trkpt><trkpt lat="42.0947309" lon="11.7899644"><ele>9.0</ele><time>2026-04-19T12:30:20.052Z</time></trkpt><trkpt lat="42.0946528" lon="11.7900203"><ele>8.666666666666666</ele><time>2026-04-19T12:30:21.066Z</time></trkpt><trkpt lat="42.0945711" lon="11.7900829"><ele>8.333333333333332</ele><time>2026-04-19T12:30:22.058Z</time></trkpt><trkpt lat="42.0944873" lon="11.7901499"><ele>8.0</ele><time>2026-04-19T12:30:23.057Z</time></trkpt><trkpt lat="42.0944008" lon="11.7902172"><ele>9.0</ele><time>2026-04-19T12:30:24.072Z</time></trkpt><trkpt lat="42.0943228" lon="11.7902782"><ele>10.0</ele><time>2026-04-19T12:30:25.061Z</time></trkpt><trkpt lat="42.0942609" lon="11.7903294"><ele>11.0</ele><time>2026-04-19T12:30:26.044Z</time></trkpt><trkpt lat="42.0941996" lon="11.7903709"><ele>12.0</ele><time>2026-04-19T12:30:27.06Z</time></trkpt><trkpt lat="42.0941457" lon="11.790416"><ele>13.0</ele><time>2026-04-19T12:30:28.053Z</time></trkpt><trkpt lat="42.0940878" lon="11.7904617"><ele>14.0</ele><time>2026-04-19T12:30:29.053Z</time></trkpt><trkpt lat="42.0940234" lon="11.7905101"><ele>15.0</ele><time>2026-04-19T12:30:30.047Z</time></trkpt><trkpt lat="42.0939424" lon="11.7905667"><ele>15.8</ele><time>2026-04-19T12:30:31.045Z</time></trkpt><trkpt lat="42.0938469" lon="11.7906212"><ele>16.6</ele><time>2026-04-19T12:30:32.047Z</time></trkpt><trkpt lat="42.0937581" lon="11.7906746"><ele>17.4</ele><time>2026-04-19T12:30:33.055Z</time></trkpt><trkpt lat="42.093663" lon="11.7907287"><ele>18.2</ele><time>2026-04-19T12:30:34.049Z</time></trkpt><trkpt lat="42.0935593" lon="11.7907928"><ele>19.0</ele><time>2026-04-19T12:30:35.044Z</time></trkpt><trkpt lat="42.093429" lon="11.7908625"><ele>19.0</ele><time>2026-04-19T12:30:36.054Z</time></trkpt><trkpt lat="42.0933045" lon="11.7909575"><ele>19.0</ele><time>2026-04-19T12:30:37.06Z</time></trkpt><trkpt lat="42.0931793" lon="11.7910291"><ele>19.0</ele><time>2026-04-19T12:30:38.043Z</time></trkpt><trkpt lat="42.0930541" lon="11.7911168"><ele>19.0</ele><time>2026-04-19T12:30:39.052Z</time></trkpt><trkpt lat="42.0929171" lon="11.791222"><ele>18.333333333333332</ele><time>2026-04-19T12:30:40.057Z</time></trkpt><trkpt lat="42.0927699" lon="11.7913583"><ele>17.666666666666668</ele><time>2026-04-19T12:30:41.042Z</time></trkpt><trkpt lat="42.0926165" lon="11.7914814"><ele>17.0</ele><time>2026-04-19T12:30:42.055Z</time></trkpt><trkpt lat="42.0924858" lon="11.7916026"><ele>16.333333333333336</ele><time>2026-04-19T12:30:43.052Z</time></trkpt><trkpt lat="42.0923478" lon="11.7917203"><ele>15.666666666666668</ele><time>2026-04-19T12:30:44.05Z</time></trkpt><trkpt lat="42.0922385" lon="11.7918138"><ele>15.0</ele><time>2026-04-19T12:30:45.055Z</time></trkpt><trkpt lat="42.0921117" lon="11.7919529"><ele>15.0</ele><time>2026-04-19T12:30:46.064Z</time></trkpt><trkpt lat="42.091987" lon="11.7920542"><ele>15.0</ele><time>2026-04-19T12:30:47.052Z</time></trkpt><trkpt lat="42.0918659" lon="11.7921323"><ele>15.0</ele><time>2026-04-19T12:30:48.059Z</time></trkpt><trkpt lat="42.0917547" lon="11.7922117"><ele>15.0</ele><time>2026-04-19T12:30:49.05Z</time></trkpt><trkpt lat="42.0916617" lon="11.7922952"><ele>14.4</ele><time>2026-04-19T12:30:50.055Z</time></trkpt><trkpt lat="42.0915792" lon="11.7923704"><ele>13.8</ele><time>2026-04-19T12:30:51.049Z</time></trkpt><trkpt lat="42.0915039" lon="11.7924423"><ele>13.2</ele><time>2026-04-19T12:30:52.056Z</time></trkpt><trkpt lat="42.091424" lon="11.7925161"><ele>12.6</ele><time>2026-04-19T12:30:53.049Z</time></trkpt><trkpt lat="42.0913504" lon="11.7925721"><ele>12.0</ele><time>2026-04-19T12:30:54.046Z</time></trkpt><trkpt lat="42.0912846" lon="11.7926306"><ele>12.0</ele><time>2026-04-19T12:30:55.064Z</time></trkpt><trkpt lat="42.091227" lon="11.7926831"><ele>12.0</ele><time>2026-04-19T12:30:56.057Z</time></trkpt><trkpt lat="42.0911692" lon="11.7927223"><ele>12.0</ele><time>2026-04-19T12:30:57.046Z</time></trkpt><trkpt lat="42.0910664" lon="11.7927658"><ele>12.0</ele><time>2026-04-19T12:30:59.047Z</time></trkpt><trkpt lat="42.0909659" lon="11.7927471"><ele>12.0</ele><time>2026-04-19T12:31:01.052Z</time></trkpt><trkpt lat="42.090906" lon="11.7927182"><ele>12.0</ele><time>2026-04-19T12:31:02.058Z</time></trkpt><trkpt lat="42.0908325" lon="11.7926596"><ele>12.0</ele><time>2026-04-19T12:31:03.05Z</time></trkpt><trkpt lat="42.0907809" lon="11.7925917"><ele>12.0</ele><time>2026-04-19T12:31:04.053Z</time></trkpt><trkpt lat="42.0907061" lon="11.7925313"><ele>12.0</ele><time>2026-04-19T12:31:06.05Z</time></trkpt><trkpt lat="42.0906177" lon="11.7924251"><ele>12.0</ele><time>2026-04-19T12:31:09.063Z</time></trkpt><trkpt lat="42.0905614" lon="11.7923629"><ele>12.0</ele><time>2026-04-19T12:31:10.047Z</time></trkpt><trkpt lat="42.0905116" lon="11.79231"><ele>12.0</ele><time>2026-04-19T12:31:11.066Z</time></trkpt><trkpt lat="42.0904064" lon="11.7923153"><ele>11.2</ele><time>2026-04-19T12:31:13.053Z</time></trkpt><trkpt lat="42.0903103" lon="11.7924303"><ele>10.399999999999999</ele><time>2026-04-19T12:31:15.061Z</time></trkpt><trkpt lat="42.0902681" lon="11.7925299"><ele>9.600000000000001</ele><time>2026-04-19T12:31:16.064Z</time></trkpt><trkpt lat="42.0902153" lon="11.7926366"><ele>8.8</ele><time>2026-04-19T12:31:17.081Z</time></trkpt><trkpt lat="42.0901674" lon="11.7927461"><ele>8.0</ele><time>2026-04-19T12:31:18.066Z</time></trkpt><trkpt lat="42.0901227" lon="11.7928489"><ele>8.0</ele><time>2026-04-19T12:31:19.054Z</time></trkpt><trkpt lat="42.090071" lon="11.7929559"><ele>8.0</ele><time>2026-04-19T12:31:20.067Z</time></trkpt><trkpt lat="42.0900185" lon="11.7930656"><ele>8.0</ele><time>2026-04-19T12:31:21.06Z</time></trkpt><trkpt lat="42.0899621" lon="11.7931768"><ele>8.0</ele><time>2026-04-19T12:31:22.051Z</time></trkpt><trkpt lat="42.0899031" lon="11.7932935"><ele>8.0</ele><time>2026-04-19T12:31:23.053Z</time></trkpt><trkpt lat="42.0898445" lon="11.7934153"><ele>6.75</ele><time>2026-04-19T12:31:24.053Z</time></trkpt><trkpt lat="42.0897864" lon="11.7935408"><ele>5.5</ele><time>2026-04-19T12:31:25.057Z</time></trkpt><trkpt lat="42.0897265" lon="11.7936736"><ele>4.25</ele><time>2026-04-19T12:31:26.064Z</time></trkpt><trkpt lat="42.0896662" lon="11.7938063"><ele>3.0</ele><time>2026-04-19T12:31:27.063Z</time></trkpt><trkpt lat="42.0896041" lon="11.7939397"><ele>3.0</ele><time>2026-04-19T12:31:28.055Z</time></trkpt><trkpt lat="42.0895413" lon="11.7940731"><ele>3.0</ele><time>2026-04-19T12:31:29.059Z</time></trkpt><trkpt lat="42.0894777" lon="11.7942088"><ele>3.0</ele><time>2026-04-19T12:31:30.064Z</time></trkpt><trkpt lat="42.0894117" lon="11.7943475"><ele>3.0</ele><time>2026-04-19T12:31:31.07Z</time></trkpt><trkpt lat="42.089344" lon="11.7944886"><ele>4.0</ele><time>2026-04-19T12:31:32.048Z</time></trkpt><trkpt lat="42.0892798" lon="11.7946239"><ele>5.0</ele><time>2026-04-19T12:31:33.057Z</time></trkpt><trkpt lat="42.0892173" lon="11.794752"><ele>6.0</ele><time>2026-04-19T12:31:34.055Z</time></trkpt><trkpt lat="42.0891591" lon="11.7948807"><ele>7.0</ele><time>2026-04-19T12:31:35.057Z</time></trkpt><trkpt lat="42.0891005" lon="11.7950132"><ele>6.0</ele><time>2026-04-19T12:31:36.056Z</time></trkpt><trkpt lat="42.0890393" lon="11.7951486"><ele>5.0</ele><time>2026-04-19T12:31:37.062Z</time></trkpt><trkpt lat="42.0889749" lon="11.7952858"><ele>4.0</ele><time>2026-04-19T12:31:38.053Z</time></trkpt><trkpt lat="42.0889108" lon="11.7954212"><ele>3.0</ele><time>2026-04-19T12:31:39.064Z</time></trkpt><trkpt lat="42.0888476" lon="11.7955542"><ele>3.0</ele><time>2026-04-19T12:31:40.065Z</time></trkpt><trkpt lat="42.0887881" lon="11.7956823"><ele>3.0</ele><time>2026-04-19T12:31:41.055Z</time></trkpt><trkpt lat="42.0887303" lon="11.7958036"><ele>3.0</ele><time>2026-04-19T12:31:42.065Z</time></trkpt><trkpt lat="42.0886769" lon="11.7959165"><ele>3.0</ele><time>2026-04-19T12:31:43.067Z</time></trkpt><trkpt lat="42.088627" lon="11.7960237"><ele>3.0</ele><time>2026-04-19T12:31:44.057Z</time></trkpt><trkpt lat="42.0885803" lon="11.796126"><ele>3.3333333333333335</ele><time>2026-04-19T12:31:45.074Z</time></trkpt><trkpt lat="42.0885356" lon="11.7962221"><ele>3.666666666666667</ele><time>2026-04-19T12:31:46.065Z</time></trkpt><trkpt lat="42.0884926" lon="11.7963122"><ele>4.0</ele><time>2026-04-19T12:31:47.06Z</time></trkpt><trkpt lat="42.088451" lon="11.7963955"><ele>4.333333333333334</ele><time>2026-04-19T12:31:48.065Z</time></trkpt><trkpt lat="42.0884097" lon="11.7964733"><ele>4.666666666666667</ele><time>2026-04-19T12:31:49.068Z</time></trkpt><trkpt lat="42.0883732" lon="11.7965479"><ele>5.0</ele><time>2026-04-19T12:31:50.069Z</time></trkpt><trkpt lat="42.0883101" lon="11.7966794"><ele>4.5</ele><time>2026-04-19T12:31:52.069Z</time></trkpt><trkpt lat="42.0882432" lon="11.7967698"><ele>4.0</ele><time>2026-04-19T12:31:54.071Z</time></trkpt><trkpt lat="42.0881686" lon="11.7968"><ele>3.5</ele><time>2026-04-19T12:31:56.068Z</time></trkpt><trkpt lat="42.0881184" lon="11.796709"><ele>3.0</ele><time>2026-04-19T12:31:58.061Z</time></trkpt><trkpt lat="42.0881637" lon="11.7965812"><ele>2.5</ele><time>2026-04-19T12:32:00.069Z</time></trkpt><trkpt lat="42.0881999" lon="11.7964909"><ele>2.0</ele><time>2026-04-19T12:32:01.059Z</time></trkpt><trkpt lat="42.0882341" lon="11.7963962"><ele>2.1666666666666665</ele><time>2026-04-19T12:32:02.058Z</time></trkpt><trkpt lat="42.0882714" lon="11.7962863"><ele>2.333333333333333</ele><time>2026-04-19T12:32:03.069Z</time></trkpt><trkpt lat="42.0883076" lon="11.7961757"><ele>2.5</ele><time>2026-04-19T12:32:04.069Z</time></trkpt><trkpt lat="42.0883471" lon="11.7960591"><ele>2.6666666666666665</ele><time>2026-04-19T12:32:05.061Z</time></trkpt><trkpt lat="42.0883785" lon="11.7959594"><ele>2.8333333333333335</ele><time>2026-04-19T12:32:06.058Z</time></trkpt><trkpt lat="42.0884031" lon="11.795866"><ele>3.0</ele><time>2026-04-19T12:32:07.07Z</time></trkpt><trkpt lat="42.0884199" lon="11.7957716"><ele>3.0</ele><time>2026-04-19T12:32:08.064Z</time></trkpt><trkpt lat="42.0884374" lon="11.7956709"><ele>3.0</ele><time>2026-04-19T12:32:09.063Z</time></trkpt><trkpt lat="42.0884541" lon="11.7955791"><ele>3.0</ele><time>2026-04-19T12:32:10.062Z</time></trkpt><trkpt lat="42.088469" lon="11.7954874"><ele>3.0</ele><time>2026-04-19T12:32:11.065Z</time></trkpt><trkpt lat="42.0884837" lon="11.7953954"><ele>3.0</ele><time>2026-04-19T12:32:12.061Z</time></trkpt><trkpt lat="42.0884993" lon="11.7953076"><ele>3.0</ele><time>2026-04-19T12:32:13.065Z</time></trkpt><trkpt lat="42.0885372" lon="11.7951618"><ele>2.6</ele><time>2026-04-19T12:32:15.065Z</time></trkpt><trkpt lat="42.0885963" lon="11.7950439"><ele>2.1999999999999997</ele><time>2026-04-19T12:32:17.069Z</time></trkpt><trkpt lat="42.088652" lon="11.7949163"><ele>1.8</ele><time>2026-04-19T12:32:19.055Z</time></trkpt><trkpt lat="42.0887045" lon="11.7947963"><ele>1.4</ele><time>2026-04-19T12:32:21.066Z</time></trkpt><trkpt lat="42.0887604" lon="11.7946835"><ele>1.0</ele><time>2026-04-19T12:32:23.062Z</time></trkpt><trkpt lat="42.088822" lon="11.7945507"><ele>0.9999999999999999</ele><time>2026-04-19T12:32:25.053Z</time></trkpt><trkpt lat="42.0888859" lon="11.7944069"><ele>1.0</ele><time>2026-04-19T12:32:27.067Z</time></trkpt><trkpt lat="42.0889154" lon="11.7943311"><ele>1.0</ele><time>2026-04-19T12:32:28.06Z</time></trkpt><trkpt lat="42.0889472" lon="11.7942569"><ele>1.0</ele><time>2026-04-19T12:32:29.06Z</time></trkpt><trkpt lat="42.0889823" lon="11.7941838"><ele>0.9999999999999999</ele><time>2026-04-19T12:32:30.067Z</time></trkpt><trkpt lat="42.0890218" lon="11.7941104"><ele>1.0</ele><time>2026-04-19T12:32:31.059Z</time></trkpt><trkpt lat="42.0890609" lon="11.7940365"><ele>1.1428571428571428</ele><time>2026-04-19T12:32:32.062Z</time></trkpt><trkpt lat="42.0890997" lon="11.7939617"><ele>1.2857142857142856</ele><time>2026-04-19T12:32:33.058Z</time></trkpt><trkpt lat="42.0891388" lon="11.7938867"><ele>1.4285714285714284</ele><time>2026-04-19T12:32:34.057Z</time></trkpt><trkpt lat="42.0891793" lon="11.7938127"><ele>1.5714285714285714</ele><time>2026-04-19T12:32:35.061Z</time></trkpt><trkpt lat="42.0892189" lon="11.7937376"><ele>1.714285714285714</ele><time>2026-04-19T12:32:36.064Z</time></trkpt><trkpt lat="42.0892561" lon="11.7936602"><ele>1.857142857142857</ele><time>2026-04-19T12:32:37.062Z</time></trkpt><trkpt lat="42.0892919" lon="11.7935827"><ele>2.0</ele><time>2026-04-19T12:32:38.064Z</time></trkpt><trkpt lat="42.0893292" lon="11.7935047"><ele>1.9999999999999998</ele><time>2026-04-19T12:32:39.06Z</time></trkpt><trkpt lat="42.0893654" lon="11.7934251"><ele>2.0</ele><time>2026-04-19T12:32:40.055Z</time></trkpt><trkpt lat="42.0893946" lon="11.7933485"><ele>2.0</ele><time>2026-04-19T12:32:41.063Z</time></trkpt><trkpt lat="42.0894262" lon="11.7932078"><ele>2.0</ele><time>2026-04-19T12:32:43.058Z</time></trkpt><trkpt lat="42.0894345" lon="11.7930855"><ele>1.9999999999999998</ele><time>2026-04-19T12:32:45.056Z</time></trkpt><trkpt lat="42.0894466" lon="11.7929985"><ele>2.0</ele><time>2026-04-19T12:38:06.057Z</time></trkpt><trkpt lat="42.0894831" lon="11.7929277"><ele>2.0</ele><time>2026-04-19T12:38:12.059Z</time></trkpt><trkpt lat="42.0894939" lon="11.7928334"><ele>1.9999999999999998</ele><time>2026-04-19T12:38:21.139Z</time></trkpt><trkpt lat="42.0895255" lon="11.7927586"><ele>2.0</ele><time>2026-04-19T12:38:28.061Z</time></trkpt><trkpt lat="42.0895147" lon="11.7928473"><ele>2.0</ele><time>2026-04-19T12:38:38.12Z</time></trkpt><trkpt lat="42.0894619" lon="11.792894"><ele>1.9999999999999998</ele><time>2026-04-19T12:39:35.056Z</time></trkpt><trkpt lat="42.0894155" lon="11.7929593"><ele>2.0</ele><time>2026-04-19T12:39:51.071Z</time></trkpt><trkpt lat="42.0894486" lon="11.7930452"><ele>2.0</ele><time>2026-04-19T12:54:05.031Z</time></trkpt><trkpt lat="42.0893886" lon="11.7929836"><ele>1.9999999999999998</ele><time>2026-04-19T12:54:08.117Z</time></trkpt><trkpt lat="42.0893172" lon="11.7929305"><ele>2.0</ele><time>2026-04-19T12:54:11.069Z</time></trkpt><trkpt lat="42.089231" lon="11.7929166"><ele>2.0</ele><time>2026-04-19T12:54:14.053Z</time></trkpt><trkpt lat="42.0891943" lon="11.792833"><ele>2.0</ele><time>2026-04-19T12:54:17.064Z</time></trkpt><trkpt lat="42.0892741" lon="11.7929077"><ele>1.9999999999999998</ele><time>2026-04-19T13:00:28.048Z</time></trkpt><trkpt lat="42.0893409" lon="11.7929804"><ele>2.0</ele><time>2026-04-19T13:00:31.054Z</time></trkpt><trkpt lat="42.0894021" lon="11.7930157"><ele>2.0</ele><time>2026-04-19T13:00:34.054Z</time></trkpt><trkpt lat="42.089471" lon="11.7929991"><ele>1.9999999999999998</ele><time>2026-04-19T13:03:50.044Z</time></trkpt><trkpt lat="42.0894717" lon="11.792896"><ele>2.0</ele><time>2026-04-19T13:05:05.03Z</time></trkpt><trkpt lat="42.0895368" lon="11.7929168"><ele>2.0</ele><time>2026-04-19T13:06:25.077Z</time></trkpt><trkpt lat="42.0894965" lon="11.7929828"><ele>1.9999999999999998</ele><time>2026-04-19T13:07:46.095Z</time></trkpt><trkpt lat="42.089546" lon="11.7929279"><ele>2.0</ele><time>2026-04-19T13:15:44.127Z</time></trkpt><trkpt lat="42.0896073" lon="11.7929578"><ele>2.0</ele><time>2026-04-19T13:15:49.108Z</time></trkpt><trkpt lat="42.0896747" lon="11.7929426"><ele>2.0</ele><time>2026-04-19T13:15:55.065Z</time></trkpt><trkpt lat="42.0897465" lon="11.7929382"><ele>1.9999999999999998</ele><time>2026-04-19T13:16:01.089Z</time></trkpt><trkpt lat="42.0898177" lon="11.7929408"><ele>2.0</ele><time>2026-04-19T13:16:08.065Z</time></trkpt><trkpt lat="42.0898787" lon="11.7929711"><ele>2.0</ele><time>2026-04-19T13:16:14.147Z</time></trkpt><trkpt lat="42.0899443" lon="11.7929646"><ele>1.9999999999999998</ele><time>2026-04-19T13:16:21.086Z</time></trkpt><trkpt lat="42.090011" lon="11.7929705"><ele>2.0</ele><time>2026-04-19T13:16:29.105Z</time></trkpt><trkpt lat="42.0900752" lon="11.7929844"><ele>2.0</ele><time>2026-04-19T13:16:36.106Z</time></trkpt><trkpt lat="42.0901396" lon="11.793007"><ele>2.8571428571428568</ele><time>2026-04-19T13:16:44.071Z</time></trkpt><trkpt lat="42.090192" lon="11.7930698"><ele>3.714285714285714</ele><time>2026-04-19T13:16:51.98Z</time></trkpt><trkpt lat="42.0901862" lon="11.7931605"><ele>4.571428571428571</ele><time>2026-04-19T13:16:58.088Z</time></trkpt><trkpt lat="42.0901265" lon="11.7932107"><ele>5.428571428571428</ele><time>2026-04-19T13:17:03.04Z</time></trkpt><trkpt lat="42.0900692" lon="11.793261"><ele>6.285714285714285</ele><time>2026-04-19T13:17:10.15Z</time></trkpt><trkpt lat="42.090035" lon="11.7933439"><ele>7.142857142857142</ele><time>2026-04-19T13:17:17.13Z</time></trkpt><trkpt lat="42.090019" lon="11.7934283"><ele>8.0</ele><time>2026-04-19T13:17:26.059Z</time></trkpt><trkpt lat="42.0899646" lon="11.7934853"><ele>8.571428571428571</ele><time>2026-04-19T13:17:43.094Z</time></trkpt><trkpt lat="42.0899991" lon="11.7935565"><ele>9.142857142857142</ele><time>2026-04-19T13:17:51.074Z</time></trkpt><trkpt lat="42.0900046" lon="11.7936517"><ele>9.714285714285714</ele><time>2026-04-19T13:17:57.063Z</time></trkpt><trkpt lat="42.0899785" lon="11.7937337"><ele>10.285714285714285</ele><time>2026-04-19T13:18:02.063Z</time></trkpt><trkpt lat="42.089947" lon="11.7938138"><ele>10.857142857142858</ele><time>2026-04-19T13:18:08.093Z</time></trkpt><trkpt lat="42.0899535" lon="11.7939094"><ele>11.428571428571427</ele><time>2026-04-19T13:18:14.094Z</time></trkpt><trkpt lat="42.0899989" lon="11.7939797"><ele>12.0</ele><time>2026-04-19T13:18:22.117Z</time></trkpt><trkpt lat="42.0900257" lon="11.7940598"><ele>11.999999999999998</ele><time>2026-04-19T13:18:33.077Z</time></trkpt><trkpt lat="42.0900727" lon="11.7941248"><ele>12.0</ele><time>2026-04-19T13:18:43.1Z</time></trkpt><trkpt lat="42.0901273" lon="11.7941856"><ele>12.0</ele><time>2026-04-19T13:18:50.08Z</time></trkpt><trkpt lat="42.0901824" lon="11.7942332"><ele>12.0</ele><time>2026-04-19T13:18:55.1Z</time></trkpt><trkpt lat="42.090237" lon="11.7942822"><ele>12.0</ele><time>2026-04-19T13:19:00.08Z</time></trkpt><trkpt lat="42.0902997" lon="11.7943246"><ele>11.999999999999998</ele><time>2026-04-19T13:19:08.082Z</time></trkpt><trkpt lat="42.0903529" lon="11.79438"><ele>12.0</ele><time>2026-04-19T13:19:16.143Z</time></trkpt><trkpt lat="42.0904056" lon="11.7944299"><ele>12.428571428571427</ele><time>2026-04-19T13:19:24.076Z</time></trkpt><trkpt lat="42.0904568" lon="11.79448"><ele>12.857142857142858</ele><time>2026-04-19T13:19:31.061Z</time></trkpt><trkpt lat="42.0905089" lon="11.7945324"><ele>13.285714285714285</ele><time>2026-04-19T13:19:38.101Z</time></trkpt><trkpt lat="42.0905592" lon="11.7945839"><ele>13.714285714285714</ele><time>2026-04-19T13:19:45.063Z</time></trkpt><trkpt lat="42.0906229" lon="11.7946098"><ele>14.142857142857142</ele><time>2026-04-19T13:19:51.057Z</time></trkpt><trkpt lat="42.0906773" lon="11.7946527"><ele>14.571428571428571</ele><time>2026-04-19T13:19:58.099Z</time></trkpt><trkpt lat="42.0907337" lon="11.7947046"><ele>15.0</ele><time>2026-04-19T13:20:07.078Z</time></trkpt><trkpt lat="42.0907956" lon="11.7947593"><ele>15.0</ele><time>2026-04-19T13:20:15.08Z</time></trkpt><trkpt lat="42.0908457" lon="11.7948198"><ele>15.0</ele><time>2026-04-19T13:20:22.08Z</time></trkpt><trkpt lat="42.0909006" lon="11.7948654"><ele>15.0</ele><time>2026-04-19T13:20:29.08Z</time></trkpt><trkpt lat="42.0909472" lon="11.7949235"><ele>15.0</ele><time>2026-04-19T13:20:37.099Z</time></trkpt><trkpt lat="42.0910028" lon="11.7949781"><ele>15.0</ele><time>2026-04-19T13:20:44.121Z</time></trkpt><trkpt lat="42.0910635" lon="11.7950156"><ele>15.0</ele><time>2026-04-19T13:20:55.121Z</time></trkpt><trkpt lat="42.0911178" lon="11.7950695"><ele>15.0</ele><time>2026-04-19T13:21:03.071Z</time></trkpt><trkpt lat="42.0911514" lon="11.7951493"><ele>15.0</ele><time>2026-04-19T13:21:15.059Z</time></trkpt><trkpt lat="42.0910881" lon="11.7950717"><ele>15.0</ele><time>2026-04-19T13:31:17.056Z</time></trkpt><trkpt lat="42.0910356" lon="11.7950222"><ele>15.0</ele><time>2026-04-19T13:31:19.068Z</time></trkpt><trkpt lat="42.0909664" lon="11.7949665"><ele>15.0</ele><time>2026-04-19T13:31:21.059Z</time></trkpt><trkpt lat="42.0908995" lon="11.7948981"><ele>15.0</ele><time>2026-04-19T13:31:23.059Z</time></trkpt><trkpt lat="42.0908315" lon="11.7948424"><ele>15.0</ele><time>2026-04-19T13:31:25.06Z</time></trkpt><trkpt lat="42.0907556" lon="11.7947739"><ele>15.0</ele><time>2026-04-19T13:31:28.053Z</time></trkpt><trkpt lat="42.090711" lon="11.7947099"><ele>15.0</ele><time>2026-04-19T13:31:30.046Z</time></trkpt><trkpt lat="42.0906584" lon="11.7946467"><ele>15.0</ele><time>2026-04-19T13:31:32.049Z</time></trkpt><trkpt lat="42.0905914" lon="11.794596"><ele>15.0</ele><time>2026-04-19T13:31:35.064Z</time></trkpt><trkpt lat="42.0905291" lon="11.7945637"><ele>15.0</ele><time>2026-04-19T13:31:38.063Z</time></trkpt><trkpt lat="42.0904658" lon="11.7945056"><ele>15.0</ele><time>2026-04-19T13:31:42.066Z</time></trkpt><trkpt lat="42.0904011" lon="11.7944388"><ele>15.0</ele><time>2026-04-19T13:31:46.068Z</time></trkpt><trkpt lat="42.0903212" lon="11.7943636"><ele>14.5</ele><time>2026-04-19T13:31:49.054Z</time></trkpt><trkpt lat="42.0902465" lon="11.7942908"><ele>14.0</ele><time>2026-04-19T13:31:51.068Z</time></trkpt><trkpt lat="42.0901834" lon="11.794231"><ele>13.5</ele><time>2026-04-19T13:31:53.053Z</time></trkpt><trkpt lat="42.0901234" lon="11.7941598"><ele>13.0</ele><time>2026-04-19T13:31:55.06Z</time></trkpt><trkpt lat="42.0900682" lon="11.7940939"><ele>12.5</ele><time>2026-04-19T13:31:57.059Z</time></trkpt><trkpt lat="42.0900145" lon="11.794034"><ele>12.0</ele><time>2026-04-19T13:31:59.067Z</time></trkpt><trkpt lat="42.0899537" lon="11.7939666"><ele>10.5</ele><time>2026-04-19T13:32:02.064Z</time></trkpt><trkpt lat="42.0898801" lon="11.7939171"><ele>9.0</ele><time>2026-04-19T13:32:05.07Z</time></trkpt><trkpt lat="42.0898178" lon="11.793873"><ele>7.5</ele><time>2026-04-19T13:32:08.063Z</time></trkpt><trkpt lat="42.0897469" lon="11.7938414"><ele>6.0</ele><time>2026-04-19T13:32:12.067Z</time></trkpt><trkpt lat="42.0896728" lon="11.793836"><ele>4.5</ele><time>2026-04-19T13:32:35.063Z</time></trkpt><trkpt lat="42.0896095" lon="11.7939158"><ele>3.0</ele><time>2026-04-19T13:32:38.067Z</time></trkpt><trkpt lat="42.089566" lon="11.7940099"><ele>3.0</ele><time>2026-04-19T13:32:40.061Z</time></trkpt><trkpt lat="42.0895187" lon="11.7941204"><ele>3.0</ele><time>2026-04-19T13:32:42.069Z</time></trkpt><trkpt lat="42.0894647" lon="11.7942378"><ele>3.0</ele><time>2026-04-19T13:32:44.064Z</time></trkpt><trkpt lat="42.0894078" lon="11.7943629"><ele>3.0</ele><time>2026-04-19T13:32:46.076Z</time></trkpt><trkpt lat="42.0893485" lon="11.7944961"><ele>3.0</ele><time>2026-04-19T13:32:48.076Z</time></trkpt><trkpt lat="42.0892835" lon="11.7946359"><ele>2.6666666666666665</ele><time>2026-04-19T13:32:50.058Z</time></trkpt><trkpt lat="42.0892186" lon="11.7947793"><ele>2.3333333333333335</ele><time>2026-04-19T13:32:52.055Z</time></trkpt><trkpt lat="42.089182" lon="11.7948575"><ele>2.0</ele><time>2026-04-19T13:32:53.056Z</time></trkpt><trkpt lat="42.0891467" lon="11.7949322"><ele>1.6666666666666665</ele><time>2026-04-19T13:32:54.059Z</time></trkpt><trkpt lat="42.0891084" lon="11.7950088"><ele>1.3333333333333333</ele><time>2026-04-19T13:32:55.064Z</time></trkpt><trkpt lat="42.0890687" lon="11.7950889"><ele>1.0</ele><time>2026-04-19T13:32:56.057Z</time></trkpt><trkpt lat="42.0890322" lon="11.7951678"><ele>1.3333333333333333</ele><time>2026-04-19T13:32:57.061Z</time></trkpt><trkpt lat="42.0889955" lon="11.7952456"><ele>1.6666666666666665</ele><time>2026-04-19T13:32:58.076Z</time></trkpt><trkpt lat="42.0889611" lon="11.7953216"><ele>2.0</ele><time>2026-04-19T13:32:59.058Z</time></trkpt><trkpt lat="42.0888949" lon="11.7954625"><ele>2.3333333333333335</ele><time>2026-04-19T13:33:01.062Z</time></trkpt><trkpt lat="42.0888293" lon="11.7956048"><ele>2.6666666666666665</ele><time>2026-04-19T13:33:03.057Z</time></trkpt><trkpt lat="42.088794" lon="11.7956784"><ele>3.0</ele><time>2026-04-19T13:33:04.063Z</time></trkpt><trkpt lat="42.0887593" lon="11.7957535"><ele>3.0</ele><time>2026-04-19T13:33:05.055Z</time></trkpt><trkpt lat="42.0887235" lon="11.7958312"><ele>3.0</ele><time>2026-04-19T13:33:06.061Z</time></trkpt><trkpt lat="42.0886875" lon="11.7959111"><ele>3.0</ele><time>2026-04-19T13:33:07.075Z</time></trkpt><trkpt lat="42.0886515" lon="11.795992"><ele>3.0</ele><time>2026-04-19T13:33:08.059Z</time></trkpt><trkpt lat="42.0886154" lon="11.7960722"><ele>3.0</ele><time>2026-04-19T13:33:09.058Z</time></trkpt><trkpt lat="42.0885786" lon="11.7961497"><ele>3.0</ele><time>2026-04-19T13:33:10.051Z</time></trkpt><trkpt lat="42.0885124" lon="11.7962914"><ele>2.8333333333333335</ele><time>2026-04-19T13:33:12.081Z</time></trkpt><trkpt lat="42.0884775" lon="11.7963647"><ele>2.6666666666666665</ele><time>2026-04-19T13:33:13.059Z</time></trkpt><trkpt lat="42.0884129" lon="11.7965059"><ele>2.5</ele><time>2026-04-19T13:33:15.057Z</time></trkpt><trkpt lat="42.0883568" lon="11.7966312"><ele>2.333333333333333</ele><time>2026-04-19T13:33:17.058Z</time></trkpt><trkpt lat="42.0883113" lon="11.7967228"><ele>2.1666666666666665</ele><time>2026-04-19T13:33:19.068Z</time></trkpt><trkpt lat="42.0882572" lon="11.7967706"><ele>2.0</ele><time>2026-04-19T13:33:21.062Z</time></trkpt><trkpt lat="42.0881747" lon="11.7967756"><ele>2.0</ele><time>2026-04-19T13:33:24.059Z</time></trkpt><trkpt lat="42.0881166" lon="11.7967382"><ele>1.9999999999999998</ele><time>2026-04-19T13:33:28.081Z</time></trkpt><trkpt lat="42.0881002" lon="11.7966531"><ele>2.0</ele><time>2026-04-19T13:33:33.07Z</time></trkpt><trkpt lat="42.0881336" lon="11.7965757"><ele>2.0</ele><time>2026-04-19T13:33:41.058Z</time></trkpt><trkpt lat="42.0881628" lon="11.7964901"><ele>1.9999999999999998</ele><time>2026-04-19T13:33:47.062Z</time></trkpt><trkpt lat="42.0881931" lon="11.7964133"><ele>2.0</ele><time>2026-04-19T13:33:53.059Z</time></trkpt><trkpt lat="42.0882209" lon="11.796328"><ele>2.0</ele><time>2026-04-19T13:34:01.074Z</time></trkpt><trkpt lat="42.088254" lon="11.7962396"><ele>2.1666666666666665</ele><time>2026-04-19T13:34:06.057Z</time></trkpt><trkpt lat="42.0882859" lon="11.7961422"><ele>2.333333333333333</ele><time>2026-04-19T13:34:10.07Z</time></trkpt><trkpt lat="42.0883152" lon="11.7960563"><ele>2.5</ele><time>2026-04-19T13:34:13.074Z</time></trkpt><trkpt lat="42.0883482" lon="11.7959522"><ele>2.6666666666666665</ele><time>2026-04-19T13:34:16.064Z</time></trkpt><trkpt lat="42.0883829" lon="11.795843"><ele>2.8333333333333335</ele><time>2026-04-19T13:34:19.076Z</time></trkpt><trkpt lat="42.0884082" lon="11.7957417"><ele>3.0</ele><time>2026-04-19T13:34:22.068Z</time></trkpt><trkpt lat="42.0884279" lon="11.7956339"><ele>2.9999999999999996</ele><time>2026-04-19T13:34:26.072Z</time></trkpt><trkpt lat="42.0884485" lon="11.7955448"><ele>3.0</ele><time>2026-04-19T13:34:29.068Z</time></trkpt><trkpt lat="42.0884686" lon="11.7954462"><ele>3.0</ele><time>2026-04-19T13:34:32.063Z</time></trkpt><trkpt lat="42.0884816" lon="11.7953352"><ele>3.0</ele><time>2026-04-19T13:34:35.063Z</time></trkpt><trkpt lat="42.0884948" lon="11.7952505"><ele>3.0</ele><time>2026-04-19T13:34:37.066Z</time></trkpt><trkpt lat="42.088521" lon="11.7951702"><ele>2.9999999999999996</ele><time>2026-04-19T13:34:39.056Z</time></trkpt><trkpt lat="42.0885587" lon="11.7950939"><ele>3.0</ele><time>2026-04-19T13:34:41.064Z</time></trkpt><trkpt lat="42.0885946" lon="11.7950165"><ele>2.6666666666666665</ele><time>2026-04-19T13:34:43.06Z</time></trkpt><trkpt lat="42.0886324" lon="11.7949362"><ele>2.3333333333333335</ele><time>2026-04-19T13:34:45.068Z</time></trkpt><trkpt lat="42.0886741" lon="11.7948447"><ele>2.0</ele><time>2026-04-19T13:34:47.059Z</time></trkpt><trkpt lat="42.0887146" lon="11.7947559"><ele>1.6666666666666665</ele><time>2026-04-19T13:34:49.073Z</time></trkpt><trkpt lat="42.0887545" lon="11.7946699"><ele>1.3333333333333333</ele><time>2026-04-19T13:34:51.063Z</time></trkpt><trkpt lat="42.0887897" lon="11.7945915"><ele>1.0</ele><time>2026-04-19T13:34:53.06Z</time></trkpt><trkpt lat="42.0888385" lon="11.7944885"><ele>1.0</ele><time>2026-04-19T13:34:56.065Z</time></trkpt><trkpt lat="42.0888807" lon="11.7944019"><ele>0.9999999999999999</ele><time>2026-04-19T13:34:59.059Z</time></trkpt><trkpt lat="42.0889256" lon="11.7943027"><ele>1.0</ele><time>2026-04-19T13:35:02.071Z</time></trkpt><trkpt lat="42.0889586" lon="11.7942249"><ele>1.0</ele><time>2026-04-19T13:35:04.059Z</time></trkpt><trkpt lat="42.0889914" lon="11.7941476"><ele>0.9999999999999999</ele><time>2026-04-19T13:35:06.059Z</time></trkpt><trkpt lat="42.0890233" lon="11.7940738"><ele>1.0</ele><time>2026-04-19T13:35:08.063Z</time></trkpt><trkpt lat="42.0890716" lon="11.7939759"><ele>1.0</ele><time>2026-04-19T13:35:11.084Z</time></trkpt><trkpt lat="42.0891158" lon="11.7938988"><ele>1.1428571428571428</ele><time>2026-04-19T13:35:14.065Z</time></trkpt><trkpt lat="42.0891561" lon="11.7938281"><ele>1.2857142857142856</ele><time>2026-04-19T13:35:19.074Z</time></trkpt><trkpt lat="42.0892029" lon="11.7937395"><ele>1.4285714285714284</ele><time>2026-04-19T13:35:24.063Z</time></trkpt><trkpt lat="42.0891952" lon="11.7936381"><ele>1.5714285714285714</ele><time>2026-04-19T13:35:29.08Z</time></trkpt><trkpt lat="42.0891673" lon="11.7935613"><ele>1.714285714285714</ele><time>2026-04-19T13:35:35.074Z</time></trkpt><trkpt lat="42.0891833" lon="11.7934765"><ele>1.857142857142857</ele><time>2026-04-19T13:35:50.057Z</time></trkpt><trkpt lat="42.089211" lon="11.7933985"><ele>2.0</ele><time>2026-04-19T13:35:54.064Z</time></trkpt><trkpt lat="42.0892402" lon="11.7933226"><ele>2.0</ele><time>2026-04-19T13:36:01.063Z</time></trkpt><trkpt lat="42.0892744" lon="11.7932371"><ele>2.0</ele><time>2026-04-19T13:36:13.08Z</time></trkpt><trkpt lat="42.0893144" lon="11.7931517"><ele>2.0</ele><time>2026-04-19T13:36:21.056Z</time></trkpt><trkpt lat="42.0893652" lon="11.7931"><ele>2.0</ele><time>2026-04-19T13:36:27.056Z</time></trkpt><trkpt lat="42.0894226" lon="11.7931567"><ele>2.0</ele><time>2026-04-19T13:36:35.059Z</time></trkpt></trkseg></trk></gpx>